<?xml version='1.0' encoding='UTF-8'?><gpx version="1.1" creator="JPX - https://github.com/jenetics/jpx" xmlns="http://www.topografix.com/GPX/1/1"><trk><trkseg><trkpt lat="43.8932683" lon="8.0460985"><ele>63.0</ele><time>2026-04-26T06:24:03.935Z</time></trkpt><trkpt lat="43.893191" lon="8.046234"><ele>63.0</ele><time>2026-04-26T06:24:06.075Z</time></trkpt><trkpt lat="43.8931546" lon="8.0464315"><ele>63.0</ele><time>2026-04-26T06:24:07.958Z</time></trkpt><trkpt lat="43.8931356" lon="8.0465369"><ele>63.0</ele><time>2026-04-26T06:24:09.15Z</time></trkpt><trkpt lat="43.8931373" lon="8.0466353"><ele>63.0</ele><time>2026-04-26T06:24:11.138Z</time></trkpt><trkpt lat="43.8932356" lon="8.0466736"><ele>60.66666666666667</ele><time>2026-04-26T06:24:13.066Z</time></trkpt><trkpt lat="43.893399" lon="8.046772"><ele>58.333333333333336</ele><time>2026-04-26T06:24:15.188Z</time></trkpt><trkpt lat="43.8934827" lon="8.0469932"><ele>56.0</ele><time>2026-04-26T06:24:17.113Z</time></trkpt><trkpt lat="43.8935104" lon="8.0472845"><ele>63.0</ele><time>2026-04-26T06:24:19.087Z</time></trkpt><trkpt lat="43.8935064" lon="8.0475906"><ele>70.0</ele><time>2026-04-26T06:24:21.005Z</time></trkpt><trkpt lat="43.8935873" lon="8.0478962"><ele>70.0</ele><time>2026-04-26T06:24:23.064Z</time></trkpt><trkpt lat="43.8936683" lon="8.0480146"><ele>70.0</ele><time>2026-04-26T06:24:24.062Z</time></trkpt><trkpt lat="43.8937638" lon="8.0481153"><ele>70.0</ele><time>2026-04-26T06:24:25.061Z</time></trkpt><trkpt lat="43.8938865" lon="8.0482107"><ele>70.0</ele><time>2026-04-26T06:24:26.061Z</time></trkpt><trkpt lat="43.8940011" lon="8.0483126"><ele>67.33333333333333</ele><time>2026-04-26T06:24:27.001Z</time></trkpt><trkpt lat="43.8941052" lon="8.0484072"><ele>64.66666666666667</ele><time>2026-04-26T06:24:27.941Z</time></trkpt><trkpt lat="43.8942247" lon="8.0485153"><ele>62.0</ele><time>2026-04-26T06:24:29.102Z</time></trkpt><trkpt lat="43.8943632" lon="8.0487132"><ele>62.0</ele><time>2026-04-26T06:24:30.893Z</time></trkpt><trkpt lat="43.8944142" lon="8.0488371"><ele>62.0</ele><time>2026-04-26T06:24:31.911Z</time></trkpt><trkpt lat="43.8944913" lon="8.0489234"><ele>62.0</ele><time>2026-04-26T06:24:32.91Z</time></trkpt><trkpt lat="43.8945932" lon="8.0489782"><ele>62.0</ele><time>2026-04-26T06:24:33.864Z</time></trkpt><trkpt lat="43.8946912" lon="8.0490873"><ele>62.0</ele><time>2026-04-26T06:24:34.945Z</time></trkpt><trkpt lat="43.8947286" lon="8.0492364"><ele>59.0</ele><time>2026-04-26T06:24:35.921Z</time></trkpt><trkpt lat="43.894744" lon="8.0494283"><ele>56.0</ele><time>2026-04-26T06:24:36.956Z</time></trkpt><trkpt lat="43.894701" lon="8.0495912"><ele>53.0</ele><time>2026-04-26T06:24:37.883Z</time></trkpt><trkpt lat="43.8946482" lon="8.0497518"><ele>50.0</ele><time>2026-04-26T06:24:38.985Z</time></trkpt><trkpt lat="43.8945422" lon="8.0499038"><ele>50.0</ele><time>2026-04-26T06:24:40.9Z</time></trkpt><trkpt lat="43.8944489" lon="8.0499292"><ele>50.0</ele><time>2026-04-26T06:24:42.913Z</time></trkpt><trkpt lat="43.8943721" lon="8.0498703"><ele>50.0</ele><time>2026-04-26T06:24:44.145Z</time></trkpt><trkpt lat="43.8941981" lon="8.0497713"><ele>50.0</ele><time>2026-04-26T06:24:46.028Z</time></trkpt><trkpt lat="43.8939678" lon="8.0497562"><ele>47.333333333333336</ele><time>2026-04-26T06:24:48Z</time></trkpt><trkpt lat="43.8937538" lon="8.0495798"><ele>44.66666666666667</ele><time>2026-04-26T06:24:49.991Z</time></trkpt><trkpt lat="43.893658" lon="8.0494847"><ele>42.0</ele><time>2026-04-26T06:24:50.929Z</time></trkpt><trkpt lat="43.893554" lon="8.0493926"><ele>42.0</ele><time>2026-04-26T06:24:51.888Z</time></trkpt><trkpt lat="43.8934483" lon="8.0492986"><ele>42.0</ele><time>2026-04-26T06:24:52.831Z</time></trkpt><trkpt lat="43.893337" lon="8.049214"><ele>42.0</ele><time>2026-04-26T06:24:53.831Z</time></trkpt><trkpt lat="43.8931902" lon="8.0491291"><ele>42.0</ele><time>2026-04-26T06:24:55.001Z</time></trkpt><trkpt lat="43.8929498" lon="8.0489515"><ele>41.25</ele><time>2026-04-26T06:24:56.947Z</time></trkpt><trkpt lat="43.8928234" lon="8.0488627"><ele>40.5</ele><time>2026-04-26T06:24:57.959Z</time></trkpt><trkpt lat="43.8926961" lon="8.0487762"><ele>39.75</ele><time>2026-04-26T06:24:58.944Z</time></trkpt><trkpt lat="43.8925677" lon="8.0486811"><ele>39.0</ele><time>2026-04-26T06:25:00.013Z</time></trkpt><trkpt lat="43.892352" lon="8.0484917"><ele>37.0</ele><time>2026-04-26T06:25:02.06Z</time></trkpt><trkpt lat="43.8922633" lon="8.0483601"><ele>35.0</ele><time>2026-04-26T06:25:03.129Z</time></trkpt><trkpt lat="43.8921916" lon="8.0480485"><ele>33.0</ele><time>2026-04-26T06:25:04.997Z</time></trkpt><trkpt lat="43.8921874" lon="8.0478806"><ele>33.0</ele><time>2026-04-26T06:25:06.033Z</time></trkpt><trkpt lat="43.8922257" lon="8.0476065"><ele>33.0</ele><time>2026-04-26T06:25:08.009Z</time></trkpt><trkpt lat="43.8922166" lon="8.0474068"><ele>33.0</ele><time>2026-04-26T06:25:09.114Z</time></trkpt><trkpt lat="43.8920138" lon="8.0472476"><ele>32.25</ele><time>2026-04-26T06:25:10.956Z</time></trkpt><trkpt lat="43.8918817" lon="8.0472357"><ele>31.5</ele><time>2026-04-26T06:25:12.033Z</time></trkpt><trkpt lat="43.8917385" lon="8.0472674"><ele>30.75</ele><time>2026-04-26T06:25:12.993Z</time></trkpt><trkpt lat="43.8915854" lon="8.0472565"><ele>30.0</ele><time>2026-04-26T06:25:14.018Z</time></trkpt><trkpt lat="43.8914409" lon="8.0471715"><ele>30.0</ele><time>2026-04-26T06:25:15.092Z</time></trkpt><trkpt lat="43.8913069" lon="8.0470612"><ele>30.0</ele><time>2026-04-26T06:25:16.003Z</time></trkpt><trkpt lat="43.8911554" lon="8.0468871"><ele>30.0</ele><time>2026-04-26T06:25:17.103Z</time></trkpt><trkpt lat="43.8908558" lon="8.0465781"><ele>31.5</ele><time>2026-04-26T06:25:19.164Z</time></trkpt><trkpt lat="43.89059" lon="8.0463363"><ele>33.0</ele><time>2026-04-26T06:25:21.033Z</time></trkpt><trkpt lat="43.8903037" lon="8.04605"><ele>33.0</ele><time>2026-04-26T06:25:23.026Z</time></trkpt><trkpt lat="43.8901575" lon="8.045904"><ele>33.0</ele><time>2026-04-26T06:25:24.148Z</time></trkpt><trkpt lat="43.8899078" lon="8.0456482"><ele>33.0</ele><time>2026-04-26T06:25:26.112Z</time></trkpt><trkpt lat="43.8897593" lon="8.0454964"><ele>33.0</ele><time>2026-04-26T06:25:27.245Z</time></trkpt><trkpt lat="43.8895505" lon="8.0452962"><ele>33.0</ele><time>2026-04-26T06:25:29.166Z</time></trkpt><trkpt lat="43.8894027" lon="8.0450876"><ele>33.666666666666664</ele><time>2026-04-26T06:25:31.083Z</time></trkpt><trkpt lat="43.8893626" lon="8.0449063"><ele>34.33333333333333</ele><time>2026-04-26T06:25:32.223Z</time></trkpt><trkpt lat="43.8893485" lon="8.0445639"><ele>35.0</ele><time>2026-04-26T06:25:34.117Z</time></trkpt><trkpt lat="43.8893734" lon="8.0442188"><ele>30.5</ele><time>2026-04-26T06:25:35.941Z</time></trkpt><trkpt lat="43.889423" lon="8.0439896"><ele>26.0</ele><time>2026-04-26T06:25:37.089Z</time></trkpt><trkpt lat="43.8895228" lon="8.0436136"><ele>26.0</ele><time>2026-04-26T06:25:39.061Z</time></trkpt><trkpt lat="43.8895657" lon="8.0434451"><ele>26.0</ele><time>2026-04-26T06:25:40.051Z</time></trkpt><trkpt lat="43.8896606" lon="8.0430563"><ele>26.0</ele><time>2026-04-26T06:25:42.177Z</time></trkpt><trkpt lat="43.8897728" lon="8.0427871"><ele>25.25</ele><time>2026-04-26T06:25:44.084Z</time></trkpt><trkpt lat="43.8898627" lon="8.042679"><ele>24.5</ele><time>2026-04-26T06:25:45.05Z</time></trkpt><trkpt lat="43.8899779" lon="8.0425938"><ele>23.75</ele><time>2026-04-26T06:25:46.126Z</time></trkpt><trkpt lat="43.8900835" lon="8.0425308"><ele>23.0</ele><time>2026-04-26T06:25:47.09Z</time></trkpt><trkpt lat="43.8903685" lon="8.0424604"><ele>22.0</ele><time>2026-04-26T06:25:49.114Z</time></trkpt><trkpt lat="43.8906531" lon="8.0423955"><ele>21.0</ele><time>2026-04-26T06:25:51.03Z</time></trkpt><trkpt lat="43.8909438" lon="8.0422966"><ele>21.0</ele><time>2026-04-26T06:25:53.162Z</time></trkpt><trkpt lat="43.8911876" lon="8.0422042"><ele>21.0</ele><time>2026-04-26T06:25:55.104Z</time></trkpt><trkpt lat="43.8914414" lon="8.0419962"><ele>21.0</ele><time>2026-04-26T06:25:57.08Z</time></trkpt><trkpt lat="43.8915545" lon="8.0418683"><ele>21.0</ele><time>2026-04-26T06:25:58.069Z</time></trkpt><trkpt lat="43.8916599" lon="8.0417491"><ele>21.0</ele><time>2026-04-26T06:25:58.962Z</time></trkpt><trkpt lat="43.8917778" lon="8.0416117"><ele>21.0</ele><time>2026-04-26T06:25:59.995Z</time></trkpt><trkpt lat="43.8919038" lon="8.0414714"><ele>20.666666666666668</ele><time>2026-04-26T06:26:01.166Z</time></trkpt><trkpt lat="43.8919932" lon="8.0413599"><ele>20.333333333333336</ele><time>2026-04-26T06:26:02.191Z</time></trkpt><trkpt lat="43.8921862" lon="8.0411654"><ele>20.0</ele><time>2026-04-26T06:26:04.171Z</time></trkpt><trkpt lat="43.8924051" lon="8.0410463"><ele>20.0</ele><time>2026-04-26T06:26:06.079Z</time></trkpt><trkpt lat="43.8925114" lon="8.0409948"><ele>20.0</ele><time>2026-04-26T06:26:07.016Z</time></trkpt><trkpt lat="43.8926234" lon="8.0409369"><ele>20.0</ele><time>2026-04-26T06:26:08.02Z</time></trkpt><trkpt lat="43.8927437" lon="8.0408771"><ele>20.0</ele><time>2026-04-26T06:26:09.098Z</time></trkpt><trkpt lat="43.8928462" lon="8.0408184"><ele>19.333333333333336</ele><time>2026-04-26T06:26:10.121Z</time></trkpt><trkpt lat="43.892939" lon="8.0407662"><ele>18.666666666666668</ele><time>2026-04-26T06:26:11.113Z</time></trkpt><trkpt lat="43.8931385" lon="8.040658"><ele>18.0</ele><time>2026-04-26T06:26:13.253Z</time></trkpt><trkpt lat="43.893286" lon="8.0406002"><ele>17.666666666666668</ele><time>2026-04-26T06:26:15.108Z</time></trkpt><trkpt lat="43.8934229" lon="8.0405379"><ele>17.333333333333336</ele><time>2026-04-26T06:26:17.148Z</time></trkpt><trkpt lat="43.8936076" lon="8.0404495"><ele>17.0</ele><time>2026-04-26T06:26:20.076Z</time></trkpt><trkpt lat="43.8937558" lon="8.0403887"><ele>17.0</ele><time>2026-04-26T06:26:22.088Z</time></trkpt><trkpt lat="43.8938945" lon="8.0403112"><ele>17.0</ele><time>2026-04-26T06:26:23.952Z</time></trkpt><trkpt lat="43.8939803" lon="8.040264"><ele>17.0</ele><time>2026-04-26T06:26:25.142Z</time></trkpt><trkpt lat="43.8941432" lon="8.04019"><ele>17.0</ele><time>2026-04-26T06:26:27.156Z</time></trkpt><trkpt lat="43.8943097" lon="8.0401035"><ele>17.333333333333336</ele><time>2026-04-26T06:26:29.085Z</time></trkpt><trkpt lat="43.8944078" lon="8.0400485"><ele>17.666666666666668</ele><time>2026-04-26T06:26:30.118Z</time></trkpt><trkpt lat="43.8946244" lon="8.0399027"><ele>18.0</ele><time>2026-04-26T06:26:32.063Z</time></trkpt><trkpt lat="43.8947581" lon="8.0398359"><ele>18.0</ele><time>2026-04-26T06:26:33.002Z</time></trkpt><trkpt lat="43.8949245" lon="8.0397586"><ele>18.0</ele><time>2026-04-26T06:26:34.177Z</time></trkpt><trkpt lat="43.8950646" lon="8.0396784"><ele>18.0</ele><time>2026-04-26T06:26:35.175Z</time></trkpt><trkpt lat="43.8951845" lon="8.0395698"><ele>19.0</ele><time>2026-04-26T06:26:36.116Z</time></trkpt><trkpt lat="43.8954181" lon="8.0392664"><ele>20.0</ele><time>2026-04-26T06:26:38.18Z</time></trkpt><trkpt lat="43.8955256" lon="8.0391366"><ele>19.75</ele><time>2026-04-26T06:26:39.207Z</time></trkpt><trkpt lat="43.8956097" lon="8.0390239"><ele>19.5</ele><time>2026-04-26T06:26:40.131Z</time></trkpt><trkpt lat="43.8956872" lon="8.0389301"><ele>19.25</ele><time>2026-04-26T06:26:41.1Z</time></trkpt><trkpt lat="43.8958436" lon="8.0387961"><ele>19.0</ele><time>2026-04-26T06:26:43.072Z</time></trkpt><trkpt lat="43.8961794" lon="8.0385925"><ele>19.0</ele><time>2026-04-26T06:28:44.888Z</time></trkpt><trkpt lat="43.89619" lon="8.0384685"><ele>19.0</ele><time>2026-04-26T06:28:47.083Z</time></trkpt><trkpt lat="43.8962176" lon="8.0383307"><ele>19.0</ele><time>2026-04-26T06:28:49.973Z</time></trkpt><trkpt lat="43.8963163" lon="8.0381489"><ele>19.0</ele><time>2026-04-26T06:28:52.054Z</time></trkpt><trkpt lat="43.8963963" lon="8.0380611"><ele>18.666666666666664</ele><time>2026-04-26T06:28:53.006Z</time></trkpt><trkpt lat="43.8964716" lon="8.0379578"><ele>18.333333333333332</ele><time>2026-04-26T06:28:54.009Z</time></trkpt><trkpt lat="43.8965589" lon="8.0378353"><ele>18.0</ele><time>2026-04-26T06:28:55.083Z</time></trkpt><trkpt lat="43.8967739" lon="8.0375865"><ele>18.0</ele><time>2026-04-26T06:28:57.21Z</time></trkpt><trkpt lat="43.8968709" lon="8.0374713"><ele>18.0</ele><time>2026-04-26T06:28:58.117Z</time></trkpt><trkpt lat="43.8969732" lon="8.0373483"><ele>18.0</ele><time>2026-04-26T06:28:59.144Z</time></trkpt><trkpt lat="43.8970738" lon="8.0372395"><ele>18.0</ele><time>2026-04-26T06:29:00.179Z</time></trkpt><trkpt lat="43.8972149" lon="8.0370732"><ele>17.833333333333332</ele><time>2026-04-26T06:29:01.99Z</time></trkpt><trkpt lat="43.8972696" lon="8.0369841"><ele>17.666666666666668</ele><time>2026-04-26T06:29:03.236Z</time></trkpt><trkpt lat="43.8973396" lon="8.0368985"><ele>17.5</ele><time>2026-04-26T06:29:04.266Z</time></trkpt><trkpt lat="43.8974055" lon="8.0368162"><ele>17.333333333333336</ele><time>2026-04-26T06:29:06.292Z</time></trkpt><trkpt lat="43.8974687" lon="8.036759"><ele>17.166666666666668</ele><time>2026-04-26T06:29:11.991Z</time></trkpt><trkpt lat="43.8975448" lon="8.0367316"><ele>17.0</ele><time>2026-04-26T06:29:14.996Z</time></trkpt><trkpt lat="43.8975116" lon="8.0366319"><ele>16.999999999999996</ele><time>2026-04-26T06:29:57.903Z</time></trkpt><trkpt lat="43.8974455" lon="8.0366177"><ele>17.0</ele><time>2026-04-26T06:30:05.849Z</time></trkpt><trkpt lat="43.8973958" lon="8.0366721"><ele>17.0</ele><time>2026-04-26T06:30:14.932Z</time></trkpt><trkpt lat="43.8973348" lon="8.0367091"><ele>17.0</ele><time>2026-04-26T06:31:11.003Z</time></trkpt><trkpt lat="43.8972746" lon="8.0367542"><ele>17.0</ele><time>2026-04-26T06:31:15.953Z</time></trkpt><trkpt lat="43.8972633" lon="8.0368477"><ele>16.999999999999996</ele><time>2026-04-26T06:31:22.894Z</time></trkpt><trkpt lat="43.8973079" lon="8.0367651"><ele>17.0</ele><time>2026-04-26T06:32:28.335Z</time></trkpt><trkpt lat="43.8973456" lon="8.0366934"><ele>17.0</ele><time>2026-04-26T06:32:32.391Z</time></trkpt><trkpt lat="43.8974293" lon="8.0366538"><ele>17.0</ele><time>2026-04-26T06:32:37.573Z</time></trkpt><trkpt lat="43.8975094" lon="8.0366524"><ele>17.0</ele><time>2026-04-26T06:32:42.182Z</time></trkpt><trkpt lat="43.8975865" lon="8.0366925"><ele>17.0</ele><time>2026-04-26T06:33:23.484Z</time></trkpt><trkpt lat="43.897696" lon="8.0366966"><ele>17.0</ele><time>2026-04-26T06:34:18.213Z</time></trkpt><trkpt lat="43.8979278" lon="8.0365737"><ele>17.0</ele><time>2026-04-26T06:34:21.145Z</time></trkpt><trkpt lat="43.8980416" lon="8.0365873"><ele>17.0</ele><time>2026-04-26T06:34:23.23Z</time></trkpt><trkpt lat="43.8981587" lon="8.0367124"><ele>17.0</ele><time>2026-04-26T06:34:25.118Z</time></trkpt><trkpt lat="43.8982035" lon="8.0368242"><ele>17.0</ele><time>2026-04-26T06:34:26.039Z</time></trkpt><trkpt lat="43.8982427" lon="8.0369346"><ele>17.0</ele><time>2026-04-26T06:34:27.172Z</time></trkpt><trkpt lat="43.8983512" lon="8.037025"><ele>17.5</ele><time>2026-04-26T06:34:29.089Z</time></trkpt><trkpt lat="43.8984387" lon="8.0370089"><ele>18.0</ele><time>2026-04-26T06:34:31.006Z</time></trkpt><trkpt lat="43.8985223" lon="8.0369812"><ele>18.5</ele><time>2026-04-26T06:34:31.934Z</time></trkpt><trkpt lat="43.8986008" lon="8.0369053"><ele>19.0</ele><time>2026-04-26T06:34:33.091Z</time></trkpt><trkpt lat="43.8986448" lon="8.0368231"><ele>19.5</ele><time>2026-04-26T06:34:34.048Z</time></trkpt><trkpt lat="43.8986683" lon="8.0367086"><ele>20.0</ele><time>2026-04-26T06:34:35.196Z</time></trkpt><trkpt lat="43.8986354" lon="8.0364607"><ele>20.25</ele><time>2026-04-26T06:34:37.341Z</time></trkpt><trkpt lat="43.8986073" lon="8.0362789"><ele>20.5</ele><time>2026-04-26T06:34:39.212Z</time></trkpt><trkpt lat="43.8986343" lon="8.0361746"><ele>20.75</ele><time>2026-04-26T06:34:40.147Z</time></trkpt><trkpt lat="43.8987329" lon="8.0360332"><ele>21.0</ele><time>2026-04-26T06:34:41.843Z</time></trkpt><trkpt lat="43.8988147" lon="8.0359456"><ele>21.0</ele><time>2026-04-26T06:34:42.922Z</time></trkpt><trkpt lat="43.8989281" lon="8.0358444"><ele>21.0</ele><time>2026-04-26T06:34:44.188Z</time></trkpt><trkpt lat="43.8990905" lon="8.0357183"><ele>21.0</ele><time>2026-04-26T06:34:45.893Z</time></trkpt><trkpt lat="43.899185" lon="8.0356336"><ele>21.0</ele><time>2026-04-26T06:34:46.948Z</time></trkpt><trkpt lat="43.8992798" lon="8.0355501"><ele>21.5</ele><time>2026-04-26T06:34:47.932Z</time></trkpt><trkpt lat="43.899375" lon="8.0354639"><ele>22.0</ele><time>2026-04-26T06:34:48.903Z</time></trkpt><trkpt lat="43.8994857" lon="8.0353585"><ele>22.5</ele><time>2026-04-26T06:34:50.029Z</time></trkpt><trkpt lat="43.8995963" lon="8.0352469"><ele>23.0</ele><time>2026-04-26T06:34:51.13Z</time></trkpt><trkpt lat="43.8997679" lon="8.03506"><ele>21.25</ele><time>2026-04-26T06:34:52.928Z</time></trkpt><trkpt lat="43.8998607" lon="8.0349509"><ele>19.5</ele><time>2026-04-26T06:34:53.97Z</time></trkpt><trkpt lat="43.8999452" lon="8.0348566"><ele>17.75</ele><time>2026-04-26T06:34:54.947Z</time></trkpt><trkpt lat="43.9000266" lon="8.0347612"><ele>16.0</ele><time>2026-04-26T06:34:55.946Z</time></trkpt><trkpt lat="43.9001203" lon="8.0346485"><ele>17.5</ele><time>2026-04-26T06:34:57.044Z</time></trkpt><trkpt lat="43.9002027" lon="8.0345484"><ele>19.0</ele><time>2026-04-26T06:34:58.026Z</time></trkpt><trkpt lat="43.9002933" lon="8.0344433"><ele>20.5</ele><time>2026-04-26T06:34:59.035Z</time></trkpt><trkpt lat="43.900379" lon="8.0343394"><ele>22.0</ele><time>2026-04-26T06:35:00.007Z</time></trkpt><trkpt lat="43.9005648" lon="8.0341335"><ele>22.0</ele><time>2026-04-26T06:35:02.174Z</time></trkpt><trkpt lat="43.900646" lon="8.0340467"><ele>22.0</ele><time>2026-04-26T06:35:03.085Z</time></trkpt><trkpt lat="43.900766" lon="8.033911"><ele>22.0</ele><time>2026-04-26T06:35:04.427Z</time></trkpt><trkpt lat="43.9009037" lon="8.0337586"><ele>22.0</ele><time>2026-04-26T06:35:06.007Z</time></trkpt><trkpt lat="43.900992" lon="8.0336692"><ele>23.0</ele><time>2026-04-26T06:35:07.028Z</time></trkpt><trkpt lat="43.9010954" lon="8.0335537"><ele>24.0</ele><time>2026-04-26T06:35:08.257Z</time></trkpt><trkpt lat="43.9012356" lon="8.0333982"><ele>25.0</ele><time>2026-04-26T06:35:10.171Z</time></trkpt><trkpt lat="43.9013678" lon="8.0331843"><ele>25.0</ele><time>2026-04-26T06:35:12.168Z</time></trkpt><trkpt lat="43.9014221" lon="8.0330726"><ele>25.0</ele><time>2026-04-26T06:35:13.085Z</time></trkpt><trkpt lat="43.9014842" lon="8.03293"><ele>25.0</ele><time>2026-04-26T06:35:14.2Z</time></trkpt><trkpt lat="43.9015816" lon="8.0326909"><ele>25.0</ele><time>2026-04-26T06:35:16.007Z</time></trkpt><trkpt lat="43.9016459" lon="8.0325607"><ele>25.666666666666668</ele><time>2026-04-26T06:35:17.043Z</time></trkpt><trkpt lat="43.9017164" lon="8.0324298"><ele>26.333333333333336</ele><time>2026-04-26T06:35:18.135Z</time></trkpt><trkpt lat="43.9018037" lon="8.0323188"><ele>27.0</ele><time>2026-04-26T06:35:19.165Z</time></trkpt><trkpt lat="43.9019845" lon="8.0321455"><ele>27.0</ele><time>2026-04-26T06:35:21.166Z</time></trkpt><trkpt lat="43.9020581" lon="8.032072"><ele>27.000000000000004</ele><time>2026-04-26T06:35:21.989Z</time></trkpt><trkpt lat="43.902132" lon="8.0320088"><ele>27.000000000000004</ele><time>2026-04-26T06:35:22.893Z</time></trkpt><trkpt lat="43.9022374" lon="8.0319147"><ele>27.0</ele><time>2026-04-26T06:35:24.084Z</time></trkpt><trkpt lat="43.9023413" lon="8.0318131"><ele>27.0</ele><time>2026-04-26T06:35:25.247Z</time></trkpt><trkpt lat="43.9024189" lon="8.0317259"><ele>26.333333333333336</ele><time>2026-04-26T06:35:26.185Z</time></trkpt><trkpt lat="43.9025471" lon="8.0314615"><ele>25.666666666666668</ele><time>2026-04-26T06:35:28.274Z</time></trkpt><trkpt lat="43.9025958" lon="8.0313226"><ele>25.0</ele><time>2026-04-26T06:35:29.225Z</time></trkpt><trkpt lat="43.9026415" lon="8.031019"><ele>40.0</ele><time>2026-04-26T06:35:31.131Z</time></trkpt><trkpt lat="43.9026325" lon="8.0306695"><ele>55.0</ele><time>2026-04-26T06:35:33.219Z</time></trkpt><trkpt lat="43.9026536" lon="8.0302854"><ele>56.666666666666664</ele><time>2026-04-26T06:35:35.217Z</time></trkpt><trkpt lat="43.9026817" lon="8.0299613"><ele>58.33333333333333</ele><time>2026-04-26T06:35:37.17Z</time></trkpt><trkpt lat="43.9027056" lon="8.029774"><ele>60.0</ele><time>2026-04-26T06:35:39.101Z</time></trkpt><trkpt lat="43.9027236" lon="8.0296399"><ele>60.0</ele><time>2026-04-26T06:35:40.017Z</time></trkpt><trkpt lat="43.9027439" lon="8.0294615"><ele>60.0</ele><time>2026-04-26T06:35:41.126Z</time></trkpt><trkpt lat="43.9027648" lon="8.0292929"><ele>60.0</ele><time>2026-04-26T06:35:42.202Z</time></trkpt><trkpt lat="43.9028159" lon="8.0289266"><ele>56.5</ele><time>2026-04-26T06:35:44.193Z</time></trkpt><trkpt lat="43.9028845" lon="8.0285336"><ele>53.0</ele><time>2026-04-26T06:35:46.273Z</time></trkpt><trkpt lat="43.9029784" lon="8.0282244"><ele>47.66666666666667</ele><time>2026-04-26T06:35:48.109Z</time></trkpt><trkpt lat="43.9030801" lon="8.0279213"><ele>42.333333333333336</ele><time>2026-04-26T06:35:49.908Z</time></trkpt><trkpt lat="43.9031456" lon="8.0277159"><ele>37.0</ele><time>2026-04-26T06:35:51.084Z</time></trkpt><trkpt lat="43.9032533" lon="8.0274259"><ele>27.5</ele><time>2026-04-26T06:35:53.122Z</time></trkpt><trkpt lat="43.9035254" lon="8.0273257"><ele>18.0</ele><time>2026-04-26T06:35:55.177Z</time></trkpt><trkpt lat="43.9037759" lon="8.0272749"><ele>18.0</ele><time>2026-04-26T06:35:57.017Z</time></trkpt><trkpt lat="43.9039312" lon="8.0272373"><ele>18.0</ele><time>2026-04-26T06:35:58.058Z</time></trkpt><trkpt lat="43.9042538" lon="8.0272337"><ele>19.333333333333332</ele><time>2026-04-26T06:36:00.041Z</time></trkpt><trkpt lat="43.9044274" lon="8.0272809"><ele>20.666666666666664</ele><time>2026-04-26T06:36:01.102Z</time></trkpt><trkpt lat="43.9045728" lon="8.0273033"><ele>22.0</ele><time>2026-04-26T06:36:02.024Z</time></trkpt><trkpt lat="43.9047429" lon="8.0272892"><ele>22.0</ele><time>2026-04-26T06:36:03.07Z</time></trkpt><trkpt lat="43.9049014" lon="8.027271"><ele>22.0</ele><time>2026-04-26T06:36:04.051Z</time></trkpt><trkpt lat="43.9050802" lon="8.0272558"><ele>22.0</ele><time>2026-04-26T06:36:05.101Z</time></trkpt><trkpt lat="43.9054229" lon="8.0271834"><ele>23.5</ele><time>2026-04-26T06:36:07.161Z</time></trkpt><trkpt lat="43.9057395" lon="8.0270932"><ele>25.0</ele><time>2026-04-26T06:36:09.098Z</time></trkpt><trkpt lat="43.9059038" lon="8.0270818"><ele>25.666666666666668</ele><time>2026-04-26T06:36:10.064Z</time></trkpt><trkpt lat="43.9060506" lon="8.0271119"><ele>26.333333333333336</ele><time>2026-04-26T06:36:10.994Z</time></trkpt><trkpt lat="43.9062201" lon="8.027156"><ele>27.0</ele><time>2026-04-26T06:36:12.114Z</time></trkpt><trkpt lat="43.9065455" lon="8.027081"><ele>31.0</ele><time>2026-04-26T06:36:14.092Z</time></trkpt><trkpt lat="43.9069011" lon="8.0268888"><ele>35.0</ele><time>2026-04-26T06:36:16.221Z</time></trkpt><trkpt lat="43.907216" lon="8.0267458"><ele>28.0</ele><time>2026-04-26T06:36:18.13Z</time></trkpt><trkpt lat="43.9075686" lon="8.0266389"><ele>21.0</ele><time>2026-04-26T06:36:20.225Z</time></trkpt><trkpt lat="43.9078753" lon="8.0266202"><ele>29.5</ele><time>2026-04-26T06:36:22.086Z</time></trkpt><trkpt lat="43.9081946" lon="8.0266956"><ele>38.0</ele><time>2026-04-26T06:36:23.957Z</time></trkpt><trkpt lat="43.9083746" lon="8.0267496"><ele>37.0</ele><time>2026-04-26T06:36:25.061Z</time></trkpt><trkpt lat="43.9085181" lon="8.0267845"><ele>36.0</ele><time>2026-04-26T06:36:25.911Z</time></trkpt><trkpt lat="43.9087193" lon="8.0268216"><ele>35.0</ele><time>2026-04-26T06:36:27.116Z</time></trkpt><trkpt lat="43.9088842" lon="8.0268463"><ele>35.0</ele><time>2026-04-26T06:36:28.019Z</time></trkpt><trkpt lat="43.9090538" lon="8.0268673"><ele>35.0</ele><time>2026-04-26T06:36:28.999Z</time></trkpt><trkpt lat="43.9092402" lon="8.0268843"><ele>35.0</ele><time>2026-04-26T06:36:30.213Z</time></trkpt><trkpt lat="43.9095179" lon="8.026973"><ele>37.0</ele><time>2026-04-26T06:36:32.224Z</time></trkpt><trkpt lat="43.9097306" lon="8.0272786"><ele>39.0</ele><time>2026-04-26T06:36:34.238Z</time></trkpt><trkpt lat="43.9099651" lon="8.0275263"><ele>37.0</ele><time>2026-04-26T06:36:36.139Z</time></trkpt><trkpt lat="43.9103144" lon="8.0276481"><ele>35.0</ele><time>2026-04-26T06:36:38.165Z</time></trkpt><trkpt lat="43.9106072" lon="8.0277267"><ele>35.0</ele><time>2026-04-26T06:36:39.941Z</time></trkpt><trkpt lat="43.9107758" lon="8.0277319"><ele>35.0</ele><time>2026-04-26T06:36:40.95Z</time></trkpt><trkpt lat="43.9109702" lon="8.027719"><ele>35.0</ele><time>2026-04-26T06:36:42.111Z</time></trkpt><trkpt lat="43.9111455" lon="8.027701"><ele>37.5</ele><time>2026-04-26T06:36:43.166Z</time></trkpt><trkpt lat="43.9114787" lon="8.0276778"><ele>40.0</ele><time>2026-04-26T06:36:45.074Z</time></trkpt><trkpt lat="43.9116251" lon="8.0276556"><ele>42.0</ele><time>2026-04-26T06:36:46.026Z</time></trkpt><trkpt lat="43.911794" lon="8.0275824"><ele>44.0</ele><time>2026-04-26T06:36:47.151Z</time></trkpt><trkpt lat="43.9119019" lon="8.0274983"><ele>46.0</ele><time>2026-04-26T06:36:47.918Z</time></trkpt><trkpt lat="43.9120691" lon="8.0273313"><ele>38.5</ele><time>2026-04-26T06:36:49.131Z</time></trkpt><trkpt lat="43.9123481" lon="8.0271618"><ele>31.0</ele><time>2026-04-26T06:36:50.928Z</time></trkpt><trkpt lat="43.9125205" lon="8.0271113"><ele>32.333333333333336</ele><time>2026-04-26T06:36:51.935Z</time></trkpt><trkpt lat="43.912671" lon="8.0270486"><ele>33.666666666666664</ele><time>2026-04-26T06:36:52.873Z</time></trkpt><trkpt lat="43.9128312" lon="8.0269686"><ele>35.0</ele><time>2026-04-26T06:36:53.871Z</time></trkpt><trkpt lat="43.9129721" lon="8.0268951"><ele>35.0</ele><time>2026-04-26T06:36:54.796Z</time></trkpt><trkpt lat="43.9131339" lon="8.0268333"><ele>35.0</ele><time>2026-04-26T06:36:55.895Z</time></trkpt><trkpt lat="43.9133084" lon="8.0268165"><ele>35.0</ele><time>2026-04-26T06:36:56.991Z</time></trkpt><trkpt lat="43.9135999" lon="8.0268428"><ele>35.5</ele><time>2026-04-26T06:36:58.912Z</time></trkpt><trkpt lat="43.913734" lon="8.0268942"><ele>36.0</ele><time>2026-04-26T06:36:59.965Z</time></trkpt><trkpt lat="43.9138376" lon="8.0269939"><ele>36.5</ele><time>2026-04-26T06:37:00.99Z</time></trkpt><trkpt lat="43.9139202" lon="8.0271127"><ele>37.0</ele><time>2026-04-26T06:37:01.925Z</time></trkpt><trkpt lat="43.9140066" lon="8.0271921"><ele>37.0</ele><time>2026-04-26T06:37:02.902Z</time></trkpt><trkpt lat="43.9142354" lon="8.0271878"><ele>37.0</ele><time>2026-04-26T06:37:04.913Z</time></trkpt><trkpt lat="43.9143635" lon="8.0270912"><ele>37.0</ele><time>2026-04-26T06:37:05.925Z</time></trkpt><trkpt lat="43.9144961" lon="8.0269796"><ele>35.66666666666667</ele><time>2026-04-26T06:37:06.95Z</time></trkpt><trkpt lat="43.9146253" lon="8.0268774"><ele>34.333333333333336</ele><time>2026-04-26T06:37:07.915Z</time></trkpt><trkpt lat="43.9147573" lon="8.0267725"><ele>33.0</ele><time>2026-04-26T06:37:08.918Z</time></trkpt><trkpt lat="43.9149425" lon="8.0266221"><ele>34.0</ele><time>2026-04-26T06:37:10.26Z</time></trkpt><trkpt lat="43.9152068" lon="8.0264258"><ele>35.0</ele><time>2026-04-26T06:37:12.11Z</time></trkpt><trkpt lat="43.9154754" lon="8.0262893"><ele>35.0</ele><time>2026-04-26T06:37:13.88Z</time></trkpt><trkpt lat="43.9156801" lon="8.0261899"><ele>35.0</ele><time>2026-04-26T06:37:15.241Z</time></trkpt><trkpt lat="43.9159175" lon="8.0259382"><ele>36.33333333333333</ele><time>2026-04-26T06:37:17.078Z</time></trkpt><trkpt lat="43.9160458" lon="8.0258353"><ele>37.666666666666664</ele><time>2026-04-26T06:37:18.052Z</time></trkpt><trkpt lat="43.9162055" lon="8.0257862"><ele>39.0</ele><time>2026-04-26T06:37:19.074Z</time></trkpt><trkpt lat="43.9163506" lon="8.0257997"><ele>39.0</ele><time>2026-04-26T06:37:20.059Z</time></trkpt><trkpt lat="43.916519" lon="8.0258506"><ele>39.0</ele><time>2026-04-26T06:37:21.211Z</time></trkpt><trkpt lat="43.9168371" lon="8.0260055"><ele>39.0</ele><time>2026-04-26T06:37:23.242Z</time></trkpt><trkpt lat="43.917167" lon="8.0260999"><ele>39.0</ele><time>2026-04-26T06:37:25.179Z</time></trkpt><trkpt lat="43.9175431" lon="8.0260947"><ele>39.5</ele><time>2026-04-26T06:37:27.123Z</time></trkpt><trkpt lat="43.9179206" lon="8.025949"><ele>40.0</ele><time>2026-04-26T06:37:29.128Z</time></trkpt><trkpt lat="43.918312" lon="8.0257447"><ele>38.5</ele><time>2026-04-26T06:37:31.164Z</time></trkpt><trkpt lat="43.9186743" lon="8.0255969"><ele>37.0</ele><time>2026-04-26T06:37:32.976Z</time></trkpt><trkpt lat="43.9188838" lon="8.0255378"><ele>40.5</ele><time>2026-04-26T06:37:34.036Z</time></trkpt><trkpt lat="43.9192821" lon="8.0254441"><ele>44.0</ele><time>2026-04-26T06:37:36.063Z</time></trkpt><trkpt lat="43.9195015" lon="8.0253943"><ele>44.0</ele><time>2026-04-26T06:37:37.168Z</time></trkpt><trkpt lat="43.9198253" lon="8.0253354"><ele>44.0</ele><time>2026-04-26T06:37:38.813Z</time></trkpt><trkpt lat="43.9200388" lon="8.0253031"><ele>44.33333333333333</ele><time>2026-04-26T06:37:39.877Z</time></trkpt><trkpt lat="43.9202301" lon="8.0252784"><ele>44.666666666666664</ele><time>2026-04-26T06:37:40.806Z</time></trkpt><trkpt lat="43.9204602" lon="8.0252523"><ele>45.0</ele><time>2026-04-26T06:37:41.939Z</time></trkpt><trkpt lat="43.9206777" lon="8.0252246"><ele>45.0</ele><time>2026-04-26T06:37:42.978Z</time></trkpt><trkpt lat="43.9208926" lon="8.0252008"><ele>45.0</ele><time>2026-04-26T06:37:43.979Z</time></trkpt><trkpt lat="43.9210981" lon="8.0251788"><ele>45.0</ele><time>2026-04-26T06:37:44.998Z</time></trkpt><trkpt lat="43.9213207" lon="8.0251591"><ele>46.0</ele><time>2026-04-26T06:37:46.068Z</time></trkpt><trkpt lat="43.9217687" lon="8.0251189"><ele>47.0</ele><time>2026-04-26T06:37:48.257Z</time></trkpt><trkpt lat="43.9221548" lon="8.0250866"><ele>47.0</ele><time>2026-04-26T06:37:50.133Z</time></trkpt><trkpt lat="43.922537" lon="8.025051"><ele>47.0</ele><time>2026-04-26T06:37:52.074Z</time></trkpt><trkpt lat="43.9229" lon="8.0249477"><ele>45.5</ele><time>2026-04-26T06:37:54.062Z</time></trkpt><trkpt lat="43.9231953" lon="8.0246714"><ele>44.0</ele><time>2026-04-26T06:37:55.913Z</time></trkpt><trkpt lat="43.9233381" lon="8.0244876"><ele>43.5</ele><time>2026-04-26T06:37:56.828Z</time></trkpt><trkpt lat="43.9235041" lon="8.024273"><ele>43.0</ele><time>2026-04-26T06:37:57.9Z</time></trkpt><trkpt lat="43.9237963" lon="8.023898"><ele>43.0</ele><time>2026-04-26T06:37:59.874Z</time></trkpt><trkpt lat="43.9239418" lon="8.0237197"><ele>43.0</ele><time>2026-04-26T06:38:00.865Z</time></trkpt><trkpt lat="43.924085" lon="8.0235655"><ele>43.0</ele><time>2026-04-26T06:38:01.863Z</time></trkpt><trkpt lat="43.9242388" lon="8.0234137"><ele>44.333333333333336</ele><time>2026-04-26T06:38:02.915Z</time></trkpt><trkpt lat="43.9243737" lon="8.023266"><ele>45.666666666666664</ele><time>2026-04-26T06:38:03.897Z</time></trkpt><trkpt lat="43.9245043" lon="8.0231159"><ele>47.0</ele><time>2026-04-26T06:38:04.854Z</time></trkpt><trkpt lat="43.9246458" lon="8.0229481"><ele>47.0</ele><time>2026-04-26T06:38:05.945Z</time></trkpt><trkpt lat="43.9247546" lon="8.0228153"><ele>47.0</ele><time>2026-04-26T06:38:06.849Z</time></trkpt><trkpt lat="43.9248747" lon="8.0226684"><ele>47.0</ele><time>2026-04-26T06:38:07.915Z</time></trkpt><trkpt lat="43.9249769" lon="8.0225385"><ele>47.0</ele><time>2026-04-26T06:38:08.846Z</time></trkpt><trkpt lat="43.9250875" lon="8.0223918"><ele>48.0</ele><time>2026-04-26T06:38:09.855Z</time></trkpt><trkpt lat="43.9251995" lon="8.0222449"><ele>49.0</ele><time>2026-04-26T06:38:10.855Z</time></trkpt><trkpt lat="43.9253231" lon="8.0220854"><ele>50.0</ele><time>2026-04-26T06:38:11.886Z</time></trkpt><trkpt lat="43.9254457" lon="8.0219295"><ele>50.0</ele><time>2026-04-26T06:38:12.847Z</time></trkpt><trkpt lat="43.9255844" lon="8.0217503"><ele>50.0</ele><time>2026-04-26T06:38:13.931Z</time></trkpt><trkpt lat="43.9258431" lon="8.0214103"><ele>51.66666666666667</ele><time>2026-04-26T06:38:15.969Z</time></trkpt><trkpt lat="43.9259621" lon="8.0212511"><ele>53.33333333333333</ele><time>2026-04-26T06:38:16.939Z</time></trkpt><trkpt lat="43.9260809" lon="8.0210929"><ele>55.0</ele><time>2026-04-26T06:38:17.922Z</time></trkpt><trkpt lat="43.9261934" lon="8.0209206"><ele>53.0</ele><time>2026-04-26T06:38:18.923Z</time></trkpt><trkpt lat="43.9262935" lon="8.0207481"><ele>51.0</ele><time>2026-04-26T06:38:19.885Z</time></trkpt><trkpt lat="43.9263989" lon="8.0205597"><ele>49.0</ele><time>2026-04-26T06:38:20.913Z</time></trkpt><trkpt lat="43.9265041" lon="8.0203474"><ele>49.0</ele><time>2026-04-26T06:38:22.056Z</time></trkpt><trkpt lat="43.9265951" lon="8.0201695"><ele>49.0</ele><time>2026-04-26T06:38:23.036Z</time></trkpt><trkpt lat="43.9268012" lon="8.0198674"><ele>48.33333333333333</ele><time>2026-04-26T06:38:24.939Z</time></trkpt><trkpt lat="43.926924" lon="8.0197583"><ele>47.666666666666664</ele><time>2026-04-26T06:38:25.895Z</time></trkpt><trkpt lat="43.9270641" lon="8.0196687"><ele>47.0</ele><time>2026-04-26T06:38:26.865Z</time></trkpt><trkpt lat="43.9272254" lon="8.0196006"><ele>47.0</ele><time>2026-04-26T06:38:27.954Z</time></trkpt><trkpt lat="43.9273667" lon="8.0195676"><ele>47.0</ele><time>2026-04-26T06:38:28.879Z</time></trkpt><trkpt lat="43.9275185" lon="8.0195584"><ele>47.0</ele><time>2026-04-26T06:38:29.858Z</time></trkpt><trkpt lat="43.927677" lon="8.019582"><ele>46.33333333333333</ele><time>2026-04-26T06:38:30.87Z</time></trkpt><trkpt lat="43.9278362" lon="8.0196446"><ele>45.666666666666664</ele><time>2026-04-26T06:38:31.935Z</time></trkpt><trkpt lat="43.9279744" lon="8.0197323"><ele>45.0</ele><time>2026-04-26T06:38:32.954Z</time></trkpt><trkpt lat="43.9281002" lon="8.019838"><ele>46.0</ele><time>2026-04-26T06:38:33.993Z</time></trkpt><trkpt lat="43.9283033" lon="8.0200721"><ele>47.0</ele><time>2026-04-26T06:38:35.802Z</time></trkpt><trkpt lat="43.9284339" lon="8.0202408"><ele>48.0</ele><time>2026-04-26T06:38:37.026Z</time></trkpt><trkpt lat="43.9285561" lon="8.020366"><ele>48.0</ele><time>2026-04-26T06:38:38.104Z</time></trkpt><trkpt lat="43.9288197" lon="8.0205575"><ele>48.0</ele><time>2026-04-26T06:38:39.946Z</time></trkpt><trkpt lat="43.9289989" lon="8.0206462"><ele>48.0</ele><time>2026-04-26T06:38:41.053Z</time></trkpt><trkpt lat="43.9291715" lon="8.0207165"><ele>48.0</ele><time>2026-04-26T06:38:42.072Z</time></trkpt><trkpt lat="43.9293254" lon="8.0207781"><ele>48.0</ele><time>2026-04-26T06:38:42.985Z</time></trkpt><trkpt lat="43.9295339" lon="8.0208628"><ele>50.0</ele><time>2026-04-26T06:38:44.149Z</time></trkpt><trkpt lat="43.9298523" lon="8.020992"><ele>52.0</ele><time>2026-04-26T06:38:45.907Z</time></trkpt><trkpt lat="43.9300369" lon="8.021067"><ele>52.666666666666664</ele><time>2026-04-26T06:38:46.938Z</time></trkpt><trkpt lat="43.9302036" lon="8.0211507"><ele>53.33333333333333</ele><time>2026-04-26T06:38:47.937Z</time></trkpt><trkpt lat="43.9303536" lon="8.0212294"><ele>54.0</ele><time>2026-04-26T06:38:48.873Z</time></trkpt><trkpt lat="43.9305246" lon="8.021306"><ele>54.0</ele><time>2026-04-26T06:38:49.93Z</time></trkpt><trkpt lat="43.9306919" lon="8.0213643"><ele>54.0</ele><time>2026-04-26T06:38:50.899Z</time></trkpt><trkpt lat="43.9308877" lon="8.0214064"><ele>54.0</ele><time>2026-04-26T06:38:51.992Z</time></trkpt><trkpt lat="43.9310719" lon="8.0214256"><ele>54.5</ele><time>2026-04-26T06:38:53.014Z</time></trkpt><trkpt lat="43.9314329" lon="8.0214021"><ele>55.0</ele><time>2026-04-26T06:38:54.986Z</time></trkpt><trkpt lat="43.9317888" lon="8.0212084"><ele>56.5</ele><time>2026-04-26T06:38:57.06Z</time></trkpt><trkpt lat="43.931947" lon="8.0210575"><ele>58.0</ele><time>2026-04-26T06:38:58.103Z</time></trkpt><trkpt lat="43.9322109" lon="8.0206828"><ele>58.0</ele><time>2026-04-26T06:39:00.118Z</time></trkpt><trkpt lat="43.9323265" lon="8.0205089"><ele>58.0</ele><time>2026-04-26T06:39:01.03Z</time></trkpt><trkpt lat="43.9324487" lon="8.0202928"><ele>58.0</ele><time>2026-04-26T06:39:02.072Z</time></trkpt><trkpt lat="43.9325888" lon="8.0198409"><ele>62.0</ele><time>2026-04-26T06:39:03.931Z</time></trkpt><trkpt lat="43.9326227" lon="8.0195719"><ele>66.0</ele><time>2026-04-26T06:39:04.938Z</time></trkpt><trkpt lat="43.9326342" lon="8.0193129"><ele>70.0</ele><time>2026-04-26T06:39:05.876Z</time></trkpt><trkpt lat="43.9326432" lon="8.0189841"><ele>70.0</ele><time>2026-04-26T06:39:07.064Z</time></trkpt><trkpt lat="43.9326754" lon="8.0184773"><ele>70.0</ele><time>2026-04-26T06:39:08.91Z</time></trkpt><trkpt lat="43.9327171" lon="8.018199"><ele>67.33333333333333</ele><time>2026-04-26T06:39:09.949Z</time></trkpt><trkpt lat="43.9327689" lon="8.0179613"><ele>64.66666666666667</ele><time>2026-04-26T06:39:10.864Z</time></trkpt><trkpt lat="43.9328388" lon="8.0177015"><ele>62.0</ele><time>2026-04-26T06:39:11.911Z</time></trkpt><trkpt lat="43.9329219" lon="8.017434"><ele>59.0</ele><time>2026-04-26T06:39:12.999Z</time></trkpt><trkpt lat="43.9330026" lon="8.0172125"><ele>56.0</ele><time>2026-04-26T06:39:13.924Z</time></trkpt><trkpt lat="43.9330967" lon="8.0169921"><ele>53.0</ele><time>2026-04-26T06:39:14.866Z</time></trkpt><trkpt lat="43.9332371" lon="8.016725"><ele>55.0</ele><time>2026-04-26T06:39:16.063Z</time></trkpt><trkpt lat="43.9335303" lon="8.016248"><ele>54.5</ele><time>2026-04-26T06:39:18.142Z</time></trkpt><trkpt lat="43.9337925" lon="8.0158198"><ele>54.0</ele><time>2026-04-26T06:39:19.944Z</time></trkpt><trkpt lat="43.9339238" lon="8.0155828"><ele>54.0</ele><time>2026-04-26T06:39:20.921Z</time></trkpt><trkpt lat="43.9340809" lon="8.0153048"><ele>54.0</ele><time>2026-04-26T06:39:22.073Z</time></trkpt><trkpt lat="43.9342142" lon="8.015059"><ele>54.0</ele><time>2026-04-26T06:39:23.09Z</time></trkpt><trkpt lat="43.9344526" lon="8.0146048"><ele>54.0</ele><time>2026-04-26T06:39:25.015Z</time></trkpt><trkpt lat="43.934572" lon="8.0143703"><ele>63.33333333333333</ele><time>2026-04-26T06:39:25.956Z</time></trkpt><trkpt lat="43.9346946" lon="8.0141426"><ele>72.66666666666666</ele><time>2026-04-26T06:39:26.906Z</time></trkpt><trkpt lat="43.9348094" lon="8.013924"><ele>82.0</ele><time>2026-04-26T06:39:27.843Z</time></trkpt><trkpt lat="43.9349417" lon="8.0136838"><ele>80.0</ele><time>2026-04-26T06:39:28.868Z</time></trkpt><trkpt lat="43.9350682" lon="8.0134504"><ele>78.0</ele><time>2026-04-26T06:39:29.883Z</time></trkpt><trkpt lat="43.935182" lon="8.0132198"><ele>76.0</ele><time>2026-04-26T06:39:30.842Z</time></trkpt><trkpt lat="43.9409562" lon="8.0024797"><ele>94.5</ele><time>2026-04-26T06:40:10.539Z</time></trkpt><trkpt lat="43.9410884" lon="8.0021786"><ele>113.0</ele><time>2026-04-26T06:40:11.539Z</time></trkpt><trkpt lat="43.9412393" lon="8.0019023"><ele>113.0</ele><time>2026-04-26T06:40:12.539Z</time></trkpt><trkpt lat="43.9413328" lon="8.0017002"><ele>113.0</ele><time>2026-04-26T06:40:13.539Z</time></trkpt><trkpt lat="43.9417467" lon="8.0016575"><ele>108.0</ele><time>2026-04-26T06:40:16.534Z</time></trkpt><trkpt lat="43.9472028" lon="8.0007034"><ele>108.0</ele><time>2026-04-26T06:40:38.539Z</time></trkpt><trkpt lat="43.9474371" lon="8.0005477"><ele>108.0</ele><time>2026-04-26T06:40:39.538Z</time></trkpt><trkpt lat="43.947656" lon="8.000846"><ele>103.0</ele><time>2026-04-26T06:40:40.539Z</time></trkpt><trkpt lat="43.9478931" lon="8.0008961"><ele>98.0</ele><time>2026-04-26T06:40:41.539Z</time></trkpt><trkpt lat="43.9482113" lon="8.0009836"><ele>101.0</ele><time>2026-04-26T06:40:42.998Z</time></trkpt><trkpt lat="43.9485104" lon="8.0010556"><ele>104.0</ele><time>2026-04-26T06:40:44.06Z</time></trkpt><trkpt lat="43.9490769" lon="8.0011991"><ele>98.0</ele><time>2026-04-26T06:40:46.069Z</time></trkpt><trkpt lat="43.9493494" lon="8.0012747"><ele>92.0</ele><time>2026-04-26T06:40:47.215Z</time></trkpt><trkpt lat="43.9498114" lon="8.00136"><ele>90.0</ele><time>2026-04-26T06:40:49.144Z</time></trkpt><trkpt lat="43.9502408" lon="8.0014931"><ele>88.0</ele><time>2026-04-26T06:40:50.978Z</time></trkpt><trkpt lat="43.9505001" lon="8.0016025"><ele>88.0</ele><time>2026-04-26T06:40:52.129Z</time></trkpt><trkpt lat="43.9507322" lon="8.0016581"><ele>88.0</ele><time>2026-04-26T06:40:53.115Z</time></trkpt><trkpt lat="43.9509612" lon="8.001709"><ele>92.5</ele><time>2026-04-26T06:40:54.075Z</time></trkpt><trkpt lat="43.9511923" lon="8.0017634"><ele>97.0</ele><time>2026-04-26T06:40:55.07Z</time></trkpt><trkpt lat="43.9514061" lon="8.0018157"><ele>130.0</ele><time>2026-04-26T06:40:55.985Z</time></trkpt><trkpt lat="43.9518491" lon="8.0019252"><ele>130.0</ele><time>2026-04-26T06:40:57.873Z</time></trkpt><trkpt lat="43.9522154" lon="8.0019981"><ele>130.0</ele><time>2026-04-26T06:40:59.539Z</time></trkpt><trkpt lat="43.9572442" lon="7.9971836"><ele>128.0</ele><time>2026-04-26T06:41:25.539Z</time></trkpt><trkpt lat="43.9573684" lon="7.9970549"><ele>126.0</ele><time>2026-04-26T06:41:26.539Z</time></trkpt><trkpt lat="43.957473" lon="7.9967478"><ele>124.0</ele><time>2026-04-26T06:41:27.539Z</time></trkpt><trkpt lat="43.9575623" lon="7.9964278"><ele>126.5</ele><time>2026-04-26T06:41:28.539Z</time></trkpt><trkpt lat="43.9576339" lon="7.9961125"><ele>129.0</ele><time>2026-04-26T06:41:29.539Z</time></trkpt><trkpt lat="43.9577234" lon="7.9957434"><ele>129.0</ele><time>2026-04-26T06:41:31.004Z</time></trkpt><trkpt lat="43.9578057" lon="7.9953939"><ele>129.0</ele><time>2026-04-26T06:41:32.004Z</time></trkpt><trkpt lat="43.9578831" lon="7.9950751"><ele>125.0</ele><time>2026-04-26T06:41:32.923Z</time></trkpt><trkpt lat="43.9579733" lon="7.9947174"><ele>121.0</ele><time>2026-04-26T06:41:34.03Z</time></trkpt><trkpt lat="43.9580625" lon="7.9944187"><ele>117.5</ele><time>2026-04-26T06:41:35.036Z</time></trkpt><trkpt lat="43.9581926" lon="7.9941083"><ele>114.0</ele><time>2026-04-26T06:41:36.134Z</time></trkpt><trkpt lat="43.9584987" lon="7.9936463"><ele>125.0</ele><time>2026-04-26T06:41:38.062Z</time></trkpt><trkpt lat="43.958871" lon="7.993228"><ele>135.5</ele><time>2026-04-26T06:41:40.16Z</time></trkpt><trkpt lat="43.9592223" lon="7.9928552"><ele>146.0</ele><time>2026-04-26T06:41:42.073Z</time></trkpt><trkpt lat="43.9594312" lon="7.9926288"><ele>137.33333333333331</ele><time>2026-04-26T06:41:43.23Z</time></trkpt><trkpt lat="43.9595558" lon="7.9924874"><ele>128.66666666666666</ele><time>2026-04-26T06:41:43.979Z</time></trkpt><trkpt lat="43.959679" lon="7.9923502"><ele>120.0</ele><time>2026-04-26T06:41:44.712Z</time></trkpt><trkpt lat="43.9598924" lon="7.9921187"><ele>121.33333333333334</ele><time>2026-04-26T06:41:45.957Z</time></trkpt><trkpt lat="43.9600656" lon="7.9919319"><ele>122.66666666666667</ele><time>2026-04-26T06:41:46.94Z</time></trkpt><trkpt lat="43.9602378" lon="7.9917462"><ele>124.0</ele><time>2026-04-26T06:41:47.936Z</time></trkpt><trkpt lat="43.9604123" lon="7.9915719"><ele>124.0</ele><time>2026-04-26T06:41:48.903Z</time></trkpt><trkpt lat="43.9605962" lon="7.9914184"><ele>124.0</ele><time>2026-04-26T06:41:49.882Z</time></trkpt><trkpt lat="43.9608039" lon="7.9912842"><ele>124.0</ele><time>2026-04-26T06:41:50.931Z</time></trkpt><trkpt lat="43.9609995" lon="7.9911831"><ele>134.0</ele><time>2026-04-26T06:41:51.865Z</time></trkpt><trkpt lat="43.9612074" lon="7.9911034"><ele>144.0</ele><time>2026-04-26T06:41:52.856Z</time></trkpt><trkpt lat="43.9616056" lon="7.9910152"><ele>147.0</ele><time>2026-04-26T06:41:54.846Z</time></trkpt><trkpt lat="43.9618072" lon="7.9909957"><ele>150.0</ele><time>2026-04-26T06:41:55.853Z</time></trkpt><trkpt lat="43.9620013" lon="7.9909744"><ele>153.0</ele><time>2026-04-26T06:41:56.829Z</time></trkpt><trkpt lat="43.9622155" lon="7.9909582"><ele>153.0</ele><time>2026-04-26T06:41:57.896Z</time></trkpt><trkpt lat="43.9624328" lon="7.9909331"><ele>153.0</ele><time>2026-04-26T06:41:58.934Z</time></trkpt><trkpt lat="43.962695" lon="7.9909101"><ele>139.0</ele><time>2026-04-26T06:42:00.095Z</time></trkpt><trkpt lat="43.9631593" lon="7.9908612"><ele>148.5</ele><time>2026-04-26T06:42:02.198Z</time></trkpt><trkpt lat="43.9635065" lon="7.9908426"><ele>158.0</ele><time>2026-04-26T06:42:03.808Z</time></trkpt><trkpt lat="43.9637004" lon="7.9908323"><ele>187.0</ele><time>2026-04-26T06:42:04.829Z</time></trkpt><trkpt lat="43.9743822" lon="7.9810137"><ele>198.0</ele><time>2026-04-26T06:42:58.539Z</time></trkpt><trkpt lat="43.974514" lon="7.980707"><ele>209.0</ele><time>2026-04-26T06:42:59.539Z</time></trkpt><trkpt lat="43.9746609" lon="7.9804147"><ele>209.0</ele><time>2026-04-26T06:43:00.539Z</time></trkpt><trkpt lat="43.9748023" lon="7.9801387"><ele>209.0</ele><time>2026-04-26T06:43:01.539Z</time></trkpt><trkpt lat="43.9747957" lon="7.9798215"><ele>260.0</ele><time>2026-04-26T06:43:02.799Z</time></trkpt><trkpt lat="43.9748355" lon="7.9784399"><ele>215.0</ele><time>2026-04-26T06:43:03.841Z</time></trkpt><trkpt lat="43.9753877" lon="7.9748783"><ele>215.0</ele><time>2026-04-26T06:43:18.539Z</time></trkpt><trkpt lat="43.9753786" lon="7.974576"><ele>215.0</ele><time>2026-04-26T06:43:19.539Z</time></trkpt><trkpt lat="43.9754198" lon="7.9743015"><ele>215.0</ele><time>2026-04-26T06:43:20.539Z</time></trkpt><trkpt lat="43.9754783" lon="7.9740478"><ele>204.0</ele><time>2026-04-26T06:43:21.539Z</time></trkpt><trkpt lat="43.9755665" lon="7.973758"><ele>193.0</ele><time>2026-04-26T06:43:23.001Z</time></trkpt><trkpt lat="43.9756805" lon="7.9734615"><ele>210.5</ele><time>2026-04-26T06:43:24.18Z</time></trkpt><trkpt lat="43.9758572" lon="7.9730422"><ele>228.0</ele><time>2026-04-26T06:43:25.879Z</time></trkpt><trkpt lat="43.9759606" lon="7.9728148"><ele>228.0</ele><time>2026-04-26T06:43:27.001Z</time></trkpt><trkpt lat="43.9760832" lon="7.9726254"><ele>228.0</ele><time>2026-04-26T06:43:27.982Z</time></trkpt><trkpt lat="43.9762114" lon="7.972474"><ele>228.0</ele><time>2026-04-26T06:43:28.914Z</time></trkpt><trkpt lat="43.9762996" lon="7.9723079"><ele>232.33333333333331</ele><time>2026-04-26T06:43:29.958Z</time></trkpt><trkpt lat="43.9764611" lon="7.972151"><ele>236.66666666666666</ele><time>2026-04-26T06:43:30.966Z</time></trkpt><trkpt lat="43.9766496" lon="7.9719715"><ele>241.0</ele><time>2026-04-26T06:43:31.944Z</time></trkpt><trkpt lat="43.976856" lon="7.9717901"><ele>220.0</ele><time>2026-04-26T06:43:32.879Z</time></trkpt><trkpt lat="43.9771509" lon="7.9715638"><ele>199.0</ele><time>2026-04-26T06:43:33.952Z</time></trkpt><trkpt lat="43.9773094" lon="7.9714393"><ele>199.0</ele><time>2026-04-26T06:43:34.88Z</time></trkpt><trkpt lat="43.9774784" lon="7.9713101"><ele>199.0</ele><time>2026-04-26T06:43:35.914Z</time></trkpt><trkpt lat="43.9776518" lon="7.9711839"><ele>199.0</ele><time>2026-04-26T06:43:36.932Z</time></trkpt><trkpt lat="43.9780262" lon="7.9709664"><ele>213.5</ele><time>2026-04-26T06:43:38.964Z</time></trkpt><trkpt lat="43.9783552" lon="7.9709064"><ele>228.0</ele><time>2026-04-26T06:43:40.767Z</time></trkpt><trkpt lat="43.9785589" lon="7.9709068"><ele>228.0</ele><time>2026-04-26T06:43:41.867Z</time></trkpt><trkpt lat="43.9787644" lon="7.9709262"><ele>228.0</ele><time>2026-04-26T06:43:42.974Z</time></trkpt><trkpt lat="43.9790697" lon="7.9710291"><ele>220.66666666666669</ele><time>2026-04-26T06:43:44.811Z</time></trkpt><trkpt lat="43.9792191" lon="7.9711036"><ele>213.33333333333334</ele><time>2026-04-26T06:43:45.865Z</time></trkpt><trkpt lat="43.9793608" lon="7.9711602"><ele>206.0</ele><time>2026-04-26T06:43:46.883Z</time></trkpt><trkpt lat="43.9794965" lon="7.9712381"><ele>206.0</ele><time>2026-04-26T06:43:47.834Z</time></trkpt><trkpt lat="43.979672" lon="7.9713265"><ele>206.0</ele><time>2026-04-26T06:43:48.998Z</time></trkpt><trkpt lat="43.9799402" lon="7.9714809"><ele>208.0</ele><time>2026-04-26T06:43:50.852Z</time></trkpt><trkpt lat="43.9801008" lon="7.9716214"><ele>210.0</ele><time>2026-04-26T06:43:51.922Z</time></trkpt><trkpt lat="43.9802384" lon="7.9718144"><ele>212.0</ele><time>2026-04-26T06:43:52.924Z</time></trkpt><trkpt lat="43.9803824" lon="7.9719125"><ele>217.0</ele><time>2026-04-26T06:43:53.962Z</time></trkpt><trkpt lat="43.9805317" lon="7.9720066"><ele>222.0</ele><time>2026-04-26T06:43:55.046Z</time></trkpt><trkpt lat="43.9806569" lon="7.9720857"><ele>227.0</ele><time>2026-04-26T06:43:55.963Z</time></trkpt><trkpt lat="43.9807964" lon="7.9721769"><ele>225.33333333333334</ele><time>2026-04-26T06:43:56.973Z</time></trkpt><trkpt lat="43.9809635" lon="7.9722738"><ele>223.66666666666669</ele><time>2026-04-26T06:43:58.108Z</time></trkpt><trkpt lat="43.9812109" lon="7.9724136"><ele>222.0</ele><time>2026-04-26T06:44:00.084Z</time></trkpt><trkpt lat="43.9814458" lon="7.9725749"><ele>227.33333333333331</ele><time>2026-04-26T06:44:02.025Z</time></trkpt><trkpt lat="43.9815789" lon="7.9726697"><ele>232.66666666666666</ele><time>2026-04-26T06:44:03.012Z</time></trkpt><trkpt lat="43.9817118" lon="7.9727476"><ele>238.0</ele><time>2026-04-26T06:44:03.913Z</time></trkpt><trkpt lat="43.9819076" lon="7.9728371"><ele>238.0</ele><time>2026-04-26T06:44:05.055Z</time></trkpt><trkpt lat="43.982081" lon="7.972888"><ele>238.0</ele><time>2026-04-26T06:44:06.05Z</time></trkpt><trkpt lat="43.9822438" lon="7.9729157"><ele>238.0</ele><time>2026-04-26T06:44:06.988Z</time></trkpt><trkpt lat="43.9824463" lon="7.9729141"><ele>240.5</ele><time>2026-04-26T06:44:08.116Z</time></trkpt><trkpt lat="43.9828054" lon="7.9728369"><ele>243.0</ele><time>2026-04-26T06:44:10.076Z</time></trkpt><trkpt lat="43.9831025" lon="7.9726882"><ele>243.0</ele><time>2026-04-26T06:44:11.834Z</time></trkpt><trkpt lat="43.9832977" lon="7.9725515"><ele>243.0</ele><time>2026-04-26T06:44:12.925Z</time></trkpt><trkpt lat="43.9834638" lon="7.9723982"><ele>243.0</ele><time>2026-04-26T06:44:13.874Z</time></trkpt><trkpt lat="43.9836383" lon="7.9721854"><ele>244.33333333333331</ele><time>2026-04-26T06:44:14.979Z</time></trkpt><trkpt lat="43.9837736" lon="7.9719783"><ele>245.66666666666666</ele><time>2026-04-26T06:44:15.889Z</time></trkpt><trkpt lat="43.9839156" lon="7.9717402"><ele>247.0</ele><time>2026-04-26T06:44:16.852Z</time></trkpt><trkpt lat="43.9840815" lon="7.9714585"><ele>257.5</ele><time>2026-04-26T06:44:17.953Z</time></trkpt><trkpt lat="43.9842225" lon="7.9712361"><ele>268.0</ele><time>2026-04-26T06:44:18.878Z</time></trkpt><trkpt lat="43.984389" lon="7.9709981"><ele>264.66666666666663</ele><time>2026-04-26T06:44:19.932Z</time></trkpt><trkpt lat="43.9845578" lon="7.9707961"><ele>261.3333333333333</ele><time>2026-04-26T06:44:20.907Z</time></trkpt><trkpt lat="43.9847273" lon="7.970637"><ele>258.0</ele><time>2026-04-26T06:44:21.792Z</time></trkpt><trkpt lat="43.9849697" lon="7.9704781"><ele>269.0</ele><time>2026-04-26T06:44:22.948Z</time></trkpt><trkpt lat="43.985188" lon="7.9703827"><ele>280.0</ele><time>2026-04-26T06:44:23.989Z</time></trkpt><trkpt lat="43.9854074" lon="7.9703311"><ele>280.0</ele><time>2026-04-26T06:44:24.993Z</time></trkpt><trkpt lat="43.9856514" lon="7.970291"><ele>280.0</ele><time>2026-04-26T06:44:26.052Z</time></trkpt><trkpt lat="43.9861178" lon="7.9702084"><ele>284.0</ele><time>2026-04-26T06:44:28.085Z</time></trkpt><trkpt lat="43.9863362" lon="7.9701688"><ele>288.0</ele><time>2026-04-26T06:44:29.036Z</time></trkpt><trkpt lat="43.9865805" lon="7.9701272"><ele>286.5</ele><time>2026-04-26T06:44:30.093Z</time></trkpt><trkpt lat="43.9868182" lon="7.9700958"><ele>285.0</ele><time>2026-04-26T06:44:31.118Z</time></trkpt><trkpt lat="43.9872145" lon="7.9701189"><ele>285.0</ele><time>2026-04-26T06:44:32.881Z</time></trkpt><trkpt lat="43.9874543" lon="7.9701834"><ele>285.0</ele><time>2026-04-26T06:44:33.985Z</time></trkpt><trkpt lat="43.9876618" lon="7.9702762"><ele>282.0</ele><time>2026-04-26T06:44:34.935Z</time></trkpt><trkpt lat="43.987877" lon="7.9704069"><ele>279.0</ele><time>2026-04-26T06:44:35.948Z</time></trkpt><trkpt lat="43.9880984" lon="7.9705473"><ele>279.0</ele><time>2026-04-26T06:44:36.993Z</time></trkpt><trkpt lat="43.9882923" lon="7.9706711"><ele>279.0</ele><time>2026-04-26T06:44:37.906Z</time></trkpt><trkpt lat="43.9884939" lon="7.9707998"><ele>279.0</ele><time>2026-04-26T06:44:38.878Z</time></trkpt><trkpt lat="43.9887164" lon="7.970928"><ele>287.5</ele><time>2026-04-26T06:44:39.928Z</time></trkpt><trkpt lat="43.9889532" lon="7.9710193"><ele>296.0</ele><time>2026-04-26T06:44:40.975Z</time></trkpt><trkpt lat="43.989178" lon="7.9710589"><ele>296.5</ele><time>2026-04-26T06:44:41.951Z</time></trkpt><trkpt lat="43.9894284" lon="7.9710699"><ele>297.0</ele><time>2026-04-26T06:44:43.014Z</time></trkpt><trkpt lat="43.9896432" lon="7.9710477"><ele>297.0</ele><time>2026-04-26T06:44:43.944Z</time></trkpt><trkpt lat="43.9898924" lon="7.970992"><ele>297.0</ele><time>2026-04-26T06:44:45.052Z</time></trkpt><trkpt lat="43.9901017" lon="7.9709373"><ele>299.5</ele><time>2026-04-26T06:44:46.02Z</time></trkpt><trkpt lat="43.9903356" lon="7.970881"><ele>302.0</ele><time>2026-04-26T06:44:47.089Z</time></trkpt><trkpt lat="43.9907334" lon="7.9707963"><ele>300.6666666666667</ele><time>2026-04-26T06:44:49.029Z</time></trkpt><trkpt lat="43.9909363" lon="7.9707862"><ele>299.3333333333333</ele><time>2026-04-26T06:44:50.058Z</time></trkpt><trkpt lat="43.9911353" lon="7.970816"><ele>298.0</ele><time>2026-04-26T06:44:51.041Z</time></trkpt><trkpt lat="43.9915148" lon="7.9709499"><ele>296.66666666666663</ele><time>2026-04-26T06:44:52.938Z</time></trkpt><trkpt lat="43.9916925" lon="7.9710473"><ele>295.3333333333333</ele><time>2026-04-26T06:44:53.921Z</time></trkpt><trkpt lat="43.9918692" lon="7.9711852"><ele>294.0</ele><time>2026-04-26T06:44:54.975Z</time></trkpt><trkpt lat="43.9920319" lon="7.9713518"><ele>294.0</ele><time>2026-04-26T06:44:55.985Z</time></trkpt><trkpt lat="43.992169" lon="7.9715368"><ele>294.0</ele><time>2026-04-26T06:44:56.994Z</time></trkpt><trkpt lat="43.9922937" lon="7.9717372"><ele>294.0</ele><time>2026-04-26T06:44:57.911Z</time></trkpt><trkpt lat="43.9924253" lon="7.9719698"><ele>295.3333333333333</ele><time>2026-04-26T06:44:58.943Z</time></trkpt><trkpt lat="43.9925745" lon="7.9721976"><ele>296.66666666666663</ele><time>2026-04-26T06:44:59.979Z</time></trkpt><trkpt lat="43.9927208" lon="7.9723737"><ele>298.0</ele><time>2026-04-26T06:45:00.886Z</time></trkpt><trkpt lat="43.9928998" lon="7.9725569"><ele>307.5</ele><time>2026-04-26T06:45:01.905Z</time></trkpt><trkpt lat="43.9930847" lon="7.9727306"><ele>317.0</ele><time>2026-04-26T06:45:02.926Z</time></trkpt><trkpt lat="43.9932778" lon="7.972916"><ele>312.5</ele><time>2026-04-26T06:45:04.023Z</time></trkpt><trkpt lat="43.9936041" lon="7.9732247"><ele>308.0</ele><time>2026-04-26T06:45:05.895Z</time></trkpt><trkpt lat="43.9937697" lon="7.973375"><ele>317.33333333333337</ele><time>2026-04-26T06:45:06.96Z</time></trkpt><trkpt lat="43.993917" lon="7.9735081"><ele>326.6666666666667</ele><time>2026-04-26T06:45:07.962Z</time></trkpt><trkpt lat="43.99405" lon="7.973637"><ele>336.0</ele><time>2026-04-26T06:45:08.945Z</time></trkpt><trkpt lat="43.994171" lon="7.9737523"><ele>331.40000000000003</ele><time>2026-04-26T06:45:09.924Z</time></trkpt><trkpt lat="43.9942833" lon="7.9738593"><ele>326.8</ele><time>2026-04-26T06:45:10.946Z</time></trkpt><trkpt lat="43.994376" lon="7.9739489"><ele>322.20000000000005</ele><time>2026-04-26T06:45:11.924Z</time></trkpt><trkpt lat="43.9944542" lon="7.9740226"><ele>317.6</ele><time>2026-04-26T06:45:12.944Z</time></trkpt><trkpt lat="43.9945068" lon="7.9740725"><ele>313.0</ele><time>2026-04-26T06:45:13.941Z</time></trkpt><trkpt lat="43.9945789" lon="7.9741399"><ele>312.66666666666663</ele><time>2026-04-26T06:45:15.993Z</time></trkpt><trkpt lat="43.9946291" lon="7.9741949"><ele>312.3333333333333</ele><time>2026-04-26T06:45:20.003Z</time></trkpt><trkpt lat="43.9947045" lon="7.9742509"><ele>312.0</ele><time>2026-04-26T06:45:21.852Z</time></trkpt><trkpt lat="43.9947723" lon="7.9743145"><ele>311.6666666666667</ele><time>2026-04-26T06:45:22.941Z</time></trkpt><trkpt lat="43.9948441" lon="7.9743843"><ele>311.33333333333337</ele><time>2026-04-26T06:45:23.855Z</time></trkpt><trkpt lat="43.9949412" lon="7.9744822"><ele>311.0</ele><time>2026-04-26T06:45:25.013Z</time></trkpt><trkpt lat="43.9950346" lon="7.9745748"><ele>311.0</ele><time>2026-04-26T06:45:26.072Z</time></trkpt><trkpt lat="43.9951949" lon="7.9747979"><ele>311.0</ele><time>2026-04-26T06:45:28.029Z</time></trkpt><trkpt lat="43.9952993" lon="7.9750933"><ele>315.0</ele><time>2026-04-26T06:45:29.95Z</time></trkpt><trkpt lat="43.9953497" lon="7.9752741"><ele>319.0</ele><time>2026-04-26T06:45:30.958Z</time></trkpt><trkpt lat="43.995411" lon="7.9754496"><ele>323.0</ele><time>2026-04-26T06:45:31.944Z</time></trkpt><trkpt lat="43.9954694" lon="7.9756161"><ele>327.0</ele><time>2026-04-26T06:45:32.869Z</time></trkpt><trkpt lat="43.9955458" lon="7.975802"><ele>332.5</ele><time>2026-04-26T06:45:34.005Z</time></trkpt><trkpt lat="43.9956665" lon="7.9760523"><ele>338.0</ele><time>2026-04-26T06:45:35.937Z</time></trkpt><trkpt lat="43.9957299" lon="7.976151"><ele>343.5</ele><time>2026-04-26T06:45:36.888Z</time></trkpt><trkpt lat="43.9958031" lon="7.9762386"><ele>349.0</ele><time>2026-04-26T06:45:37.896Z</time></trkpt><trkpt lat="43.9958998" lon="7.976294"><ele>350.5</ele><time>2026-04-26T06:45:38.989Z</time></trkpt><trkpt lat="43.9959857" lon="7.976287"><ele>352.0</ele><time>2026-04-26T06:45:39.948Z</time></trkpt><trkpt lat="43.9960598" lon="7.9762259"><ele>353.5</ele><time>2026-04-26T06:45:40.933Z</time></trkpt><trkpt lat="43.9962183" lon="7.9759758"><ele>355.0</ele><time>2026-04-26T06:45:42.953Z</time></trkpt><trkpt lat="43.9963226" lon="7.9758499"><ele>350.3333333333333</ele><time>2026-04-26T06:45:43.924Z</time></trkpt><trkpt lat="43.996442" lon="7.9757228"><ele>345.6666666666667</ele><time>2026-04-26T06:45:44.89Z</time></trkpt><trkpt lat="43.9965791" lon="7.9755439"><ele>341.0</ele><time>2026-04-26T06:45:46.1Z</time></trkpt><trkpt lat="43.9967565" lon="7.9752197"><ele>345.6666666666667</ele><time>2026-04-26T06:45:48.048Z</time></trkpt><trkpt lat="43.9968463" lon="7.9748416"><ele>350.3333333333333</ele><time>2026-04-26T06:45:50.051Z</time></trkpt><trkpt lat="43.996891" lon="7.9746541"><ele>355.0</ele><time>2026-04-26T06:45:51.188Z</time></trkpt><trkpt lat="43.9970457" lon="7.9744589"><ele>355.0</ele><time>2026-04-26T06:45:53.084Z</time></trkpt><trkpt lat="43.9971695" lon="7.9744106"><ele>355.0</ele><time>2026-04-26T06:45:54.071Z</time></trkpt><trkpt lat="43.9973284" lon="7.9743894"><ele>355.0</ele><time>2026-04-26T06:45:55.096Z</time></trkpt><trkpt lat="43.9974534" lon="7.9744054"><ele>355.0</ele><time>2026-04-26T06:45:56.057Z</time></trkpt><trkpt lat="43.9975924" lon="7.9744849"><ele>361.5</ele><time>2026-04-26T06:45:57.101Z</time></trkpt><trkpt lat="43.9978772" lon="7.9746092"><ele>368.0</ele><time>2026-04-26T06:45:59.172Z</time></trkpt><trkpt lat="43.9980551" lon="7.9745108"><ele>369.5</ele><time>2026-04-26T06:46:00.126Z</time></trkpt><trkpt lat="43.998363" lon="7.9743864"><ele>371.0</ele><time>2026-04-26T06:46:02.192Z</time></trkpt><trkpt lat="43.9986115" lon="7.9741244"><ele>367.0</ele><time>2026-04-26T06:46:04.018Z</time></trkpt><trkpt lat="43.9987113" lon="7.9739509"><ele>363.0</ele><time>2026-04-26T06:46:04.948Z</time></trkpt><trkpt lat="43.9988126" lon="7.9737749"><ele>359.0</ele><time>2026-04-26T06:46:05.978Z</time></trkpt><trkpt lat="43.9989049" lon="7.9736369"><ele>359.0</ele><time>2026-04-26T06:46:07.045Z</time></trkpt><trkpt lat="43.9990053" lon="7.9735594"><ele>359.0</ele><time>2026-04-26T06:46:08.054Z</time></trkpt><trkpt lat="43.999234" lon="7.9735919"><ele>359.0</ele><time>2026-04-26T06:46:10.18Z</time></trkpt><trkpt lat="43.9993337" lon="7.9737915"><ele>356.33333333333337</ele><time>2026-04-26T06:46:11.901Z</time></trkpt><trkpt lat="43.9993608" lon="7.9739915"><ele>353.6666666666667</ele><time>2026-04-26T06:46:13.153Z</time></trkpt><trkpt lat="43.9993372" lon="7.9743647"><ele>351.0</ele><time>2026-04-26T06:46:15.128Z</time></trkpt><trkpt lat="43.9993504" lon="7.9746995"><ele>351.0</ele><time>2026-04-26T06:46:17.127Z</time></trkpt><trkpt lat="43.9994017" lon="7.9748342"><ele>351.0</ele><time>2026-04-26T06:46:18.058Z</time></trkpt><trkpt lat="43.9994954" lon="7.9749632"><ele>351.0</ele><time>2026-04-26T06:46:18.995Z</time></trkpt><trkpt lat="43.9995939" lon="7.9751051"><ele>351.0</ele><time>2026-04-26T06:46:20.04Z</time></trkpt><trkpt lat="43.9996765" lon="7.9752592"><ele>353.0</ele><time>2026-04-26T06:46:21.037Z</time></trkpt><trkpt lat="43.9997384" lon="7.9754225"><ele>355.0</ele><time>2026-04-26T06:46:21.944Z</time></trkpt><trkpt lat="43.9998094" lon="7.9756262"><ele>357.0</ele><time>2026-04-26T06:46:23.119Z</time></trkpt><trkpt lat="43.9998445" lon="7.9758792"><ele>357.0</ele><time>2026-04-26T06:46:24.971Z</time></trkpt><trkpt lat="43.9997964" lon="7.976042"><ele>357.0</ele><time>2026-04-26T06:46:26.285Z</time></trkpt><trkpt lat="43.9997071" lon="7.9761579"><ele>357.0</ele><time>2026-04-26T06:46:27.279Z</time></trkpt><trkpt lat="43.9994546" lon="7.9764516"><ele>358.0</ele><time>2026-04-26T06:46:29.19Z</time></trkpt><trkpt lat="43.9992357" lon="7.9767148"><ele>359.0</ele><time>2026-04-26T06:46:31.068Z</time></trkpt><trkpt lat="43.9991493" lon="7.9768435"><ele>360.0</ele><time>2026-04-26T06:46:32.069Z</time></trkpt><trkpt lat="43.9990456" lon="7.9771598"><ele>361.75</ele><time>2026-04-26T06:46:34.152Z</time></trkpt><trkpt lat="43.9990485" lon="7.9773237"><ele>363.5</ele><time>2026-04-26T06:46:35.149Z</time></trkpt><trkpt lat="43.9990891" lon="7.9775378"><ele>365.25</ele><time>2026-04-26T06:46:36.15Z</time></trkpt><trkpt lat="43.9991503" lon="7.9777482"><ele>367.0</ele><time>2026-04-26T06:46:37.264Z</time></trkpt><trkpt lat="43.9992903" lon="7.978029"><ele>367.0</ele><time>2026-04-26T06:46:39.069Z</time></trkpt><trkpt lat="43.9995097" lon="7.9783289"><ele>367.0</ele><time>2026-04-26T06:46:41.204Z</time></trkpt><trkpt lat="43.9996779" lon="7.9785966"><ele>368.0</ele><time>2026-04-26T06:46:43.04Z</time></trkpt><trkpt lat="43.9997219" lon="7.9787464"><ele>369.0</ele><time>2026-04-26T06:46:43.945Z</time></trkpt><trkpt lat="43.9997428" lon="7.9789329"><ele>370.0</ele><time>2026-04-26T06:46:45Z</time></trkpt><trkpt lat="43.9997091" lon="7.9791302"><ele>371.0</ele><time>2026-04-26T06:46:46.146Z</time></trkpt><trkpt lat="43.9996532" lon="7.9793141"><ele>371.25</ele><time>2026-04-26T06:46:47.065Z</time></trkpt><trkpt lat="43.9996321" lon="7.9795092"><ele>371.5</ele><time>2026-04-26T06:46:48.048Z</time></trkpt><trkpt lat="43.9996266" lon="7.9797079"><ele>371.75</ele><time>2026-04-26T06:46:49.088Z</time></trkpt><trkpt lat="43.9996097" lon="7.9799342"><ele>372.0</ele><time>2026-04-26T06:46:50.185Z</time></trkpt><trkpt lat="43.999458" lon="7.9803142"><ele>372.3333333333333</ele><time>2026-04-26T06:46:52.091Z</time></trkpt><trkpt lat="43.9993714" lon="7.9804966"><ele>372.66666666666663</ele><time>2026-04-26T06:46:52.999Z</time></trkpt><trkpt lat="43.9992883" lon="7.9807111"><ele>373.0</ele><time>2026-04-26T06:46:54.118Z</time></trkpt><trkpt lat="43.999239" lon="7.9809042"><ele>374.66666666666663</ele><time>2026-04-26T06:46:55.107Z</time></trkpt><trkpt lat="43.9992511" lon="7.981329"><ele>376.3333333333333</ele><time>2026-04-26T06:46:57.121Z</time></trkpt><trkpt lat="43.9992969" lon="7.9815159"><ele>378.0</ele><time>2026-04-26T06:46:57.932Z</time></trkpt><trkpt lat="43.999361" lon="7.9817667"><ele>382.0</ele><time>2026-04-26T06:46:59.014Z</time></trkpt><trkpt lat="43.9994291" lon="7.9819881"><ele>386.0</ele><time>2026-04-26T06:46:59.962Z</time></trkpt><trkpt lat="43.9994961" lon="7.9822011"><ele>390.0</ele><time>2026-04-26T06:47:00.959Z</time></trkpt><trkpt lat="43.9995588" lon="7.9824164"><ele>396.33333333333337</ele><time>2026-04-26T06:47:02.009Z</time></trkpt><trkpt lat="43.9996154" lon="7.9826099"><ele>402.6666666666667</ele><time>2026-04-26T06:47:03.01Z</time></trkpt><trkpt lat="43.9996785" lon="7.9828152"><ele>409.0</ele><time>2026-04-26T06:47:04.101Z</time></trkpt><trkpt lat="43.9998026" lon="7.9831241"><ele>409.0</ele><time>2026-04-26T06:47:05.954Z</time></trkpt><trkpt lat="43.9998863" lon="7.9832847"><ele>409.0</ele><time>2026-04-26T06:47:07.049Z</time></trkpt><trkpt lat="43.999966" lon="7.9833938"><ele>409.0</ele><time>2026-04-26T06:47:07.949Z</time></trkpt><trkpt lat="44.0000997" lon="7.9834999"><ele>409.0</ele><time>2026-04-26T06:47:09.136Z</time></trkpt><trkpt lat="44.0003582" lon="7.983585"><ele>416.6666666666667</ele><time>2026-04-26T06:47:10.984Z</time></trkpt><trkpt lat="44.0004952" lon="7.9836094"><ele>424.33333333333337</ele><time>2026-04-26T06:47:12.012Z</time></trkpt><trkpt lat="44.0006222" lon="7.9836442"><ele>432.0</ele><time>2026-04-26T06:47:13.054Z</time></trkpt><trkpt lat="44.0008117" lon="7.9838715"><ele>431.0</ele><time>2026-04-26T06:47:15.133Z</time></trkpt><trkpt lat="44.0008755" lon="7.9841722"><ele>430.0</ele><time>2026-04-26T06:47:16.933Z</time></trkpt><trkpt lat="44.0009015" lon="7.9843502"><ele>429.0</ele><time>2026-04-26T06:47:17.953Z</time></trkpt><trkpt lat="44.0009238" lon="7.9845261"><ele>429.0</ele><time>2026-04-26T06:47:19.055Z</time></trkpt><trkpt lat="44.0009427" lon="7.984666"><ele>429.0</ele><time>2026-04-26T06:47:20.077Z</time></trkpt><trkpt lat="44.0009802" lon="7.9848135"><ele>429.0</ele><time>2026-04-26T06:47:21.236Z</time></trkpt><trkpt lat="44.001109" lon="7.9849707"><ele>429.0</ele><time>2026-04-26T06:47:22.984Z</time></trkpt><trkpt lat="44.0012076" lon="7.9849954"><ele>429.0</ele><time>2026-04-26T06:47:23.98Z</time></trkpt><trkpt lat="44.00133" lon="7.9849701"><ele>429.0</ele><time>2026-04-26T06:47:25.108Z</time></trkpt><trkpt lat="44.0015354" lon="7.9847529"><ele>429.0</ele><time>2026-04-26T06:47:27.079Z</time></trkpt><trkpt lat="44.0016392" lon="7.984607"><ele>428.66666666666663</ele><time>2026-04-26T06:47:28.046Z</time></trkpt><trkpt lat="44.0017442" lon="7.9844785"><ele>428.3333333333333</ele><time>2026-04-26T06:47:28.988Z</time></trkpt><trkpt lat="44.0018769" lon="7.9843105"><ele>428.0</ele><time>2026-04-26T06:47:30.109Z</time></trkpt><trkpt lat="44.0021026" lon="7.9840048"><ele>422.0</ele><time>2026-04-26T06:47:32.179Z</time></trkpt><trkpt lat="44.0022149" lon="7.9837072"><ele>416.0</ele><time>2026-04-26T06:47:33.986Z</time></trkpt><trkpt lat="44.0022558" lon="7.9835719"><ele>410.0</ele><time>2026-04-26T06:47:34.914Z</time></trkpt><trkpt lat="44.0023252" lon="7.9834497"><ele>410.0</ele><time>2026-04-26T06:47:36.016Z</time></trkpt><trkpt lat="44.0023966" lon="7.9833932"><ele>410.0</ele><time>2026-04-26T06:47:36.884Z</time></trkpt><trkpt lat="44.0025031" lon="7.9834172"><ele>410.0</ele><time>2026-04-26T06:47:37.913Z</time></trkpt><trkpt lat="44.0026055" lon="7.9835047"><ele>410.0</ele><time>2026-04-26T06:47:38.962Z</time></trkpt><trkpt lat="44.0027002" lon="7.9836297"><ele>410.0</ele><time>2026-04-26T06:47:39.947Z</time></trkpt><trkpt lat="44.0027935" lon="7.9837334"><ele>414.6</ele><time>2026-04-26T06:47:40.869Z</time></trkpt><trkpt lat="44.0028835" lon="7.9838325"><ele>419.2</ele><time>2026-04-26T06:47:41.963Z</time></trkpt><trkpt lat="44.0029775" lon="7.9839043"><ele>423.79999999999995</ele><time>2026-04-26T06:47:43.057Z</time></trkpt><trkpt lat="44.0030709" lon="7.9838999"><ele>428.4</ele><time>2026-04-26T06:47:44.02Z</time></trkpt><trkpt lat="44.0031936" lon="7.9838503"><ele>433.0</ele><time>2026-04-26T06:47:45.102Z</time></trkpt><trkpt lat="44.0034138" lon="7.9836335"><ele>435.0</ele><time>2026-04-26T06:47:46.976Z</time></trkpt><trkpt lat="44.0035351" lon="7.983524"><ele>437.0</ele><time>2026-04-26T06:47:48.069Z</time></trkpt><trkpt lat="44.0037683" lon="7.9833141"><ele>439.0</ele><time>2026-04-26T06:47:50.135Z</time></trkpt><trkpt lat="44.0039564" lon="7.9831933"><ele>442.6666666666667</ele><time>2026-04-26T06:47:52.034Z</time></trkpt><trkpt lat="44.0040709" lon="7.9831999"><ele>446.33333333333337</ele><time>2026-04-26T06:47:53.141Z</time></trkpt><trkpt lat="44.0042429" lon="7.9833791"><ele>450.0</ele><time>2026-04-26T06:47:55.088Z</time></trkpt><trkpt lat="44.0043971" lon="7.9836202"><ele>450.0</ele><time>2026-04-26T06:47:56.923Z</time></trkpt><trkpt lat="44.0045105" lon="7.983754"><ele>450.0</ele><time>2026-04-26T06:47:57.932Z</time></trkpt><trkpt lat="44.0046293" lon="7.9838864"><ele>450.0</ele><time>2026-04-26T06:47:58.925Z</time></trkpt><trkpt lat="44.004753" lon="7.9840037"><ele>450.0</ele><time>2026-04-26T06:47:59.935Z</time></trkpt><trkpt lat="44.0048979" lon="7.9841285"><ele>450.0</ele><time>2026-04-26T06:48:00.943Z</time></trkpt><trkpt lat="44.0051723" lon="7.9843875"><ele>455.6</ele><time>2026-04-26T06:48:03.107Z</time></trkpt><trkpt lat="44.0052407" lon="7.9844893"><ele>461.2</ele><time>2026-04-26T06:48:04.025Z</time></trkpt><trkpt lat="44.0053076" lon="7.9845877"><ele>466.79999999999995</ele><time>2026-04-26T06:48:05.035Z</time></trkpt><trkpt lat="44.0053884" lon="7.9846455"><ele>472.4</ele><time>2026-04-26T06:48:05.976Z</time></trkpt><trkpt lat="44.0054889" lon="7.9846574"><ele>478.0</ele><time>2026-04-26T06:48:06.96Z</time></trkpt><trkpt lat="44.0056034" lon="7.9846023"><ele>478.0</ele><time>2026-04-26T06:48:08.029Z</time></trkpt><trkpt lat="44.0057152" lon="7.9844979"><ele>478.0</ele><time>2026-04-26T06:48:09.067Z</time></trkpt><trkpt lat="44.0058298" lon="7.9843839"><ele>478.0</ele><time>2026-04-26T06:48:10.067Z</time></trkpt><trkpt lat="44.0059383" lon="7.9842848"><ele>478.0</ele><time>2026-04-26T06:48:11.048Z</time></trkpt><trkpt lat="44.0061494" lon="7.984075"><ele>469.33333333333337</ele><time>2026-04-26T06:48:13.012Z</time></trkpt><trkpt lat="44.0062416" lon="7.9839112"><ele>460.66666666666663</ele><time>2026-04-26T06:48:14.133Z</time></trkpt><trkpt lat="44.0062904" lon="7.9837388"><ele>452.0</ele><time>2026-04-26T06:48:15.125Z</time></trkpt><trkpt lat="44.006292" lon="7.9833145"><ele>445.5</ele><time>2026-04-26T06:48:17.05Z</time></trkpt><trkpt lat="44.0063044" lon="7.9828729"><ele>439.0</ele><time>2026-04-26T06:48:19.074Z</time></trkpt><trkpt lat="44.0063088" lon="7.9826274"><ele>439.6666666666667</ele><time>2026-04-26T06:48:20.15Z</time></trkpt><trkpt lat="44.0063127" lon="7.9824068"><ele>440.33333333333337</ele><time>2026-04-26T06:48:21.073Z</time></trkpt><trkpt lat="44.006319" lon="7.9821541"><ele>441.0</ele><time>2026-04-26T06:48:22.215Z</time></trkpt><trkpt lat="44.0063278" lon="7.9818122"><ele>444.0</ele><time>2026-04-26T06:48:24.01Z</time></trkpt><trkpt lat="44.0062624" lon="7.9815016"><ele>447.0</ele><time>2026-04-26T06:48:25.846Z</time></trkpt><trkpt lat="44.0061923" lon="7.9813535"><ele>450.0</ele><time>2026-04-26T06:48:26.879Z</time></trkpt><trkpt lat="44.0061187" lon="7.9812279"><ele>450.0</ele><time>2026-04-26T06:48:27.853Z</time></trkpt><trkpt lat="44.006052" lon="7.9811196"><ele>450.0</ele><time>2026-04-26T06:48:28.815Z</time></trkpt><trkpt lat="44.0060003" lon="7.9809727"><ele>450.0</ele><time>2026-04-26T06:48:29.959Z</time></trkpt><trkpt lat="44.0060384" lon="7.9807094"><ele>450.0</ele><time>2026-04-26T06:48:31.978Z</time></trkpt><trkpt lat="44.006107" lon="7.9805994"><ele>452.0</ele><time>2026-04-26T06:48:32.94Z</time></trkpt><trkpt lat="44.0062095" lon="7.9805057"><ele>454.0</ele><time>2026-04-26T06:48:33.963Z</time></trkpt><trkpt lat="44.0063286" lon="7.9804339"><ele>456.0</ele><time>2026-04-26T06:48:34.958Z</time></trkpt><trkpt lat="44.0064368" lon="7.9803529"><ele>458.0</ele><time>2026-04-26T06:48:35.885Z</time></trkpt><trkpt lat="44.0065524" lon="7.9802525"><ele>464.0</ele><time>2026-04-26T06:48:36.895Z</time></trkpt><trkpt lat="44.0066615" lon="7.9801488"><ele>470.0</ele><time>2026-04-26T06:48:37.854Z</time></trkpt><trkpt lat="44.006776" lon="7.9800136"><ele>476.0</ele><time>2026-04-26T06:48:38.844Z</time></trkpt><trkpt lat="44.0068824" lon="7.9798398"><ele>482.0</ele><time>2026-04-26T06:48:39.938Z</time></trkpt><trkpt lat="44.0069761" lon="7.9796594"><ele>482.0</ele><time>2026-04-26T06:48:40.936Z</time></trkpt><trkpt lat="44.0070939" lon="7.9792082"><ele>482.0</ele><time>2026-04-26T06:48:42.754Z</time></trkpt><trkpt lat="44.0071302" lon="7.978948"><ele>477.25</ele><time>2026-04-26T06:48:43.779Z</time></trkpt><trkpt lat="44.0071685" lon="7.9787472"><ele>472.5</ele><time>2026-04-26T06:48:44.694Z</time></trkpt><trkpt lat="44.0072199" lon="7.9785611"><ele>467.75</ele><time>2026-04-26T06:48:45.751Z</time></trkpt><trkpt lat="44.0072853" lon="7.9784113"><ele>463.0</ele><time>2026-04-26T06:48:46.832Z</time></trkpt><trkpt lat="44.0073946" lon="7.9783547"><ele>461.75</ele><time>2026-04-26T06:48:48.017Z</time></trkpt><trkpt lat="44.0074917" lon="7.9783141"><ele>460.5</ele><time>2026-04-26T06:48:48.961Z</time></trkpt><trkpt lat="44.0076226" lon="7.9782883"><ele>459.25</ele><time>2026-04-26T06:48:50.048Z</time></trkpt><trkpt lat="44.0077534" lon="7.9782965"><ele>458.0</ele><time>2026-04-26T06:48:51.104Z</time></trkpt><trkpt lat="44.0079493" lon="7.9781479"><ele>464.75</ele><time>2026-04-26T06:48:52.945Z</time></trkpt><trkpt lat="44.0080366" lon="7.9779958"><ele>471.5</ele><time>2026-04-26T06:48:54.011Z</time></trkpt><trkpt lat="44.0080855" lon="7.9778688"><ele>478.25</ele><time>2026-04-26T06:48:54.966Z</time></trkpt><trkpt lat="44.0081558" lon="7.9777235"><ele>485.0</ele><time>2026-04-26T06:48:56.045Z</time></trkpt><trkpt lat="44.0082208" lon="7.977612"><ele>485.0</ele><time>2026-04-26T06:48:56.988Z</time></trkpt><trkpt lat="44.0082988" lon="7.977537"><ele>485.0</ele><time>2026-04-26T06:48:57.966Z</time></trkpt><trkpt lat="44.0084114" lon="7.9774509"><ele>485.0</ele><time>2026-04-26T06:48:59.131Z</time></trkpt><trkpt lat="44.0085629" lon="7.9772642"><ele>485.0</ele><time>2026-04-26T06:49:00.925Z</time></trkpt><trkpt lat="44.0085483" lon="7.9771578"><ele>488.66666666666663</ele><time>2026-04-26T06:49:01.871Z</time></trkpt><trkpt lat="44.0084637" lon="7.9770349"><ele>492.33333333333337</ele><time>2026-04-26T06:49:02.973Z</time></trkpt><trkpt lat="44.0083241" lon="7.9768635"><ele>496.0</ele><time>2026-04-26T06:49:03.937Z</time></trkpt><trkpt lat="44.0082076" lon="7.9767298"><ele>490.25</ele><time>2026-04-26T06:49:04.957Z</time></trkpt><trkpt lat="44.0081177" lon="7.9766337"><ele>484.5</ele><time>2026-04-26T06:49:05.944Z</time></trkpt><trkpt lat="44.0080389" lon="7.9765349"><ele>478.75</ele><time>2026-04-26T06:49:06.975Z</time></trkpt><trkpt lat="44.0079493" lon="7.9763259"><ele>473.0</ele><time>2026-04-26T06:49:08.898Z</time></trkpt><trkpt lat="44.0079397" lon="7.9761933"><ele>473.0</ele><time>2026-04-26T06:49:09.952Z</time></trkpt><trkpt lat="44.0079426" lon="7.9760515"><ele>473.0</ele><time>2026-04-26T06:49:10.921Z</time></trkpt><trkpt lat="44.0079737" lon="7.9758902"><ele>473.0</ele><time>2026-04-26T06:49:11.892Z</time></trkpt><trkpt lat="44.0080351" lon="7.9757518"><ele>473.0</ele><time>2026-04-26T06:49:12.881Z</time></trkpt><trkpt lat="44.0080889" lon="7.9755057"><ele>474.59999999999997</ele><time>2026-04-26T06:49:14.862Z</time></trkpt><trkpt lat="44.0080995" lon="7.9753907"><ele>476.19999999999993</ele><time>2026-04-26T06:49:15.87Z</time></trkpt><trkpt lat="44.0081044" lon="7.9752524"><ele>477.8</ele><time>2026-04-26T06:49:16.884Z</time></trkpt><trkpt lat="44.0080903" lon="7.9751135"><ele>479.4</ele><time>2026-04-26T06:49:17.833Z</time></trkpt><trkpt lat="44.0080463" lon="7.9749505"><ele>481.0</ele><time>2026-04-26T06:49:19.005Z</time></trkpt><trkpt lat="44.00798" lon="7.9748333"><ele>483.4</ele><time>2026-04-26T06:49:20.011Z</time></trkpt><trkpt lat="44.0079235" lon="7.9747387"><ele>485.8</ele><time>2026-04-26T06:49:20.969Z</time></trkpt><trkpt lat="44.0078637" lon="7.9746348"><ele>488.19999999999993</ele><time>2026-04-26T06:49:21.944Z</time></trkpt><trkpt lat="44.0078276" lon="7.9744974"><ele>490.59999999999997</ele><time>2026-04-26T06:49:22.914Z</time></trkpt><trkpt lat="44.0077967" lon="7.9743078"><ele>493.0</ele><time>2026-04-26T06:49:24.204Z</time></trkpt><trkpt lat="44.0077596" lon="7.9740194"><ele>496.5</ele><time>2026-04-26T06:49:26.179Z</time></trkpt><trkpt lat="44.0077608" lon="7.9738191"><ele>500.0</ele><time>2026-04-26T06:49:28.118Z</time></trkpt><trkpt lat="44.007833" lon="7.9736959"><ele>503.5</ele><time>2026-04-26T06:49:29.922Z</time></trkpt><trkpt lat="44.0079012" lon="7.9736454"><ele>507.0</ele><time>2026-04-26T06:49:30.912Z</time></trkpt><trkpt lat="44.0080162" lon="7.9736135"><ele>507.0</ele><time>2026-04-26T06:49:32.106Z</time></trkpt><trkpt lat="44.0081177" lon="7.9735982"><ele>507.0</ele><time>2026-04-26T06:49:33.071Z</time></trkpt><trkpt lat="44.008231" lon="7.9735899"><ele>507.0</ele><time>2026-04-26T06:49:34.029Z</time></trkpt><trkpt lat="44.0083949" lon="7.9736052"><ele>507.0</ele><time>2026-04-26T06:49:35.305Z</time></trkpt><trkpt lat="44.0086048" lon="7.9736808"><ele>515.0</ele><time>2026-04-26T06:49:37.009Z</time></trkpt><trkpt lat="44.0087517" lon="7.973663"><ele>523.0</ele><time>2026-04-26T06:49:38.116Z</time></trkpt><trkpt lat="44.0088805" lon="7.9736034"><ele>531.0</ele><time>2026-04-26T06:49:39.109Z</time></trkpt><trkpt lat="44.0090988" lon="7.973517"><ele>535.6666666666666</ele><time>2026-04-26T06:49:41.07Z</time></trkpt><trkpt lat="44.009201" lon="7.9735152"><ele>540.3333333333333</ele><time>2026-04-26T06:49:42.077Z</time></trkpt><trkpt lat="44.0094071" lon="7.9736532"><ele>545.0</ele><time>2026-04-26T06:49:44.035Z</time></trkpt><trkpt lat="44.0095402" lon="7.9737661"><ele>545.0</ele><time>2026-04-26T06:49:45.129Z</time></trkpt><trkpt lat="44.0096808" lon="7.9738723"><ele>545.0</ele><time>2026-04-26T06:49:46.257Z</time></trkpt><trkpt lat="44.009884" lon="7.9740489"><ele>545.0</ele><time>2026-04-26T06:49:48.051Z</time></trkpt><trkpt lat="44.010093" lon="7.9743066"><ele>551.0</ele><time>2026-04-26T06:49:50.123Z</time></trkpt><trkpt lat="44.0102116" lon="7.9745988"><ele>557.0</ele><time>2026-04-26T06:49:52.171Z</time></trkpt><trkpt lat="44.0103649" lon="7.9746966"><ele>563.0</ele><time>2026-04-26T06:49:54.018Z</time></trkpt><trkpt lat="44.0104726" lon="7.9746697"><ele>563.0</ele><time>2026-04-26T06:49:55.044Z</time></trkpt><trkpt lat="44.010584" lon="7.9745864"><ele>563.0</ele><time>2026-04-26T06:49:56.051Z</time></trkpt><trkpt lat="44.0107933" lon="7.9743686"><ele>563.0</ele><time>2026-04-26T06:49:57.99Z</time></trkpt><trkpt lat="44.0109507" lon="7.9742888"><ele>562.5</ele><time>2026-04-26T06:49:59.097Z</time></trkpt><trkpt lat="44.0112527" lon="7.9742677"><ele>562.0</ele><time>2026-04-26T06:50:01.111Z</time></trkpt><trkpt lat="44.0114819" lon="7.9743571"><ele>562.0</ele><time>2026-04-26T06:50:02.86Z</time></trkpt><trkpt lat="44.0116141" lon="7.9744377"><ele>562.0</ele><time>2026-04-26T06:50:03.906Z</time></trkpt><trkpt lat="44.0117668" lon="7.9744766"><ele>562.0</ele><time>2026-04-26T06:50:05.123Z</time></trkpt><trkpt lat="44.0119941" lon="7.9743525"><ele>567.0</ele><time>2026-04-26T06:50:06.911Z</time></trkpt><trkpt lat="44.0121262" lon="7.9742145"><ele>572.0</ele><time>2026-04-26T06:50:07.984Z</time></trkpt><trkpt lat="44.0123731" lon="7.9739801"><ele>567.2</ele><time>2026-04-26T06:50:10.066Z</time></trkpt><trkpt lat="44.0124664" lon="7.973887"><ele>562.4000000000001</ele><time>2026-04-26T06:50:11.014Z</time></trkpt><trkpt lat="44.0125608" lon="7.9738031"><ele>557.5999999999999</ele><time>2026-04-26T06:50:11.978Z</time></trkpt><trkpt lat="44.0126307" lon="7.973731"><ele>552.8</ele><time>2026-04-26T06:50:12.914Z</time></trkpt><trkpt lat="44.0126981" lon="7.9736631"><ele>548.0</ele><time>2026-04-26T06:50:13.879Z</time></trkpt><trkpt lat="44.0127707" lon="7.9736158"><ele>548.0</ele><time>2026-04-26T06:50:15.025Z</time></trkpt><trkpt lat="44.0128631" lon="7.9736127"><ele>548.0</ele><time>2026-04-26T06:50:17.036Z</time></trkpt><trkpt lat="44.0129165" lon="7.9736841"><ele>548.0</ele><time>2026-04-26T06:50:19.978Z</time></trkpt><trkpt lat="44.0128062" lon="7.9737356"><ele>548.0</ele><time>2026-04-26T06:50:23.968Z</time></trkpt><trkpt lat="44.0127419" lon="7.973774"><ele>548.0</ele><time>2026-04-26T06:50:28.131Z</time></trkpt><trkpt lat="44.0126946" lon="7.973838"><ele>548.0</ele><time>2026-04-26T06:50:52.052Z</time></trkpt><trkpt lat="44.0125356" lon="7.9740293"><ele>544.4</ele><time>2026-04-26T06:50:55.101Z</time></trkpt><trkpt lat="44.0124614" lon="7.9740991"><ele>540.8</ele><time>2026-04-26T06:50:56.079Z</time></trkpt><trkpt lat="44.0123837" lon="7.9741789"><ele>537.2</ele><time>2026-04-26T06:50:57.039Z</time></trkpt><trkpt lat="44.0122997" lon="7.9742644"><ele>533.6</ele><time>2026-04-26T06:50:58.056Z</time></trkpt><trkpt lat="44.0122221" lon="7.9743653"><ele>530.0</ele><time>2026-04-26T06:50:59.068Z</time></trkpt><trkpt lat="44.012149" lon="7.9744721"><ele>540.5</ele><time>2026-04-26T06:51:00.033Z</time></trkpt><trkpt lat="44.0120753" lon="7.9745611"><ele>551.0</ele><time>2026-04-26T06:51:00.973Z</time></trkpt><trkpt lat="44.0119705" lon="7.9746674"><ele>561.5</ele><time>2026-04-26T06:51:02.129Z</time></trkpt><trkpt lat="44.0118002" lon="7.9747805"><ele>572.0</ele><time>2026-04-26T06:51:03.996Z</time></trkpt><trkpt lat="44.0117156" lon="7.9748213"><ele>570.0</ele><time>2026-04-26T06:51:05.032Z</time></trkpt><trkpt lat="44.011623" lon="7.9748318"><ele>568.0</ele><time>2026-04-26T06:51:06.048Z</time></trkpt><trkpt lat="44.0114755" lon="7.9747291"><ele>566.0</ele><time>2026-04-26T06:51:07.996Z</time></trkpt><trkpt lat="44.0114038" lon="7.9746893"><ele>564.0</ele><time>2026-04-26T06:51:08.945Z</time></trkpt><trkpt lat="44.0113189" lon="7.9746796"><ele>562.0</ele><time>2026-04-26T06:51:09.871Z</time></trkpt><trkpt lat="44.0111987" lon="7.9747262"><ele>562.0</ele><time>2026-04-26T06:51:11.116Z</time></trkpt><trkpt lat="44.0109907" lon="7.9748539"><ele>562.0</ele><time>2026-04-26T06:51:12.995Z</time></trkpt><trkpt lat="44.010812" lon="7.9750671"><ele>568.6666666666667</ele><time>2026-04-26T06:51:14.921Z</time></trkpt><trkpt lat="44.0106638" lon="7.9751729"><ele>575.3333333333334</ele><time>2026-04-26T06:51:16.192Z</time></trkpt><trkpt lat="44.0104366" lon="7.9753061"><ele>582.0</ele><time>2026-04-26T06:51:18.155Z</time></trkpt><trkpt lat="44.0102324" lon="7.975369"><ele>582.0</ele><time>2026-04-26T06:51:20.073Z</time></trkpt><trkpt lat="44.0101215" lon="7.9753697"><ele>582.0</ele><time>2026-04-26T06:51:21.226Z</time></trkpt><trkpt lat="44.0099533" lon="7.9752589"><ele>582.0</ele><time>2026-04-26T06:51:23.055Z</time></trkpt><trkpt lat="44.009878" lon="7.9751556"><ele>582.0</ele><time>2026-04-26T06:51:24.014Z</time></trkpt><trkpt lat="44.0098082" lon="7.9750343"><ele>575.6666666666666</ele><time>2026-04-26T06:51:25.031Z</time></trkpt><trkpt lat="44.0097093" lon="7.9749281"><ele>569.3333333333333</ele><time>2026-04-26T06:51:26.14Z</time></trkpt><trkpt lat="44.0094851" lon="7.9748003"><ele>563.0</ele><time>2026-04-26T06:51:28.108Z</time></trkpt><trkpt lat="44.0093884" lon="7.9747585"><ele>563.0</ele><time>2026-04-26T06:51:29.074Z</time></trkpt><trkpt lat="44.009309" lon="7.9747291"><ele>563.0</ele><time>2026-04-26T06:51:29.981Z</time></trkpt><trkpt lat="44.0092223" lon="7.9747279"><ele>563.0</ele><time>2026-04-26T06:51:31.199Z</time></trkpt><trkpt lat="44.0091448" lon="7.9748572"><ele>563.0</ele><time>2026-04-26T06:51:33.102Z</time></trkpt><trkpt lat="44.0091631" lon="7.9749784"><ele>563.0</ele><time>2026-04-26T06:51:34.421Z</time></trkpt><trkpt lat="44.0093282" lon="7.9751925"><ele>559.0</ele><time>2026-04-26T06:51:36.191Z</time></trkpt><trkpt lat="44.0094892" lon="7.9755163"><ele>555.0</ele><time>2026-04-26T06:51:38.226Z</time></trkpt><trkpt lat="44.0095864" lon="7.9758745"><ele>551.3333333333334</ele><time>2026-04-26T06:51:40.164Z</time></trkpt><trkpt lat="44.0097181" lon="7.976223"><ele>547.6666666666667</ele><time>2026-04-26T06:51:42.061Z</time></trkpt><trkpt lat="44.0097973" lon="7.9764181"><ele>544.0</ele><time>2026-04-26T06:51:43.126Z</time></trkpt><trkpt lat="44.0099578" lon="7.9767737"><ele>552.75</ele><time>2026-04-26T06:51:45.06Z</time></trkpt><trkpt lat="44.0100694" lon="7.9769034"><ele>561.5</ele><time>2026-04-26T06:51:46.044Z</time></trkpt><trkpt lat="44.010162" lon="7.9770161"><ele>570.25</ele><time>2026-04-26T06:51:46.959Z</time></trkpt><trkpt lat="44.0102316" lon="7.9771397"><ele>579.0</ele><time>2026-04-26T06:51:48.029Z</time></trkpt><trkpt lat="44.010289" lon="7.977343"><ele>579.5</ele><time>2026-04-26T06:51:49.955Z</time></trkpt><trkpt lat="44.0101968" lon="7.9775206"><ele>580.0</ele><time>2026-04-26T06:51:51.928Z</time></trkpt><trkpt lat="44.010114" lon="7.9777323"><ele>580.5</ele><time>2026-04-26T06:51:53.94Z</time></trkpt><trkpt lat="44.0101362" lon="7.9778636"><ele>581.0</ele><time>2026-04-26T06:51:54.903Z</time></trkpt><trkpt lat="44.0101945" lon="7.9780076"><ele>581.0</ele><time>2026-04-26T06:51:55.919Z</time></trkpt><trkpt lat="44.0102491" lon="7.978161"><ele>581.0</ele><time>2026-04-26T06:51:56.929Z</time></trkpt><trkpt lat="44.0102734" lon="7.9783298"><ele>581.0</ele><time>2026-04-26T06:51:58.019Z</time></trkpt><trkpt lat="44.0102801" lon="7.978493"><ele>581.0</ele><time>2026-04-26T06:51:58.935Z</time></trkpt><trkpt lat="44.0102822" lon="7.9786714"><ele>581.5</ele><time>2026-04-26T06:51:59.882Z</time></trkpt><trkpt lat="44.0102904" lon="7.978868"><ele>582.0</ele><time>2026-04-26T06:52:00.999Z</time></trkpt><trkpt lat="44.0103156" lon="7.9790332"><ele>582.5</ele><time>2026-04-26T06:52:01.95Z</time></trkpt><trkpt lat="44.0103374" lon="7.9791991"><ele>583.0</ele><time>2026-04-26T06:52:02.973Z</time></trkpt><trkpt lat="44.0103344" lon="7.9793726"><ele>587.0</ele><time>2026-04-26T06:52:03.928Z</time></trkpt><trkpt lat="44.0103125" lon="7.979529"><ele>591.0</ele><time>2026-04-26T06:52:04.853Z</time></trkpt><trkpt lat="44.0102974" lon="7.979698"><ele>595.0</ele><time>2026-04-26T06:52:05.944Z</time></trkpt><trkpt lat="44.0102616" lon="7.9798358"><ele>599.0</ele><time>2026-04-26T06:52:06.952Z</time></trkpt><trkpt lat="44.0101928" lon="7.9799531"><ele>604.0</ele><time>2026-04-26T06:52:07.889Z</time></trkpt><trkpt lat="44.0100325" lon="7.9802321"><ele>609.0</ele><time>2026-04-26T06:52:09.949Z</time></trkpt><trkpt lat="44.0099739" lon="7.9803635"><ele>614.0</ele><time>2026-04-26T06:52:10.858Z</time></trkpt><trkpt lat="44.0099034" lon="7.980516"><ele>608.25</ele><time>2026-04-26T06:52:11.933Z</time></trkpt><trkpt lat="44.0097575" lon="7.980801"><ele>602.5</ele><time>2026-04-26T06:52:13.987Z</time></trkpt><trkpt lat="44.009704" lon="7.9809231"><ele>596.75</ele><time>2026-04-26T06:52:14.993Z</time></trkpt><trkpt lat="44.0096743" lon="7.9810351"><ele>591.0</ele><time>2026-04-26T06:52:15.983Z</time></trkpt><trkpt lat="44.0096841" lon="7.9811398"><ele>591.0</ele><time>2026-04-26T06:52:16.965Z</time></trkpt><trkpt lat="44.0097009" lon="7.9812534"><ele>591.0</ele><time>2026-04-26T06:52:17.948Z</time></trkpt><trkpt lat="44.0097296" lon="7.9814103"><ele>591.0</ele><time>2026-04-26T06:52:19.026Z</time></trkpt><trkpt lat="44.0097343" lon="7.9816043"><ele>591.0</ele><time>2026-04-26T06:52:20.061Z</time></trkpt><trkpt lat="44.009747" lon="7.9817888"><ele>588.0</ele><time>2026-04-26T06:52:21.174Z</time></trkpt><trkpt lat="44.0098139" lon="7.9821617"><ele>585.0</ele><time>2026-04-26T06:52:23.167Z</time></trkpt><trkpt lat="44.0098873" lon="7.982547"><ele>585.0</ele><time>2026-04-26T06:52:25.139Z</time></trkpt><trkpt lat="44.0099009" lon="7.9827043"><ele>585.0</ele><time>2026-04-26T06:52:25.901Z</time></trkpt><trkpt lat="44.0099146" lon="7.9828999"><ele>585.0</ele><time>2026-04-26T06:52:26.947Z</time></trkpt><trkpt lat="44.0099172" lon="7.9830723"><ele>585.0</ele><time>2026-04-26T06:52:28.029Z</time></trkpt><trkpt lat="44.0098957" lon="7.9832314"><ele>589.3333333333334</ele><time>2026-04-26T06:52:29.05Z</time></trkpt><trkpt lat="44.0098596" lon="7.9833945"><ele>593.6666666666667</ele><time>2026-04-26T06:52:30.109Z</time></trkpt><trkpt lat="44.0098142" lon="7.9835432"><ele>598.0</ele><time>2026-04-26T06:52:31.031Z</time></trkpt><trkpt lat="44.0097983" lon="7.983878"><ele>598.0</ele><time>2026-04-26T06:52:32.884Z</time></trkpt><trkpt lat="44.0097862" lon="7.9840519"><ele>598.0</ele><time>2026-04-26T06:52:33.913Z</time></trkpt><trkpt lat="44.0097426" lon="7.9841992"><ele>598.0</ele><time>2026-04-26T06:52:34.952Z</time></trkpt><trkpt lat="44.0096883" lon="7.9843278"><ele>598.0</ele><time>2026-04-26T06:52:35.919Z</time></trkpt><trkpt lat="44.0096127" lon="7.9844366"><ele>601.1666666666667</ele><time>2026-04-26T06:52:36.868Z</time></trkpt><trkpt lat="44.0095462" lon="7.9845443"><ele>604.3333333333334</ele><time>2026-04-26T06:52:37.895Z</time></trkpt><trkpt lat="44.0094971" lon="7.984652"><ele>607.5</ele><time>2026-04-26T06:52:38.915Z</time></trkpt><trkpt lat="44.0094574" lon="7.9847508"><ele>610.6666666666666</ele><time>2026-04-26T06:52:39.969Z</time></trkpt><trkpt lat="44.0094294" lon="7.9848384"><ele>613.8333333333333</ele><time>2026-04-26T06:52:40.93Z</time></trkpt><trkpt lat="44.0093981" lon="7.9849548"><ele>617.0</ele><time>2026-04-26T06:52:41.97Z</time></trkpt><trkpt lat="44.0093655" lon="7.9850642"><ele>619.5</ele><time>2026-04-26T06:52:42.933Z</time></trkpt><trkpt lat="44.0093505" lon="7.985187"><ele>622.0</ele><time>2026-04-26T06:52:44.032Z</time></trkpt><trkpt lat="44.0093702" lon="7.9853024"><ele>624.5</ele><time>2026-04-26T06:52:44.987Z</time></trkpt><trkpt lat="44.0094229" lon="7.9854367"><ele>627.0</ele><time>2026-04-26T06:52:46.046Z</time></trkpt><trkpt lat="44.0095149" lon="7.9857788"><ele>632.0</ele><time>2026-04-26T06:52:48.145Z</time></trkpt><trkpt lat="44.0095006" lon="7.9860923"><ele>637.0</ele><time>2026-04-26T06:52:49.936Z</time></trkpt><trkpt lat="44.0095116" lon="7.9862414"><ele>642.0</ele><time>2026-04-26T06:52:50.945Z</time></trkpt><trkpt lat="44.0095407" lon="7.9865919"><ele>648.6666666666666</ele><time>2026-04-26T06:52:52.873Z</time></trkpt><trkpt lat="44.009533" lon="7.9867703"><ele>655.3333333333333</ele><time>2026-04-26T06:52:53.873Z</time></trkpt><trkpt lat="44.0094829" lon="7.9869445"><ele>662.0</ele><time>2026-04-26T06:52:55.037Z</time></trkpt><trkpt lat="44.0093246" lon="7.9871591"><ele>662.0</ele><time>2026-04-26T06:52:56.955Z</time></trkpt><trkpt lat="44.0092369" lon="7.9872174"><ele>662.0</ele><time>2026-04-26T06:52:57.858Z</time></trkpt><trkpt lat="44.0091427" lon="7.9872578"><ele>662.0</ele><time>2026-04-26T06:52:58.948Z</time></trkpt><trkpt lat="44.0090756" lon="7.9872824"><ele>662.0</ele><time>2026-04-26T06:52:59.922Z</time></trkpt><trkpt lat="44.009031" lon="7.9874347"><ele>662.0</ele><time>2026-04-26T06:53:01.922Z</time></trkpt><trkpt lat="44.0090185" lon="7.987559"><ele>661.0</ele><time>2026-04-26T06:53:02.965Z</time></trkpt><trkpt lat="44.0089649" lon="7.9877351"><ele>660.0</ele><time>2026-04-26T06:53:03.901Z</time></trkpt><trkpt lat="44.0088984" lon="7.9878808"><ele>659.0</ele><time>2026-04-26T06:53:04.911Z</time></trkpt><trkpt lat="44.0088176" lon="7.9880146"><ele>658.0</ele><time>2026-04-26T06:53:06.004Z</time></trkpt><trkpt lat="44.0086317" lon="7.9882321"><ele>658.0</ele><time>2026-04-26T06:53:08.005Z</time></trkpt><trkpt lat="44.0085178" lon="7.9883019"><ele>658.0</ele><time>2026-04-26T06:53:08.978Z</time></trkpt><trkpt lat="44.0084111" lon="7.9883615"><ele>658.0</ele><time>2026-04-26T06:53:09.879Z</time></trkpt><trkpt lat="44.008298" lon="7.9884512"><ele>658.0</ele><time>2026-04-26T06:53:10.893Z</time></trkpt><trkpt lat="44.0081757" lon="7.9885509"><ele>656.0</ele><time>2026-04-26T06:53:11.913Z</time></trkpt><trkpt lat="44.0080506" lon="7.9886443"><ele>654.0</ele><time>2026-04-26T06:53:12.94Z</time></trkpt><trkpt lat="44.00798" lon="7.988711"><ele>652.0</ele><time>2026-04-26T06:53:13.994Z</time></trkpt><trkpt lat="44.0079387" lon="7.9887979"><ele>650.0</ele><time>2026-04-26T06:53:14.923Z</time></trkpt><trkpt lat="44.0079284" lon="7.9889452"><ele>648.0</ele><time>2026-04-26T06:53:15.975Z</time></trkpt><trkpt lat="44.0079462" lon="7.9892056"><ele>655.3333333333334</ele><time>2026-04-26T06:53:17.694Z</time></trkpt><trkpt lat="44.0079147" lon="7.9894"><ele>662.6666666666667</ele><time>2026-04-26T06:53:18.971Z</time></trkpt><trkpt lat="44.0078589" lon="7.9895503"><ele>670.0</ele><time>2026-04-26T06:53:19.986Z</time></trkpt><trkpt lat="44.0077105" lon="7.989815"><ele>670.0</ele><time>2026-04-26T06:53:21.889Z</time></trkpt><trkpt lat="44.0076245" lon="7.9899599"><ele>670.0</ele><time>2026-04-26T06:53:22.949Z</time></trkpt><trkpt lat="44.0075423" lon="7.9901196"><ele>670.0</ele><time>2026-04-26T06:53:24.031Z</time></trkpt><trkpt lat="44.0074742" lon="7.9902443"><ele>670.0</ele><time>2026-04-26T06:53:24.949Z</time></trkpt><trkpt lat="44.0074023" lon="7.9903547"><ele>669.1666666666667</ele><time>2026-04-26T06:53:25.909Z</time></trkpt><trkpt lat="44.0073447" lon="7.990461"><ele>668.3333333333334</ele><time>2026-04-26T06:53:26.968Z</time></trkpt><trkpt lat="44.0073007" lon="7.9905557"><ele>667.5</ele><time>2026-04-26T06:53:27.932Z</time></trkpt><trkpt lat="44.0072536" lon="7.9906601"><ele>666.6666666666666</ele><time>2026-04-26T06:53:29.009Z</time></trkpt><trkpt lat="44.0072207" lon="7.9907388"><ele>665.8333333333333</ele><time>2026-04-26T06:53:29.973Z</time></trkpt><trkpt lat="44.0071973" lon="7.9908926"><ele>665.0</ele><time>2026-04-26T06:53:32.091Z</time></trkpt><trkpt lat="44.0072681" lon="7.9910187"><ele>665.0</ele><time>2026-04-26T06:53:34.01Z</time></trkpt><trkpt lat="44.0073346" lon="7.9910478"><ele>665.0</ele><time>2026-04-26T06:53:34.94Z</time></trkpt><trkpt lat="44.0074301" lon="7.9910501"><ele>665.0</ele><time>2026-04-26T06:53:35.997Z</time></trkpt><trkpt lat="44.0075263" lon="7.9910428"><ele>665.0</ele><time>2026-04-26T06:53:36.934Z</time></trkpt><trkpt lat="44.0076648" lon="7.9910175"><ele>665.0</ele><time>2026-04-26T06:53:38.008Z</time></trkpt><trkpt lat="44.007821" lon="7.9909921"><ele>665.0</ele><time>2026-04-26T06:53:39.089Z</time></trkpt><trkpt lat="44.008108" lon="7.990929"><ele>665.0</ele><time>2026-04-26T06:53:41.021Z</time></trkpt><trkpt lat="44.0084201" lon="7.9907719"><ele>673.5</ele><time>2026-04-26T06:53:43.162Z</time></trkpt><trkpt lat="44.0087016" lon="7.9906312"><ele>682.0</ele><time>2026-04-26T06:53:45.111Z</time></trkpt><trkpt lat="44.008985" lon="7.9905795"><ele>682.0</ele><time>2026-04-26T06:53:47.147Z</time></trkpt><trkpt lat="44.0091123" lon="7.9905504"><ele>682.0</ele><time>2026-04-26T06:53:48.071Z</time></trkpt><trkpt lat="44.0092445" lon="7.9904938"><ele>682.0</ele><time>2026-04-26T06:53:49.037Z</time></trkpt><trkpt lat="44.0093821" lon="7.9903811"><ele>682.0</ele><time>2026-04-26T06:53:50.12Z</time></trkpt><trkpt lat="44.0096049" lon="7.9901132"><ele>680.0</ele><time>2026-04-26T06:53:52.09Z</time></trkpt><trkpt lat="44.0098286" lon="7.989912"><ele>678.0</ele><time>2026-04-26T06:53:53.972Z</time></trkpt><trkpt lat="44.009988" lon="7.9898555"><ele>676.0</ele><time>2026-04-26T06:53:55.126Z</time></trkpt><trkpt lat="44.0102678" lon="7.9898965"><ele>676.0</ele><time>2026-04-26T06:53:57.136Z</time></trkpt><trkpt lat="44.010421" lon="7.9899799"><ele>676.0</ele><time>2026-04-26T06:53:58.325Z</time></trkpt><trkpt lat="44.0106184" lon="7.99003"><ele>676.0</ele><time>2026-04-26T06:54:00.252Z</time></trkpt><trkpt lat="44.0107792" lon="7.989897"><ele>671.3333333333334</ele><time>2026-04-26T06:54:02.193Z</time></trkpt><trkpt lat="44.010831" lon="7.9897542"><ele>666.6666666666666</ele><time>2026-04-26T06:54:03.22Z</time></trkpt><trkpt lat="44.0108328" lon="7.9894042"><ele>662.0</ele><time>2026-04-26T06:54:05.173Z</time></trkpt><trkpt lat="44.0107645" lon="7.9890799"><ele>672.0</ele><time>2026-04-26T06:54:07.269Z</time></trkpt><trkpt lat="44.0106779" lon="7.9888348"><ele>682.0</ele><time>2026-04-26T06:54:09.069Z</time></trkpt><trkpt lat="44.0106501" lon="7.9886806"><ele>692.0</ele><time>2026-04-26T06:54:10.123Z</time></trkpt><trkpt lat="44.0106771" lon="7.9884844"><ele>691.6666666666666</ele><time>2026-04-26T06:54:11.228Z</time></trkpt><trkpt lat="44.0107535" lon="7.9882003"><ele>691.3333333333334</ele><time>2026-04-26T06:54:13.086Z</time></trkpt><trkpt lat="44.0108118" lon="7.9880275"><ele>691.0</ele><time>2026-04-26T06:54:14.171Z</time></trkpt><trkpt lat="44.0108719" lon="7.9878656"><ele>688.25</ele><time>2026-04-26T06:54:15.333Z</time></trkpt><trkpt lat="44.0108832" lon="7.9875872"><ele>685.5</ele><time>2026-04-26T06:54:17.187Z</time></trkpt><trkpt lat="44.0108586" lon="7.9874459"><ele>682.75</ele><time>2026-04-26T06:54:18.125Z</time></trkpt><trkpt lat="44.0108113" lon="7.9872736"><ele>680.0</ele><time>2026-04-26T06:54:19.143Z</time></trkpt><trkpt lat="44.0108009" lon="7.9871225"><ele>680.0</ele><time>2026-04-26T06:54:20.049Z</time></trkpt><trkpt lat="44.0108141" lon="7.9867581"><ele>680.0</ele><time>2026-04-26T06:54:22.075Z</time></trkpt><trkpt lat="44.010834" lon="7.9865928"><ele>680.0</ele><time>2026-04-26T06:54:23.033Z</time></trkpt><trkpt lat="44.0108553" lon="7.986433"><ele>672.75</ele><time>2026-04-26T06:54:24.064Z</time></trkpt><trkpt lat="44.0108753" lon="7.9862953"><ele>665.5</ele><time>2026-04-26T06:54:25.008Z</time></trkpt><trkpt lat="44.0109175" lon="7.9861446"><ele>658.25</ele><time>2026-04-26T06:54:26.092Z</time></trkpt><trkpt lat="44.0109901" lon="7.9860362"><ele>651.0</ele><time>2026-04-26T06:54:27.012Z</time></trkpt><trkpt lat="44.0110963" lon="7.9859251"><ele>657.5</ele><time>2026-04-26T06:54:28.134Z</time></trkpt><trkpt lat="44.0113123" lon="7.985717"><ele>664.0</ele><time>2026-04-26T06:54:30.285Z</time></trkpt><trkpt lat="44.0114863" lon="7.9854244"><ele>646.5</ele><time>2026-04-26T06:54:32.188Z</time></trkpt><trkpt lat="44.0116634" lon="7.9851742"><ele>629.0</ele><time>2026-04-26T06:54:34.227Z</time></trkpt><trkpt lat="44.0119108" lon="7.9850526"><ele>639.5</ele><time>2026-04-26T06:54:36.207Z</time></trkpt><trkpt lat="44.0122025" lon="7.9849621"><ele>650.0</ele><time>2026-04-26T06:54:38.227Z</time></trkpt><trkpt lat="44.0124234" lon="7.9848645"><ele>643.25</ele><time>2026-04-26T06:54:40.067Z</time></trkpt><trkpt lat="44.0125306" lon="7.9847786"><ele>636.5</ele><time>2026-04-26T06:54:41.087Z</time></trkpt><trkpt lat="44.0126121" lon="7.9846468"><ele>629.75</ele><time>2026-04-26T06:54:42.077Z</time></trkpt><trkpt lat="44.0126865" lon="7.9844613"><ele>623.0</ele><time>2026-04-26T06:54:43.213Z</time></trkpt><trkpt lat="44.012723" lon="7.9843098"><ele>630.0</ele><time>2026-04-26T06:54:44.02Z</time></trkpt><trkpt lat="44.012783" lon="7.9841106"><ele>637.0</ele><time>2026-04-26T06:54:45.171Z</time></trkpt><trkpt lat="44.012834" lon="7.9839548"><ele>644.0</ele><time>2026-04-26T06:54:46.084Z</time></trkpt><trkpt lat="44.0129879" lon="7.9836678"><ele>644.0</ele><time>2026-04-26T06:54:48.171Z</time></trkpt><trkpt lat="44.0132313" lon="7.9834873"><ele>644.0</ele><time>2026-04-26T06:54:50.091Z</time></trkpt><trkpt lat="44.013368" lon="7.9834067"><ele>644.0</ele><time>2026-04-26T06:54:51.049Z</time></trkpt><trkpt lat="44.0135271" lon="7.9833156"><ele>637.0</ele><time>2026-04-26T06:54:52.058Z</time></trkpt><trkpt lat="44.0136956" lon="7.9832502"><ele>630.0</ele><time>2026-04-26T06:54:53.199Z</time></trkpt><trkpt lat="44.0139822" lon="7.9831809"><ele>630.0</ele><time>2026-04-26T06:54:55.111Z</time></trkpt><trkpt lat="44.0141219" lon="7.9831448"><ele>630.0</ele><time>2026-04-26T06:54:56.1Z</time></trkpt><trkpt lat="44.0142518" lon="7.9830915"><ele>630.0</ele><time>2026-04-26T06:54:57.011Z</time></trkpt><trkpt lat="44.0143904" lon="7.9830088"><ele>630.0</ele><time>2026-04-26T06:54:58.067Z</time></trkpt><trkpt lat="44.0145248" lon="7.9829064"><ele>632.0</ele><time>2026-04-26T06:54:59.202Z</time></trkpt><trkpt lat="44.0147557" lon="7.9827871"><ele>634.0</ele><time>2026-04-26T06:55:01.153Z</time></trkpt><trkpt lat="44.0148984" lon="7.9826749"><ele>636.0</ele><time>2026-04-26T06:55:03.208Z</time></trkpt><trkpt lat="44.0149542" lon="7.982441"><ele>627.0</ele><time>2026-04-26T06:55:05.285Z</time></trkpt><trkpt lat="44.015064" lon="7.9823079"><ele>618.0</ele><time>2026-04-26T06:55:07.09Z</time></trkpt><trkpt lat="44.0153013" lon="7.9823536"><ele>609.0</ele><time>2026-04-26T06:55:09.192Z</time></trkpt><trkpt lat="44.015536" lon="7.9823941"><ele>609.0</ele><time>2026-04-26T06:55:11.061Z</time></trkpt><trkpt lat="44.015633" lon="7.9824023"><ele>609.0</ele><time>2026-04-26T06:55:12.067Z</time></trkpt><trkpt lat="44.0156969" lon="7.9824573"><ele>609.0</ele><time>2026-04-26T06:55:13.08Z</time></trkpt><trkpt lat="44.0157344" lon="7.9825651"><ele>609.0</ele><time>2026-04-26T06:55:14.103Z</time></trkpt><trkpt lat="44.0157504" lon="7.9827009"><ele>609.0</ele><time>2026-04-26T06:55:15.093Z</time></trkpt><trkpt lat="44.0157644" lon="7.9828351"><ele>601.3333333333334</ele><time>2026-04-26T06:55:16.159Z</time></trkpt><trkpt lat="44.0157911" lon="7.982961"><ele>593.6666666666667</ele><time>2026-04-26T06:55:17.084Z</time></trkpt><trkpt lat="44.0158489" lon="7.9831043"><ele>586.0</ele><time>2026-04-26T06:55:18.206Z</time></trkpt><trkpt lat="44.0160168" lon="7.9834031"><ele>577.6666666666667</ele><time>2026-04-26T06:55:20.235Z</time></trkpt><trkpt lat="44.0160902" lon="7.9835174"><ele>569.3333333333334</ele><time>2026-04-26T06:55:21.242Z</time></trkpt><trkpt lat="44.0162719" lon="7.9837233"><ele>561.0</ele><time>2026-04-26T06:55:23.099Z</time></trkpt><trkpt lat="44.0163534" lon="7.9838365"><ele>561.0</ele><time>2026-04-26T06:55:24.081Z</time></trkpt><trkpt lat="44.0164379" lon="7.9839595"><ele>561.0</ele><time>2026-04-26T06:55:25.126Z</time></trkpt><trkpt lat="44.0165409" lon="7.984247"><ele>561.0</ele><time>2026-04-26T06:55:27.089Z</time></trkpt><trkpt lat="44.0165858" lon="7.9843923"><ele>562.0</ele><time>2026-04-26T06:55:28.085Z</time></trkpt><trkpt lat="44.0166178" lon="7.9845196"><ele>563.0</ele><time>2026-04-26T06:55:29.109Z</time></trkpt><trkpt lat="44.01663" lon="7.9846111"><ele>564.0</ele><time>2026-04-26T06:55:30.049Z</time></trkpt><trkpt lat="44.0166509" lon="7.984694"><ele>565.0</ele><time>2026-04-26T06:55:31.198Z</time></trkpt><trkpt lat="44.0168452" lon="7.9847941"><ele>566.0</ele><time>2026-04-26T06:55:34.108Z</time></trkpt><trkpt lat="44.0169701" lon="7.9847654"><ele>566.0</ele><time>2026-04-26T06:55:35.109Z</time></trkpt><trkpt lat="44.0171002" lon="7.9847599"><ele>566.0</ele><time>2026-04-26T06:55:36.162Z</time></trkpt><trkpt lat="44.0172469" lon="7.9848006"><ele>566.0</ele><time>2026-04-26T06:55:37.204Z</time></trkpt><trkpt lat="44.0172953" lon="7.9849048"><ele>566.0</ele><time>2026-04-26T06:55:38.175Z</time></trkpt><trkpt lat="44.0173485" lon="7.9850545"><ele>564.2</ele><time>2026-04-26T06:55:39.1Z</time></trkpt><trkpt lat="44.0174087" lon="7.9851641"><ele>562.4000000000001</ele><time>2026-04-26T06:55:40.12Z</time></trkpt><trkpt lat="44.0174823" lon="7.9852588"><ele>560.6</ele><time>2026-04-26T06:55:41.187Z</time></trkpt><trkpt lat="44.0175731" lon="7.9853065"><ele>558.8000000000001</ele><time>2026-04-26T06:55:42.089Z</time></trkpt><trkpt lat="44.0176785" lon="7.9853204"><ele>557.0</ele><time>2026-04-26T06:55:43.153Z</time></trkpt><trkpt lat="44.0177678" lon="7.9852901"><ele>557.0</ele><time>2026-04-26T06:55:44.102Z</time></trkpt><trkpt lat="44.0178588" lon="7.9851966"><ele>557.0</ele><time>2026-04-26T06:55:45.058Z</time></trkpt><trkpt lat="44.0179782" lon="7.9851132"><ele>557.0</ele><time>2026-04-26T06:55:46.05Z</time></trkpt><trkpt lat="44.0181123" lon="7.9849768"><ele>557.0</ele><time>2026-04-26T06:55:47.154Z</time></trkpt><trkpt lat="44.0183361" lon="7.9846702"><ele>556.6666666666666</ele><time>2026-04-26T06:55:49.058Z</time></trkpt><trkpt lat="44.018474" lon="7.984516"><ele>556.3333333333334</ele><time>2026-04-26T06:55:50.183Z</time></trkpt><trkpt lat="44.0185721" lon="7.9844242"><ele>556.0</ele><time>2026-04-26T06:55:51.162Z</time></trkpt><trkpt lat="44.018821" lon="7.9840743"><ele>564.0</ele><time>2026-04-26T06:55:53.99Z</time></trkpt><trkpt lat="44.0188305" lon="7.9838321"><ele>572.0</ele><time>2026-04-26T06:55:55.261Z</time></trkpt><trkpt lat="44.0188325" lon="7.9835658"><ele>580.0</ele><time>2026-04-26T06:55:57.169Z</time></trkpt><trkpt lat="44.0189078" lon="7.9834229"><ele>580.0</ele><time>2026-04-26T06:55:59.131Z</time></trkpt><trkpt lat="44.0190136" lon="7.9834346"><ele>580.0</ele><time>2026-04-26T06:56:01.093Z</time></trkpt><trkpt lat="44.01908" lon="7.9834795"><ele>580.0</ele><time>2026-04-26T06:56:02.142Z</time></trkpt><trkpt lat="44.019173" lon="7.9833463"><ele>580.0</ele><time>2026-04-26T06:56:04.168Z</time></trkpt><trkpt lat="44.0192032" lon="7.983029"><ele>571.3333333333334</ele><time>2026-04-26T06:56:06.164Z</time></trkpt><trkpt lat="44.019243" lon="7.9827657"><ele>562.6666666666666</ele><time>2026-04-26T06:56:08.204Z</time></trkpt><trkpt lat="44.0193156" lon="7.9826246"><ele>554.0</ele><time>2026-04-26T06:56:10.176Z</time></trkpt><trkpt lat="44.0195032" lon="7.982694"><ele>554.0</ele><time>2026-04-26T06:56:12.997Z</time></trkpt><trkpt lat="44.0196801" lon="7.9829489"><ele>554.0</ele><time>2026-04-26T06:56:15.111Z</time></trkpt><trkpt lat="44.0198509" lon="7.9831557"><ele>554.0</ele><time>2026-04-26T06:56:17.157Z</time></trkpt><trkpt lat="44.0199179" lon="7.9832345"><ele>554.0</ele><time>2026-04-26T06:56:18.15Z</time></trkpt><trkpt lat="44.02006" lon="7.9832951"><ele>554.0</ele><time>2026-04-26T06:56:20.248Z</time></trkpt><trkpt lat="44.0201624" lon="7.9831793"><ele>554.0</ele><time>2026-04-26T06:56:22.112Z</time></trkpt><trkpt lat="44.0202242" lon="7.9830625"><ele>549.75</ele><time>2026-04-26T06:56:23.065Z</time></trkpt><trkpt lat="44.0202986" lon="7.9829656"><ele>545.5</ele><time>2026-04-26T06:56:24.16Z</time></trkpt><trkpt lat="44.0204011" lon="7.9829092"><ele>541.25</ele><time>2026-04-26T06:56:25.071Z</time></trkpt><trkpt lat="44.0205708" lon="7.9828809"><ele>537.0</ele><time>2026-04-26T06:56:26.343Z</time></trkpt><trkpt lat="44.0208059" lon="7.9828594"><ele>535.6</ele><time>2026-04-26T06:56:28.18Z</time></trkpt><trkpt lat="44.0209919" lon="7.9827704"><ele>534.2</ele><time>2026-04-26T06:56:30.101Z</time></trkpt><trkpt lat="44.0210798" lon="7.9827268"><ele>532.8</ele><time>2026-04-26T06:56:31.093Z</time></trkpt><trkpt lat="44.0211506" lon="7.9827138"><ele>531.4</ele><time>2026-04-26T06:56:32.055Z</time></trkpt><trkpt lat="44.0212137" lon="7.982758"><ele>530.0</ele><time>2026-04-26T06:56:33.071Z</time></trkpt><trkpt lat="44.0212553" lon="7.9828359"><ele>530.0</ele><time>2026-04-26T06:56:34.012Z</time></trkpt><trkpt lat="44.0212889" lon="7.9829743"><ele>530.0</ele><time>2026-04-26T06:56:35.077Z</time></trkpt><trkpt lat="44.0213004" lon="7.9832582"><ele>530.0</ele><time>2026-04-26T06:56:37.163Z</time></trkpt><trkpt lat="44.0212687" lon="7.9833772"><ele>530.0</ele><time>2026-04-26T06:56:38.226Z</time></trkpt><trkpt lat="44.0211616" lon="7.9835886"><ele>527.25</ele><time>2026-04-26T06:56:39.943Z</time></trkpt><trkpt lat="44.0211134" lon="7.9837087"><ele>524.5</ele><time>2026-04-26T06:56:41.144Z</time></trkpt><trkpt lat="44.0211175" lon="7.9839367"><ele>521.75</ele><time>2026-04-26T06:56:43.11Z</time></trkpt><trkpt lat="44.0211446" lon="7.984074"><ele>519.0</ele><time>2026-04-26T06:56:44.011Z</time></trkpt><trkpt lat="44.021174" lon="7.9842498"><ele>516.3333333333334</ele><time>2026-04-26T06:56:45.107Z</time></trkpt><trkpt lat="44.021195" lon="7.9845591"><ele>513.6666666666667</ele><time>2026-04-26T06:56:47.058Z</time></trkpt><trkpt lat="44.0212359" lon="7.9847349"><ele>511.0</ele><time>2026-04-26T06:56:48.094Z</time></trkpt><trkpt lat="44.0213007" lon="7.984901"><ele>507.75</ele><time>2026-04-26T06:56:49.158Z</time></trkpt><trkpt lat="44.0213689" lon="7.9850683"><ele>504.5</ele><time>2026-04-26T06:56:50.207Z</time></trkpt><trkpt lat="44.0214227" lon="7.985236"><ele>501.25</ele><time>2026-04-26T06:56:51.225Z</time></trkpt><trkpt lat="44.0215007" lon="7.9854603"><ele>498.0</ele><time>2026-04-26T06:56:53.166Z</time></trkpt><trkpt lat="44.0215482" lon="7.9855627"><ele>498.0</ele><time>2026-04-26T06:56:54.161Z</time></trkpt><trkpt lat="44.0216095" lon="7.9856345"><ele>498.0</ele><time>2026-04-26T06:56:55.177Z</time></trkpt><trkpt lat="44.0217018" lon="7.9856915"><ele>498.0</ele><time>2026-04-26T06:56:56.145Z</time></trkpt><trkpt lat="44.0218818" lon="7.9858251"><ele>498.0</ele><time>2026-04-26T06:56:58.201Z</time></trkpt><trkpt lat="44.0220182" lon="7.9861027"><ele>498.66666666666663</ele><time>2026-04-26T06:57:00.222Z</time></trkpt><trkpt lat="44.0220445" lon="7.986384"><ele>499.3333333333333</ele><time>2026-04-26T06:57:02.107Z</time></trkpt><trkpt lat="44.0220128" lon="7.9865575"><ele>500.0</ele><time>2026-04-26T06:57:03.262Z</time></trkpt><trkpt lat="44.0219512" lon="7.9868407"><ele>500.0</ele><time>2026-04-26T06:57:05.188Z</time></trkpt><trkpt lat="44.0220384" lon="7.9872362"><ele>500.0</ele><time>2026-04-26T06:57:07.253Z</time></trkpt><trkpt lat="44.022191" lon="7.9875865"><ele>498.66666666666663</ele><time>2026-04-26T06:57:09.164Z</time></trkpt><trkpt lat="44.0222319" lon="7.9877652"><ele>497.33333333333337</ele><time>2026-04-26T06:57:10.144Z</time></trkpt><trkpt lat="44.0222419" lon="7.9879747"><ele>496.0</ele><time>2026-04-26T06:57:11.119Z</time></trkpt><trkpt lat="44.0222375" lon="7.9882441"><ele>495.0</ele><time>2026-04-26T06:57:12.298Z</time></trkpt><trkpt lat="44.022321" lon="7.988683"><ele>494.0</ele><time>2026-04-26T06:57:14.235Z</time></trkpt><trkpt lat="44.0224911" lon="7.9892154"><ele>494.0</ele><time>2026-04-26T06:57:16.249Z</time></trkpt><trkpt lat="44.0226286" lon="7.9896899"><ele>494.0</ele><time>2026-04-26T06:57:17.976Z</time></trkpt><trkpt lat="44.0227211" lon="7.9900132"><ele>486.0</ele><time>2026-04-26T06:57:19.205Z</time></trkpt><trkpt lat="44.0228528" lon="7.990477"><ele>478.0</ele><time>2026-04-26T06:57:21.13Z</time></trkpt><trkpt lat="44.0229193" lon="7.990719"><ele>475.33333333333337</ele><time>2026-04-26T06:57:22.262Z</time></trkpt><trkpt lat="44.0229894" lon="7.9910007"><ele>472.66666666666663</ele><time>2026-04-26T06:57:23.92Z</time></trkpt><trkpt lat="44.022996" lon="7.9911782"><ele>470.0</ele><time>2026-04-26T06:57:24.955Z</time></trkpt><trkpt lat="44.0229634" lon="7.9913472"><ele>470.0</ele><time>2026-04-26T06:57:25.956Z</time></trkpt><trkpt lat="44.0229114" lon="7.9915335"><ele>470.0</ele><time>2026-04-26T06:57:27.013Z</time></trkpt><trkpt lat="44.0228941" lon="7.9917245"><ele>470.0</ele><time>2026-04-26T06:57:27.984Z</time></trkpt><trkpt lat="44.0229306" lon="7.99216"><ele>468.75</ele><time>2026-04-26T06:57:29.96Z</time></trkpt><trkpt lat="44.0229485" lon="7.9923672"><ele>467.5</ele><time>2026-04-26T06:57:31.016Z</time></trkpt><trkpt lat="44.0229584" lon="7.9925117"><ele>466.25</ele><time>2026-04-26T06:57:31.926Z</time></trkpt><trkpt lat="44.0229723" lon="7.9926595"><ele>465.0</ele><time>2026-04-26T06:57:32.949Z</time></trkpt><trkpt lat="44.0229992" lon="7.992783"><ele>464.4</ele><time>2026-04-26T06:57:33.972Z</time></trkpt><trkpt lat="44.0230508" lon="7.9928611"><ele>463.8</ele><time>2026-04-26T06:57:34.949Z</time></trkpt><trkpt lat="44.0231131" lon="7.9928753"><ele>463.20000000000005</ele><time>2026-04-26T06:57:35.856Z</time></trkpt><trkpt lat="44.0232338" lon="7.9928482"><ele>462.6</ele><time>2026-04-26T06:57:37.018Z</time></trkpt><trkpt lat="44.0233509" lon="7.992774"><ele>462.0</ele><time>2026-04-26T06:57:37.971Z</time></trkpt><trkpt lat="44.0234618" lon="7.9927018"><ele>462.0</ele><time>2026-04-26T06:57:38.876Z</time></trkpt><trkpt lat="44.0236036" lon="7.992605"><ele>462.0</ele><time>2026-04-26T06:57:39.974Z</time></trkpt><trkpt lat="44.0237092" lon="7.9925173"><ele>462.0</ele><time>2026-04-26T06:57:40.961Z</time></trkpt><trkpt lat="44.0238157" lon="7.9924352"><ele>462.0</ele><time>2026-04-26T06:57:41.929Z</time></trkpt><trkpt lat="44.0239292" lon="7.9923633"><ele>465.0</ele><time>2026-04-26T06:57:42.913Z</time></trkpt><trkpt lat="44.0240774" lon="7.9923327"><ele>468.0</ele><time>2026-04-26T06:57:43.985Z</time></trkpt><trkpt lat="44.0242114" lon="7.992323"><ele>471.0</ele><time>2026-04-26T06:57:44.95Z</time></trkpt><trkpt lat="44.0243397" lon="7.9923208"><ele>474.0</ele><time>2026-04-26T06:57:45.949Z</time></trkpt><trkpt lat="44.024464" lon="7.9922974"><ele>474.0</ele><time>2026-04-26T06:57:46.995Z</time></trkpt><trkpt lat="44.0245752" lon="7.9922376"><ele>474.0</ele><time>2026-04-26T06:57:48.019Z</time></trkpt><trkpt lat="44.0246974" lon="7.9921491"><ele>474.0</ele><time>2026-04-26T06:57:48.979Z</time></trkpt><trkpt lat="44.0248303" lon="7.9920056"><ele>474.0</ele><time>2026-04-26T06:57:50.062Z</time></trkpt><trkpt lat="44.0249457" lon="7.991899"><ele>469.0</ele><time>2026-04-26T06:57:51.041Z</time></trkpt><trkpt lat="44.0250682" lon="7.9918236"><ele>464.0</ele><time>2026-04-26T06:57:52.074Z</time></trkpt><trkpt lat="44.0252032" lon="7.991792"><ele>459.0</ele><time>2026-04-26T06:57:53.056Z</time></trkpt><trkpt lat="44.0253629" lon="7.9917684"><ele>454.0</ele><time>2026-04-26T06:57:54.108Z</time></trkpt><trkpt lat="44.0255192" lon="7.9917441"><ele>454.0</ele><time>2026-04-26T06:57:55.092Z</time></trkpt><trkpt lat="44.0256629" lon="7.9917224"><ele>454.0</ele><time>2026-04-26T06:57:56.061Z</time></trkpt><trkpt lat="44.0257927" lon="7.9917179"><ele>454.0</ele><time>2026-04-26T06:57:57.141Z</time></trkpt><trkpt lat="44.0260152" lon="7.9918165"><ele>451.0</ele><time>2026-04-26T06:57:59.09Z</time></trkpt><trkpt lat="44.0261061" lon="7.9919021"><ele>448.0</ele><time>2026-04-26T06:58:00.012Z</time></trkpt><trkpt lat="44.0262035" lon="7.991986"><ele>445.0</ele><time>2026-04-26T06:58:01.077Z</time></trkpt><trkpt lat="44.0264241" lon="7.992034"><ele>442.0</ele><time>2026-04-26T06:58:03.038Z</time></trkpt><trkpt lat="44.0266948" lon="7.9919278"><ele>442.0</ele><time>2026-04-26T06:58:05.024Z</time></trkpt><trkpt lat="44.0267948" lon="7.9919023"><ele>442.00000000000006</ele><time>2026-04-26T06:58:05.932Z</time></trkpt><trkpt lat="44.0269013" lon="7.9918872"><ele>442.00000000000006</ele><time>2026-04-26T06:58:07.002Z</time></trkpt><trkpt lat="44.026986" lon="7.9919069"><ele>442.0</ele><time>2026-04-26T06:58:08.01Z</time></trkpt><trkpt lat="44.0270611" lon="7.991954"><ele>442.0</ele><time>2026-04-26T06:58:09.082Z</time></trkpt><trkpt lat="44.0271515" lon="7.9921597"><ele>442.0</ele><time>2026-04-26T06:58:11.064Z</time></trkpt><trkpt lat="44.0270827" lon="7.9924977"><ele>442.0</ele><time>2026-04-26T06:58:13.114Z</time></trkpt><trkpt lat="44.0269654" lon="7.9928183"><ele>441.0</ele><time>2026-04-26T06:58:15.094Z</time></trkpt><trkpt lat="44.0269079" lon="7.9929951"><ele>440.0</ele><time>2026-04-26T06:58:16.13Z</time></trkpt><trkpt lat="44.0268394" lon="7.9933865"><ele>439.0</ele><time>2026-04-26T06:58:18.153Z</time></trkpt><trkpt lat="44.026827" lon="7.9938069"><ele>439.0</ele><time>2026-04-26T06:58:20.072Z</time></trkpt><trkpt lat="44.0268022" lon="7.9941534"><ele>439.0</ele><time>2026-04-26T06:58:22.062Z</time></trkpt><trkpt lat="44.0267595" lon="7.9943055"><ele>439.0</ele><time>2026-04-26T06:58:23.077Z</time></trkpt><trkpt lat="44.0267092" lon="7.9944407"><ele>441.25</ele><time>2026-04-26T06:58:23.987Z</time></trkpt><trkpt lat="44.026651" lon="7.9946168"><ele>443.5</ele><time>2026-04-26T06:58:25.102Z</time></trkpt><trkpt lat="44.0266134" lon="7.9948053"><ele>445.75</ele><time>2026-04-26T06:58:26.195Z</time></trkpt><trkpt lat="44.0266106" lon="7.9949186"><ele>448.0</ele><time>2026-04-26T06:58:26.853Z</time></trkpt><trkpt lat="44.0265743" lon="7.9951011"><ele>441.33333333333337</ele><time>2026-04-26T06:58:27.942Z</time></trkpt><trkpt lat="44.0264932" lon="7.9952888"><ele>434.66666666666663</ele><time>2026-04-26T06:58:29.105Z</time></trkpt><trkpt lat="44.0263309" lon="7.9956067"><ele>428.0</ele><time>2026-04-26T06:58:31.045Z</time></trkpt><trkpt lat="44.0261888" lon="7.9959882"><ele>428.0</ele><time>2026-04-26T06:58:33.083Z</time></trkpt><trkpt lat="44.026125" lon="7.9961415"><ele>428.0</ele><time>2026-04-26T06:58:33.999Z</time></trkpt><trkpt lat="44.0260479" lon="7.9962955"><ele>428.0</ele><time>2026-04-26T06:58:35.101Z</time></trkpt><trkpt lat="44.0259816" lon="7.9964023"><ele>428.0</ele><time>2026-04-26T06:58:36.001Z</time></trkpt><trkpt lat="44.0259154" lon="7.996501"><ele>428.0</ele><time>2026-04-26T06:58:36.935Z</time></trkpt><trkpt lat="44.0258564" lon="7.9966136"><ele>427.99999999999994</ele><time>2026-04-26T06:58:38.029Z</time></trkpt><trkpt lat="44.025834" lon="7.9967376"><ele>427.99999999999994</ele><time>2026-04-26T06:58:39.083Z</time></trkpt><trkpt lat="44.0258684" lon="7.9968807"><ele>428.0</ele><time>2026-04-26T06:58:40.038Z</time></trkpt><trkpt lat="44.0259284" lon="7.9970553"><ele>428.0</ele><time>2026-04-26T06:58:41.101Z</time></trkpt><trkpt lat="44.0260507" lon="7.9972956"><ele>428.16666666666663</ele><time>2026-04-26T06:58:42.984Z</time></trkpt><trkpt lat="44.0261059" lon="7.9973935"><ele>428.3333333333333</ele><time>2026-04-26T06:58:44.023Z</time></trkpt><trkpt lat="44.0261253" lon="7.9974918"><ele>428.5</ele><time>2026-04-26T06:58:45.041Z</time></trkpt><trkpt lat="44.0261069" lon="7.9975917"><ele>428.66666666666663</ele><time>2026-04-26T06:58:46.018Z</time></trkpt><trkpt lat="44.0260555" lon="7.9976887"><ele>428.8333333333333</ele><time>2026-04-26T06:58:47Z</time></trkpt><trkpt lat="44.0259557" lon="7.9977824"><ele>429.0</ele><time>2026-04-26T06:58:48.11Z</time></trkpt><trkpt lat="44.0257244" lon="7.9979504"><ele>425.75</ele><time>2026-04-26T06:58:50.023Z</time></trkpt><trkpt lat="44.0256011" lon="7.9980354"><ele>422.5</ele><time>2026-04-26T06:58:51.01Z</time></trkpt><trkpt lat="44.0254703" lon="7.9981212"><ele>419.25</ele><time>2026-04-26T06:58:52.087Z</time></trkpt><trkpt lat="44.0253699" lon="7.9981842"><ele>416.0</ele><time>2026-04-26T06:58:52.993Z</time></trkpt><trkpt lat="44.0252478" lon="7.9982717"><ele>419.66666666666663</ele><time>2026-04-26T06:58:54.182Z</time></trkpt><trkpt lat="44.0250815" lon="7.9984861"><ele>423.33333333333337</ele><time>2026-04-26T06:58:56.041Z</time></trkpt><trkpt lat="44.0249912" lon="7.9986477"><ele>427.0</ele><time>2026-04-26T06:58:57.188Z</time></trkpt><trkpt lat="44.0248774" lon="7.9988827"><ele>422.6</ele><time>2026-04-26T06:58:59.014Z</time></trkpt><trkpt lat="44.0248189" lon="7.9989925"><ele>418.20000000000005</ele><time>2026-04-26T06:59:00.041Z</time></trkpt><trkpt lat="44.0247683" lon="7.9990831"><ele>413.8</ele><time>2026-04-26T06:59:01.173Z</time></trkpt><trkpt lat="44.0247472" lon="7.9992082"><ele>409.4</ele><time>2026-04-26T06:59:03.086Z</time></trkpt><trkpt lat="44.0248463" lon="7.9993252"><ele>405.0</ele><time>2026-04-26T06:59:05.195Z</time></trkpt><trkpt lat="44.025017" lon="7.9992882"><ele>403.5</ele><time>2026-04-26T06:59:07.183Z</time></trkpt><trkpt lat="44.0251243" lon="7.9993154"><ele>402.0</ele><time>2026-04-26T06:59:08.309Z</time></trkpt><trkpt lat="44.0252997" lon="7.9994427"><ele>400.5</ele><time>2026-04-26T06:59:10.111Z</time></trkpt><trkpt lat="44.025382" lon="7.999567"><ele>399.0</ele><time>2026-04-26T06:59:11.271Z</time></trkpt><trkpt lat="44.0255074" lon="7.9997912"><ele>399.0</ele><time>2026-04-26T06:59:13.189Z</time></trkpt><trkpt lat="44.0255778" lon="8.0000704"><ele>399.0</ele><time>2026-04-26T06:59:15.157Z</time></trkpt><trkpt lat="44.0256356" lon="8.00037"><ele>399.0</ele><time>2026-04-26T06:59:17.153Z</time></trkpt><trkpt lat="44.025699" lon="8.0005983"><ele>399.0</ele><time>2026-04-26T06:59:19.033Z</time></trkpt><trkpt lat="44.0257267" lon="8.000702"><ele>399.0</ele><time>2026-04-26T06:59:20.089Z</time></trkpt><trkpt lat="44.0257431" lon="8.0007944"><ele>399.0</ele><time>2026-04-26T06:59:21.001Z</time></trkpt><trkpt lat="44.0257355" lon="8.0008939"><ele>399.0</ele><time>2026-04-26T06:59:22.061Z</time></trkpt><trkpt lat="44.0256973" lon="8.0009751"><ele>399.0</ele><time>2026-04-26T06:59:23.021Z</time></trkpt><trkpt lat="44.0256301" lon="8.0010373"><ele>399.0</ele><time>2026-04-26T06:59:24.054Z</time></trkpt><trkpt lat="44.025552" lon="8.0010819"><ele>395.6</ele><time>2026-04-26T06:59:25.062Z</time></trkpt><trkpt lat="44.0254666" lon="8.0011513"><ele>392.2</ele><time>2026-04-26T06:59:26.043Z</time></trkpt><trkpt lat="44.0253826" lon="8.0012472"><ele>388.8</ele><time>2026-04-26T06:59:27.035Z</time></trkpt><trkpt lat="44.0252993" lon="8.0013641"><ele>385.40000000000003</ele><time>2026-04-26T06:59:28.094Z</time></trkpt><trkpt lat="44.025234" lon="8.0014661"><ele>382.0</ele><time>2026-04-26T06:59:29.091Z</time></trkpt><trkpt lat="44.0251869" lon="8.0015885"><ele>384.25</ele><time>2026-04-26T06:59:30.151Z</time></trkpt><trkpt lat="44.0251589" lon="8.0017293"><ele>386.5</ele><time>2026-04-26T06:59:31.155Z</time></trkpt><trkpt lat="44.0251512" lon="8.0019062"><ele>388.75</ele><time>2026-04-26T06:59:32.206Z</time></trkpt><trkpt lat="44.0251352" lon="8.0020622"><ele>391.0</ele><time>2026-04-26T06:59:33.108Z</time></trkpt><trkpt lat="44.0250707" lon="8.0023789"><ele>392.20000000000005</ele><time>2026-04-26T06:59:35.108Z</time></trkpt><trkpt lat="44.0250387" lon="8.002509"><ele>393.40000000000003</ele><time>2026-04-26T06:59:36.123Z</time></trkpt><trkpt lat="44.0250159" lon="8.0026091"><ele>394.6</ele><time>2026-04-26T06:59:37.084Z</time></trkpt><trkpt lat="44.0250079" lon="8.0027182"><ele>395.8</ele><time>2026-04-26T06:59:38.215Z</time></trkpt><trkpt lat="44.0250892" lon="8.0029194"><ele>397.0</ele><time>2026-04-26T06:59:40.054Z</time></trkpt><trkpt lat="44.0251639" lon="8.0030517"><ele>397.0</ele><time>2026-04-26T06:59:41.146Z</time></trkpt><trkpt lat="44.0252281" lon="8.0031939"><ele>397.0</ele><time>2026-04-26T06:59:42.064Z</time></trkpt><trkpt lat="44.0253111" lon="8.0033741"><ele>397.0</ele><time>2026-04-26T06:59:43.169Z</time></trkpt><trkpt lat="44.025395" lon="8.0035393"><ele>397.0</ele><time>2026-04-26T06:59:44.208Z</time></trkpt><trkpt lat="44.0255248" lon="8.003873"><ele>394.6666666666667</ele><time>2026-04-26T06:59:46.185Z</time></trkpt><trkpt lat="44.025623" lon="8.0041595"><ele>392.33333333333337</ele><time>2026-04-26T06:59:48.166Z</time></trkpt><trkpt lat="44.0256844" lon="8.0043736"><ele>390.0</ele><time>2026-04-26T06:59:50.058Z</time></trkpt><trkpt lat="44.0256771" lon="8.0044785"><ele>387.5</ele><time>2026-04-26T06:59:51.077Z</time></trkpt><trkpt lat="44.0256342" lon="8.0045733"><ele>385.0</ele><time>2026-04-26T06:59:52.045Z</time></trkpt><trkpt lat="44.0255494" lon="8.0046594"><ele>382.5</ele><time>2026-04-26T06:59:53.12Z</time></trkpt><trkpt lat="44.0253142" lon="8.0048095"><ele>380.0</ele><time>2026-04-26T06:59:55.156Z</time></trkpt><trkpt lat="44.0252146" lon="8.0048909"><ele>380.0</ele><time>2026-04-26T06:59:56.122Z</time></trkpt><trkpt lat="44.0250225" lon="8.0049935"><ele>380.0</ele><time>2026-04-26T06:59:58.12Z</time></trkpt><trkpt lat="44.0248414" lon="8.0049676"><ele>380.0</ele><time>2026-04-26T07:00:00.115Z</time></trkpt><trkpt lat="44.0247645" lon="8.0049764"><ele>377.75</ele><time>2026-04-26T07:00:01.087Z</time></trkpt><trkpt lat="44.024695" lon="8.0050218"><ele>375.5</ele><time>2026-04-26T07:00:02.02Z</time></trkpt><trkpt lat="44.0246234" lon="8.005104"><ele>373.25</ele><time>2026-04-26T07:00:03.183Z</time></trkpt><trkpt lat="44.0245792" lon="8.0052261"><ele>371.0</ele><time>2026-04-26T07:00:04.111Z</time></trkpt><trkpt lat="44.0246161" lon="8.0055694"><ele>371.6666666666667</ele><time>2026-04-26T07:00:06.148Z</time></trkpt><trkpt lat="44.0246559" lon="8.0058808"><ele>372.3333333333333</ele><time>2026-04-26T07:00:08.216Z</time></trkpt><trkpt lat="44.0246968" lon="8.0060293"><ele>373.0</ele><time>2026-04-26T07:00:09.118Z</time></trkpt><trkpt lat="44.0247632" lon="8.0062135"><ele>373.0</ele><time>2026-04-26T07:00:10.253Z</time></trkpt><trkpt lat="44.0248611" lon="8.0065465"><ele>373.0</ele><time>2026-04-26T07:00:12.186Z</time></trkpt><trkpt lat="44.0248887" lon="8.0067019"><ele>373.0</ele><time>2026-04-26T07:00:13.153Z</time></trkpt><trkpt lat="44.0248987" lon="8.0068486"><ele>369.0</ele><time>2026-04-26T07:00:14.058Z</time></trkpt><trkpt lat="44.0249378" lon="8.0070113"><ele>365.0</ele><time>2026-04-26T07:00:15.094Z</time></trkpt><trkpt lat="44.0250122" lon="8.0071707"><ele>361.0</ele><time>2026-04-26T07:00:16.181Z</time></trkpt><trkpt lat="44.0250823" lon="8.007306"><ele>357.0</ele><time>2026-04-26T07:00:17.15Z</time></trkpt><trkpt lat="44.0251439" lon="8.0074561"><ele>364.5</ele><time>2026-04-26T07:00:18.15Z</time></trkpt><trkpt lat="44.0251864" lon="8.007598"><ele>372.0</ele><time>2026-04-26T07:00:19.069Z</time></trkpt><trkpt lat="44.0252067" lon="8.0077755"><ele>379.5</ele><time>2026-04-26T07:00:20.122Z</time></trkpt><trkpt lat="44.025195" lon="8.0079655"><ele>387.0</ele><time>2026-04-26T07:00:21.145Z</time></trkpt><trkpt lat="44.0251808" lon="8.008249"><ele>385.20000000000005</ele><time>2026-04-26T07:00:23.084Z</time></trkpt><trkpt lat="44.0251919" lon="8.0083687"><ele>383.4</ele><time>2026-04-26T07:00:24.085Z</time></trkpt><trkpt lat="44.0252219" lon="8.0084515"><ele>381.6</ele><time>2026-04-26T07:00:25.142Z</time></trkpt><trkpt lat="44.025272" lon="8.0085102"><ele>379.79999999999995</ele><time>2026-04-26T07:00:26.164Z</time></trkpt><trkpt lat="44.0253645" lon="8.0085547"><ele>378.0</ele><time>2026-04-26T07:00:27.094Z</time></trkpt><trkpt lat="44.0255009" lon="8.008594"><ele>378.0</ele><time>2026-04-26T07:00:28.14Z</time></trkpt><trkpt lat="44.0256429" lon="8.0086418"><ele>378.0</ele><time>2026-04-26T07:00:29.264Z</time></trkpt><trkpt lat="44.0258847" lon="8.0086809"><ele>378.0</ele><time>2026-04-26T07:00:31.211Z</time></trkpt><trkpt lat="44.0259941" lon="8.0086647"><ele>384.25</ele><time>2026-04-26T07:00:32.152Z</time></trkpt><trkpt lat="44.0261388" lon="8.0085726"><ele>390.5</ele><time>2026-04-26T07:00:33.16Z</time></trkpt><trkpt lat="44.0262629" lon="8.0085492"><ele>396.75</ele><time>2026-04-26T07:00:34.094Z</time></trkpt><trkpt lat="44.0263811" lon="8.0085485"><ele>403.0</ele><time>2026-04-26T07:00:35.101Z</time></trkpt><trkpt lat="44.0264804" lon="8.0085783"><ele>403.0</ele><time>2026-04-26T07:00:36.044Z</time></trkpt><trkpt lat="44.0265867" lon="8.0086377"><ele>403.0</ele><time>2026-04-26T07:00:37.094Z</time></trkpt><trkpt lat="44.0266797" lon="8.0086976"><ele>403.0</ele><time>2026-04-26T07:00:38.219Z</time></trkpt><trkpt lat="44.0268304" lon="8.0087263"><ele>403.0</ele><time>2026-04-26T07:00:40.11Z</time></trkpt><trkpt lat="44.0270507" lon="8.0086544"><ele>405.75</ele><time>2026-04-26T07:00:42.078Z</time></trkpt><trkpt lat="44.0271477" lon="8.0086181"><ele>408.5</ele><time>2026-04-26T07:00:43.065Z</time></trkpt><trkpt lat="44.0272305" lon="8.0085808"><ele>411.25</ele><time>2026-04-26T07:00:44.21Z</time></trkpt><trkpt lat="44.0273347" lon="8.0085957"><ele>414.0</ele><time>2026-04-26T07:00:46.004Z</time></trkpt><trkpt lat="44.0273198" lon="8.0088532"><ele>414.0</ele><time>2026-04-26T07:00:49.037Z</time></trkpt><trkpt lat="44.0272752" lon="8.0089764"><ele>414.0</ele><time>2026-04-26T07:00:49.978Z</time></trkpt><trkpt lat="44.0272202" lon="8.0091452"><ele>414.0</ele><time>2026-04-26T07:00:51.058Z</time></trkpt><trkpt lat="44.0271303" lon="8.009479"><ele>402.0</ele><time>2026-04-26T07:00:53.002Z</time></trkpt><trkpt lat="44.0270712" lon="8.0096775"><ele>390.0</ele><time>2026-04-26T07:00:54.123Z</time></trkpt><trkpt lat="44.0270058" lon="8.0098402"><ele>378.0</ele><time>2026-04-26T07:00:55.098Z</time></trkpt><trkpt lat="44.0268612" lon="8.0101245"><ele>376.0</ele><time>2026-04-26T07:00:57.099Z</time></trkpt><trkpt lat="44.0267988" lon="8.0102432"><ele>374.0</ele><time>2026-04-26T07:00:58.082Z</time></trkpt><trkpt lat="44.0267428" lon="8.0103665"><ele>372.0</ele><time>2026-04-26T07:00:59.202Z</time></trkpt><trkpt lat="44.0267307" lon="8.0105577"><ele>370.0</ele><time>2026-04-26T07:01:01.061Z</time></trkpt><trkpt lat="44.0267742" lon="8.0106537"><ele>368.0</ele><time>2026-04-26T07:01:02.222Z</time></trkpt><trkpt lat="44.0269708" lon="8.0107408"><ele>368.0</ele><time>2026-04-26T07:01:04.202Z</time></trkpt><trkpt lat="44.0271734" lon="8.0108246"><ele>368.0</ele><time>2026-04-26T07:01:06.22Z</time></trkpt><trkpt lat="44.0272943" lon="8.010931"><ele>368.0</ele><time>2026-04-26T07:01:08.082Z</time></trkpt><trkpt lat="44.0273248" lon="8.0110379"><ele>368.0</ele><time>2026-04-26T07:01:09.19Z</time></trkpt><trkpt lat="44.0272689" lon="8.0112551"><ele>368.0</ele><time>2026-04-26T07:01:11.051Z</time></trkpt><trkpt lat="44.0272134" lon="8.0114007"><ele>368.0</ele><time>2026-04-26T07:01:12.112Z</time></trkpt><trkpt lat="44.0271715" lon="8.0115572"><ele>368.0</ele><time>2026-04-26T07:01:13.054Z</time></trkpt><trkpt lat="44.0271325" lon="8.0117496"><ele>368.0</ele><time>2026-04-26T07:01:14.139Z</time></trkpt><trkpt lat="44.0271071" lon="8.0119305"><ele>366.0</ele><time>2026-04-26T07:01:15.093Z</time></trkpt><trkpt lat="44.0270782" lon="8.0121387"><ele>364.0</ele><time>2026-04-26T07:01:16.105Z</time></trkpt><trkpt lat="44.027051" lon="8.0123278"><ele>362.0</ele><time>2026-04-26T07:01:17.083Z</time></trkpt><trkpt lat="44.0270241" lon="8.0125105"><ele>360.0</ele><time>2026-04-26T07:01:18.141Z</time></trkpt><trkpt lat="44.0269734" lon="8.0127917"><ele>360.0</ele><time>2026-04-26T07:01:20.127Z</time></trkpt><trkpt lat="44.026971" lon="8.0129127"><ele>360.0</ele><time>2026-04-26T07:01:21.097Z</time></trkpt><trkpt lat="44.0270452" lon="8.0131945"><ele>360.0</ele><time>2026-04-26T07:01:23.096Z</time></trkpt><trkpt lat="44.0271062" lon="8.0133517"><ele>360.0</ele><time>2026-04-26T07:01:24.076Z</time></trkpt><trkpt lat="44.0271776" lon="8.01355"><ele>358.3333333333333</ele><time>2026-04-26T07:01:25.228Z</time></trkpt><trkpt lat="44.027319" lon="8.0138182"><ele>356.66666666666663</ele><time>2026-04-26T07:01:27.026Z</time></trkpt><trkpt lat="44.0274182" lon="8.013946"><ele>355.0</ele><time>2026-04-26T07:01:28.068Z</time></trkpt><trkpt lat="44.0275501" lon="8.0140647"><ele>363.0</ele><time>2026-04-26T07:01:29.198Z</time></trkpt><trkpt lat="44.0277369" lon="8.0142844"><ele>371.0</ele><time>2026-04-26T07:01:31.181Z</time></trkpt><trkpt lat="44.0279077" lon="8.0145003"><ele>371.0</ele><time>2026-04-26T07:01:33.139Z</time></trkpt><trkpt lat="44.0280102" lon="8.0145593"><ele>371.0</ele><time>2026-04-26T07:01:34.068Z</time></trkpt><trkpt lat="44.0281242" lon="8.0146171"><ele>371.0</ele><time>2026-04-26T07:01:35.299Z</time></trkpt><trkpt lat="44.0282455" lon="8.0147418"><ele>371.0</ele><time>2026-04-26T07:01:37.173Z</time></trkpt><trkpt lat="44.0282677" lon="8.015035"><ele>353.5</ele><time>2026-04-26T07:01:39.051Z</time></trkpt><trkpt lat="44.0282062" lon="8.0154082"><ele>336.0</ele><time>2026-04-26T07:01:41.134Z</time></trkpt><trkpt lat="44.0281476" lon="8.0156972"><ele>332.75</ele><time>2026-04-26T07:01:43.1Z</time></trkpt><trkpt lat="44.0281471" lon="8.0159341"><ele>329.5</ele><time>2026-04-26T07:01:45.011Z</time></trkpt><trkpt lat="44.0282551" lon="8.016143"><ele>326.25</ele><time>2026-04-26T07:01:47.099Z</time></trkpt><trkpt lat="44.0283285" lon="8.0161765"><ele>323.0</ele><time>2026-04-26T07:01:48.107Z</time></trkpt><trkpt lat="44.028415" lon="8.0161616"><ele>336.0</ele><time>2026-04-26T07:01:49.017Z</time></trkpt><trkpt lat="44.0285374" lon="8.0160829"><ele>349.0</ele><time>2026-04-26T07:01:50.118Z</time></trkpt><trkpt lat="44.0287598" lon="8.0159564"><ele>362.0</ele><time>2026-04-26T07:01:52.014Z</time></trkpt><trkpt lat="44.0289033" lon="8.0159131"><ele>381.0</ele><time>2026-04-26T07:01:53.173Z</time></trkpt><trkpt lat="44.0291514" lon="8.0157626"><ele>400.0</ele><time>2026-04-26T07:01:55.137Z</time></trkpt><trkpt lat="44.0293287" lon="8.0155795"><ele>400.0</ele><time>2026-04-26T07:01:57.033Z</time></trkpt><trkpt lat="44.0294257" lon="8.0154908"><ele>400.0</ele><time>2026-04-26T07:01:58.103Z</time></trkpt><trkpt lat="44.0296406" lon="8.0154371"><ele>400.0</ele><time>2026-04-26T07:02:00.187Z</time></trkpt><trkpt lat="44.0297954" lon="8.0153626"><ele>400.0</ele><time>2026-04-26T07:02:02.052Z</time></trkpt><trkpt lat="44.0299079" lon="8.0152225"><ele>400.0</ele><time>2026-04-26T07:02:03.133Z</time></trkpt><trkpt lat="44.0299942" lon="8.0150969"><ele>400.0</ele><time>2026-04-26T07:02:04.096Z</time></trkpt><trkpt lat="44.0302473" lon="8.0149758"><ele>408.0</ele><time>2026-04-26T07:02:06.156Z</time></trkpt><trkpt lat="44.0304783" lon="8.0149382"><ele>416.0</ele><time>2026-04-26T07:02:07.966Z</time></trkpt><trkpt lat="44.0306155" lon="8.0148725"><ele>424.0</ele><time>2026-04-26T07:02:09.061Z</time></trkpt><trkpt lat="44.0307253" lon="8.0147846"><ele>417.75</ele><time>2026-04-26T07:02:09.967Z</time></trkpt><trkpt lat="44.0308661" lon="8.0146871"><ele>411.5</ele><time>2026-04-26T07:02:11.099Z</time></trkpt><trkpt lat="44.0309809" lon="8.0146195"><ele>405.25</ele><time>2026-04-26T07:02:12.091Z</time></trkpt><trkpt lat="44.0310805" lon="8.0145402"><ele>399.0</ele><time>2026-04-26T07:02:13.085Z</time></trkpt><trkpt lat="44.0311492" lon="8.0144661"><ele>399.0</ele><time>2026-04-26T07:02:14.03Z</time></trkpt><trkpt lat="44.0312141" lon="8.0144065"><ele>399.0</ele><time>2026-04-26T07:02:15.03Z</time></trkpt><trkpt lat="44.0312872" lon="8.0143833"><ele>399.0</ele><time>2026-04-26T07:02:16.09Z</time></trkpt><trkpt lat="44.0313599" lon="8.0143998"><ele>399.0</ele><time>2026-04-26T07:02:17.009Z</time></trkpt><trkpt lat="44.0314321" lon="8.0144648"><ele>399.0</ele><time>2026-04-26T07:02:18.153Z</time></trkpt><trkpt lat="44.0314543" lon="8.0147064"><ele>399.0</ele><time>2026-04-26T07:02:20.282Z</time></trkpt><trkpt lat="44.0314091" lon="8.0149861"><ele>399.0</ele><time>2026-04-26T07:02:22.007Z</time></trkpt><trkpt lat="44.0313515" lon="8.0151714"><ele>399.0</ele><time>2026-04-26T07:02:23.183Z</time></trkpt><trkpt lat="44.0312455" lon="8.015484"><ele>389.5</ele><time>2026-04-26T07:02:25.069Z</time></trkpt><trkpt lat="44.0311858" lon="8.0157678"><ele>380.0</ele><time>2026-04-26T07:02:27.016Z</time></trkpt><trkpt lat="44.0311895" lon="8.0159032"><ele>370.5</ele><time>2026-04-26T07:02:28.017Z</time></trkpt><trkpt lat="44.0312107" lon="8.0160341"><ele>361.0</ele><time>2026-04-26T07:02:29.018Z</time></trkpt><trkpt lat="44.0311971" lon="8.0163112"><ele>356.5</ele><time>2026-04-26T07:02:31.091Z</time></trkpt><trkpt lat="44.0310464" lon="8.0165401"><ele>352.0</ele><time>2026-04-26T07:02:33.216Z</time></trkpt><trkpt lat="44.030848" lon="8.0167733"><ele>342.3333333333333</ele><time>2026-04-26T07:02:35.153Z</time></trkpt><trkpt lat="44.0307511" lon="8.0170534"><ele>332.6666666666667</ele><time>2026-04-26T07:02:37.016Z</time></trkpt><trkpt lat="44.0307022" lon="8.0172289"><ele>323.0</ele><time>2026-04-26T07:02:38.105Z</time></trkpt><trkpt lat="44.0306596" lon="8.0173615"><ele>322.59999999999997</ele><time>2026-04-26T07:02:39.041Z</time></trkpt><trkpt lat="44.0306223" lon="8.017511"><ele>322.2</ele><time>2026-04-26T07:02:40.089Z</time></trkpt><trkpt lat="44.0306108" lon="8.0176458"><ele>321.8</ele><time>2026-04-26T07:02:41.076Z</time></trkpt><trkpt lat="44.0306202" lon="8.0178038"><ele>321.4</ele><time>2026-04-26T07:02:42.109Z</time></trkpt><trkpt lat="44.0306541" lon="8.0179206"><ele>321.0</ele><time>2026-04-26T07:02:43.022Z</time></trkpt><trkpt lat="44.0307039" lon="8.0180481"><ele>321.0</ele><time>2026-04-26T07:02:44.147Z</time></trkpt><trkpt lat="44.0306726" lon="8.0183063"><ele>321.0</ele><time>2026-04-26T07:02:46.048Z</time></trkpt><trkpt lat="44.0306007" lon="8.0184459"><ele>321.0</ele><time>2026-04-26T07:02:47.052Z</time></trkpt><trkpt lat="44.0305031" lon="8.0186171"><ele>325.0</ele><time>2026-04-26T07:02:48.143Z</time></trkpt><trkpt lat="44.0303111" lon="8.0189485"><ele>329.0</ele><time>2026-04-26T07:02:50.16Z</time></trkpt><trkpt lat="44.0301625" lon="8.0192201"><ele>328.25</ele><time>2026-04-26T07:02:51.947Z</time></trkpt><trkpt lat="44.0300771" lon="8.0193831"><ele>327.5</ele><time>2026-04-26T07:02:52.965Z</time></trkpt><trkpt lat="44.0299957" lon="8.0195669"><ele>326.75</ele><time>2026-04-26T07:02:54.05Z</time></trkpt><trkpt lat="44.0299292" lon="8.0197464"><ele>326.0</ele><time>2026-04-26T07:02:55.163Z</time></trkpt><trkpt lat="44.029757" lon="8.0200329"><ele>326.0</ele><time>2026-04-26T07:02:57.271Z</time></trkpt><trkpt lat="44.0296012" lon="8.020195"><ele>326.0</ele><time>2026-04-26T07:02:58.989Z</time></trkpt><trkpt lat="44.0295213" lon="8.0202824"><ele>326.0</ele><time>2026-04-26T07:03:00.151Z</time></trkpt><trkpt lat="44.0294757" lon="8.020343"><ele>326.0</ele><time>2026-04-26T07:03:01.14Z</time></trkpt><trkpt lat="44.0294236" lon="8.0204947"><ele>326.0</ele><time>2026-04-26T07:03:03.198Z</time></trkpt><trkpt lat="44.029511" lon="8.0206971"><ele>326.0</ele><time>2026-04-26T07:03:05.235Z</time></trkpt><trkpt lat="44.0296607" lon="8.0208982"><ele>326.0</ele><time>2026-04-26T07:03:07.001Z</time></trkpt><trkpt lat="44.029815" lon="8.021118"><ele>328.4</ele><time>2026-04-26T07:03:08.916Z</time></trkpt><trkpt lat="44.0298907" lon="8.0212224"><ele>330.8</ele><time>2026-04-26T07:03:09.877Z</time></trkpt><trkpt lat="44.0299623" lon="8.0213149"><ele>333.2</ele><time>2026-04-26T07:03:10.85Z</time></trkpt><trkpt lat="44.0300329" lon="8.0213951"><ele>335.59999999999997</ele><time>2026-04-26T07:03:11.89Z</time></trkpt><trkpt lat="44.0301192" lon="8.0214536"><ele>338.0</ele><time>2026-04-26T07:03:12.948Z</time></trkpt><trkpt lat="44.0302111" lon="8.0214807"><ele>340.33333333333337</ele><time>2026-04-26T07:03:13.958Z</time></trkpt><trkpt lat="44.0303678" lon="8.0215246"><ele>342.6666666666667</ele><time>2026-04-26T07:03:15.163Z</time></trkpt><trkpt lat="44.0305799" lon="8.021688"><ele>345.0</ele><time>2026-04-26T07:03:17.068Z</time></trkpt><trkpt lat="44.0306709" lon="8.0217625"><ele>345.0</ele><time>2026-04-26T07:03:18.006Z</time></trkpt><trkpt lat="44.030762" lon="8.0218432"><ele>345.0</ele><time>2026-04-26T07:03:19.086Z</time></trkpt><trkpt lat="44.0308182" lon="8.0218987"><ele>345.0</ele><time>2026-04-26T07:03:20.025Z</time></trkpt><trkpt lat="44.0309249" lon="8.0220987"><ele>345.0</ele><time>2026-04-26T07:03:23.032Z</time></trkpt><trkpt lat="44.0309662" lon="8.0222238"><ele>345.5</ele><time>2026-04-26T07:03:24.13Z</time></trkpt><trkpt lat="44.0310063" lon="8.0223513"><ele>346.0</ele><time>2026-04-26T07:03:25.138Z</time></trkpt><trkpt lat="44.0310513" lon="8.0224658"><ele>346.5</ele><time>2026-04-26T07:03:26.077Z</time></trkpt><trkpt lat="44.0311061" lon="8.0225887"><ele>347.0</ele><time>2026-04-26T07:03:27.119Z</time></trkpt><trkpt lat="44.0312688" lon="8.022809"><ele>347.0</ele><time>2026-04-26T07:03:29.147Z</time></trkpt><trkpt lat="44.0314274" lon="8.0230207"><ele>347.0</ele><time>2026-04-26T07:03:31.074Z</time></trkpt><trkpt lat="44.0315073" lon="8.0231342"><ele>347.0</ele><time>2026-04-26T07:03:32.104Z</time></trkpt><trkpt lat="44.0315825" lon="8.0232366"><ele>347.0</ele><time>2026-04-26T07:03:33.151Z</time></trkpt><trkpt lat="44.0316935" lon="8.0234628"><ele>347.8</ele><time>2026-04-26T07:03:35.096Z</time></trkpt><trkpt lat="44.0317206" lon="8.0236091"><ele>348.6</ele><time>2026-04-26T07:03:36.044Z</time></trkpt><trkpt lat="44.0317558" lon="8.0237693"><ele>349.40000000000003</ele><time>2026-04-26T07:03:37.082Z</time></trkpt><trkpt lat="44.0317841" lon="8.023898"><ele>350.20000000000005</ele><time>2026-04-26T07:03:38.021Z</time></trkpt><trkpt lat="44.0318021" lon="8.0240535"><ele>351.0</ele><time>2026-04-26T07:03:39.187Z</time></trkpt><trkpt lat="44.0317946" lon="8.0241656"><ele>351.0</ele><time>2026-04-26T07:03:40.098Z</time></trkpt><trkpt lat="44.0317867" lon="8.024293"><ele>351.0</ele><time>2026-04-26T07:03:41.152Z</time></trkpt><trkpt lat="44.0317899" lon="8.0243972"><ele>351.0</ele><time>2026-04-26T07:03:42.117Z</time></trkpt><trkpt lat="44.0318443" lon="8.0245664"><ele>351.0</ele><time>2026-04-26T07:03:43.929Z</time></trkpt><trkpt lat="44.0319564" lon="8.0247327"><ele>351.0</ele><time>2026-04-26T07:03:47.008Z</time></trkpt><trkpt lat="44.0321514" lon="8.0246429"><ele>351.0</ele><time>2026-04-26T07:03:49.84Z</time></trkpt><trkpt lat="44.0322399" lon="8.024554"><ele>351.0</ele><time>2026-04-26T07:03:50.84Z</time></trkpt><trkpt lat="44.0323542" lon="8.0244768"><ele>351.0</ele><time>2026-04-26T07:03:52.072Z</time></trkpt><trkpt lat="44.0325568" lon="8.0243849"><ele>354.25</ele><time>2026-04-26T07:03:53.897Z</time></trkpt><trkpt lat="44.0326724" lon="8.024356"><ele>357.5</ele><time>2026-04-26T07:03:54.851Z</time></trkpt><trkpt lat="44.0328035" lon="8.024346"><ele>360.75</ele><time>2026-04-26T07:03:55.885Z</time></trkpt><trkpt lat="44.0329293" lon="8.0243492"><ele>364.0</ele><time>2026-04-26T07:03:56.944Z</time></trkpt><trkpt lat="44.0330512" lon="8.0243473"><ele>364.0</ele><time>2026-04-26T07:03:58.014Z</time></trkpt><trkpt lat="44.0331365" lon="8.0243346"><ele>364.0</ele><time>2026-04-26T07:03:58.941Z</time></trkpt><trkpt lat="44.033223" lon="8.0243142"><ele>364.0</ele><time>2026-04-26T07:03:59.927Z</time></trkpt><trkpt lat="44.0333022" lon="8.0242984"><ele>364.0</ele><time>2026-04-26T07:04:00.926Z</time></trkpt><trkpt lat="44.0333789" lon="8.0243085"><ele>364.0</ele><time>2026-04-26T07:04:01.995Z</time></trkpt><trkpt lat="44.0334362" lon="8.0243639"><ele>364.0</ele><time>2026-04-26T07:04:03.005Z</time></trkpt><trkpt lat="44.0334592" lon="8.0244613"><ele>363.79999999999995</ele><time>2026-04-26T07:04:04.079Z</time></trkpt><trkpt lat="44.0334782" lon="8.024704"><ele>363.59999999999997</ele><time>2026-04-26T07:04:06.168Z</time></trkpt><trkpt lat="44.0335098" lon="8.0247984"><ele>363.4</ele><time>2026-04-26T07:04:07.085Z</time></trkpt><trkpt lat="44.0335538" lon="8.0248738"><ele>363.2</ele><time>2026-04-26T07:04:08.015Z</time></trkpt><trkpt lat="44.0336048" lon="8.0249426"><ele>363.0</ele><time>2026-04-26T07:04:09.028Z</time></trkpt><trkpt lat="44.0336318" lon="8.0250239"><ele>360.0</ele><time>2026-04-26T07:04:10.043Z</time></trkpt><trkpt lat="44.0336148" lon="8.0251102"><ele>357.0</ele><time>2026-04-26T07:04:10.953Z</time></trkpt><trkpt lat="44.0335597" lon="8.0252228"><ele>354.0</ele><time>2026-04-26T07:04:12.112Z</time></trkpt><trkpt lat="44.0334862" lon="8.0253444"><ele>351.0</ele><time>2026-04-26T07:04:13.042Z</time></trkpt><trkpt lat="44.0334274" lon="8.0254961"><ele>348.0</ele><time>2026-04-26T07:04:14.138Z</time></trkpt><trkpt lat="44.0333939" lon="8.0256155"><ele>348.0</ele><time>2026-04-26T07:04:15.038Z</time></trkpt><trkpt lat="44.0333644" lon="8.0257823"><ele>348.0</ele><time>2026-04-26T07:04:16.289Z</time></trkpt><trkpt lat="44.0333941" lon="8.0260739"><ele>348.0</ele><time>2026-04-26T07:04:18.099Z</time></trkpt><trkpt lat="44.0334072" lon="8.026212"><ele>348.0</ele><time>2026-04-26T07:04:19.053Z</time></trkpt><trkpt lat="44.0334202" lon="8.0263437"><ele>344.5</ele><time>2026-04-26T07:04:20.014Z</time></trkpt><trkpt lat="44.0334539" lon="8.0264752"><ele>341.0</ele><time>2026-04-26T07:04:21.035Z</time></trkpt><trkpt lat="44.0335198" lon="8.0266147"><ele>337.5</ele><time>2026-04-26T07:04:22.257Z</time></trkpt><trkpt lat="44.0336884" lon="8.0267952"><ele>334.0</ele><time>2026-04-26T07:04:23.962Z</time></trkpt><trkpt lat="44.0337988" lon="8.0268998"><ele>330.5</ele><time>2026-04-26T07:04:25.083Z</time></trkpt><trkpt lat="44.0338998" lon="8.0269612"><ele>327.0</ele><time>2026-04-26T07:04:26.035Z</time></trkpt><trkpt lat="44.0340346" lon="8.0270038"><ele>323.5</ele><time>2026-04-26T07:04:27.122Z</time></trkpt><trkpt lat="44.0341599" lon="8.0270459"><ele>320.0</ele><time>2026-04-26T07:04:28.126Z</time></trkpt><trkpt lat="44.0342685" lon="8.0270949"><ele>332.6666666666667</ele><time>2026-04-26T07:04:29.057Z</time></trkpt><trkpt lat="44.0344962" lon="8.0272429"><ele>345.3333333333333</ele><time>2026-04-26T07:04:31.039Z</time></trkpt><trkpt lat="44.0346211" lon="8.0273134"><ele>358.0</ele><time>2026-04-26T07:04:32.227Z</time></trkpt><trkpt lat="44.0348017" lon="8.02741"><ele>356.4</ele><time>2026-04-26T07:04:34.151Z</time></trkpt><trkpt lat="44.0349384" lon="8.0274859"><ele>354.79999999999995</ele><time>2026-04-26T07:04:35.881Z</time></trkpt><trkpt lat="44.0350072" lon="8.027552"><ele>353.2</ele><time>2026-04-26T07:04:37.1Z</time></trkpt><trkpt lat="44.0350062" lon="8.0277195"><ele>351.6</ele><time>2026-04-26T07:04:38.933Z</time></trkpt><trkpt lat="44.0349492" lon="8.0277943"><ele>350.0</ele><time>2026-04-26T07:04:40.002Z</time></trkpt><trkpt lat="44.034852" lon="8.0278661"><ele>340.33333333333337</ele><time>2026-04-26T07:04:41.049Z</time></trkpt><trkpt lat="44.0346375" lon="8.0280029"><ele>330.6666666666667</ele><time>2026-04-26T07:04:43.005Z</time></trkpt><trkpt lat="44.0345062" lon="8.0280783"><ele>321.0</ele><time>2026-04-26T07:04:44.268Z</time></trkpt><trkpt lat="44.0343697" lon="8.028218"><ele>319.25</ele><time>2026-04-26T07:04:46.045Z</time></trkpt><trkpt lat="44.0343252" lon="8.0283306"><ele>317.5</ele><time>2026-04-26T07:04:47.103Z</time></trkpt><trkpt lat="44.0343401" lon="8.0284621"><ele>315.75</ele><time>2026-04-26T07:04:48.202Z</time></trkpt><trkpt lat="44.034489" lon="8.0286742"><ele>314.0</ele><time>2026-04-26T07:04:50.083Z</time></trkpt><trkpt lat="44.0346477" lon="8.0289076"><ele>314.0</ele><time>2026-04-26T07:04:51.92Z</time></trkpt><trkpt lat="44.0347419" lon="8.029101"><ele>314.0</ele><time>2026-04-26T07:04:53.176Z</time></trkpt><trkpt lat="44.0348048" lon="8.0292492"><ele>314.0</ele><time>2026-04-26T07:04:54.107Z</time></trkpt><trkpt lat="44.0348631" lon="8.0293939"><ele>314.0</ele><time>2026-04-26T07:04:55.085Z</time></trkpt><trkpt lat="44.0349209" lon="8.0295388"><ele>313.0</ele><time>2026-04-26T07:04:56.085Z</time></trkpt><trkpt lat="44.0349631" lon="8.0296601"><ele>312.0</ele><time>2026-04-26T07:04:57.01Z</time></trkpt><trkpt lat="44.0349866" lon="8.0297824"><ele>311.0</ele><time>2026-04-26T07:04:58.017Z</time></trkpt><trkpt lat="44.034977" lon="8.029899"><ele>310.0</ele><time>2026-04-26T07:04:58.991Z</time></trkpt><trkpt lat="44.0349259" lon="8.029994"><ele>309.0</ele><time>2026-04-26T07:05:00.112Z</time></trkpt><trkpt lat="44.0347673" lon="8.0300314"><ele>309.0</ele><time>2026-04-26T07:05:02.085Z</time></trkpt><trkpt lat="44.0346575" lon="8.0299465"><ele>309.0</ele><time>2026-04-26T07:05:03.258Z</time></trkpt><trkpt lat="44.0345007" lon="8.0298397"><ele>309.0</ele><time>2026-04-26T07:05:05.038Z</time></trkpt><trkpt lat="44.0344193" lon="8.0298219"><ele>309.0</ele><time>2026-04-26T07:05:06.078Z</time></trkpt><trkpt lat="44.0343206" lon="8.0298897"><ele>310.0</ele><time>2026-04-26T07:05:07.088Z</time></trkpt><trkpt lat="44.0342421" lon="8.0299796"><ele>311.0</ele><time>2026-04-26T07:05:08.03Z</time></trkpt><trkpt lat="44.034142" lon="8.0300485"><ele>312.0</ele><time>2026-04-26T07:05:09.073Z</time></trkpt><trkpt lat="44.034043" lon="8.030052"><ele>313.0</ele><time>2026-04-26T07:05:09.977Z</time></trkpt><trkpt lat="44.0338046" lon="8.0299391"><ele>313.0</ele><time>2026-04-26T07:05:12.1Z</time></trkpt><trkpt lat="44.0335851" lon="8.0298941"><ele>313.0</ele><time>2026-04-26T07:05:14.185Z</time></trkpt><trkpt lat="44.0333593" lon="8.0301271"><ele>309.25</ele><time>2026-04-26T07:05:16.096Z</time></trkpt><trkpt lat="44.0332613" lon="8.0302383"><ele>305.5</ele><time>2026-04-26T07:05:17.024Z</time></trkpt><trkpt lat="44.0331436" lon="8.0303266"><ele>301.75</ele><time>2026-04-26T07:05:18.012Z</time></trkpt><trkpt lat="44.0330087" lon="8.0304003"><ele>298.0</ele><time>2026-04-26T07:05:19.065Z</time></trkpt><trkpt lat="44.0328516" lon="8.0304577"><ele>298.0</ele><time>2026-04-26T07:05:20.226Z</time></trkpt><trkpt lat="44.0325995" lon="8.0305348"><ele>298.0</ele><time>2026-04-26T07:05:22.112Z</time></trkpt><trkpt lat="44.0323453" lon="8.0305159"><ele>295.5</ele><time>2026-04-26T07:05:24.057Z</time></trkpt><trkpt lat="44.0322327" lon="8.0304652"><ele>293.0</ele><time>2026-04-26T07:05:25.047Z</time></trkpt><trkpt lat="44.0321166" lon="8.0304158"><ele>290.5</ele><time>2026-04-26T07:05:26.101Z</time></trkpt><trkpt lat="44.0320125" lon="8.0303788"><ele>288.0</ele><time>2026-04-26T07:05:27.021Z</time></trkpt><trkpt lat="44.031903" lon="8.0303824"><ele>288.0</ele><time>2026-04-26T07:05:28.07Z</time></trkpt><trkpt lat="44.0317975" lon="8.0304423"><ele>288.0</ele><time>2026-04-26T07:05:29.045Z</time></trkpt><trkpt lat="44.031679" lon="8.0305651"><ele>288.0</ele><time>2026-04-26T07:05:30.171Z</time></trkpt><trkpt lat="44.0315118" lon="8.0308374"><ele>283.3333333333333</ele><time>2026-04-26T07:05:32.082Z</time></trkpt><trkpt lat="44.0314434" lon="8.0309563"><ele>278.66666666666663</ele><time>2026-04-26T07:05:32.986Z</time></trkpt><trkpt lat="44.0313609" lon="8.0312258"><ele>274.0</ele><time>2026-04-26T07:05:34.98Z</time></trkpt><trkpt lat="44.0313712" lon="8.0314228"><ele>275.0</ele><time>2026-04-26T07:05:36.209Z</time></trkpt><trkpt lat="44.0314951" lon="8.0317423"><ele>276.0</ele><time>2026-04-26T07:05:38.173Z</time></trkpt><trkpt lat="44.0316208" lon="8.0320343"><ele>281.25</ele><time>2026-04-26T07:05:40.068Z</time></trkpt><trkpt lat="44.0316882" lon="8.0322036"><ele>286.5</ele><time>2026-04-26T07:05:41.052Z</time></trkpt><trkpt lat="44.0317468" lon="8.0323877"><ele>291.75</ele><time>2026-04-26T07:05:42.065Z</time></trkpt><trkpt lat="44.0318077" lon="8.0325749"><ele>297.0</ele><time>2026-04-26T07:05:43.12Z</time></trkpt><trkpt lat="44.0319974" lon="8.0328285"><ele>297.0</ele><time>2026-04-26T07:05:44.942Z</time></trkpt><trkpt lat="44.0321116" lon="8.032948"><ele>297.0</ele><time>2026-04-26T07:05:45.851Z</time></trkpt><trkpt lat="44.0322348" lon="8.0330729"><ele>297.0</ele><time>2026-04-26T07:05:46.866Z</time></trkpt><trkpt lat="44.0323519" lon="8.0332003"><ele>297.0</ele><time>2026-04-26T07:05:47.892Z</time></trkpt><trkpt lat="44.0324462" lon="8.0333392"><ele>300.5</ele><time>2026-04-26T07:05:48.892Z</time></trkpt><trkpt lat="44.0325247" lon="8.0334902"><ele>304.0</ele><time>2026-04-26T07:05:49.956Z</time></trkpt><trkpt lat="44.0325849" lon="8.0336142"><ele>307.5</ele><time>2026-04-26T07:05:50.885Z</time></trkpt><trkpt lat="44.0326256" lon="8.0337544"><ele>311.0</ele><time>2026-04-26T07:05:51.911Z</time></trkpt><trkpt lat="44.0326316" lon="8.0339121"><ele>311.0</ele><time>2026-04-26T07:05:53.038Z</time></trkpt><trkpt lat="44.032617" lon="8.0340421"><ele>311.0</ele><time>2026-04-26T07:05:54.082Z</time></trkpt><trkpt lat="44.0325662" lon="8.0341393"><ele>311.0</ele><time>2026-04-26T07:05:55.007Z</time></trkpt><trkpt lat="44.032459" lon="8.0342361"><ele>311.0</ele><time>2026-04-26T07:05:56.114Z</time></trkpt><trkpt lat="44.0322075" lon="8.0343269"><ele>300.0</ele><time>2026-04-26T07:05:58.078Z</time></trkpt><trkpt lat="44.0320598" lon="8.0343386"><ele>289.0</ele><time>2026-04-26T07:05:59.05Z</time></trkpt><trkpt lat="44.0319161" lon="8.0343785"><ele>278.0</ele><time>2026-04-26T07:05:59.97Z</time></trkpt><trkpt lat="44.0317453" lon="8.0344678"><ele>275.0</ele><time>2026-04-26T07:06:01.1Z</time></trkpt><trkpt lat="44.031467" lon="8.0346125"><ele>272.0</ele><time>2026-04-26T07:06:03.099Z</time></trkpt><trkpt lat="44.0313601" lon="8.0346372"><ele>269.0</ele><time>2026-04-26T07:06:04.008Z</time></trkpt><trkpt lat="44.0312507" lon="8.0346618"><ele>269.0</ele><time>2026-04-26T07:06:05.043Z</time></trkpt><trkpt lat="44.0311593" lon="8.0347438"><ele>269.0</ele><time>2026-04-26T07:06:06.09Z</time></trkpt><trkpt lat="44.0311083" lon="8.0348545"><ele>269.0</ele><time>2026-04-26T07:06:06.996Z</time></trkpt><trkpt lat="44.031071" lon="8.03501"><ele>269.0</ele><time>2026-04-26T07:06:08.104Z</time></trkpt><trkpt lat="44.0310781" lon="8.0351623"><ele>269.0</ele><time>2026-04-26T07:06:09.071Z</time></trkpt><trkpt lat="44.0311214" lon="8.0353334"><ele>269.75</ele><time>2026-04-26T07:06:10.076Z</time></trkpt><trkpt lat="44.0311917" lon="8.0355095"><ele>270.5</ele><time>2026-04-26T07:06:11.142Z</time></trkpt><trkpt lat="44.0312267" lon="8.0356385"><ele>271.25</ele><time>2026-04-26T07:06:12.059Z</time></trkpt><trkpt lat="44.0312698" lon="8.0357889"><ele>272.0</ele><time>2026-04-26T07:06:13.081Z</time></trkpt><trkpt lat="44.0312907" lon="8.0359428"><ele>272.0</ele><time>2026-04-26T07:06:14.014Z</time></trkpt><trkpt lat="44.0312921" lon="8.0361215"><ele>272.0</ele><time>2026-04-26T07:06:15.052Z</time></trkpt><trkpt lat="44.0312868" lon="8.0362837"><ele>272.0</ele><time>2026-04-26T07:06:16.052Z</time></trkpt><trkpt lat="44.0312769" lon="8.0364558"><ele>272.0</ele><time>2026-04-26T07:06:17.096Z</time></trkpt><trkpt lat="44.0312462" lon="8.0367858"><ele>272.0</ele><time>2026-04-26T07:06:19.082Z</time></trkpt><trkpt lat="44.0312718" lon="8.0369781"><ele>272.0</ele><time>2026-04-26T07:06:20.155Z</time></trkpt><trkpt lat="44.0313074" lon="8.0371553"><ele>272.0</ele><time>2026-04-26T07:06:21.073Z</time></trkpt><trkpt lat="44.0313144" lon="8.0373589"><ele>272.0</ele><time>2026-04-26T07:06:22.141Z</time></trkpt><trkpt lat="44.0313029" lon="8.0375233"><ele>270.75</ele><time>2026-04-26T07:06:23.112Z</time></trkpt><trkpt lat="44.0312809" lon="8.0376916"><ele>269.5</ele><time>2026-04-26T07:06:24.225Z</time></trkpt><trkpt lat="44.0312417" lon="8.0379417"><ele>268.25</ele><time>2026-04-26T07:06:26.065Z</time></trkpt><trkpt lat="44.0312637" lon="8.0380459"><ele>267.0</ele><time>2026-04-26T07:06:27.052Z</time></trkpt><trkpt lat="44.0314175" lon="8.0382514"><ele>264.75</ele><time>2026-04-26T07:06:28.992Z</time></trkpt><trkpt lat="44.0315112" lon="8.0383467"><ele>262.5</ele><time>2026-04-26T07:06:29.973Z</time></trkpt><trkpt lat="44.0315831" lon="8.0384376"><ele>260.25</ele><time>2026-04-26T07:06:30.961Z</time></trkpt><trkpt lat="44.0316321" lon="8.0385458"><ele>258.0</ele><time>2026-04-26T07:06:31.912Z</time></trkpt><trkpt lat="44.0316475" lon="8.0388322"><ele>258.0</ele><time>2026-04-26T07:06:33.957Z</time></trkpt><trkpt lat="44.0315944" lon="8.038974"><ele>258.0</ele><time>2026-04-26T07:06:34.967Z</time></trkpt><trkpt lat="44.031513" lon="8.0391282"><ele>258.0</ele><time>2026-04-26T07:06:35.999Z</time></trkpt><trkpt lat="44.0314323" lon="8.039268"><ele>258.0</ele><time>2026-04-26T07:06:36.917Z</time></trkpt><trkpt lat="44.0313481" lon="8.0394401"><ele>260.0</ele><time>2026-04-26T07:06:37.946Z</time></trkpt><trkpt lat="44.0312614" lon="8.0396392"><ele>262.0</ele><time>2026-04-26T07:06:39.063Z</time></trkpt><trkpt lat="44.0311763" lon="8.0398233"><ele>264.0</ele><time>2026-04-26T07:06:40.087Z</time></trkpt><trkpt lat="44.0310824" lon="8.0400253"><ele>267.3333333333333</ele><time>2026-04-26T07:06:41.157Z</time></trkpt><trkpt lat="44.0308938" lon="8.0403272"><ele>270.66666666666663</ele><time>2026-04-26T07:06:43.142Z</time></trkpt><trkpt lat="44.0308181" lon="8.0404504"><ele>274.0</ele><time>2026-04-26T07:06:44.023Z</time></trkpt><trkpt lat="44.0307459" lon="8.0405965"><ele>276.0</ele><time>2026-04-26T07:06:45.157Z</time></trkpt><trkpt lat="44.03071" lon="8.0408626"><ele>278.0</ele><time>2026-04-26T07:06:47.152Z</time></trkpt><trkpt lat="44.0307547" lon="8.0409956"><ele>280.0</ele><time>2026-04-26T07:06:48.132Z</time></trkpt><trkpt lat="44.0309764" lon="8.0411803"><ele>280.0</ele><time>2026-04-26T07:06:50.234Z</time></trkpt><trkpt lat="44.0311229" lon="8.0412538"><ele>280.0</ele><time>2026-04-26T07:06:51.336Z</time></trkpt><trkpt lat="44.0313246" lon="8.0413691"><ele>280.0</ele><time>2026-04-26T07:06:53.188Z</time></trkpt><trkpt lat="44.0314635" lon="8.0415072"><ele>273.0</ele><time>2026-04-26T07:06:54.87Z</time></trkpt><trkpt lat="44.031534" lon="8.0416609"><ele>266.0</ele><time>2026-04-26T07:06:56.131Z</time></trkpt><trkpt lat="44.0315733" lon="8.0419308"><ele>259.0</ele><time>2026-04-26T07:06:58.129Z</time></trkpt><trkpt lat="44.0314664" lon="8.0421828"><ele>259.0</ele><time>2026-04-26T07:07:00.067Z</time></trkpt><trkpt lat="44.0313728" lon="8.0422784"><ele>259.0</ele><time>2026-04-26T07:07:01.064Z</time></trkpt><trkpt lat="44.0312972" lon="8.0423735"><ele>259.0</ele><time>2026-04-26T07:07:01.971Z</time></trkpt><trkpt lat="44.0312193" lon="8.0425499"><ele>259.0</ele><time>2026-04-26T07:07:03.14Z</time></trkpt><trkpt lat="44.0311546" lon="8.0429457"><ele>259.0</ele><time>2026-04-26T07:07:05.17Z</time></trkpt><trkpt lat="44.0311117" lon="8.0431364"><ele>259.0</ele><time>2026-04-26T07:07:06.124Z</time></trkpt><trkpt lat="44.0310613" lon="8.0433402"><ele>259.0</ele><time>2026-04-26T07:07:07.139Z</time></trkpt><trkpt lat="44.0309488" lon="8.0437746"><ele>262.0</ele><time>2026-04-26T07:07:09.196Z</time></trkpt><trkpt lat="44.0308562" lon="8.0441377"><ele>265.0</ele><time>2026-04-26T07:07:11.214Z</time></trkpt><trkpt lat="44.0308269" lon="8.0442737"><ele>268.0</ele><time>2026-04-26T07:07:12.08Z</time></trkpt><trkpt lat="44.0308228" lon="8.0444469"><ele>268.0</ele><time>2026-04-26T07:07:13.22Z</time></trkpt><trkpt lat="44.0309266" lon="8.0447536"><ele>268.0</ele><time>2026-04-26T07:07:15.205Z</time></trkpt><trkpt lat="44.0309864" lon="8.0448922"><ele>268.0</ele><time>2026-04-26T07:07:16.137Z</time></trkpt><trkpt lat="44.0310377" lon="8.0451505"><ele>268.0</ele><time>2026-04-26T07:07:17.901Z</time></trkpt><trkpt lat="44.0310246" lon="8.0453306"><ele>268.0</ele><time>2026-04-26T07:07:18.957Z</time></trkpt><trkpt lat="44.0308985" lon="8.0456514"><ele>268.0</ele><time>2026-04-26T07:07:21.02Z</time></trkpt><trkpt lat="44.030861" lon="8.0457989"><ele>268.25</ele><time>2026-04-26T07:07:22.036Z</time></trkpt><trkpt lat="44.0308483" lon="8.0459347"><ele>268.5</ele><time>2026-04-26T07:07:22.976Z</time></trkpt><trkpt lat="44.0308706" lon="8.0460753"><ele>268.75</ele><time>2026-04-26T07:07:23.997Z</time></trkpt><trkpt lat="44.030925" lon="8.0462207"><ele>269.0</ele><time>2026-04-26T07:07:25.017Z</time></trkpt><trkpt lat="44.0310062" lon="8.0463665"><ele>269.0</ele><time>2026-04-26T07:07:26.046Z</time></trkpt><trkpt lat="44.0310973" lon="8.0464989"><ele>269.0</ele><time>2026-04-26T07:07:26.981Z</time></trkpt><trkpt lat="44.0312019" lon="8.0466279"><ele>269.0</ele><time>2026-04-26T07:07:27.996Z</time></trkpt><trkpt lat="44.0313059" lon="8.0467495"><ele>269.0</ele><time>2026-04-26T07:07:28.953Z</time></trkpt><trkpt lat="44.0314213" lon="8.0468827"><ele>268.0</ele><time>2026-04-26T07:07:30.022Z</time></trkpt><trkpt lat="44.0315091" lon="8.0469817"><ele>267.0</ele><time>2026-04-26T07:07:30.957Z</time></trkpt><trkpt lat="44.0316021" lon="8.0470945"><ele>266.0</ele><time>2026-04-26T07:07:31.953Z</time></trkpt><trkpt lat="44.0316736" lon="8.04723"><ele>265.0</ele><time>2026-04-26T07:07:33.022Z</time></trkpt><trkpt lat="44.0317104" lon="8.0473717"><ele>266.75</ele><time>2026-04-26T07:07:34.026Z</time></trkpt><trkpt lat="44.0316607" lon="8.0476963"><ele>268.5</ele><time>2026-04-26T07:07:35.909Z</time></trkpt><trkpt lat="44.0316322" lon="8.0478606"><ele>270.25</ele><time>2026-04-26T07:07:37.024Z</time></trkpt><trkpt lat="44.0316145" lon="8.047961"><ele>272.0</ele><time>2026-04-26T07:07:37.945Z</time></trkpt><trkpt lat="44.0316154" lon="8.0480683"><ele>271.1666666666667</ele><time>2026-04-26T07:07:38.938Z</time></trkpt><trkpt lat="44.0316193" lon="8.0481598"><ele>270.33333333333337</ele><time>2026-04-26T07:07:39.948Z</time></trkpt><trkpt lat="44.0316296" lon="8.0482523"><ele>269.5</ele><time>2026-04-26T07:07:41.01Z</time></trkpt><trkpt lat="44.0316601" lon="8.0483773"><ele>268.6666666666667</ele><time>2026-04-26T07:07:42.979Z</time></trkpt><trkpt lat="44.0316951" lon="8.0485053"><ele>267.8333333333333</ele><time>2026-04-26T07:07:47.055Z</time></trkpt><trkpt lat="44.0316995" lon="8.048409"><ele>267.0</ele><time>2026-04-26T07:08:01.875Z</time></trkpt><trkpt lat="44.0316636" lon="8.0483087"><ele>268.0</ele><time>2026-04-26T07:08:03.041Z</time></trkpt><trkpt lat="44.0316348" lon="8.0481835"><ele>269.0</ele><time>2026-04-26T07:08:04.088Z</time></trkpt><trkpt lat="44.0316206" lon="8.0480658"><ele>270.0</ele><time>2026-04-26T07:08:05.092Z</time></trkpt><trkpt lat="44.0316268" lon="8.0479226"><ele>271.0</ele><time>2026-04-26T07:08:06.022Z</time></trkpt><trkpt lat="44.0316505" lon="8.0477652"><ele>272.0</ele><time>2026-04-26T07:08:07.04Z</time></trkpt><trkpt lat="44.031698" lon="8.0475867"><ele>274.0</ele><time>2026-04-26T07:08:08.256Z</time></trkpt><trkpt lat="44.031715" lon="8.0473571"><ele>276.0</ele><time>2026-04-26T07:08:10.081Z</time></trkpt><trkpt lat="44.0316896" lon="8.0472415"><ele>278.0</ele><time>2026-04-26T07:08:11.255Z</time></trkpt><trkpt lat="44.0316584" lon="8.0471273"><ele>280.0</ele><time>2026-04-26T07:08:13.136Z</time></trkpt><trkpt lat="44.0317261" lon="8.0470394"><ele>282.0</ele><time>2026-04-26T07:08:15.126Z</time></trkpt><trkpt lat="44.031813" lon="8.0471033"><ele>282.0</ele><time>2026-04-26T07:08:17.121Z</time></trkpt><trkpt lat="44.031804" lon="8.0472894"><ele>282.0</ele><time>2026-04-26T07:08:19.085Z</time></trkpt><trkpt lat="44.0317904" lon="8.0474046"><ele>282.0</ele><time>2026-04-26T07:08:20.012Z</time></trkpt><trkpt lat="44.031788" lon="8.0475691"><ele>282.0</ele><time>2026-04-26T07:08:21.141Z</time></trkpt><trkpt lat="44.0318454" lon="8.0478782"><ele>279.5</ele><time>2026-04-26T07:08:23.19Z</time></trkpt><trkpt lat="44.0319387" lon="8.0481476"><ele>277.0</ele><time>2026-04-26T07:08:25.152Z</time></trkpt><trkpt lat="44.0320031" lon="8.0482617"><ele>274.5</ele><time>2026-04-26T07:08:26.069Z</time></trkpt><trkpt lat="44.0320815" lon="8.0483813"><ele>272.0</ele><time>2026-04-26T07:08:27.033Z</time></trkpt><trkpt lat="44.0321545" lon="8.0484856"><ele>270.75</ele><time>2026-04-26T07:08:27.939Z</time></trkpt><trkpt lat="44.0322276" lon="8.0485925"><ele>269.5</ele><time>2026-04-26T07:08:28.937Z</time></trkpt><trkpt lat="44.0323051" lon="8.0487032"><ele>268.25</ele><time>2026-04-26T07:08:30.001Z</time></trkpt><trkpt lat="44.0323988" lon="8.0488443"><ele>267.0</ele><time>2026-04-26T07:08:31.884Z</time></trkpt><trkpt lat="44.0324911" lon="8.0489321"><ele>268.25</ele><time>2026-04-26T07:08:34.097Z</time></trkpt><trkpt lat="44.0325862" lon="8.0489016"><ele>269.5</ele><time>2026-04-26T07:08:36.109Z</time></trkpt><trkpt lat="44.0326359" lon="8.048747"><ele>270.75</ele><time>2026-04-26T07:08:38.069Z</time></trkpt><trkpt lat="44.032502" lon="8.048505"><ele>272.0</ele><time>2026-04-26T07:08:40.154Z</time></trkpt><trkpt lat="44.0323503" lon="8.0482408"><ele>272.0</ele><time>2026-04-26T07:08:42.102Z</time></trkpt><trkpt lat="44.0323065" lon="8.048128"><ele>272.0</ele><time>2026-04-26T07:08:43.046Z</time></trkpt><trkpt lat="44.0322562" lon="8.0480172"><ele>272.0</ele><time>2026-04-26T07:08:44.19Z</time></trkpt><trkpt lat="44.0322089" lon="8.0479149"><ele>272.0</ele><time>2026-04-26T07:08:45.097Z</time></trkpt><trkpt lat="44.032131" lon="8.0476707"><ele>272.0</ele><time>2026-04-26T07:08:47.092Z</time></trkpt><trkpt lat="44.0320982" lon="8.0474995"><ele>272.0</ele><time>2026-04-26T07:08:48.222Z</time></trkpt><trkpt lat="44.0320902" lon="8.047337"><ele>272.0</ele><time>2026-04-26T07:08:49.21Z</time></trkpt><trkpt lat="44.0321244" lon="8.0470132"><ele>274.5</ele><time>2026-04-26T07:08:51.204Z</time></trkpt><trkpt lat="44.0321438" lon="8.0467934"><ele>277.0</ele><time>2026-04-26T07:08:53.148Z</time></trkpt><trkpt lat="44.032087" lon="8.0466457"><ele>279.5</ele><time>2026-04-26T07:08:55.083Z</time></trkpt><trkpt lat="44.0320038" lon="8.0466057"><ele>282.0</ele><time>2026-04-26T07:08:56.013Z</time></trkpt><trkpt lat="44.0318955" lon="8.0465986"><ele>285.3333333333333</ele><time>2026-04-26T07:08:57.09Z</time></trkpt><trkpt lat="44.0317379" lon="8.0464474"><ele>288.66666666666663</ele><time>2026-04-26T07:08:59.18Z</time></trkpt><trkpt lat="44.0316896" lon="8.0462691"><ele>292.0</ele><time>2026-04-26T07:09:01.184Z</time></trkpt><trkpt lat="44.0317212" lon="8.0459935"><ele>292.0</ele><time>2026-04-26T07:09:03.129Z</time></trkpt><trkpt lat="44.0317512" lon="8.0458584"><ele>292.0</ele><time>2026-04-26T07:09:04.07Z</time></trkpt><trkpt lat="44.031793" lon="8.0457113"><ele>292.0</ele><time>2026-04-26T07:09:05.169Z</time></trkpt><trkpt lat="44.0318995" lon="8.0454804"><ele>292.0</ele><time>2026-04-26T07:09:07.086Z</time></trkpt><trkpt lat="44.0319222" lon="8.0453454"><ele>292.66666666666663</ele><time>2026-04-26T07:09:08.069Z</time></trkpt><trkpt lat="44.0319242" lon="8.0451567"><ele>293.3333333333333</ele><time>2026-04-26T07:09:09.162Z</time></trkpt><trkpt lat="44.0318748" lon="8.0449771"><ele>294.0</ele><time>2026-04-26T07:09:10.218Z</time></trkpt><trkpt lat="44.0317693" lon="8.0447233"><ele>294.2</ele><time>2026-04-26T07:09:12.142Z</time></trkpt><trkpt lat="44.0317393" lon="8.0446295"><ele>294.4</ele><time>2026-04-26T07:09:13.165Z</time></trkpt><trkpt lat="44.0317428" lon="8.0444977"><ele>294.6</ele><time>2026-04-26T07:09:14.999Z</time></trkpt><trkpt lat="44.0318425" lon="8.0444499"><ele>294.8</ele><time>2026-04-26T07:09:17.043Z</time></trkpt><trkpt lat="44.0319291" lon="8.0446393"><ele>295.0</ele><time>2026-04-26T07:09:19.28Z</time></trkpt><trkpt lat="44.0320219" lon="8.0449243"><ele>294.66666666666663</ele><time>2026-04-26T07:09:21.073Z</time></trkpt><trkpt lat="44.032081" lon="8.0451148"><ele>294.3333333333333</ele><time>2026-04-26T07:09:22.18Z</time></trkpt><trkpt lat="44.0321311" lon="8.045459"><ele>294.0</ele><time>2026-04-26T07:09:24.134Z</time></trkpt><trkpt lat="44.0321504" lon="8.0456397"><ele>293.3333333333333</ele><time>2026-04-26T07:09:25.239Z</time></trkpt><trkpt lat="44.0321811" lon="8.0457966"><ele>292.66666666666663</ele><time>2026-04-26T07:09:26.349Z</time></trkpt><trkpt lat="44.0322988" lon="8.0460271"><ele>292.0</ele><time>2026-04-26T07:09:28.147Z</time></trkpt><trkpt lat="44.0324766" lon="8.0462661"><ele>298.0</ele><time>2026-04-26T07:09:30.216Z</time></trkpt><trkpt lat="44.0325582" lon="8.0465951"><ele>304.0</ele><time>2026-04-26T07:09:32.117Z</time></trkpt><trkpt lat="44.0325928" lon="8.046747"><ele>310.0</ele><time>2026-04-26T07:09:33.115Z</time></trkpt><trkpt lat="44.0326175" lon="8.0468954"><ele>310.0</ele><time>2026-04-26T07:09:34.199Z</time></trkpt><trkpt lat="44.0326165" lon="8.0471418"><ele>310.0</ele><time>2026-04-26T07:09:35.99Z</time></trkpt><trkpt lat="44.0326244" lon="8.0473649"><ele>310.0</ele><time>2026-04-26T07:09:37.93Z</time></trkpt><trkpt lat="44.032664" lon="8.0474832"><ele>310.0</ele><time>2026-04-26T07:09:38.961Z</time></trkpt><trkpt lat="44.0327243" lon="8.0475615"><ele>308.6</ele><time>2026-04-26T07:09:39.96Z</time></trkpt><trkpt lat="44.0328131" lon="8.047634"><ele>307.2</ele><time>2026-04-26T07:09:40.992Z</time></trkpt><trkpt lat="44.0329131" lon="8.0476904"><ele>305.8</ele><time>2026-04-26T07:09:41.985Z</time></trkpt><trkpt lat="44.0330141" lon="8.0477467"><ele>304.4</ele><time>2026-04-26T07:09:42.949Z</time></trkpt><trkpt lat="44.033124" lon="8.0478169"><ele>303.0</ele><time>2026-04-26T07:09:44.018Z</time></trkpt><trkpt lat="44.0332162" lon="8.0478844"><ele>307.6</ele><time>2026-04-26T07:09:44.989Z</time></trkpt><trkpt lat="44.0333223" lon="8.0479292"><ele>312.20000000000005</ele><time>2026-04-26T07:09:46.074Z</time></trkpt><trkpt lat="44.0334192" lon="8.0479331"><ele>316.8</ele><time>2026-04-26T07:09:47.016Z</time></trkpt><trkpt lat="44.0335283" lon="8.047922"><ele>321.40000000000003</ele><time>2026-04-26T07:09:48.028Z</time></trkpt><trkpt lat="44.0336537" lon="8.0478788"><ele>326.0</ele><time>2026-04-26T07:09:49.209Z</time></trkpt><trkpt lat="44.0337589" lon="8.0478039"><ele>326.0</ele><time>2026-04-26T07:09:50.276Z</time></trkpt><trkpt lat="44.0339675" lon="8.0476591"><ele>326.0</ele><time>2026-04-26T07:09:52.177Z</time></trkpt><trkpt lat="44.0341896" lon="8.0475474"><ele>326.5</ele><time>2026-04-26T07:09:54.051Z</time></trkpt><trkpt lat="44.0343124" lon="8.0474941"><ele>327.0</ele><time>2026-04-26T07:09:55.12Z</time></trkpt><trkpt lat="44.034414" lon="8.0474198"><ele>327.5</ele><time>2026-04-26T07:09:56.11Z</time></trkpt><trkpt lat="44.0344874" lon="8.0473178"><ele>328.0</ele><time>2026-04-26T07:09:57.149Z</time></trkpt><trkpt lat="44.0346336" lon="8.0471903"><ele>333.75</ele><time>2026-04-26T07:09:59.225Z</time></trkpt><trkpt lat="44.0347064" lon="8.0472122"><ele>339.5</ele><time>2026-04-26T07:10:00.14Z</time></trkpt><trkpt lat="44.034912" lon="8.047349"><ele>345.25</ele><time>2026-04-26T07:10:02.169Z</time></trkpt><trkpt lat="44.0350235" lon="8.0473768"><ele>351.0</ele><time>2026-04-26T07:10:03.091Z</time></trkpt><trkpt lat="44.0351707" lon="8.0473907"><ele>343.3333333333333</ele><time>2026-04-26T07:10:04.258Z</time></trkpt><trkpt lat="44.0353486" lon="8.0474727"><ele>335.66666666666663</ele><time>2026-04-26T07:10:06.199Z</time></trkpt><trkpt lat="44.0354493" lon="8.0477015"><ele>328.0</ele><time>2026-04-26T07:10:08.193Z</time></trkpt><trkpt lat="44.0355269" lon="8.0479941"><ele>328.0</ele><time>2026-04-26T07:10:10.084Z</time></trkpt><trkpt lat="44.0355511" lon="8.0481309"><ele>328.0</ele><time>2026-04-26T07:10:11.04Z</time></trkpt><trkpt lat="44.0355538" lon="8.0482657"><ele>328.0</ele><time>2026-04-26T07:10:12.051Z</time></trkpt><trkpt lat="44.0355501" lon="8.0483935"><ele>328.0</ele><time>2026-04-26T07:10:13.238Z</time></trkpt><trkpt lat="44.0355793" lon="8.0485315"><ele>328.0</ele><time>2026-04-26T07:10:15.04Z</time></trkpt><trkpt lat="44.0356276" lon="8.0486267"><ele>325.0</ele><time>2026-04-26T07:10:16.136Z</time></trkpt><trkpt lat="44.0356793" lon="8.0486967"><ele>322.0</ele><time>2026-04-26T07:10:17.126Z</time></trkpt><trkpt lat="44.0357533" lon="8.0487633"><ele>319.0</ele><time>2026-04-26T07:10:18.136Z</time></trkpt><trkpt lat="44.0358369" lon="8.0488358"><ele>316.0</ele><time>2026-04-26T07:10:19.2Z</time></trkpt><trkpt lat="44.0360306" lon="8.0489599"><ele>319.5</ele><time>2026-04-26T07:10:21.147Z</time></trkpt><trkpt lat="44.0361353" lon="8.0490015"><ele>323.0</ele><time>2026-04-26T07:10:22.117Z</time></trkpt><trkpt lat="44.0362521" lon="8.0490829"><ele>326.5</ele><time>2026-04-26T07:10:23.306Z</time></trkpt><trkpt lat="44.0363322" lon="8.0491899"><ele>330.0</ele><time>2026-04-26T07:10:24.266Z</time></trkpt><trkpt lat="44.0364452" lon="8.0493943"><ele>330.0</ele><time>2026-04-26T07:10:25.92Z</time></trkpt><trkpt lat="44.0364891" lon="8.0495449"><ele>330.0</ele><time>2026-04-26T07:10:27.116Z</time></trkpt><trkpt lat="44.0365072" lon="8.0496905"><ele>330.0</ele><time>2026-04-26T07:10:28.189Z</time></trkpt><trkpt lat="44.0366178" lon="8.0499403"><ele>330.0</ele><time>2026-04-26T07:10:30.268Z</time></trkpt><trkpt lat="44.0367599" lon="8.0501114"><ele>332.0</ele><time>2026-04-26T07:10:32.114Z</time></trkpt><trkpt lat="44.0368184" lon="8.0502078"><ele>334.0</ele><time>2026-04-26T07:10:33.118Z</time></trkpt><trkpt lat="44.0368529" lon="8.0505098"><ele>336.0</ele><time>2026-04-26T07:10:35.206Z</time></trkpt><trkpt lat="44.0369255" lon="8.0507521"><ele>334.25</ele><time>2026-04-26T07:10:37.037Z</time></trkpt><trkpt lat="44.0369393" lon="8.0508991"><ele>332.5</ele><time>2026-04-26T07:10:38.198Z</time></trkpt><trkpt lat="44.0368569" lon="8.0511281"><ele>330.75</ele><time>2026-04-26T07:10:40.055Z</time></trkpt><trkpt lat="44.0368185" lon="8.0512817"><ele>329.0</ele><time>2026-04-26T07:10:41.093Z</time></trkpt><trkpt lat="44.0367583" lon="8.0516085"><ele>329.33333333333337</ele><time>2026-04-26T07:10:43.134Z</time></trkpt><trkpt lat="44.0367007" lon="8.0518708"><ele>329.6666666666667</ele><time>2026-04-26T07:10:45.266Z</time></trkpt><trkpt lat="44.0366933" lon="8.0519745"><ele>330.0</ele><time>2026-04-26T07:10:46.201Z</time></trkpt><trkpt lat="44.036768" lon="8.0522195"><ele>330.0</ele><time>2026-04-26T07:10:48.162Z</time></trkpt><trkpt lat="44.036832" lon="8.0523309"><ele>330.0</ele><time>2026-04-26T07:10:49.23Z</time></trkpt><trkpt lat="44.036905" lon="8.0524624"><ele>330.0</ele><time>2026-04-26T07:10:51.148Z</time></trkpt><trkpt lat="44.0369692" lon="8.0524903"><ele>330.0</ele><time>2026-04-26T07:10:52.156Z</time></trkpt><trkpt lat="44.0370567" lon="8.0524576"><ele>330.0</ele><time>2026-04-26T07:10:53.251Z</time></trkpt><trkpt lat="44.0371935" lon="8.0522835"><ele>330.0</ele><time>2026-04-26T07:10:55.322Z</time></trkpt><trkpt lat="44.0372883" lon="8.0520315"><ele>330.0</ele><time>2026-04-26T07:10:57.176Z</time></trkpt><trkpt lat="44.0374241" lon="8.051821"><ele>330.0</ele><time>2026-04-26T07:10:59.148Z</time></trkpt><trkpt lat="44.0374957" lon="8.0515301"><ele>335.25</ele><time>2026-04-26T07:11:01.068Z</time></trkpt><trkpt lat="44.037528" lon="8.0513903"><ele>340.5</ele><time>2026-04-26T07:11:02.075Z</time></trkpt><trkpt lat="44.037573" lon="8.0512411"><ele>345.75</ele><time>2026-04-26T07:11:03.266Z</time></trkpt><trkpt lat="44.0377111" lon="8.0510339"><ele>351.0</ele><time>2026-04-26T07:11:05.288Z</time></trkpt><trkpt lat="44.0378473" lon="8.0508291"><ele>353.8</ele><time>2026-04-26T07:11:07.048Z</time></trkpt><trkpt lat="44.0379114" lon="8.0507047"><ele>356.6</ele><time>2026-04-26T07:11:08.108Z</time></trkpt><trkpt lat="44.037975" lon="8.0506267"><ele>359.4</ele><time>2026-04-26T07:11:09.089Z</time></trkpt><trkpt lat="44.0380533" lon="8.050569"><ele>362.2</ele><time>2026-04-26T07:11:10.02Z</time></trkpt><trkpt lat="44.0381393" lon="8.0504844"><ele>365.0</ele><time>2026-04-26T07:11:11.14Z</time></trkpt><trkpt lat="44.03819" lon="8.0503972"><ele>365.0</ele><time>2026-04-26T07:11:12.126Z</time></trkpt><trkpt lat="44.0382293" lon="8.050168"><ele>365.0</ele><time>2026-04-26T07:11:14.239Z</time></trkpt><trkpt lat="44.0382248" lon="8.0500504"><ele>365.0</ele><time>2026-04-26T07:11:15.239Z</time></trkpt><trkpt lat="44.0382031" lon="8.0499638"><ele>365.0</ele><time>2026-04-26T07:11:16.177Z</time></trkpt><trkpt lat="44.0382207" lon="8.0497763"><ele>367.6666666666667</ele><time>2026-04-26T07:11:18.338Z</time></trkpt><trkpt lat="44.0383626" lon="8.0496075"><ele>370.3333333333333</ele><time>2026-04-26T07:11:20.034Z</time></trkpt><trkpt lat="44.0385606" lon="8.0494328"><ele>373.0</ele><time>2026-04-26T07:11:22.078Z</time></trkpt><trkpt lat="44.0386533" lon="8.0493492"><ele>373.0</ele><time>2026-04-26T07:11:23.007Z</time></trkpt><trkpt lat="44.0387504" lon="8.0492681"><ele>373.0</ele><time>2026-04-26T07:11:24.113Z</time></trkpt><trkpt lat="44.0389249" lon="8.0490576"><ele>373.0</ele><time>2026-04-26T07:11:26.089Z</time></trkpt><trkpt lat="44.0390147" lon="8.0489066"><ele>372.25</ele><time>2026-04-26T07:11:27.158Z</time></trkpt><trkpt lat="44.0390859" lon="8.0487894"><ele>371.5</ele><time>2026-04-26T07:11:28.085Z</time></trkpt><trkpt lat="44.0391778" lon="8.0486749"><ele>370.75</ele><time>2026-04-26T07:11:29.09Z</time></trkpt><trkpt lat="44.0392748" lon="8.0485695"><ele>370.0</ele><time>2026-04-26T07:11:30.026Z</time></trkpt><trkpt lat="44.0393767" lon="8.0484394"><ele>370.0</ele><time>2026-04-26T07:11:31.113Z</time></trkpt><trkpt lat="44.0394604" lon="8.0483169"><ele>370.0</ele><time>2026-04-26T07:11:32.117Z</time></trkpt><trkpt lat="44.0395529" lon="8.0482276"><ele>370.0</ele><time>2026-04-26T07:11:33.102Z</time></trkpt><trkpt lat="44.0396427" lon="8.048158"><ele>370.0</ele><time>2026-04-26T07:11:34.112Z</time></trkpt><trkpt lat="44.0397331" lon="8.0481074"><ele>370.0</ele><time>2026-04-26T07:11:35.032Z</time></trkpt><trkpt lat="44.0398323" lon="8.0480964"><ele>367.5</ele><time>2026-04-26T07:11:36.071Z</time></trkpt><trkpt lat="44.0399264" lon="8.0480916"><ele>365.0</ele><time>2026-04-26T07:11:37.201Z</time></trkpt><trkpt lat="44.0400409" lon="8.0481897"><ele>362.5</ele><time>2026-04-26T07:11:39.092Z</time></trkpt><trkpt lat="44.0400774" lon="8.0483097"><ele>360.0</ele><time>2026-04-26T07:11:40.049Z</time></trkpt><trkpt lat="44.0401107" lon="8.0484852"><ele>360.0</ele><time>2026-04-26T07:11:41.141Z</time></trkpt><trkpt lat="44.0401455" lon="8.0488388"><ele>360.0</ele><time>2026-04-26T07:11:43.127Z</time></trkpt><trkpt lat="44.0401775" lon="8.0491892"><ele>357.75</ele><time>2026-04-26T07:11:45.11Z</time></trkpt><trkpt lat="44.04025" lon="8.0494833"><ele>355.5</ele><time>2026-04-26T07:11:47.169Z</time></trkpt><trkpt lat="44.0403547" lon="8.0496219"><ele>353.25</ele><time>2026-04-26T07:11:49.008Z</time></trkpt><trkpt lat="44.0404261" lon="8.0496417"><ele>351.0</ele><time>2026-04-26T07:11:49.936Z</time></trkpt><trkpt lat="44.040548" lon="8.0497005"><ele>351.0</ele><time>2026-04-26T07:11:52.164Z</time></trkpt><trkpt lat="44.0405722" lon="8.0498209"><ele>351.0</ele><time>2026-04-26T07:11:53.886Z</time></trkpt><trkpt lat="44.0405558" lon="8.0499352"><ele>351.0</ele><time>2026-04-26T07:11:54.96Z</time></trkpt><trkpt lat="44.0405242" lon="8.0500555"><ele>351.0</ele><time>2026-04-26T07:11:55.946Z</time></trkpt><trkpt lat="44.0405179" lon="8.0502041"><ele>351.0</ele><time>2026-04-26T07:11:57.084Z</time></trkpt><trkpt lat="44.0405317" lon="8.0503302"><ele>348.25</ele><time>2026-04-26T07:11:58.053Z</time></trkpt><trkpt lat="44.0405676" lon="8.0504683"><ele>345.5</ele><time>2026-04-26T07:11:58.989Z</time></trkpt><trkpt lat="44.0406263" lon="8.0506422"><ele>342.75</ele><time>2026-04-26T07:12:00.218Z</time></trkpt><trkpt lat="44.0406651" lon="8.0508988"><ele>340.0</ele><time>2026-04-26T07:12:02.098Z</time></trkpt><trkpt lat="44.0406719" lon="8.0510067"><ele>339.5</ele><time>2026-04-26T07:12:03.081Z</time></trkpt><trkpt lat="44.0407059" lon="8.0511224"><ele>339.0</ele><time>2026-04-26T07:12:04.147Z</time></trkpt><trkpt lat="44.040775" lon="8.0512125"><ele>338.5</ele><time>2026-04-26T07:12:05.085Z</time></trkpt><trkpt lat="44.040893" lon="8.0512785"><ele>338.0</ele><time>2026-04-26T07:12:06.274Z</time></trkpt><trkpt lat="44.0411005" lon="8.051332"><ele>340.59999999999997</ele><time>2026-04-26T07:12:07.977Z</time></trkpt><trkpt lat="44.0412026" lon="8.0513579"><ele>343.2</ele><time>2026-04-26T07:12:08.994Z</time></trkpt><trkpt lat="44.041294" lon="8.0514047"><ele>345.8</ele><time>2026-04-26T07:12:09.967Z</time></trkpt><trkpt lat="44.0413806" lon="8.0514753"><ele>348.4</ele><time>2026-04-26T07:12:11.019Z</time></trkpt><trkpt lat="44.041445" lon="8.0515816"><ele>351.0</ele><time>2026-04-26T07:12:11.993Z</time></trkpt><trkpt lat="44.0414947" lon="8.0517129"><ele>351.0</ele><time>2026-04-26T07:12:12.97Z</time></trkpt><trkpt lat="44.0415275" lon="8.0519659"><ele>351.0</ele><time>2026-04-26T07:12:14.899Z</time></trkpt><trkpt lat="44.0415341" lon="8.0521493"><ele>351.0</ele><time>2026-04-26T07:12:16.267Z</time></trkpt><trkpt lat="44.0414302" lon="8.052438"><ele>350.3333333333333</ele><time>2026-04-26T07:12:17.957Z</time></trkpt><trkpt lat="44.0413672" lon="8.0526249"><ele>349.66666666666663</ele><time>2026-04-26T07:12:19.149Z</time></trkpt><trkpt lat="44.0412568" lon="8.0528646"><ele>349.0</ele><time>2026-04-26T07:12:21.059Z</time></trkpt><trkpt lat="44.041203" lon="8.0530063"><ele>351.75</ele><time>2026-04-26T07:12:22.109Z</time></trkpt><trkpt lat="44.0411738" lon="8.0533126"><ele>354.5</ele><time>2026-04-26T07:12:24.081Z</time></trkpt><trkpt lat="44.0411507" lon="8.0534497"><ele>357.25</ele><time>2026-04-26T07:12:25.049Z</time></trkpt><trkpt lat="44.0411089" lon="8.0535752"><ele>360.0</ele><time>2026-04-26T07:12:26.077Z</time></trkpt><trkpt lat="44.041063" lon="8.0537078"><ele>360.0</ele><time>2026-04-26T07:12:27.144Z</time></trkpt><trkpt lat="44.0410276" lon="8.053839"><ele>360.0</ele><time>2026-04-26T07:12:28.166Z</time></trkpt><trkpt lat="44.040983" lon="8.0540379"><ele>360.0</ele><time>2026-04-26T07:12:30.197Z</time></trkpt><trkpt lat="44.0409842" lon="8.0541989"><ele>360.0</ele><time>2026-04-26T07:12:32.124Z</time></trkpt><trkpt lat="44.0410902" lon="8.0543226"><ele>362.0</ele><time>2026-04-26T07:12:34.145Z</time></trkpt><trkpt lat="44.0411874" lon="8.0543513"><ele>364.0</ele><time>2026-04-26T07:12:35.134Z</time></trkpt><trkpt lat="44.0412744" lon="8.0543624"><ele>366.0</ele><time>2026-04-26T07:12:36.035Z</time></trkpt><trkpt lat="44.0414012" lon="8.0543461"><ele>368.0</ele><time>2026-04-26T07:12:37.24Z</time></trkpt><trkpt lat="44.0416026" lon="8.0542572"><ele>370.0</ele><time>2026-04-26T07:12:39.107Z</time></trkpt><trkpt lat="44.0416809" lon="8.0542283"><ele>372.0</ele><time>2026-04-26T07:12:40.149Z</time></trkpt><trkpt lat="44.0417443" lon="8.0542118"><ele>374.0</ele><time>2026-04-26T07:12:41.077Z</time></trkpt><trkpt lat="44.0418318" lon="8.0542146"><ele>376.0</ele><time>2026-04-26T07:12:42.282Z</time></trkpt><trkpt lat="44.041954" lon="8.0543588"><ele>378.0</ele><time>2026-04-26T07:12:44.135Z</time></trkpt><trkpt lat="44.0419744" lon="8.0544733"><ele>378.0</ele><time>2026-04-26T07:12:45.091Z</time></trkpt><trkpt lat="44.0419667" lon="8.0545712"><ele>378.0</ele><time>2026-04-26T07:12:46.12Z</time></trkpt><trkpt lat="44.0420432" lon="8.0547262"><ele>378.0</ele><time>2026-04-26T07:12:47.892Z</time></trkpt><trkpt lat="44.0421545" lon="8.0548252"><ele>378.0</ele><time>2026-04-26T07:12:49.153Z</time></trkpt><trkpt lat="44.0422536" lon="8.0548607"><ele>378.0</ele><time>2026-04-26T07:12:50.184Z</time></trkpt><trkpt lat="44.042385" lon="8.054983"><ele>371.6666666666667</ele><time>2026-04-26T07:12:52.151Z</time></trkpt><trkpt lat="44.042454" lon="8.0552837"><ele>365.33333333333337</ele><time>2026-04-26T07:12:54.241Z</time></trkpt><trkpt lat="44.0423991" lon="8.0555396"><ele>359.0</ele><time>2026-04-26T07:12:56.143Z</time></trkpt><trkpt lat="44.0422865" lon="8.0557909"><ele>356.75</ele><time>2026-04-26T07:12:58.171Z</time></trkpt><trkpt lat="44.0422742" lon="8.0559004"><ele>354.5</ele><time>2026-04-26T07:12:59.078Z</time></trkpt><trkpt lat="44.0422979" lon="8.056036"><ele>352.25</ele><time>2026-04-26T07:13:00.036Z</time></trkpt><trkpt lat="44.0423539" lon="8.056206"><ele>350.0</ele><time>2026-04-26T07:13:01.213Z</time></trkpt><trkpt lat="44.0423656" lon="8.0565087"><ele>348.6666666666667</ele><time>2026-04-26T07:13:03.137Z</time></trkpt><trkpt lat="44.0423032" lon="8.0567714"><ele>347.3333333333333</ele><time>2026-04-26T07:13:05.042Z</time></trkpt><trkpt lat="44.0422635" lon="8.0569024"><ele>346.0</ele><time>2026-04-26T07:13:06.09Z</time></trkpt><trkpt lat="44.0422596" lon="8.0571149"><ele>346.0</ele><time>2026-04-26T07:13:07.922Z</time></trkpt><trkpt lat="44.042299" lon="8.0572397"><ele>346.0</ele><time>2026-04-26T07:13:09.056Z</time></trkpt><trkpt lat="44.0424234" lon="8.0573374"><ele>346.0</ele><time>2026-04-26T07:13:10.894Z</time></trkpt><trkpt lat="44.0426188" lon="8.057281"><ele>346.0</ele><time>2026-04-26T07:13:12.968Z</time></trkpt><trkpt lat="44.0427445" lon="8.057226"><ele>353.5</ele><time>2026-04-26T07:13:14.011Z</time></trkpt><trkpt lat="44.0428699" lon="8.0571826"><ele>361.0</ele><time>2026-04-26T07:13:15.081Z</time></trkpt><trkpt lat="44.0429678" lon="8.0571493"><ele>368.5</ele><time>2026-04-26T07:13:16.004Z</time></trkpt><trkpt lat="44.04309" lon="8.0571377"><ele>376.0</ele><time>2026-04-26T07:13:17.138Z</time></trkpt><trkpt lat="44.0432961" lon="8.0571977"><ele>373.5</ele><time>2026-04-26T07:13:19.154Z</time></trkpt><trkpt lat="44.0433842" lon="8.0572628"><ele>371.0</ele><time>2026-04-26T07:13:20.113Z</time></trkpt><trkpt lat="44.0434842" lon="8.0573598"><ele>368.5</ele><time>2026-04-26T07:13:21.156Z</time></trkpt><trkpt lat="44.0436282" lon="8.0575357"><ele>366.0</ele><time>2026-04-26T07:13:23.16Z</time></trkpt><trkpt lat="44.043754" lon="8.057701"><ele>366.0</ele><time>2026-04-26T07:13:25.227Z</time></trkpt><trkpt lat="44.0438425" lon="8.0577653"><ele>366.0</ele><time>2026-04-26T07:13:26.16Z</time></trkpt><trkpt lat="44.0440537" lon="8.0579193"><ele>366.0</ele><time>2026-04-26T07:13:28.242Z</time></trkpt><trkpt lat="44.0442172" lon="8.0580953"><ele>367.25</ele><time>2026-04-26T07:13:30.073Z</time></trkpt><trkpt lat="44.0442989" lon="8.0581807"><ele>368.5</ele><time>2026-04-26T07:13:31.054Z</time></trkpt><trkpt lat="44.0443939" lon="8.0582762"><ele>369.75</ele><time>2026-04-26T07:13:32.218Z</time></trkpt><trkpt lat="44.0445376" lon="8.0584407"><ele>371.0</ele><time>2026-04-26T07:13:34.28Z</time></trkpt><trkpt lat="44.0446352" lon="8.0586786"><ele>368.25</ele><time>2026-04-26T07:13:36.229Z</time></trkpt><trkpt lat="44.0446765" lon="8.058936"><ele>365.5</ele><time>2026-04-26T07:13:37.881Z</time></trkpt><trkpt lat="44.0446973" lon="8.059121"><ele>362.75</ele><time>2026-04-26T07:13:39.099Z</time></trkpt><trkpt lat="44.0447064" lon="8.0592847"><ele>360.0</ele><time>2026-04-26T07:13:40.064Z</time></trkpt><trkpt lat="44.0447397" lon="8.059569"><ele>356.5</ele><time>2026-04-26T07:13:41.955Z</time></trkpt><trkpt lat="44.0447636" lon="8.0597206"><ele>353.0</ele><time>2026-04-26T07:13:43.021Z</time></trkpt><trkpt lat="44.0448029" lon="8.059974"><ele>349.5</ele><time>2026-04-26T07:13:44.93Z</time></trkpt><trkpt lat="44.0448155" lon="8.0600999"><ele>346.0</ele><time>2026-04-26T07:13:45.998Z</time></trkpt><trkpt lat="44.0448013" lon="8.0602158"><ele>345.25</ele><time>2026-04-26T07:13:46.991Z</time></trkpt><trkpt lat="44.0447471" lon="8.0603503"><ele>344.5</ele><time>2026-04-26T07:13:48.01Z</time></trkpt><trkpt lat="44.0446426" lon="8.0605825"><ele>343.75</ele><time>2026-04-26T07:13:49.974Z</time></trkpt><trkpt lat="44.0445912" lon="8.0606962"><ele>343.0</ele><time>2026-04-26T07:13:50.94Z</time></trkpt><trkpt lat="44.0445529" lon="8.0607923"><ele>342.59999999999997</ele><time>2026-04-26T07:13:51.922Z</time></trkpt><trkpt lat="44.0445329" lon="8.0608885"><ele>342.2</ele><time>2026-04-26T07:13:52.88Z</time></trkpt><trkpt lat="44.0445385" lon="8.0610168"><ele>341.8</ele><time>2026-04-26T07:13:54.017Z</time></trkpt><trkpt lat="44.044575" lon="8.0611339"><ele>341.4</ele><time>2026-04-26T07:13:54.999Z</time></trkpt><trkpt lat="44.044633" lon="8.061239"><ele>341.0</ele><time>2026-04-26T07:13:55.962Z</time></trkpt><trkpt lat="44.0446999" lon="8.0613401"><ele>341.0</ele><time>2026-04-26T07:13:56.984Z</time></trkpt><trkpt lat="44.0447667" lon="8.0614514"><ele>341.0</ele><time>2026-04-26T07:13:57.981Z</time></trkpt><trkpt lat="44.0448263" lon="8.0615826"><ele>341.0</ele><time>2026-04-26T07:13:59.133Z</time></trkpt><trkpt lat="44.0448622" lon="8.0618117"><ele>341.0</ele><time>2026-04-26T07:14:01.056Z</time></trkpt><trkpt lat="44.0447857" lon="8.0620654"><ele>339.8</ele><time>2026-04-26T07:14:03.088Z</time></trkpt><trkpt lat="44.0447179" lon="8.0621715"><ele>338.6</ele><time>2026-04-26T07:14:03.996Z</time></trkpt><trkpt lat="44.044631" lon="8.0622717"><ele>337.4</ele><time>2026-04-26T07:14:04.976Z</time></trkpt><trkpt lat="44.044547" lon="8.0623855"><ele>336.2</ele><time>2026-04-26T07:14:06.029Z</time></trkpt><trkpt lat="44.0444663" lon="8.0624993"><ele>335.0</ele><time>2026-04-26T07:14:07.119Z</time></trkpt><trkpt lat="44.0442902" lon="8.0626273"><ele>333.0</ele><time>2026-04-26T07:14:08.97Z</time></trkpt><trkpt lat="44.044187" lon="8.0626553"><ele>331.0</ele><time>2026-04-26T07:14:09.997Z</time></trkpt><trkpt lat="44.0440017" lon="8.0627275"><ele>329.0</ele><time>2026-04-26T07:14:11.977Z</time></trkpt><trkpt lat="44.0439197" lon="8.0627653"><ele>327.0</ele><time>2026-04-26T07:14:13.017Z</time></trkpt><trkpt lat="44.0438524" lon="8.0627931"><ele>327.0</ele><time>2026-04-26T07:14:13.978Z</time></trkpt><trkpt lat="44.0437916" lon="8.0628238"><ele>327.0</ele><time>2026-04-26T07:14:14.956Z</time></trkpt><trkpt lat="44.0437357" lon="8.0629303"><ele>327.0</ele><time>2026-04-26T07:14:17.009Z</time></trkpt><trkpt lat="44.0437494" lon="8.0630187"><ele>327.0</ele><time>2026-04-26T07:14:17.994Z</time></trkpt><trkpt lat="44.0437811" lon="8.0631613"><ele>327.0</ele><time>2026-04-26T07:14:19.002Z</time></trkpt><trkpt lat="44.0438573" lon="8.063349"><ele>327.3333333333333</ele><time>2026-04-26T07:14:20.087Z</time></trkpt><trkpt lat="44.04393" lon="8.0636734"><ele>327.66666666666663</ele><time>2026-04-26T07:14:22Z</time></trkpt><trkpt lat="44.0439515" lon="8.0638112"><ele>328.0</ele><time>2026-04-26T07:14:22.93Z</time></trkpt><trkpt lat="44.0439759" lon="8.0639575"><ele>328.0</ele><time>2026-04-26T07:14:24.018Z</time></trkpt><trkpt lat="44.0440126" lon="8.0640715"><ele>328.0</ele><time>2026-04-26T07:14:24.945Z</time></trkpt><trkpt lat="44.0440664" lon="8.0642244"><ele>328.0</ele><time>2026-04-26T07:14:25.934Z</time></trkpt><trkpt lat="44.0441352" lon="8.0642959"><ele>328.0</ele><time>2026-04-26T07:14:26.946Z</time></trkpt><trkpt lat="44.0441868" lon="8.0643909"><ele>328.0</ele><time>2026-04-26T07:14:28.015Z</time></trkpt><trkpt lat="44.0442228" lon="8.0644903"><ele>332.25</ele><time>2026-04-26T07:14:29.019Z</time></trkpt><trkpt lat="44.0442579" lon="8.0646747"><ele>336.5</ele><time>2026-04-26T07:14:30.085Z</time></trkpt><trkpt lat="44.0442183" lon="8.0648222"><ele>340.75</ele><time>2026-04-26T07:14:31.033Z</time></trkpt><trkpt lat="44.0440962" lon="8.064944"><ele>345.0</ele><time>2026-04-26T07:14:32.069Z</time></trkpt><trkpt lat="44.0440644" lon="8.0650512"><ele>342.25</ele><time>2026-04-26T07:14:33.061Z</time></trkpt><trkpt lat="44.0440462" lon="8.0651621"><ele>339.5</ele><time>2026-04-26T07:14:34.182Z</time></trkpt><trkpt lat="44.0441012" lon="8.0653038"><ele>336.75</ele><time>2026-04-26T07:14:36.133Z</time></trkpt><trkpt lat="44.0442038" lon="8.0653256"><ele>334.0</ele><time>2026-04-26T07:14:38.125Z</time></trkpt><trkpt lat="44.0444355" lon="8.0652564"><ele>334.0</ele><time>2026-04-26T07:14:40.13Z</time></trkpt><trkpt lat="44.044598" lon="8.0653344"><ele>334.0</ele><time>2026-04-26T07:14:42.053Z</time></trkpt><trkpt lat="44.0446594" lon="8.0654708"><ele>334.0</ele><time>2026-04-26T07:14:43.236Z</time></trkpt><trkpt lat="44.0446869" lon="8.0657597"><ele>336.66666666666663</ele><time>2026-04-26T07:14:45.141Z</time></trkpt><trkpt lat="44.0447369" lon="8.0659343"><ele>339.3333333333333</ele><time>2026-04-26T07:14:46.185Z</time></trkpt><trkpt lat="44.0449193" lon="8.0661954"><ele>342.0</ele><time>2026-04-26T07:14:48.177Z</time></trkpt><trkpt lat="44.0450826" lon="8.0664626"><ele>338.3333333333333</ele><time>2026-04-26T07:14:50.346Z</time></trkpt><trkpt lat="44.0451556" lon="8.0667521"><ele>334.66666666666663</ele><time>2026-04-26T07:14:52.242Z</time></trkpt><trkpt lat="44.0451623" lon="8.0670619"><ele>331.0</ele><time>2026-04-26T07:14:54.194Z</time></trkpt><trkpt lat="44.0451019" lon="8.0673382"><ele>330.5</ele><time>2026-04-26T07:14:56.115Z</time></trkpt><trkpt lat="44.0450625" lon="8.0674973"><ele>330.0</ele><time>2026-04-26T07:14:57.133Z</time></trkpt><trkpt lat="44.0450224" lon="8.0676411"><ele>329.5</ele><time>2026-04-26T07:14:58.146Z</time></trkpt><trkpt lat="44.0449802" lon="8.0677833"><ele>329.0</ele><time>2026-04-26T07:14:59.085Z</time></trkpt><trkpt lat="44.0449135" lon="8.067928"><ele>320.0</ele><time>2026-04-26T07:15:00.1Z</time></trkpt><trkpt lat="44.0448496" lon="8.068087"><ele>311.0</ele><time>2026-04-26T07:15:01.19Z</time></trkpt><trkpt lat="44.0447879" lon="8.0683904"><ele>302.0</ele><time>2026-04-26T07:15:03.181Z</time></trkpt><trkpt lat="44.0447172" lon="8.0686919"><ele>302.0</ele><time>2026-04-26T07:15:05.266Z</time></trkpt><trkpt lat="44.0445842" lon="8.06888"><ele>302.0</ele><time>2026-04-26T07:15:06.993Z</time></trkpt><trkpt lat="44.0445291" lon="8.0689804"><ele>302.0</ele><time>2026-04-26T07:15:07.912Z</time></trkpt><trkpt lat="44.0444925" lon="8.0691058"><ele>302.0</ele><time>2026-04-26T07:15:09.112Z</time></trkpt><trkpt lat="44.0445284" lon="8.0693105"><ele>304.25</ele><time>2026-04-26T07:15:11.268Z</time></trkpt><trkpt lat="44.044685" lon="8.0694758"><ele>306.5</ele><time>2026-04-26T07:15:13.134Z</time></trkpt><trkpt lat="44.0447892" lon="8.0695527"><ele>308.75</ele><time>2026-04-26T07:15:14.105Z</time></trkpt><trkpt lat="44.044893" lon="8.0696666"><ele>311.0</ele><time>2026-04-26T07:15:15.205Z</time></trkpt><trkpt lat="44.0450182" lon="8.0699117"><ele>308.75</ele><time>2026-04-26T07:15:17.235Z</time></trkpt><trkpt lat="44.0450127" lon="8.0701706"><ele>306.5</ele><time>2026-04-26T07:15:19.142Z</time></trkpt><trkpt lat="44.0449658" lon="8.0703006"><ele>304.25</ele><time>2026-04-26T07:15:20.094Z</time></trkpt><trkpt lat="44.044921" lon="8.0704269"><ele>302.0</ele><time>2026-04-26T07:15:21Z</time></trkpt><trkpt lat="44.044882" lon="8.0706169"><ele>303.0</ele><time>2026-04-26T07:15:22.271Z</time></trkpt><trkpt lat="44.0449083" lon="8.0708798"><ele>304.0</ele><time>2026-04-26T07:15:24.133Z</time></trkpt><trkpt lat="44.0449701" lon="8.0710231"><ele>305.0</ele><time>2026-04-26T07:15:25.111Z</time></trkpt><trkpt lat="44.0450597" lon="8.0711836"><ele>309.75</ele><time>2026-04-26T07:15:26.254Z</time></trkpt><trkpt lat="44.045163" lon="8.0713856"><ele>314.5</ele><time>2026-04-26T07:15:28.071Z</time></trkpt><trkpt lat="44.0452121" lon="8.0714898"><ele>319.25</ele><time>2026-04-26T07:15:29.214Z</time></trkpt><trkpt lat="44.0451974" lon="8.0716785"><ele>324.0</ele><time>2026-04-26T07:15:31.176Z</time></trkpt><trkpt lat="44.04507" lon="8.0717164"><ele>317.6666666666667</ele><time>2026-04-26T07:15:33.272Z</time></trkpt><trkpt lat="44.0449178" lon="8.0715585"><ele>311.33333333333337</ele><time>2026-04-26T07:15:35.117Z</time></trkpt><trkpt lat="44.0447606" lon="8.0714383"><ele>305.0</ele><time>2026-04-26T07:15:37.052Z</time></trkpt><trkpt lat="44.0446614" lon="8.0714123"><ele>305.0</ele><time>2026-04-26T07:15:38.075Z</time></trkpt><trkpt lat="44.044539" lon="8.0714096"><ele>305.0</ele><time>2026-04-26T07:15:39.174Z</time></trkpt><trkpt lat="44.0442869" lon="8.0713537"><ele>305.0</ele><time>2026-04-26T07:15:41.174Z</time></trkpt><trkpt lat="44.0440489" lon="8.071285"><ele>304.6</ele><time>2026-04-26T07:15:43.217Z</time></trkpt><trkpt lat="44.0438749" lon="8.0712868"><ele>304.2</ele><time>2026-04-26T07:15:45.145Z</time></trkpt><trkpt lat="44.0438076" lon="8.0713183"><ele>303.8</ele><time>2026-04-26T07:15:46.069Z</time></trkpt><trkpt lat="44.0437598" lon="8.0713762"><ele>303.4</ele><time>2026-04-26T07:15:47.05Z</time></trkpt><trkpt lat="44.043727" lon="8.071483"><ele>303.0</ele><time>2026-04-26T07:15:47.999Z</time></trkpt><trkpt lat="44.0437238" lon="8.0716628"><ele>303.0</ele><time>2026-04-26T07:15:49.184Z</time></trkpt><trkpt lat="44.0437004" lon="8.0719958"><ele>303.0</ele><time>2026-04-26T07:15:51.095Z</time></trkpt><trkpt lat="44.0436675" lon="8.0721765"><ele>303.0</ele><time>2026-04-26T07:15:52.077Z</time></trkpt><trkpt lat="44.0436203" lon="8.0723662"><ele>304.5</ele><time>2026-04-26T07:15:53.072Z</time></trkpt><trkpt lat="44.0435618" lon="8.072549"><ele>306.0</ele><time>2026-04-26T07:15:54.073Z</time></trkpt><trkpt lat="44.0435098" lon="8.0727143"><ele>307.5</ele><time>2026-04-26T07:15:55.001Z</time></trkpt><trkpt lat="44.0434407" lon="8.0728943"><ele>309.0</ele><time>2026-04-26T07:15:56.156Z</time></trkpt><trkpt lat="44.0432731" lon="8.0731714"><ele>305.25</ele><time>2026-04-26T07:15:58.107Z</time></trkpt><trkpt lat="44.0431682" lon="8.0733091"><ele>301.5</ele><time>2026-04-26T07:15:59.152Z</time></trkpt><trkpt lat="44.0430877" lon="8.073419"><ele>297.75</ele><time>2026-04-26T07:16:00.07Z</time></trkpt><trkpt lat="44.0430016" lon="8.0735549"><ele>294.0</ele><time>2026-04-26T07:16:01.066Z</time></trkpt><trkpt lat="44.0429064" lon="8.073693"><ele>294.0</ele><time>2026-04-26T07:16:02.166Z</time></trkpt><trkpt lat="44.0427789" lon="8.0738854"><ele>294.0</ele><time>2026-04-26T07:16:04.16Z</time></trkpt><trkpt lat="44.0427615" lon="8.0740018"><ele>294.0</ele><time>2026-04-26T07:16:05.139Z</time></trkpt><trkpt lat="44.0428253" lon="8.07427"><ele>295.8</ele><time>2026-04-26T07:16:07.225Z</time></trkpt><trkpt lat="44.0428935" lon="8.0744247"><ele>297.59999999999997</ele><time>2026-04-26T07:16:08.224Z</time></trkpt><trkpt lat="44.0429593" lon="8.0745601"><ele>299.4</ele><time>2026-04-26T07:16:09.186Z</time></trkpt><trkpt lat="44.042997" lon="8.0746705"><ele>301.2</ele><time>2026-04-26T07:16:10.101Z</time></trkpt><trkpt lat="44.0429977" lon="8.0747914"><ele>303.0</ele><time>2026-04-26T07:16:11.166Z</time></trkpt><trkpt lat="44.0429469" lon="8.0749182"><ele>301.75</ele><time>2026-04-26T07:16:12.294Z</time></trkpt><trkpt lat="44.0428571" lon="8.0751236"><ele>300.5</ele><time>2026-04-26T07:16:14.199Z</time></trkpt><trkpt lat="44.0428625" lon="8.0753193"><ele>299.25</ele><time>2026-04-26T07:16:16.026Z</time></trkpt><trkpt lat="44.0429155" lon="8.0753964"><ele>298.0</ele><time>2026-04-26T07:16:16.985Z</time></trkpt><trkpt lat="44.0429893" lon="8.0754544"><ele>298.0</ele><time>2026-04-26T07:16:17.974Z</time></trkpt><trkpt lat="44.0430894" lon="8.0754732"><ele>298.0</ele><time>2026-04-26T07:16:18.944Z</time></trkpt><trkpt lat="44.0432228" lon="8.0754648"><ele>298.0</ele><time>2026-04-26T07:16:20.016Z</time></trkpt><trkpt lat="44.0433448" lon="8.0754838"><ele>298.0</ele><time>2026-04-26T07:16:20.928Z</time></trkpt><trkpt lat="44.043502" lon="8.0755333"><ele>304.5</ele><time>2026-04-26T07:16:22.045Z</time></trkpt><trkpt lat="44.0436371" lon="8.0755912"><ele>311.0</ele><time>2026-04-26T07:16:23.014Z</time></trkpt><trkpt lat="44.043773" lon="8.0756375"><ele>317.5</ele><time>2026-04-26T07:16:24.064Z</time></trkpt><trkpt lat="44.043885" lon="8.075656"><ele>324.0</ele><time>2026-04-26T07:16:25.019Z</time></trkpt><trkpt lat="44.0440219" lon="8.0756576"><ele>330.25</ele><time>2026-04-26T07:16:26.064Z</time></trkpt><trkpt lat="44.0441496" lon="8.0756365"><ele>336.5</ele><time>2026-04-26T07:16:27.031Z</time></trkpt><trkpt lat="44.0442717" lon="8.0756093"><ele>342.75</ele><time>2026-04-26T07:16:28.031Z</time></trkpt><trkpt lat="44.0443819" lon="8.0755932"><ele>349.0</ele><time>2026-04-26T07:16:29.22Z</time></trkpt><trkpt lat="44.044516" lon="8.0756771"><ele>342.2</ele><time>2026-04-26T07:16:31.101Z</time></trkpt><trkpt lat="44.0445483" lon="8.0757879"><ele>335.4</ele><time>2026-04-26T07:16:32.015Z</time></trkpt><trkpt lat="44.0445469" lon="8.0758932"><ele>328.6</ele><time>2026-04-26T07:16:33.06Z</time></trkpt><trkpt lat="44.0445061" lon="8.0760236"><ele>321.8</ele><time>2026-04-26T07:16:34.139Z</time></trkpt><trkpt lat="44.0444424" lon="8.0761588"><ele>315.0</ele><time>2026-04-26T07:16:35.069Z</time></trkpt><trkpt lat="44.044352" lon="8.0764591"><ele>315.0</ele><time>2026-04-26T07:16:37.04Z</time></trkpt><trkpt lat="44.0443232" lon="8.0765983"><ele>315.0</ele><time>2026-04-26T07:16:38.036Z</time></trkpt><trkpt lat="44.0442477" lon="8.0768563"><ele>315.0</ele><time>2026-04-26T07:16:40.062Z</time></trkpt><trkpt lat="44.0441586" lon="8.0769815"><ele>315.0</ele><time>2026-04-26T07:16:41.265Z</time></trkpt><trkpt lat="44.043991" lon="8.0771153"><ele>309.4</ele><time>2026-04-26T07:16:42.953Z</time></trkpt><trkpt lat="44.0438964" lon="8.0772089"><ele>303.8</ele><time>2026-04-26T07:16:44.113Z</time></trkpt><trkpt lat="44.0438397" lon="8.0773067"><ele>298.2</ele><time>2026-04-26T07:16:45.046Z</time></trkpt><trkpt lat="44.0437879" lon="8.0774535"><ele>292.6</ele><time>2026-04-26T07:16:46.11Z</time></trkpt><trkpt lat="44.0437833" lon="8.0776159"><ele>287.0</ele><time>2026-04-26T07:16:47.112Z</time></trkpt><trkpt lat="44.043767" lon="8.0777956"><ele>287.0</ele><time>2026-04-26T07:16:48.144Z</time></trkpt><trkpt lat="44.0437185" lon="8.0779419"><ele>287.0</ele><time>2026-04-26T07:16:49.065Z</time></trkpt><trkpt lat="44.0435485" lon="8.0782353"><ele>287.0</ele><time>2026-04-26T07:16:51.108Z</time></trkpt><trkpt lat="44.0434644" lon="8.0783869"><ele>291.6666666666667</ele><time>2026-04-26T07:16:52.176Z</time></trkpt><trkpt lat="44.0434121" lon="8.0785405"><ele>296.3333333333333</ele><time>2026-04-26T07:16:53.079Z</time></trkpt><trkpt lat="44.0433593" lon="8.0787132"><ele>301.0</ele><time>2026-04-26T07:16:54.166Z</time></trkpt><trkpt lat="44.0432614" lon="8.078995"><ele>297.0</ele><time>2026-04-26T07:16:56.101Z</time></trkpt><trkpt lat="44.0432136" lon="8.0791225"><ele>293.0</ele><time>2026-04-26T07:16:57.046Z</time></trkpt><trkpt lat="44.0431653" lon="8.0792642"><ele>289.0</ele><time>2026-04-26T07:16:58.158Z</time></trkpt><trkpt lat="44.0431477" lon="8.0793827"><ele>285.0</ele><time>2026-04-26T07:16:59.162Z</time></trkpt><trkpt lat="44.043152" lon="8.079492"><ele>281.0</ele><time>2026-04-26T07:17:00.091Z</time></trkpt><trkpt lat="44.0431761" lon="8.0795869"><ele>281.0</ele><time>2026-04-26T07:17:01.056Z</time></trkpt><trkpt lat="44.0432314" lon="8.0796559"><ele>281.0</ele><time>2026-04-26T07:17:02.03Z</time></trkpt><trkpt lat="44.043322" lon="8.0797158"><ele>281.0</ele><time>2026-04-26T07:17:03.151Z</time></trkpt><trkpt lat="44.0434166" lon="8.079736"><ele>281.0</ele><time>2026-04-26T07:17:04.09Z</time></trkpt><trkpt lat="44.0434905" lon="8.0797493"><ele>281.0</ele><time>2026-04-26T07:17:05.014Z</time></trkpt><trkpt lat="44.0435613" lon="8.0798039"><ele>281.0</ele><time>2026-04-26T07:17:06.267Z</time></trkpt><trkpt lat="44.0435961" lon="8.0799689"><ele>286.2</ele><time>2026-04-26T07:17:08.125Z</time></trkpt><trkpt lat="44.0435676" lon="8.080088"><ele>291.40000000000003</ele><time>2026-04-26T07:17:09.065Z</time></trkpt><trkpt lat="44.0435127" lon="8.0802318"><ele>296.6</ele><time>2026-04-26T07:17:10.104Z</time></trkpt><trkpt lat="44.0434508" lon="8.0803738"><ele>301.8</ele><time>2026-04-26T07:17:11.094Z</time></trkpt><trkpt lat="44.0433842" lon="8.0804715"><ele>307.0</ele><time>2026-04-26T07:17:12.105Z</time></trkpt><trkpt lat="44.0433029" lon="8.0806882"><ele>306.3333333333333</ele><time>2026-04-26T07:17:14.216Z</time></trkpt><trkpt lat="44.0433115" lon="8.0808306"><ele>305.6666666666667</ele><time>2026-04-26T07:17:15.152Z</time></trkpt><trkpt lat="44.0433419" lon="8.0810341"><ele>305.0</ele><time>2026-04-26T07:17:16.349Z</time></trkpt><trkpt lat="44.0434187" lon="8.0814278"><ele>305.0</ele><time>2026-04-26T07:17:18.374Z</time></trkpt><trkpt lat="44.043481" lon="8.0817197"><ele>305.0</ele><time>2026-04-26T07:17:20.059Z</time></trkpt><trkpt lat="44.0435131" lon="8.0818841"><ele>305.0</ele><time>2026-04-26T07:17:21.201Z</time></trkpt><trkpt lat="44.0435376" lon="8.0819948"><ele>305.0</ele><time>2026-04-26T07:17:22.097Z</time></trkpt><trkpt lat="44.0435572" lon="8.0821196"><ele>305.0</ele><time>2026-04-26T07:17:23.116Z</time></trkpt><trkpt lat="44.0435235" lon="8.0823311"><ele>305.0</ele><time>2026-04-26T07:17:25.164Z</time></trkpt><trkpt lat="44.0433554" lon="8.0824231"><ele>305.0</ele><time>2026-04-26T07:17:27.045Z</time></trkpt><trkpt lat="44.0432485" lon="8.0824369"><ele>305.0</ele><time>2026-04-26T07:17:28.035Z</time></trkpt><trkpt lat="44.0431255" lon="8.0824272"><ele>303.2</ele><time>2026-04-26T07:17:29.156Z</time></trkpt><trkpt lat="44.0430382" lon="8.0823958"><ele>301.4</ele><time>2026-04-26T07:17:30.098Z</time></trkpt><trkpt lat="44.042956" lon="8.0823659"><ele>299.6</ele><time>2026-04-26T07:17:31.051Z</time></trkpt><trkpt lat="44.0428505" lon="8.0823355"><ele>297.8</ele><time>2026-04-26T07:17:32.333Z</time></trkpt><trkpt lat="44.0427192" lon="8.0823633"><ele>296.0</ele><time>2026-04-26T07:17:34.174Z</time></trkpt><trkpt lat="44.0426907" lon="8.0824492"><ele>296.0</ele><time>2026-04-26T07:17:35.096Z</time></trkpt><trkpt lat="44.0426644" lon="8.082569"><ele>296.0</ele><time>2026-04-26T07:17:36.088Z</time></trkpt><trkpt lat="44.042667" lon="8.0827413"><ele>296.0</ele><time>2026-04-26T07:17:37.1Z</time></trkpt><trkpt lat="44.0427096" lon="8.0829655"><ele>296.0</ele><time>2026-04-26T07:17:38.236Z</time></trkpt><trkpt lat="44.0427089" lon="8.0833598"><ele>299.5</ele><time>2026-04-26T07:17:40.195Z</time></trkpt><trkpt lat="44.0426539" lon="8.0837275"><ele>303.0</ele><time>2026-04-26T07:17:42.247Z</time></trkpt><trkpt lat="44.0425368" lon="8.0840517"><ele>297.0</ele><time>2026-04-26T07:17:44.158Z</time></trkpt><trkpt lat="44.0424635" lon="8.0841799"><ele>291.0</ele><time>2026-04-26T07:17:45.058Z</time></trkpt><trkpt lat="44.0423826" lon="8.0843019"><ele>285.0</ele><time>2026-04-26T07:17:46.003Z</time></trkpt><trkpt lat="44.0422997" lon="8.08445"><ele>279.0</ele><time>2026-04-26T07:17:47.173Z</time></trkpt><trkpt lat="44.0422567" lon="8.0845566"><ele>279.0</ele><time>2026-04-26T07:17:48.081Z</time></trkpt><trkpt lat="44.0422099" lon="8.0846903"><ele>279.0</ele><time>2026-04-26T07:17:49.198Z</time></trkpt><trkpt lat="44.0422092" lon="8.0849544"><ele>279.0</ele><time>2026-04-26T07:17:51.011Z</time></trkpt><trkpt lat="44.0422924" lon="8.0851694"><ele>282.0</ele><time>2026-04-26T07:17:52.205Z</time></trkpt><trkpt lat="44.0423702" lon="8.0854217"><ele>285.0</ele><time>2026-04-26T07:17:54.121Z</time></trkpt><trkpt lat="44.0423743" lon="8.0855655"><ele>288.0</ele><time>2026-04-26T07:17:55.101Z</time></trkpt><trkpt lat="44.0422378" lon="8.0860774"><ele>289.6666666666667</ele><time>2026-04-26T07:17:58.114Z</time></trkpt><trkpt lat="44.042175" lon="8.0862554"><ele>291.33333333333337</ele><time>2026-04-26T07:17:59.173Z</time></trkpt><trkpt lat="44.0420593" lon="8.0865465"><ele>293.0</ele><time>2026-04-26T07:18:01.211Z</time></trkpt><trkpt lat="44.0419717" lon="8.0868439"><ele>295.33333333333337</ele><time>2026-04-26T07:18:03.076Z</time></trkpt><trkpt lat="44.041944" lon="8.0870369"><ele>297.6666666666667</ele><time>2026-04-26T07:18:04.138Z</time></trkpt><trkpt lat="44.0419223" lon="8.0872307"><ele>300.0</ele><time>2026-04-26T07:18:05.254Z</time></trkpt><trkpt lat="44.0419088" lon="8.0874993"><ele>302.6666666666667</ele><time>2026-04-26T07:18:07.188Z</time></trkpt><trkpt lat="44.0418794" lon="8.0877438"><ele>305.33333333333337</ele><time>2026-04-26T07:18:09.244Z</time></trkpt><trkpt lat="44.041753" lon="8.0880067"><ele>308.0</ele><time>2026-04-26T07:18:11.148Z</time></trkpt><trkpt lat="44.0416185" lon="8.0882301"><ele>304.4</ele><time>2026-04-26T07:18:13.17Z</time></trkpt><trkpt lat="44.0415681" lon="8.0883159"><ele>300.8</ele><time>2026-04-26T07:18:14.131Z</time></trkpt><trkpt lat="44.0414818" lon="8.0884732"><ele>297.2</ele><time>2026-04-26T07:18:17.077Z</time></trkpt><trkpt lat="44.0414417" lon="8.0885676"><ele>293.6</ele><time>2026-04-26T07:18:20.191Z</time></trkpt><trkpt lat="44.0414343" lon="8.0886955"><ele>290.0</ele><time>2026-04-26T07:18:37.967Z</time></trkpt><trkpt lat="44.0414312" lon="8.0887923"><ele>290.0</ele><time>2026-04-26T07:18:39.001Z</time></trkpt><trkpt lat="44.0414231" lon="8.0889001"><ele>290.0</ele><time>2026-04-26T07:18:40.008Z</time></trkpt><trkpt lat="44.0414175" lon="8.0890135"><ele>290.0</ele><time>2026-04-26T07:18:41.011Z</time></trkpt><trkpt lat="44.041413" lon="8.089126"><ele>290.0</ele><time>2026-04-26T07:18:41.976Z</time></trkpt><trkpt lat="44.0414095" lon="8.0892373"><ele>290.0</ele><time>2026-04-26T07:18:42.928Z</time></trkpt><trkpt lat="44.0414132" lon="8.0893393"><ele>290.0</ele><time>2026-04-26T07:18:43.981Z</time></trkpt><trkpt lat="44.0414398" lon="8.089428"><ele>291.4</ele><time>2026-04-26T07:18:44.964Z</time></trkpt><trkpt lat="44.0414895" lon="8.0894934"><ele>292.8</ele><time>2026-04-26T07:18:45.878Z</time></trkpt><trkpt lat="44.041576" lon="8.0895492"><ele>294.2</ele><time>2026-04-26T07:18:46.92Z</time></trkpt><trkpt lat="44.0416681" lon="8.0896112"><ele>295.6</ele><time>2026-04-26T07:18:47.926Z</time></trkpt><trkpt lat="44.0417887" lon="8.0896875"><ele>297.0</ele><time>2026-04-26T07:18:48.949Z</time></trkpt><trkpt lat="44.0419178" lon="8.0897591"><ele>300.3333333333333</ele><time>2026-04-26T07:18:50.059Z</time></trkpt><trkpt lat="44.0421081" lon="8.0899216"><ele>303.66666666666663</ele><time>2026-04-26T07:18:51.928Z</time></trkpt><trkpt lat="44.0421877" lon="8.0900337"><ele>307.0</ele><time>2026-04-26T07:18:52.856Z</time></trkpt><trkpt lat="44.0422678" lon="8.0901664"><ele>307.0</ele><time>2026-04-26T07:18:53.903Z</time></trkpt><trkpt lat="44.042324" lon="8.0902857"><ele>307.0</ele><time>2026-04-26T07:18:54.874Z</time></trkpt><trkpt lat="44.0423617" lon="8.090461"><ele>307.0</ele><time>2026-04-26T07:18:56.098Z</time></trkpt><trkpt lat="44.0423573" lon="8.0906255"><ele>307.0</ele><time>2026-04-26T07:18:57.099Z</time></trkpt><trkpt lat="44.0423424" lon="8.0907883"><ele>304.75</ele><time>2026-04-26T07:18:58.115Z</time></trkpt><trkpt lat="44.0423463" lon="8.0909661"><ele>302.5</ele><time>2026-04-26T07:18:59.088Z</time></trkpt><trkpt lat="44.0423592" lon="8.0911552"><ele>300.25</ele><time>2026-04-26T07:19:00.125Z</time></trkpt><trkpt lat="44.0423788" lon="8.0913503"><ele>298.0</ele><time>2026-04-26T07:19:01.124Z</time></trkpt><trkpt lat="44.0423891" lon="8.0915446"><ele>296.66666666666663</ele><time>2026-04-26T07:19:02.066Z</time></trkpt><trkpt lat="44.0423874" lon="8.0917693"><ele>295.3333333333333</ele><time>2026-04-26T07:19:03.205Z</time></trkpt><trkpt lat="44.0423488" lon="8.0920921"><ele>294.0</ele><time>2026-04-26T07:19:05.083Z</time></trkpt><trkpt lat="44.0423018" lon="8.0922706"><ele>294.75</ele><time>2026-04-26T07:19:06.092Z</time></trkpt><trkpt lat="44.0422472" lon="8.0924385"><ele>295.5</ele><time>2026-04-26T07:19:07.102Z</time></trkpt><trkpt lat="44.0421868" lon="8.0925958"><ele>296.25</ele><time>2026-04-26T07:19:08.053Z</time></trkpt><trkpt lat="44.0421136" lon="8.0927513"><ele>297.0</ele><time>2026-04-26T07:19:09.169Z</time></trkpt><trkpt lat="44.0419711" lon="8.0930278"><ele>298.6666666666667</ele><time>2026-04-26T07:19:11.216Z</time></trkpt><trkpt lat="44.0419311" lon="8.0933054"><ele>300.33333333333337</ele><time>2026-04-26T07:19:12.94Z</time></trkpt><trkpt lat="44.0419291" lon="8.0935183"><ele>302.0</ele><time>2026-04-26T07:19:14.192Z</time></trkpt><trkpt lat="44.0419257" lon="8.0938479"><ele>302.0</ele><time>2026-04-26T07:19:16.275Z</time></trkpt><trkpt lat="44.0419162" lon="8.0939751"><ele>302.0</ele><time>2026-04-26T07:19:17.181Z</time></trkpt><trkpt lat="44.0419037" lon="8.0940912"><ele>302.0</ele><time>2026-04-26T07:19:18.162Z</time></trkpt><trkpt lat="44.0418963" lon="8.0942704"><ele>302.0</ele><time>2026-04-26T07:19:20.321Z</time></trkpt><trkpt lat="44.0419734" lon="8.0943772"><ele>302.0</ele><time>2026-04-26T07:19:22.278Z</time></trkpt><trkpt lat="44.0420515" lon="8.0944858"><ele>303.0</ele><time>2026-04-26T07:19:24.134Z</time></trkpt><trkpt lat="44.0420872" lon="8.0945771"><ele>304.0</ele><time>2026-04-26T07:19:25.084Z</time></trkpt><trkpt lat="44.0421305" lon="8.094693"><ele>305.0</ele><time>2026-04-26T07:19:26.186Z</time></trkpt><trkpt lat="44.0422301" lon="8.0948864"><ele>306.0</ele><time>2026-04-26T07:19:28.022Z</time></trkpt><trkpt lat="44.0422961" lon="8.0949774"><ele>307.0</ele><time>2026-04-26T07:19:29.126Z</time></trkpt><trkpt lat="44.0424077" lon="8.095131"><ele>308.25</ele><time>2026-04-26T07:19:30.994Z</time></trkpt><trkpt lat="44.0424968" lon="8.0951872"><ele>309.5</ele><time>2026-04-26T07:19:31.97Z</time></trkpt><trkpt lat="44.0426273" lon="8.0951964"><ele>310.75</ele><time>2026-04-26T07:19:33.025Z</time></trkpt><trkpt lat="44.0427415" lon="8.095206"><ele>312.0</ele><time>2026-04-26T07:19:34.015Z</time></trkpt><trkpt lat="44.042967" lon="8.0952737"><ele>312.0</ele><time>2026-04-26T07:19:36.007Z</time></trkpt><trkpt lat="44.0430743" lon="8.0953287"><ele>312.0</ele><time>2026-04-26T07:19:37.098Z</time></trkpt><trkpt lat="44.0431716" lon="8.0954118"><ele>312.0</ele><time>2026-04-26T07:19:38.085Z</time></trkpt><trkpt lat="44.0432696" lon="8.0955352"><ele>312.0</ele><time>2026-04-26T07:19:39.197Z</time></trkpt><trkpt lat="44.0433977" lon="8.0958434"><ele>309.75</ele><time>2026-04-26T07:19:41.145Z</time></trkpt><trkpt lat="44.043447" lon="8.0959838"><ele>307.5</ele><time>2026-04-26T07:19:42.109Z</time></trkpt><trkpt lat="44.0434942" lon="8.0961322"><ele>305.25</ele><time>2026-04-26T07:19:43.098Z</time></trkpt><trkpt lat="44.0435444" lon="8.0962818"><ele>303.0</ele><time>2026-04-26T07:19:44.099Z</time></trkpt><trkpt lat="44.0435969" lon="8.0964325"><ele>303.0</ele><time>2026-04-26T07:19:45.047Z</time></trkpt><trkpt lat="44.043647" lon="8.0965766"><ele>303.0</ele><time>2026-04-26T07:19:45.962Z</time></trkpt><trkpt lat="44.0437085" lon="8.0967756"><ele>303.0</ele><time>2026-04-26T07:19:47.11Z</time></trkpt><trkpt lat="44.0437851" lon="8.0970688"><ele>299.75</ele><time>2026-04-26T07:19:48.943Z</time></trkpt><trkpt lat="44.0438056" lon="8.0972363"><ele>296.5</ele><time>2026-04-26T07:19:49.99Z</time></trkpt><trkpt lat="44.0437937" lon="8.0974031"><ele>293.25</ele><time>2026-04-26T07:19:50.96Z</time></trkpt><trkpt lat="44.0437672" lon="8.097581"><ele>290.0</ele><time>2026-04-26T07:19:51.953Z</time></trkpt><trkpt lat="44.0437519" lon="8.0977659"><ele>288.25</ele><time>2026-04-26T07:19:52.903Z</time></trkpt><trkpt lat="44.0437419" lon="8.0979555"><ele>286.5</ele><time>2026-04-26T07:19:53.868Z</time></trkpt><trkpt lat="44.0437434" lon="8.0981716"><ele>284.75</ele><time>2026-04-26T07:19:55.017Z</time></trkpt><trkpt lat="44.0437476" lon="8.0983532"><ele>283.0</ele><time>2026-04-26T07:19:55.994Z</time></trkpt><trkpt lat="44.0437672" lon="8.0985457"><ele>281.75</ele><time>2026-04-26T07:19:56.988Z</time></trkpt><trkpt lat="44.0438018" lon="8.0987166"><ele>280.5</ele><time>2026-04-26T07:19:57.91Z</time></trkpt><trkpt lat="44.0438517" lon="8.098908"><ele>279.25</ele><time>2026-04-26T07:19:58.984Z</time></trkpt><trkpt lat="44.0438937" lon="8.099074"><ele>278.0</ele><time>2026-04-26T07:19:59.938Z</time></trkpt><trkpt lat="44.0439315" lon="8.0992494"><ele>274.6666666666667</ele><time>2026-04-26T07:20:01.057Z</time></trkpt><trkpt lat="44.0439256" lon="8.0994408"><ele>271.3333333333333</ele><time>2026-04-26T07:20:02.177Z</time></trkpt><trkpt lat="44.0438397" lon="8.0997528"><ele>268.0</ele><time>2026-04-26T07:20:03.988Z</time></trkpt><trkpt lat="44.0438008" lon="8.0999342"><ele>268.0</ele><time>2026-04-26T07:20:05.075Z</time></trkpt><trkpt lat="44.0437965" lon="8.100129"><ele>268.0</ele><time>2026-04-26T07:20:06.12Z</time></trkpt><trkpt lat="44.0438397" lon="8.1002724"><ele>268.0</ele><time>2026-04-26T07:20:07.023Z</time></trkpt><trkpt lat="44.0438296" lon="8.1004503"><ele>268.0</ele><time>2026-04-26T07:20:08.081Z</time></trkpt><trkpt lat="44.0437854" lon="8.1006218"><ele>268.8</ele><time>2026-04-26T07:20:09.039Z</time></trkpt><trkpt lat="44.0437146" lon="8.1007949"><ele>269.6</ele><time>2026-04-26T07:20:10.057Z</time></trkpt><trkpt lat="44.0436718" lon="8.1009088"><ele>270.4</ele><time>2026-04-26T07:20:11.015Z</time></trkpt><trkpt lat="44.0436238" lon="8.1010053"><ele>271.2</ele><time>2026-04-26T07:20:12.132Z</time></trkpt><trkpt lat="44.0435654" lon="8.101061"><ele>272.0</ele><time>2026-04-26T07:20:13.215Z</time></trkpt><trkpt lat="44.0434217" lon="8.1010486"><ele>270.6666666666667</ele><time>2026-04-26T07:20:15.344Z</time></trkpt><trkpt lat="44.043418" lon="8.100747"><ele>269.3333333333333</ele><time>2026-04-26T07:20:16.968Z</time></trkpt><trkpt lat="44.0434591" lon="8.1005296"><ele>268.0</ele><time>2026-04-26T07:20:18.14Z</time></trkpt><trkpt lat="44.0435052" lon="8.1003204"><ele>268.0</ele><time>2026-04-26T07:20:19.273Z</time></trkpt><trkpt lat="44.0434761" lon="8.1000073"><ele>268.0</ele><time>2026-04-26T07:20:20.935Z</time></trkpt><trkpt lat="44.0434856" lon="8.0998285"><ele>268.0</ele><time>2026-04-26T07:20:21.867Z</time></trkpt><trkpt lat="44.0435244" lon="8.099645"><ele>268.0</ele><time>2026-04-26T07:20:22.843Z</time></trkpt><trkpt lat="44.0435465" lon="8.0994352"><ele>268.0</ele><time>2026-04-26T07:20:23.975Z</time></trkpt><trkpt lat="44.0435264" lon="8.0992351"><ele>268.0</ele><time>2026-04-26T07:20:24.95Z</time></trkpt><trkpt lat="44.0434754" lon="8.0990437"><ele>268.0</ele><time>2026-04-26T07:20:26.01Z</time></trkpt><trkpt lat="44.0434174" lon="8.0989127"><ele>270.5</ele><time>2026-04-26T07:20:26.943Z</time></trkpt><trkpt lat="44.043339" lon="8.0987965"><ele>273.0</ele><time>2026-04-26T07:20:28.011Z</time></trkpt><trkpt lat="44.0432675" lon="8.0987225"><ele>275.5</ele><time>2026-04-26T07:20:28.974Z</time></trkpt><trkpt lat="44.0431935" lon="8.0986323"><ele>278.0</ele><time>2026-04-26T07:20:30.094Z</time></trkpt><trkpt lat="44.0430731" lon="8.0984509"><ele>273.4</ele><time>2026-04-26T07:20:32.062Z</time></trkpt><trkpt lat="44.0430209" lon="8.0983588"><ele>268.8</ele><time>2026-04-26T07:20:33.094Z</time></trkpt><trkpt lat="44.0429718" lon="8.0982791"><ele>264.2</ele><time>2026-04-26T07:20:34.136Z</time></trkpt><trkpt lat="44.0428761" lon="8.0980753"><ele>259.6</ele><time>2026-04-26T07:20:36.086Z</time></trkpt><trkpt lat="44.0428394" lon="8.0979532"><ele>255.0</ele><time>2026-04-26T07:20:37.037Z</time></trkpt><trkpt lat="44.0427997" lon="8.0978058"><ele>255.0</ele><time>2026-04-26T07:20:38.109Z</time></trkpt><trkpt lat="44.0427491" lon="8.0976593"><ele>255.0</ele><time>2026-04-26T07:20:39.063Z</time></trkpt><trkpt lat="44.0426787" lon="8.0975024"><ele>255.0</ele><time>2026-04-26T07:20:40.074Z</time></trkpt><trkpt lat="44.0425842" lon="8.0973448"><ele>255.0</ele><time>2026-04-26T07:20:41.146Z</time></trkpt><trkpt lat="44.0424705" lon="8.0970205"><ele>255.0</ele><time>2026-04-26T07:20:43.104Z</time></trkpt><trkpt lat="44.0424289" lon="8.0968531"><ele>255.0</ele><time>2026-04-26T07:20:44.16Z</time></trkpt><trkpt lat="44.0422769" lon="8.0966551"><ele>255.0</ele><time>2026-04-26T07:20:46.181Z</time></trkpt><trkpt lat="44.0420438" lon="8.0965839"><ele>255.66666666666669</ele><time>2026-04-26T07:20:48.058Z</time></trkpt><trkpt lat="44.0418976" lon="8.0965594"><ele>256.33333333333337</ele><time>2026-04-26T07:20:49.077Z</time></trkpt><trkpt lat="44.0417509" lon="8.0965595"><ele>257.0</ele><time>2026-04-26T07:20:50.154Z</time></trkpt><trkpt lat="44.0414976" lon="8.0966924"><ele>257.0</ele><time>2026-04-26T07:20:52.091Z</time></trkpt><trkpt lat="44.0413831" lon="8.0967372"><ele>257.0</ele><time>2026-04-26T07:20:53.172Z</time></trkpt><trkpt lat="44.0412885" lon="8.0967569"><ele>257.0</ele><time>2026-04-26T07:20:54.179Z</time></trkpt><trkpt lat="44.0412108" lon="8.0967837"><ele>257.0</ele><time>2026-04-26T07:20:55.252Z</time></trkpt><trkpt lat="44.041145" lon="8.09689"><ele>257.0</ele><time>2026-04-26T07:20:57.123Z</time></trkpt><trkpt lat="44.0412569" lon="8.0970908"><ele>257.0</ele><time>2026-04-26T07:21:00.005Z</time></trkpt><trkpt lat="44.0413357" lon="8.0970426"><ele>257.0</ele><time>2026-04-26T07:21:00.944Z</time></trkpt><trkpt lat="44.0414494" lon="8.0969515"><ele>257.0</ele><time>2026-04-26T07:21:01.963Z</time></trkpt><trkpt lat="44.0415562" lon="8.0968681"><ele>257.0</ele><time>2026-04-26T07:21:02.91Z</time></trkpt><trkpt lat="44.0416603" lon="8.0968336"><ele>257.0</ele><time>2026-04-26T07:21:03.922Z</time></trkpt><trkpt lat="44.0417806" lon="8.0968078"><ele>256.5</ele><time>2026-04-26T07:21:04.993Z</time></trkpt><trkpt lat="44.0418847" lon="8.0968187"><ele>256.0</ele><time>2026-04-26T07:21:05.965Z</time></trkpt><trkpt lat="44.0420098" lon="8.0968595"><ele>255.5</ele><time>2026-04-26T07:21:07.014Z</time></trkpt><trkpt lat="44.0421368" lon="8.0970047"><ele>255.0</ele><time>2026-04-26T07:21:08.169Z</time></trkpt><trkpt lat="44.0421591" lon="8.0972172"><ele>247.66666666666669</ele><time>2026-04-26T07:21:09.175Z</time></trkpt><trkpt lat="44.0422135" lon="8.0975733"><ele>240.33333333333334</ele><time>2026-04-26T07:21:11.081Z</time></trkpt><trkpt lat="44.0422572" lon="8.0977203"><ele>233.0</ele><time>2026-04-26T07:21:12.097Z</time></trkpt><trkpt lat="44.0422794" lon="8.0978687"><ele>233.0</ele><time>2026-04-26T07:21:13.073Z</time></trkpt><trkpt lat="44.0422264" lon="8.0981695"><ele>233.0</ele><time>2026-04-26T07:21:15.178Z</time></trkpt><trkpt lat="44.0421441" lon="8.0983854"><ele>233.0</ele><time>2026-04-26T07:21:17.254Z</time></trkpt><trkpt lat="44.042231" lon="8.0986689"><ele>229.75</ele><time>2026-04-26T07:21:19.104Z</time></trkpt><trkpt lat="44.0422363" lon="8.0988243"><ele>226.5</ele><time>2026-04-26T07:21:20.037Z</time></trkpt><trkpt lat="44.0422257" lon="8.0989785"><ele>223.25</ele><time>2026-04-26T07:21:21.076Z</time></trkpt><trkpt lat="44.0421779" lon="8.0991538"><ele>220.0</ele><time>2026-04-26T07:21:22.073Z</time></trkpt><trkpt lat="44.0420846" lon="8.0992907"><ele>219.33333333333331</ele><time>2026-04-26T07:21:23.088Z</time></trkpt><trkpt lat="44.042046" lon="8.0994707"><ele>218.66666666666669</ele><time>2026-04-26T07:21:24.218Z</time></trkpt><trkpt lat="44.0420279" lon="8.0998537"><ele>218.0</ele><time>2026-04-26T07:21:26.216Z</time></trkpt><trkpt lat="44.0420429" lon="8.1002123"><ele>215.66666666666669</ele><time>2026-04-26T07:21:27.943Z</time></trkpt><trkpt lat="44.0420347" lon="8.1004168"><ele>213.33333333333331</ele><time>2026-04-26T07:21:29.02Z</time></trkpt><trkpt lat="44.0420754" lon="8.1007483"><ele>211.0</ele><time>2026-04-26T07:21:30.942Z</time></trkpt><trkpt lat="44.0421123" lon="8.1009046"><ele>209.5</ele><time>2026-04-26T07:21:32.019Z</time></trkpt><trkpt lat="44.0421216" lon="8.101031"><ele>208.0</ele><time>2026-04-26T07:21:33.029Z</time></trkpt><trkpt lat="44.0421304" lon="8.1011833"><ele>206.5</ele><time>2026-04-26T07:21:33.967Z</time></trkpt><trkpt lat="44.0421071" lon="8.1013357"><ele>205.0</ele><time>2026-04-26T07:21:34.933Z</time></trkpt><trkpt lat="44.0420201" lon="8.1015294"><ele>207.0</ele><time>2026-04-26T07:21:35.997Z</time></trkpt><trkpt lat="44.0418576" lon="8.1016582"><ele>209.0</ele><time>2026-04-26T07:21:36.932Z</time></trkpt><trkpt lat="44.0417375" lon="8.1018125"><ele>211.0</ele><time>2026-04-26T07:21:37.929Z</time></trkpt><trkpt lat="44.0416168" lon="8.1019559"><ele>204.33333333333331</ele><time>2026-04-26T07:21:38.946Z</time></trkpt><trkpt lat="44.0414851" lon="8.1020921"><ele>197.66666666666666</ele><time>2026-04-26T07:21:40.002Z</time></trkpt><trkpt lat="44.0413536" lon="8.1022086"><ele>191.0</ele><time>2026-04-26T07:21:41.065Z</time></trkpt><trkpt lat="44.0411966" lon="8.1024388"><ele>191.0</ele><time>2026-04-26T07:21:42.997Z</time></trkpt><trkpt lat="44.0411591" lon="8.1025656"><ele>191.0</ele><time>2026-04-26T07:21:43.969Z</time></trkpt><trkpt lat="44.0411337" lon="8.1026931"><ele>191.0</ele><time>2026-04-26T07:21:44.906Z</time></trkpt><trkpt lat="44.0411154" lon="8.102826"><ele>191.0</ele><time>2026-04-26T07:21:46.064Z</time></trkpt><trkpt lat="44.0411641" lon="8.1029602"><ele>191.0</ele><time>2026-04-26T07:21:47.113Z</time></trkpt><trkpt lat="44.0412626" lon="8.1033097"><ele>192.0</ele><time>2026-04-26T07:21:49.3Z</time></trkpt><trkpt lat="44.041202" lon="8.1035336"><ele>193.0</ele><time>2026-04-26T07:21:51.146Z</time></trkpt><trkpt lat="44.0410635" lon="8.1038815"><ele>193.0</ele><time>2026-04-26T07:21:53.106Z</time></trkpt><trkpt lat="44.0409882" lon="8.1039613"><ele>193.0</ele><time>2026-04-26T07:21:53.867Z</time></trkpt><trkpt lat="44.0408655" lon="8.1040891"><ele>193.0</ele><time>2026-04-26T07:21:54.957Z</time></trkpt><trkpt lat="44.0407282" lon="8.1042178"><ele>193.0</ele><time>2026-04-26T07:21:56.063Z</time></trkpt><trkpt lat="44.0406224" lon="8.1042824"><ele>188.4</ele><time>2026-04-26T07:21:56.975Z</time></trkpt><trkpt lat="44.0405216" lon="8.1043627"><ele>183.8</ele><time>2026-04-26T07:21:58.005Z</time></trkpt><trkpt lat="44.040428" lon="8.1044667"><ele>179.2</ele><time>2026-04-26T07:21:59.037Z</time></trkpt><trkpt lat="44.0403651" lon="8.1045546"><ele>174.6</ele><time>2026-04-26T07:22:00.019Z</time></trkpt><trkpt lat="44.0403253" lon="8.1046333"><ele>170.0</ele><time>2026-04-26T07:22:00.967Z</time></trkpt><trkpt lat="44.0403123" lon="8.104773"><ele>170.0</ele><time>2026-04-26T07:22:01.995Z</time></trkpt><trkpt lat="44.0403506" lon="8.1048717"><ele>170.0</ele><time>2026-04-26T07:22:03.059Z</time></trkpt><trkpt lat="44.040452" lon="8.1049624"><ele>170.0</ele><time>2026-04-26T07:22:04.049Z</time></trkpt><trkpt lat="44.0405232" lon="8.1050179"><ele>170.0</ele><time>2026-04-26T07:22:05.001Z</time></trkpt><trkpt lat="44.0406071" lon="8.1050404"><ele>170.0</ele><time>2026-04-26T07:22:05.988Z</time></trkpt><trkpt lat="44.0407702" lon="8.1050444"><ele>176.5</ele><time>2026-04-26T07:22:06.995Z</time></trkpt><trkpt lat="44.0409439" lon="8.1050339"><ele>183.0</ele><time>2026-04-26T07:22:08.113Z</time></trkpt><trkpt lat="44.0412656" lon="8.1050958"><ele>183.0</ele><time>2026-04-26T07:22:10.072Z</time></trkpt><trkpt lat="44.0414119" lon="8.1051465"><ele>183.0</ele><time>2026-04-26T07:22:11.019Z</time></trkpt><trkpt lat="44.0415717" lon="8.1052326"><ele>183.0</ele><time>2026-04-26T07:22:12.108Z</time></trkpt><trkpt lat="44.0416951" lon="8.1053101"><ele>184.66666666666666</ele><time>2026-04-26T07:22:13.02Z</time></trkpt><trkpt lat="44.0418407" lon="8.1053809"><ele>186.33333333333331</ele><time>2026-04-26T07:22:14.092Z</time></trkpt><trkpt lat="44.0419844" lon="8.1054336"><ele>188.0</ele><time>2026-04-26T07:22:15.239Z</time></trkpt><trkpt lat="44.0422512" lon="8.1055711"><ele>185.66666666666666</ele><time>2026-04-26T07:22:17.19Z</time></trkpt><trkpt lat="44.0424344" lon="8.1057801"><ele>183.33333333333334</ele><time>2026-04-26T07:22:18.966Z</time></trkpt><trkpt lat="44.0424994" lon="8.105915"><ele>181.0</ele><time>2026-04-26T07:22:19.986Z</time></trkpt><trkpt lat="44.0425739" lon="8.1060371"><ele>181.0</ele><time>2026-04-26T07:22:21.116Z</time></trkpt><trkpt lat="44.0426695" lon="8.1062375"><ele>181.0</ele><time>2026-04-26T07:22:22.105Z</time></trkpt><trkpt lat="44.0426561" lon="8.1063837"><ele>181.0</ele><time>2026-04-26T07:22:23.206Z</time></trkpt><trkpt lat="44.0425747" lon="8.1067664"><ele>176.66666666666669</ele><time>2026-04-26T07:22:25.205Z</time></trkpt><trkpt lat="44.0425221" lon="8.1070275"><ele>172.33333333333334</ele><time>2026-04-26T07:22:27.237Z</time></trkpt><trkpt lat="44.0425366" lon="8.1071379"><ele>168.0</ele><time>2026-04-26T07:22:28.275Z</time></trkpt><trkpt lat="44.0426717" lon="8.107296"><ele>168.0</ele><time>2026-04-26T07:22:30.113Z</time></trkpt><trkpt lat="44.0427905" lon="8.1072977"><ele>168.0</ele><time>2026-04-26T07:22:31.12Z</time></trkpt><trkpt lat="44.0430118" lon="8.1073149"><ele>168.0</ele><time>2026-04-26T07:22:32.958Z</time></trkpt><trkpt lat="44.0431061" lon="8.1073919"><ele>165.5</ele><time>2026-04-26T07:22:34.061Z</time></trkpt><trkpt lat="44.0431472" lon="8.1075001"><ele>163.0</ele><time>2026-04-26T07:22:34.989Z</time></trkpt><trkpt lat="44.0431727" lon="8.1076636"><ele>160.5</ele><time>2026-04-26T07:22:35.977Z</time></trkpt><trkpt lat="44.0432014" lon="8.1078433"><ele>158.0</ele><time>2026-04-26T07:22:36.964Z</time></trkpt><trkpt lat="44.0432675" lon="8.1082053"><ele>158.5</ele><time>2026-04-26T07:22:38.973Z</time></trkpt><trkpt lat="44.0433078" lon="8.1083778"><ele>159.0</ele><time>2026-04-26T07:22:39.94Z</time></trkpt><trkpt lat="44.0433471" lon="8.1085596"><ele>159.5</ele><time>2026-04-26T07:22:40.991Z</time></trkpt><trkpt lat="44.0433752" lon="8.1087408"><ele>160.0</ele><time>2026-04-26T07:22:41.986Z</time></trkpt><trkpt lat="44.0433834" lon="8.1089165"><ele>158.0</ele><time>2026-04-26T07:22:42.982Z</time></trkpt><trkpt lat="44.0433822" lon="8.109088"><ele>156.0</ele><time>2026-04-26T07:22:43.998Z</time></trkpt><trkpt lat="44.0433974" lon="8.1092584"><ele>154.0</ele><time>2026-04-26T07:22:44.994Z</time></trkpt><trkpt lat="44.0434433" lon="8.1094279"><ele>152.0</ele><time>2026-04-26T07:22:46.029Z</time></trkpt><trkpt lat="44.0434789" lon="8.109586"><ele>152.0</ele><time>2026-04-26T07:22:47.02Z</time></trkpt><trkpt lat="44.0434852" lon="8.1097563"><ele>152.0</ele><time>2026-04-26T07:22:48.104Z</time></trkpt><trkpt lat="44.0434009" lon="8.1100569"><ele>152.0</ele><time>2026-04-26T07:22:50.109Z</time></trkpt><trkpt lat="44.0433445" lon="8.1101986"><ele>150.79999999999998</ele><time>2026-04-26T07:22:51.129Z</time></trkpt><trkpt lat="44.0433208" lon="8.1103228"><ele>149.6</ele><time>2026-04-26T07:22:52.065Z</time></trkpt><trkpt lat="44.0433303" lon="8.1104718"><ele>148.39999999999998</ele><time>2026-04-26T07:22:53.119Z</time></trkpt><trkpt lat="44.0433951" lon="8.1106106"><ele>147.2</ele><time>2026-04-26T07:22:54.13Z</time></trkpt><trkpt lat="44.0434754" lon="8.1107523"><ele>146.0</ele><time>2026-04-26T07:22:55.113Z</time></trkpt><trkpt lat="44.0435534" lon="8.1109179"><ele>144.25</ele><time>2026-04-26T07:22:56.173Z</time></trkpt><trkpt lat="44.0436048" lon="8.1110689"><ele>142.5</ele><time>2026-04-26T07:22:57.112Z</time></trkpt><trkpt lat="44.0436735" lon="8.1112243"><ele>140.75</ele><time>2026-04-26T07:22:58.179Z</time></trkpt><trkpt lat="44.0437373" lon="8.1113265"><ele>139.0</ele><time>2026-04-26T07:22:59.084Z</time></trkpt><trkpt lat="44.0437898" lon="8.1114686"><ele>135.33333333333334</ele><time>2026-04-26T07:23:00.198Z</time></trkpt><trkpt lat="44.0437951" lon="8.1116463"><ele>131.66666666666666</ele><time>2026-04-26T07:23:01.298Z</time></trkpt><trkpt lat="44.0437289" lon="8.1119876"><ele>128.0</ele><time>2026-04-26T07:23:03.152Z</time></trkpt><trkpt lat="44.0436966" lon="8.1121596"><ele>128.0</ele><time>2026-04-26T07:23:04.087Z</time></trkpt><trkpt lat="44.0436345" lon="8.1123696"><ele>128.0</ele><time>2026-04-26T07:23:05.285Z</time></trkpt><trkpt lat="44.0434683" lon="8.1127031"><ele>116.5</ele><time>2026-04-26T07:23:07.162Z</time></trkpt><trkpt lat="44.0432426" lon="8.1130905"><ele>105.0</ele><time>2026-04-26T07:23:09.389Z</time></trkpt><trkpt lat="44.0431367" lon="8.1132323"><ele>109.0</ele><time>2026-04-26T07:23:10.314Z</time></trkpt><trkpt lat="44.0429735" lon="8.1134763"><ele>113.0</ele><time>2026-04-26T07:23:12.094Z</time></trkpt><trkpt lat="44.0427561" lon="8.1136478"><ele>113.0</ele><time>2026-04-26T07:23:14.181Z</time></trkpt><trkpt lat="44.0425527" lon="8.1136688"><ele>113.0</ele><time>2026-04-26T07:23:16.145Z</time></trkpt><trkpt lat="44.0424562" lon="8.1137294"><ele>113.0</ele><time>2026-04-26T07:23:17.347Z</time></trkpt><trkpt lat="44.0424213" lon="8.1139402"><ele>114.0</ele><time>2026-04-26T07:23:18.992Z</time></trkpt><trkpt lat="44.0424677" lon="8.1140799"><ele>115.0</ele><time>2026-04-26T07:23:20.193Z</time></trkpt><trkpt lat="44.0426699" lon="8.1142225"><ele>116.0</ele><time>2026-04-26T07:23:22.16Z</time></trkpt><trkpt lat="44.0429139" lon="8.1142933"><ele>116.0</ele><time>2026-04-26T07:23:24.102Z</time></trkpt><trkpt lat="44.0430859" lon="8.1145571"><ele>116.0</ele><time>2026-04-26T07:23:26.231Z</time></trkpt><trkpt lat="44.0431327" lon="8.114728"><ele>116.0</ele><time>2026-04-26T07:23:27.132Z</time></trkpt><trkpt lat="44.0431607" lon="8.114912"><ele>113.0</ele><time>2026-04-26T07:23:28.079Z</time></trkpt><trkpt lat="44.0431504" lon="8.1150835"><ele>110.0</ele><time>2026-04-26T07:23:29.024Z</time></trkpt><trkpt lat="44.0431315" lon="8.1152643"><ele>107.0</ele><time>2026-04-26T07:23:30.177Z</time></trkpt><trkpt lat="44.043149" lon="8.115463"><ele>104.0</ele><time>2026-04-26T07:23:32.169Z</time></trkpt><trkpt lat="44.0431929" lon="8.1155458"><ele>104.0</ele><time>2026-04-26T07:23:33.091Z</time></trkpt><trkpt lat="44.0432758" lon="8.1156205"><ele>104.0</ele><time>2026-04-26T07:23:34.091Z</time></trkpt><trkpt lat="44.0433723" lon="8.1156277"><ele>104.0</ele><time>2026-04-26T07:23:35.15Z</time></trkpt><trkpt lat="44.0435297" lon="8.115563"><ele>104.0</ele><time>2026-04-26T07:23:36.05Z</time></trkpt><trkpt lat="44.0436654" lon="8.1155272"><ele>104.33333333333333</ele><time>2026-04-26T07:23:37.068Z</time></trkpt><trkpt lat="44.0437765" lon="8.1155224"><ele>104.66666666666666</ele><time>2026-04-26T07:23:38.148Z</time></trkpt><trkpt lat="44.0439674" lon="8.1156226"><ele>105.0</ele><time>2026-04-26T07:23:40.212Z</time></trkpt><trkpt lat="44.0440052" lon="8.1159349"><ele>105.0</ele><time>2026-04-26T07:23:42.33Z</time></trkpt><trkpt lat="44.0439213" lon="8.1162049"><ele>105.0</ele><time>2026-04-26T07:23:44.154Z</time></trkpt><trkpt lat="44.0438447" lon="8.1164816"><ele>105.0</ele><time>2026-04-26T07:23:46.145Z</time></trkpt><trkpt lat="44.0438359" lon="8.1166096"><ele>104.5</ele><time>2026-04-26T07:23:47.144Z</time></trkpt><trkpt lat="44.0438351" lon="8.116745"><ele>104.0</ele><time>2026-04-26T07:23:48.372Z</time></trkpt><trkpt lat="44.0438853" lon="8.1169735"><ele>103.5</ele><time>2026-04-26T07:23:50.112Z</time></trkpt><trkpt lat="44.0439385" lon="8.1170461"><ele>103.0</ele><time>2026-04-26T07:23:51.091Z</time></trkpt><trkpt lat="44.0441884" lon="8.1172368"><ele>103.0</ele><time>2026-04-26T07:23:53.112Z</time></trkpt><trkpt lat="44.0443152" lon="8.117296"><ele>103.0</ele><time>2026-04-26T07:23:54.03Z</time></trkpt><trkpt lat="44.0444915" lon="8.1173303"><ele>103.0</ele><time>2026-04-26T07:23:54.993Z</time></trkpt><trkpt lat="44.0447051" lon="8.117338"><ele>104.33333333333334</ele><time>2026-04-26T07:23:56.235Z</time></trkpt><trkpt lat="44.0449657" lon="8.1173456"><ele>105.66666666666666</ele><time>2026-04-26T07:23:58.15Z</time></trkpt><trkpt lat="44.0450678" lon="8.1173368"><ele>107.0</ele><time>2026-04-26T07:23:59.086Z</time></trkpt><trkpt lat="44.0451631" lon="8.1172966"><ele>107.0</ele><time>2026-04-26T07:24:00.013Z</time></trkpt><trkpt lat="44.0453134" lon="8.1172258"><ele>107.0</ele><time>2026-04-26T07:24:01.282Z</time></trkpt><trkpt lat="44.0455111" lon="8.1169611"><ele>107.0</ele><time>2026-04-26T07:24:03.234Z</time></trkpt><trkpt lat="44.0456339" lon="8.1170158"><ele>96.5</ele><time>2026-04-26T07:24:05.264Z</time></trkpt><trkpt lat="44.0457023" lon="8.1174312"><ele>86.0</ele><time>2026-04-26T07:24:07.169Z</time></trkpt><trkpt lat="44.0456732" lon="8.1178108"><ele>86.0</ele><time>2026-04-26T07:24:08.993Z</time></trkpt><trkpt lat="44.0456621" lon="8.118057"><ele>86.0</ele><time>2026-04-26T07:24:10.176Z</time></trkpt><trkpt lat="44.0456934" lon="8.1184388"><ele>85.6</ele><time>2026-04-26T07:24:12.204Z</time></trkpt><trkpt lat="44.0457027" lon="8.1185362"><ele>85.19999999999999</ele><time>2026-04-26T07:24:12.878Z</time></trkpt><trkpt lat="44.045726" lon="8.1186995"><ele>84.80000000000001</ele><time>2026-04-26T07:24:13.995Z</time></trkpt><trkpt lat="44.045773" lon="8.1188376"><ele>84.4</ele><time>2026-04-26T07:24:14.971Z</time></trkpt><trkpt lat="44.0458549" lon="8.1189545"><ele>84.0</ele><time>2026-04-26T07:24:16.096Z</time></trkpt><trkpt lat="44.0460744" lon="8.1190466"><ele>84.0</ele><time>2026-04-26T07:24:17.95Z</time></trkpt><trkpt lat="44.0462034" lon="8.1190604"><ele>84.0</ele><time>2026-04-26T07:24:18.999Z</time></trkpt><trkpt lat="44.0463343" lon="8.1190125"><ele>84.0</ele><time>2026-04-26T07:24:20.139Z</time></trkpt><trkpt lat="44.0465119" lon="8.1188677"><ele>84.0</ele><time>2026-04-26T07:24:22.274Z</time></trkpt><trkpt lat="44.0465696" lon="8.1186529"><ele>84.0</ele><time>2026-04-26T07:24:24.122Z</time></trkpt><trkpt lat="44.0466656" lon="8.1185794"><ele>84.0</ele><time>2026-04-26T07:24:26.334Z</time></trkpt><trkpt lat="44.0467146" lon="8.1186815"><ele>84.0</ele><time>2026-04-26T07:24:28.118Z</time></trkpt><trkpt lat="44.0466905" lon="8.1187694"><ele>84.0</ele><time>2026-04-26T07:24:29.063Z</time></trkpt><trkpt lat="44.0466203" lon="8.1188904"><ele>84.0</ele><time>2026-04-26T07:24:30.018Z</time></trkpt><trkpt lat="44.0465264" lon="8.1190417"><ele>84.0</ele><time>2026-04-26T07:24:31.096Z</time></trkpt><trkpt lat="44.0464256" lon="8.1191985"><ele>84.0</ele><time>2026-04-26T07:24:32.178Z</time></trkpt><trkpt lat="44.0463302" lon="8.1193138"><ele>84.0</ele><time>2026-04-26T07:24:33.168Z</time></trkpt><trkpt lat="44.0461222" lon="8.1194575"><ele>81.0</ele><time>2026-04-26T07:24:35.181Z</time></trkpt><trkpt lat="44.0459516" lon="8.1195008"><ele>78.0</ele><time>2026-04-26T07:24:37.062Z</time></trkpt><trkpt lat="44.0458437" lon="8.1194862"><ele>75.0</ele><time>2026-04-26T07:24:39.091Z</time></trkpt><trkpt lat="44.0457927" lon="8.1196903"><ele>72.0</ele><time>2026-04-26T07:24:42.012Z</time></trkpt><trkpt lat="44.0457901" lon="8.1198367"><ele>66.0</ele><time>2026-04-26T07:24:43.202Z</time></trkpt><trkpt lat="44.0457586" lon="8.1200961"><ele>60.0</ele><time>2026-04-26T07:24:45.233Z</time></trkpt><trkpt lat="44.0457241" lon="8.120328"><ele>54.0</ele><time>2026-04-26T07:24:47.024Z</time></trkpt><trkpt lat="44.0456972" lon="8.1206068"><ele>54.0</ele><time>2026-04-26T07:24:49.016Z</time></trkpt><trkpt lat="44.0457011" lon="8.1207536"><ele>54.00000000000001</ele><time>2026-04-26T07:24:50.041Z</time></trkpt><trkpt lat="44.0457178" lon="8.1208957"><ele>54.00000000000001</ele><time>2026-04-26T07:24:50.989Z</time></trkpt><trkpt lat="44.0457444" lon="8.1210294"><ele>54.0</ele><time>2026-04-26T07:24:51.973Z</time></trkpt><trkpt lat="44.0457864" lon="8.1211396"><ele>54.0</ele><time>2026-04-26T07:24:52.988Z</time></trkpt><trkpt lat="44.0458307" lon="8.1212298"><ele>54.0</ele><time>2026-04-26T07:24:54.117Z</time></trkpt><trkpt lat="44.0458887" lon="8.1213054"><ele>54.0</ele><time>2026-04-26T07:24:55.951Z</time></trkpt><trkpt lat="44.0459409" lon="8.1213714"><ele>54.0</ele><time>2026-04-26T07:24:59.035Z</time></trkpt><trkpt lat="44.0460038" lon="8.1213306"><ele>54.0</ele><time>2026-04-26T07:25:10.989Z</time></trkpt><trkpt lat="44.045902" lon="8.1212819"><ele>54.0</ele><time>2026-04-26T07:25:13.891Z</time></trkpt><trkpt lat="44.04581" lon="8.1212895"><ele>54.0</ele><time>2026-04-26T07:25:14.963Z</time></trkpt><trkpt lat="44.045689" lon="8.1213108"><ele>53.33333333333333</ele><time>2026-04-26T07:25:16.066Z</time></trkpt><trkpt lat="44.0454667" lon="8.1214003"><ele>52.666666666666664</ele><time>2026-04-26T07:25:17.937Z</time></trkpt><trkpt lat="44.045324" lon="8.12153"><ele>52.0</ele><time>2026-04-26T07:25:19.057Z</time></trkpt><trkpt lat="44.0452219" lon="8.1216533"><ele>51.5</ele><time>2026-04-26T07:25:20.002Z</time></trkpt><trkpt lat="44.0451287" lon="8.1217531"><ele>51.0</ele><time>2026-04-26T07:25:21.011Z</time></trkpt><trkpt lat="44.0450661" lon="8.1218696"><ele>50.5</ele><time>2026-04-26T07:25:21.918Z</time></trkpt><trkpt lat="44.0450057" lon="8.1220475"><ele>50.0</ele><time>2026-04-26T07:25:22.957Z</time></trkpt><trkpt lat="44.0449582" lon="8.1222246"><ele>49.333333333333336</ele><time>2026-04-26T07:25:23.962Z</time></trkpt><trkpt lat="44.0449103" lon="8.1224332"><ele>48.66666666666667</ele><time>2026-04-26T07:25:24.938Z</time></trkpt><trkpt lat="44.0448575" lon="8.1226882"><ele>48.0</ele><time>2026-04-26T07:25:25.974Z</time></trkpt><trkpt lat="44.0448022" lon="8.1229206"><ele>48.0</ele><time>2026-04-26T07:25:27.009Z</time></trkpt><trkpt lat="44.0447404" lon="8.1231525"><ele>48.0</ele><time>2026-04-26T07:25:28.078Z</time></trkpt><trkpt lat="44.0446812" lon="8.1233426"><ele>48.0</ele><time>2026-04-26T07:25:29.04Z</time></trkpt><trkpt lat="44.044616" lon="8.1235436"><ele>47.666666666666664</ele><time>2026-04-26T07:25:29.977Z</time></trkpt><trkpt lat="44.0445544" lon="8.1237449"><ele>47.33333333333333</ele><time>2026-04-26T07:25:30.931Z</time></trkpt><trkpt lat="44.0444877" lon="8.1239698"><ele>47.0</ele><time>2026-04-26T07:25:31.995Z</time></trkpt><trkpt lat="44.0444285" lon="8.1241686"><ele>46.666666666666664</ele><time>2026-04-26T07:25:32.941Z</time></trkpt><trkpt lat="44.0443594" lon="8.1243993"><ele>46.333333333333336</ele><time>2026-04-26T07:25:34.023Z</time></trkpt><trkpt lat="44.044297" lon="8.1246012"><ele>46.0</ele><time>2026-04-26T07:25:34.964Z</time></trkpt><trkpt lat="44.0442264" lon="8.124825"><ele>46.5</ele><time>2026-04-26T07:25:36.06Z</time></trkpt><trkpt lat="44.0441788" lon="8.1250093"><ele>47.0</ele><time>2026-04-26T07:25:36.966Z</time></trkpt><trkpt lat="44.0441477" lon="8.1251934"><ele>47.5</ele><time>2026-04-26T07:25:37.928Z</time></trkpt><trkpt lat="44.0441267" lon="8.1253923"><ele>48.0</ele><time>2026-04-26T07:25:38.955Z</time></trkpt><trkpt lat="44.0441268" lon="8.1255841"><ele>48.0</ele><time>2026-04-26T07:25:40.026Z</time></trkpt><trkpt lat="44.0441447" lon="8.1257578"><ele>48.0</ele><time>2026-04-26T07:25:41.024Z</time></trkpt><trkpt lat="44.0441932" lon="8.1259277"><ele>48.0</ele><time>2026-04-26T07:25:41.999Z</time></trkpt><trkpt lat="44.0442536" lon="8.1261043"><ele>48.0</ele><time>2026-04-26T07:25:43.055Z</time></trkpt><trkpt lat="44.0442951" lon="8.1262675"><ele>46.0</ele><time>2026-04-26T07:25:44.134Z</time></trkpt><trkpt lat="44.0442501" lon="8.1266578"><ele>44.0</ele><time>2026-04-26T07:25:46.066Z</time></trkpt><trkpt lat="44.0441993" lon="8.1269692"><ele>44.0</ele><time>2026-04-26T07:25:48.066Z</time></trkpt><trkpt lat="44.0441852" lon="8.1271008"><ele>44.0</ele><time>2026-04-26T07:25:49.087Z</time></trkpt><trkpt lat="44.0441748" lon="8.1272216"><ele>44.0</ele><time>2026-04-26T07:25:50.297Z</time></trkpt><trkpt lat="44.0441687" lon="8.1273621"><ele>44.0</ele><time>2026-04-26T07:25:52.233Z</time></trkpt><trkpt lat="44.0441598" lon="8.1274745"><ele>44.0</ele><time>2026-04-26T07:25:53.94Z</time></trkpt><trkpt lat="44.0441833" lon="8.1275602"><ele>44.0</ele><time>2026-04-26T07:25:55.922Z</time></trkpt><trkpt lat="44.0442544" lon="8.1276036"><ele>43.2</ele><time>2026-04-26T07:26:02.87Z</time></trkpt><trkpt lat="44.0443119" lon="8.1275242"><ele>42.400000000000006</ele><time>2026-04-26T07:26:04.937Z</time></trkpt><trkpt lat="44.0442785" lon="8.1273991"><ele>41.6</ele><time>2026-04-26T07:26:07.232Z</time></trkpt><trkpt lat="44.044204" lon="8.1274256"><ele>40.8</ele><time>2026-04-26T07:26:09.193Z</time></trkpt><trkpt lat="44.0441227" lon="8.1275884"><ele>40.0</ele><time>2026-04-26T07:26:11.05Z</time></trkpt><trkpt lat="44.0441112" lon="8.1277754"><ele>39.66666666666667</ele><time>2026-04-26T07:26:12.236Z</time></trkpt><trkpt lat="44.044122" lon="8.128073"><ele>39.333333333333336</ele><time>2026-04-26T07:26:14.033Z</time></trkpt><trkpt lat="44.0441227" lon="8.128252"><ele>39.0</ele><time>2026-04-26T07:26:15.151Z</time></trkpt><trkpt lat="44.0441145" lon="8.128584"><ele>38.25</ele><time>2026-04-26T07:26:17.198Z</time></trkpt><trkpt lat="44.0441073" lon="8.1287708"><ele>37.5</ele><time>2026-04-26T07:26:18.143Z</time></trkpt><trkpt lat="44.0441034" lon="8.1289821"><ele>36.75</ele><time>2026-04-26T07:26:19.214Z</time></trkpt><trkpt lat="44.0441002" lon="8.1291913"><ele>36.0</ele><time>2026-04-26T07:26:20.203Z</time></trkpt><trkpt lat="44.0440962" lon="8.1294259"><ele>36.0</ele><time>2026-04-26T07:26:21.303Z</time></trkpt><trkpt lat="44.044099" lon="8.1296376"><ele>36.0</ele><time>2026-04-26T07:26:22.216Z</time></trkpt><trkpt lat="44.0441099" lon="8.1298632"><ele>36.0</ele><time>2026-04-26T07:26:23.148Z</time></trkpt><trkpt lat="44.0441201" lon="8.1301213"><ele>35.5</ele><time>2026-04-26T07:26:24.167Z</time></trkpt><trkpt lat="44.04414" lon="8.130662"><ele>35.0</ele><time>2026-04-26T07:26:26.414Z</time></trkpt><trkpt lat="44.0441514" lon="8.1309438"><ele>35.0</ele><time>2026-04-26T07:26:27.989Z</time></trkpt><trkpt lat="44.0441602" lon="8.1312984"><ele>35.0</ele><time>2026-04-26T07:26:29.986Z</time></trkpt><trkpt lat="44.0441672" lon="8.1315063"><ele>35.0</ele><time>2026-04-26T07:26:31.088Z</time></trkpt><trkpt lat="44.0441729" lon="8.1316833"><ele>34.75</ele><time>2026-04-26T07:26:31.992Z</time></trkpt><trkpt lat="44.0441791" lon="8.1318816"><ele>34.5</ele><time>2026-04-26T07:26:33.036Z</time></trkpt><trkpt lat="44.0441845" lon="8.1320662"><ele>34.25</ele><time>2026-04-26T07:26:34.085Z</time></trkpt><trkpt lat="44.0441921" lon="8.1322306"><ele>34.0</ele><time>2026-04-26T07:26:35.1Z</time></trkpt><trkpt lat="44.0441986" lon="8.132379"><ele>34.333333333333336</ele><time>2026-04-26T07:26:36.063Z</time></trkpt><trkpt lat="44.044206" lon="8.1326493"><ele>34.666666666666664</ele><time>2026-04-26T07:26:37.952Z</time></trkpt><trkpt lat="44.0442124" lon="8.1327856"><ele>35.0</ele><time>2026-04-26T07:26:39.047Z</time></trkpt><trkpt lat="44.0441888" lon="8.1330026"><ele>35.0</ele><time>2026-04-26T07:26:41.019Z</time></trkpt><trkpt lat="44.0441685" lon="8.1331002"><ele>35.0</ele><time>2026-04-26T07:26:42.01Z</time></trkpt><trkpt lat="44.0441767" lon="8.1332659"><ele>35.0</ele><time>2026-04-26T07:26:44.055Z</time></trkpt><trkpt lat="44.0442411" lon="8.1333754"><ele>35.0</ele><time>2026-04-26T07:26:46.035Z</time></trkpt><trkpt lat="44.0443334" lon="8.1333997"><ele>35.0</ele><time>2026-04-26T07:26:48.048Z</time></trkpt><trkpt lat="44.0444337" lon="8.1333274"><ele>35.0</ele><time>2026-04-26T07:26:50.322Z</time></trkpt><trkpt lat="44.0445157" lon="8.133203"><ele>35.0</ele><time>2026-04-26T07:26:54.007Z</time></trkpt><trkpt lat="44.0445958" lon="8.1331855"><ele>35.0</ele><time>2026-04-26T07:26:57.019Z</time></trkpt><trkpt lat="44.0446718" lon="8.1332108"><ele>35.0</ele><time>2026-04-26T07:27:30.985Z</time></trkpt><trkpt lat="44.0448546" lon="8.1332375"><ele>35.0</ele><time>2026-04-26T07:27:34.011Z</time></trkpt><trkpt lat="44.0449264" lon="8.1332479"><ele>35.0</ele><time>2026-04-26T07:27:34.934Z</time></trkpt><trkpt lat="44.0450014" lon="8.1332592"><ele>35.0</ele><time>2026-04-26T07:27:35.998Z</time></trkpt><trkpt lat="44.045117" lon="8.1332698"><ele>35.0</ele><time>2026-04-26T07:27:38.042Z</time></trkpt><trkpt lat="44.0452432" lon="8.1332934"><ele>35.0</ele><time>2026-04-26T07:27:40.958Z</time></trkpt><trkpt lat="44.0453174" lon="8.1333212"><ele>35.0</ele><time>2026-04-26T07:27:43.929Z</time></trkpt><trkpt lat="44.0452645" lon="8.1332673"><ele>35.0</ele><time>2026-04-26T07:27:52.969Z</time></trkpt><trkpt lat="44.045137" lon="8.133252"><ele>35.0</ele><time>2026-04-26T07:27:55.022Z</time></trkpt><trkpt lat="44.0449845" lon="8.1332403"><ele>35.0</ele><time>2026-04-26T07:27:57.02Z</time></trkpt><trkpt lat="44.0448355" lon="8.1332205"><ele>35.0</ele><time>2026-04-26T07:27:59.169Z</time></trkpt><trkpt lat="44.0447291" lon="8.1332086"><ele>35.0</ele><time>2026-04-26T07:28:01.056Z</time></trkpt><trkpt lat="44.0446567" lon="8.1331906"><ele>35.0</ele><time>2026-04-26T07:28:02.991Z</time></trkpt><trkpt lat="44.0445837" lon="8.1331672"><ele>35.0</ele><time>2026-04-26T07:28:05.896Z</time></trkpt><trkpt lat="44.0445221" lon="8.133124"><ele>35.0</ele><time>2026-04-26T07:28:10.94Z</time></trkpt><trkpt lat="44.0444529" lon="8.1330157"><ele>35.0</ele><time>2026-04-26T07:39:08.209Z</time></trkpt><trkpt lat="44.0443533" lon="8.1329635"><ele>35.0</ele><time>2026-04-26T07:39:09.966Z</time></trkpt><trkpt lat="44.044228" lon="8.1330099"><ele>35.0</ele><time>2026-04-26T07:39:12.227Z</time></trkpt><trkpt lat="44.0441734" lon="8.1331243"><ele>35.0</ele><time>2026-04-26T07:39:13.935Z</time></trkpt><trkpt lat="44.0441485" lon="8.1332605"><ele>35.0</ele><time>2026-04-26T07:39:15.874Z</time></trkpt><trkpt lat="44.0441587" lon="8.1333492"><ele>35.0</ele><time>2026-04-26T07:39:18.002Z</time></trkpt><trkpt lat="44.0442015" lon="8.1334248"><ele>35.25</ele><time>2026-04-26T07:39:20.975Z</time></trkpt><trkpt lat="44.0442809" lon="8.1334698"><ele>35.5</ele><time>2026-04-26T07:39:31.962Z</time></trkpt><trkpt lat="44.0443727" lon="8.1336388"><ele>35.75</ele><time>2026-04-26T07:39:34.036Z</time></trkpt><trkpt lat="44.044396" lon="8.1337718"><ele>36.0</ele><time>2026-04-26T07:39:35.024Z</time></trkpt><trkpt lat="44.0444053" lon="8.1339415"><ele>35.75</ele><time>2026-04-26T07:39:36.021Z</time></trkpt><trkpt lat="44.0444122" lon="8.1341362"><ele>35.5</ele><time>2026-04-26T07:39:37.066Z</time></trkpt><trkpt lat="44.0444214" lon="8.134326"><ele>35.25</ele><time>2026-04-26T07:39:38.005Z</time></trkpt><trkpt lat="44.044439" lon="8.1345238"><ele>35.0</ele><time>2026-04-26T07:39:39.003Z</time></trkpt><trkpt lat="44.0444616" lon="8.1347295"><ele>35.5</ele><time>2026-04-26T07:39:40.098Z</time></trkpt><trkpt lat="44.0445017" lon="8.1350729"><ele>36.0</ele><time>2026-04-26T07:39:42.011Z</time></trkpt><trkpt lat="44.0445503" lon="8.1353978"><ele>36.0</ele><time>2026-04-26T07:39:43.964Z</time></trkpt><trkpt lat="44.0445762" lon="8.1355648"><ele>36.0</ele><time>2026-04-26T07:39:44.976Z</time></trkpt><trkpt lat="44.0446007" lon="8.1357259"><ele>36.0</ele><time>2026-04-26T07:39:46.076Z</time></trkpt><trkpt lat="44.0446394" lon="8.1359948"><ele>36.0</ele><time>2026-04-26T07:39:47.922Z</time></trkpt><trkpt lat="44.0446678" lon="8.1361709"><ele>35.6</ele><time>2026-04-26T07:39:49.024Z</time></trkpt><trkpt lat="44.044689" lon="8.13632"><ele>35.2</ele><time>2026-04-26T07:39:49.956Z</time></trkpt><trkpt lat="44.0447146" lon="8.1364806"><ele>34.8</ele><time>2026-04-26T07:39:51.015Z</time></trkpt><trkpt lat="44.0447397" lon="8.1366344"><ele>34.4</ele><time>2026-04-26T07:39:51.96Z</time></trkpt><trkpt lat="44.0447632" lon="8.1367809"><ele>34.0</ele><time>2026-04-26T07:39:52.976Z</time></trkpt><trkpt lat="44.0447894" lon="8.1369423"><ele>34.0</ele><time>2026-04-26T07:39:54.103Z</time></trkpt><trkpt lat="44.0448315" lon="8.1372347"><ele>34.0</ele><time>2026-04-26T07:39:56.04Z</time></trkpt><trkpt lat="44.0448866" lon="8.1375291"><ele>34.0</ele><time>2026-04-26T07:39:57.994Z</time></trkpt><trkpt lat="44.0449157" lon="8.1376851"><ele>33.75</ele><time>2026-04-26T07:39:58.98Z</time></trkpt><trkpt lat="44.0449566" lon="8.1378556"><ele>33.5</ele><time>2026-04-26T07:40:00.017Z</time></trkpt><trkpt lat="44.0450026" lon="8.1380237"><ele>33.25</ele><time>2026-04-26T07:40:01.018Z</time></trkpt><trkpt lat="44.045051" lon="8.1381969"><ele>33.0</ele><time>2026-04-26T07:40:02.024Z</time></trkpt><trkpt lat="44.0450933" lon="8.1383516"><ele>32.666666666666664</ele><time>2026-04-26T07:40:02.995Z</time></trkpt><trkpt lat="44.0451652" lon="8.1386361"><ele>32.33333333333333</ele><time>2026-04-26T07:40:05.042Z</time></trkpt><trkpt lat="44.0452287" lon="8.1388887"><ele>32.0</ele><time>2026-04-26T07:40:06.943Z</time></trkpt><trkpt lat="44.0452614" lon="8.1390124"><ele>32.4</ele><time>2026-04-26T07:40:07.88Z</time></trkpt><trkpt lat="44.0453008" lon="8.1391518"><ele>32.800000000000004</ele><time>2026-04-26T07:40:08.915Z</time></trkpt><trkpt lat="44.0453374" lon="8.1392847"><ele>33.2</ele><time>2026-04-26T07:40:09.985Z</time></trkpt><trkpt lat="44.0453655" lon="8.1393893"><ele>33.6</ele><time>2026-04-26T07:40:10.968Z</time></trkpt><trkpt lat="44.0453959" lon="8.1394862"><ele>34.0</ele><time>2026-04-26T07:40:12.085Z</time></trkpt><trkpt lat="44.0454434" lon="8.139636"><ele>34.0</ele><time>2026-04-26T07:40:14.12Z</time></trkpt><trkpt lat="44.045492" lon="8.1397559"><ele>34.0</ele><time>2026-04-26T07:40:16.114Z</time></trkpt><trkpt lat="44.0455317" lon="8.1399148"><ele>34.0</ele><time>2026-04-26T07:40:18.084Z</time></trkpt><trkpt lat="44.0455211" lon="8.1400164"><ele>34.0</ele><time>2026-04-26T07:40:19.097Z</time></trkpt><trkpt lat="44.0454765" lon="8.1401359"><ele>34.0</ele><time>2026-04-26T07:40:20.292Z</time></trkpt><trkpt lat="44.0453865" lon="8.1403257"><ele>33.6</ele><time>2026-04-26T07:40:22.023Z</time></trkpt><trkpt lat="44.0453312" lon="8.1404444"><ele>33.2</ele><time>2026-04-26T07:40:23.127Z</time></trkpt><trkpt lat="44.0452819" lon="8.1405534"><ele>32.800000000000004</ele><time>2026-04-26T07:40:24.105Z</time></trkpt><trkpt lat="44.0452303" lon="8.1406685"><ele>32.4</ele><time>2026-04-26T07:40:25.159Z</time></trkpt><trkpt lat="44.0451944" lon="8.1407751"><ele>32.0</ele><time>2026-04-26T07:40:26.15Z</time></trkpt><trkpt lat="44.0451599" lon="8.1408826"><ele>31.5</ele><time>2026-04-26T07:40:27.181Z</time></trkpt><trkpt lat="44.0451172" lon="8.1411099"><ele>31.0</ele><time>2026-04-26T07:40:29.268Z</time></trkpt><trkpt lat="44.0451354" lon="8.141317"><ele>30.5</ele><time>2026-04-26T07:40:30.949Z</time></trkpt><trkpt lat="44.0451584" lon="8.1414176"><ele>30.0</ele><time>2026-04-26T07:40:31.891Z</time></trkpt><trkpt lat="44.0451851" lon="8.1415093"><ele>30.0</ele><time>2026-04-26T07:40:32.88Z</time></trkpt><trkpt lat="44.0452185" lon="8.1416097"><ele>30.0</ele><time>2026-04-26T07:40:33.876Z</time></trkpt><trkpt lat="44.0452534" lon="8.1417099"><ele>30.0</ele><time>2026-04-26T07:40:34.943Z</time></trkpt><trkpt lat="44.0452862" lon="8.1418051"><ele>30.0</ele><time>2026-04-26T07:40:36.051Z</time></trkpt><trkpt lat="44.0453175" lon="8.1418889"><ele>30.0</ele><time>2026-04-26T07:40:36.961Z</time></trkpt><trkpt lat="44.0453573" lon="8.1420043"><ele>30.0</ele><time>2026-04-26T07:40:38.141Z</time></trkpt><trkpt lat="44.0454107" lon="8.1421588"><ele>30.0</ele><time>2026-04-26T07:40:40.009Z</time></trkpt><trkpt lat="44.0454436" lon="8.1422525"><ele>30.0</ele><time>2026-04-26T07:40:40.961Z</time></trkpt><trkpt lat="44.0454829" lon="8.1423655"><ele>30.0</ele><time>2026-04-26T07:40:42.054Z</time></trkpt><trkpt lat="44.0455233" lon="8.1424804"><ele>30.0</ele><time>2026-04-26T07:40:43.038Z</time></trkpt><trkpt lat="44.0455675" lon="8.1426063"><ele>30.0</ele><time>2026-04-26T07:40:44.006Z</time></trkpt><trkpt lat="44.0456098" lon="8.1427261"><ele>30.0</ele><time>2026-04-26T07:40:44.976Z</time></trkpt><trkpt lat="44.0456506" lon="8.1428411"><ele>30.0</ele><time>2026-04-26T07:40:45.979Z</time></trkpt><trkpt lat="44.0456918" lon="8.1429567"><ele>30.0</ele><time>2026-04-26T07:40:47.075Z</time></trkpt><trkpt lat="44.0457252" lon="8.143051"><ele>30.0</ele><time>2026-04-26T07:40:48.057Z</time></trkpt><trkpt lat="44.0457731" lon="8.1431897"><ele>30.0</ele><time>2026-04-26T07:40:50.022Z</time></trkpt><trkpt lat="44.0458053" lon="8.1433271"><ele>30.0</ele><time>2026-04-26T07:40:52.151Z</time></trkpt><trkpt lat="44.0458622" lon="8.1434716"><ele>30.0</ele><time>2026-04-26T07:40:54.036Z</time></trkpt><trkpt lat="44.0459137" lon="8.1435734"><ele>30.0</ele><time>2026-04-26T07:40:55.127Z</time></trkpt><trkpt lat="44.0459996" lon="8.1437974"><ele>30.0</ele><time>2026-04-26T07:40:56.885Z</time></trkpt><trkpt lat="44.0460715" lon="8.1439724"><ele>29.5</ele><time>2026-04-26T07:40:58.157Z</time></trkpt><trkpt lat="44.0462184" lon="8.1442369"><ele>29.0</ele><time>2026-04-26T07:41:00.214Z</time></trkpt><trkpt lat="44.0463851" lon="8.1444567"><ele>29.0</ele><time>2026-04-26T07:41:02.05Z</time></trkpt><trkpt lat="44.0466026" lon="8.1446888"><ele>29.0</ele><time>2026-04-26T07:41:04.11Z</time></trkpt><trkpt lat="44.0468028" lon="8.1448919"><ele>28.0</ele><time>2026-04-26T07:41:06.023Z</time></trkpt><trkpt lat="44.0470168" lon="8.1451151"><ele>27.0</ele><time>2026-04-26T07:41:08.075Z</time></trkpt><trkpt lat="44.0472333" lon="8.1453271"><ele>27.0</ele><time>2026-04-26T07:41:10.041Z</time></trkpt><trkpt lat="44.0473354" lon="8.1454338"><ele>27.0</ele><time>2026-04-26T07:41:10.998Z</time></trkpt><trkpt lat="44.047449" lon="8.1455465"><ele>27.0</ele><time>2026-04-26T07:41:12.011Z</time></trkpt><trkpt lat="44.0475639" lon="8.1456629"><ele>27.0</ele><time>2026-04-26T07:41:12.977Z</time></trkpt><trkpt lat="44.047675" lon="8.1457737"><ele>25.666666666666668</ele><time>2026-04-26T07:41:13.88Z</time></trkpt><trkpt lat="44.047816" lon="8.1459197"><ele>24.333333333333336</ele><time>2026-04-26T07:41:15.055Z</time></trkpt><trkpt lat="44.0479272" lon="8.1460362"><ele>23.0</ele><time>2026-04-26T07:41:16Z</time></trkpt><trkpt lat="44.0480404" lon="8.1461548"><ele>23.0</ele><time>2026-04-26T07:41:16.942Z</time></trkpt><trkpt lat="44.0481768" lon="8.1463"><ele>23.0</ele><time>2026-04-26T07:41:18.083Z</time></trkpt><trkpt lat="44.0482902" lon="8.1464179"><ele>23.0</ele><time>2026-04-26T07:41:19.038Z</time></trkpt><trkpt lat="44.0484153" lon="8.1465497"><ele>24.0</ele><time>2026-04-26T07:41:20.052Z</time></trkpt><trkpt lat="44.0485347" lon="8.1466742"><ele>25.0</ele><time>2026-04-26T07:41:20.984Z</time></trkpt><trkpt lat="44.0486768" lon="8.1468251"><ele>26.0</ele><time>2026-04-26T07:41:22.072Z</time></trkpt><trkpt lat="44.0489277" lon="8.1470897"><ele>26.0</ele><time>2026-04-26T07:41:24.048Z</time></trkpt><trkpt lat="44.0490504" lon="8.1472152"><ele>26.0</ele><time>2026-04-26T07:41:25.08Z</time></trkpt><trkpt lat="44.0491555" lon="8.1473249"><ele>26.0</ele><time>2026-04-26T07:41:25.998Z</time></trkpt><trkpt lat="44.049274" lon="8.1474486"><ele>26.0</ele><time>2026-04-26T07:41:27.073Z</time></trkpt><trkpt lat="44.0493785" lon="8.1475424"><ele>26.333333333333332</ele><time>2026-04-26T07:41:28.044Z</time></trkpt><trkpt lat="44.0494913" lon="8.1476186"><ele>26.666666666666664</ele><time>2026-04-26T07:41:29.002Z</time></trkpt><trkpt lat="44.0497638" lon="8.1476743"><ele>27.0</ele><time>2026-04-26T07:41:31.003Z</time></trkpt><trkpt lat="44.0499113" lon="8.147648"><ele>27.666666666666664</ele><time>2026-04-26T07:41:32.088Z</time></trkpt><trkpt lat="44.0501762" lon="8.1475387"><ele>28.333333333333332</ele><time>2026-04-26T07:41:34.218Z</time></trkpt><trkpt lat="44.0502847" lon="8.1474896"><ele>29.0</ele><time>2026-04-26T07:41:35.145Z</time></trkpt><trkpt lat="44.0504945" lon="8.1473916"><ele>29.2</ele><time>2026-04-26T07:41:37.167Z</time></trkpt><trkpt lat="44.0505778" lon="8.1473508"><ele>29.4</ele><time>2026-04-26T07:41:38.149Z</time></trkpt><trkpt lat="44.0506578" lon="8.1473087"><ele>29.6</ele><time>2026-04-26T07:41:39.22Z</time></trkpt><trkpt lat="44.0507647" lon="8.1472646"><ele>29.8</ele><time>2026-04-26T07:41:41.165Z</time></trkpt><trkpt lat="44.0508406" lon="8.1472944"><ele>30.0</ele><time>2026-04-26T07:41:43.252Z</time></trkpt><trkpt lat="44.0509284" lon="8.1475508"><ele>30.0</ele><time>2026-04-26T07:41:46.07Z</time></trkpt><trkpt lat="44.0509706" lon="8.1477359"><ele>30.0</ele><time>2026-04-26T07:41:47.331Z</time></trkpt><trkpt lat="44.051009" lon="8.1478979"><ele>30.0</ele><time>2026-04-26T07:41:48.252Z</time></trkpt><trkpt lat="44.0510781" lon="8.1481951"><ele>29.333333333333336</ele><time>2026-04-26T07:41:49.962Z</time></trkpt><trkpt lat="44.0511278" lon="8.1483942"><ele>28.666666666666668</ele><time>2026-04-26T07:41:51.174Z</time></trkpt><trkpt lat="44.0511996" lon="8.1487033"><ele>28.0</ele><time>2026-04-26T07:41:53.009Z</time></trkpt><trkpt lat="44.0512153" lon="8.1488704"><ele>26.5</ele><time>2026-04-26T07:41:54.003Z</time></trkpt><trkpt lat="44.0512472" lon="8.1492093"><ele>25.0</ele><time>2026-04-26T07:41:56.061Z</time></trkpt><trkpt lat="44.0513236" lon="8.1495323"><ele>25.0</ele><time>2026-04-26T07:41:57.987Z</time></trkpt><trkpt lat="44.0513787" lon="8.1497058"><ele>25.0</ele><time>2026-04-26T07:41:58.969Z</time></trkpt><trkpt lat="44.0514442" lon="8.1498645"><ele>25.0</ele><time>2026-04-26T07:42:00.006Z</time></trkpt><trkpt lat="44.0515203" lon="8.1500125"><ele>25.0</ele><time>2026-04-26T07:42:01.031Z</time></trkpt><trkpt lat="44.0516065" lon="8.1501444"><ele>24.666666666666668</ele><time>2026-04-26T07:42:01.948Z</time></trkpt><trkpt lat="44.0517092" lon="8.1502856"><ele>24.333333333333336</ele><time>2026-04-26T07:42:02.974Z</time></trkpt><trkpt lat="44.0518192" lon="8.1504259"><ele>24.0</ele><time>2026-04-26T07:42:03.931Z</time></trkpt><trkpt lat="44.0519488" lon="8.1505885"><ele>23.666666666666668</ele><time>2026-04-26T07:42:05.023Z</time></trkpt><trkpt lat="44.052078" lon="8.1507521"><ele>23.333333333333336</ele><time>2026-04-26T07:42:06.024Z</time></trkpt><trkpt lat="44.052244" lon="8.1509647"><ele>23.0</ele><time>2026-04-26T07:42:07.19Z</time></trkpt><trkpt lat="44.0524993" lon="8.1512851"><ele>23.0</ele><time>2026-04-26T07:42:09.119Z</time></trkpt><trkpt lat="44.052619" lon="8.1514467"><ele>23.0</ele><time>2026-04-26T07:42:10.062Z</time></trkpt><trkpt lat="44.0527626" lon="8.1516634"><ele>23.0</ele><time>2026-04-26T07:42:11.081Z</time></trkpt><trkpt lat="44.0529826" lon="8.1520613"><ele>23.0</ele><time>2026-04-26T07:42:13.022Z</time></trkpt><trkpt lat="44.0530973" lon="8.1522377"><ele>23.0</ele><time>2026-04-26T07:42:14.061Z</time></trkpt><trkpt lat="44.0532097" lon="8.1523851"><ele>23.0</ele><time>2026-04-26T07:42:15.057Z</time></trkpt><trkpt lat="44.0533069" lon="8.1525085"><ele>23.666666666666668</ele><time>2026-04-26T07:42:15.924Z</time></trkpt><trkpt lat="44.0534245" lon="8.1526589"><ele>24.333333333333336</ele><time>2026-04-26T07:42:16.905Z</time></trkpt><trkpt lat="44.0535626" lon="8.1528397"><ele>25.0</ele><time>2026-04-26T07:42:18.086Z</time></trkpt><trkpt lat="44.0537463" lon="8.1531639"><ele>24.0</ele><time>2026-04-26T07:42:20.064Z</time></trkpt><trkpt lat="44.0539061" lon="8.1534931"><ele>23.0</ele><time>2026-04-26T07:42:21.984Z</time></trkpt><trkpt lat="44.0539916" lon="8.1536765"><ele>22.0</ele><time>2026-04-26T07:42:23.064Z</time></trkpt><trkpt lat="44.0540664" lon="8.1538332"><ele>23.333333333333332</ele><time>2026-04-26T07:42:24.002Z</time></trkpt><trkpt lat="44.0541394" lon="8.1539865"><ele>24.666666666666664</ele><time>2026-04-26T07:42:24.948Z</time></trkpt><trkpt lat="44.0542231" lon="8.1541655"><ele>26.0</ele><time>2026-04-26T07:42:26.085Z</time></trkpt><trkpt lat="44.0543633" lon="8.154463"><ele>26.0</ele><time>2026-04-26T07:42:27.951Z</time></trkpt><trkpt lat="44.0544372" lon="8.154621"><ele>26.0</ele><time>2026-04-26T07:42:28.993Z</time></trkpt><trkpt lat="44.0545655" lon="8.1548975"><ele>26.0</ele><time>2026-04-26T07:42:30.954Z</time></trkpt><trkpt lat="44.0546291" lon="8.1550319"><ele>25.5</ele><time>2026-04-26T07:42:32.009Z</time></trkpt><trkpt lat="44.0546885" lon="8.1551624"><ele>25.0</ele><time>2026-04-26T07:42:33.022Z</time></trkpt><trkpt lat="44.0547391" lon="8.1552772"><ele>24.5</ele><time>2026-04-26T07:42:33.97Z</time></trkpt><trkpt lat="44.0547848" lon="8.1553888"><ele>24.0</ele><time>2026-04-26T07:42:35.018Z</time></trkpt><trkpt lat="44.0548671" lon="8.1555839"><ele>23.5</ele><time>2026-04-26T07:42:37.1Z</time></trkpt><trkpt lat="44.0549439" lon="8.1557428"><ele>23.0</ele><time>2026-04-26T07:42:38.985Z</time></trkpt><trkpt lat="44.0550143" lon="8.1558907"><ele>22.5</ele><time>2026-04-26T07:42:41.106Z</time></trkpt><trkpt lat="44.05509" lon="8.1560079"><ele>22.0</ele><time>2026-04-26T07:42:43.026Z</time></trkpt><trkpt lat="44.0551871" lon="8.1560995"><ele>22.0</ele><time>2026-04-26T07:42:45.052Z</time></trkpt><trkpt lat="44.0552973" lon="8.1561546"><ele>22.0</ele><time>2026-04-26T07:42:47.04Z</time></trkpt><trkpt lat="44.0554107" lon="8.1562146"><ele>22.0</ele><time>2026-04-26T07:42:48.992Z</time></trkpt><trkpt lat="44.0555065" lon="8.1562979"><ele>22.0</ele><time>2026-04-26T07:42:50.965Z</time></trkpt><trkpt lat="44.0555778" lon="8.1563534"><ele>22.0</ele><time>2026-04-26T07:42:52.897Z</time></trkpt><trkpt lat="44.0556739" lon="8.1563318"><ele>22.0</ele><time>2026-04-26T07:42:55.073Z</time></trkpt><trkpt lat="44.0557236" lon="8.1561964"><ele>22.0</ele><time>2026-04-26T07:42:57.022Z</time></trkpt><trkpt lat="44.0557412" lon="8.1560853"><ele>22.0</ele><time>2026-04-26T07:42:58.143Z</time></trkpt><trkpt lat="44.0558085" lon="8.1558156"><ele>22.0</ele><time>2026-04-26T07:43:00.971Z</time></trkpt><trkpt lat="44.0558644" lon="8.1557125"><ele>22.6</ele><time>2026-04-26T07:43:01.999Z</time></trkpt><trkpt lat="44.0559255" lon="8.1556308"><ele>23.200000000000003</ele><time>2026-04-26T07:43:02.91Z</time></trkpt><trkpt lat="44.0560158" lon="8.1555243"><ele>23.8</ele><time>2026-04-26T07:43:03.99Z</time></trkpt><trkpt lat="44.0561033" lon="8.1554357"><ele>24.4</ele><time>2026-04-26T07:43:04.936Z</time></trkpt><trkpt lat="44.0562155" lon="8.1553313"><ele>25.0</ele><time>2026-04-26T07:43:05.99Z</time></trkpt><trkpt lat="44.0563178" lon="8.1552573"><ele>25.0</ele><time>2026-04-26T07:43:06.93Z</time></trkpt><trkpt lat="44.0564527" lon="8.1551621"><ele>25.0</ele><time>2026-04-26T07:43:08.092Z</time></trkpt><trkpt lat="44.056566" lon="8.1550806"><ele>25.0</ele><time>2026-04-26T07:43:09.029Z</time></trkpt><trkpt lat="44.0566878" lon="8.1549922"><ele>25.0</ele><time>2026-04-26T07:43:10.093Z</time></trkpt><trkpt lat="44.0569295" lon="8.1548279"><ele>26.333333333333336</ele><time>2026-04-26T07:43:12.138Z</time></trkpt><trkpt lat="44.057052" lon="8.1547471"><ele>27.666666666666664</ele><time>2026-04-26T07:43:13.117Z</time></trkpt><trkpt lat="44.0571637" lon="8.1546697"><ele>29.0</ele><time>2026-04-26T07:43:14.214Z</time></trkpt><trkpt lat="44.0573476" lon="8.1544775"><ele>29.0</ele><time>2026-04-26T07:43:16.154Z</time></trkpt><trkpt lat="44.0574673" lon="8.1541616"><ele>29.0</ele><time>2026-04-26T07:43:18.05Z</time></trkpt><trkpt lat="44.0575201" lon="8.1539874"><ele>29.0</ele><time>2026-04-26T07:43:19.054Z</time></trkpt><trkpt lat="44.0576638" lon="8.1536612"><ele>29.0</ele><time>2026-04-26T07:43:21.017Z</time></trkpt><trkpt lat="44.0577735" lon="8.1535076"><ele>29.0</ele><time>2026-04-26T07:43:22.025Z</time></trkpt><trkpt lat="44.0578891" lon="8.1533289"><ele>29.0</ele><time>2026-04-26T07:43:23.04Z</time></trkpt><trkpt lat="44.0579761" lon="8.1531491"><ele>28.0</ele><time>2026-04-26T07:43:23.977Z</time></trkpt><trkpt lat="44.0580727" lon="8.1529553"><ele>27.0</ele><time>2026-04-26T07:43:24.985Z</time></trkpt><trkpt lat="44.0581774" lon="8.1527666"><ele>26.0</ele><time>2026-04-26T07:43:26.038Z</time></trkpt><trkpt lat="44.0582664" lon="8.1525919"><ele>27.333333333333332</ele><time>2026-04-26T07:43:26.969Z</time></trkpt><trkpt lat="44.0583492" lon="8.1524116"><ele>28.666666666666664</ele><time>2026-04-26T07:43:27.94Z</time></trkpt><trkpt lat="44.0584355" lon="8.1522001"><ele>30.0</ele><time>2026-04-26T07:43:29.045Z</time></trkpt><trkpt lat="44.0585018" lon="8.152027"><ele>30.0</ele><time>2026-04-26T07:43:30.001Z</time></trkpt><trkpt lat="44.0585458" lon="8.1518427"><ele>30.0</ele><time>2026-04-26T07:43:30.945Z</time></trkpt><trkpt lat="44.0585688" lon="8.1516366"><ele>30.0</ele><time>2026-04-26T07:43:31.966Z</time></trkpt><trkpt lat="44.0585804" lon="8.1514266"><ele>30.0</ele><time>2026-04-26T07:43:32.989Z</time></trkpt><trkpt lat="44.0586214" lon="8.1511993"><ele>30.5</ele><time>2026-04-26T07:43:34.109Z</time></trkpt><trkpt lat="44.0587648" lon="8.1508218"><ele>31.0</ele><time>2026-04-26T07:43:36.029Z</time></trkpt><trkpt lat="44.0589361" lon="8.1504457"><ele>32.0</ele><time>2026-04-26T07:43:38.037Z</time></trkpt><trkpt lat="44.0590046" lon="8.1502623"><ele>33.0</ele><time>2026-04-26T07:43:38.974Z</time></trkpt><trkpt lat="44.0590608" lon="8.1500555"><ele>34.0</ele><time>2026-04-26T07:43:40.078Z</time></trkpt><trkpt lat="44.0591044" lon="8.1498363"><ele>38.0</ele><time>2026-04-26T07:43:41.092Z</time></trkpt><trkpt lat="44.0591806" lon="8.1494018"><ele>42.0</ele><time>2026-04-26T07:43:43.079Z</time></trkpt><trkpt lat="44.0592176" lon="8.1491947"><ele>41.666666666666664</ele><time>2026-04-26T07:43:44.034Z</time></trkpt><trkpt lat="44.0592566" lon="8.14899"><ele>41.33333333333333</ele><time>2026-04-26T07:43:45.012Z</time></trkpt><trkpt lat="44.059289" lon="8.1487867"><ele>41.0</ele><time>2026-04-26T07:43:45.946Z</time></trkpt><trkpt lat="44.0593652" lon="8.1483406"><ele>41.0</ele><time>2026-04-26T07:43:48.028Z</time></trkpt><trkpt lat="44.0594072" lon="8.1481199"><ele>41.0</ele><time>2026-04-26T07:43:48.992Z</time></trkpt><trkpt lat="44.0594559" lon="8.1478772"><ele>41.0</ele><time>2026-04-26T07:43:50.153Z</time></trkpt><trkpt lat="44.0595584" lon="8.1474606"><ele>40.5</ele><time>2026-04-26T07:43:52.146Z</time></trkpt><trkpt lat="44.059668" lon="8.1470988"><ele>40.0</ele><time>2026-04-26T07:43:53.997Z</time></trkpt><trkpt lat="44.0597545" lon="8.1468671"><ele>40.0</ele><time>2026-04-26T07:43:55.18Z</time></trkpt><trkpt lat="44.0598177" lon="8.1466631"><ele>40.0</ele><time>2026-04-26T07:43:56.138Z</time></trkpt><trkpt lat="44.0598793" lon="8.1461641"><ele>41.0</ele><time>2026-04-26T07:43:58.069Z</time></trkpt><trkpt lat="44.0599347" lon="8.1458338"><ele>42.0</ele><time>2026-04-26T07:43:59.212Z</time></trkpt><trkpt lat="44.0600767" lon="8.1453744"><ele>43.0</ele><time>2026-04-26T07:44:01.111Z</time></trkpt><trkpt lat="44.060163" lon="8.1451529"><ele>44.0</ele><time>2026-04-26T07:44:02.126Z</time></trkpt><trkpt lat="44.0602491" lon="8.144939"><ele>45.0</ele><time>2026-04-26T07:44:03.082Z</time></trkpt><trkpt lat="44.0603294" lon="8.1447293"><ele>45.0</ele><time>2026-04-26T07:44:04.014Z</time></trkpt><trkpt lat="44.0604065" lon="8.1445089"><ele>45.0</ele><time>2026-04-26T07:44:04.967Z</time></trkpt><trkpt lat="44.0604703" lon="8.144291"><ele>45.0</ele><time>2026-04-26T07:44:05.902Z</time></trkpt><trkpt lat="44.0605383" lon="8.144009"><ele>46.5</ele><time>2026-04-26T07:44:07.104Z</time></trkpt><trkpt lat="44.0606453" lon="8.1435333"><ele>48.0</ele><time>2026-04-26T07:44:09.098Z</time></trkpt><trkpt lat="44.0606895" lon="8.1433599"><ele>48.66666666666667</ele><time>2026-04-26T07:44:09.849Z</time></trkpt><trkpt lat="44.060773" lon="8.1430842"><ele>49.333333333333336</ele><time>2026-04-26T07:44:11.117Z</time></trkpt><trkpt lat="44.0608434" lon="8.1428897"><ele>50.0</ele><time>2026-04-26T07:44:12.058Z</time></trkpt><trkpt lat="44.0609155" lon="8.1427052"><ele>50.0</ele><time>2026-04-26T07:44:12.997Z</time></trkpt><trkpt lat="44.0609858" lon="8.1425328"><ele>50.0</ele><time>2026-04-26T07:44:13.988Z</time></trkpt><trkpt lat="44.0610966" lon="8.1423468"><ele>50.0</ele><time>2026-04-26T07:44:15.091Z</time></trkpt><trkpt lat="44.061338" lon="8.1420571"><ele>50.333333333333336</ele><time>2026-04-26T07:44:17.037Z</time></trkpt><trkpt lat="44.0614503" lon="8.141914"><ele>50.66666666666667</ele><time>2026-04-26T07:44:18.062Z</time></trkpt><trkpt lat="44.0616491" lon="8.1416776"><ele>51.0</ele><time>2026-04-26T07:44:20.075Z</time></trkpt><trkpt lat="44.0617655" lon="8.1413545"><ele>51.66666666666667</ele><time>2026-04-26T07:44:21.925Z</time></trkpt><trkpt lat="44.0618079" lon="8.1411079"><ele>52.333333333333336</ele><time>2026-04-26T07:44:23.045Z</time></trkpt><trkpt lat="44.0618442" lon="8.140883"><ele>53.0</ele><time>2026-04-26T07:44:24.056Z</time></trkpt><trkpt lat="44.0618815" lon="8.140658"><ele>53.0</ele><time>2026-04-26T07:44:25.043Z</time></trkpt><trkpt lat="44.0619151" lon="8.140446"><ele>53.0</ele><time>2026-04-26T07:44:26.008Z</time></trkpt><trkpt lat="44.0619542" lon="8.1402417"><ele>53.0</ele><time>2026-04-26T07:44:27.02Z</time></trkpt><trkpt lat="44.0620108" lon="8.1400559"><ele>53.66666666666667</ele><time>2026-04-26T07:44:27.999Z</time></trkpt><trkpt lat="44.0621058" lon="8.1398693"><ele>54.33333333333333</ele><time>2026-04-26T07:44:29.053Z</time></trkpt><trkpt lat="44.0622156" lon="8.1397004"><ele>55.0</ele><time>2026-04-26T07:44:30.151Z</time></trkpt><trkpt lat="44.0622864" lon="8.1395569"><ele>55.0</ele><time>2026-04-26T07:44:31.11Z</time></trkpt><trkpt lat="44.0623268" lon="8.1393702"><ele>55.0</ele><time>2026-04-26T07:44:32.128Z</time></trkpt><trkpt lat="44.0623313" lon="8.139132"><ele>55.0</ele><time>2026-04-26T07:44:33.165Z</time></trkpt><trkpt lat="44.0623824" lon="8.138709"><ele>55.0</ele><time>2026-04-26T07:44:35.023Z</time></trkpt><trkpt lat="44.0624348" lon="8.1384845"><ele>55.0</ele><time>2026-04-26T07:44:36.138Z</time></trkpt><trkpt lat="44.0624993" lon="8.138307"><ele>55.0</ele><time>2026-04-26T07:44:37.138Z</time></trkpt><trkpt lat="44.0625806" lon="8.1381455"><ele>55.666666666666664</ele><time>2026-04-26T07:44:38.124Z</time></trkpt><trkpt lat="44.0626314" lon="8.1379573"><ele>56.33333333333333</ele><time>2026-04-26T07:44:39.154Z</time></trkpt><trkpt lat="44.0626477" lon="8.1377445"><ele>57.0</ele><time>2026-04-26T07:44:40.084Z</time></trkpt><trkpt lat="44.0626366" lon="8.1375129"><ele>58.0</ele><time>2026-04-26T07:44:41.048Z</time></trkpt><trkpt lat="44.0626302" lon="8.1372516"><ele>59.0</ele><time>2026-04-26T07:44:42.141Z</time></trkpt><trkpt lat="44.0626369" lon="8.1369841"><ele>60.0</ele><time>2026-04-26T07:44:43.293Z</time></trkpt><trkpt lat="44.0626384" lon="8.1365394"><ele>60.33333333333333</ele><time>2026-04-26T07:44:45.181Z</time></trkpt><trkpt lat="44.0626234" lon="8.1363072"><ele>60.666666666666664</ele><time>2026-04-26T07:44:46.266Z</time></trkpt><trkpt lat="44.0626221" lon="8.1361229"><ele>61.0</ele><time>2026-04-26T07:44:47.228Z</time></trkpt><trkpt lat="44.0626969" lon="8.1356893"><ele>62.0</ele><time>2026-04-26T07:44:49.216Z</time></trkpt><trkpt lat="44.0627999" lon="8.1352846"><ele>63.0</ele><time>2026-04-26T07:44:51.278Z</time></trkpt><trkpt lat="44.0628476" lon="8.1349064"><ele>63.0</ele><time>2026-04-26T07:44:53.138Z</time></trkpt><trkpt lat="44.0628477" lon="8.1346459"><ele>63.0</ele><time>2026-04-26T07:44:54.222Z</time></trkpt><trkpt lat="44.0628429" lon="8.1344048"><ele>63.0</ele><time>2026-04-26T07:44:55.166Z</time></trkpt><trkpt lat="44.0628485" lon="8.1341441"><ele>64.0</ele><time>2026-04-26T07:44:56.209Z</time></trkpt><trkpt lat="44.0628617" lon="8.1338814"><ele>65.0</ele><time>2026-04-26T07:44:57.327Z</time></trkpt><trkpt lat="44.0628892" lon="8.1336621"><ele>66.0</ele><time>2026-04-26T07:44:58.267Z</time></trkpt><trkpt lat="44.0629664" lon="8.1331637"><ele>67.33333333333333</ele><time>2026-04-26T07:45:00.398Z</time></trkpt><trkpt lat="44.0630137" lon="8.1327929"><ele>68.66666666666666</ele><time>2026-04-26T07:45:02.23Z</time></trkpt><trkpt lat="44.0630611" lon="8.1325593"><ele>70.0</ele><time>2026-04-26T07:45:03.384Z</time></trkpt><trkpt lat="44.0631503" lon="8.1322384"><ele>71.25</ele><time>2026-04-26T07:45:05.057Z</time></trkpt><trkpt lat="44.0631996" lon="8.1320665"><ele>72.5</ele><time>2026-04-26T07:45:06.029Z</time></trkpt><trkpt lat="44.0632373" lon="8.1319192"><ele>73.75</ele><time>2026-04-26T07:45:06.973Z</time></trkpt><trkpt lat="44.0632697" lon="8.1317164"><ele>75.0</ele><time>2026-04-26T07:45:08.164Z</time></trkpt><trkpt lat="44.063261" lon="8.131569"><ele>75.66666666666667</ele><time>2026-04-26T07:45:08.826Z</time></trkpt><trkpt lat="44.0632453" lon="8.1313038"><ele>76.33333333333334</ele><time>2026-04-26T07:45:10.026Z</time></trkpt><trkpt lat="44.0632338" lon="8.131089"><ele>77.0</ele><time>2026-04-26T07:45:10.994Z</time></trkpt><trkpt lat="44.0632258" lon="8.1308669"><ele>79.0</ele><time>2026-04-26T07:45:12.002Z</time></trkpt><trkpt lat="44.0632244" lon="8.130618"><ele>81.0</ele><time>2026-04-26T07:45:13.11Z</time></trkpt><trkpt lat="44.0632317" lon="8.1302306"><ele>81.0</ele><time>2026-04-26T07:45:15.108Z</time></trkpt><trkpt lat="44.0632517" lon="8.1300301"><ele>81.0</ele><time>2026-04-26T07:45:16.16Z</time></trkpt><trkpt lat="44.0634002" lon="8.1295987"><ele>78.5</ele><time>2026-04-26T07:45:18.181Z</time></trkpt><trkpt lat="44.0635919" lon="8.1292082"><ele>76.0</ele><time>2026-04-26T07:45:20.05Z</time></trkpt><trkpt lat="44.0637125" lon="8.1289596"><ele>75.5</ele><time>2026-04-26T07:45:21.161Z</time></trkpt><trkpt lat="44.0639184" lon="8.1285309"><ele>75.0</ele><time>2026-04-26T07:45:23.185Z</time></trkpt><trkpt lat="44.0641214" lon="8.1281265"><ele>79.5</ele><time>2026-04-26T07:45:25.108Z</time></trkpt><trkpt lat="44.0642335" lon="8.1278837"><ele>84.0</ele><time>2026-04-26T07:45:26.212Z</time></trkpt><trkpt lat="44.064381" lon="8.127436"><ele>84.5</ele><time>2026-04-26T07:45:28.041Z</time></trkpt><trkpt lat="44.0644403" lon="8.1271505"><ele>85.0</ele><time>2026-04-26T07:45:29.172Z</time></trkpt><trkpt lat="44.0645212" lon="8.1265962"><ele>84.66666666666666</ele><time>2026-04-26T07:45:31.104Z</time></trkpt><trkpt lat="44.0645642" lon="8.1263067"><ele>84.33333333333333</ele><time>2026-04-26T07:45:32.122Z</time></trkpt><trkpt lat="44.0646067" lon="8.1260453"><ele>84.0</ele><time>2026-04-26T07:45:33.087Z</time></trkpt><trkpt lat="44.0646516" lon="8.1257973"><ele>84.5</ele><time>2026-04-26T07:45:34.012Z</time></trkpt><trkpt lat="44.0647114" lon="8.1254774"><ele>85.0</ele><time>2026-04-26T07:45:35.191Z</time></trkpt><trkpt lat="44.0648063" lon="8.1249671"><ele>85.33333333333333</ele><time>2026-04-26T07:45:37.16Z</time></trkpt><trkpt lat="44.0648605" lon="8.1247321"><ele>85.66666666666667</ele><time>2026-04-26T07:45:38.123Z</time></trkpt><trkpt lat="44.0649298" lon="8.1244959"><ele>86.0</ele><time>2026-04-26T07:45:39.1Z</time></trkpt><trkpt lat="44.0651415" lon="8.1240308"><ele>89.33333333333334</ele><time>2026-04-26T07:45:41.172Z</time></trkpt><trkpt lat="44.0652541" lon="8.1237988"><ele>92.66666666666667</ele><time>2026-04-26T07:45:42.196Z</time></trkpt><trkpt lat="44.0653386" lon="8.123587"><ele>96.0</ele><time>2026-04-26T07:45:43.117Z</time></trkpt><trkpt lat="44.0654251" lon="8.1233724"><ele>93.33333333333333</ele><time>2026-04-26T07:45:44.115Z</time></trkpt><trkpt lat="44.0655264" lon="8.123165"><ele>90.66666666666666</ele><time>2026-04-26T07:45:45.121Z</time></trkpt><trkpt lat="44.0656269" lon="8.1229918"><ele>88.0</ele><time>2026-04-26T07:45:46.103Z</time></trkpt><trkpt lat="44.0657485" lon="8.1228238"><ele>96.66666666666666</ele><time>2026-04-26T07:45:47.106Z</time></trkpt><trkpt lat="44.0658828" lon="8.1226523"><ele>105.33333333333333</ele><time>2026-04-26T07:45:48.125Z</time></trkpt><trkpt lat="44.0660102" lon="8.1225336"><ele>114.0</ele><time>2026-04-26T07:45:49.051Z</time></trkpt><trkpt lat="44.0661855" lon="8.1224269"><ele>108.5</ele><time>2026-04-26T07:45:50.158Z</time></trkpt><trkpt lat="44.0663232" lon="8.1222832"><ele>103.0</ele><time>2026-04-26T07:45:51.149Z</time></trkpt><trkpt lat="44.0665272" lon="8.1220017"><ele>103.0</ele><time>2026-04-26T07:45:53.161Z</time></trkpt><trkpt lat="44.0666024" lon="8.1219008"><ele>103.0</ele><time>2026-04-26T07:45:54.103Z</time></trkpt><trkpt lat="44.0666832" lon="8.1217947"><ele>103.0</ele><time>2026-04-26T07:45:55.213Z</time></trkpt><trkpt lat="44.0667994" lon="8.1216901"><ele>103.0</ele><time>2026-04-26T07:45:57.134Z</time></trkpt><trkpt lat="44.0667435" lon="8.1220213"><ele>108.5</ele><time>2026-04-26T07:46:01.981Z</time></trkpt><trkpt lat="44.0666203" lon="8.1221847"><ele>114.0</ele><time>2026-04-26T07:46:03.252Z</time></trkpt><trkpt lat="44.0664864" lon="8.1225345"><ele>114.0</ele><time>2026-04-26T07:46:05.213Z</time></trkpt><trkpt lat="44.0662867" lon="8.122858"><ele>114.0</ele><time>2026-04-26T07:46:07.278Z</time></trkpt><trkpt lat="44.0660481" lon="8.123053"><ele>114.0</ele><time>2026-04-26T07:46:09.065Z</time></trkpt><trkpt lat="44.0659504" lon="8.1231732"><ele>114.0</ele><time>2026-04-26T07:46:10.228Z</time></trkpt><trkpt lat="44.0658993" lon="8.1232601"><ele>114.0</ele><time>2026-04-26T07:46:11.263Z</time></trkpt><trkpt lat="44.0659084" lon="8.1234063"><ele>114.0</ele><time>2026-04-26T07:46:13.097Z</time></trkpt><trkpt lat="44.0659847" lon="8.1234518"><ele>114.0</ele><time>2026-04-26T07:46:15.333Z</time></trkpt><trkpt lat="44.0661829" lon="8.1232429"><ele>114.0</ele><time>2026-04-26T07:46:17.053Z</time></trkpt><trkpt lat="44.066326" lon="8.1231292"><ele>114.0</ele><time>2026-04-26T07:46:18.144Z</time></trkpt><trkpt lat="44.0664768" lon="8.1230317"><ele>114.0</ele><time>2026-04-26T07:46:19.27Z</time></trkpt><trkpt lat="44.0667666" lon="8.122806"><ele>120.5</ele><time>2026-04-26T07:46:21.213Z</time></trkpt><trkpt lat="44.0669101" lon="8.1226637"><ele>127.0</ele><time>2026-04-26T07:46:22.25Z</time></trkpt><trkpt lat="44.0671372" lon="8.1223503"><ele>127.0</ele><time>2026-04-26T07:46:24.211Z</time></trkpt><trkpt lat="44.0672073" lon="8.1221987"><ele>127.0</ele><time>2026-04-26T07:46:25.129Z</time></trkpt><trkpt lat="44.0672937" lon="8.1220482"><ele>127.0</ele><time>2026-04-26T07:46:26.238Z</time></trkpt><trkpt lat="44.0674724" lon="8.1217734"><ele>131.75</ele><time>2026-04-26T07:46:28.246Z</time></trkpt><trkpt lat="44.067554" lon="8.1217216"><ele>136.5</ele><time>2026-04-26T07:46:29.181Z</time></trkpt><trkpt lat="44.0676446" lon="8.1217403"><ele>141.25</ele><time>2026-04-26T07:46:30.086Z</time></trkpt><trkpt lat="44.0678321" lon="8.1217743"><ele>146.0</ele><time>2026-04-26T07:46:31.362Z</time></trkpt><trkpt lat="44.0679599" lon="8.1217282"><ele>146.0</ele><time>2026-04-26T07:46:32.269Z</time></trkpt><trkpt lat="44.0682254" lon="8.1216274"><ele>146.0</ele><time>2026-04-26T07:46:34.051Z</time></trkpt><trkpt lat="44.0683786" lon="8.1215478"><ele>146.0</ele><time>2026-04-26T07:46:35.205Z</time></trkpt><trkpt lat="44.0684744" lon="8.1212807"><ele>147.66666666666666</ele><time>2026-04-26T07:46:37.184Z</time></trkpt><trkpt lat="44.0686279" lon="8.1210123"><ele>149.33333333333334</ele><time>2026-04-26T07:46:39.172Z</time></trkpt><trkpt lat="44.0687321" lon="8.1208978"><ele>151.0</ele><time>2026-04-26T07:46:40.168Z</time></trkpt><trkpt lat="44.0688398" lon="8.1208419"><ele>151.0</ele><time>2026-04-26T07:46:41.164Z</time></trkpt><trkpt lat="44.0690221" lon="8.1208115"><ele>151.0</ele><time>2026-04-26T07:46:43.234Z</time></trkpt><trkpt lat="44.069086" lon="8.1208324"><ele>151.0</ele><time>2026-04-26T07:46:44.208Z</time></trkpt><trkpt lat="44.0691868" lon="8.1209"><ele>151.0</ele><time>2026-04-26T07:46:45.132Z</time></trkpt><trkpt lat="44.0692861" lon="8.1209916"><ele>152.5</ele><time>2026-04-26T07:46:46.228Z</time></trkpt><trkpt lat="44.0693499" lon="8.1210808"><ele>154.0</ele><time>2026-04-26T07:46:47.172Z</time></trkpt><trkpt lat="44.069391" lon="8.1212183"><ele>155.5</ele><time>2026-04-26T07:46:48.337Z</time></trkpt><trkpt lat="44.069496" lon="8.121476"><ele>157.0</ele><time>2026-04-26T07:46:50.069Z</time></trkpt><trkpt lat="44.0695631" lon="8.121579"><ele>157.0</ele><time>2026-04-26T07:46:51.004Z</time></trkpt><trkpt lat="44.0696532" lon="8.1216432"><ele>157.0</ele><time>2026-04-26T07:46:52.206Z</time></trkpt><trkpt lat="44.0697461" lon="8.1215296"><ele>157.0</ele><time>2026-04-26T07:46:53.234Z</time></trkpt><trkpt lat="44.0698561" lon="8.1214076"><ele>157.0</ele><time>2026-04-26T07:46:54.214Z</time></trkpt><trkpt lat="44.0699678" lon="8.1212967"><ele>159.33333333333334</ele><time>2026-04-26T07:46:55.15Z</time></trkpt><trkpt lat="44.0702247" lon="8.1211163"><ele>161.66666666666666</ele><time>2026-04-26T07:46:58.061Z</time></trkpt><trkpt lat="44.0703034" lon="8.1211671"><ele>164.0</ele><time>2026-04-26T07:46:59.15Z</time></trkpt><trkpt lat="44.0703872" lon="8.1212697"><ele>164.0</ele><time>2026-04-26T07:47:00.262Z</time></trkpt><trkpt lat="44.0704567" lon="8.1213748"><ele>164.0</ele><time>2026-04-26T07:47:01.194Z</time></trkpt><trkpt lat="44.0705335" lon="8.121441"><ele>164.0</ele><time>2026-04-26T07:47:02.064Z</time></trkpt><trkpt lat="44.0706596" lon="8.1215019"><ele>164.0</ele><time>2026-04-26T07:47:03.226Z</time></trkpt><trkpt lat="44.0709504" lon="8.1216582"><ele>169.5</ele><time>2026-04-26T07:47:05.169Z</time></trkpt><trkpt lat="44.0711091" lon="8.1217811"><ele>175.0</ele><time>2026-04-26T07:47:06.255Z</time></trkpt><trkpt lat="44.0713533" lon="8.1219625"><ele>175.0</ele><time>2026-04-26T07:47:08.326Z</time></trkpt><trkpt lat="44.0715343" lon="8.1220446"><ele>175.0</ele><time>2026-04-26T07:47:10.166Z</time></trkpt><trkpt lat="44.0716601" lon="8.1220442"><ele>175.0</ele><time>2026-04-26T07:47:11.218Z</time></trkpt><trkpt lat="44.0717936" lon="8.1220049"><ele>182.0</ele><time>2026-04-26T07:47:12.171Z</time></trkpt><trkpt lat="44.0720968" lon="8.1218574"><ele>189.0</ele><time>2026-04-26T07:47:14.085Z</time></trkpt><trkpt lat="44.0722549" lon="8.1217716"><ele>190.33333333333331</ele><time>2026-04-26T07:47:15.141Z</time></trkpt><trkpt lat="44.072498" lon="8.1216332"><ele>191.66666666666666</ele><time>2026-04-26T07:47:17.124Z</time></trkpt><trkpt lat="44.0726038" lon="8.1215649"><ele>193.0</ele><time>2026-04-26T07:47:18.212Z</time></trkpt><trkpt lat="44.0727778" lon="8.1213648"><ele>196.5</ele><time>2026-04-26T07:47:20.086Z</time></trkpt><trkpt lat="44.0728722" lon="8.1212371"><ele>200.0</ele><time>2026-04-26T07:47:21.161Z</time></trkpt><trkpt lat="44.0729734" lon="8.1211699"><ele>203.5</ele><time>2026-04-26T07:47:22.075Z</time></trkpt><trkpt lat="44.0731165" lon="8.1211458"><ele>207.0</ele><time>2026-04-26T07:47:23.082Z</time></trkpt><trkpt lat="44.0732483" lon="8.1210789"><ele>206.25</ele><time>2026-04-26T07:47:24.062Z</time></trkpt><trkpt lat="44.0733837" lon="8.1210006"><ele>205.5</ele><time>2026-04-26T07:47:25.086Z</time></trkpt><trkpt lat="44.0734949" lon="8.1209241"><ele>204.75</ele><time>2026-04-26T07:47:26.055Z</time></trkpt><trkpt lat="44.0735999" lon="8.1208911"><ele>204.0</ele><time>2026-04-26T07:47:27.07Z</time></trkpt><trkpt lat="44.0736778" lon="8.1208791"><ele>204.0</ele><time>2026-04-26T07:47:28.016Z</time></trkpt><trkpt lat="44.0737561" lon="8.1208615"><ele>204.0</ele><time>2026-04-26T07:47:29.161Z</time></trkpt><trkpt lat="44.0738277" lon="8.1207701"><ele>204.0</ele><time>2026-04-26T07:47:31.146Z</time></trkpt><trkpt lat="44.0737656" lon="8.1206443"><ele>204.0</ele><time>2026-04-26T07:47:33.127Z</time></trkpt><trkpt lat="44.073595" lon="8.1206527"><ele>204.0</ele><time>2026-04-26T07:47:35.077Z</time></trkpt><trkpt lat="44.0734596" lon="8.1207188"><ele>204.0</ele><time>2026-04-26T07:47:36.074Z</time></trkpt><trkpt lat="44.073327" lon="8.1207638"><ele>204.0</ele><time>2026-04-26T07:47:37.07Z</time></trkpt><trkpt lat="44.0731678" lon="8.1207867"><ele>204.0</ele><time>2026-04-26T07:47:38.138Z</time></trkpt><trkpt lat="44.0728952" lon="8.1207384"><ele>204.75</ele><time>2026-04-26T07:47:40.148Z</time></trkpt><trkpt lat="44.0727797" lon="8.1207383"><ele>205.5</ele><time>2026-04-26T07:47:41.108Z</time></trkpt><trkpt lat="44.0726688" lon="8.1207477"><ele>206.25</ele><time>2026-04-26T07:47:42.182Z</time></trkpt><trkpt lat="44.0725149" lon="8.1207251"><ele>207.0</ele><time>2026-04-26T07:47:44.119Z</time></trkpt><trkpt lat="44.0725058" lon="8.1205913"><ele>207.0</ele><time>2026-04-26T07:47:46.125Z</time></trkpt><trkpt lat="44.0725605" lon="8.120546"><ele>207.0</ele><time>2026-04-26T07:47:47.191Z</time></trkpt><trkpt lat="44.072741" lon="8.1206142"><ele>207.0</ele><time>2026-04-26T07:47:49.351Z</time></trkpt><trkpt lat="44.0729741" lon="8.1205827"><ele>207.0</ele><time>2026-04-26T07:47:51.203Z</time></trkpt><trkpt lat="44.0731805" lon="8.1205359"><ele>207.0</ele><time>2026-04-26T07:47:52.972Z</time></trkpt><trkpt lat="44.0732799" lon="8.1205074"><ele>207.0</ele><time>2026-04-26T07:47:54.001Z</time></trkpt><trkpt lat="44.0733537" lon="8.1204878"><ele>207.0</ele><time>2026-04-26T07:47:54.99Z</time></trkpt><trkpt lat="44.073423" lon="8.1204616"><ele>207.0</ele><time>2026-04-26T07:47:56.113Z</time></trkpt><trkpt lat="44.0734879" lon="8.1203516"><ele>207.0</ele><time>2026-04-26T07:47:58.03Z</time></trkpt><trkpt lat="44.0734567" lon="8.1202722"><ele>207.0</ele><time>2026-04-26T07:47:59.202Z</time></trkpt><trkpt lat="44.0732116" lon="8.1202953"><ele>207.0</ele><time>2026-04-26T07:48:02.173Z</time></trkpt><trkpt lat="44.0731222" lon="8.1203097"><ele>207.0</ele><time>2026-04-26T07:48:03.1Z</time></trkpt><trkpt lat="44.0730284" lon="8.1202553"><ele>207.0</ele><time>2026-04-26T07:48:04.097Z</time></trkpt><trkpt lat="44.0729605" lon="8.1201456"><ele>207.0</ele><time>2026-04-26T07:48:05.073Z</time></trkpt><trkpt lat="44.072929" lon="8.1200288"><ele>207.0</ele><time>2026-04-26T07:48:06.082Z</time></trkpt><trkpt lat="44.0730034" lon="8.1197747"><ele>210.0</ele><time>2026-04-26T07:48:08.157Z</time></trkpt><trkpt lat="44.0730956" lon="8.1196788"><ele>213.0</ele><time>2026-04-26T07:48:09.127Z</time></trkpt><trkpt lat="44.0732255" lon="8.1195683"><ele>216.0</ele><time>2026-04-26T07:48:10.336Z</time></trkpt><trkpt lat="44.073437" lon="8.1193891"><ele>216.0</ele><time>2026-04-26T07:48:12.109Z</time></trkpt><trkpt lat="44.0737045" lon="8.1192019"><ele>216.0</ele><time>2026-04-26T07:48:14.166Z</time></trkpt><trkpt lat="44.0738411" lon="8.1191136"><ele>217.0</ele><time>2026-04-26T07:48:15.142Z</time></trkpt><trkpt lat="44.0739856" lon="8.1190199"><ele>218.0</ele><time>2026-04-26T07:48:16.148Z</time></trkpt><trkpt lat="44.0741228" lon="8.1189309"><ele>219.0</ele><time>2026-04-26T07:48:17.082Z</time></trkpt><trkpt lat="44.0742447" lon="8.1188512"><ele>220.0</ele><time>2026-04-26T07:48:18.004Z</time></trkpt><trkpt lat="44.0743789" lon="8.1187606"><ele>220.0</ele><time>2026-04-26T07:48:19.133Z</time></trkpt><trkpt lat="44.0744883" lon="8.1186851"><ele>220.0</ele><time>2026-04-26T07:48:20.079Z</time></trkpt><trkpt lat="44.074611" lon="8.1186145"><ele>220.0</ele><time>2026-04-26T07:48:21.221Z</time></trkpt><trkpt lat="44.0748179" lon="8.1186116"><ele>222.25</ele><time>2026-04-26T07:48:22.958Z</time></trkpt><trkpt lat="44.0749381" lon="8.1186198"><ele>224.5</ele><time>2026-04-26T07:48:24.068Z</time></trkpt><trkpt lat="44.0750306" lon="8.1186225"><ele>226.75</ele><time>2026-04-26T07:48:25.156Z</time></trkpt><trkpt lat="44.0751418" lon="8.1186795"><ele>229.0</ele><time>2026-04-26T07:48:27.149Z</time></trkpt><trkpt lat="44.075131" lon="8.1188492"><ele>229.0</ele><time>2026-04-26T07:48:29.19Z</time></trkpt><trkpt lat="44.0749803" lon="8.1189017"><ele>229.0</ele><time>2026-04-26T07:48:31.224Z</time></trkpt><trkpt lat="44.0747653" lon="8.1189817"><ele>229.0</ele><time>2026-04-26T07:48:33.13Z</time></trkpt><trkpt lat="44.074657" lon="8.1190619"><ele>230.0</ele><time>2026-04-26T07:48:34.17Z</time></trkpt><trkpt lat="44.0745204" lon="8.11917"><ele>230.99999999999997</ele><time>2026-04-26T07:48:36.235Z</time></trkpt><trkpt lat="44.0744756" lon="8.1192922"><ele>231.99999999999997</ele><time>2026-04-26T07:48:38.201Z</time></trkpt><trkpt lat="44.074556" lon="8.1193855"><ele>233.0</ele><time>2026-04-26T07:48:40.165Z</time></trkpt><trkpt lat="44.0746438" lon="8.1193695"><ele>234.0</ele><time>2026-04-26T07:48:41.253Z</time></trkpt><trkpt lat="44.0748605" lon="8.119275"><ele>238.0</ele><time>2026-04-26T07:48:43.254Z</time></trkpt><trkpt lat="44.0750657" lon="8.1192522"><ele>242.0</ele><time>2026-04-26T07:48:44.988Z</time></trkpt><trkpt lat="44.0751956" lon="8.1192604"><ele>246.0</ele><time>2026-04-26T07:48:46.028Z</time></trkpt><trkpt lat="44.0753314" lon="8.1192629"><ele>246.0</ele><time>2026-04-26T07:48:46.937Z</time></trkpt><trkpt lat="44.0754759" lon="8.1192607"><ele>246.0</ele><time>2026-04-26T07:48:47.865Z</time></trkpt><trkpt lat="44.075653" lon="8.1192354"><ele>246.0</ele><time>2026-04-26T07:48:49.01Z</time></trkpt><trkpt lat="44.0757961" lon="8.1192151"><ele>246.0</ele><time>2026-04-26T07:48:49.948Z</time></trkpt><trkpt lat="44.0759646" lon="8.1191811"><ele>246.0</ele><time>2026-04-26T07:48:51.097Z</time></trkpt><trkpt lat="44.0762215" lon="8.1191192"><ele>246.0</ele><time>2026-04-26T07:48:53.081Z</time></trkpt><trkpt lat="44.0764534" lon="8.1190336"><ele>246.0</ele><time>2026-04-26T07:48:55.144Z</time></trkpt><trkpt lat="44.0765509" lon="8.1189797"><ele>246.00000000000003</ele><time>2026-04-26T07:48:56.061Z</time></trkpt><trkpt lat="44.0766514" lon="8.1188943"><ele>246.00000000000003</ele><time>2026-04-26T07:48:57.131Z</time></trkpt><trkpt lat="44.0767175" lon="8.1188207"><ele>246.0</ele><time>2026-04-26T07:48:58.061Z</time></trkpt><trkpt lat="44.0767729" lon="8.1187274"><ele>246.0</ele><time>2026-04-26T07:49:00.059Z</time></trkpt><trkpt lat="44.0767911" lon="8.1186418"><ele>246.0</ele><time>2026-04-26T07:49:15.008Z</time></trkpt><trkpt lat="44.076741" lon="8.1187357"><ele>246.0</ele><time>2026-04-26T07:49:18.121Z</time></trkpt><trkpt lat="44.076623" lon="8.1189083"><ele>246.0</ele><time>2026-04-26T07:49:20.106Z</time></trkpt><trkpt lat="44.0765276" lon="8.1189752"><ele>246.0</ele><time>2026-04-26T07:49:21.148Z</time></trkpt><trkpt lat="44.0763508" lon="8.1190551"><ele>247.60000000000002</ele><time>2026-04-26T07:49:22.864Z</time></trkpt><trkpt lat="44.0762498" lon="8.1190899"><ele>249.20000000000002</ele><time>2026-04-26T07:49:24.074Z</time></trkpt><trkpt lat="44.076187" lon="8.1191078"><ele>250.79999999999998</ele><time>2026-04-26T07:49:25.057Z</time></trkpt><trkpt lat="44.076081" lon="8.1191242"><ele>252.39999999999998</ele><time>2026-04-26T07:49:26.888Z</time></trkpt><trkpt lat="44.0759889" lon="8.1191602"><ele>254.0</ele><time>2026-04-26T07:49:28.946Z</time></trkpt><trkpt lat="44.0759923" lon="8.1192856"><ele>254.0</ele><time>2026-04-26T07:49:31.891Z</time></trkpt><trkpt lat="44.076029" lon="8.1193608"><ele>254.0</ele><time>2026-04-26T07:49:32.974Z</time></trkpt><trkpt lat="44.076083" lon="8.1194795"><ele>254.0</ele><time>2026-04-26T07:49:34.025Z</time></trkpt><trkpt lat="44.0762153" lon="8.1196816"><ele>254.0</ele><time>2026-04-26T07:49:35.988Z</time></trkpt><trkpt lat="44.0762794" lon="8.1197755"><ele>254.0</ele><time>2026-04-26T07:49:36.992Z</time></trkpt><trkpt lat="44.0763437" lon="8.1198698"><ele>254.0</ele><time>2026-04-26T07:49:38.004Z</time></trkpt><trkpt lat="44.0764811" lon="8.1200879"><ele>254.0</ele><time>2026-04-26T07:49:39.952Z</time></trkpt><trkpt lat="44.0765414" lon="8.1202301"><ele>254.0</ele><time>2026-04-26T07:49:40.931Z</time></trkpt><trkpt lat="44.0765772" lon="8.1203933"><ele>254.33333333333334</ele><time>2026-04-26T07:49:41.883Z</time></trkpt><trkpt lat="44.076598" lon="8.1206047"><ele>254.66666666666669</ele><time>2026-04-26T07:49:43.032Z</time></trkpt><trkpt lat="44.0766137" lon="8.1209141"><ele>255.0</ele><time>2026-04-26T07:49:44.832Z</time></trkpt><trkpt lat="44.0766004" lon="8.1210747"><ele>249.25</ele><time>2026-04-26T07:49:45.825Z</time></trkpt><trkpt lat="44.076558" lon="8.1212401"><ele>243.5</ele><time>2026-04-26T07:49:46.929Z</time></trkpt><trkpt lat="44.0764908" lon="8.1213955"><ele>237.75</ele><time>2026-04-26T07:49:47.951Z</time></trkpt><trkpt lat="44.0764106" lon="8.1215428"><ele>232.0</ele><time>2026-04-26T07:49:48.971Z</time></trkpt><trkpt lat="44.0763187" lon="8.1217143"><ele>232.0</ele><time>2026-04-26T07:49:50.086Z</time></trkpt><trkpt lat="44.0761444" lon="8.1219831"><ele>232.0</ele><time>2026-04-26T07:49:51.966Z</time></trkpt><trkpt lat="44.076042" lon="8.122116"><ele>232.0</ele><time>2026-04-26T07:49:53.006Z</time></trkpt><trkpt lat="44.0759564" lon="8.1222314"><ele>232.0</ele><time>2026-04-26T07:49:53.946Z</time></trkpt><trkpt lat="44.0758638" lon="8.1223462"><ele>232.0</ele><time>2026-04-26T07:49:54.991Z</time></trkpt><trkpt lat="44.075793" lon="8.1224471"><ele>232.0</ele><time>2026-04-26T07:49:55.945Z</time></trkpt><trkpt lat="44.0757426" lon="8.1225734"><ele>232.0</ele><time>2026-04-26T07:49:56.987Z</time></trkpt><trkpt lat="44.075719" lon="8.1227039"><ele>232.0</ele><time>2026-04-26T07:49:57.985Z</time></trkpt><trkpt lat="44.0757209" lon="8.1228316"><ele>233.75</ele><time>2026-04-26T07:49:58.992Z</time></trkpt><trkpt lat="44.0757561" lon="8.122945"><ele>235.5</ele><time>2026-04-26T07:50:00.03Z</time></trkpt><trkpt lat="44.0758136" lon="8.1230228"><ele>237.25</ele><time>2026-04-26T07:50:00.939Z</time></trkpt><trkpt lat="44.0759217" lon="8.1230832"><ele>239.0</ele><time>2026-04-26T07:50:02.025Z</time></trkpt><trkpt lat="44.0761414" lon="8.1231199"><ele>239.0</ele><time>2026-04-26T07:50:03.91Z</time></trkpt><trkpt lat="44.0762559" lon="8.1231115"><ele>238.99999999999997</ele><time>2026-04-26T07:50:04.967Z</time></trkpt><trkpt lat="44.0763599" lon="8.1231141"><ele>238.99999999999997</ele><time>2026-04-26T07:50:05.962Z</time></trkpt><trkpt lat="44.0764456" lon="8.1231662"><ele>239.0</ele><time>2026-04-26T07:50:06.929Z</time></trkpt><trkpt lat="44.0765103" lon="8.1232725"><ele>239.0</ele><time>2026-04-26T07:50:07.987Z</time></trkpt><trkpt lat="44.0765604" lon="8.1234087"><ele>239.75</ele><time>2026-04-26T07:50:09.077Z</time></trkpt><trkpt lat="44.0766227" lon="8.1235319"><ele>240.5</ele><time>2026-04-26T07:50:10.062Z</time></trkpt><trkpt lat="44.0767091" lon="8.1236312"><ele>241.25</ele><time>2026-04-26T07:50:11.027Z</time></trkpt><trkpt lat="44.0768041" lon="8.1237114"><ele>242.0</ele><time>2026-04-26T07:50:12.005Z</time></trkpt><trkpt lat="44.0769357" lon="8.1239178"><ele>233.5</ele><time>2026-04-26T07:50:14.011Z</time></trkpt><trkpt lat="44.0769104" lon="8.1242177"><ele>225.0</ele><time>2026-04-26T07:50:16.132Z</time></trkpt><trkpt lat="44.0768085" lon="8.1245297"><ele>225.0</ele><time>2026-04-26T07:50:18.211Z</time></trkpt><trkpt lat="44.0767779" lon="8.1247577"><ele>225.0</ele><time>2026-04-26T07:50:19.952Z</time></trkpt><trkpt lat="44.0768091" lon="8.1248979"><ele>225.0</ele><time>2026-04-26T07:50:21.031Z</time></trkpt><trkpt lat="44.0768735" lon="8.1250039"><ele>225.0</ele><time>2026-04-26T07:50:21.972Z</time></trkpt><trkpt lat="44.0769518" lon="8.1250887"><ele>221.66666666666669</ele><time>2026-04-26T07:50:22.871Z</time></trkpt><trkpt lat="44.0770647" lon="8.1251782"><ele>218.33333333333334</ele><time>2026-04-26T07:50:24.01Z</time></trkpt><trkpt lat="44.0771758" lon="8.1252411"><ele>215.0</ele><time>2026-04-26T07:50:24.966Z</time></trkpt><trkpt lat="44.0773818" lon="8.1253721"><ele>217.25</ele><time>2026-04-26T07:50:27.051Z</time></trkpt><trkpt lat="44.0775079" lon="8.1255395"><ele>219.5</ele><time>2026-04-26T07:50:28.922Z</time></trkpt><trkpt lat="44.0775202" lon="8.1256726"><ele>221.75</ele><time>2026-04-26T07:50:29.964Z</time></trkpt><trkpt lat="44.0775025" lon="8.1258188"><ele>224.0</ele><time>2026-04-26T07:50:31.126Z</time></trkpt><trkpt lat="44.0773587" lon="8.1260265"><ele>218.25</ele><time>2026-04-26T07:50:33.047Z</time></trkpt><trkpt lat="44.0772499" lon="8.1261209"><ele>212.5</ele><time>2026-04-26T07:50:34.013Z</time></trkpt><trkpt lat="44.0771151" lon="8.1262022"><ele>206.75</ele><time>2026-04-26T07:50:35.095Z</time></trkpt><trkpt lat="44.0769924" lon="8.1262786"><ele>201.0</ele><time>2026-04-26T07:50:36.113Z</time></trkpt><trkpt lat="44.0767406" lon="8.1264548"><ele>198.0</ele><time>2026-04-26T07:50:38.069Z</time></trkpt><trkpt lat="44.0765054" lon="8.1266389"><ele>195.0</ele><time>2026-04-26T07:50:40.053Z</time></trkpt><trkpt lat="44.0764123" lon="8.1267272"><ele>192.0</ele><time>2026-04-26T07:50:41.01Z</time></trkpt><trkpt lat="44.0763352" lon="8.1268426"><ele>192.0</ele><time>2026-04-26T07:50:42.096Z</time></trkpt><trkpt lat="44.0762936" lon="8.12698"><ele>192.0</ele><time>2026-04-26T07:50:43.061Z</time></trkpt><trkpt lat="44.0762765" lon="8.1271435"><ele>192.0</ele><time>2026-04-26T07:50:44.091Z</time></trkpt><trkpt lat="44.0762921" lon="8.1273072"><ele>192.0</ele><time>2026-04-26T07:50:45.12Z</time></trkpt><trkpt lat="44.0763208" lon="8.1276011"><ele>192.33333333333331</ele><time>2026-04-26T07:50:47.12Z</time></trkpt><trkpt lat="44.0763063" lon="8.1277469"><ele>192.66666666666666</ele><time>2026-04-26T07:50:48.181Z</time></trkpt><trkpt lat="44.0761512" lon="8.1280774"><ele>193.0</ele><time>2026-04-26T07:50:50.058Z</time></trkpt><trkpt lat="44.0759736" lon="8.1283962"><ele>193.0</ele><time>2026-04-26T07:50:51.957Z</time></trkpt><trkpt lat="44.0758928" lon="8.1285657"><ele>193.0</ele><time>2026-04-26T07:50:52.869Z</time></trkpt><trkpt lat="44.0758127" lon="8.128776"><ele>193.0</ele><time>2026-04-26T07:50:53.851Z</time></trkpt><trkpt lat="44.0757575" lon="8.1290215"><ele>184.33333333333331</ele><time>2026-04-26T07:50:54.878Z</time></trkpt><trkpt lat="44.0757125" lon="8.1292653"><ele>175.66666666666666</ele><time>2026-04-26T07:50:55.894Z</time></trkpt><trkpt lat="44.0756554" lon="8.1295332"><ele>167.0</ele><time>2026-04-26T07:50:57.033Z</time></trkpt><trkpt lat="44.0756075" lon="8.1297587"><ele>167.66666666666666</ele><time>2026-04-26T07:50:58.03Z</time></trkpt><trkpt lat="44.075568" lon="8.1299518"><ele>168.33333333333334</ele><time>2026-04-26T07:50:58.955Z</time></trkpt><trkpt lat="44.0755153" lon="8.1301623"><ele>169.0</ele><time>2026-04-26T07:51:00.124Z</time></trkpt><trkpt lat="44.0754882" lon="8.1304745"><ele>169.0</ele><time>2026-04-26T07:51:02.029Z</time></trkpt><trkpt lat="44.0755043" lon="8.1306226"><ele>169.0</ele><time>2026-04-26T07:51:02.96Z</time></trkpt><trkpt lat="44.0755792" lon="8.1307708"><ele>169.0</ele><time>2026-04-26T07:51:04.111Z</time></trkpt><trkpt lat="44.075698" lon="8.1308792"><ele>169.0</ele><time>2026-04-26T07:51:05.09Z</time></trkpt><trkpt lat="44.0758158" lon="8.1309822"><ele>174.66666666666669</ele><time>2026-04-26T07:51:06.13Z</time></trkpt><trkpt lat="44.0759288" lon="8.1310787"><ele>180.33333333333334</ele><time>2026-04-26T07:51:07.182Z</time></trkpt><trkpt lat="44.0761198" lon="8.1312621"><ele>186.0</ele><time>2026-04-26T07:51:09.027Z</time></trkpt><trkpt lat="44.0762317" lon="8.1313778"><ele>186.0</ele><time>2026-04-26T07:51:10.1Z</time></trkpt><trkpt lat="44.0763391" lon="8.1314779"><ele>186.0</ele><time>2026-04-26T07:51:11.146Z</time></trkpt><trkpt lat="44.0765338" lon="8.1316192"><ele>186.0</ele><time>2026-04-26T07:51:13.271Z</time></trkpt><trkpt lat="44.0766305" lon="8.1316138"><ele>186.0</ele><time>2026-04-26T07:51:14.176Z</time></trkpt><trkpt lat="44.076847" lon="8.1315255"><ele>192.0</ele><time>2026-04-26T07:51:16.212Z</time></trkpt><trkpt lat="44.0770761" lon="8.1314222"><ele>198.0</ele><time>2026-04-26T07:51:18.293Z</time></trkpt><trkpt lat="44.0772942" lon="8.1313254"><ele>198.0</ele><time>2026-04-26T07:51:20.085Z</time></trkpt><trkpt lat="44.0774041" lon="8.1312714"><ele>198.0</ele><time>2026-04-26T07:51:21.065Z</time></trkpt><trkpt lat="44.0775224" lon="8.1312333"><ele>198.0</ele><time>2026-04-26T07:51:22.133Z</time></trkpt><trkpt lat="44.0776445" lon="8.131234"><ele>198.0</ele><time>2026-04-26T07:51:23.131Z</time></trkpt><trkpt lat="44.0778509" lon="8.1313613"><ele>193.0</ele><time>2026-04-26T07:51:25.147Z</time></trkpt><trkpt lat="44.0779824" lon="8.1316073"><ele>188.0</ele><time>2026-04-26T07:51:27.065Z</time></trkpt><trkpt lat="44.0780193" lon="8.1317732"><ele>183.0</ele><time>2026-04-26T07:51:28.031Z</time></trkpt><trkpt lat="44.0780668" lon="8.1321632"><ele>175.5</ele><time>2026-04-26T07:51:30.097Z</time></trkpt><trkpt lat="44.0781226" lon="8.1325783"><ele>168.0</ele><time>2026-04-26T07:51:32.139Z</time></trkpt><trkpt lat="44.0781805" lon="8.1329395"><ele>170.66666666666666</ele><time>2026-04-26T07:51:34.072Z</time></trkpt><trkpt lat="44.0782382" lon="8.1332726"><ele>173.33333333333331</ele><time>2026-04-26T07:51:36.051Z</time></trkpt><trkpt lat="44.0782839" lon="8.1334212"><ele>176.0</ele><time>2026-04-26T07:51:37.093Z</time></trkpt><trkpt lat="44.0783597" lon="8.1335424"><ele>176.0</ele><time>2026-04-26T07:51:38.152Z</time></trkpt><trkpt lat="44.0785197" lon="8.1336448"><ele>176.0</ele><time>2026-04-26T07:51:40.081Z</time></trkpt><trkpt lat="44.0786332" lon="8.1336458"><ele>176.0</ele><time>2026-04-26T07:51:41.181Z</time></trkpt><trkpt lat="44.0788686" lon="8.1335105"><ele>176.0</ele><time>2026-04-26T07:51:43.012Z</time></trkpt><trkpt lat="44.0789795" lon="8.133459"><ele>176.0</ele><time>2026-04-26T07:51:44.074Z</time></trkpt><trkpt lat="44.0790808" lon="8.1334295"><ele>176.0</ele><time>2026-04-26T07:51:45.098Z</time></trkpt><trkpt lat="44.0792445" lon="8.133503"><ele>176.0</ele><time>2026-04-26T07:51:47.029Z</time></trkpt><trkpt lat="44.0793056" lon="8.1336164"><ele>176.66666666666666</ele><time>2026-04-26T07:51:48.088Z</time></trkpt><trkpt lat="44.0793446" lon="8.1337785"><ele>177.33333333333334</ele><time>2026-04-26T07:51:49.203Z</time></trkpt><trkpt lat="44.0792897" lon="8.1340411"><ele>178.0</ele><time>2026-04-26T07:51:51.165Z</time></trkpt><trkpt lat="44.0791579" lon="8.1343156"><ele>168.0</ele><time>2026-04-26T07:51:53.08Z</time></trkpt><trkpt lat="44.0790041" lon="8.1345922"><ele>158.0</ele><time>2026-04-26T07:51:55.203Z</time></trkpt><trkpt lat="44.0789536" lon="8.1348887"><ele>154.5</ele><time>2026-04-26T07:51:56.961Z</time></trkpt><trkpt lat="44.0789492" lon="8.1350778"><ele>151.0</ele><time>2026-04-26T07:51:57.916Z</time></trkpt><trkpt lat="44.0789569" lon="8.1352727"><ele>147.5</ele><time>2026-04-26T07:51:58.965Z</time></trkpt><trkpt lat="44.0789536" lon="8.1354587"><ele>144.0</ele><time>2026-04-26T07:52:00.022Z</time></trkpt><trkpt lat="44.0788719" lon="8.1356955"><ele>144.0</ele><time>2026-04-26T07:52:01.971Z</time></trkpt><trkpt lat="44.0788076" lon="8.135742"><ele>144.0</ele><time>2026-04-26T07:52:02.957Z</time></trkpt><trkpt lat="44.0787169" lon="8.1357648"><ele>144.0</ele><time>2026-04-26T07:52:03.922Z</time></trkpt><trkpt lat="44.0786052" lon="8.1357535"><ele>144.0</ele><time>2026-04-26T07:52:04.945Z</time></trkpt><trkpt lat="44.0784894" lon="8.1357255"><ele>144.0</ele><time>2026-04-26T07:52:05.961Z</time></trkpt><trkpt lat="44.0783564" lon="8.1356912"><ele>142.33333333333334</ele><time>2026-04-26T07:52:07.117Z</time></trkpt><trkpt lat="44.0781261" lon="8.1356926"><ele>140.66666666666669</ele><time>2026-04-26T07:52:08.889Z</time></trkpt><trkpt lat="44.0779959" lon="8.1357244"><ele>139.0</ele><time>2026-04-26T07:52:09.833Z</time></trkpt><trkpt lat="44.0778529" lon="8.1357867"><ele>139.0</ele><time>2026-04-26T07:52:10.868Z</time></trkpt><trkpt lat="44.0777195" lon="8.1358747"><ele>139.0</ele><time>2026-04-26T07:52:11.912Z</time></trkpt><trkpt lat="44.0776142" lon="8.1359804"><ele>139.0</ele><time>2026-04-26T07:52:12.923Z</time></trkpt><trkpt lat="44.077522" lon="8.136126"><ele>139.0</ele><time>2026-04-26T07:52:13.97Z</time></trkpt><trkpt lat="44.0774511" lon="8.136322"><ele>139.75</ele><time>2026-04-26T07:52:15.1Z</time></trkpt><trkpt lat="44.0774182" lon="8.1364945"><ele>140.5</ele><time>2026-04-26T07:52:16.025Z</time></trkpt><trkpt lat="44.0774065" lon="8.1366759"><ele>141.25</ele><time>2026-04-26T07:52:16.957Z</time></trkpt><trkpt lat="44.0774229" lon="8.136919"><ele>142.0</ele><time>2026-04-26T07:52:18.153Z</time></trkpt><trkpt lat="44.0774794" lon="8.1372788"><ele>140.0</ele><time>2026-04-26T07:52:19.939Z</time></trkpt><trkpt lat="44.0775183" lon="8.1374947"><ele>138.0</ele><time>2026-04-26T07:52:21.05Z</time></trkpt><trkpt lat="44.0775536" lon="8.1378376"><ele>136.0</ele><time>2026-04-26T07:52:22.902Z</time></trkpt><trkpt lat="44.0775181" lon="8.1380335"><ele>136.0</ele><time>2026-04-26T07:52:24.042Z</time></trkpt><trkpt lat="44.0774616" lon="8.1381617"><ele>136.0</ele><time>2026-04-26T07:52:24.898Z</time></trkpt><trkpt lat="44.0773852" lon="8.1383163"><ele>136.0</ele><time>2026-04-26T07:52:26.023Z</time></trkpt><trkpt lat="44.0772796" lon="8.138551"><ele>136.0</ele><time>2026-04-26T07:52:27.986Z</time></trkpt><trkpt lat="44.0772532" lon="8.1386592"><ele>133.5</ele><time>2026-04-26T07:52:28.986Z</time></trkpt><trkpt lat="44.0772468" lon="8.1387679"><ele>131.0</ele><time>2026-04-26T07:52:29.887Z</time></trkpt><trkpt lat="44.0772649" lon="8.1389021"><ele>128.5</ele><time>2026-04-26T07:52:30.892Z</time></trkpt><trkpt lat="44.0772964" lon="8.1390615"><ele>126.0</ele><time>2026-04-26T07:52:32.032Z</time></trkpt><trkpt lat="44.0773064" lon="8.1393752"><ele>124.0</ele><time>2026-04-26T07:52:34.077Z</time></trkpt><trkpt lat="44.0772276" lon="8.139712"><ele>122.0</ele><time>2026-04-26T07:52:36.125Z</time></trkpt><trkpt lat="44.0771243" lon="8.1400417"><ele>121.75</ele><time>2026-04-26T07:52:38.04Z</time></trkpt><trkpt lat="44.077062" lon="8.1401907"><ele>121.5</ele><time>2026-04-26T07:52:38.992Z</time></trkpt><trkpt lat="44.0769892" lon="8.1403302"><ele>121.25</ele><time>2026-04-26T07:52:39.983Z</time></trkpt><trkpt lat="44.0768942" lon="8.1404485"><ele>121.0</ele><time>2026-04-26T07:52:41.022Z</time></trkpt><trkpt lat="44.0767779" lon="8.1405272"><ele>121.0</ele><time>2026-04-26T07:52:42.038Z</time></trkpt><trkpt lat="44.0766575" lon="8.1405664"><ele>121.0</ele><time>2026-04-26T07:52:42.967Z</time></trkpt><trkpt lat="44.0765087" lon="8.1406046"><ele>121.0</ele><time>2026-04-26T07:52:44.051Z</time></trkpt><trkpt lat="44.0762296" lon="8.1407233"><ele>119.0</ele><time>2026-04-26T07:52:46.052Z</time></trkpt><trkpt lat="44.0759661" lon="8.1408551"><ele>117.0</ele><time>2026-04-26T07:52:48.056Z</time></trkpt><trkpt lat="44.0758377" lon="8.1409236"><ele>115.0</ele><time>2026-04-26T07:52:49.05Z</time></trkpt><trkpt lat="44.0757146" lon="8.1409958"><ele>113.2</ele><time>2026-04-26T07:52:50.061Z</time></trkpt><trkpt lat="44.075614" lon="8.1410549"><ele>111.4</ele><time>2026-04-26T07:52:50.901Z</time></trkpt><trkpt lat="44.0754848" lon="8.1411305"><ele>109.6</ele><time>2026-04-26T07:52:52.058Z</time></trkpt><trkpt lat="44.0753981" lon="8.1411864"><ele>107.8</ele><time>2026-04-26T07:52:52.982Z</time></trkpt><trkpt lat="44.0753228" lon="8.1412607"><ele>106.0</ele><time>2026-04-26T07:52:53.978Z</time></trkpt><trkpt lat="44.0752779" lon="8.1413621"><ele>106.0</ele><time>2026-04-26T07:52:54.946Z</time></trkpt><trkpt lat="44.0752694" lon="8.1415155"><ele>106.0</ele><time>2026-04-26T07:52:56.073Z</time></trkpt><trkpt lat="44.0753288" lon="8.1417695"><ele>106.0</ele><time>2026-04-26T07:52:58.08Z</time></trkpt><trkpt lat="44.075312" lon="8.1419523"><ele>106.0</ele><time>2026-04-26T07:52:59.886Z</time></trkpt><trkpt lat="44.075249" lon="8.142026"><ele>105.75</ele><time>2026-04-26T07:53:01.015Z</time></trkpt><trkpt lat="44.0751674" lon="8.1420678"><ele>105.5</ele><time>2026-04-26T07:53:01.992Z</time></trkpt><trkpt lat="44.0750613" lon="8.1421231"><ele>105.25</ele><time>2026-04-26T07:53:02.972Z</time></trkpt><trkpt lat="44.0749301" lon="8.14219"><ele>105.0</ele><time>2026-04-26T07:53:04.009Z</time></trkpt><trkpt lat="44.0748021" lon="8.1422495"><ele>102.0</ele><time>2026-04-26T07:53:04.981Z</time></trkpt><trkpt lat="44.0746593" lon="8.1423167"><ele>99.0</ele><time>2026-04-26T07:53:06.018Z</time></trkpt><trkpt lat="44.0745104" lon="8.1423785"><ele>96.0</ele><time>2026-04-26T07:53:07.015Z</time></trkpt><trkpt lat="44.0741984" lon="8.1424993"><ele>93.66666666666667</ele><time>2026-04-26T07:53:08.933Z</time></trkpt><trkpt lat="44.0740118" lon="8.1425792"><ele>91.33333333333334</ele><time>2026-04-26T07:53:10.07Z</time></trkpt><trkpt lat="44.0738466" lon="8.1426551"><ele>89.0</ele><time>2026-04-26T07:53:11.136Z</time></trkpt><trkpt lat="44.0735842" lon="8.1427754"><ele>89.0</ele><time>2026-04-26T07:53:13.005Z</time></trkpt><trkpt lat="44.0733406" lon="8.1429097"><ele>89.0</ele><time>2026-04-26T07:53:15.103Z</time></trkpt><trkpt lat="44.0732542" lon="8.1429789"><ele>89.0</ele><time>2026-04-26T07:53:16.004Z</time></trkpt><trkpt lat="44.0731799" lon="8.1430801"><ele>86.0</ele><time>2026-04-26T07:53:16.929Z</time></trkpt><trkpt lat="44.0731176" lon="8.1432401"><ele>83.0</ele><time>2026-04-26T07:53:17.98Z</time></trkpt><trkpt lat="44.073072" lon="8.1434466"><ele>80.0</ele><time>2026-04-26T07:53:19.156Z</time></trkpt><trkpt lat="44.0730027" lon="8.1437769"><ele>80.0</ele><time>2026-04-26T07:53:21.027Z</time></trkpt><trkpt lat="44.0729665" lon="8.1439449"><ele>80.0</ele><time>2026-04-26T07:53:22.033Z</time></trkpt><trkpt lat="44.0729336" lon="8.144085"><ele>80.0</ele><time>2026-04-26T07:53:23.132Z</time></trkpt><trkpt lat="44.0728907" lon="8.1442154"><ele>80.0</ele><time>2026-04-26T07:53:25.012Z</time></trkpt><trkpt lat="44.0728278" lon="8.1443023"><ele>80.0</ele><time>2026-04-26T07:53:28.883Z</time></trkpt><trkpt lat="44.0729251" lon="8.1444389"><ele>80.0</ele><time>2026-04-26T07:53:35.956Z</time></trkpt><trkpt lat="44.0729665" lon="8.1445907"><ele>80.0</ele><time>2026-04-26T07:53:38.199Z</time></trkpt><trkpt lat="44.0729253" lon="8.1447976"><ele>80.0</ele><time>2026-04-26T07:53:39.944Z</time></trkpt><trkpt lat="44.0728926" lon="8.1449667"><ele>80.0</ele><time>2026-04-26T07:53:41.111Z</time></trkpt><trkpt lat="44.0728716" lon="8.1451925"><ele>80.0</ele><time>2026-04-26T07:53:43.025Z</time></trkpt><trkpt lat="44.0729584" lon="8.1453248"><ele>80.0</ele><time>2026-04-26T07:53:45.004Z</time></trkpt><trkpt lat="44.0730708" lon="8.1453356"><ele>80.0</ele><time>2026-04-26T07:53:46.052Z</time></trkpt><trkpt lat="44.0731916" lon="8.1453554"><ele>80.0</ele><time>2026-04-26T07:53:46.993Z</time></trkpt><trkpt lat="44.0733127" lon="8.1454014"><ele>83.5</ele><time>2026-04-26T07:53:47.952Z</time></trkpt><trkpt lat="44.0734527" lon="8.1454121"><ele>87.0</ele><time>2026-04-26T07:53:48.92Z</time></trkpt><trkpt lat="44.0735771" lon="8.1454066"><ele>90.5</ele><time>2026-04-26T07:53:49.852Z</time></trkpt><trkpt lat="44.0737314" lon="8.1454505"><ele>94.0</ele><time>2026-04-26T07:53:51.039Z</time></trkpt><trkpt lat="44.0739602" lon="8.1456427"><ele>96.66666666666666</ele><time>2026-04-26T07:53:52.982Z</time></trkpt><trkpt lat="44.0740614" lon="8.1457673"><ele>99.33333333333333</ele><time>2026-04-26T07:53:53.917Z</time></trkpt><trkpt lat="44.0741737" lon="8.1459284"><ele>102.0</ele><time>2026-04-26T07:53:55.005Z</time></trkpt><trkpt lat="44.0743487" lon="8.1462063"><ele>102.0</ele><time>2026-04-26T07:53:56.911Z</time></trkpt><trkpt lat="44.0744579" lon="8.1463399"><ele>102.0</ele><time>2026-04-26T07:53:57.955Z</time></trkpt><trkpt lat="44.0745533" lon="8.1464545"><ele>102.0</ele><time>2026-04-26T07:53:58.906Z</time></trkpt><trkpt lat="44.0746437" lon="8.1465602"><ele>102.0</ele><time>2026-04-26T07:53:59.885Z</time></trkpt><trkpt lat="44.0747282" lon="8.146678"><ele>102.5</ele><time>2026-04-26T07:54:00.961Z</time></trkpt><trkpt lat="44.0748016" lon="8.1468011"><ele>103.0</ele><time>2026-04-26T07:54:01.924Z</time></trkpt><trkpt lat="44.0748767" lon="8.1469534"><ele>103.5</ele><time>2026-04-26T07:54:02.972Z</time></trkpt><trkpt lat="44.0749351" lon="8.1470946"><ele>104.0</ele><time>2026-04-26T07:54:03.978Z</time></trkpt><trkpt lat="44.0749646" lon="8.1472275"><ele>104.0</ele><time>2026-04-26T07:54:04.929Z</time></trkpt><trkpt lat="44.074956" lon="8.1473768"><ele>104.0</ele><time>2026-04-26T07:54:05.932Z</time></trkpt><trkpt lat="44.0749217" lon="8.1475404"><ele>104.0</ele><time>2026-04-26T07:54:06.905Z</time></trkpt><trkpt lat="44.0748859" lon="8.1477335"><ele>104.0</ele><time>2026-04-26T07:54:07.959Z</time></trkpt><trkpt lat="44.0748618" lon="8.1479158"><ele>98.25</ele><time>2026-04-26T07:54:08.927Z</time></trkpt><trkpt lat="44.0748437" lon="8.1480989"><ele>92.5</ele><time>2026-04-26T07:54:09.927Z</time></trkpt><trkpt lat="44.0748226" lon="8.1482958"><ele>86.75</ele><time>2026-04-26T07:54:11.128Z</time></trkpt><trkpt lat="44.0748434" lon="8.1485331"><ele>81.0</ele><time>2026-04-26T07:54:12.919Z</time></trkpt><trkpt lat="44.0749017" lon="8.1486898"><ele>82.19999999999999</ele><time>2026-04-26T07:54:13.96Z</time></trkpt><trkpt lat="44.0749728" lon="8.1488235"><ele>83.39999999999999</ele><time>2026-04-26T07:54:14.958Z</time></trkpt><trkpt lat="44.0750296" lon="8.1489312"><ele>84.6</ele><time>2026-04-26T07:54:15.879Z</time></trkpt><trkpt lat="44.0750673" lon="8.1490526"><ele>85.8</ele><time>2026-04-26T07:54:16.904Z</time></trkpt><trkpt lat="44.0750586" lon="8.1491816"><ele>87.0</ele><time>2026-04-26T07:54:17.809Z</time></trkpt><trkpt lat="44.0750133" lon="8.1493758"><ele>87.0</ele><time>2026-04-26T07:54:18.952Z</time></trkpt><trkpt lat="44.0749707" lon="8.1495587"><ele>87.0</ele><time>2026-04-26T07:54:19.994Z</time></trkpt><trkpt lat="44.0749269" lon="8.149728"><ele>87.0</ele><time>2026-04-26T07:54:20.917Z</time></trkpt><trkpt lat="44.0748722" lon="8.1499347"><ele>87.0</ele><time>2026-04-26T07:54:22.032Z</time></trkpt><trkpt lat="44.074832" lon="8.1501042"><ele>82.6</ele><time>2026-04-26T07:54:22.98Z</time></trkpt><trkpt lat="44.0748053" lon="8.1502552"><ele>78.19999999999999</ele><time>2026-04-26T07:54:23.889Z</time></trkpt><trkpt lat="44.0747755" lon="8.150429"><ele>73.8</ele><time>2026-04-26T07:54:25.035Z</time></trkpt><trkpt lat="44.0747642" lon="8.1505529"><ele>69.4</ele><time>2026-04-26T07:54:25.97Z</time></trkpt><trkpt lat="44.0747832" lon="8.1506969"><ele>65.0</ele><time>2026-04-26T07:54:27.006Z</time></trkpt><trkpt lat="44.0749151" lon="8.1510134"><ele>68.5</ele><time>2026-04-26T07:54:29.029Z</time></trkpt><trkpt lat="44.0749715" lon="8.151166"><ele>72.0</ele><time>2026-04-26T07:54:29.964Z</time></trkpt><trkpt lat="44.0750267" lon="8.1513354"><ele>75.5</ele><time>2026-04-26T07:54:30.948Z</time></trkpt><trkpt lat="44.075084" lon="8.1515486"><ele>79.0</ele><time>2026-04-26T07:54:32.113Z</time></trkpt><trkpt lat="44.0751434" lon="8.1518409"><ele>79.0</ele><time>2026-04-26T07:54:33.981Z</time></trkpt><trkpt lat="44.0751815" lon="8.1519535"><ele>79.0</ele><time>2026-04-26T07:54:34.922Z</time></trkpt><trkpt lat="44.0752603" lon="8.1520681"><ele>79.0</ele><time>2026-04-26T07:54:36.018Z</time></trkpt><trkpt lat="44.0753672" lon="8.1521564"><ele>79.0</ele><time>2026-04-26T07:54:37.094Z</time></trkpt><trkpt lat="44.0755277" lon="8.1523074"><ele>75.5</ele><time>2026-04-26T07:54:38.951Z</time></trkpt><trkpt lat="44.075578" lon="8.1524321"><ele>72.0</ele><time>2026-04-26T07:54:39.956Z</time></trkpt><trkpt lat="44.0756026" lon="8.1525999"><ele>68.5</ele><time>2026-04-26T07:54:40.965Z</time></trkpt><trkpt lat="44.0756063" lon="8.1527853"><ele>65.0</ele><time>2026-04-26T07:54:41.961Z</time></trkpt><trkpt lat="44.0756039" lon="8.1529658"><ele>65.0</ele><time>2026-04-26T07:54:42.941Z</time></trkpt><trkpt lat="44.0756058" lon="8.153127"><ele>65.0</ele><time>2026-04-26T07:54:43.922Z</time></trkpt><trkpt lat="44.0755751" lon="8.1533013"><ele>65.0</ele><time>2026-04-26T07:54:45.032Z</time></trkpt><trkpt lat="44.0755074" lon="8.1534852"><ele>65.0</ele><time>2026-04-26T07:54:46.114Z</time></trkpt><trkpt lat="44.0754343" lon="8.1536457"><ele>66.0</ele><time>2026-04-26T07:54:47.067Z</time></trkpt><trkpt lat="44.0752963" lon="8.1539988"><ele>67.0</ele><time>2026-04-26T07:54:49.123Z</time></trkpt><trkpt lat="44.0752081" lon="8.1542737"><ele>67.0</ele><time>2026-04-26T07:54:51.034Z</time></trkpt><trkpt lat="44.0751757" lon="8.1544073"><ele>67.0</ele><time>2026-04-26T07:54:52.118Z</time></trkpt><trkpt lat="44.0751668" lon="8.1545314"><ele>67.0</ele><time>2026-04-26T07:54:53.292Z</time></trkpt><trkpt lat="44.0752715" lon="8.1546959"><ele>67.0</ele><time>2026-04-26T07:54:55.305Z</time></trkpt><trkpt lat="44.0754646" lon="8.1548121"><ele>63.5</ele><time>2026-04-26T07:54:57.145Z</time></trkpt><trkpt lat="44.0757121" lon="8.1548886"><ele>60.0</ele><time>2026-04-26T07:54:59.175Z</time></trkpt><trkpt lat="44.0759726" lon="8.1548192"><ele>72.66666666666666</ele><time>2026-04-26T07:55:01.12Z</time></trkpt><trkpt lat="44.07625" lon="8.1546479"><ele>85.33333333333333</ele><time>2026-04-26T07:55:03.041Z</time></trkpt><trkpt lat="44.0763705" lon="8.1545586"><ele>98.0</ele><time>2026-04-26T07:55:04.042Z</time></trkpt><trkpt lat="44.0764963" lon="8.1544611"><ele>93.5</ele><time>2026-04-26T07:55:05.071Z</time></trkpt><trkpt lat="44.0766516" lon="8.1543606"><ele>89.0</ele><time>2026-04-26T07:55:06.245Z</time></trkpt><trkpt lat="44.0769304" lon="8.1542499"><ele>89.0</ele><time>2026-04-26T07:55:08.131Z</time></trkpt><trkpt lat="44.0772146" lon="8.1541393"><ele>89.0</ele><time>2026-04-26T07:55:10.071Z</time></trkpt><trkpt lat="44.0774966" lon="8.154041"><ele>92.66666666666667</ele><time>2026-04-26T07:55:12.091Z</time></trkpt><trkpt lat="44.0776321" lon="8.1539845"><ele>96.33333333333334</ele><time>2026-04-26T07:55:13.121Z</time></trkpt><trkpt lat="44.0777651" lon="8.1539339"><ele>100.0</ele><time>2026-04-26T07:55:14.132Z</time></trkpt><trkpt lat="44.0780113" lon="8.1538984"><ele>100.0</ele><time>2026-04-26T07:55:16.152Z</time></trkpt><trkpt lat="44.0782314" lon="8.1537946"><ele>100.0</ele><time>2026-04-26T07:55:18.189Z</time></trkpt><trkpt lat="44.0783349" lon="8.1536685"><ele>100.0</ele><time>2026-04-26T07:55:19.127Z</time></trkpt><trkpt lat="44.0785729" lon="8.1535437"><ele>101.33333333333334</ele><time>2026-04-26T07:55:21.02Z</time></trkpt><trkpt lat="44.0786925" lon="8.1535174"><ele>102.66666666666666</ele><time>2026-04-26T07:55:22.032Z</time></trkpt><trkpt lat="44.0788131" lon="8.1534336"><ele>104.0</ele><time>2026-04-26T07:55:23.105Z</time></trkpt><trkpt lat="44.0790255" lon="8.1531667"><ele>97.0</ele><time>2026-04-26T07:55:25.136Z</time></trkpt><trkpt lat="44.0791351" lon="8.1530276"><ele>90.0</ele><time>2026-04-26T07:55:26.196Z</time></trkpt><trkpt lat="44.0792715" lon="8.1527338"><ele>83.0</ele><time>2026-04-26T07:55:28.199Z</time></trkpt><trkpt lat="44.0793716" lon="8.152407"><ele>88.0</ele><time>2026-04-26T07:55:30.166Z</time></trkpt><trkpt lat="44.0794845" lon="8.1522581"><ele>93.0</ele><time>2026-04-26T07:55:31.248Z</time></trkpt><trkpt lat="44.0796391" lon="8.1520927"><ele>98.0</ele><time>2026-04-26T07:55:32.309Z</time></trkpt><trkpt lat="44.079853" lon="8.1518126"><ele>95.66666666666666</ele><time>2026-04-26T07:55:34.205Z</time></trkpt><trkpt lat="44.0800433" lon="8.1515402"><ele>93.33333333333333</ele><time>2026-04-26T07:55:36.105Z</time></trkpt><trkpt lat="44.0801368" lon="8.1513973"><ele>91.0</ele><time>2026-04-26T07:55:37.241Z</time></trkpt><trkpt lat="44.0802047" lon="8.1512747"><ele>91.0</ele><time>2026-04-26T07:55:38.185Z</time></trkpt><trkpt lat="44.0802603" lon="8.1511335"><ele>91.0</ele><time>2026-04-26T07:55:39.125Z</time></trkpt><trkpt lat="44.080304" lon="8.1509863"><ele>91.0</ele><time>2026-04-26T07:55:40.137Z</time></trkpt><trkpt lat="44.0804879" lon="8.1507187"><ele>87.0</ele><time>2026-04-26T07:55:42.172Z</time></trkpt><trkpt lat="44.0807215" lon="8.1504318"><ele>83.0</ele><time>2026-04-26T07:55:44.169Z</time></trkpt><trkpt lat="44.0808124" lon="8.1502804"><ele>83.0</ele><time>2026-04-26T07:55:45.108Z</time></trkpt><trkpt lat="44.0809" lon="8.1501161"><ele>83.0</ele><time>2026-04-26T07:55:46.13Z</time></trkpt><trkpt lat="44.0811065" lon="8.1498232"><ele>83.0</ele><time>2026-04-26T07:55:48.172Z</time></trkpt><trkpt lat="44.0813037" lon="8.1495417"><ele>77.5</ele><time>2026-04-26T07:55:50.298Z</time></trkpt><trkpt lat="44.0814729" lon="8.149393"><ele>72.0</ele><time>2026-04-26T07:55:52.219Z</time></trkpt><trkpt lat="44.0817247" lon="8.1493412"><ele>72.0</ele><time>2026-04-26T07:55:54.06Z</time></trkpt><trkpt lat="44.081832" lon="8.1493058"><ele>72.0</ele><time>2026-04-26T07:55:54.988Z</time></trkpt><trkpt lat="44.0819332" lon="8.1492635"><ele>72.0</ele><time>2026-04-26T07:55:56.133Z</time></trkpt><trkpt lat="44.0820846" lon="8.1490462"><ele>72.0</ele><time>2026-04-26T07:55:58.061Z</time></trkpt><trkpt lat="44.0821753" lon="8.1488807"><ele>73.0</ele><time>2026-04-26T07:55:59.04Z</time></trkpt><trkpt lat="44.0823179" lon="8.1487185"><ele>74.0</ele><time>2026-04-26T07:56:00.152Z</time></trkpt><trkpt lat="44.0824556" lon="8.1485851"><ele>75.0</ele><time>2026-04-26T07:56:01.105Z</time></trkpt><trkpt lat="44.0827362" lon="8.1483283"><ele>83.0</ele><time>2026-04-26T07:56:03.248Z</time></trkpt><trkpt lat="44.082968" lon="8.1481769"><ele>91.0</ele><time>2026-04-26T07:56:05.086Z</time></trkpt><trkpt lat="44.0830791" lon="8.1480938"><ele>99.0</ele><time>2026-04-26T07:56:06.145Z</time></trkpt><trkpt lat="44.0831823" lon="8.1479977"><ele>93.75</ele><time>2026-04-26T07:56:07.096Z</time></trkpt><trkpt lat="44.0832787" lon="8.1478777"><ele>88.5</ele><time>2026-04-26T07:56:08.081Z</time></trkpt><trkpt lat="44.083369" lon="8.1477012"><ele>83.25</ele><time>2026-04-26T07:56:09.107Z</time></trkpt><trkpt lat="44.0834836" lon="8.1475595"><ele>78.0</ele><time>2026-04-26T07:56:10.108Z</time></trkpt><trkpt lat="44.0836067" lon="8.1474304"><ele>93.5</ele><time>2026-04-26T07:56:11.106Z</time></trkpt><trkpt lat="44.0838787" lon="8.1472322"><ele>109.0</ele><time>2026-04-26T07:56:13.183Z</time></trkpt><trkpt lat="44.0840165" lon="8.1471664"><ele>102.75</ele><time>2026-04-26T07:56:14.132Z</time></trkpt><trkpt lat="44.0841356" lon="8.147095"><ele>96.5</ele><time>2026-04-26T07:56:15.05Z</time></trkpt><trkpt lat="44.0842608" lon="8.1470036"><ele>90.25</ele><time>2026-04-26T07:56:16.046Z</time></trkpt><trkpt lat="44.0843979" lon="8.1469329"><ele>84.0</ele><time>2026-04-26T07:56:17.1Z</time></trkpt><trkpt lat="44.0845107" lon="8.1468834"><ele>84.0</ele><time>2026-04-26T07:56:18.081Z</time></trkpt><trkpt lat="44.0846965" lon="8.146734"><ele>84.0</ele><time>2026-04-26T07:56:20.102Z</time></trkpt><trkpt lat="44.0847805" lon="8.1465944"><ele>84.0</ele><time>2026-04-26T07:56:21.098Z</time></trkpt><trkpt lat="44.08487" lon="8.1464013"><ele>76.0</ele><time>2026-04-26T07:56:22.122Z</time></trkpt><trkpt lat="44.0849751" lon="8.1462136"><ele>68.0</ele><time>2026-04-26T07:56:23.236Z</time></trkpt><trkpt lat="44.0851536" lon="8.1458882"><ele>68.0</ele><time>2026-04-26T07:56:25.142Z</time></trkpt><trkpt lat="44.0852221" lon="8.1457567"><ele>68.0</ele><time>2026-04-26T07:56:26.009Z</time></trkpt><trkpt lat="44.0853148" lon="8.1455883"><ele>68.0</ele><time>2026-04-26T07:56:27.17Z</time></trkpt><trkpt lat="44.0854712" lon="8.1453037"><ele>69.25</ele><time>2026-04-26T07:56:29.247Z</time></trkpt><trkpt lat="44.0855456" lon="8.1451759"><ele>70.5</ele><time>2026-04-26T07:56:30.162Z</time></trkpt><trkpt lat="44.0856323" lon="8.1450299"><ele>71.75</ele><time>2026-04-26T07:56:31.142Z</time></trkpt><trkpt lat="44.0857314" lon="8.1448716"><ele>73.0</ele><time>2026-04-26T07:56:32.241Z</time></trkpt><trkpt lat="44.0858067" lon="8.1447523"><ele>73.0</ele><time>2026-04-26T07:56:33.18Z</time></trkpt><trkpt lat="44.08587" lon="8.1446519"><ele>73.0</ele><time>2026-04-26T07:56:34.093Z</time></trkpt><trkpt lat="44.0859551" lon="8.1445291"><ele>73.0</ele><time>2026-04-26T07:56:35.105Z</time></trkpt><trkpt lat="44.0860511" lon="8.1443917"><ele>73.0</ele><time>2026-04-26T07:56:36.135Z</time></trkpt><trkpt lat="44.0861456" lon="8.1442584"><ele>73.0</ele><time>2026-04-26T07:56:37.105Z</time></trkpt><trkpt lat="44.0862465" lon="8.1441159"><ele>73.0</ele><time>2026-04-26T07:56:38.089Z</time></trkpt><trkpt lat="44.0863546" lon="8.1439686"><ele>73.0</ele><time>2026-04-26T07:56:39.108Z</time></trkpt><trkpt lat="44.0864505" lon="8.1438304"><ele>73.0</ele><time>2026-04-26T07:56:40.051Z</time></trkpt><trkpt lat="44.0865508" lon="8.1436745"><ele>70.75</ele><time>2026-04-26T07:56:41.108Z</time></trkpt><trkpt lat="44.0866372" lon="8.1435322"><ele>68.5</ele><time>2026-04-26T07:56:42.08Z</time></trkpt><trkpt lat="44.0867265" lon="8.1434025"><ele>66.25</ele><time>2026-04-26T07:56:43.036Z</time></trkpt><trkpt lat="44.0868176" lon="8.1432834"><ele>64.0</ele><time>2026-04-26T07:56:43.968Z</time></trkpt><trkpt lat="44.0869181" lon="8.1431587"><ele>72.66666666666666</ele><time>2026-04-26T07:56:44.971Z</time></trkpt><trkpt lat="44.0870123" lon="8.1430473"><ele>81.33333333333333</ele><time>2026-04-26T07:56:45.95Z</time></trkpt><trkpt lat="44.0871107" lon="8.1429477"><ele>90.0</ele><time>2026-04-26T07:56:46.959Z</time></trkpt><trkpt lat="44.0873184" lon="8.1427455"><ele>90.0</ele><time>2026-04-26T07:56:49.165Z</time></trkpt><trkpt lat="44.0874065" lon="8.1426532"><ele>90.0</ele><time>2026-04-26T07:56:50.093Z</time></trkpt><trkpt lat="44.0874936" lon="8.1425324"><ele>90.0</ele><time>2026-04-26T07:56:51.075Z</time></trkpt><trkpt lat="44.0875737" lon="8.1423706"><ele>90.0</ele><time>2026-04-26T07:56:52.207Z</time></trkpt><trkpt lat="44.0876495" lon="8.1420741"><ele>84.5</ele><time>2026-04-26T07:56:54.138Z</time></trkpt><trkpt lat="44.0876716" lon="8.1419335"><ele>79.0</ele><time>2026-04-26T07:56:55.16Z</time></trkpt><trkpt lat="44.087702" lon="8.1417197"><ele>73.5</ele><time>2026-04-26T07:56:57.033Z</time></trkpt><trkpt lat="44.0877399" lon="8.1415905"><ele>68.0</ele><time>2026-04-26T07:56:59.062Z</time></trkpt><trkpt lat="44.0877695" lon="8.1413253"><ele>68.0</ele><time>2026-04-26T07:57:02.077Z</time></trkpt><trkpt lat="44.0877529" lon="8.141072"><ele>68.0</ele><time>2026-04-26T07:57:03.962Z</time></trkpt><trkpt lat="44.0877418" lon="8.1409227"><ele>68.0</ele><time>2026-04-26T07:57:04.926Z</time></trkpt><trkpt lat="44.0877232" lon="8.1407451"><ele>68.0</ele><time>2026-04-26T07:57:05.971Z</time></trkpt><trkpt lat="44.0877096" lon="8.1405516"><ele>68.33333333333334</ele><time>2026-04-26T07:57:06.951Z</time></trkpt><trkpt lat="44.0877021" lon="8.1403268"><ele>68.66666666666667</ele><time>2026-04-26T07:57:08.011Z</time></trkpt><trkpt lat="44.087712" lon="8.1399371"><ele>69.0</ele><time>2026-04-26T07:57:10.007Z</time></trkpt><trkpt lat="44.0877395" lon="8.1397656"><ele>71.0</ele><time>2026-04-26T07:57:10.945Z</time></trkpt><trkpt lat="44.0877978" lon="8.1395423"><ele>73.0</ele><time>2026-04-26T07:57:12.111Z</time></trkpt><trkpt lat="44.0878557" lon="8.1393418"><ele>75.0</ele><time>2026-04-26T07:57:13.127Z</time></trkpt><trkpt lat="44.0879625" lon="8.138953"><ele>84.5</ele><time>2026-04-26T07:57:15.097Z</time></trkpt><trkpt lat="44.0880351" lon="8.1387452"><ele>94.0</ele><time>2026-04-26T07:57:16.16Z</time></trkpt><trkpt lat="44.088181" lon="8.1383768"><ele>84.0</ele><time>2026-04-26T07:57:18.08Z</time></trkpt><trkpt lat="44.0882897" lon="8.1380011"><ele>74.0</ele><time>2026-04-26T07:57:20.005Z</time></trkpt><trkpt lat="44.0883402" lon="8.1378052"><ele>64.0</ele><time>2026-04-26T07:57:20.977Z</time></trkpt><trkpt lat="44.088395" lon="8.1376044"><ele>64.0</ele><time>2026-04-26T07:57:21.979Z</time></trkpt><trkpt lat="44.0884496" lon="8.1374012"><ele>64.0</ele><time>2026-04-26T07:57:23.052Z</time></trkpt><trkpt lat="44.0884839" lon="8.1372218"><ele>64.0</ele><time>2026-04-26T07:57:23.986Z</time></trkpt><trkpt lat="44.0885169" lon="8.1370256"><ele>64.0</ele><time>2026-04-26T07:57:25.029Z</time></trkpt><trkpt lat="44.0885714" lon="8.1368389"><ele>66.5</ele><time>2026-04-26T07:57:26.04Z</time></trkpt><trkpt lat="44.0886491" lon="8.1366779"><ele>69.0</ele><time>2026-04-26T07:57:27.043Z</time></trkpt><trkpt lat="44.088743" lon="8.1365413"><ele>71.5</ele><time>2026-04-26T07:57:28.033Z</time></trkpt><trkpt lat="44.0888079" lon="8.1363835"><ele>74.0</ele><time>2026-04-26T07:57:29.012Z</time></trkpt><trkpt lat="44.0888319" lon="8.1361721"><ele>75.0</ele><time>2026-04-26T07:57:30.021Z</time></trkpt><trkpt lat="44.0888291" lon="8.1359578"><ele>76.0</ele><time>2026-04-26T07:57:31.006Z</time></trkpt><trkpt lat="44.0888152" lon="8.1357384"><ele>77.0</ele><time>2026-04-26T07:57:32.007Z</time></trkpt><trkpt lat="44.0887961" lon="8.1355426"><ele>78.25</ele><time>2026-04-26T07:57:32.947Z</time></trkpt><trkpt lat="44.088772" lon="8.1353352"><ele>79.5</ele><time>2026-04-26T07:57:33.976Z</time></trkpt><trkpt lat="44.088747" lon="8.1351469"><ele>80.75</ele><time>2026-04-26T07:57:34.979Z</time></trkpt><trkpt lat="44.0887127" lon="8.1349563"><ele>82.0</ele><time>2026-04-26T07:57:36.083Z</time></trkpt><trkpt lat="44.0886428" lon="8.1346662"><ele>84.0</ele><time>2026-04-26T07:57:37.924Z</time></trkpt><trkpt lat="44.0885976" lon="8.1344944"><ele>86.0</ele><time>2026-04-26T07:57:38.989Z</time></trkpt><trkpt lat="44.088556" lon="8.1343146"><ele>88.0</ele><time>2026-04-26T07:57:40.05Z</time></trkpt><trkpt lat="44.088528" lon="8.1341457"><ele>90.0</ele><time>2026-04-26T07:57:41.007Z</time></trkpt><trkpt lat="44.0885203" lon="8.1338011"><ele>91.33333333333333</ele><time>2026-04-26T07:57:43.101Z</time></trkpt><trkpt lat="44.0885536" lon="8.1334591"><ele>92.66666666666666</ele><time>2026-04-26T07:57:45.122Z</time></trkpt><trkpt lat="44.088575" lon="8.1332789"><ele>94.0</ele><time>2026-04-26T07:57:46.201Z</time></trkpt><trkpt lat="44.0886027" lon="8.133041"><ele>94.2</ele><time>2026-04-26T07:57:47.978Z</time></trkpt><trkpt lat="44.0886201" lon="8.1329167"><ele>94.4</ele><time>2026-04-26T07:57:49.068Z</time></trkpt><trkpt lat="44.088651" lon="8.1327777"><ele>94.6</ele><time>2026-04-26T07:57:50.103Z</time></trkpt><trkpt lat="44.0886844" lon="8.1326551"><ele>94.8</ele><time>2026-04-26T07:57:51.005Z</time></trkpt><trkpt lat="44.0887251" lon="8.1325164"><ele>95.0</ele><time>2026-04-26T07:57:52.047Z</time></trkpt><trkpt lat="44.0887625" lon="8.1323826"><ele>97.5</ele><time>2026-04-26T07:57:53.094Z</time></trkpt><trkpt lat="44.0888002" lon="8.1322468"><ele>100.0</ele><time>2026-04-26T07:57:54.121Z</time></trkpt><trkpt lat="44.0888857" lon="8.1320029"><ele>102.5</ele><time>2026-04-26T07:57:56.115Z</time></trkpt><trkpt lat="44.0889345" lon="8.1319204"><ele>105.0</ele><time>2026-04-26T07:57:57.218Z</time></trkpt><trkpt lat="44.0890141" lon="8.1318431"><ele>105.0</ele><time>2026-04-26T07:57:59.141Z</time></trkpt><trkpt lat="44.0890799" lon="8.1317922"><ele>105.0</ele><time>2026-04-26T07:58:01.166Z</time></trkpt><trkpt lat="44.0892558" lon="8.1318348"><ele>105.0</ele><time>2026-04-26T07:58:29.994Z</time></trkpt><trkpt lat="44.0893233" lon="8.131868"><ele>105.0</ele><time>2026-04-26T08:02:54.049Z</time></trkpt><trkpt lat="44.089434" lon="8.1319182"><ele>105.0</ele><time>2026-04-26T08:02:56.891Z</time></trkpt><trkpt lat="44.0895066" lon="8.1319746"><ele>100.8</ele><time>2026-04-26T08:02:58.033Z</time></trkpt><trkpt lat="44.0896348" lon="8.1320844"><ele>96.6</ele><time>2026-04-26T08:02:59.941Z</time></trkpt><trkpt lat="44.0897039" lon="8.1321483"><ele>92.4</ele><time>2026-04-26T08:03:00.896Z</time></trkpt><trkpt lat="44.0897785" lon="8.1322064"><ele>88.2</ele><time>2026-04-26T08:03:01.992Z</time></trkpt><trkpt lat="44.0899037" lon="8.1322195"><ele>84.0</ele><time>2026-04-26T08:03:03.97Z</time></trkpt><trkpt lat="44.0899959" lon="8.132083"><ele>82.4</ele><time>2026-04-26T08:03:05.926Z</time></trkpt><trkpt lat="44.0900269" lon="8.1319542"><ele>80.80000000000001</ele><time>2026-04-26T08:03:06.959Z</time></trkpt><trkpt lat="44.0900617" lon="8.1318179"><ele>79.19999999999999</ele><time>2026-04-26T08:03:07.968Z</time></trkpt><trkpt lat="44.0900922" lon="8.1316812"><ele>77.6</ele><time>2026-04-26T08:03:08.94Z</time></trkpt><trkpt lat="44.0901249" lon="8.1315334"><ele>76.0</ele><time>2026-04-26T08:03:09.952Z</time></trkpt><trkpt lat="44.0901582" lon="8.1313787"><ele>76.0</ele><time>2026-04-26T08:03:10.959Z</time></trkpt><trkpt lat="44.0902198" lon="8.131111"><ele>76.0</ele><time>2026-04-26T08:03:13.002Z</time></trkpt><trkpt lat="44.090244" lon="8.1310008"><ele>76.0</ele><time>2026-04-26T08:03:14.023Z</time></trkpt><trkpt lat="44.0902726" lon="8.1308717"><ele>76.0</ele><time>2026-04-26T08:03:15.176Z</time></trkpt><trkpt lat="44.0902956" lon="8.1307657"><ele>76.6</ele><time>2026-04-26T08:03:16.125Z</time></trkpt><trkpt lat="44.0903236" lon="8.1306438"><ele>77.19999999999999</ele><time>2026-04-26T08:03:17.296Z</time></trkpt><trkpt lat="44.0903319" lon="8.1304533"><ele>77.80000000000001</ele><time>2026-04-26T08:03:19.12Z</time></trkpt><trkpt lat="44.0902918" lon="8.1302653"><ele>78.4</ele><time>2026-04-26T08:03:21.097Z</time></trkpt><trkpt lat="44.0902546" lon="8.1301905"><ele>79.0</ele><time>2026-04-26T08:03:22.04Z</time></trkpt><trkpt lat="44.0902056" lon="8.1301258"><ele>79.0</ele><time>2026-04-26T08:03:23.08Z</time></trkpt><trkpt lat="44.0901548" lon="8.130072"><ele>79.0</ele><time>2026-04-26T08:03:24.079Z</time></trkpt><trkpt lat="44.090074" lon="8.129982"><ele>79.0</ele><time>2026-04-26T08:03:26.176Z</time></trkpt><trkpt lat="44.0900303" lon="8.1298507"><ele>79.0</ele><time>2026-04-26T08:03:28.246Z</time></trkpt><trkpt lat="44.0900469" lon="8.129648"><ele>79.0</ele><time>2026-04-26T08:03:30.356Z</time></trkpt><trkpt lat="44.0900442" lon="8.129449"><ele>79.0</ele><time>2026-04-26T08:03:32.109Z</time></trkpt><trkpt lat="44.0900359" lon="8.1293426"><ele>79.0</ele><time>2026-04-26T08:03:33.032Z</time></trkpt><trkpt lat="44.0900182" lon="8.1292108"><ele>79.0</ele><time>2026-04-26T08:03:34.096Z</time></trkpt><trkpt lat="44.0899912" lon="8.1290872"><ele>79.0</ele><time>2026-04-26T08:03:35.042Z</time></trkpt><trkpt lat="44.0899567" lon="8.1289524"><ele>79.0</ele><time>2026-04-26T08:03:36.065Z</time></trkpt><trkpt lat="44.0899193" lon="8.1287908"><ele>91.0</ele><time>2026-04-26T08:03:37.159Z</time></trkpt><trkpt lat="44.0898511" lon="8.1285158"><ele>103.0</ele><time>2026-04-26T08:03:39.111Z</time></trkpt><trkpt lat="44.0898173" lon="8.1283796"><ele>115.0</ele><time>2026-04-26T08:03:40.078Z</time></trkpt><trkpt lat="44.0897547" lon="8.1281097"><ele>115.0</ele><time>2026-04-26T08:03:42.166Z</time></trkpt><trkpt lat="44.089703" lon="8.1278963"><ele>115.0</ele><time>2026-04-26T08:03:44.016Z</time></trkpt><trkpt lat="44.0896781" lon="8.1278072"><ele>115.0</ele><time>2026-04-26T08:03:45.039Z</time></trkpt><trkpt lat="44.0896313" lon="8.1275919"><ele>115.0</ele><time>2026-04-26T08:03:48.063Z</time></trkpt><trkpt lat="44.0896981" lon="8.1275081"><ele>115.0</ele><time>2026-04-26T08:03:50.114Z</time></trkpt><trkpt lat="44.0898278" lon="8.1274849"><ele>115.0</ele><time>2026-04-26T08:03:52.189Z</time></trkpt><trkpt lat="44.0899029" lon="8.1275188"><ele>115.0</ele><time>2026-04-26T08:03:53.209Z</time></trkpt><trkpt lat="44.0900708" lon="8.1276241"><ele>115.0</ele><time>2026-04-26T08:03:55.093Z</time></trkpt><trkpt lat="44.0901826" lon="8.1276452"><ele>103.75</ele><time>2026-04-26T08:03:56.107Z</time></trkpt><trkpt lat="44.0903176" lon="8.1275998"><ele>92.5</ele><time>2026-04-26T08:03:57.188Z</time></trkpt><trkpt lat="44.090422" lon="8.1275438"><ele>81.25</ele><time>2026-04-26T08:03:58.091Z</time></trkpt><trkpt lat="44.0905513" lon="8.1274991"><ele>70.0</ele><time>2026-04-26T08:03:59.115Z</time></trkpt><trkpt lat="44.0908035" lon="8.1274685"><ele>70.0</ele><time>2026-04-26T08:04:01.197Z</time></trkpt><trkpt lat="44.0910293" lon="8.1275217"><ele>70.0</ele><time>2026-04-26T08:04:03.017Z</time></trkpt><trkpt lat="44.0911585" lon="8.1275862"><ele>70.0</ele><time>2026-04-26T08:04:04.111Z</time></trkpt><trkpt lat="44.0912617" lon="8.1276653"><ele>70.0</ele><time>2026-04-26T08:04:05.102Z</time></trkpt><trkpt lat="44.091345" lon="8.127748"><ele>70.0</ele><time>2026-04-26T08:04:06.04Z</time></trkpt><trkpt lat="44.0914406" lon="8.1278396"><ele>70.0</ele><time>2026-04-26T08:04:07.135Z</time></trkpt><trkpt lat="44.0916164" lon="8.1279445"><ele>70.0</ele><time>2026-04-26T08:04:09.072Z</time></trkpt><trkpt lat="44.0918255" lon="8.1279185"><ele>70.5</ele><time>2026-04-26T08:04:11.058Z</time></trkpt><trkpt lat="44.0919282" lon="8.1278855"><ele>71.0</ele><time>2026-04-26T08:04:11.97Z</time></trkpt><trkpt lat="44.0920407" lon="8.1278554"><ele>71.5</ele><time>2026-04-26T08:04:12.943Z</time></trkpt><trkpt lat="44.0921648" lon="8.12784"><ele>72.0</ele><time>2026-04-26T08:04:14.064Z</time></trkpt><trkpt lat="44.0923323" lon="8.1278533"><ele>72.4</ele><time>2026-04-26T08:04:16.005Z</time></trkpt><trkpt lat="44.0924278" lon="8.1278766"><ele>72.80000000000001</ele><time>2026-04-26T08:04:17.981Z</time></trkpt><trkpt lat="44.0925117" lon="8.1279095"><ele>73.2</ele><time>2026-04-26T08:04:20.944Z</time></trkpt><trkpt lat="44.0925755" lon="8.1280192"><ele>73.60000000000001</ele><time>2026-04-26T08:04:23.921Z</time></trkpt><trkpt lat="44.0926142" lon="8.128162"><ele>74.0</ele><time>2026-04-26T08:04:27.97Z</time></trkpt><trkpt lat="44.0926843" lon="8.1282127"><ele>74.0</ele><time>2026-04-26T08:04:29.89Z</time></trkpt><trkpt lat="44.0927704" lon="8.1282"><ele>74.0</ele><time>2026-04-26T08:04:30.932Z</time></trkpt><trkpt lat="44.0928907" lon="8.1281605"><ele>74.0</ele><time>2026-04-26T08:04:32.096Z</time></trkpt><trkpt lat="44.0930099" lon="8.1281196"><ele>74.0</ele><time>2026-04-26T08:04:33.097Z</time></trkpt><trkpt lat="44.0932905" lon="8.12805"><ele>74.5</ele><time>2026-04-26T08:04:35.044Z</time></trkpt><trkpt lat="44.0934457" lon="8.128009"><ele>75.0</ele><time>2026-04-26T08:04:36.087Z</time></trkpt><trkpt lat="44.0935778" lon="8.1279768"><ele>75.5</ele><time>2026-04-26T08:04:36.989Z</time></trkpt><trkpt lat="44.0937184" lon="8.1279542"><ele>76.0</ele><time>2026-04-26T08:04:37.939Z</time></trkpt><trkpt lat="44.0939" lon="8.1279663"><ele>76.0</ele><time>2026-04-26T08:04:39.065Z</time></trkpt><trkpt lat="44.094057" lon="8.1280052"><ele>76.0</ele><time>2026-04-26T08:04:40.016Z</time></trkpt><trkpt lat="44.0942483" lon="8.1280356"><ele>76.0</ele><time>2026-04-26T08:04:41.106Z</time></trkpt><trkpt lat="44.0944128" lon="8.1280335"><ele>76.0</ele><time>2026-04-26T08:04:42.025Z</time></trkpt><trkpt lat="44.0945922" lon="8.1280079"><ele>76.0</ele><time>2026-04-26T08:04:43.033Z</time></trkpt><trkpt lat="44.0947753" lon="8.1279515"><ele>76.0</ele><time>2026-04-26T08:04:44.067Z</time></trkpt><trkpt lat="44.0949418" lon="8.1278786"><ele>76.33333333333333</ele><time>2026-04-26T08:04:45.001Z</time></trkpt><trkpt lat="44.0951312" lon="8.1277885"><ele>76.66666666666667</ele><time>2026-04-26T08:04:46.064Z</time></trkpt><trkpt lat="44.0953127" lon="8.1277005"><ele>77.0</ele><time>2026-04-26T08:04:47.116Z</time></trkpt><trkpt lat="44.0956197" lon="8.1274912"><ele>79.5</ele><time>2026-04-26T08:04:49.073Z</time></trkpt><trkpt lat="44.0957596" lon="8.1273388"><ele>82.0</ele><time>2026-04-26T08:04:50.124Z</time></trkpt><trkpt lat="44.0959841" lon="8.1269958"><ele>82.0</ele><time>2026-04-26T08:04:52.061Z</time></trkpt><trkpt lat="44.0960862" lon="8.126801"><ele>82.0</ele><time>2026-04-26T08:04:53.002Z</time></trkpt><trkpt lat="44.096188" lon="8.1266103"><ele>82.0</ele><time>2026-04-26T08:04:53.921Z</time></trkpt><trkpt lat="44.0963167" lon="8.1263757"><ele>83.5</ele><time>2026-04-26T08:04:55.057Z</time></trkpt><trkpt lat="44.0964378" lon="8.1261625"><ele>85.0</ele><time>2026-04-26T08:04:56.117Z</time></trkpt><trkpt lat="44.0966591" lon="8.1257975"><ele>84.66666666666666</ele><time>2026-04-26T08:04:58.07Z</time></trkpt><trkpt lat="44.0967751" lon="8.1256278"><ele>84.33333333333333</ele><time>2026-04-26T08:04:59.097Z</time></trkpt><trkpt lat="44.0968835" lon="8.1254785"><ele>84.0</ele><time>2026-04-26T08:05:00.061Z</time></trkpt><trkpt lat="44.0969897" lon="8.1253348"><ele>84.0</ele><time>2026-04-26T08:05:01.089Z</time></trkpt><trkpt lat="44.0970887" lon="8.1252349"><ele>84.0</ele><time>2026-04-26T08:05:02.037Z</time></trkpt><trkpt lat="44.0972375" lon="8.1251432"><ele>84.0</ele><time>2026-04-26T08:05:03.184Z</time></trkpt><trkpt lat="44.0975146" lon="8.1251348"><ele>88.5</ele><time>2026-04-26T08:05:04.99Z</time></trkpt><trkpt lat="44.0978501" lon="8.1252297"><ele>93.0</ele><time>2026-04-26T08:05:07.121Z</time></trkpt><trkpt lat="44.0981294" lon="8.1253363"><ele>92.66666666666667</ele><time>2026-04-26T08:05:08.977Z</time></trkpt><trkpt lat="44.0982683" lon="8.1253565"><ele>92.33333333333334</ele><time>2026-04-26T08:05:09.981Z</time></trkpt><trkpt lat="44.0984192" lon="8.1253332"><ele>92.0</ele><time>2026-04-26T08:05:10.91Z</time></trkpt><trkpt lat="44.0985793" lon="8.1252896"><ele>92.0</ele><time>2026-04-26T08:05:12.068Z</time></trkpt><trkpt lat="44.0987059" lon="8.1252135"><ele>92.0</ele><time>2026-04-26T08:05:13.009Z</time></trkpt><trkpt lat="44.0988344" lon="8.1251052"><ele>92.0</ele><time>2026-04-26T08:05:14.025Z</time></trkpt><trkpt lat="44.098958" lon="8.1249581"><ele>92.0</ele><time>2026-04-26T08:05:15.064Z</time></trkpt><trkpt lat="44.0990614" lon="8.1248336"><ele>92.0</ele><time>2026-04-26T08:05:15.985Z</time></trkpt><trkpt lat="44.0991833" lon="8.1246892"><ele>92.0</ele><time>2026-04-26T08:05:17.017Z</time></trkpt><trkpt lat="44.0992865" lon="8.1245653"><ele>92.0</ele><time>2026-04-26T08:05:17.996Z</time></trkpt><trkpt lat="44.0993974" lon="8.1244264"><ele>92.0</ele><time>2026-04-26T08:05:19.175Z</time></trkpt><trkpt lat="44.0996004" lon="8.1241596"><ele>92.0</ele><time>2026-04-26T08:05:21.084Z</time></trkpt><trkpt lat="44.0997011" lon="8.1240155"><ele>92.0</ele><time>2026-04-26T08:05:22.046Z</time></trkpt><trkpt lat="44.0998114" lon="8.1238525"><ele>92.33333333333334</ele><time>2026-04-26T08:05:23.075Z</time></trkpt><trkpt lat="44.0999395" lon="8.1236871"><ele>92.66666666666667</ele><time>2026-04-26T08:05:24.111Z</time></trkpt><trkpt lat="44.1000562" lon="8.1235532"><ele>93.0</ele><time>2026-04-26T08:05:25.049Z</time></trkpt><trkpt lat="44.1003137" lon="8.1233249"><ele>96.5</ele><time>2026-04-26T08:05:27.03Z</time></trkpt><trkpt lat="44.100609" lon="8.1231882"><ele>100.0</ele><time>2026-04-26T08:05:29.047Z</time></trkpt><trkpt lat="44.1007616" lon="8.1231601"><ele>100.0</ele><time>2026-04-26T08:05:30.064Z</time></trkpt><trkpt lat="44.1008981" lon="8.1231563"><ele>100.0</ele><time>2026-04-26T08:05:31.003Z</time></trkpt><trkpt lat="44.1010404" lon="8.1231901"><ele>100.0</ele><time>2026-04-26T08:05:32.049Z</time></trkpt><trkpt lat="44.1011908" lon="8.1232528"><ele>100.0</ele><time>2026-04-26T08:05:33.064Z</time></trkpt><trkpt lat="44.1013297" lon="8.1233419"><ele>99.33333333333334</ele><time>2026-04-26T08:05:34.087Z</time></trkpt><trkpt lat="44.1014699" lon="8.123457"><ele>98.66666666666666</ele><time>2026-04-26T08:05:35.186Z</time></trkpt><trkpt lat="44.1015981" lon="8.1235523"><ele>98.0</ele><time>2026-04-26T08:05:36.1Z</time></trkpt><trkpt lat="44.1017445" lon="8.1236331"><ele>97.5</ele><time>2026-04-26T08:05:37.116Z</time></trkpt><trkpt lat="44.1020872" lon="8.1236894"><ele>97.0</ele><time>2026-04-26T08:05:39.157Z</time></trkpt><trkpt lat="44.102383" lon="8.1237108"><ele>97.66666666666667</ele><time>2026-04-26T08:05:40.986Z</time></trkpt><trkpt lat="44.1025453" lon="8.1237373"><ele>98.33333333333334</ele><time>2026-04-26T08:05:42.008Z</time></trkpt><trkpt lat="44.1027137" lon="8.1237883"><ele>99.0</ele><time>2026-04-26T08:05:43.091Z</time></trkpt><trkpt lat="44.1028603" lon="8.1238505"><ele>99.0</ele><time>2026-04-26T08:05:44.131Z</time></trkpt><trkpt lat="44.1029924" lon="8.1239281"><ele>99.0</ele><time>2026-04-26T08:05:45.069Z</time></trkpt><trkpt lat="44.103273" lon="8.1241178"><ele>103.0</ele><time>2026-04-26T08:05:47.136Z</time></trkpt><trkpt lat="44.1035233" lon="8.1242841"><ele>107.0</ele><time>2026-04-26T08:05:49.022Z</time></trkpt><trkpt lat="44.1037974" lon="8.12447"><ele>107.0</ele><time>2026-04-26T08:05:51.081Z</time></trkpt><trkpt lat="44.103913" lon="8.1245475"><ele>107.0</ele><time>2026-04-26T08:05:51.988Z</time></trkpt><trkpt lat="44.1040452" lon="8.1246354"><ele>107.0</ele><time>2026-04-26T08:05:53.055Z</time></trkpt><trkpt lat="44.1041702" lon="8.1247018"><ele>107.0</ele><time>2026-04-26T08:05:54.02Z</time></trkpt><trkpt lat="44.1044444" lon="8.1247294"><ele>106.0</ele><time>2026-04-26T08:05:56.02Z</time></trkpt><trkpt lat="44.1045883" lon="8.1246803"><ele>105.0</ele><time>2026-04-26T08:05:57.005Z</time></trkpt><trkpt lat="44.1047482" lon="8.1246295"><ele>104.0</ele><time>2026-04-26T08:05:58.18Z</time></trkpt><trkpt lat="44.1049753" lon="8.1245033"><ele>104.0</ele><time>2026-04-26T08:06:00.101Z</time></trkpt><trkpt lat="44.1051714" lon="8.1242942"><ele>104.0</ele><time>2026-04-26T08:06:02.065Z</time></trkpt><trkpt lat="44.1052832" lon="8.1241533"><ele>104.0</ele><time>2026-04-26T08:06:03.127Z</time></trkpt><trkpt lat="44.1054154" lon="8.1240006"><ele>105.5</ele><time>2026-04-26T08:06:04.182Z</time></trkpt><trkpt lat="44.1056619" lon="8.1237456"><ele>107.0</ele><time>2026-04-26T08:06:06.077Z</time></trkpt><trkpt lat="44.1058014" lon="8.1236038"><ele>107.0</ele><time>2026-04-26T08:06:07.075Z</time></trkpt><trkpt lat="44.105939" lon="8.1234676"><ele>107.0</ele><time>2026-04-26T08:06:08.046Z</time></trkpt><trkpt lat="44.1060794" lon="8.1233287"><ele>107.0</ele><time>2026-04-26T08:06:09.088Z</time></trkpt><trkpt lat="44.1062185" lon="8.1231814"><ele>110.0</ele><time>2026-04-26T08:06:10.077Z</time></trkpt><trkpt lat="44.1065038" lon="8.1228978"><ele>113.0</ele><time>2026-04-26T08:06:11.968Z</time></trkpt><trkpt lat="44.1066381" lon="8.1227631"><ele>112.0</ele><time>2026-04-26T08:06:12.934Z</time></trkpt><trkpt lat="44.1067769" lon="8.1226223"><ele>111.0</ele><time>2026-04-26T08:06:13.926Z</time></trkpt><trkpt lat="44.1069171" lon="8.1224876"><ele>110.0</ele><time>2026-04-26T08:06:15.016Z</time></trkpt><trkpt lat="44.1070335" lon="8.1223775"><ele>110.0</ele><time>2026-04-26T08:06:15.993Z</time></trkpt><trkpt lat="44.1071452" lon="8.1222729"><ele>110.0</ele><time>2026-04-26T08:06:16.934Z</time></trkpt><trkpt lat="44.1072684" lon="8.1221561"><ele>110.0</ele><time>2026-04-26T08:06:17.946Z</time></trkpt><trkpt lat="44.1074036" lon="8.1220312"><ele>110.0</ele><time>2026-04-26T08:06:19.05Z</time></trkpt><trkpt lat="44.1075086" lon="8.1219304"><ele>108.5</ele><time>2026-04-26T08:06:19.968Z</time></trkpt><trkpt lat="44.1076247" lon="8.121818"><ele>107.0</ele><time>2026-04-26T08:06:20.989Z</time></trkpt><trkpt lat="44.1077303" lon="8.1217129"><ele>105.5</ele><time>2026-04-26T08:06:21.939Z</time></trkpt><trkpt lat="44.1078358" lon="8.1215784"><ele>104.0</ele><time>2026-04-26T08:06:22.99Z</time></trkpt><trkpt lat="44.1079217" lon="8.1214325"><ele>104.0</ele><time>2026-04-26T08:06:23.993Z</time></trkpt><trkpt lat="44.1079873" lon="8.1212672"><ele>104.0</ele><time>2026-04-26T08:06:24.985Z</time></trkpt><trkpt lat="44.1080304" lon="8.1210888"><ele>104.0</ele><time>2026-04-26T08:06:25.959Z</time></trkpt><trkpt lat="44.1080549" lon="8.120913"><ele>104.0</ele><time>2026-04-26T08:06:26.902Z</time></trkpt><trkpt lat="44.1080661" lon="8.1207129"><ele>106.0</ele><time>2026-04-26T08:06:27.961Z</time></trkpt><trkpt lat="44.1080526" lon="8.1205126"><ele>108.0</ele><time>2026-04-26T08:06:28.981Z</time></trkpt><trkpt lat="44.1080226" lon="8.1203222"><ele>110.0</ele><time>2026-04-26T08:06:30.011Z</time></trkpt><trkpt lat="44.107992" lon="8.1201486"><ele>112.0</ele><time>2026-04-26T08:06:30.961Z</time></trkpt><trkpt lat="44.1079682" lon="8.1199056"><ele>114.5</ele><time>2026-04-26T08:06:32.2Z</time></trkpt><trkpt lat="44.1079859" lon="8.1195139"><ele>117.0</ele><time>2026-04-26T08:06:34.005Z</time></trkpt><trkpt lat="44.1080124" lon="8.1192287"><ele>117.0</ele><time>2026-04-26T08:06:35.271Z</time></trkpt><trkpt lat="44.1080283" lon="8.1190694"><ele>117.0</ele><time>2026-04-26T08:06:36.022Z</time></trkpt><trkpt lat="44.1080511" lon="8.1188473"><ele>117.0</ele><time>2026-04-26T08:06:37.144Z</time></trkpt><trkpt lat="44.1080754" lon="8.1186542"><ele>117.0</ele><time>2026-04-26T08:06:38.155Z</time></trkpt><trkpt lat="44.1081703" lon="8.1182903"><ele>115.0</ele><time>2026-04-26T08:06:40.05Z</time></trkpt><trkpt lat="44.1082516" lon="8.118102"><ele>113.0</ele><time>2026-04-26T08:06:40.991Z</time></trkpt><trkpt lat="44.1083577" lon="8.1179083"><ele>111.0</ele><time>2026-04-26T08:06:41.91Z</time></trkpt><trkpt lat="44.1085116" lon="8.1176904"><ele>117.5</ele><time>2026-04-26T08:06:43.064Z</time></trkpt><trkpt lat="44.1087043" lon="8.117282"><ele>124.0</ele><time>2026-04-26T08:06:44.992Z</time></trkpt><trkpt lat="44.1087588" lon="8.1170312"><ele>124.0</ele><time>2026-04-26T08:06:45.951Z</time></trkpt><trkpt lat="44.1088207" lon="8.1167582"><ele>124.0</ele><time>2026-04-26T08:06:46.999Z</time></trkpt><trkpt lat="44.1089052" lon="8.1165273"><ele>124.0</ele><time>2026-04-26T08:06:47.947Z</time></trkpt><trkpt lat="44.1090429" lon="8.116303"><ele>124.33333333333334</ele><time>2026-04-26T08:06:48.963Z</time></trkpt><trkpt lat="44.1092048" lon="8.1161057"><ele>124.66666666666666</ele><time>2026-04-26T08:06:49.938Z</time></trkpt><trkpt lat="44.1093839" lon="8.1158953"><ele>125.0</ele><time>2026-04-26T08:06:50.962Z</time></trkpt><trkpt lat="44.1095431" lon="8.115704"><ele>127.0</ele><time>2026-04-26T08:06:51.941Z</time></trkpt><trkpt lat="44.1096938" lon="8.1155333"><ele>129.0</ele><time>2026-04-26T08:06:52.96Z</time></trkpt><trkpt lat="44.1098377" lon="8.1154206"><ele>131.0</ele><time>2026-04-26T08:06:53.931Z</time></trkpt><trkpt lat="44.1099897" lon="8.1153386"><ele>131.0</ele><time>2026-04-26T08:06:54.854Z</time></trkpt><trkpt lat="44.1101875" lon="8.1152809"><ele>131.0</ele><time>2026-04-26T08:06:55.953Z</time></trkpt><trkpt lat="44.110372" lon="8.1152144"><ele>131.0</ele><time>2026-04-26T08:06:56.966Z</time></trkpt><trkpt lat="44.1105553" lon="8.1151345"><ele>131.0</ele><time>2026-04-26T08:06:57.973Z</time></trkpt><trkpt lat="44.1107281" lon="8.1150466"><ele>131.0</ele><time>2026-04-26T08:06:58.965Z</time></trkpt><trkpt lat="44.1109045" lon="8.1149444"><ele>131.0</ele><time>2026-04-26T08:07:00.021Z</time></trkpt><trkpt lat="44.1110719" lon="8.1148457"><ele>139.5</ele><time>2026-04-26T08:07:01.071Z</time></trkpt><trkpt lat="44.1113502" lon="8.1146252"><ele>148.0</ele><time>2026-04-26T08:07:03.049Z</time></trkpt><trkpt lat="44.1115279" lon="8.1146127"><ele>144.0</ele><time>2026-04-26T08:07:04.085Z</time></trkpt><trkpt lat="44.1116913" lon="8.1146883"><ele>140.0</ele><time>2026-04-26T08:07:05.041Z</time></trkpt><trkpt lat="44.111883" lon="8.1147805"><ele>136.0</ele><time>2026-04-26T08:07:06.135Z</time></trkpt><trkpt lat="44.1121915" lon="8.1149896"><ele>132.0</ele><time>2026-04-26T08:07:08.017Z</time></trkpt><trkpt lat="44.1123557" lon="8.1151074"><ele>128.0</ele><time>2026-04-26T08:07:09.02Z</time></trkpt><trkpt lat="44.1125415" lon="8.1152407"><ele>124.0</ele><time>2026-04-26T08:07:10.144Z</time></trkpt><trkpt lat="44.1128295" lon="8.1154506"><ele>124.0</ele><time>2026-04-26T08:07:11.911Z</time></trkpt><trkpt lat="44.1129949" lon="8.1155681"><ele>124.0</ele><time>2026-04-26T08:07:13.013Z</time></trkpt><trkpt lat="44.1132381" lon="8.1158054"><ele>123.5</ele><time>2026-04-26T08:07:15.03Z</time></trkpt><trkpt lat="44.1133163" lon="8.1159664"><ele>123.0</ele><time>2026-04-26T08:07:15.939Z</time></trkpt><trkpt lat="44.113367" lon="8.1161589"><ele>122.5</ele><time>2026-04-26T08:07:16.948Z</time></trkpt><trkpt lat="44.1133871" lon="8.1163685"><ele>122.0</ele><time>2026-04-26T08:07:18.017Z</time></trkpt><trkpt lat="44.1133625" lon="8.1167492"><ele>121.75</ele><time>2026-04-26T08:07:19.901Z</time></trkpt><trkpt lat="44.1133532" lon="8.1169422"><ele>121.5</ele><time>2026-04-26T08:07:20.925Z</time></trkpt><trkpt lat="44.1133627" lon="8.117102"><ele>121.25</ele><time>2026-04-26T08:07:21.95Z</time></trkpt><trkpt lat="44.1134045" lon="8.1172314"><ele>121.0</ele><time>2026-04-26T08:07:22.946Z</time></trkpt><trkpt lat="44.1134923" lon="8.1173426"><ele>128.66666666666669</ele><time>2026-04-26T08:07:23.925Z</time></trkpt><trkpt lat="44.1136044" lon="8.1174351"><ele>136.33333333333334</ele><time>2026-04-26T08:07:24.853Z</time></trkpt><trkpt lat="44.1137694" lon="8.1175575"><ele>144.0</ele><time>2026-04-26T08:07:26.004Z</time></trkpt><trkpt lat="44.1139178" lon="8.1176536"><ele>140.33333333333334</ele><time>2026-04-26T08:07:26.942Z</time></trkpt><trkpt lat="44.1140987" lon="8.1177473"><ele>136.66666666666669</ele><time>2026-04-26T08:07:27.996Z</time></trkpt><trkpt lat="44.1142734" lon="8.1178241"><ele>133.0</ele><time>2026-04-26T08:07:29.039Z</time></trkpt><trkpt lat="44.1144583" lon="8.1178966"><ele>133.0</ele><time>2026-04-26T08:07:30.192Z</time></trkpt><trkpt lat="44.1147138" lon="8.1180404"><ele>133.0</ele><time>2026-04-26T08:07:32.108Z</time></trkpt><trkpt lat="44.1148447" lon="8.1180778"><ele>133.0</ele><time>2026-04-26T08:07:33.21Z</time></trkpt><trkpt lat="44.115098" lon="8.1179907"><ele>131.0</ele><time>2026-04-26T08:07:35.086Z</time></trkpt><trkpt lat="44.1152247" lon="8.1179536"><ele>129.0</ele><time>2026-04-26T08:07:35.992Z</time></trkpt><trkpt lat="44.1153911" lon="8.1179649"><ele>127.0</ele><time>2026-04-26T08:07:37.044Z</time></trkpt><trkpt lat="44.1155637" lon="8.1179956"><ele>130.33333333333334</ele><time>2026-04-26T08:07:38.053Z</time></trkpt><trkpt lat="44.1157387" lon="8.1180351"><ele>133.66666666666666</ele><time>2026-04-26T08:07:39.087Z</time></trkpt><trkpt lat="44.1158878" lon="8.1180671"><ele>137.0</ele><time>2026-04-26T08:07:40.005Z</time></trkpt><trkpt lat="44.1160795" lon="8.1181112"><ele>137.0</ele><time>2026-04-26T08:07:41.227Z</time></trkpt><trkpt lat="44.116182" lon="8.1181364"><ele>137.0</ele><time>2026-04-26T08:07:41.939Z</time></trkpt><trkpt lat="44.1163308" lon="8.1181741"><ele>137.0</ele><time>2026-04-26T08:07:43.083Z</time></trkpt><trkpt lat="44.1165246" lon="8.1181697"><ele>137.0</ele><time>2026-04-26T08:07:45.077Z</time></trkpt><trkpt lat="44.1166196" lon="8.1180645"><ele>141.33333333333331</ele><time>2026-04-26T08:07:46.186Z</time></trkpt><trkpt lat="44.1166926" lon="8.1179469"><ele>145.66666666666666</ele><time>2026-04-26T08:07:47.151Z</time></trkpt><trkpt lat="44.1169207" lon="8.1179456"><ele>150.0</ele><time>2026-04-26T08:07:49.096Z</time></trkpt><trkpt lat="44.1170366" lon="8.1179702"><ele>150.0</ele><time>2026-04-26T08:07:50.049Z</time></trkpt><trkpt lat="44.1171375" lon="8.1179404"><ele>150.0</ele><time>2026-04-26T08:07:51.098Z</time></trkpt><trkpt lat="44.1172278" lon="8.1178078"><ele>150.0</ele><time>2026-04-26T08:07:52.225Z</time></trkpt><trkpt lat="44.1173225" lon="8.1174345"><ele>155.33333333333334</ele><time>2026-04-26T08:07:54.086Z</time></trkpt><trkpt lat="44.1174063" lon="8.1171096"><ele>160.66666666666669</ele><time>2026-04-26T08:07:56.155Z</time></trkpt><trkpt lat="44.1174667" lon="8.1168721"><ele>166.0</ele><time>2026-04-26T08:07:58.133Z</time></trkpt><trkpt lat="44.117565" lon="8.1167474"><ele>166.0</ele><time>2026-04-26T08:08:00.278Z</time></trkpt><trkpt lat="44.1176961" lon="8.1167394"><ele>166.0</ele><time>2026-04-26T08:08:02.009Z</time></trkpt><trkpt lat="44.1178185" lon="8.1167871"><ele>166.0</ele><time>2026-04-26T08:08:03.176Z</time></trkpt><trkpt lat="44.1179206" lon="8.1168228"><ele>166.0</ele><time>2026-04-26T08:08:04.119Z</time></trkpt><trkpt lat="44.1180995" lon="8.116795"><ele>166.0</ele><time>2026-04-26T08:08:06.156Z</time></trkpt><trkpt lat="44.1181345" lon="8.1166169"><ele>166.0</ele><time>2026-04-26T08:08:08.022Z</time></trkpt><trkpt lat="44.118096" lon="8.1165019"><ele>166.0</ele><time>2026-04-26T08:08:09.044Z</time></trkpt><trkpt lat="44.1180245" lon="8.1163784"><ele>166.0</ele><time>2026-04-26T08:08:10.095Z</time></trkpt><trkpt lat="44.1179859" lon="8.1162396"><ele>166.0</ele><time>2026-04-26T08:08:11.201Z</time></trkpt><trkpt lat="44.1181322" lon="8.1159738"><ele>168.0</ele><time>2026-04-26T08:08:13.192Z</time></trkpt><trkpt lat="44.1184213" lon="8.1158876"><ele>170.0</ele><time>2026-04-26T08:08:15.127Z</time></trkpt><trkpt lat="44.1187177" lon="8.1159239"><ele>170.0</ele><time>2026-04-26T08:08:17.056Z</time></trkpt><trkpt lat="44.1188576" lon="8.1159771"><ele>170.0</ele><time>2026-04-26T08:08:18.01Z</time></trkpt><trkpt lat="44.1190319" lon="8.1160666"><ele>170.0</ele><time>2026-04-26T08:08:19.09Z</time></trkpt><trkpt lat="44.1193302" lon="8.1162728"><ele>171.0</ele><time>2026-04-26T08:08:20.998Z</time></trkpt><trkpt lat="44.1194727" lon="8.1163815"><ele>172.0</ele><time>2026-04-26T08:08:21.996Z</time></trkpt><trkpt lat="44.1196083" lon="8.1164836"><ele>173.0</ele><time>2026-04-26T08:08:23.005Z</time></trkpt><trkpt lat="44.1197239" lon="8.1165967"><ele>178.0</ele><time>2026-04-26T08:08:24.082Z</time></trkpt><trkpt lat="44.1198219" lon="8.1166779"><ele>183.0</ele><time>2026-04-26T08:08:25.032Z</time></trkpt><trkpt lat="44.1199444" lon="8.1167149"><ele>188.0</ele><time>2026-04-26T08:08:26.069Z</time></trkpt><trkpt lat="44.1200792" lon="8.1167204"><ele>193.0</ele><time>2026-04-26T08:08:26.997Z</time></trkpt><trkpt lat="44.1202187" lon="8.1167491"><ele>193.0</ele><time>2026-04-26T08:08:28.14Z</time></trkpt><trkpt lat="44.120308" lon="8.116783"><ele>193.0</ele><time>2026-04-26T08:08:29.096Z</time></trkpt><trkpt lat="44.1204346" lon="8.1169119"><ele>193.0</ele><time>2026-04-26T08:08:30.978Z</time></trkpt><trkpt lat="44.1204627" lon="8.1170042"><ele>193.0</ele><time>2026-04-26T08:08:31.985Z</time></trkpt><trkpt lat="44.1204856" lon="8.1171003"><ele>193.0</ele><time>2026-04-26T08:08:33.035Z</time></trkpt><trkpt lat="44.120521" lon="8.1171876"><ele>193.0</ele><time>2026-04-26T08:08:34.049Z</time></trkpt><trkpt lat="44.1206599" lon="8.1172201"><ele>193.0</ele><time>2026-04-26T08:08:35.863Z</time></trkpt><trkpt lat="44.1207885" lon="8.1171899"><ele>193.0</ele><time>2026-04-26T08:08:37.051Z</time></trkpt><trkpt lat="44.1208693" lon="8.1171033"><ele>193.0</ele><time>2026-04-26T08:08:38.054Z</time></trkpt><trkpt lat="44.1209419" lon="8.1169982"><ele>193.75</ele><time>2026-04-26T08:08:38.991Z</time></trkpt><trkpt lat="44.1210165" lon="8.1168339"><ele>194.5</ele><time>2026-04-26T08:08:40.11Z</time></trkpt><trkpt lat="44.1210796" lon="8.1165627"><ele>195.25</ele><time>2026-04-26T08:08:42.037Z</time></trkpt><trkpt lat="44.1211098" lon="8.1164243"><ele>196.0</ele><time>2026-04-26T08:08:43.03Z</time></trkpt><trkpt lat="44.1211421" lon="8.1163009"><ele>197.0</ele><time>2026-04-26T08:08:44.056Z</time></trkpt><trkpt lat="44.1211918" lon="8.1162194"><ele>198.0</ele><time>2026-04-26T08:08:44.982Z</time></trkpt><trkpt lat="44.1212777" lon="8.1161564"><ele>199.0</ele><time>2026-04-26T08:08:46.023Z</time></trkpt><trkpt lat="44.121379" lon="8.1161505"><ele>200.0</ele><time>2026-04-26T08:08:47.033Z</time></trkpt><trkpt lat="44.1215739" lon="8.1161788"><ele>200.0</ele><time>2026-04-26T08:08:49.001Z</time></trkpt><trkpt lat="44.121719" lon="8.1161368"><ele>200.0</ele><time>2026-04-26T08:08:50.112Z</time></trkpt><trkpt lat="44.1218392" lon="8.1160391"><ele>200.0</ele><time>2026-04-26T08:08:51.115Z</time></trkpt><trkpt lat="44.1219662" lon="8.1156971"><ele>191.5</ele><time>2026-04-26T08:08:53.113Z</time></trkpt><trkpt lat="44.1220063" lon="8.1152361"><ele>183.0</ele><time>2026-04-26T08:08:55.165Z</time></trkpt><trkpt lat="44.1221561" lon="8.1149696"><ele>182.25</ele><time>2026-04-26T08:08:57.072Z</time></trkpt><trkpt lat="44.1222985" lon="8.1148766"><ele>181.5</ele><time>2026-04-26T08:08:58.171Z</time></trkpt><trkpt lat="44.1224213" lon="8.1148465"><ele>180.75</ele><time>2026-04-26T08:08:59.079Z</time></trkpt><trkpt lat="44.1225689" lon="8.1148592"><ele>180.0</ele><time>2026-04-26T08:09:00.088Z</time></trkpt><trkpt lat="44.1227267" lon="8.1149062"><ele>191.33333333333331</ele><time>2026-04-26T08:09:00.952Z</time></trkpt><trkpt lat="44.122912" lon="8.1149982"><ele>202.66666666666666</ele><time>2026-04-26T08:09:01.978Z</time></trkpt><trkpt lat="44.1230991" lon="8.1150774"><ele>214.0</ele><time>2026-04-26T08:09:03.113Z</time></trkpt><trkpt lat="44.1232226" lon="8.1151116"><ele>215.5</ele><time>2026-04-26T08:09:04.019Z</time></trkpt><trkpt lat="44.1233411" lon="8.1150922"><ele>217.0</ele><time>2026-04-26T08:09:04.99Z</time></trkpt><trkpt lat="44.1234799" lon="8.1150252"><ele>218.5</ele><time>2026-04-26T08:09:06.028Z</time></trkpt><trkpt lat="44.123602" lon="8.1148758"><ele>220.0</ele><time>2026-04-26T08:09:07.009Z</time></trkpt><trkpt lat="44.1237421" lon="8.1147018"><ele>212.0</ele><time>2026-04-26T08:09:08.188Z</time></trkpt><trkpt lat="44.1239716" lon="8.1145927"><ele>204.0</ele><time>2026-04-26T08:09:10.111Z</time></trkpt><trkpt lat="44.124203" lon="8.114659"><ele>204.0</ele><time>2026-04-26T08:09:12.045Z</time></trkpt><trkpt lat="44.1243228" lon="8.1146074"><ele>204.0</ele><time>2026-04-26T08:09:13.109Z</time></trkpt><trkpt lat="44.1244573" lon="8.1144801"><ele>204.0</ele><time>2026-04-26T08:09:14.098Z</time></trkpt><trkpt lat="44.1246969" lon="8.1142425"><ele>204.0</ele><time>2026-04-26T08:09:16.108Z</time></trkpt><trkpt lat="44.1248065" lon="8.1141719"><ele>204.0</ele><time>2026-04-26T08:09:17.013Z</time></trkpt><trkpt lat="44.1249739" lon="8.1141081"><ele>204.0</ele><time>2026-04-26T08:09:18.167Z</time></trkpt><trkpt lat="44.1251432" lon="8.1140886"><ele>209.33333333333331</ele><time>2026-04-26T08:09:19.134Z</time></trkpt><trkpt lat="44.1253571" lon="8.1141278"><ele>214.66666666666666</ele><time>2026-04-26T08:09:20.138Z</time></trkpt><trkpt lat="44.1255512" lon="8.1141256"><ele>220.0</ele><time>2026-04-26T08:09:21.14Z</time></trkpt><trkpt lat="44.1259057" lon="8.1141796"><ele>225.0</ele><time>2026-04-26T08:09:23.101Z</time></trkpt><trkpt lat="44.126072" lon="8.1142485"><ele>230.0</ele><time>2026-04-26T08:09:24.1Z</time></trkpt><trkpt lat="44.1263" lon="8.1143963"><ele>235.0</ele><time>2026-04-26T08:09:26.181Z</time></trkpt><trkpt lat="44.1264658" lon="8.1144304"><ele>240.5</ele><time>2026-04-26T08:09:28.175Z</time></trkpt><trkpt lat="44.1266484" lon="8.1143645"><ele>246.0</ele><time>2026-04-26T08:09:30.068Z</time></trkpt><trkpt lat="44.1266712" lon="8.1142679"><ele>251.5</ele><time>2026-04-26T08:09:31.182Z</time></trkpt><trkpt lat="44.1265778" lon="8.1140643"><ele>257.0</ele><time>2026-04-26T08:09:32.997Z</time></trkpt><trkpt lat="44.1264382" lon="8.1137893"><ele>239.33333333333334</ele><time>2026-04-26T08:09:34.019Z</time></trkpt><trkpt lat="44.1263617" lon="8.113598"><ele>221.66666666666669</ele><time>2026-04-26T08:09:34.988Z</time></trkpt><trkpt lat="44.1263387" lon="8.1134146"><ele>204.0</ele><time>2026-04-26T08:09:36.079Z</time></trkpt><trkpt lat="44.1264247" lon="8.1130491"><ele>196.66666666666666</ele><time>2026-04-26T08:09:38Z</time></trkpt><trkpt lat="44.1265141" lon="8.1128071"><ele>189.33333333333331</ele><time>2026-04-26T08:09:39.1Z</time></trkpt><trkpt lat="44.1266096" lon="8.112671"><ele>182.0</ele><time>2026-04-26T08:09:40.049Z</time></trkpt><trkpt lat="44.1267381" lon="8.1125361"><ele>192.5</ele><time>2026-04-26T08:09:41.175Z</time></trkpt><trkpt lat="44.1270371" lon="8.1123901"><ele>203.0</ele><time>2026-04-26T08:09:43.081Z</time></trkpt><trkpt lat="44.1271955" lon="8.112347"><ele>203.0</ele><time>2026-04-26T08:09:44.117Z</time></trkpt><trkpt lat="44.1273316" lon="8.1123585"><ele>203.0</ele><time>2026-04-26T08:09:45.122Z</time></trkpt><trkpt lat="44.1276016" lon="8.1125292"><ele>203.0</ele><time>2026-04-26T08:09:47.051Z</time></trkpt><trkpt lat="44.1277009" lon="8.1126159"><ele>221.33333333333334</ele><time>2026-04-26T08:09:47.998Z</time></trkpt><trkpt lat="44.1279153" lon="8.1126815"><ele>239.66666666666669</ele><time>2026-04-26T08:09:50.006Z</time></trkpt><trkpt lat="44.1280479" lon="8.1126334"><ele>258.0</ele><time>2026-04-26T08:09:51.026Z</time></trkpt><trkpt lat="44.1282988" lon="8.1124557"><ele>259.5</ele><time>2026-04-26T08:09:52.936Z</time></trkpt><trkpt lat="44.1284559" lon="8.1124215"><ele>261.0</ele><time>2026-04-26T08:09:53.943Z</time></trkpt><trkpt lat="44.1285755" lon="8.1124036"><ele>262.5</ele><time>2026-04-26T08:09:54.887Z</time></trkpt><trkpt lat="44.1287171" lon="8.1123491"><ele>264.0</ele><time>2026-04-26T08:09:56.129Z</time></trkpt><trkpt lat="44.1288251" lon="8.1121361"><ele>259.75</ele><time>2026-04-26T08:09:58.092Z</time></trkpt><trkpt lat="44.1288719" lon="8.1119252"><ele>255.5</ele><time>2026-04-26T08:10:00.023Z</time></trkpt><trkpt lat="44.1288919" lon="8.111828"><ele>251.25</ele><time>2026-04-26T08:10:01.11Z</time></trkpt><trkpt lat="44.1289324" lon="8.1117512"><ele>247.0</ele><time>2026-04-26T08:10:02.156Z</time></trkpt><trkpt lat="44.1290921" lon="8.1116992"><ele>247.0</ele><time>2026-04-26T08:10:04.182Z</time></trkpt><trkpt lat="44.1292962" lon="8.1117637"><ele>247.0</ele><time>2026-04-26T08:10:06.022Z</time></trkpt><trkpt lat="44.1294303" lon="8.1118121"><ele>247.0</ele><time>2026-04-26T08:10:07.167Z</time></trkpt><trkpt lat="44.1295917" lon="8.1118716"><ele>247.0</ele><time>2026-04-26T08:10:08.812Z</time></trkpt><trkpt lat="44.1296851" lon="8.1119116"><ele>247.0</ele><time>2026-04-26T08:10:09.977Z</time></trkpt><trkpt lat="44.129772" lon="8.1119553"><ele>247.0</ele><time>2026-04-26T08:10:11.024Z</time></trkpt><trkpt lat="44.1298481" lon="8.1120242"><ele>247.0</ele><time>2026-04-26T08:10:11.936Z</time></trkpt><trkpt lat="44.12992" lon="8.11213"><ele>247.0</ele><time>2026-04-26T08:10:12.938Z</time></trkpt><trkpt lat="44.1299813" lon="8.1122189"><ele>247.16666666666666</ele><time>2026-04-26T08:10:13.916Z</time></trkpt><trkpt lat="44.1300471" lon="8.112288"><ele>247.33333333333331</ele><time>2026-04-26T08:10:14.964Z</time></trkpt><trkpt lat="44.1301058" lon="8.1123358"><ele>247.5</ele><time>2026-04-26T08:10:15.885Z</time></trkpt><trkpt lat="44.1301791" lon="8.1123723"><ele>247.66666666666669</ele><time>2026-04-26T08:10:16.94Z</time></trkpt><trkpt lat="44.1302466" lon="8.1123743"><ele>247.83333333333334</ele><time>2026-04-26T08:10:17.897Z</time></trkpt><trkpt lat="44.1303166" lon="8.1123487"><ele>248.0</ele><time>2026-04-26T08:10:18.963Z</time></trkpt><trkpt lat="44.1304" lon="8.1123256"><ele>248.0</ele><time>2026-04-26T08:10:19.906Z</time></trkpt><trkpt lat="44.130502" lon="8.1122522"><ele>248.0</ele><time>2026-04-26T08:10:20.936Z</time></trkpt><trkpt lat="44.1306276" lon="8.1121684"><ele>248.0</ele><time>2026-04-26T08:10:22.106Z</time></trkpt><trkpt lat="44.130768" lon="8.1120845"><ele>248.0</ele><time>2026-04-26T08:10:23.089Z</time></trkpt><trkpt lat="44.1308889" lon="8.1120225"><ele>248.75</ele><time>2026-04-26T08:10:24.014Z</time></trkpt><trkpt lat="44.1310224" lon="8.1119403"><ele>249.5</ele><time>2026-04-26T08:10:25.056Z</time></trkpt><trkpt lat="44.1311671" lon="8.1120442"><ele>250.25</ele><time>2026-04-26T08:10:26.911Z</time></trkpt><trkpt lat="44.1312363" lon="8.1120772"><ele>251.0</ele><time>2026-04-26T08:10:27.895Z</time></trkpt><trkpt lat="44.1313349" lon="8.1120631"><ele>251.0</ele><time>2026-04-26T08:10:29.086Z</time></trkpt><trkpt lat="44.1314089" lon="8.1119951"><ele>251.00000000000003</ele><time>2026-04-26T08:10:30.017Z</time></trkpt><trkpt lat="44.1314909" lon="8.111875"><ele>251.00000000000003</ele><time>2026-04-26T08:10:31.107Z</time></trkpt><trkpt lat="44.1315651" lon="8.1117663"><ele>251.0</ele><time>2026-04-26T08:10:32.016Z</time></trkpt><trkpt lat="44.1316607" lon="8.1116468"><ele>251.0</ele><time>2026-04-26T08:10:33.105Z</time></trkpt><trkpt lat="44.1317527" lon="8.1115608"><ele>250.66666666666669</ele><time>2026-04-26T08:10:34.064Z</time></trkpt><trkpt lat="44.1318639" lon="8.111481"><ele>250.33333333333331</ele><time>2026-04-26T08:10:35.14Z</time></trkpt><trkpt lat="44.132101" lon="8.1113852"><ele>250.0</ele><time>2026-04-26T08:10:37.01Z</time></trkpt><trkpt lat="44.1322755" lon="8.1113507"><ele>254.66666666666666</ele><time>2026-04-26T08:10:38.082Z</time></trkpt><trkpt lat="44.1325794" lon="8.1113042"><ele>259.3333333333333</ele><time>2026-04-26T08:10:39.905Z</time></trkpt><trkpt lat="44.1327164" lon="8.1113003"><ele>264.0</ele><time>2026-04-26T08:10:40.913Z</time></trkpt><trkpt lat="44.1328454" lon="8.1113209"><ele>264.0</ele><time>2026-04-26T08:10:41.948Z</time></trkpt><trkpt lat="44.1329947" lon="8.1113688"><ele>264.0</ele><time>2026-04-26T08:10:42.937Z</time></trkpt><trkpt lat="44.1331888" lon="8.1114111"><ele>264.0</ele><time>2026-04-26T08:10:44.005Z</time></trkpt><trkpt lat="44.1333693" lon="8.1114744"><ele>265.25</ele><time>2026-04-26T08:10:44.986Z</time></trkpt><trkpt lat="44.1335224" lon="8.111551"><ele>266.5</ele><time>2026-04-26T08:10:45.957Z</time></trkpt><trkpt lat="44.1336558" lon="8.1116029"><ele>267.75</ele><time>2026-04-26T08:10:46.989Z</time></trkpt><trkpt lat="44.1337575" lon="8.1116169"><ele>269.0</ele><time>2026-04-26T08:10:47.923Z</time></trkpt><trkpt lat="44.1338619" lon="8.1115755"><ele>269.0</ele><time>2026-04-26T08:10:49.001Z</time></trkpt><trkpt lat="44.1339545" lon="8.1114961"><ele>269.0</ele><time>2026-04-26T08:10:50.112Z</time></trkpt><trkpt lat="44.1340233" lon="8.1114062"><ele>269.0</ele><time>2026-04-26T08:10:51.019Z</time></trkpt><trkpt lat="44.1340878" lon="8.1113292"><ele>269.0</ele><time>2026-04-26T08:10:52.101Z</time></trkpt><trkpt lat="44.134203" lon="8.1112635"><ele>269.0</ele><time>2026-04-26T08:10:54.172Z</time></trkpt><trkpt lat="44.1342611" lon="8.1113839"><ele>271.2</ele><time>2026-04-26T08:10:56.051Z</time></trkpt><trkpt lat="44.134198" lon="8.1115058"><ele>273.4</ele><time>2026-04-26T08:10:57.982Z</time></trkpt><trkpt lat="44.13413" lon="8.111545"><ele>275.6</ele><time>2026-04-26T08:10:58.892Z</time></trkpt><trkpt lat="44.1340196" lon="8.1116003"><ele>277.8</ele><time>2026-04-26T08:10:59.984Z</time></trkpt><trkpt lat="44.13391" lon="8.1116558"><ele>280.0</ele><time>2026-04-26T08:11:00.94Z</time></trkpt><trkpt lat="44.1337967" lon="8.1117026"><ele>285.66666666666663</ele><time>2026-04-26T08:11:01.844Z</time></trkpt><trkpt lat="44.1336558" lon="8.111711"><ele>291.3333333333333</ele><time>2026-04-26T08:11:02.928Z</time></trkpt><trkpt lat="44.1334967" lon="8.1116709"><ele>297.0</ele><time>2026-04-26T08:11:03.954Z</time></trkpt><trkpt lat="44.1333462" lon="8.1116438"><ele>296.0</ele><time>2026-04-26T08:11:04.884Z</time></trkpt><trkpt lat="44.1331861" lon="8.1116214"><ele>295.0</ele><time>2026-04-26T08:11:05.903Z</time></trkpt><trkpt lat="44.1330282" lon="8.1115963"><ele>294.0</ele><time>2026-04-26T08:11:06.973Z</time></trkpt><trkpt lat="44.1328777" lon="8.1115901"><ele>294.0</ele><time>2026-04-26T08:11:08.068Z</time></trkpt><trkpt lat="44.1327712" lon="8.1116197"><ele>294.0</ele><time>2026-04-26T08:11:09.002Z</time></trkpt><trkpt lat="44.1326289" lon="8.1116887"><ele>294.0</ele><time>2026-04-26T08:11:10.079Z</time></trkpt><trkpt lat="44.1324971" lon="8.1117804"><ele>294.0</ele><time>2026-04-26T08:11:11.043Z</time></trkpt><trkpt lat="44.1323806" lon="8.1118591"><ele>287.0</ele><time>2026-04-26T08:11:12.042Z</time></trkpt><trkpt lat="44.1322538" lon="8.1119244"><ele>280.0</ele><time>2026-04-26T08:11:13.22Z</time></trkpt><trkpt lat="44.1320767" lon="8.1120183"><ele>273.0</ele><time>2026-04-26T08:11:15.177Z</time></trkpt><trkpt lat="44.1318959" lon="8.1121621"><ele>273.0</ele><time>2026-04-26T08:11:17.067Z</time></trkpt><trkpt lat="44.1318076" lon="8.1122897"><ele>273.0</ele><time>2026-04-26T08:11:18.009Z</time></trkpt><trkpt lat="44.1317002" lon="8.1124888"><ele>273.0</ele><time>2026-04-26T08:11:19.157Z</time></trkpt><trkpt lat="44.1314291" lon="8.1127278"><ele>279.3333333333333</ele><time>2026-04-26T08:11:21.103Z</time></trkpt><trkpt lat="44.1312782" lon="8.1128122"><ele>285.66666666666663</ele><time>2026-04-26T08:11:22.257Z</time></trkpt><trkpt lat="44.1310633" lon="8.1128466"><ele>292.0</ele><time>2026-04-26T08:11:24.188Z</time></trkpt><trkpt lat="44.1307413" lon="8.112783"><ele>291.6</ele><time>2026-04-26T08:11:26.15Z</time></trkpt><trkpt lat="44.1306389" lon="8.1127375"><ele>291.2</ele><time>2026-04-26T08:11:27.108Z</time></trkpt><trkpt lat="44.1305479" lon="8.1127182"><ele>290.8</ele><time>2026-04-26T08:11:28.082Z</time></trkpt><trkpt lat="44.1304635" lon="8.1127261"><ele>290.4</ele><time>2026-04-26T08:11:29.074Z</time></trkpt><trkpt lat="44.1303342" lon="8.1127603"><ele>290.0</ele><time>2026-04-26T08:11:30.982Z</time></trkpt><trkpt lat="44.1302938" lon="8.1129577"><ele>290.0</ele><time>2026-04-26T08:11:32.976Z</time></trkpt><trkpt lat="44.1302381" lon="8.1130606"><ele>290.0</ele><time>2026-04-26T08:11:33.96Z</time></trkpt><trkpt lat="44.1301252" lon="8.1132213"><ele>290.0</ele><time>2026-04-26T08:11:34.928Z</time></trkpt><trkpt lat="44.1300522" lon="8.1132874"><ele>290.0</ele><time>2026-04-26T08:11:35.926Z</time></trkpt><trkpt lat="44.1299484" lon="8.1132625"><ele>290.0</ele><time>2026-04-26T08:11:36.893Z</time></trkpt><trkpt lat="44.1297722" lon="8.113108"><ele>288.75</ele><time>2026-04-26T08:11:37.883Z</time></trkpt><trkpt lat="44.1296324" lon="8.113041"><ele>287.5</ele><time>2026-04-26T08:11:38.884Z</time></trkpt><trkpt lat="44.1295129" lon="8.1129944"><ele>286.25</ele><time>2026-04-26T08:11:39.955Z</time></trkpt><trkpt lat="44.129416" lon="8.1129916"><ele>285.0</ele><time>2026-04-26T08:11:40.957Z</time></trkpt><trkpt lat="44.1293081" lon="8.1130546"><ele>285.0</ele><time>2026-04-26T08:11:42.02Z</time></trkpt><trkpt lat="44.1292063" lon="8.1132069"><ele>285.0</ele><time>2026-04-26T08:11:43.188Z</time></trkpt><trkpt lat="44.1291262" lon="8.1132864"><ele>285.0</ele><time>2026-04-26T08:11:43.965Z</time></trkpt><trkpt lat="44.1290135" lon="8.1133519"><ele>285.0</ele><time>2026-04-26T08:11:45.097Z</time></trkpt><trkpt lat="44.1289109" lon="8.1133406"><ele>289.6666666666667</ele><time>2026-04-26T08:11:46.03Z</time></trkpt><trkpt lat="44.1287912" lon="8.113274"><ele>294.33333333333337</ele><time>2026-04-26T08:11:47.031Z</time></trkpt><trkpt lat="44.1286905" lon="8.1131904"><ele>299.0</ele><time>2026-04-26T08:11:48.027Z</time></trkpt><trkpt lat="44.1284826" lon="8.1131657"><ele>299.0</ele><time>2026-04-26T08:11:50.14Z</time></trkpt><trkpt lat="44.1284135" lon="8.1132598"><ele>299.0</ele><time>2026-04-26T08:11:51.102Z</time></trkpt><trkpt lat="44.1283927" lon="8.1134939"><ele>299.0</ele><time>2026-04-26T08:11:52.992Z</time></trkpt><trkpt lat="44.1284403" lon="8.1135867"><ele>299.0</ele><time>2026-04-26T08:11:53.976Z</time></trkpt><trkpt lat="44.128519" lon="8.1136407"><ele>299.0</ele><time>2026-04-26T08:11:54.955Z</time></trkpt><trkpt lat="44.1286213" lon="8.1136299"><ele>299.0</ele><time>2026-04-26T08:11:55.998Z</time></trkpt><trkpt lat="44.1287147" lon="8.1135798"><ele>299.0</ele><time>2026-04-26T08:11:56.95Z</time></trkpt><trkpt lat="44.1288009" lon="8.1135135"><ele>299.0</ele><time>2026-04-26T08:11:57.955Z</time></trkpt><trkpt lat="44.1288917" lon="8.1135014"><ele>299.0</ele><time>2026-04-26T08:11:58.909Z</time></trkpt><trkpt lat="44.1290059" lon="8.1135075"><ele>299.0</ele><time>2026-04-26T08:11:59.919Z</time></trkpt><trkpt lat="44.1291252" lon="8.1134194"><ele>294.33333333333337</ele><time>2026-04-26T08:12:00.932Z</time></trkpt><trkpt lat="44.1292445" lon="8.113274"><ele>289.6666666666667</ele><time>2026-04-26T08:12:01.981Z</time></trkpt><trkpt lat="44.1293557" lon="8.1131257"><ele>285.0</ele><time>2026-04-26T08:12:03.218Z</time></trkpt><trkpt lat="44.1295348" lon="8.1131266"><ele>285.0</ele><time>2026-04-26T08:12:05.089Z</time></trkpt><trkpt lat="44.1296626" lon="8.1132344"><ele>285.0</ele><time>2026-04-26T08:12:06.085Z</time></trkpt><trkpt lat="44.1297859" lon="8.1133505"><ele>285.0</ele><time>2026-04-26T08:12:07.019Z</time></trkpt><trkpt lat="44.1299263" lon="8.1134688"><ele>300.0</ele><time>2026-04-26T08:12:08.089Z</time></trkpt><trkpt lat="44.1301811" lon="8.1135608"><ele>315.0</ele><time>2026-04-26T08:12:09.884Z</time></trkpt><trkpt lat="44.1303084" lon="8.1135781"><ele>330.0</ele><time>2026-04-26T08:12:10.902Z</time></trkpt><trkpt lat="44.1304306" lon="8.1135372"><ele>330.0</ele><time>2026-04-26T08:12:11.95Z</time></trkpt><trkpt lat="44.1305504" lon="8.1134235"><ele>330.0</ele><time>2026-04-26T08:12:12.991Z</time></trkpt><trkpt lat="44.1306353" lon="8.1133243"><ele>330.0</ele><time>2026-04-26T08:12:13.986Z</time></trkpt><trkpt lat="44.1307357" lon="8.1132829"><ele>330.0</ele><time>2026-04-26T08:12:14.892Z</time></trkpt><trkpt lat="44.1308595" lon="8.1133082"><ele>331.6666666666667</ele><time>2026-04-26T08:12:15.962Z</time></trkpt><trkpt lat="44.1309957" lon="8.1133734"><ele>333.33333333333337</ele><time>2026-04-26T08:12:16.919Z</time></trkpt><trkpt lat="44.1311486" lon="8.113454"><ele>335.0</ele><time>2026-04-26T08:12:17.981Z</time></trkpt><trkpt lat="44.1314331" lon="8.1134813"><ele>337.33333333333337</ele><time>2026-04-26T08:12:19.925Z</time></trkpt><trkpt lat="44.131603" lon="8.1134064"><ele>339.6666666666667</ele><time>2026-04-26T08:12:20.928Z</time></trkpt><trkpt lat="44.1317811" lon="8.1133175"><ele>342.0</ele><time>2026-04-26T08:12:21.929Z</time></trkpt><trkpt lat="44.1319776" lon="8.1132267"><ele>336.0</ele><time>2026-04-26T08:12:23.012Z</time></trkpt><trkpt lat="44.1323145" lon="8.1130047"><ele>330.0</ele><time>2026-04-26T08:12:24.931Z</time></trkpt><trkpt lat="44.1324606" lon="8.1128884"><ele>330.0</ele><time>2026-04-26T08:12:25.968Z</time></trkpt><trkpt lat="44.1325786" lon="8.1127862"><ele>330.0</ele><time>2026-04-26T08:12:26.984Z</time></trkpt><trkpt lat="44.132687" lon="8.1127137"><ele>330.0</ele><time>2026-04-26T08:12:27.985Z</time></trkpt><trkpt lat="44.1328051" lon="8.1126947"><ele>330.0</ele><time>2026-04-26T08:12:29Z</time></trkpt><trkpt lat="44.133052" lon="8.1128178"><ele>330.0</ele><time>2026-04-26T08:12:30.954Z</time></trkpt><trkpt lat="44.1332007" lon="8.1129425"><ele>330.0</ele><time>2026-04-26T08:12:31.993Z</time></trkpt><trkpt lat="44.1333611" lon="8.1130651"><ele>330.0</ele><time>2026-04-26T08:12:33.044Z</time></trkpt><trkpt lat="44.1335094" lon="8.1131516"><ele>330.2</ele><time>2026-04-26T08:12:34.012Z</time></trkpt><trkpt lat="44.1336377" lon="8.11321"><ele>330.4</ele><time>2026-04-26T08:12:35.009Z</time></trkpt><trkpt lat="44.1337381" lon="8.1132605"><ele>330.6</ele><time>2026-04-26T08:12:35.986Z</time></trkpt><trkpt lat="44.1338252" lon="8.113321"><ele>330.8</ele><time>2026-04-26T08:12:37.013Z</time></trkpt><trkpt lat="44.1338791" lon="8.1134034"><ele>331.0</ele><time>2026-04-26T08:12:37.962Z</time></trkpt><trkpt lat="44.1339097" lon="8.1135175"><ele>336.8</ele><time>2026-04-26T08:12:39.037Z</time></trkpt><trkpt lat="44.1339383" lon="8.1136048"><ele>342.6</ele><time>2026-04-26T08:12:39.944Z</time></trkpt><trkpt lat="44.1339331" lon="8.1137092"><ele>348.4</ele><time>2026-04-26T08:12:40.932Z</time></trkpt><trkpt lat="44.1338956" lon="8.1138298"><ele>354.2</ele><time>2026-04-26T08:12:41.993Z</time></trkpt><trkpt lat="44.1337883" lon="8.1138345"><ele>360.0</ele><time>2026-04-26T08:12:43.998Z</time></trkpt><trkpt lat="44.1337125" lon="8.113676"><ele>360.0</ele><time>2026-04-26T08:12:44.935Z</time></trkpt><trkpt lat="44.133682" lon="8.1135265"><ele>360.0</ele><time>2026-04-26T08:12:45.887Z</time></trkpt><trkpt lat="44.1336243" lon="8.1133457"><ele>360.0</ele><time>2026-04-26T08:12:46.982Z</time></trkpt><trkpt lat="44.133504" lon="8.1132269"><ele>360.0</ele><time>2026-04-26T08:12:47.971Z</time></trkpt><trkpt lat="44.1333013" lon="8.113169"><ele>345.0</ele><time>2026-04-26T08:12:49.053Z</time></trkpt><trkpt lat="44.1331079" lon="8.1130895"><ele>330.0</ele><time>2026-04-26T08:12:50.2Z</time></trkpt><trkpt lat="44.1328516" lon="8.1130107"><ele>344.0</ele><time>2026-04-26T08:12:52.132Z</time></trkpt><trkpt lat="44.1326106" lon="8.113291"><ele>358.0</ele><time>2026-04-26T08:12:54.221Z</time></trkpt><trkpt lat="44.1324003" lon="8.1135371"><ele>350.0</ele><time>2026-04-26T08:12:56.033Z</time></trkpt><trkpt lat="44.1321101" lon="8.1137711"><ele>342.0</ele><time>2026-04-26T08:12:57.965Z</time></trkpt><trkpt lat="44.1319618" lon="8.1139378"><ele>351.3333333333333</ele><time>2026-04-26T08:12:59Z</time></trkpt><trkpt lat="44.1318334" lon="8.1140997"><ele>360.66666666666663</ele><time>2026-04-26T08:13:00.049Z</time></trkpt><trkpt lat="44.1316032" lon="8.1143011"><ele>370.0</ele><time>2026-04-26T08:13:01.946Z</time></trkpt><trkpt lat="44.1314722" lon="8.1143426"><ele>370.0</ele><time>2026-04-26T08:13:02.996Z</time></trkpt><trkpt lat="44.1313439" lon="8.1143164"><ele>370.0</ele><time>2026-04-26T08:13:03.909Z</time></trkpt><trkpt lat="44.131198" lon="8.1142519"><ele>370.0</ele><time>2026-04-26T08:13:04.88Z</time></trkpt><trkpt lat="44.1310572" lon="8.114206"><ele>370.0</ele><time>2026-04-26T08:13:05.892Z</time></trkpt><trkpt lat="44.1308999" lon="8.114207"><ele>367.0</ele><time>2026-04-26T08:13:06.987Z</time></trkpt><trkpt lat="44.1305914" lon="8.1143419"><ele>364.0</ele><time>2026-04-26T08:13:08.987Z</time></trkpt><trkpt lat="44.1304419" lon="8.1144189"><ele>364.0</ele><time>2026-04-26T08:13:09.889Z</time></trkpt><trkpt lat="44.1302697" lon="8.1144827"><ele>364.0</ele><time>2026-04-26T08:13:10.954Z</time></trkpt><trkpt lat="44.130119" lon="8.1145052"><ele>364.0</ele><time>2026-04-26T08:13:11.963Z</time></trkpt><trkpt lat="44.129988" lon="8.1145253"><ele>364.0</ele><time>2026-04-26T08:13:13Z</time></trkpt><trkpt lat="44.1298966" lon="8.1145722"><ele>364.0</ele><time>2026-04-26T08:13:13.979Z</time></trkpt><trkpt lat="44.1298331" lon="8.1146623"><ele>364.0</ele><time>2026-04-26T08:13:15.018Z</time></trkpt><trkpt lat="44.1298123" lon="8.1147772"><ele>364.0</ele><time>2026-04-26T08:13:15.993Z</time></trkpt><trkpt lat="44.1298336" lon="8.1149242"><ele>364.0</ele><time>2026-04-26T08:13:17.08Z</time></trkpt><trkpt lat="44.1298973" lon="8.1150405"><ele>368.0</ele><time>2026-04-26T08:13:18.067Z</time></trkpt><trkpt lat="44.1299954" lon="8.1151297"><ele>372.0</ele><time>2026-04-26T08:13:19.174Z</time></trkpt><trkpt lat="44.1300807" lon="8.1151582"><ele>376.0</ele><time>2026-04-26T08:13:20.078Z</time></trkpt><trkpt lat="44.1301638" lon="8.1151325"><ele>380.0</ele><time>2026-04-26T08:13:21.028Z</time></trkpt><trkpt lat="44.1302441" lon="8.1150511"><ele>384.0</ele><time>2026-04-26T08:13:22.109Z</time></trkpt><trkpt lat="44.1303046" lon="8.1149699"><ele>384.0</ele><time>2026-04-26T08:13:23.054Z</time></trkpt><trkpt lat="44.1303961" lon="8.1149051"><ele>384.0</ele><time>2026-04-26T08:13:24.106Z</time></trkpt><trkpt lat="44.1306478" lon="8.1148178"><ele>384.0</ele><time>2026-04-26T08:13:26.214Z</time></trkpt><trkpt lat="44.1308486" lon="8.1145929"><ele>379.3333333333333</ele><time>2026-04-26T08:13:28.206Z</time></trkpt><trkpt lat="44.1311113" lon="8.1146654"><ele>374.66666666666663</ele><time>2026-04-26T08:13:30.107Z</time></trkpt><trkpt lat="44.131224" lon="8.1146578"><ele>370.0</ele><time>2026-04-26T08:13:31.068Z</time></trkpt><trkpt lat="44.1313246" lon="8.1146602"><ele>370.0</ele><time>2026-04-26T08:13:32.127Z</time></trkpt><trkpt lat="44.1314026" lon="8.1146887"><ele>370.0</ele><time>2026-04-26T08:13:33.102Z</time></trkpt><trkpt lat="44.131474" lon="8.114757"><ele>370.0</ele><time>2026-04-26T08:13:34.048Z</time></trkpt><trkpt lat="44.1315187" lon="8.1148339"><ele>370.0</ele><time>2026-04-26T08:13:34.998Z</time></trkpt><trkpt lat="44.1314758" lon="8.1149757"><ele>370.0</ele><time>2026-04-26T08:13:36.064Z</time></trkpt><trkpt lat="44.1312944" lon="8.1151821"><ele>370.0</ele><time>2026-04-26T08:13:38.052Z</time></trkpt><trkpt lat="44.1311604" lon="8.1150965"><ele>370.0</ele><time>2026-04-26T08:13:40.001Z</time></trkpt><trkpt lat="44.131015" lon="8.1149618"><ele>370.0</ele><time>2026-04-26T08:13:41.035Z</time></trkpt><trkpt lat="44.130875" lon="8.1148762"><ele>368.5</ele><time>2026-04-26T08:13:41.94Z</time></trkpt><trkpt lat="44.1307159" lon="8.1148236"><ele>367.0</ele><time>2026-04-26T08:13:43.008Z</time></trkpt><trkpt lat="44.1305975" lon="8.1148171"><ele>365.5</ele><time>2026-04-26T08:13:43.978Z</time></trkpt><trkpt lat="44.1304888" lon="8.1148738"><ele>364.0</ele><time>2026-04-26T08:13:45.086Z</time></trkpt><trkpt lat="44.1304149" lon="8.1149636"><ele>369.0</ele><time>2026-04-26T08:13:46.002Z</time></trkpt><trkpt lat="44.1303579" lon="8.1150963"><ele>374.0</ele><time>2026-04-26T08:13:47.098Z</time></trkpt><trkpt lat="44.1303517" lon="8.1153045"><ele>379.0</ele><time>2026-04-26T08:13:48.889Z</time></trkpt><trkpt lat="44.1304075" lon="8.1154335"><ele>384.0</ele><time>2026-04-26T08:13:50.076Z</time></trkpt><trkpt lat="44.1304821" lon="8.1155314"><ele>384.0</ele><time>2026-04-26T08:13:51Z</time></trkpt><trkpt lat="44.1305282" lon="8.1156679"><ele>384.0</ele><time>2026-04-26T08:13:52.004Z</time></trkpt><trkpt lat="44.1305474" lon="8.1158442"><ele>384.0</ele><time>2026-04-26T08:13:53.026Z</time></trkpt><trkpt lat="44.1305446" lon="8.1160435"><ele>384.0</ele><time>2026-04-26T08:13:54.033Z</time></trkpt><trkpt lat="44.1305685" lon="8.1162393"><ele>385.25</ele><time>2026-04-26T08:13:55.025Z</time></trkpt><trkpt lat="44.1305883" lon="8.1164285"><ele>386.5</ele><time>2026-04-26T08:13:55.989Z</time></trkpt><trkpt lat="44.1306199" lon="8.1166232"><ele>387.75</ele><time>2026-04-26T08:13:57.019Z</time></trkpt><trkpt lat="44.1306767" lon="8.1168015"><ele>389.0</ele><time>2026-04-26T08:13:58.008Z</time></trkpt><trkpt lat="44.1307507" lon="8.1169674"><ele>399.5</ele><time>2026-04-26T08:13:58.938Z</time></trkpt><trkpt lat="44.1308692" lon="8.1172088"><ele>410.0</ele><time>2026-04-26T08:14:00.223Z</time></trkpt><trkpt lat="44.1310667" lon="8.1175499"><ele>410.0</ele><time>2026-04-26T08:14:02.02Z</time></trkpt><trkpt lat="44.1311985" lon="8.1177475"><ele>410.0</ele><time>2026-04-26T08:14:03.122Z</time></trkpt><trkpt lat="44.1313147" lon="8.1179121"><ele>410.0</ele><time>2026-04-26T08:14:04.1Z</time></trkpt><trkpt lat="44.1315696" lon="8.1182139"><ele>413.0</ele><time>2026-04-26T08:14:06.09Z</time></trkpt><trkpt lat="44.1316913" lon="8.1183909"><ele>416.0</ele><time>2026-04-26T08:14:07.109Z</time></trkpt><trkpt lat="44.1317781" lon="8.118576"><ele>419.0</ele><time>2026-04-26T08:14:08.066Z</time></trkpt><trkpt lat="44.1319506" lon="8.1189212"><ele>419.3333333333333</ele><time>2026-04-26T08:14:09.911Z</time></trkpt><trkpt lat="44.1320382" lon="8.1191173"><ele>419.66666666666663</ele><time>2026-04-26T08:14:10.924Z</time></trkpt><trkpt lat="44.1321014" lon="8.1193477"><ele>420.0</ele><time>2026-04-26T08:14:12.05Z</time></trkpt><trkpt lat="44.1321645" lon="8.1197904"><ele>421.66666666666663</ele><time>2026-04-26T08:14:13.942Z</time></trkpt><trkpt lat="44.1321861" lon="8.1200523"><ele>423.3333333333333</ele><time>2026-04-26T08:14:15.007Z</time></trkpt><trkpt lat="44.1322027" lon="8.1202643"><ele>425.0</ele><time>2026-04-26T08:14:15.941Z</time></trkpt><trkpt lat="44.1322282" lon="8.1204752"><ele>426.2</ele><time>2026-04-26T08:14:17.059Z</time></trkpt><trkpt lat="44.1322915" lon="8.1207601"><ele>427.4</ele><time>2026-04-26T08:14:18.95Z</time></trkpt><trkpt lat="44.1323174" lon="8.1208491"><ele>428.6</ele><time>2026-04-26T08:14:19.952Z</time></trkpt><trkpt lat="44.132339" lon="8.1209386"><ele>429.8</ele><time>2026-04-26T08:14:22.025Z</time></trkpt><trkpt lat="44.1323895" lon="8.1210426"><ele>431.0</ele><time>2026-04-26T08:14:23.923Z</time></trkpt><trkpt lat="44.1324289" lon="8.1211488"><ele>431.5</ele><time>2026-04-26T08:14:24.985Z</time></trkpt><trkpt lat="44.1324608" lon="8.1212816"><ele>432.0</ele><time>2026-04-26T08:14:25.98Z</time></trkpt><trkpt lat="44.1324783" lon="8.1215115"><ele>432.5</ele><time>2026-04-26T08:14:27.888Z</time></trkpt><trkpt lat="44.1323856" lon="8.1216264"><ele>433.0</ele><time>2026-04-26T08:14:29.94Z</time></trkpt><trkpt lat="44.1322857" lon="8.1216284"><ele>432.33333333333337</ele><time>2026-04-26T08:14:30.984Z</time></trkpt><trkpt lat="44.1321609" lon="8.1215282"><ele>431.66666666666663</ele><time>2026-04-26T08:14:32.92Z</time></trkpt><trkpt lat="44.1320449" lon="8.1213793"><ele>431.0</ele><time>2026-04-26T08:14:33.954Z</time></trkpt><trkpt lat="44.1319123" lon="8.1212379"><ele>431.0</ele><time>2026-04-26T08:14:35.006Z</time></trkpt><trkpt lat="44.1317848" lon="8.1211114"><ele>431.0</ele><time>2026-04-26T08:14:35.974Z</time></trkpt><trkpt lat="44.1315251" lon="8.120939"><ele>431.0</ele><time>2026-04-26T08:14:37.978Z</time></trkpt><trkpt lat="44.1314292" lon="8.1208631"><ele>436.4</ele><time>2026-04-26T08:14:39.039Z</time></trkpt><trkpt lat="44.1313763" lon="8.1207978"><ele>441.8</ele><time>2026-04-26T08:14:40.065Z</time></trkpt><trkpt lat="44.1313304" lon="8.1207332"><ele>447.19999999999993</ele><time>2026-04-26T08:14:41.017Z</time></trkpt><trkpt lat="44.1313548" lon="8.1204982"><ele>452.59999999999997</ele><time>2026-04-26T08:14:43.047Z</time></trkpt><trkpt lat="44.1313475" lon="8.1203073"><ele>458.0</ele><time>2026-04-26T08:14:44.06Z</time></trkpt><trkpt lat="44.1313249" lon="8.1199955"><ele>447.0</ele><time>2026-04-26T08:14:45.21Z</time></trkpt><trkpt lat="44.1311466" lon="8.1195376"><ele>436.0</ele><time>2026-04-26T08:14:46.989Z</time></trkpt><trkpt lat="44.1310072" lon="8.1193315"><ele>436.0</ele><time>2026-04-26T08:14:48.177Z</time></trkpt><trkpt lat="44.1307701" lon="8.11916"><ele>436.0</ele><time>2026-04-26T08:14:50.037Z</time></trkpt><trkpt lat="44.1305742" lon="8.1191119"><ele>432.25</ele><time>2026-04-26T08:14:51.142Z</time></trkpt><trkpt lat="44.1304218" lon="8.1190515"><ele>428.5</ele><time>2026-04-26T08:14:52.082Z</time></trkpt><trkpt lat="44.1302955" lon="8.1189763"><ele>424.75</ele><time>2026-04-26T08:14:53.018Z</time></trkpt><trkpt lat="44.1302106" lon="8.1188267"><ele>421.0</ele><time>2026-04-26T08:14:54.156Z</time></trkpt><trkpt lat="44.13014" lon="8.1186744"><ele>421.0</ele><time>2026-04-26T08:14:55.269Z</time></trkpt><trkpt lat="44.1299566" lon="8.1186226"><ele>421.0</ele><time>2026-04-26T08:14:57.186Z</time></trkpt><trkpt lat="44.1298767" lon="8.1186973"><ele>421.0</ele><time>2026-04-26T08:14:58.151Z</time></trkpt><trkpt lat="44.1298272" lon="8.1188217"><ele>421.0</ele><time>2026-04-26T08:14:59.081Z</time></trkpt><trkpt lat="44.1298316" lon="8.1190085"><ele>421.6666666666667</ele><time>2026-04-26T08:15:00.404Z</time></trkpt><trkpt lat="44.1298885" lon="8.119075"><ele>422.33333333333337</ele><time>2026-04-26T08:15:01.328Z</time></trkpt><trkpt lat="44.1300976" lon="8.119128"><ele>423.0</ele><time>2026-04-26T08:15:03.221Z</time></trkpt><trkpt lat="44.1303888" lon="8.119205"><ele>427.33333333333337</ele><time>2026-04-26T08:15:05.14Z</time></trkpt><trkpt lat="44.1305324" lon="8.1192611"><ele>431.6666666666667</ele><time>2026-04-26T08:15:06.185Z</time></trkpt><trkpt lat="44.130749" lon="8.1194347"><ele>436.0</ele><time>2026-04-26T08:15:08.207Z</time></trkpt><trkpt lat="44.1308394" lon="8.1195867"><ele>443.33333333333337</ele><time>2026-04-26T08:15:09.192Z</time></trkpt><trkpt lat="44.1309697" lon="8.1199658"><ele>450.66666666666663</ele><time>2026-04-26T08:15:11.154Z</time></trkpt><trkpt lat="44.1310222" lon="8.1201478"><ele>458.0</ele><time>2026-04-26T08:15:12.218Z</time></trkpt><trkpt lat="44.1310037" lon="8.1204771"><ele>458.0</ele><time>2026-04-26T08:15:14.093Z</time></trkpt><trkpt lat="44.1309324" lon="8.1206573"><ele>458.0</ele><time>2026-04-26T08:15:15.079Z</time></trkpt><trkpt lat="44.1307496" lon="8.120961"><ele>458.0</ele><time>2026-04-26T08:15:17.003Z</time></trkpt><trkpt lat="44.130671" lon="8.1210813"><ele>460.59999999999997</ele><time>2026-04-26T08:15:17.981Z</time></trkpt><trkpt lat="44.130617" lon="8.1211932"><ele>463.19999999999993</ele><time>2026-04-26T08:15:18.961Z</time></trkpt><trkpt lat="44.1305914" lon="8.1213228"><ele>465.8</ele><time>2026-04-26T08:15:20.039Z</time></trkpt><trkpt lat="44.13061" lon="8.1214296"><ele>468.4</ele><time>2026-04-26T08:15:20.999Z</time></trkpt><trkpt lat="44.1306621" lon="8.1215161"><ele>471.0</ele><time>2026-04-26T08:15:22.054Z</time></trkpt><trkpt lat="44.1308649" lon="8.1216301"><ele>471.0</ele><time>2026-04-26T08:15:23.942Z</time></trkpt><trkpt lat="44.1310113" lon="8.121686"><ele>471.0</ele><time>2026-04-26T08:15:24.944Z</time></trkpt><trkpt lat="44.1311856" lon="8.1217515"><ele>471.0</ele><time>2026-04-26T08:15:26.044Z</time></trkpt><trkpt lat="44.1313329" lon="8.1218172"><ele>471.0</ele><time>2026-04-26T08:15:26.963Z</time></trkpt><trkpt lat="44.1314723" lon="8.1218922"><ele>471.0</ele><time>2026-04-26T08:15:27.989Z</time></trkpt><trkpt lat="44.131599" lon="8.121975"><ele>471.0</ele><time>2026-04-26T08:15:28.994Z</time></trkpt><trkpt lat="44.1316998" lon="8.1220989"><ele>471.0</ele><time>2026-04-26T08:15:30.085Z</time></trkpt><trkpt lat="44.1317515" lon="8.1222614"><ele>472.66666666666663</ele><time>2026-04-26T08:15:31.048Z</time></trkpt><trkpt lat="44.1317814" lon="8.1224554"><ele>474.3333333333333</ele><time>2026-04-26T08:15:32.05Z</time></trkpt><trkpt lat="44.1318052" lon="8.1226668"><ele>476.0</ele><time>2026-04-26T08:15:33.039Z</time></trkpt><trkpt lat="44.1318315" lon="8.1229346"><ele>484.0</ele><time>2026-04-26T08:15:34.211Z</time></trkpt><trkpt lat="44.1318462" lon="8.1233679"><ele>492.0</ele><time>2026-04-26T08:15:36.071Z</time></trkpt><trkpt lat="44.1318626" lon="8.1237004"><ele>492.0</ele><time>2026-04-26T08:15:37.986Z</time></trkpt><trkpt lat="44.1318784" lon="8.1238256"><ele>492.0</ele><time>2026-04-26T08:15:39.102Z</time></trkpt><trkpt lat="44.1319764" lon="8.1239567"><ele>492.0</ele><time>2026-04-26T08:15:41.195Z</time></trkpt><trkpt lat="44.13216" lon="8.1240074"><ele>492.0</ele><time>2026-04-26T08:15:42.92Z</time></trkpt><trkpt lat="44.132272" lon="8.1240087"><ele>495.25</ele><time>2026-04-26T08:15:43.994Z</time></trkpt><trkpt lat="44.1323725" lon="8.1240721"><ele>498.5</ele><time>2026-04-26T08:15:45.029Z</time></trkpt><trkpt lat="44.1324382" lon="8.1241952"><ele>501.75</ele><time>2026-04-26T08:15:46.104Z</time></trkpt><trkpt lat="44.1325632" lon="8.1244201"><ele>505.0</ele><time>2026-04-26T08:15:48.091Z</time></trkpt><trkpt lat="44.1326956" lon="8.1244884"><ele>504.0</ele><time>2026-04-26T08:15:49.02Z</time></trkpt><trkpt lat="44.1328079" lon="8.124547"><ele>503.0</ele><time>2026-04-26T08:15:50.01Z</time></trkpt><trkpt lat="44.1329148" lon="8.1246568"><ele>502.0</ele><time>2026-04-26T08:15:51.146Z</time></trkpt><trkpt lat="44.1330289" lon="8.1249656"><ele>502.0</ele><time>2026-04-26T08:15:52.959Z</time></trkpt><trkpt lat="44.1331255" lon="8.1251253"><ele>502.0</ele><time>2026-04-26T08:15:54.066Z</time></trkpt><trkpt lat="44.1332415" lon="8.1252368"><ele>502.0</ele><time>2026-04-26T08:15:54.986Z</time></trkpt><trkpt lat="44.1333524" lon="8.1253573"><ele>502.0</ele><time>2026-04-26T08:15:55.985Z</time></trkpt><trkpt lat="44.1334599" lon="8.1254906"><ele>497.25</ele><time>2026-04-26T08:15:57.118Z</time></trkpt><trkpt lat="44.1335312" lon="8.1255841"><ele>492.5</ele><time>2026-04-26T08:15:58.039Z</time></trkpt><trkpt lat="44.1336812" lon="8.1257196"><ele>487.75</ele><time>2026-04-26T08:16:00.008Z</time></trkpt><trkpt lat="44.1337727" lon="8.125702"><ele>483.0</ele><time>2026-04-26T08:16:01.088Z</time></trkpt><trkpt lat="44.1338547" lon="8.1256137"><ele>483.0</ele><time>2026-04-26T08:16:02.09Z</time></trkpt><trkpt lat="44.1339253" lon="8.1255054"><ele>483.0</ele><time>2026-04-26T08:16:03.051Z</time></trkpt><trkpt lat="44.1339435" lon="8.1253433"><ele>483.0</ele><time>2026-04-26T08:16:04.035Z</time></trkpt><trkpt lat="44.1339531" lon="8.1251468"><ele>483.0</ele><time>2026-04-26T08:16:05.021Z</time></trkpt><trkpt lat="44.1339638" lon="8.124922"><ele>478.0</ele><time>2026-04-26T08:16:06.092Z</time></trkpt><trkpt lat="44.1339611" lon="8.1247102"><ele>473.0</ele><time>2026-04-26T08:16:07.099Z</time></trkpt><trkpt lat="44.133882" lon="8.1242682"><ele>473.0</ele><time>2026-04-26T08:16:09.013Z</time></trkpt><trkpt lat="44.1338357" lon="8.124045"><ele>473.0</ele><time>2026-04-26T08:16:10.04Z</time></trkpt><trkpt lat="44.1337997" lon="8.1238513"><ele>473.0</ele><time>2026-04-26T08:16:11.052Z</time></trkpt><trkpt lat="44.133782" lon="8.1236751"><ele>473.0</ele><time>2026-04-26T08:16:12.044Z</time></trkpt><trkpt lat="44.1337954" lon="8.1234943"><ele>473.0</ele><time>2026-04-26T08:16:13.035Z</time></trkpt><trkpt lat="44.133859" lon="8.1232772"><ele>473.0</ele><time>2026-04-26T08:16:14.105Z</time></trkpt><trkpt lat="44.1338917" lon="8.1230879"><ele>473.0</ele><time>2026-04-26T08:16:15.048Z</time></trkpt><trkpt lat="44.1338901" lon="8.1228574"><ele>473.25</ele><time>2026-04-26T08:16:16.158Z</time></trkpt><trkpt lat="44.1338488" lon="8.122721"><ele>473.5</ele><time>2026-04-26T08:16:17.024Z</time></trkpt><trkpt lat="44.1338217" lon="8.122577"><ele>473.75</ele><time>2026-04-26T08:16:17.954Z</time></trkpt><trkpt lat="44.1338279" lon="8.1224138"><ele>474.0</ele><time>2026-04-26T08:16:19.002Z</time></trkpt><trkpt lat="44.1339019" lon="8.1222309"><ele>472.5</ele><time>2026-04-26T08:16:20.115Z</time></trkpt><trkpt lat="44.1339713" lon="8.1220801"><ele>471.0</ele><time>2026-04-26T08:16:21.054Z</time></trkpt><trkpt lat="44.1340449" lon="8.1219501"><ele>469.5</ele><time>2026-04-26T08:16:22.081Z</time></trkpt><trkpt lat="44.1341397" lon="8.12186"><ele>468.0</ele><time>2026-04-26T08:16:23.011Z</time></trkpt><trkpt lat="44.1342502" lon="8.1217988"><ele>475.25</ele><time>2026-04-26T08:16:23.943Z</time></trkpt><trkpt lat="44.1343574" lon="8.1216997"><ele>482.5</ele><time>2026-04-26T08:16:25.122Z</time></trkpt><trkpt lat="44.1344149" lon="8.1216009"><ele>489.75</ele><time>2026-04-26T08:16:26.105Z</time></trkpt><trkpt lat="44.1344341" lon="8.1214359"><ele>497.0</ele><time>2026-04-26T08:16:27.123Z</time></trkpt><trkpt lat="44.1344436" lon="8.1212486"><ele>497.0</ele><time>2026-04-26T08:16:28.105Z</time></trkpt><trkpt lat="44.1344223" lon="8.1210342"><ele>497.0</ele><time>2026-04-26T08:16:29.101Z</time></trkpt><trkpt lat="44.1344197" lon="8.1208083"><ele>497.0</ele><time>2026-04-26T08:16:30.131Z</time></trkpt><trkpt lat="44.1343952" lon="8.1205985"><ele>501.0</ele><time>2026-04-26T08:16:31.052Z</time></trkpt><trkpt lat="44.1343304" lon="8.1203793"><ele>505.0</ele><time>2026-04-26T08:16:32.131Z</time></trkpt><trkpt lat="44.1342237" lon="8.1199974"><ele>505.5</ele><time>2026-04-26T08:16:34.035Z</time></trkpt><trkpt lat="44.1342129" lon="8.1197268"><ele>506.0</ele><time>2026-04-26T08:16:35.16Z</time></trkpt><trkpt lat="44.1341965" lon="8.1193517"><ele>506.0</ele><time>2026-04-26T08:16:37.02Z</time></trkpt><trkpt lat="44.1342014" lon="8.1191788"><ele>506.0</ele><time>2026-04-26T08:16:38.133Z</time></trkpt><trkpt lat="44.1342509" lon="8.1190307"><ele>506.0</ele><time>2026-04-26T08:16:39.103Z</time></trkpt><trkpt lat="44.1343388" lon="8.1188846"><ele>506.0</ele><time>2026-04-26T08:16:40.095Z</time></trkpt><trkpt lat="44.1344062" lon="8.1187459"><ele>506.25</ele><time>2026-04-26T08:16:41.014Z</time></trkpt><trkpt lat="44.1344632" lon="8.1186193"><ele>506.5</ele><time>2026-04-26T08:16:42.065Z</time></trkpt><trkpt lat="44.1345495" lon="8.1185279"><ele>506.75</ele><time>2026-04-26T08:16:43.191Z</time></trkpt><trkpt lat="44.1346555" lon="8.1185101"><ele>507.0</ele><time>2026-04-26T08:16:44.23Z</time></trkpt><trkpt lat="44.1348942" lon="8.1186711"><ele>507.0</ele><time>2026-04-26T08:16:46.07Z</time></trkpt><trkpt lat="44.1352255" lon="8.1188557"><ele>507.0</ele><time>2026-04-26T08:16:48.24Z</time></trkpt><trkpt lat="44.1355096" lon="8.1188866"><ele>507.0</ele><time>2026-04-26T08:16:50.071Z</time></trkpt><trkpt lat="44.1356502" lon="8.1188834"><ele>507.0</ele><time>2026-04-26T08:16:51.095Z</time></trkpt><trkpt lat="44.1358034" lon="8.1188349"><ele>507.0</ele><time>2026-04-26T08:16:52.154Z</time></trkpt><trkpt lat="44.1359309" lon="8.1187503"><ele>507.0</ele><time>2026-04-26T08:16:53.083Z</time></trkpt><trkpt lat="44.1361247" lon="8.1185753"><ele>506.5</ele><time>2026-04-26T08:16:55.15Z</time></trkpt><trkpt lat="44.136224" lon="8.1185472"><ele>506.0</ele><time>2026-04-26T08:16:56.057Z</time></trkpt><trkpt lat="44.1363543" lon="8.1185525"><ele>505.5</ele><time>2026-04-26T08:16:57.17Z</time></trkpt><trkpt lat="44.1364518" lon="8.1186002"><ele>505.0</ele><time>2026-04-26T08:16:58.159Z</time></trkpt><trkpt lat="44.1365702" lon="8.1188171"><ele>521.5</ele><time>2026-04-26T08:17:00.045Z</time></trkpt><trkpt lat="44.1365472" lon="8.1191435"><ele>538.0</ele><time>2026-04-26T08:17:02.021Z</time></trkpt><trkpt lat="44.1364568" lon="8.1194618"><ele>538.0</ele><time>2026-04-26T08:17:03.998Z</time></trkpt><trkpt lat="44.1364529" lon="8.1197826"><ele>538.0</ele><time>2026-04-26T08:17:05.933Z</time></trkpt><trkpt lat="44.1364593" lon="8.1199366"><ele>538.0</ele><time>2026-04-26T08:17:06.964Z</time></trkpt><trkpt lat="44.1364818" lon="8.1201379"><ele>536.6666666666667</ele><time>2026-04-26T08:17:08.894Z</time></trkpt><trkpt lat="44.1366112" lon="8.1202724"><ele>535.3333333333334</ele><time>2026-04-26T08:17:10.957Z</time></trkpt><trkpt lat="44.1367621" lon="8.1202918"><ele>534.0</ele><time>2026-04-26T08:17:11.976Z</time></trkpt><trkpt lat="44.1369138" lon="8.1203166"><ele>534.0</ele><time>2026-04-26T08:17:12.973Z</time></trkpt><trkpt lat="44.1370774" lon="8.1204085"><ele>534.0</ele><time>2026-04-26T08:17:14.058Z</time></trkpt><trkpt lat="44.1372239" lon="8.1204721"><ele>534.0</ele><time>2026-04-26T08:17:15.22Z</time></trkpt><trkpt lat="44.137404" lon="8.12059"><ele>535.8</ele><time>2026-04-26T08:17:17.18Z</time></trkpt><trkpt lat="44.1374911" lon="8.120828"><ele>537.5999999999999</ele><time>2026-04-26T08:17:19.061Z</time></trkpt><trkpt lat="44.1375066" lon="8.1209583"><ele>539.4</ele><time>2026-04-26T08:17:20.094Z</time></trkpt><trkpt lat="44.1375354" lon="8.1210533"><ele>541.1999999999999</ele><time>2026-04-26T08:17:21.03Z</time></trkpt><trkpt lat="44.1376002" lon="8.1211367"><ele>543.0</ele><time>2026-04-26T08:17:22.074Z</time></trkpt><trkpt lat="44.1377927" lon="8.1212202"><ele>543.0</ele><time>2026-04-26T08:17:23.85Z</time></trkpt><trkpt lat="44.1379792" lon="8.1212582"><ele>543.0</ele><time>2026-04-26T08:17:25.13Z</time></trkpt><trkpt lat="44.138105" lon="8.1212737"><ele>543.0</ele><time>2026-04-26T08:17:26.082Z</time></trkpt><trkpt lat="44.1382262" lon="8.1213112"><ele>543.0</ele><time>2026-04-26T08:17:27.151Z</time></trkpt><trkpt lat="44.1383331" lon="8.1213363"><ele>540.25</ele><time>2026-04-26T08:17:28.109Z</time></trkpt><trkpt lat="44.1384396" lon="8.1213013"><ele>537.5</ele><time>2026-04-26T08:17:29.025Z</time></trkpt><trkpt lat="44.1385461" lon="8.1212266"><ele>534.75</ele><time>2026-04-26T08:17:29.998Z</time></trkpt><trkpt lat="44.1386496" lon="8.1211211"><ele>532.0</ele><time>2026-04-26T08:17:31.085Z</time></trkpt><trkpt lat="44.1388764" lon="8.1209999"><ele>526.3333333333334</ele><time>2026-04-26T08:17:33.178Z</time></trkpt><trkpt lat="44.1390768" lon="8.1209185"><ele>520.6666666666666</ele><time>2026-04-26T08:17:35Z</time></trkpt><trkpt lat="44.1391767" lon="8.1207732"><ele>515.0</ele><time>2026-04-26T08:17:36.082Z</time></trkpt><trkpt lat="44.1392505" lon="8.1206339"><ele>515.0</ele><time>2026-04-26T08:17:37.109Z</time></trkpt><trkpt lat="44.139452" lon="8.1204605"><ele>515.0</ele><time>2026-04-26T08:17:39.223Z</time></trkpt><trkpt lat="44.1397026" lon="8.1204081"><ele>524.6666666666666</ele><time>2026-04-26T08:17:41.126Z</time></trkpt><trkpt lat="44.1399381" lon="8.1202379"><ele>534.3333333333334</ele><time>2026-04-26T08:17:43.092Z</time></trkpt><trkpt lat="44.1400168" lon="8.1201211"><ele>544.0</ele><time>2026-04-26T08:17:44.043Z</time></trkpt><trkpt lat="44.1400782" lon="8.1199922"><ele>544.0</ele><time>2026-04-26T08:17:45.049Z</time></trkpt><trkpt lat="44.1401174" lon="8.1198889"><ele>544.0</ele><time>2026-04-26T08:17:45.995Z</time></trkpt><trkpt lat="44.1401823" lon="8.119803"><ele>544.0</ele><time>2026-04-26T08:17:47.169Z</time></trkpt><trkpt lat="44.1403233" lon="8.1198138"><ele>544.0</ele><time>2026-04-26T08:17:49.048Z</time></trkpt><trkpt lat="44.1403822" lon="8.1198996"><ele>544.0</ele><time>2026-04-26T08:17:50.074Z</time></trkpt><trkpt lat="44.1404122" lon="8.1200249"><ele>544.0</ele><time>2026-04-26T08:17:51.227Z</time></trkpt><trkpt lat="44.1403668" lon="8.1202462"><ele>544.0</ele><time>2026-04-26T08:17:52.93Z</time></trkpt><trkpt lat="44.1403378" lon="8.1204172"><ele>544.0</ele><time>2026-04-26T08:17:54.191Z</time></trkpt><trkpt lat="44.1403889" lon="8.1206897"><ele>554.6666666666667</ele><time>2026-04-26T08:17:56.082Z</time></trkpt><trkpt lat="44.1404196" lon="8.1209294"><ele>565.3333333333334</ele><time>2026-04-26T08:17:58.009Z</time></trkpt><trkpt lat="44.1403587" lon="8.1211902"><ele>576.0</ele><time>2026-04-26T08:18:00.007Z</time></trkpt><trkpt lat="44.1403391" lon="8.1213419"><ele>576.0</ele><time>2026-04-26T08:18:00.928Z</time></trkpt><trkpt lat="44.1403126" lon="8.1215278"><ele>576.0</ele><time>2026-04-26T08:18:01.989Z</time></trkpt><trkpt lat="44.1402812" lon="8.1217024"><ele>576.0</ele><time>2026-04-26T08:18:02.993Z</time></trkpt><trkpt lat="44.1402425" lon="8.1220088"><ele>577.8</ele><time>2026-04-26T08:18:04.938Z</time></trkpt><trkpt lat="44.1402255" lon="8.1221496"><ele>579.6</ele><time>2026-04-26T08:18:05.984Z</time></trkpt><trkpt lat="44.1401957" lon="8.1222769"><ele>581.4</ele><time>2026-04-26T08:18:06.939Z</time></trkpt><trkpt lat="44.1401446" lon="8.1224213"><ele>583.2</ele><time>2026-04-26T08:18:07.991Z</time></trkpt><trkpt lat="44.1401067" lon="8.1225685"><ele>585.0</ele><time>2026-04-26T08:18:08.983Z</time></trkpt><trkpt lat="44.140087" lon="8.1227224"><ele>585.0</ele><time>2026-04-26T08:18:09.966Z</time></trkpt><trkpt lat="44.1400661" lon="8.1228833"><ele>585.0</ele><time>2026-04-26T08:18:11.064Z</time></trkpt><trkpt lat="44.1399432" lon="8.1231275"><ele>585.0</ele><time>2026-04-26T08:18:12.988Z</time></trkpt><trkpt lat="44.139833" lon="8.1232093"><ele>590.75</ele><time>2026-04-26T08:18:14.061Z</time></trkpt><trkpt lat="44.1396501" lon="8.1233429"><ele>596.5</ele><time>2026-04-26T08:18:15.963Z</time></trkpt><trkpt lat="44.1395831" lon="8.1234383"><ele>602.25</ele><time>2026-04-26T08:18:16.983Z</time></trkpt><trkpt lat="44.1395382" lon="8.1235601"><ele>608.0</ele><time>2026-04-26T08:18:18.012Z</time></trkpt><trkpt lat="44.1395076" lon="8.1236969"><ele>608.0</ele><time>2026-04-26T08:18:18.945Z</time></trkpt><trkpt lat="44.139496" lon="8.1238423"><ele>608.0</ele><time>2026-04-26T08:18:19.918Z</time></trkpt><trkpt lat="44.1395101" lon="8.1239974"><ele>608.0</ele><time>2026-04-26T08:18:21.006Z</time></trkpt><trkpt lat="44.1395614" lon="8.1241751"><ele>608.0</ele><time>2026-04-26T08:18:22.126Z</time></trkpt><trkpt lat="44.1396205" lon="8.1244819"><ele>606.3333333333333</ele><time>2026-04-26T08:18:24.083Z</time></trkpt><trkpt lat="44.1396056" lon="8.1246587"><ele>604.6666666666666</ele><time>2026-04-26T08:18:25.188Z</time></trkpt><trkpt lat="44.1394696" lon="8.1249145"><ele>603.0</ele><time>2026-04-26T08:18:27.122Z</time></trkpt><trkpt lat="44.1393207" lon="8.1251605"><ele>601.6666666666666</ele><time>2026-04-26T08:18:29.113Z</time></trkpt><trkpt lat="44.1392602" lon="8.125289"><ele>600.3333333333333</ele><time>2026-04-26T08:18:30.054Z</time></trkpt><trkpt lat="44.1391851" lon="8.1254449"><ele>599.0</ele><time>2026-04-26T08:18:31.204Z</time></trkpt><trkpt lat="44.1390914" lon="8.1257218"><ele>596.5</ele><time>2026-04-26T08:18:33.186Z</time></trkpt><trkpt lat="44.1390596" lon="8.1258633"><ele>594.0</ele><time>2026-04-26T08:18:34.126Z</time></trkpt><trkpt lat="44.1390336" lon="8.1259981"><ele>591.5</ele><time>2026-04-26T08:18:35.106Z</time></trkpt><trkpt lat="44.1390121" lon="8.1261429"><ele>589.0</ele><time>2026-04-26T08:18:36.197Z</time></trkpt><trkpt lat="44.1390463" lon="8.1264005"><ele>589.0</ele><time>2026-04-26T08:18:38.104Z</time></trkpt><trkpt lat="44.1390969" lon="8.126518"><ele>589.0</ele><time>2026-04-26T08:18:39.192Z</time></trkpt><trkpt lat="44.1392492" lon="8.1267074"><ele>589.0</ele><time>2026-04-26T08:18:41.117Z</time></trkpt><trkpt lat="44.1393337" lon="8.1268091"><ele>589.0</ele><time>2026-04-26T08:18:42.108Z</time></trkpt><trkpt lat="44.1394614" lon="8.1270675"><ele>589.5</ele><time>2026-04-26T08:18:44.08Z</time></trkpt><trkpt lat="44.1394675" lon="8.1272048"><ele>590.0</ele><time>2026-04-26T08:18:45.082Z</time></trkpt><trkpt lat="44.1394281" lon="8.1274016"><ele>590.5</ele><time>2026-04-26T08:18:46.205Z</time></trkpt><trkpt lat="44.1394064" lon="8.1275439"><ele>591.0</ele><time>2026-04-26T08:18:47.168Z</time></trkpt><trkpt lat="44.1393694" lon="8.1276966"><ele>592.25</ele><time>2026-04-26T08:18:48.192Z</time></trkpt><trkpt lat="44.139317" lon="8.1278243"><ele>593.5</ele><time>2026-04-26T08:18:49.13Z</time></trkpt><trkpt lat="44.1392036" lon="8.1281176"><ele>594.75</ele><time>2026-04-26T08:18:51.169Z</time></trkpt><trkpt lat="44.1391468" lon="8.1282239"><ele>596.0</ele><time>2026-04-26T08:18:52.11Z</time></trkpt><trkpt lat="44.139075" lon="8.1283286"><ele>603.6666666666666</ele><time>2026-04-26T08:18:53.164Z</time></trkpt><trkpt lat="44.1389067" lon="8.1285719"><ele>611.3333333333334</ele><time>2026-04-26T08:18:55.974Z</time></trkpt><trkpt lat="44.13886" lon="8.1286618"><ele>619.0</ele><time>2026-04-26T08:18:57.18Z</time></trkpt><trkpt lat="44.138831" lon="8.1288712"><ele>405.0</ele><time>2026-04-26T08:18:59.125Z</time></trkpt><trkpt lat="44.1298767" lon="8.1186973"><ele>405.0</ele><time>2026-04-26T08:14:58.151Z</time></trkpt><trkpt lat="44.1298272" lon="8.1188217"><ele>405.0</ele><time>2026-04-26T08:14:59.081Z</time></trkpt><trkpt lat="44.1298316" lon="8.1190085"><ele>405.0</ele><time>2026-04-26T08:15:00.404Z</time></trkpt><trkpt lat="44.1298885" lon="8.119075"><ele>405.0</ele><time>2026-04-26T08:15:01.328Z</time></trkpt><trkpt lat="44.1300976" lon="8.119128"><ele>415.33333333333337</ele><time>2026-04-26T08:15:03.221Z</time></trkpt><trkpt lat="44.1303888" lon="8.119205"><ele>425.6666666666667</ele><time>2026-04-26T08:15:05.14Z</time></trkpt><trkpt lat="44.1305324" lon="8.1192611"><ele>436.0</ele><time>2026-04-26T08:15:06.185Z</time></trkpt><trkpt lat="44.130749" lon="8.1194347"><ele>436.0</ele><time>2026-04-26T08:15:08.207Z</time></trkpt><trkpt lat="44.1308394" lon="8.1195867"><ele>436.0</ele><time>2026-04-26T08:15:09.192Z</time></trkpt><trkpt lat="44.1309697" lon="8.1199658"><ele>436.0</ele><time>2026-04-26T08:15:11.154Z</time></trkpt><trkpt lat="44.1310222" lon="8.1201478"><ele>443.33333333333337</ele><time>2026-04-26T08:15:12.218Z</time></trkpt><trkpt lat="44.1310037" lon="8.1204771"><ele>450.66666666666663</ele><time>2026-04-26T08:15:14.093Z</time></trkpt><trkpt lat="44.1309324" lon="8.1206573"><ele>458.0</ele><time>2026-04-26T08:15:15.079Z</time></trkpt><trkpt lat="44.1307496" lon="8.120961"><ele>463.79999999999995</ele><time>2026-04-26T08:15:17.003Z</time></trkpt><trkpt lat="44.130671" lon="8.1210813"><ele>469.59999999999997</ele><time>2026-04-26T08:15:17.981Z</time></trkpt><trkpt lat="44.130617" lon="8.1211932"><ele>475.40000000000003</ele><time>2026-04-26T08:15:18.961Z</time></trkpt><trkpt lat="44.1305914" lon="8.1213228"><ele>481.20000000000005</ele><time>2026-04-26T08:15:20.039Z</time></trkpt><trkpt lat="44.13061" lon="8.1214296"><ele>487.0</ele><time>2026-04-26T08:15:20.999Z</time></trkpt><trkpt lat="44.1306621" lon="8.1215161"><ele>481.6666666666667</ele><time>2026-04-26T08:15:22.054Z</time></trkpt><trkpt lat="44.1308649" lon="8.1216301"><ele>476.33333333333337</ele><time>2026-04-26T08:15:23.942Z</time></trkpt><trkpt lat="44.1310113" lon="8.121686"><ele>471.0</ele><time>2026-04-26T08:15:24.944Z</time></trkpt><trkpt lat="44.1311856" lon="8.1217515"><ele>471.0</ele><time>2026-04-26T08:15:26.044Z</time></trkpt><trkpt lat="44.1313329" lon="8.1218172"><ele>471.0</ele><time>2026-04-26T08:15:26.963Z</time></trkpt><trkpt lat="44.1314723" lon="8.1218922"><ele>471.0</ele><time>2026-04-26T08:15:27.989Z</time></trkpt><trkpt lat="44.131599" lon="8.121975"><ele>471.0</ele><time>2026-04-26T08:15:28.994Z</time></trkpt><trkpt lat="44.1316998" lon="8.1220989"><ele>472.25</ele><time>2026-04-26T08:15:30.085Z</time></trkpt><trkpt lat="44.1317515" lon="8.1222614"><ele>473.5</ele><time>2026-04-26T08:15:31.048Z</time></trkpt><trkpt lat="44.1317814" lon="8.1224554"><ele>474.75</ele><time>2026-04-26T08:15:32.05Z</time></trkpt><trkpt lat="44.1318052" lon="8.1226668"><ele>476.0</ele><time>2026-04-26T08:15:33.039Z</time></trkpt><trkpt lat="44.1318315" lon="8.1229346"><ele>484.0</ele><time>2026-04-26T08:15:34.211Z</time></trkpt><trkpt lat="44.1318462" lon="8.1233679"><ele>492.0</ele><time>2026-04-26T08:15:36.071Z</time></trkpt><trkpt lat="44.1318626" lon="8.1237004"><ele>492.0</ele><time>2026-04-26T08:15:37.986Z</time></trkpt><trkpt lat="44.1318784" lon="8.1238256"><ele>492.0</ele><time>2026-04-26T08:15:39.102Z</time></trkpt><trkpt lat="44.1319764" lon="8.1239567"><ele>492.0</ele><time>2026-04-26T08:15:41.195Z</time></trkpt><trkpt lat="44.13216" lon="8.1240074"><ele>492.0</ele><time>2026-04-26T08:15:42.92Z</time></trkpt><trkpt lat="44.132272" lon="8.1240087"><ele>495.25</ele><time>2026-04-26T08:15:43.994Z</time></trkpt><trkpt lat="44.1323725" lon="8.1240721"><ele>498.5</ele><time>2026-04-26T08:15:45.029Z</time></trkpt><trkpt lat="44.1324382" lon="8.1241952"><ele>501.75</ele><time>2026-04-26T08:15:46.104Z</time></trkpt><trkpt lat="44.1325632" lon="8.1244201"><ele>505.0</ele><time>2026-04-26T08:15:48.091Z</time></trkpt><trkpt lat="44.1326956" lon="8.1244884"><ele>504.0</ele><time>2026-04-26T08:15:49.02Z</time></trkpt><trkpt lat="44.1328079" lon="8.124547"><ele>503.0</ele><time>2026-04-26T08:15:50.01Z</time></trkpt><trkpt lat="44.1329148" lon="8.1246568"><ele>502.0</ele><time>2026-04-26T08:15:51.146Z</time></trkpt><trkpt lat="44.1330289" lon="8.1249656"><ele>502.0</ele><time>2026-04-26T08:15:52.959Z</time></trkpt><trkpt lat="44.1331255" lon="8.1251253"><ele>502.0</ele><time>2026-04-26T08:15:54.066Z</time></trkpt><trkpt lat="44.1332415" lon="8.1252368"><ele>502.0</ele><time>2026-04-26T08:15:54.986Z</time></trkpt><trkpt lat="44.1333524" lon="8.1253573"><ele>502.0</ele><time>2026-04-26T08:15:55.985Z</time></trkpt><trkpt lat="44.1334599" lon="8.1254906"><ele>497.25</ele><time>2026-04-26T08:15:57.118Z</time></trkpt><trkpt lat="44.1335312" lon="8.1255841"><ele>492.5</ele><time>2026-04-26T08:15:58.039Z</time></trkpt><trkpt lat="44.1336812" lon="8.1257196"><ele>487.75</ele><time>2026-04-26T08:16:00.008Z</time></trkpt><trkpt lat="44.1337727" lon="8.125702"><ele>483.0</ele><time>2026-04-26T08:16:01.088Z</time></trkpt><trkpt lat="44.1338547" lon="8.1256137"><ele>483.0</ele><time>2026-04-26T08:16:02.09Z</time></trkpt><trkpt lat="44.1339253" lon="8.1255054"><ele>483.0</ele><time>2026-04-26T08:16:03.051Z</time></trkpt><trkpt lat="44.1339435" lon="8.1253433"><ele>483.0</ele><time>2026-04-26T08:16:04.035Z</time></trkpt><trkpt lat="44.1339531" lon="8.1251468"><ele>483.0</ele><time>2026-04-26T08:16:05.021Z</time></trkpt><trkpt lat="44.1339638" lon="8.124922"><ele>478.0</ele><time>2026-04-26T08:16:06.092Z</time></trkpt><trkpt lat="44.1339611" lon="8.1247102"><ele>473.0</ele><time>2026-04-26T08:16:07.099Z</time></trkpt><trkpt lat="44.133882" lon="8.1242682"><ele>473.0</ele><time>2026-04-26T08:16:09.013Z</time></trkpt><trkpt lat="44.1338357" lon="8.124045"><ele>473.0</ele><time>2026-04-26T08:16:10.04Z</time></trkpt><trkpt lat="44.1337997" lon="8.1238513"><ele>473.0</ele><time>2026-04-26T08:16:11.052Z</time></trkpt><trkpt lat="44.133782" lon="8.1236751"><ele>473.0</ele><time>2026-04-26T08:16:12.044Z</time></trkpt><trkpt lat="44.1337954" lon="8.1234943"><ele>473.0</ele><time>2026-04-26T08:16:13.035Z</time></trkpt><trkpt lat="44.133859" lon="8.1232772"><ele>473.0</ele><time>2026-04-26T08:16:14.105Z</time></trkpt><trkpt lat="44.1338917" lon="8.1230879"><ele>473.0</ele><time>2026-04-26T08:16:15.048Z</time></trkpt><trkpt lat="44.1338901" lon="8.1228574"><ele>473.25</ele><time>2026-04-26T08:16:16.158Z</time></trkpt><trkpt lat="44.1338488" lon="8.122721"><ele>473.5</ele><time>2026-04-26T08:16:17.024Z</time></trkpt><trkpt lat="44.1338217" lon="8.122577"><ele>473.75</ele><time>2026-04-26T08:16:17.954Z</time></trkpt><trkpt lat="44.1338279" lon="8.1224138"><ele>474.0</ele><time>2026-04-26T08:16:19.002Z</time></trkpt><trkpt lat="44.1339019" lon="8.1222309"><ele>472.5</ele><time>2026-04-26T08:16:20.115Z</time></trkpt><trkpt lat="44.1339713" lon="8.1220801"><ele>471.0</ele><time>2026-04-26T08:16:21.054Z</time></trkpt><trkpt lat="44.1340449" lon="8.1219501"><ele>469.5</ele><time>2026-04-26T08:16:22.081Z</time></trkpt><trkpt lat="44.1341397" lon="8.12186"><ele>468.0</ele><time>2026-04-26T08:16:23.011Z</time></trkpt><trkpt lat="44.1342502" lon="8.1217988"><ele>475.25</ele><time>2026-04-26T08:16:23.943Z</time></trkpt><trkpt lat="44.1343574" lon="8.1216997"><ele>482.5</ele><time>2026-04-26T08:16:25.122Z</time></trkpt><trkpt lat="44.1344149" lon="8.1216009"><ele>489.75</ele><time>2026-04-26T08:16:26.105Z</time></trkpt><trkpt lat="44.1344341" lon="8.1214359"><ele>497.0</ele><time>2026-04-26T08:16:27.123Z</time></trkpt><trkpt lat="44.1344436" lon="8.1212486"><ele>497.0</ele><time>2026-04-26T08:16:28.105Z</time></trkpt><trkpt lat="44.1344223" lon="8.1210342"><ele>497.0</ele><time>2026-04-26T08:16:29.101Z</time></trkpt><trkpt lat="44.1344197" lon="8.1208083"><ele>497.0</ele><time>2026-04-26T08:16:30.131Z</time></trkpt><trkpt lat="44.1343952" lon="8.1205985"><ele>501.0</ele><time>2026-04-26T08:16:31.052Z</time></trkpt><trkpt lat="44.1343304" lon="8.1203793"><ele>505.0</ele><time>2026-04-26T08:16:32.131Z</time></trkpt><trkpt lat="44.1342237" lon="8.1199974"><ele>505.5</ele><time>2026-04-26T08:16:34.035Z</time></trkpt><trkpt lat="44.1342129" lon="8.1197268"><ele>506.0</ele><time>2026-04-26T08:16:35.16Z</time></trkpt><trkpt lat="44.1341965" lon="8.1193517"><ele>506.0</ele><time>2026-04-26T08:16:37.02Z</time></trkpt><trkpt lat="44.1342014" lon="8.1191788"><ele>506.0</ele><time>2026-04-26T08:16:38.133Z</time></trkpt><trkpt lat="44.1342509" lon="8.1190307"><ele>506.0</ele><time>2026-04-26T08:16:39.103Z</time></trkpt><trkpt lat="44.1343388" lon="8.1188846"><ele>506.0</ele><time>2026-04-26T08:16:40.095Z</time></trkpt><trkpt lat="44.1344062" lon="8.1187459"><ele>506.25</ele><time>2026-04-26T08:16:41.014Z</time></trkpt><trkpt lat="44.1344632" lon="8.1186193"><ele>506.5</ele><time>2026-04-26T08:16:42.065Z</time></trkpt><trkpt lat="44.1345495" lon="8.1185279"><ele>506.75</ele><time>2026-04-26T08:16:43.191Z</time></trkpt><trkpt lat="44.1346555" lon="8.1185101"><ele>507.0</ele><time>2026-04-26T08:16:44.23Z</time></trkpt><trkpt lat="44.1348942" lon="8.1186711"><ele>507.0</ele><time>2026-04-26T08:16:46.07Z</time></trkpt><trkpt lat="44.1352255" lon="8.1188557"><ele>507.0</ele><time>2026-04-26T08:16:48.24Z</time></trkpt><trkpt lat="44.1355096" lon="8.1188866"><ele>507.0</ele><time>2026-04-26T08:16:50.071Z</time></trkpt><trkpt lat="44.1356502" lon="8.1188834"><ele>507.0</ele><time>2026-04-26T08:16:51.095Z</time></trkpt><trkpt lat="44.1358034" lon="8.1188349"><ele>507.0</ele><time>2026-04-26T08:16:52.154Z</time></trkpt><trkpt lat="44.1359309" lon="8.1187503"><ele>507.0</ele><time>2026-04-26T08:16:53.083Z</time></trkpt><trkpt lat="44.1361247" lon="8.1185753"><ele>506.5</ele><time>2026-04-26T08:16:55.15Z</time></trkpt><trkpt lat="44.136224" lon="8.1185472"><ele>506.0</ele><time>2026-04-26T08:16:56.057Z</time></trkpt><trkpt lat="44.1363543" lon="8.1185525"><ele>505.5</ele><time>2026-04-26T08:16:57.17Z</time></trkpt><trkpt lat="44.1364518" lon="8.1186002"><ele>505.0</ele><time>2026-04-26T08:16:58.159Z</time></trkpt><trkpt lat="44.1365702" lon="8.1188171"><ele>521.5</ele><time>2026-04-26T08:17:00.045Z</time></trkpt><trkpt lat="44.1365472" lon="8.1191435"><ele>538.0</ele><time>2026-04-26T08:17:02.021Z</time></trkpt><trkpt lat="44.1364568" lon="8.1194618"><ele>538.0</ele><time>2026-04-26T08:17:03.998Z</time></trkpt><trkpt lat="44.1364529" lon="8.1197826"><ele>538.0</ele><time>2026-04-26T08:17:05.933Z</time></trkpt><trkpt lat="44.1364593" lon="8.1199366"><ele>538.0</ele><time>2026-04-26T08:17:06.964Z</time></trkpt><trkpt lat="44.1364818" lon="8.1201379"><ele>536.6666666666667</ele><time>2026-04-26T08:17:08.894Z</time></trkpt><trkpt lat="44.1366112" lon="8.1202724"><ele>535.3333333333334</ele><time>2026-04-26T08:17:10.957Z</time></trkpt><trkpt lat="44.1367621" lon="8.1202918"><ele>534.0</ele><time>2026-04-26T08:17:11.976Z</time></trkpt><trkpt lat="44.1369138" lon="8.1203166"><ele>534.0</ele><time>2026-04-26T08:17:12.973Z</time></trkpt><trkpt lat="44.1370774" lon="8.1204085"><ele>534.0</ele><time>2026-04-26T08:17:14.058Z</time></trkpt><trkpt lat="44.1372239" lon="8.1204721"><ele>534.0</ele><time>2026-04-26T08:17:15.22Z</time></trkpt><trkpt lat="44.137404" lon="8.12059"><ele>535.8</ele><time>2026-04-26T08:17:17.18Z</time></trkpt><trkpt lat="44.1374911" lon="8.120828"><ele>537.5999999999999</ele><time>2026-04-26T08:17:19.061Z</time></trkpt><trkpt lat="44.1375066" lon="8.1209583"><ele>539.4</ele><time>2026-04-26T08:17:20.094Z</time></trkpt><trkpt lat="44.1375354" lon="8.1210533"><ele>541.1999999999999</ele><time>2026-04-26T08:17:21.03Z</time></trkpt><trkpt lat="44.1376002" lon="8.1211367"><ele>543.0</ele><time>2026-04-26T08:17:22.074Z</time></trkpt><trkpt lat="44.1377927" lon="8.1212202"><ele>543.0</ele><time>2026-04-26T08:17:23.85Z</time></trkpt><trkpt lat="44.1379792" lon="8.1212582"><ele>543.0</ele><time>2026-04-26T08:17:25.13Z</time></trkpt><trkpt lat="44.138105" lon="8.1212737"><ele>543.0</ele><time>2026-04-26T08:17:26.082Z</time></trkpt><trkpt lat="44.1382262" lon="8.1213112"><ele>543.0</ele><time>2026-04-26T08:17:27.151Z</time></trkpt><trkpt lat="44.1383331" lon="8.1213363"><ele>540.25</ele><time>2026-04-26T08:17:28.109Z</time></trkpt><trkpt lat="44.1384396" lon="8.1213013"><ele>537.5</ele><time>2026-04-26T08:17:29.025Z</time></trkpt><trkpt lat="44.1385461" lon="8.1212266"><ele>534.75</ele><time>2026-04-26T08:17:29.998Z</time></trkpt><trkpt lat="44.1386496" lon="8.1211211"><ele>532.0</ele><time>2026-04-26T08:17:31.085Z</time></trkpt><trkpt lat="44.1388764" lon="8.1209999"><ele>526.3333333333334</ele><time>2026-04-26T08:17:33.178Z</time></trkpt><trkpt lat="44.1390768" lon="8.1209185"><ele>520.6666666666666</ele><time>2026-04-26T08:17:35Z</time></trkpt><trkpt lat="44.1391767" lon="8.1207732"><ele>515.0</ele><time>2026-04-26T08:17:36.082Z</time></trkpt><trkpt lat="44.1392505" lon="8.1206339"><ele>515.0</ele><time>2026-04-26T08:17:37.109Z</time></trkpt><trkpt lat="44.139452" lon="8.1204605"><ele>515.0</ele><time>2026-04-26T08:17:39.223Z</time></trkpt><trkpt lat="44.1397026" lon="8.1204081"><ele>524.6666666666666</ele><time>2026-04-26T08:17:41.126Z</time></trkpt><trkpt lat="44.1399381" lon="8.1202379"><ele>534.3333333333334</ele><time>2026-04-26T08:17:43.092Z</time></trkpt><trkpt lat="44.1400168" lon="8.1201211"><ele>544.0</ele><time>2026-04-26T08:17:44.043Z</time></trkpt><trkpt lat="44.1400782" lon="8.1199922"><ele>544.0</ele><time>2026-04-26T08:17:45.049Z</time></trkpt><trkpt lat="44.1401174" lon="8.1198889"><ele>544.0</ele><time>2026-04-26T08:17:45.995Z</time></trkpt><trkpt lat="44.1401823" lon="8.119803"><ele>544.0</ele><time>2026-04-26T08:17:47.169Z</time></trkpt><trkpt lat="44.1403233" lon="8.1198138"><ele>544.0</ele><time>2026-04-26T08:17:49.048Z</time></trkpt><trkpt lat="44.1403822" lon="8.1198996"><ele>544.0</ele><time>2026-04-26T08:17:50.074Z</time></trkpt><trkpt lat="44.1404122" lon="8.1200249"><ele>544.0</ele><time>2026-04-26T08:17:51.227Z</time></trkpt><trkpt lat="44.1403668" lon="8.1202462"><ele>544.0</ele><time>2026-04-26T08:17:52.93Z</time></trkpt><trkpt lat="44.1403378" lon="8.1204172"><ele>544.0</ele><time>2026-04-26T08:17:54.191Z</time></trkpt><trkpt lat="44.1403889" lon="8.1206897"><ele>554.6666666666667</ele><time>2026-04-26T08:17:56.082Z</time></trkpt><trkpt lat="44.1404196" lon="8.1209294"><ele>565.3333333333334</ele><time>2026-04-26T08:17:58.009Z</time></trkpt><trkpt lat="44.1403587" lon="8.1211902"><ele>576.0</ele><time>2026-04-26T08:18:00.007Z</time></trkpt><trkpt lat="44.1403391" lon="8.1213419"><ele>576.0</ele><time>2026-04-26T08:18:00.928Z</time></trkpt><trkpt lat="44.1403126" lon="8.1215278"><ele>576.0</ele><time>2026-04-26T08:18:01.989Z</time></trkpt><trkpt lat="44.1402812" lon="8.1217024"><ele>576.0</ele><time>2026-04-26T08:18:02.993Z</time></trkpt><trkpt lat="44.1402425" lon="8.1220088"><ele>577.8</ele><time>2026-04-26T08:18:04.938Z</time></trkpt><trkpt lat="44.1402255" lon="8.1221496"><ele>579.6</ele><time>2026-04-26T08:18:05.984Z</time></trkpt><trkpt lat="44.1401957" lon="8.1222769"><ele>581.4</ele><time>2026-04-26T08:18:06.939Z</time></trkpt><trkpt lat="44.1401446" lon="8.1224213"><ele>583.2</ele><time>2026-04-26T08:18:07.991Z</time></trkpt><trkpt lat="44.1401067" lon="8.1225685"><ele>585.0</ele><time>2026-04-26T08:18:08.983Z</time></trkpt><trkpt lat="44.140087" lon="8.1227224"><ele>585.0</ele><time>2026-04-26T08:18:09.966Z</time></trkpt><trkpt lat="44.1400661" lon="8.1228833"><ele>585.0</ele><time>2026-04-26T08:18:11.064Z</time></trkpt><trkpt lat="44.1399432" lon="8.1231275"><ele>585.0</ele><time>2026-04-26T08:18:12.988Z</time></trkpt><trkpt lat="44.139833" lon="8.1232093"><ele>590.75</ele><time>2026-04-26T08:18:14.061Z</time></trkpt><trkpt lat="44.1396501" lon="8.1233429"><ele>596.5</ele><time>2026-04-26T08:18:15.963Z</time></trkpt><trkpt lat="44.1395831" lon="8.1234383"><ele>602.25</ele><time>2026-04-26T08:18:16.983Z</time></trkpt><trkpt lat="44.1395382" lon="8.1235601"><ele>608.0</ele><time>2026-04-26T08:18:18.012Z</time></trkpt><trkpt lat="44.1395076" lon="8.1236969"><ele>608.0</ele><time>2026-04-26T08:18:18.945Z</time></trkpt><trkpt lat="44.139496" lon="8.1238423"><ele>608.0</ele><time>2026-04-26T08:18:19.918Z</time></trkpt><trkpt lat="44.1395101" lon="8.1239974"><ele>608.0</ele><time>2026-04-26T08:18:21.006Z</time></trkpt><trkpt lat="44.1395614" lon="8.1241751"><ele>608.0</ele><time>2026-04-26T08:18:22.126Z</time></trkpt><trkpt lat="44.1396205" lon="8.1244819"><ele>606.3333333333333</ele><time>2026-04-26T08:18:24.083Z</time></trkpt><trkpt lat="44.1396056" lon="8.1246587"><ele>604.6666666666666</ele><time>2026-04-26T08:18:25.188Z</time></trkpt><trkpt lat="44.1394696" lon="8.1249145"><ele>603.0</ele><time>2026-04-26T08:18:27.122Z</time></trkpt><trkpt lat="44.1393207" lon="8.1251605"><ele>601.6666666666666</ele><time>2026-04-26T08:18:29.113Z</time></trkpt><trkpt lat="44.1392602" lon="8.125289"><ele>600.3333333333333</ele><time>2026-04-26T08:18:30.054Z</time></trkpt><trkpt lat="44.1391851" lon="8.1254449"><ele>599.0</ele><time>2026-04-26T08:18:31.204Z</time></trkpt><trkpt lat="44.1390914" lon="8.1257218"><ele>596.5</ele><time>2026-04-26T08:18:33.186Z</time></trkpt><trkpt lat="44.1390596" lon="8.1258633"><ele>594.0</ele><time>2026-04-26T08:18:34.126Z</time></trkpt><trkpt lat="44.1390336" lon="8.1259981"><ele>591.5</ele><time>2026-04-26T08:18:35.106Z</time></trkpt><trkpt lat="44.1390121" lon="8.1261429"><ele>589.0</ele><time>2026-04-26T08:18:36.197Z</time></trkpt><trkpt lat="44.1390463" lon="8.1264005"><ele>589.0</ele><time>2026-04-26T08:18:38.104Z</time></trkpt><trkpt lat="44.1390969" lon="8.126518"><ele>589.0</ele><time>2026-04-26T08:18:39.192Z</time></trkpt><trkpt lat="44.1392492" lon="8.1267074"><ele>589.0</ele><time>2026-04-26T08:18:41.117Z</time></trkpt><trkpt lat="44.1393337" lon="8.1268091"><ele>589.0</ele><time>2026-04-26T08:18:42.108Z</time></trkpt><trkpt lat="44.1394614" lon="8.1270675"><ele>589.5</ele><time>2026-04-26T08:18:44.08Z</time></trkpt><trkpt lat="44.1394675" lon="8.1272048"><ele>590.0</ele><time>2026-04-26T08:18:45.082Z</time></trkpt><trkpt lat="44.1394281" lon="8.1274016"><ele>590.5</ele><time>2026-04-26T08:18:46.205Z</time></trkpt><trkpt lat="44.1394064" lon="8.1275439"><ele>591.0</ele><time>2026-04-26T08:18:47.168Z</time></trkpt><trkpt lat="44.1393694" lon="8.1276966"><ele>592.25</ele><time>2026-04-26T08:18:48.192Z</time></trkpt><trkpt lat="44.139317" lon="8.1278243"><ele>593.5</ele><time>2026-04-26T08:18:49.13Z</time></trkpt><trkpt lat="44.1392036" lon="8.1281176"><ele>594.75</ele><time>2026-04-26T08:18:51.169Z</time></trkpt><trkpt lat="44.1391468" lon="8.1282239"><ele>596.0</ele><time>2026-04-26T08:18:52.11Z</time></trkpt><trkpt lat="44.139075" lon="8.1283286"><ele>603.6666666666666</ele><time>2026-04-26T08:18:53.164Z</time></trkpt><trkpt lat="44.1389067" lon="8.1285719"><ele>611.3333333333334</ele><time>2026-04-26T08:18:55.974Z</time></trkpt><trkpt lat="44.13886" lon="8.1286618"><ele>619.0</ele><time>2026-04-26T08:18:57.18Z</time></trkpt><trkpt lat="44.138831" lon="8.1288712"><ele>620.0</ele><time>2026-04-26T08:18:59.125Z</time></trkpt><trkpt lat="44.13894" lon="8.1290918"><ele>621.0</ele><time>2026-04-26T08:19:01.161Z</time></trkpt><trkpt lat="44.1391279" lon="8.1292511"><ele>622.0</ele><time>2026-04-26T08:19:03.146Z</time></trkpt><trkpt lat="44.13935" lon="8.1293458"><ele>617.0</ele><time>2026-04-26T08:19:05.2Z</time></trkpt><trkpt lat="44.1395847" lon="8.1293211"><ele>612.0</ele><time>2026-04-26T08:19:07.121Z</time></trkpt><trkpt lat="44.1397065" lon="8.1292753"><ele>607.0</ele><time>2026-04-26T08:19:08.309Z</time></trkpt><trkpt lat="44.1398481" lon="8.1291874"><ele>606.25</ele><time>2026-04-26T08:19:10.08Z</time></trkpt><trkpt lat="44.1399509" lon="8.1291364"><ele>605.5</ele><time>2026-04-26T08:19:11.42Z</time></trkpt><trkpt lat="44.1400733" lon="8.1292142"><ele>604.75</ele><time>2026-04-26T08:19:13.175Z</time></trkpt><trkpt lat="44.1401457" lon="8.1294602"><ele>604.0</ele><time>2026-04-26T08:19:15.255Z</time></trkpt><trkpt lat="44.1402573" lon="8.1296799"><ele>604.0</ele><time>2026-04-26T08:19:17.158Z</time></trkpt><trkpt lat="44.1403531" lon="8.129751"><ele>604.0</ele><time>2026-04-26T08:19:18.137Z</time></trkpt><trkpt lat="44.1404763" lon="8.1297679"><ele>604.0</ele><time>2026-04-26T08:19:19.223Z</time></trkpt><trkpt lat="44.1407101" lon="8.1297053"><ele>604.3333333333334</ele><time>2026-04-26T08:19:21.157Z</time></trkpt><trkpt lat="44.1408378" lon="8.1296508"><ele>604.6666666666666</ele><time>2026-04-26T08:19:22.3Z</time></trkpt><trkpt lat="44.141061" lon="8.1295553"><ele>605.0</ele><time>2026-04-26T08:19:24.325Z</time></trkpt><trkpt lat="44.141222" lon="8.1293838"><ele>605.0</ele><time>2026-04-26T08:19:26.085Z</time></trkpt><trkpt lat="44.1413054" lon="8.1292266"><ele>605.0</ele><time>2026-04-26T08:19:27.284Z</time></trkpt><trkpt lat="44.1413893" lon="8.1289874"><ele>605.0</ele><time>2026-04-26T08:19:29.165Z</time></trkpt><trkpt lat="44.1415065" lon="8.1288163"><ele>605.3333333333333</ele><time>2026-04-26T08:19:31.023Z</time></trkpt><trkpt lat="44.1415934" lon="8.1287567"><ele>605.6666666666666</ele><time>2026-04-26T08:19:32.244Z</time></trkpt><trkpt lat="44.1418118" lon="8.1288367"><ele>606.0</ele><time>2026-04-26T08:19:34.275Z</time></trkpt><trkpt lat="44.1419933" lon="8.1289643"><ele>610.3333333333334</ele><time>2026-04-26T08:19:36.233Z</time></trkpt><trkpt lat="44.1421244" lon="8.1292279"><ele>614.6666666666667</ele><time>2026-04-26T08:19:38.376Z</time></trkpt><trkpt lat="44.1422165" lon="8.1293989"><ele>619.0</ele><time>2026-04-26T08:19:40.282Z</time></trkpt><trkpt lat="44.142375" lon="8.1294841"><ele>619.5</ele><time>2026-04-26T08:19:42.294Z</time></trkpt><trkpt lat="44.1425485" lon="8.1294047"><ele>620.0</ele><time>2026-04-26T08:19:44.246Z</time></trkpt><trkpt lat="44.1426387" lon="8.1293568"><ele>620.5</ele><time>2026-04-26T08:19:45.274Z</time></trkpt><trkpt lat="44.1427266" lon="8.129349"><ele>621.0</ele><time>2026-04-26T08:19:46.254Z</time></trkpt><trkpt lat="44.1429158" lon="8.1294068"><ele>621.0</ele><time>2026-04-26T08:19:48.231Z</time></trkpt><trkpt lat="44.14301" lon="8.1295611"><ele>621.0</ele><time>2026-04-26T08:19:49.25Z</time></trkpt><trkpt lat="44.1431574" lon="8.1297029"><ele>621.0</ele><time>2026-04-26T08:19:51.277Z</time></trkpt><trkpt lat="44.1432873" lon="8.1297464"><ele>621.0</ele><time>2026-04-26T08:19:52.3Z</time></trkpt><trkpt lat="44.1435255" lon="8.1297097"><ele>621.0</ele><time>2026-04-26T08:19:54.215Z</time></trkpt><trkpt lat="44.1436389" lon="8.1297436"><ele>621.0</ele><time>2026-04-26T08:19:55.161Z</time></trkpt><trkpt lat="44.1437425" lon="8.1297905"><ele>621.0</ele><time>2026-04-26T08:19:56.196Z</time></trkpt><trkpt lat="44.1438345" lon="8.1298283"><ele>621.0</ele><time>2026-04-26T08:19:57.187Z</time></trkpt><trkpt lat="44.1440341" lon="8.1298668"><ele>621.0</ele><time>2026-04-26T08:19:59.218Z</time></trkpt><trkpt lat="44.1443235" lon="8.1297113"><ele>620.25</ele><time>2026-04-26T08:20:01.37Z</time></trkpt><trkpt lat="44.1443989" lon="8.1296608"><ele>619.5</ele><time>2026-04-26T08:20:02.014Z</time></trkpt><trkpt lat="44.1445403" lon="8.1296221"><ele>618.75</ele><time>2026-04-26T08:20:03.263Z</time></trkpt><trkpt lat="44.1446356" lon="8.1296607"><ele>618.0</ele><time>2026-04-26T08:20:04.258Z</time></trkpt><trkpt lat="44.1448568" lon="8.1298969"><ele>624.6666666666666</ele><time>2026-04-26T08:20:06.074Z</time></trkpt><trkpt lat="44.1449738" lon="8.1300486"><ele>631.3333333333333</ele><time>2026-04-26T08:20:07.113Z</time></trkpt><trkpt lat="44.1450973" lon="8.1301852"><ele>638.0</ele><time>2026-04-26T08:20:08.152Z</time></trkpt><trkpt lat="44.1452747" lon="8.130289"><ele>638.0</ele><time>2026-04-26T08:20:10.309Z</time></trkpt><trkpt lat="44.1454426" lon="8.1302098"><ele>638.0</ele><time>2026-04-26T08:20:12.066Z</time></trkpt><trkpt lat="44.145509" lon="8.1300922"><ele>638.0</ele><time>2026-04-26T08:20:13.174Z</time></trkpt><trkpt lat="44.1455227" lon="8.1299521"><ele>638.0</ele><time>2026-04-26T08:20:14.133Z</time></trkpt><trkpt lat="44.1455018" lon="8.129611"><ele>636.3333333333333</ele><time>2026-04-26T08:20:16.127Z</time></trkpt><trkpt lat="44.1455415" lon="8.1294394"><ele>634.6666666666666</ele><time>2026-04-26T08:20:17.094Z</time></trkpt><trkpt lat="44.1457316" lon="8.1291391"><ele>633.0</ele><time>2026-04-26T08:20:19.028Z</time></trkpt><trkpt lat="44.1458959" lon="8.1289931"><ele>633.0</ele><time>2026-04-26T08:20:20.217Z</time></trkpt><trkpt lat="44.1461777" lon="8.1287646"><ele>633.0</ele><time>2026-04-26T08:20:22.307Z</time></trkpt><trkpt lat="44.1463868" lon="8.128499"><ele>633.0</ele><time>2026-04-26T08:20:24.119Z</time></trkpt><trkpt lat="44.1464724" lon="8.1283215"><ele>633.0</ele><time>2026-04-26T08:20:25.04Z</time></trkpt><trkpt lat="44.146585" lon="8.1280658"><ele>633.0</ele><time>2026-04-26T08:20:26.217Z</time></trkpt><trkpt lat="44.1467877" lon="8.1276656"><ele>638.5</ele><time>2026-04-26T08:20:28.198Z</time></trkpt><trkpt lat="44.1469922" lon="8.1273248"><ele>644.0</ele><time>2026-04-26T08:20:30.102Z</time></trkpt><trkpt lat="44.1471298" lon="8.1271039"><ele>644.0</ele><time>2026-04-26T08:20:31.33Z</time></trkpt><trkpt lat="44.1473288" lon="8.1267698"><ele>644.0</ele><time>2026-04-26T08:20:33.259Z</time></trkpt><trkpt lat="44.1475112" lon="8.1264607"><ele>647.6666666666666</ele><time>2026-04-26T08:20:35.328Z</time></trkpt><trkpt lat="44.1475692" lon="8.1263423"><ele>651.3333333333334</ele><time>2026-04-26T08:20:36.264Z</time></trkpt><trkpt lat="44.1475928" lon="8.1260256"><ele>655.0</ele><time>2026-04-26T08:20:38.162Z</time></trkpt><trkpt lat="44.1475438" lon="8.1256033"><ele>655.0</ele><time>2026-04-26T08:20:40.188Z</time></trkpt><trkpt lat="44.1475214" lon="8.1254096"><ele>655.0</ele><time>2026-04-26T08:20:41.333Z</time></trkpt><trkpt lat="44.1475353" lon="8.125127"><ele>655.0</ele><time>2026-04-26T08:20:43.237Z</time></trkpt><trkpt lat="44.1477089" lon="8.1248637"><ele>655.5</ele><time>2026-04-26T08:20:45.218Z</time></trkpt><trkpt lat="44.1478206" lon="8.1246181"><ele>656.0</ele><time>2026-04-26T08:20:47.286Z</time></trkpt><trkpt lat="44.1478015" lon="8.1242485"><ele>657.5</ele><time>2026-04-26T08:20:49.26Z</time></trkpt><trkpt lat="44.1477592" lon="8.1239497"><ele>659.0</ele><time>2026-04-26T08:20:51.184Z</time></trkpt><trkpt lat="44.1478388" lon="8.1236465"><ele>659.0</ele><time>2026-04-26T08:20:53.303Z</time></trkpt><trkpt lat="44.1480439" lon="8.1234742"><ele>659.0</ele><time>2026-04-26T08:20:55.255Z</time></trkpt><trkpt lat="44.1482244" lon="8.1233598"><ele>659.0</ele><time>2026-04-26T08:20:57.235Z</time></trkpt><trkpt lat="44.1483113" lon="8.1233775"><ele>660.6666666666666</ele><time>2026-04-26T08:20:58.136Z</time></trkpt><trkpt lat="44.1484133" lon="8.1234732"><ele>662.3333333333334</ele><time>2026-04-26T08:20:59.142Z</time></trkpt><trkpt lat="44.1484799" lon="8.1236144"><ele>664.0</ele><time>2026-04-26T08:21:00.188Z</time></trkpt><trkpt lat="44.1485662" lon="8.1239441"><ele>666.5</ele><time>2026-04-26T08:21:02.399Z</time></trkpt><trkpt lat="44.1484167" lon="8.1243243"><ele>669.0</ele><time>2026-04-26T08:21:04.23Z</time></trkpt><trkpt lat="44.1483296" lon="8.1247656"><ele>669.6666666666666</ele><time>2026-04-26T08:21:06.25Z</time></trkpt><trkpt lat="44.1483198" lon="8.1249482"><ele>670.3333333333333</ele><time>2026-04-26T08:21:07.155Z</time></trkpt><trkpt lat="44.148317" lon="8.1251414"><ele>671.0</ele><time>2026-04-26T08:21:08.12Z</time></trkpt><trkpt lat="44.1483493" lon="8.125388"><ele>672.0</ele><time>2026-04-26T08:21:09.259Z</time></trkpt><trkpt lat="44.1484317" lon="8.1258355"><ele>673.0</ele><time>2026-04-26T08:21:11.362Z</time></trkpt><trkpt lat="44.148438" lon="8.1262897"><ele>673.5</ele><time>2026-04-26T08:21:13.153Z</time></trkpt><trkpt lat="44.148476" lon="8.1267463"><ele>674.0</ele><time>2026-04-26T08:21:15.204Z</time></trkpt><trkpt lat="44.1483852" lon="8.127173"><ele>674.0</ele><time>2026-04-26T08:21:17.15Z</time></trkpt><trkpt lat="44.148333" lon="8.1273507"><ele>674.0</ele><time>2026-04-26T08:21:18.084Z</time></trkpt><trkpt lat="44.1482821" lon="8.1275009"><ele>674.0</ele><time>2026-04-26T08:21:19.021Z</time></trkpt><trkpt lat="44.1481912" lon="8.1276509"><ele>674.0</ele><time>2026-04-26T08:21:20.226Z</time></trkpt><trkpt lat="44.1479806" lon="8.1277493"><ele>670.5</ele><time>2026-04-26T08:21:22.238Z</time></trkpt><trkpt lat="44.1477907" lon="8.1279034"><ele>667.0</ele><time>2026-04-26T08:21:24.261Z</time></trkpt><trkpt lat="44.1476587" lon="8.1282259"><ele>672.6666666666667</ele><time>2026-04-26T08:21:26.115Z</time></trkpt><trkpt lat="44.1475871" lon="8.1284088"><ele>678.3333333333334</ele><time>2026-04-26T08:21:27.139Z</time></trkpt><trkpt lat="44.1475213" lon="8.1285754"><ele>684.0</ele><time>2026-04-26T08:21:28.076Z</time></trkpt><trkpt lat="44.1474429" lon="8.1287843"><ele>680.3333333333334</ele><time>2026-04-26T08:21:29.155Z</time></trkpt><trkpt lat="44.1473069" lon="8.1291174"><ele>676.6666666666667</ele><time>2026-04-26T08:21:31.133Z</time></trkpt><trkpt lat="44.1472412" lon="8.1292818"><ele>673.0</ele><time>2026-04-26T08:21:32.33Z</time></trkpt><trkpt lat="44.1472244" lon="8.129534"><ele>673.0</ele><time>2026-04-26T08:21:34.219Z</time></trkpt><trkpt lat="44.1472691" lon="8.1297015"><ele>673.0</ele><time>2026-04-26T08:21:35.278Z</time></trkpt><trkpt lat="44.1473124" lon="8.1298764"><ele>673.0</ele><time>2026-04-26T08:21:36.198Z</time></trkpt><trkpt lat="44.1473036" lon="8.1303042"><ele>679.0</ele><time>2026-04-26T08:21:38.229Z</time></trkpt><trkpt lat="44.1472527" lon="8.1308131"><ele>685.0</ele><time>2026-04-26T08:21:40.195Z</time></trkpt><trkpt lat="44.1472084" lon="8.131306"><ele>685.0</ele><time>2026-04-26T08:21:42.072Z</time></trkpt><trkpt lat="44.1471882" lon="8.1315514"><ele>685.0</ele><time>2026-04-26T08:21:43.153Z</time></trkpt><trkpt lat="44.147164" lon="8.131756"><ele>685.0</ele><time>2026-04-26T08:21:44.314Z</time></trkpt><trkpt lat="44.147084" lon="8.1320738"><ele>688.0</ele><time>2026-04-26T08:21:46.158Z</time></trkpt><trkpt lat="44.1469965" lon="8.1322328"><ele>691.0</ele><time>2026-04-26T08:21:47.166Z</time></trkpt><trkpt lat="44.1468871" lon="8.1323874"><ele>694.0</ele><time>2026-04-26T08:21:48.249Z</time></trkpt><trkpt lat="44.1467303" lon="8.1326236"><ele>695.75</ele><time>2026-04-26T08:21:50.271Z</time></trkpt><trkpt lat="44.1466849" lon="8.1327386"><ele>697.5</ele><time>2026-04-26T08:21:51.267Z</time></trkpt><trkpt lat="44.1466783" lon="8.132959"><ele>699.25</ele><time>2026-04-26T08:21:53.222Z</time></trkpt><trkpt lat="44.1467795" lon="8.1331612"><ele>701.0</ele><time>2026-04-26T08:21:54.962Z</time></trkpt><trkpt lat="44.1468614" lon="8.1332129"><ele>701.0</ele><time>2026-04-26T08:21:56.082Z</time></trkpt><trkpt lat="44.1469514" lon="8.1332263"><ele>701.0</ele><time>2026-04-26T08:21:57.033Z</time></trkpt><trkpt lat="44.1470956" lon="8.1330359"><ele>701.0</ele><time>2026-04-26T08:21:58.969Z</time></trkpt><trkpt lat="44.1472255" lon="8.1328583"><ele>701.0</ele><time>2026-04-26T08:21:59.893Z</time></trkpt><trkpt lat="44.1473277" lon="8.1326848"><ele>701.0</ele><time>2026-04-26T08:22:00.983Z</time></trkpt><trkpt lat="44.1474169" lon="8.1325149"><ele>701.0</ele><time>2026-04-26T08:22:02.059Z</time></trkpt><trkpt lat="44.1474962" lon="8.1323459"><ele>709.5</ele><time>2026-04-26T08:22:03.098Z</time></trkpt><trkpt lat="44.1475843" lon="8.1320201"><ele>718.0</ele><time>2026-04-26T08:22:04.89Z</time></trkpt><trkpt lat="44.1476443" lon="8.13171"><ele>713.0</ele><time>2026-04-26T08:22:06.196Z</time></trkpt><trkpt lat="44.147753" lon="8.1312257"><ele>708.0</ele><time>2026-04-26T08:22:08.057Z</time></trkpt><trkpt lat="44.1478177" lon="8.1309805"><ele>708.0</ele><time>2026-04-26T08:22:08.992Z</time></trkpt><trkpt lat="44.1479038" lon="8.1307472"><ele>708.0</ele><time>2026-04-26T08:22:10.062Z</time></trkpt><trkpt lat="44.1479986" lon="8.1305079"><ele>708.0</ele><time>2026-04-26T08:22:11.229Z</time></trkpt><trkpt lat="44.1482146" lon="8.1301474"><ele>710.0</ele><time>2026-04-26T08:22:13.082Z</time></trkpt><trkpt lat="44.1485206" lon="8.1297709"><ele>712.0</ele><time>2026-04-26T08:22:15.063Z</time></trkpt><trkpt lat="44.1487089" lon="8.1295303"><ele>712.0</ele><time>2026-04-26T08:22:16.191Z</time></trkpt><trkpt lat="44.1490251" lon="8.1291637"><ele>712.0</ele><time>2026-04-26T08:22:18.048Z</time></trkpt><trkpt lat="44.1491894" lon="8.1289522"><ele>714.0</ele><time>2026-04-26T08:22:19.218Z</time></trkpt><trkpt lat="44.1494789" lon="8.1286557"><ele>716.0</ele><time>2026-04-26T08:22:21.19Z</time></trkpt><trkpt lat="44.1496371" lon="8.1285599"><ele>716.0</ele><time>2026-04-26T08:22:22.106Z</time></trkpt><trkpt lat="44.1498473" lon="8.1284374"><ele>716.0</ele><time>2026-04-26T08:22:23.391Z</time></trkpt><trkpt lat="44.1500798" lon="8.1283071"><ele>720.3333333333333</ele><time>2026-04-26T08:22:25.194Z</time></trkpt><trkpt lat="44.1501955" lon="8.128268"><ele>724.6666666666666</ele><time>2026-04-26T08:22:26.197Z</time></trkpt><trkpt lat="44.1504072" lon="8.1283535"><ele>729.0</ele><time>2026-04-26T08:22:28.23Z</time></trkpt><trkpt lat="44.1505782" lon="8.1285925"><ele>729.0</ele><time>2026-04-26T08:22:30.144Z</time></trkpt><trkpt lat="44.1506643" lon="8.128756"><ele>729.0</ele><time>2026-04-26T08:22:31.058Z</time></trkpt><trkpt lat="44.1507747" lon="8.128945"><ele>729.0</ele><time>2026-04-26T08:22:32.13Z</time></trkpt><trkpt lat="44.1508773" lon="8.1291156"><ele>734.6666666666666</ele><time>2026-04-26T08:22:33.034Z</time></trkpt><trkpt lat="44.151016" lon="8.1292983"><ele>740.3333333333333</ele><time>2026-04-26T08:22:34.045Z</time></trkpt><trkpt lat="44.1512108" lon="8.1295173"><ele>746.0</ele><time>2026-04-26T08:22:35.337Z</time></trkpt><trkpt lat="44.1514692" lon="8.1297313"><ele>750.3333333333333</ele><time>2026-04-26T08:22:37.076Z</time></trkpt><trkpt lat="44.1516198" lon="8.1298073"><ele>754.6666666666666</ele><time>2026-04-26T08:22:38.175Z</time></trkpt><trkpt lat="44.1518165" lon="8.1299084"><ele>759.0</ele><time>2026-04-26T08:22:40.179Z</time></trkpt><trkpt lat="44.1519735" lon="8.1298486"><ele>749.3333333333334</ele><time>2026-04-26T08:22:42.116Z</time></trkpt><trkpt lat="44.1520447" lon="8.129758"><ele>739.6666666666667</ele><time>2026-04-26T08:22:43.069Z</time></trkpt><trkpt lat="44.1521168" lon="8.1295777"><ele>730.0</ele><time>2026-04-26T08:22:44.27Z</time></trkpt><trkpt lat="44.1522648" lon="8.1292247"><ele>734.0</ele><time>2026-04-26T08:22:46.03Z</time></trkpt><trkpt lat="44.1525121" lon="8.1288422"><ele>738.0</ele><time>2026-04-26T08:22:48.093Z</time></trkpt><trkpt lat="44.1526664" lon="8.1286116"><ele>734.0</ele><time>2026-04-26T08:22:49.198Z</time></trkpt><trkpt lat="44.152905" lon="8.1282044"><ele>730.0</ele><time>2026-04-26T08:22:51.11Z</time></trkpt><trkpt lat="44.1531343" lon="8.1277913"><ele>740.5</ele><time>2026-04-26T08:22:53.086Z</time></trkpt><trkpt lat="44.1532369" lon="8.1275204"><ele>751.0</ele><time>2026-04-26T08:22:54.281Z</time></trkpt><trkpt lat="44.1533612" lon="8.1270722"><ele>751.0</ele><time>2026-04-26T08:22:56.052Z</time></trkpt><trkpt lat="44.1534193" lon="8.126848"><ele>751.0</ele><time>2026-04-26T08:22:57.243Z</time></trkpt><trkpt lat="44.1535267" lon="8.1265941"><ele>751.0</ele><time>2026-04-26T08:22:59.07Z</time></trkpt><trkpt lat="44.1536349" lon="8.1265106"><ele>746.0</ele><time>2026-04-26T08:23:00.151Z</time></trkpt><trkpt lat="44.1537437" lon="8.12646"><ele>741.0</ele><time>2026-04-26T08:23:01.117Z</time></trkpt><trkpt lat="44.1539136" lon="8.1262365"><ele>736.0</ele><time>2026-04-26T08:23:03.295Z</time></trkpt><trkpt lat="44.1539644" lon="8.1258357"><ele>749.0</ele><time>2026-04-26T08:23:05.206Z</time></trkpt><trkpt lat="44.1541131" lon="8.1253501"><ele>762.0</ele><time>2026-04-26T08:23:07.25Z</time></trkpt><trkpt lat="44.1542671" lon="8.1249395"><ele>757.5</ele><time>2026-04-26T08:23:09.094Z</time></trkpt><trkpt lat="44.154364" lon="8.1247478"><ele>753.0</ele><time>2026-04-26T08:23:10.117Z</time></trkpt><trkpt lat="44.1544418" lon="8.1245846"><ele>748.5</ele><time>2026-04-26T08:23:11.12Z</time></trkpt><trkpt lat="44.1545136" lon="8.1244468"><ele>744.0</ele><time>2026-04-26T08:23:12.101Z</time></trkpt><trkpt lat="44.1546015" lon="8.1243389"><ele>744.0</ele><time>2026-04-26T08:23:13.068Z</time></trkpt><trkpt lat="44.1547215" lon="8.124252"><ele>744.0</ele><time>2026-04-26T08:23:14.151Z</time></trkpt><trkpt lat="44.155034" lon="8.1241365"><ele>745.5</ele><time>2026-04-26T08:23:16.208Z</time></trkpt><trkpt lat="44.155309" lon="8.1239823"><ele>747.0</ele><time>2026-04-26T08:23:18.225Z</time></trkpt><trkpt lat="44.1555508" lon="8.1239271"><ele>747.0</ele><time>2026-04-26T08:23:20.06Z</time></trkpt><trkpt lat="44.1556703" lon="8.1239337"><ele>747.0</ele><time>2026-04-26T08:23:20.98Z</time></trkpt><trkpt lat="44.1557924" lon="8.123945"><ele>747.0</ele><time>2026-04-26T08:23:22.024Z</time></trkpt><trkpt lat="44.1559155" lon="8.124005"><ele>747.0</ele><time>2026-04-26T08:23:22.991Z</time></trkpt><trkpt lat="44.1560497" lon="8.124118"><ele>753.2</ele><time>2026-04-26T08:23:24.027Z</time></trkpt><trkpt lat="44.1561598" lon="8.1242223"><ele>759.4000000000001</ele><time>2026-04-26T08:23:24.961Z</time></trkpt><trkpt lat="44.1562484" lon="8.1243123"><ele>765.5999999999999</ele><time>2026-04-26T08:23:25.931Z</time></trkpt><trkpt lat="44.1563283" lon="8.1243947"><ele>771.8</ele><time>2026-04-26T08:23:26.894Z</time></trkpt><trkpt lat="44.156417" lon="8.1244592"><ele>778.0</ele><time>2026-04-26T08:23:27.929Z</time></trkpt><trkpt lat="44.1565134" lon="8.1244709"><ele>774.8</ele><time>2026-04-26T08:23:29.044Z</time></trkpt><trkpt lat="44.1566024" lon="8.124439"><ele>771.5999999999999</ele><time>2026-04-26T08:23:30.02Z</time></trkpt><trkpt lat="44.1566731" lon="8.1243565"><ele>768.4000000000001</ele><time>2026-04-26T08:23:30.976Z</time></trkpt><trkpt lat="44.1567287" lon="8.1242404"><ele>765.2</ele><time>2026-04-26T08:23:31.989Z</time></trkpt><trkpt lat="44.1567691" lon="8.1241111"><ele>762.0</ele><time>2026-04-26T08:23:32.916Z</time></trkpt><trkpt lat="44.1568248" lon="8.1239335"><ele>762.0</ele><time>2026-04-26T08:23:34.061Z</time></trkpt><trkpt lat="44.1568991" lon="8.1237869"><ele>762.0</ele><time>2026-04-26T08:23:34.978Z</time></trkpt><trkpt lat="44.1570211" lon="8.1236064"><ele>762.0</ele><time>2026-04-26T08:23:36.139Z</time></trkpt><trkpt lat="44.1572791" lon="8.123293"><ele>765.0</ele><time>2026-04-26T08:23:38.069Z</time></trkpt><trkpt lat="44.1574337" lon="8.123158"><ele>768.0</ele><time>2026-04-26T08:23:39.081Z</time></trkpt><trkpt lat="44.1575977" lon="8.1230399"><ele>771.0</ele><time>2026-04-26T08:23:40.053Z</time></trkpt><trkpt lat="44.1577859" lon="8.1229185"><ele>771.0</ele><time>2026-04-26T08:23:41.102Z</time></trkpt><trkpt lat="44.1579745" lon="8.1228086"><ele>771.0</ele><time>2026-04-26T08:23:42.144Z</time></trkpt><trkpt lat="44.1583403" lon="8.1225835"><ele>773.3333333333333</ele><time>2026-04-26T08:23:44.215Z</time></trkpt><trkpt lat="44.1584977" lon="8.1224641"><ele>775.6666666666666</ele><time>2026-04-26T08:23:45.143Z</time></trkpt><trkpt lat="44.1586545" lon="8.1223057"><ele>778.0</ele><time>2026-04-26T08:23:46.146Z</time></trkpt><trkpt lat="44.1587838" lon="8.1221558"><ele>778.0</ele><time>2026-04-26T08:23:47.049Z</time></trkpt><trkpt lat="44.1589517" lon="8.1219411"><ele>778.0</ele><time>2026-04-26T08:23:48.278Z</time></trkpt><trkpt lat="44.1591392" lon="8.1215764"><ele>784.6666666666666</ele><time>2026-04-26T08:23:50.207Z</time></trkpt><trkpt lat="44.1592135" lon="8.1213726"><ele>791.3333333333333</ele><time>2026-04-26T08:23:51.188Z</time></trkpt><trkpt lat="44.1592806" lon="8.1211663"><ele>798.0</ele><time>2026-04-26T08:23:52.157Z</time></trkpt><trkpt lat="44.1593369" lon="8.120971"><ele>798.0</ele><time>2026-04-26T08:23:53.123Z</time></trkpt><trkpt lat="44.1594035" lon="8.1207697"><ele>798.0</ele><time>2026-04-26T08:23:54.367Z</time></trkpt><trkpt lat="44.1595304" lon="8.1205897"><ele>798.0</ele><time>2026-04-26T08:23:56.229Z</time></trkpt><trkpt lat="44.159601" lon="8.1205335"><ele>798.0</ele><time>2026-04-26T08:23:57.147Z</time></trkpt><trkpt lat="44.1597032" lon="8.1205368"><ele>809.0</ele><time>2026-04-26T08:23:59.089Z</time></trkpt><trkpt lat="44.1600317" lon="8.1208438"><ele>820.0</ele><time>2026-04-26T08:24:01.013Z</time></trkpt><trkpt lat="44.1601509" lon="8.1209472"><ele>820.0</ele><time>2026-04-26T08:24:01.98Z</time></trkpt><trkpt lat="44.1602603" lon="8.1210286"><ele>820.0</ele><time>2026-04-26T08:24:02.938Z</time></trkpt><trkpt lat="44.1603789" lon="8.1210994"><ele>820.0</ele><time>2026-04-26T08:24:04.065Z</time></trkpt><trkpt lat="44.1604729" lon="8.1211407"><ele>820.0</ele><time>2026-04-26T08:24:04.987Z</time></trkpt><trkpt lat="44.160552" lon="8.1211596"><ele>820.0</ele><time>2026-04-26T08:24:06.075Z</time></trkpt><trkpt lat="44.1606211" lon="8.1211631"><ele>820.0</ele><time>2026-04-26T08:24:07.03Z</time></trkpt><trkpt lat="44.1607251" lon="8.1211705"><ele>820.0</ele><time>2026-04-26T08:24:09.216Z</time></trkpt><trkpt lat="44.1607948" lon="8.1211913"><ele>820.0</ele><time>2026-04-26T08:24:14.105Z</time></trkpt><trkpt lat="44.1608687" lon="8.1211408"><ele>820.0</ele><time>2026-04-26T08:24:36.896Z</time></trkpt><trkpt lat="44.1610003" lon="8.1209917"><ele>820.0</ele><time>2026-04-26T08:24:38.974Z</time></trkpt><trkpt lat="44.1610905" lon="8.1208847"><ele>820.0</ele><time>2026-04-26T08:24:39.924Z</time></trkpt><trkpt lat="44.1611878" lon="8.1207602"><ele>820.0</ele><time>2026-04-26T08:24:40.921Z</time></trkpt><trkpt lat="44.1612992" lon="8.1206209"><ele>820.0</ele><time>2026-04-26T08:24:41.971Z</time></trkpt><trkpt lat="44.1614216" lon="8.1204793"><ele>820.0</ele><time>2026-04-26T08:24:43.075Z</time></trkpt><trkpt lat="44.1615414" lon="8.1203603"><ele>819.5</ele><time>2026-04-26T08:24:44.204Z</time></trkpt><trkpt lat="44.1616311" lon="8.1202844"><ele>819.0</ele><time>2026-04-26T08:24:45.165Z</time></trkpt><trkpt lat="44.1617108" lon="8.1202448"><ele>818.5</ele><time>2026-04-26T08:24:46.069Z</time></trkpt><trkpt lat="44.1618682" lon="8.1202964"><ele>818.0</ele><time>2026-04-26T08:24:48.025Z</time></trkpt><trkpt lat="44.1619274" lon="8.1204286"><ele>818.0</ele><time>2026-04-26T08:24:49.265Z</time></trkpt><trkpt lat="44.1619505" lon="8.1207214"><ele>818.0</ele><time>2026-04-26T08:24:51.087Z</time></trkpt><trkpt lat="44.1619473" lon="8.1209197"><ele>818.0</ele><time>2026-04-26T08:24:51.991Z</time></trkpt><trkpt lat="44.1619358" lon="8.121181"><ele>814.5</ele><time>2026-04-26T08:24:53.008Z</time></trkpt><trkpt lat="44.1619224" lon="8.1214751"><ele>811.0</ele><time>2026-04-26T08:24:54.163Z</time></trkpt><trkpt lat="44.1618889" lon="8.1219077"><ele>808.6666666666666</ele><time>2026-04-26T08:24:56.231Z</time></trkpt><trkpt lat="44.1618441" lon="8.1222646"><ele>806.3333333333333</ele><time>2026-04-26T08:24:58.234Z</time></trkpt><trkpt lat="44.1618731" lon="8.1225197"><ele>804.0</ele><time>2026-04-26T08:25:00.105Z</time></trkpt><trkpt lat="44.1619139" lon="8.1226954"><ele>800.0</ele><time>2026-04-26T08:25:01.21Z</time></trkpt><trkpt lat="44.1620994" lon="8.1229763"><ele>796.0</ele><time>2026-04-26T08:25:03.216Z</time></trkpt><trkpt lat="44.1623448" lon="8.1231914"><ele>795.6666666666666</ele><time>2026-04-26T08:25:05.113Z</time></trkpt><trkpt lat="44.1624591" lon="8.1232967"><ele>795.3333333333333</ele><time>2026-04-26T08:25:06.096Z</time></trkpt><trkpt lat="44.1626025" lon="8.1234332"><ele>795.0</ele><time>2026-04-26T08:25:07.235Z</time></trkpt><trkpt lat="44.16279" lon="8.123683"><ele>795.0</ele><time>2026-04-26T08:25:09.15Z</time></trkpt><trkpt lat="44.1629498" lon="8.1239578"><ele>795.0</ele><time>2026-04-26T08:25:11.161Z</time></trkpt><trkpt lat="44.1630559" lon="8.1240942"><ele>795.0</ele><time>2026-04-26T08:25:12.192Z</time></trkpt><trkpt lat="44.1631641" lon="8.1241656"><ele>795.25</ele><time>2026-04-26T08:25:13.169Z</time></trkpt><trkpt lat="44.1632483" lon="8.1242636"><ele>795.5</ele><time>2026-04-26T08:25:14.099Z</time></trkpt><trkpt lat="44.1633264" lon="8.1243895"><ele>795.75</ele><time>2026-04-26T08:25:15.154Z</time></trkpt><trkpt lat="44.1633904" lon="8.124532"><ele>796.0</ele><time>2026-04-26T08:25:16.157Z</time></trkpt><trkpt lat="44.1634533" lon="8.1249572"><ele>792.0</ele><time>2026-04-26T08:25:18.247Z</time></trkpt><trkpt lat="44.1635467" lon="8.1252545"><ele>788.0</ele><time>2026-04-26T08:25:20.136Z</time></trkpt><trkpt lat="44.1636274" lon="8.1253809"><ele>784.0</ele><time>2026-04-26T08:25:21.107Z</time></trkpt><trkpt lat="44.1637225" lon="8.1254696"><ele>784.0</ele><time>2026-04-26T08:25:22.107Z</time></trkpt><trkpt lat="44.1638476" lon="8.1255141"><ele>784.0</ele><time>2026-04-26T08:25:23.049Z</time></trkpt><trkpt lat="44.1640169" lon="8.1255042"><ele>784.0</ele><time>2026-04-26T08:25:24.103Z</time></trkpt><trkpt lat="44.1641466" lon="8.1255049"><ele>784.0</ele><time>2026-04-26T08:25:25.07Z</time></trkpt><trkpt lat="44.1642708" lon="8.1254856"><ele>785.6</ele><time>2026-04-26T08:25:26.057Z</time></trkpt><trkpt lat="44.1643798" lon="8.1254169"><ele>787.2</ele><time>2026-04-26T08:25:27.102Z</time></trkpt><trkpt lat="44.1644681" lon="8.1253937"><ele>788.8000000000001</ele><time>2026-04-26T08:25:28.081Z</time></trkpt><trkpt lat="44.1645409" lon="8.1254068"><ele>790.4000000000001</ele><time>2026-04-26T08:25:29Z</time></trkpt><trkpt lat="44.1646183" lon="8.1255039"><ele>792.0</ele><time>2026-04-26T08:25:30.279Z</time></trkpt><trkpt lat="44.1646027" lon="8.1257299"><ele>783.5</ele><time>2026-04-26T08:25:32.224Z</time></trkpt><trkpt lat="44.164652" lon="8.1260112"><ele>775.0</ele><time>2026-04-26T08:25:34.159Z</time></trkpt><trkpt lat="44.1647918" lon="8.1263681"><ele>774.0</ele><time>2026-04-26T08:25:36.165Z</time></trkpt><trkpt lat="44.1648699" lon="8.1264856"><ele>773.0</ele><time>2026-04-26T08:25:37.077Z</time></trkpt><trkpt lat="44.1649776" lon="8.1265936"><ele>772.0</ele><time>2026-04-26T08:25:38.091Z</time></trkpt><trkpt lat="44.1651313" lon="8.1266881"><ele>771.0</ele><time>2026-04-26T08:25:39.225Z</time></trkpt><trkpt lat="44.1653695" lon="8.1267742"><ele>771.0</ele><time>2026-04-26T08:25:40.879Z</time></trkpt><trkpt lat="44.1655199" lon="8.1268454"><ele>771.0</ele><time>2026-04-26T08:25:42.06Z</time></trkpt><trkpt lat="44.1656235" lon="8.1269191"><ele>771.0</ele><time>2026-04-26T08:25:43.049Z</time></trkpt><trkpt lat="44.1657389" lon="8.1269692"><ele>771.0</ele><time>2026-04-26T08:25:44.156Z</time></trkpt><trkpt lat="44.1658562" lon="8.126918"><ele>770.75</ele><time>2026-04-26T08:25:45.229Z</time></trkpt><trkpt lat="44.1660065" lon="8.1267276"><ele>770.5</ele><time>2026-04-26T08:25:47.067Z</time></trkpt><trkpt lat="44.1660732" lon="8.1265992"><ele>770.25</ele><time>2026-04-26T08:25:47.999Z</time></trkpt><trkpt lat="44.1661243" lon="8.1264449"><ele>770.0</ele><time>2026-04-26T08:25:49.124Z</time></trkpt><trkpt lat="44.16623" lon="8.1262817"><ele>770.0</ele><time>2026-04-26T08:25:51.147Z</time></trkpt><trkpt lat="44.1662963" lon="8.1262886"><ele>770.0</ele><time>2026-04-26T08:25:52.083Z</time></trkpt><trkpt lat="44.1663691" lon="8.1263491"><ele>770.0</ele><time>2026-04-26T08:25:53.073Z</time></trkpt><trkpt lat="44.1664476" lon="8.1264564"><ele>770.0</ele><time>2026-04-26T08:25:54.11Z</time></trkpt><trkpt lat="44.1665064" lon="8.1266105"><ele>770.0</ele><time>2026-04-26T08:25:55.168Z</time></trkpt><trkpt lat="44.1666449" lon="8.126962"><ele>768.5</ele><time>2026-04-26T08:25:57.289Z</time></trkpt><trkpt lat="44.1667745" lon="8.1271808"><ele>767.0</ele><time>2026-04-26T08:25:59.178Z</time></trkpt><trkpt lat="44.1670061" lon="8.1273073"><ele>767.0</ele><time>2026-04-26T08:26:01.27Z</time></trkpt><trkpt lat="44.1673481" lon="8.1273086"><ele>767.0</ele><time>2026-04-26T08:26:03.292Z</time></trkpt><trkpt lat="44.167521" lon="8.1274384"><ele>765.75</ele><time>2026-04-26T08:26:05.146Z</time></trkpt><trkpt lat="44.1676114" lon="8.1276459"><ele>764.5</ele><time>2026-04-26T08:26:06.861Z</time></trkpt><trkpt lat="44.1676358" lon="8.1277932"><ele>763.25</ele><time>2026-04-26T08:26:08.031Z</time></trkpt><trkpt lat="44.1676181" lon="8.1279659"><ele>762.0</ele><time>2026-04-26T08:26:09.315Z</time></trkpt><trkpt lat="44.1675004" lon="8.12818"><ele>762.75</ele><time>2026-04-26T08:26:11.04Z</time></trkpt><trkpt lat="44.1674027" lon="8.1282859"><ele>763.5</ele><time>2026-04-26T08:26:12.104Z</time></trkpt><trkpt lat="44.1672982" lon="8.1284181"><ele>764.25</ele><time>2026-04-26T08:26:13.095Z</time></trkpt><trkpt lat="44.1672158" lon="8.1285855"><ele>765.0</ele><time>2026-04-26T08:26:14.08Z</time></trkpt><trkpt lat="44.1671699" lon="8.1287755"><ele>758.0</ele><time>2026-04-26T08:26:15.083Z</time></trkpt><trkpt lat="44.1671673" lon="8.1290806"><ele>751.0</ele><time>2026-04-26T08:26:17.143Z</time></trkpt><trkpt lat="44.1673286" lon="8.1294044"><ele>750.6666666666667</ele><time>2026-04-26T08:26:19.063Z</time></trkpt><trkpt lat="44.167448" lon="8.1296011"><ele>750.3333333333334</ele><time>2026-04-26T08:26:20.083Z</time></trkpt><trkpt lat="44.1675802" lon="8.1297924"><ele>750.0</ele><time>2026-04-26T08:26:21.129Z</time></trkpt><trkpt lat="44.1677403" lon="8.1299819"><ele>750.0</ele><time>2026-04-26T08:26:22.266Z</time></trkpt><trkpt lat="44.1678881" lon="8.1301438"><ele>750.0</ele><time>2026-04-26T08:26:23.306Z</time></trkpt><trkpt lat="44.1680161" lon="8.1302578"><ele>750.0</ele><time>2026-04-26T08:26:24.178Z</time></trkpt><trkpt lat="44.1682337" lon="8.1303983"><ele>758.0</ele><time>2026-04-26T08:26:25.371Z</time></trkpt><trkpt lat="44.1685929" lon="8.130571"><ele>766.0</ele><time>2026-04-26T08:26:27.121Z</time></trkpt><trkpt lat="44.1687646" lon="8.130672"><ele>762.0</ele><time>2026-04-26T08:26:28.063Z</time></trkpt><trkpt lat="44.1689386" lon="8.1308096"><ele>758.0</ele><time>2026-04-26T08:26:29.112Z</time></trkpt><trkpt lat="44.1690674" lon="8.1309725"><ele>754.0</ele><time>2026-04-26T08:26:30.085Z</time></trkpt><trkpt lat="44.1691787" lon="8.1311024"><ele>754.0</ele><time>2026-04-26T08:26:30.995Z</time></trkpt><trkpt lat="44.1693031" lon="8.1312123"><ele>754.0</ele><time>2026-04-26T08:26:31.978Z</time></trkpt><trkpt lat="44.1694665" lon="8.1313023"><ele>754.0</ele><time>2026-04-26T08:26:33.075Z</time></trkpt><trkpt lat="44.1696508" lon="8.1313592"><ele>754.0</ele><time>2026-04-26T08:26:34.082Z</time></trkpt><trkpt lat="44.1698257" lon="8.1314162"><ele>754.0</ele><time>2026-04-26T08:26:35.188Z</time></trkpt><trkpt lat="44.1700833" lon="8.1316393"><ele>753.6666666666667</ele><time>2026-04-26T08:26:37.113Z</time></trkpt><trkpt lat="44.1702602" lon="8.1319392"><ele>753.3333333333334</ele><time>2026-04-26T08:26:38.997Z</time></trkpt><trkpt lat="44.170331" lon="8.1321041"><ele>753.0</ele><time>2026-04-26T08:26:40.124Z</time></trkpt><trkpt lat="44.1705294" lon="8.1322988"><ele>753.0</ele><time>2026-04-26T08:26:42.044Z</time></trkpt><trkpt lat="44.1706827" lon="8.1323061"><ele>753.0</ele><time>2026-04-26T08:26:43.146Z</time></trkpt><trkpt lat="44.1709907" lon="8.1322096"><ele>753.0</ele><time>2026-04-26T08:26:44.997Z</time></trkpt><trkpt lat="44.1712097" lon="8.1321395"><ele>753.0</ele><time>2026-04-26T08:26:46.134Z</time></trkpt><trkpt lat="44.1716003" lon="8.1320617"><ele>753.0</ele><time>2026-04-26T08:26:48.087Z</time></trkpt><trkpt lat="44.1717972" lon="8.1320355"><ele>753.0</ele><time>2026-04-26T08:26:49.286Z</time></trkpt><trkpt lat="44.1720137" lon="8.1320592"><ele>753.0</ele><time>2026-04-26T08:26:50.859Z</time></trkpt><trkpt lat="44.1721627" lon="8.132142"><ele>753.0</ele><time>2026-04-26T08:26:52.137Z</time></trkpt><trkpt lat="44.172255" lon="8.1322532"><ele>753.0</ele><time>2026-04-26T08:26:53.088Z</time></trkpt><trkpt lat="44.1724658" lon="8.1326468"><ele>750.6666666666666</ele><time>2026-04-26T08:26:55.193Z</time></trkpt><trkpt lat="44.1725625" lon="8.1328283"><ele>748.3333333333333</ele><time>2026-04-26T08:26:56.15Z</time></trkpt><trkpt lat="44.1726692" lon="8.1330117"><ele>746.0</ele><time>2026-04-26T08:26:57.107Z</time></trkpt><trkpt lat="44.1727904" lon="8.1332174"><ele>744.0</ele><time>2026-04-26T08:26:58.169Z</time></trkpt><trkpt lat="44.1728795" lon="8.133386"><ele>742.0</ele><time>2026-04-26T08:26:59.091Z</time></trkpt><trkpt lat="44.1729677" lon="8.1335512"><ele>740.0</ele><time>2026-04-26T08:27:00.054Z</time></trkpt><trkpt lat="44.1730579" lon="8.1337144"><ele>738.0</ele><time>2026-04-26T08:27:01.094Z</time></trkpt><trkpt lat="44.1732634" lon="8.1339466"><ele>738.3333333333334</ele><time>2026-04-26T08:27:03.013Z</time></trkpt><trkpt lat="44.1733998" lon="8.1340068"><ele>738.6666666666667</ele><time>2026-04-26T08:27:03.963Z</time></trkpt><trkpt lat="44.1735407" lon="8.1341125"><ele>739.0</ele><time>2026-04-26T08:27:05.135Z</time></trkpt><trkpt lat="44.1736512" lon="8.1344002"><ele>739.0</ele><time>2026-04-26T08:27:07.08Z</time></trkpt><trkpt lat="44.1736974" lon="8.1345531"><ele>739.0</ele><time>2026-04-26T08:27:08.068Z</time></trkpt><trkpt lat="44.1738441" lon="8.1347502"><ele>739.0</ele><time>2026-04-26T08:27:10.07Z</time></trkpt><trkpt lat="44.1739463" lon="8.1347781"><ele>739.0</ele><time>2026-04-26T08:27:11.004Z</time></trkpt><trkpt lat="44.174059" lon="8.1347907"><ele>738.25</ele><time>2026-04-26T08:27:12.053Z</time></trkpt><trkpt lat="44.1742893" lon="8.1347684"><ele>737.5</ele><time>2026-04-26T08:27:13.963Z</time></trkpt><trkpt lat="44.1743748" lon="8.1348252"><ele>736.75</ele><time>2026-04-26T08:27:14.991Z</time></trkpt><trkpt lat="44.1744513" lon="8.1349369"><ele>736.0</ele><time>2026-04-26T08:27:16.102Z</time></trkpt><trkpt lat="44.1745263" lon="8.1350966"><ele>736.0</ele><time>2026-04-26T08:27:17.128Z</time></trkpt><trkpt lat="44.1746033" lon="8.1352368"><ele>736.0</ele><time>2026-04-26T08:27:18.055Z</time></trkpt><trkpt lat="44.1746821" lon="8.1353491"><ele>736.0</ele><time>2026-04-26T08:27:19.017Z</time></trkpt><trkpt lat="44.1748019" lon="8.1354174"><ele>736.0</ele><time>2026-04-26T08:27:20.122Z</time></trkpt><trkpt lat="44.1751059" lon="8.1352905"><ele>735.0</ele><time>2026-04-26T08:27:22.172Z</time></trkpt><trkpt lat="44.1754131" lon="8.1350155"><ele>734.0</ele><time>2026-04-26T08:27:24.03Z</time></trkpt><trkpt lat="44.1755313" lon="8.1348394"><ele>734.0</ele><time>2026-04-26T08:27:24.979Z</time></trkpt><trkpt lat="44.1756427" lon="8.1346917"><ele>734.0</ele><time>2026-04-26T08:27:25.939Z</time></trkpt><trkpt lat="44.1757926" lon="8.1345778"><ele>734.0</ele><time>2026-04-26T08:27:27.03Z</time></trkpt><trkpt lat="44.1759363" lon="8.13451"><ele>730.0</ele><time>2026-04-26T08:27:27.996Z</time></trkpt><trkpt lat="44.176105" lon="8.1344814"><ele>726.0</ele><time>2026-04-26T08:27:29.047Z</time></trkpt><trkpt lat="44.1765446" lon="8.1343581"><ele>726.0</ele><time>2026-04-26T08:27:31.08Z</time></trkpt><trkpt lat="44.1767551" lon="8.1342427"><ele>726.0</ele><time>2026-04-26T08:27:31.997Z</time></trkpt><trkpt lat="44.1769888" lon="8.1340823"><ele>725.5</ele><time>2026-04-26T08:27:32.999Z</time></trkpt><trkpt lat="44.1772135" lon="8.1339045"><ele>725.0</ele><time>2026-04-26T08:27:34.067Z</time></trkpt><trkpt lat="44.1774052" lon="8.1337523"><ele>724.3333333333333</ele><time>2026-04-26T08:27:35.045Z</time></trkpt><trkpt lat="44.1775745" lon="8.1336115"><ele>723.6666666666666</ele><time>2026-04-26T08:27:36.038Z</time></trkpt><trkpt lat="44.1777403" lon="8.1334814"><ele>723.0</ele><time>2026-04-26T08:27:37.181Z</time></trkpt><trkpt lat="44.1780404" lon="8.133373"><ele>724.3333333333334</ele><time>2026-04-26T08:27:39.056Z</time></trkpt><trkpt lat="44.1782006" lon="8.1333853"><ele>725.6666666666667</ele><time>2026-04-26T08:27:40.004Z</time></trkpt><trkpt lat="44.178384" lon="8.1333622"><ele>727.0</ele><time>2026-04-26T08:27:41.062Z</time></trkpt><trkpt lat="44.1785511" lon="8.1332924"><ele>721.5</ele><time>2026-04-26T08:27:42.021Z</time></trkpt><trkpt lat="44.1787008" lon="8.1331609"><ele>716.0</ele><time>2026-04-26T08:27:43.168Z</time></trkpt><trkpt lat="44.1789782" lon="8.132974"><ele>716.6666666666666</ele><time>2026-04-26T08:27:45.094Z</time></trkpt><trkpt lat="44.1791649" lon="8.1329338"><ele>717.3333333333334</ele><time>2026-04-26T08:27:46.061Z</time></trkpt><trkpt lat="44.1793461" lon="8.132888"><ele>718.0</ele><time>2026-04-26T08:27:47Z</time></trkpt><trkpt lat="44.179524" lon="8.1328036"><ele>718.0</ele><time>2026-04-26T08:27:47.968Z</time></trkpt><trkpt lat="44.1797158" lon="8.1326939"><ele>718.0</ele><time>2026-04-26T08:27:49.144Z</time></trkpt><trkpt lat="44.1798636" lon="8.1326071"><ele>718.0</ele><time>2026-04-26T08:27:50.109Z</time></trkpt><trkpt lat="44.1799768" lon="8.1325212"><ele>717.3333333333334</ele><time>2026-04-26T08:27:51.054Z</time></trkpt><trkpt lat="44.1800933" lon="8.1323861"><ele>716.6666666666666</ele><time>2026-04-26T08:27:52.125Z</time></trkpt><trkpt lat="44.1801947" lon="8.1322061"><ele>716.0</ele><time>2026-04-26T08:27:53.042Z</time></trkpt><trkpt lat="44.1803131" lon="8.1319512"><ele>716.0</ele><time>2026-04-26T08:27:54.204Z</time></trkpt><trkpt lat="44.1803875" lon="8.1317701"><ele>716.0</ele><time>2026-04-26T08:27:55.114Z</time></trkpt><trkpt lat="44.1805881" lon="8.1314559"><ele>715.6666666666666</ele><time>2026-04-26T08:27:57.142Z</time></trkpt><trkpt lat="44.1807303" lon="8.1313344"><ele>715.3333333333334</ele><time>2026-04-26T08:27:58.098Z</time></trkpt><trkpt lat="44.1809226" lon="8.1311839"><ele>715.0</ele><time>2026-04-26T08:27:59.237Z</time></trkpt><trkpt lat="44.1812177" lon="8.1309524"><ele>715.0</ele><time>2026-04-26T08:28:01.039Z</time></trkpt><trkpt lat="44.1813726" lon="8.1308026"><ele>715.0</ele><time>2026-04-26T08:28:02.113Z</time></trkpt><trkpt lat="44.1815949" lon="8.1304289"><ele>714.5</ele><time>2026-04-26T08:28:04.148Z</time></trkpt><trkpt lat="44.1818578" lon="8.1301063"><ele>714.0</ele><time>2026-04-26T08:28:06.175Z</time></trkpt><trkpt lat="44.1821433" lon="8.129901"><ele>712.5</ele><time>2026-04-26T08:28:08.337Z</time></trkpt><trkpt lat="44.1824585" lon="8.1298106"><ele>711.0</ele><time>2026-04-26T08:28:09.957Z</time></trkpt><trkpt lat="44.1826847" lon="8.1297443"><ele>711.0</ele><time>2026-04-26T08:28:11.081Z</time></trkpt><trkpt lat="44.182902" lon="8.1296895"><ele>711.0</ele><time>2026-04-26T08:28:12.108Z</time></trkpt><trkpt lat="44.1831335" lon="8.1296364"><ele>712.5</ele><time>2026-04-26T08:28:13.213Z</time></trkpt><trkpt lat="44.1835155" lon="8.1295375"><ele>714.0</ele><time>2026-04-26T08:28:15.046Z</time></trkpt><trkpt lat="44.1837891" lon="8.1294684"><ele>713.0</ele><time>2026-04-26T08:28:16.362Z</time></trkpt><trkpt lat="44.1841628" lon="8.1293756"><ele>712.0</ele><time>2026-04-26T08:28:18.224Z</time></trkpt><trkpt lat="44.1844985" lon="8.1293186"><ele>712.0</ele><time>2026-04-26T08:28:20.026Z</time></trkpt><trkpt lat="44.1847025" lon="8.1292716"><ele>712.0</ele><time>2026-04-26T08:28:21.14Z</time></trkpt><trkpt lat="44.1848812" lon="8.1292193"><ele>712.0</ele><time>2026-04-26T08:28:22.085Z</time></trkpt><trkpt lat="44.1850891" lon="8.1291283"><ele>709.0</ele><time>2026-04-26T08:28:23.199Z</time></trkpt><trkpt lat="44.1854743" lon="8.128854"><ele>706.0</ele><time>2026-04-26T08:28:25.302Z</time></trkpt><trkpt lat="44.1857619" lon="8.1286465"><ele>705.5</ele><time>2026-04-26T08:28:27.04Z</time></trkpt><trkpt lat="44.1859362" lon="8.1285548"><ele>705.0</ele><time>2026-04-26T08:28:28.136Z</time></trkpt><trkpt lat="44.1862104" lon="8.1285329"><ele>705.0</ele><time>2026-04-26T08:28:29.873Z</time></trkpt><trkpt lat="44.1863664" lon="8.1285548"><ele>705.0</ele><time>2026-04-26T08:28:31.196Z</time></trkpt><trkpt lat="44.1866034" lon="8.128753"><ele>705.0</ele><time>2026-04-26T08:28:33.265Z</time></trkpt><trkpt lat="44.1867843" lon="8.1290314"><ele>705.3333333333334</ele><time>2026-04-26T08:28:35.235Z</time></trkpt><trkpt lat="44.1868797" lon="8.1291559"><ele>705.6666666666667</ele><time>2026-04-26T08:28:36.195Z</time></trkpt><trkpt lat="44.1870769" lon="8.1293099"><ele>706.0</ele><time>2026-04-26T08:28:38.075Z</time></trkpt><trkpt lat="44.187211" lon="8.1293037"><ele>705.0</ele><time>2026-04-26T08:28:39.167Z</time></trkpt><trkpt lat="44.1873578" lon="8.1292849"><ele>704.0</ele><time>2026-04-26T08:28:40.215Z</time></trkpt><trkpt lat="44.1876206" lon="8.1292201"><ele>703.0</ele><time>2026-04-26T08:28:42.269Z</time></trkpt><trkpt lat="44.1878475" lon="8.1291722"><ele>703.0</ele><time>2026-04-26T08:28:44.338Z</time></trkpt><trkpt lat="44.1880277" lon="8.1292078"><ele>703.0</ele><time>2026-04-26T08:28:46.286Z</time></trkpt><trkpt lat="44.1880892" lon="8.1292833"><ele>703.0</ele><time>2026-04-26T08:28:47.193Z</time></trkpt><trkpt lat="44.188153" lon="8.1293145"><ele>703.0</ele><time>2026-04-26T08:28:48.148Z</time></trkpt><trkpt lat="44.1882471" lon="8.1292673"><ele>703.0</ele><time>2026-04-26T08:28:49.188Z</time></trkpt><trkpt lat="44.1883337" lon="8.1291883"><ele>703.5</ele><time>2026-04-26T08:28:49.961Z</time></trkpt><trkpt lat="44.188488" lon="8.1290767"><ele>704.0</ele><time>2026-04-26T08:28:51.124Z</time></trkpt><trkpt lat="44.1888125" lon="8.1289799"><ele>703.3333333333333</ele><time>2026-04-26T08:28:53.062Z</time></trkpt><trkpt lat="44.1889587" lon="8.1289494"><ele>702.6666666666666</ele><time>2026-04-26T08:28:54.007Z</time></trkpt><trkpt lat="44.1891227" lon="8.1289129"><ele>702.0</ele><time>2026-04-26T08:28:54.998Z</time></trkpt><trkpt lat="44.1892801" lon="8.1288798"><ele>701.6666666666666</ele><time>2026-04-26T08:28:55.955Z</time></trkpt><trkpt lat="44.1894542" lon="8.128843"><ele>701.3333333333333</ele><time>2026-04-26T08:28:57.028Z</time></trkpt><trkpt lat="44.1896076" lon="8.1288119"><ele>701.0</ele><time>2026-04-26T08:28:58.046Z</time></trkpt><trkpt lat="44.1897261" lon="8.1287807"><ele>701.5</ele><time>2026-04-26T08:28:58.969Z</time></trkpt><trkpt lat="44.1898817" lon="8.1287292"><ele>702.0</ele><time>2026-04-26T08:29:00.129Z</time></trkpt><trkpt lat="44.1901681" lon="8.1286481"><ele>702.0</ele><time>2026-04-26T08:29:02.138Z</time></trkpt><trkpt lat="44.190433" lon="8.1285953"><ele>702.0</ele><time>2026-04-26T08:29:04.12Z</time></trkpt><trkpt lat="44.1906681" lon="8.128519"><ele>702.25</ele><time>2026-04-26T08:29:05.983Z</time></trkpt><trkpt lat="44.1908012" lon="8.1284421"><ele>702.5</ele><time>2026-04-26T08:29:07.053Z</time></trkpt><trkpt lat="44.1909217" lon="8.128352"><ele>702.75</ele><time>2026-04-26T08:29:08.04Z</time></trkpt><trkpt lat="44.191028" lon="8.1282632"><ele>703.0</ele><time>2026-04-26T08:29:08.924Z</time></trkpt><trkpt lat="44.1911434" lon="8.1281611"><ele>703.0</ele><time>2026-04-26T08:29:09.953Z</time></trkpt><trkpt lat="44.1912753" lon="8.1280474"><ele>703.0</ele><time>2026-04-26T08:29:11.183Z</time></trkpt><trkpt lat="44.1914189" lon="8.1279294"><ele>703.0</ele><time>2026-04-26T08:29:13.014Z</time></trkpt><trkpt lat="44.191483" lon="8.1278838"><ele>703.0</ele><time>2026-04-26T08:29:14.041Z</time></trkpt><trkpt lat="44.1915856" lon="8.127809"><ele>703.0</ele><time>2026-04-26T08:29:16.084Z</time></trkpt><trkpt lat="44.1916744" lon="8.1277288"><ele>703.0</ele><time>2026-04-26T08:29:18.027Z</time></trkpt><trkpt lat="44.1917286" lon="8.1276717"><ele>703.0</ele><time>2026-04-26T08:29:20.012Z</time></trkpt><trkpt lat="44.1916545" lon="8.1277143"><ele>703.0</ele><time>2026-04-26T08:29:55Z</time></trkpt><trkpt lat="44.1915761" lon="8.1277827"><ele>703.0</ele><time>2026-04-26T08:29:56.089Z</time></trkpt><trkpt lat="44.1914249" lon="8.1279133"><ele>703.0</ele><time>2026-04-26T08:29:58.075Z</time></trkpt><trkpt lat="44.1913346" lon="8.1279883"><ele>703.0</ele><time>2026-04-26T08:29:58.977Z</time></trkpt><trkpt lat="44.19121" lon="8.1280916"><ele>703.0</ele><time>2026-04-26T08:30:00.06Z</time></trkpt><trkpt lat="44.1910962" lon="8.1281751"><ele>703.0</ele><time>2026-04-26T08:30:01.09Z</time></trkpt><trkpt lat="44.1909975" lon="8.1282495"><ele>703.0</ele><time>2026-04-26T08:30:02.077Z</time></trkpt><trkpt lat="44.1909067" lon="8.1283112"><ele>703.0</ele><time>2026-04-26T08:30:03.125Z</time></trkpt><trkpt lat="44.1907821" lon="8.1284103"><ele>703.0</ele><time>2026-04-26T08:30:04.979Z</time></trkpt><trkpt lat="44.1907355" lon="8.1285122"><ele>703.0</ele><time>2026-04-26T08:30:07.049Z</time></trkpt><trkpt lat="44.1908008" lon="8.1286074"><ele>703.0</ele><time>2026-04-26T08:30:08.954Z</time></trkpt><trkpt lat="44.1908784" lon="8.1286869"><ele>703.0</ele><time>2026-04-26T08:30:09.987Z</time></trkpt><trkpt lat="44.1909724" lon="8.1287763"><ele>703.0</ele><time>2026-04-26T08:30:11.08Z</time></trkpt><trkpt lat="44.1911584" lon="8.1289706"><ele>703.0</ele><time>2026-04-26T08:30:12.993Z</time></trkpt><trkpt lat="44.1912586" lon="8.1290897"><ele>703.5</ele><time>2026-04-26T08:30:14.074Z</time></trkpt><trkpt lat="44.1913483" lon="8.129198"><ele>704.0</ele><time>2026-04-26T08:30:15.127Z</time></trkpt><trkpt lat="44.1914158" lon="8.1292842"><ele>704.5</ele><time>2026-04-26T08:30:16.044Z</time></trkpt><trkpt lat="44.1914906" lon="8.1293629"><ele>705.0</ele><time>2026-04-26T08:30:17.03Z</time></trkpt><trkpt lat="44.1915407" lon="8.1294216"><ele>705.5</ele><time>2026-04-26T08:30:18.029Z</time></trkpt><trkpt lat="44.1915889" lon="8.1294794"><ele>706.0</ele><time>2026-04-26T08:30:19.18Z</time></trkpt><trkpt lat="44.1916737" lon="8.1295785"><ele>706.8333333333334</ele><time>2026-04-26T08:30:21.045Z</time></trkpt><trkpt lat="44.1917324" lon="8.1296254"><ele>707.6666666666667</ele><time>2026-04-26T08:30:28.92Z</time></trkpt><trkpt lat="44.1917857" lon="8.1295763"><ele>708.5</ele><time>2026-04-26T08:30:30.048Z</time></trkpt><trkpt lat="44.1918377" lon="8.1294745"><ele>709.3333333333334</ele><time>2026-04-26T08:30:31.256Z</time></trkpt><trkpt lat="44.1918868" lon="8.1293648"><ele>710.1666666666666</ele><time>2026-04-26T08:30:32.167Z</time></trkpt><trkpt lat="44.191951" lon="8.1292602"><ele>711.0</ele><time>2026-04-26T08:30:33.212Z</time></trkpt><trkpt lat="44.1920549" lon="8.1290999"><ele>711.4</ele><time>2026-04-26T08:30:35.154Z</time></trkpt><trkpt lat="44.1921054" lon="8.1290022"><ele>711.8</ele><time>2026-04-26T08:30:36.27Z</time></trkpt><trkpt lat="44.1921854" lon="8.1288723"><ele>712.1999999999999</ele><time>2026-04-26T08:30:38.12Z</time></trkpt><trkpt lat="44.1922665" lon="8.1287374"><ele>712.5999999999999</ele><time>2026-04-26T08:30:40.126Z</time></trkpt><trkpt lat="44.1923119" lon="8.1286673"><ele>713.0</ele><time>2026-04-26T08:30:41.15Z</time></trkpt><trkpt lat="44.1923971" lon="8.1285161"><ele>713.0</ele><time>2026-04-26T08:30:43.242Z</time></trkpt><trkpt lat="44.1925158" lon="8.1283046"><ele>713.0</ele><time>2026-04-26T08:30:45.194Z</time></trkpt><trkpt lat="44.1926102" lon="8.1281716"><ele>713.0</ele><time>2026-04-26T08:30:46.216Z</time></trkpt><trkpt lat="44.1926903" lon="8.1280568"><ele>713.0</ele><time>2026-04-26T08:30:47.204Z</time></trkpt><trkpt lat="44.1927732" lon="8.1279418"><ele>712.25</ele><time>2026-04-26T08:30:48.136Z</time></trkpt><trkpt lat="44.1928759" lon="8.1278039"><ele>711.5</ele><time>2026-04-26T08:30:49.253Z</time></trkpt><trkpt lat="44.1929492" lon="8.1277076"><ele>710.75</ele><time>2026-04-26T08:30:50.169Z</time></trkpt><trkpt lat="44.1930268" lon="8.1275968"><ele>710.0</ele><time>2026-04-26T08:30:51.233Z</time></trkpt><trkpt lat="44.1930947" lon="8.1275034"><ele>710.75</ele><time>2026-04-26T08:30:52.197Z</time></trkpt><trkpt lat="44.1931726" lon="8.1274012"><ele>711.5</ele><time>2026-04-26T08:30:53.276Z</time></trkpt><trkpt lat="44.1932391" lon="8.12731"><ele>712.25</ele><time>2026-04-26T08:30:54.224Z</time></trkpt><trkpt lat="44.1933886" lon="8.1271513"><ele>713.0</ele><time>2026-04-26T08:30:56.238Z</time></trkpt><trkpt lat="44.1936164" lon="8.1270915"><ele>710.6666666666666</ele><time>2026-04-26T08:30:58.397Z</time></trkpt><trkpt lat="44.1938564" lon="8.1271083"><ele>708.3333333333334</ele><time>2026-04-26T08:31:00.308Z</time></trkpt><trkpt lat="44.1939852" lon="8.1271223"><ele>706.0</ele><time>2026-04-26T08:31:01.232Z</time></trkpt><trkpt lat="44.1942556" lon="8.1271644"><ele>705.3333333333334</ele><time>2026-04-26T08:31:03.112Z</time></trkpt><trkpt lat="44.1944227" lon="8.1271937"><ele>704.6666666666666</ele><time>2026-04-26T08:31:04.239Z</time></trkpt><trkpt lat="44.1946656" lon="8.1272326"><ele>704.0</ele><time>2026-04-26T08:31:06.08Z</time></trkpt><trkpt lat="44.1947981" lon="8.1272505"><ele>702.5</ele><time>2026-04-26T08:31:07.198Z</time></trkpt><trkpt lat="44.1949066" lon="8.1272567"><ele>701.0</ele><time>2026-04-26T08:31:08.223Z</time></trkpt><trkpt lat="44.1950715" lon="8.1271852"><ele>699.5</ele><time>2026-04-26T08:31:10.092Z</time></trkpt><trkpt lat="44.1951338" lon="8.1271224"><ele>698.0</ele><time>2026-04-26T08:31:11.229Z</time></trkpt><trkpt lat="44.1952366" lon="8.1269812"><ele>698.0</ele><time>2026-04-26T08:31:13.255Z</time></trkpt><trkpt lat="44.1953432" lon="8.1268279"><ele>698.0</ele><time>2026-04-26T08:31:15.338Z</time></trkpt><trkpt lat="44.1954108" lon="8.1267143"><ele>698.0</ele><time>2026-04-26T08:31:17.253Z</time></trkpt><trkpt lat="44.195442" lon="8.1266252"><ele>698.0</ele><time>2026-04-26T08:31:19.339Z</time></trkpt><trkpt lat="44.1955161" lon="8.1265587"><ele>698.0</ele><time>2026-04-26T08:31:24.086Z</time></trkpt><trkpt lat="44.1955685" lon="8.1265028"><ele>696.75</ele><time>2026-04-26T08:31:26.126Z</time></trkpt><trkpt lat="44.1956329" lon="8.1264814"><ele>695.5</ele><time>2026-04-26T08:35:28.934Z</time></trkpt><trkpt lat="44.1957542" lon="8.1264982"><ele>694.25</ele><time>2026-04-26T08:35:31.915Z</time></trkpt><trkpt lat="44.1958628" lon="8.1264503"><ele>693.0</ele><time>2026-04-26T08:35:33.106Z</time></trkpt><trkpt lat="44.1961261" lon="8.1263393"><ele>693.0</ele><time>2026-04-26T08:35:34.975Z</time></trkpt><trkpt lat="44.196333" lon="8.1262697"><ele>693.0</ele><time>2026-04-26T08:35:36.116Z</time></trkpt><trkpt lat="44.196781" lon="8.1261215"><ele>692.0</ele><time>2026-04-26T08:35:38.183Z</time></trkpt><trkpt lat="44.1970559" lon="8.1260097"><ele>691.0</ele><time>2026-04-26T08:35:39.269Z</time></trkpt><trkpt lat="44.1973074" lon="8.1259197"><ele>690.0</ele><time>2026-04-26T08:35:40.279Z</time></trkpt><trkpt lat="44.1977767" lon="8.1256835"><ele>690.0</ele><time>2026-04-26T08:35:42.168Z</time></trkpt><trkpt lat="44.1979942" lon="8.1255392"><ele>690.0</ele><time>2026-04-26T08:35:43.12Z</time></trkpt><trkpt lat="44.1981846" lon="8.1254131"><ele>691.0</ele><time>2026-04-26T08:35:44.027Z</time></trkpt><trkpt lat="44.1984143" lon="8.1252727"><ele>692.0</ele><time>2026-04-26T08:35:45.156Z</time></trkpt><trkpt lat="44.1986323" lon="8.125144"><ele>687.0</ele><time>2026-04-26T08:35:46.199Z</time></trkpt><trkpt lat="44.1990894" lon="8.1248514"><ele>687.0</ele><time>2026-04-26T08:35:48.18Z</time></trkpt><trkpt lat="44.1995149" lon="8.1245253"><ele>687.0</ele><time>2026-04-26T08:35:49.977Z</time></trkpt><trkpt lat="44.1997759" lon="8.1243029"><ele>687.0</ele><time>2026-04-26T08:35:50.984Z</time></trkpt><trkpt lat="44.2000253" lon="8.124105"><ele>686.5</ele><time>2026-04-26T08:35:51.917Z</time></trkpt><trkpt lat="44.200303" lon="8.1238841"><ele>686.0</ele><time>2026-04-26T08:35:53.005Z</time></trkpt><trkpt lat="44.2005682" lon="8.1236759"><ele>687.5</ele><time>2026-04-26T08:35:54.09Z</time></trkpt><trkpt lat="44.2007961" lon="8.1234885"><ele>689.0</ele><time>2026-04-26T08:35:55.054Z</time></trkpt><trkpt lat="44.2010391" lon="8.1232898"><ele>687.0</ele><time>2026-04-26T08:35:56.106Z</time></trkpt><trkpt lat="44.2012418" lon="8.1231259"><ele>685.0</ele><time>2026-04-26T08:35:57.065Z</time></trkpt><trkpt lat="44.2014689" lon="8.1229422"><ele>685.0</ele><time>2026-04-26T08:35:58.169Z</time></trkpt><trkpt lat="44.2018304" lon="8.122577"><ele>685.0</ele><time>2026-04-26T08:36:00.134Z</time></trkpt><trkpt lat="44.201997" lon="8.1223446"><ele>685.0</ele><time>2026-04-26T08:36:01.153Z</time></trkpt><trkpt lat="44.2022248" lon="8.1218707"><ele>685.0</ele><time>2026-04-26T08:36:03.04Z</time></trkpt><trkpt lat="44.202298" lon="8.1215608"><ele>687.0</ele><time>2026-04-26T08:36:04.054Z</time></trkpt><trkpt lat="44.2023512" lon="8.1211828"><ele>689.0</ele><time>2026-04-26T08:36:05.232Z</time></trkpt><trkpt lat="44.202457" lon="8.1206008"><ele>689.0</ele><time>2026-04-26T08:36:07.292Z</time></trkpt><trkpt lat="44.2026478" lon="8.1202081"><ele>689.0</ele><time>2026-04-26T08:36:09.001Z</time></trkpt><trkpt lat="44.2027701" lon="8.1200233"><ele>686.5</ele><time>2026-04-26T08:36:10.011Z</time></trkpt><trkpt lat="44.2028836" lon="8.1198292"><ele>684.0</ele><time>2026-04-26T08:36:11.056Z</time></trkpt><trkpt lat="44.2029931" lon="8.1194093"><ele>684.0</ele><time>2026-04-26T08:36:12.958Z</time></trkpt><trkpt lat="44.2030232" lon="8.1191953"><ele>684.0</ele><time>2026-04-26T08:36:13.917Z</time></trkpt><trkpt lat="44.2030593" lon="8.1189538"><ele>684.0</ele><time>2026-04-26T08:36:15.076Z</time></trkpt><trkpt lat="44.2030953" lon="8.1187176"><ele>686.3333333333334</ele><time>2026-04-26T08:36:16.193Z</time></trkpt><trkpt lat="44.203205" lon="8.1183378"><ele>688.6666666666667</ele><time>2026-04-26T08:36:18.117Z</time></trkpt><trkpt lat="44.2032573" lon="8.1181625"><ele>691.0</ele><time>2026-04-26T08:36:19.091Z</time></trkpt><trkpt lat="44.2033123" lon="8.1179628"><ele>691.0</ele><time>2026-04-26T08:36:20.206Z</time></trkpt><trkpt lat="44.2033384" lon="8.1177873"><ele>691.0</ele><time>2026-04-26T08:36:21.164Z</time></trkpt><trkpt lat="44.2033473" lon="8.1176152"><ele>691.0</ele><time>2026-04-26T08:36:22.019Z</time></trkpt><trkpt lat="44.2033259" lon="8.1173348"><ele>688.5</ele><time>2026-04-26T08:36:23.169Z</time></trkpt><trkpt lat="44.203313" lon="8.1168984"><ele>686.0</ele><time>2026-04-26T08:36:24.93Z</time></trkpt><trkpt lat="44.203363" lon="8.1165883"><ele>685.6666666666666</ele><time>2026-04-26T08:36:26.025Z</time></trkpt><trkpt lat="44.2034181" lon="8.1162954"><ele>685.3333333333334</ele><time>2026-04-26T08:36:26.977Z</time></trkpt><trkpt lat="44.2034664" lon="8.1160184"><ele>685.0</ele><time>2026-04-26T08:36:27.981Z</time></trkpt><trkpt lat="44.2035133" lon="8.1157975"><ele>682.0</ele><time>2026-04-26T08:36:28.925Z</time></trkpt><trkpt lat="44.2035794" lon="8.1155767"><ele>679.0</ele><time>2026-04-26T08:36:30.062Z</time></trkpt><trkpt lat="44.2038452" lon="8.1153333"><ele>680.3333333333334</ele><time>2026-04-26T08:36:31.867Z</time></trkpt><trkpt lat="44.2040344" lon="8.1152441"><ele>681.6666666666666</ele><time>2026-04-26T08:36:32.8Z</time></trkpt><trkpt lat="44.2042636" lon="8.1151446"><ele>683.0</ele><time>2026-04-26T08:36:33.829Z</time></trkpt><trkpt lat="44.2045159" lon="8.1150259"><ele>683.0</ele><time>2026-04-26T08:36:34.901Z</time></trkpt><trkpt lat="44.2047376" lon="8.1149198"><ele>683.0</ele><time>2026-04-26T08:36:35.828Z</time></trkpt><trkpt lat="44.2049918" lon="8.114799"><ele>680.0</ele><time>2026-04-26T08:36:36.88Z</time></trkpt><trkpt lat="44.2052406" lon="8.1147043"><ele>677.0</ele><time>2026-04-26T08:36:37.872Z</time></trkpt><trkpt lat="44.2055232" lon="8.1146149"><ele>677.0</ele><time>2026-04-26T08:36:38.983Z</time></trkpt><trkpt lat="44.2057582" lon="8.1145442"><ele>677.0</ele><time>2026-04-26T08:36:39.946Z</time></trkpt><trkpt lat="44.2059772" lon="8.1144776"><ele>677.0</ele><time>2026-04-26T08:36:40.882Z</time></trkpt><trkpt lat="44.2062479" lon="8.1143925"><ele>677.0</ele><time>2026-04-26T08:36:42.115Z</time></trkpt><trkpt lat="44.2064458" lon="8.114328"><ele>679.5</ele><time>2026-04-26T08:36:43.076Z</time></trkpt><trkpt lat="44.2068402" lon="8.1142283"><ele>682.0</ele><time>2026-04-26T08:36:45.091Z</time></trkpt><trkpt lat="44.2070117" lon="8.1142254"><ele>685.0</ele><time>2026-04-26T08:36:46.058Z</time></trkpt><trkpt lat="44.2073607" lon="8.1141896"><ele>688.0</ele><time>2026-04-26T08:36:48.118Z</time></trkpt><trkpt lat="44.2075292" lon="8.114089"><ele>681.5</ele><time>2026-04-26T08:36:49.13Z</time></trkpt><trkpt lat="44.2077094" lon="8.113933"><ele>675.0</ele><time>2026-04-26T08:36:50.186Z</time></trkpt><trkpt lat="44.2081029" lon="8.1136148"><ele>676.0</ele><time>2026-04-26T08:36:52.147Z</time></trkpt><trkpt lat="44.208485" lon="8.1133502"><ele>677.0</ele><time>2026-04-26T08:36:54.082Z</time></trkpt><trkpt lat="44.2086977" lon="8.1132532"><ele>678.0</ele><time>2026-04-26T08:36:55.278Z</time></trkpt><trkpt lat="44.2091131" lon="8.1132656"><ele>679.0</ele><time>2026-04-26T08:36:57.23Z</time></trkpt><trkpt lat="44.2095154" lon="8.1133183"><ele>679.0</ele><time>2026-04-26T08:36:59.163Z</time></trkpt><trkpt lat="44.2096908" lon="8.1133439"><ele>679.0</ele><time>2026-04-26T08:37:00.063Z</time></trkpt><trkpt lat="44.209899" lon="8.113374"><ele>679.0</ele><time>2026-04-26T08:37:01.117Z</time></trkpt><trkpt lat="44.2103041" lon="8.1134292"><ele>679.6666666666667</ele><time>2026-04-26T08:37:03.185Z</time></trkpt><trkpt lat="44.2104842" lon="8.1134595"><ele>680.3333333333334</ele><time>2026-04-26T08:37:04.105Z</time></trkpt><trkpt lat="44.2106862" lon="8.1135071"><ele>681.0</ele><time>2026-04-26T08:37:05.202Z</time></trkpt><trkpt lat="44.2110556" lon="8.1136148"><ele>678.5</ele><time>2026-04-26T08:37:07.243Z</time></trkpt><trkpt lat="44.2114009" lon="8.113729"><ele>676.0</ele><time>2026-04-26T08:37:09.189Z</time></trkpt><trkpt lat="44.2115695" lon="8.1137903"><ele>674.5</ele><time>2026-04-26T08:37:10.241Z</time></trkpt><trkpt lat="44.2118658" lon="8.1139177"><ele>673.0</ele><time>2026-04-26T08:37:12.227Z</time></trkpt><trkpt lat="44.2120185" lon="8.1139918"><ele>673.0</ele><time>2026-04-26T08:37:13.23Z</time></trkpt><trkpt lat="44.2123041" lon="8.1141453"><ele>673.0</ele><time>2026-04-26T08:37:15.203Z</time></trkpt><trkpt lat="44.2124293" lon="8.1142118"><ele>673.0</ele><time>2026-04-26T08:37:16.133Z</time></trkpt><trkpt lat="44.2125678" lon="8.1142845"><ele>673.0</ele><time>2026-04-26T08:37:17.117Z</time></trkpt><trkpt lat="44.2127044" lon="8.1143619"><ele>673.0</ele><time>2026-04-26T08:37:18.122Z</time></trkpt><trkpt lat="44.2128497" lon="8.1144558"><ele>673.0</ele><time>2026-04-26T08:37:19.226Z</time></trkpt><trkpt lat="44.2131017" lon="8.1146671"><ele>674.0</ele><time>2026-04-26T08:37:21.261Z</time></trkpt><trkpt lat="44.2131997" lon="8.1147636"><ele>675.0</ele><time>2026-04-26T08:37:22.137Z</time></trkpt><trkpt lat="44.2133317" lon="8.1149032"><ele>676.0</ele><time>2026-04-26T08:37:23.316Z</time></trkpt><trkpt lat="44.2135067" lon="8.1151075"><ele>676.0</ele><time>2026-04-26T08:37:24.977Z</time></trkpt><trkpt lat="44.2136437" lon="8.1152609"><ele>676.0</ele><time>2026-04-26T08:37:26.211Z</time></trkpt><trkpt lat="44.2137583" lon="8.1153879"><ele>676.0</ele><time>2026-04-26T08:37:27.175Z</time></trkpt><trkpt lat="44.2140264" lon="8.115688"><ele>678.0</ele><time>2026-04-26T08:37:29.316Z</time></trkpt><trkpt lat="44.214273" lon="8.1159283"><ele>680.0</ele><time>2026-04-26T08:37:31.176Z</time></trkpt><trkpt lat="44.2146022" lon="8.1160827"><ele>675.5</ele><time>2026-04-26T08:37:33.331Z</time></trkpt><trkpt lat="44.2149035" lon="8.1161051"><ele>671.0</ele><time>2026-04-26T08:37:35.12Z</time></trkpt><trkpt lat="44.2151007" lon="8.1160752"><ele>671.0</ele><time>2026-04-26T08:37:36.12Z</time></trkpt><trkpt lat="44.2152909" lon="8.1160604"><ele>671.0</ele><time>2026-04-26T08:37:37.077Z</time></trkpt><trkpt lat="44.2155091" lon="8.1160616"><ele>671.0</ele><time>2026-04-26T08:37:38.202Z</time></trkpt><trkpt lat="44.2157044" lon="8.1160941"><ele>671.0</ele><time>2026-04-26T08:37:39.207Z</time></trkpt><trkpt lat="44.2158544" lon="8.1161332"><ele>671.0</ele><time>2026-04-26T08:37:40.025Z</time></trkpt><trkpt lat="44.2160725" lon="8.1161928"><ele>671.0</ele><time>2026-04-26T08:37:41.194Z</time></trkpt><trkpt lat="44.2162468" lon="8.1162406"><ele>671.0</ele><time>2026-04-26T08:37:42.172Z</time></trkpt><trkpt lat="44.2164205" lon="8.1162813"><ele>671.0</ele><time>2026-04-26T08:37:43.192Z</time></trkpt><trkpt lat="44.2167297" lon="8.116315"><ele>669.6666666666666</ele><time>2026-04-26T08:37:45.194Z</time></trkpt><trkpt lat="44.2169765" lon="8.1163109"><ele>668.3333333333334</ele><time>2026-04-26T08:37:47.047Z</time></trkpt><trkpt lat="44.2171286" lon="8.1163006"><ele>667.0</ele><time>2026-04-26T08:37:48.147Z</time></trkpt><trkpt lat="44.217269" lon="8.116248"><ele>668.3333333333334</ele><time>2026-04-26T08:37:49.147Z</time></trkpt><trkpt lat="44.217426" lon="8.1161467"><ele>669.6666666666666</ele><time>2026-04-26T08:37:50.118Z</time></trkpt><trkpt lat="44.2176134" lon="8.1160181"><ele>671.0</ele><time>2026-04-26T08:37:51.14Z</time></trkpt><trkpt lat="44.2180475" lon="8.1157537"><ele>668.5</ele><time>2026-04-26T08:37:53.188Z</time></trkpt><trkpt lat="44.2182778" lon="8.115601"><ele>666.0</ele><time>2026-04-26T08:37:54.154Z</time></trkpt><trkpt lat="44.218512" lon="8.1154364"><ele>666.0</ele><time>2026-04-26T08:37:55.178Z</time></trkpt><trkpt lat="44.2189112" lon="8.1151529"><ele>666.0</ele><time>2026-04-26T08:37:57.153Z</time></trkpt><trkpt lat="44.2192616" lon="8.1149022"><ele>665.5</ele><time>2026-04-26T08:37:59.161Z</time></trkpt><trkpt lat="44.219588" lon="8.1147947"><ele>665.0</ele><time>2026-04-26T08:38:01.274Z</time></trkpt><trkpt lat="44.2198412" lon="8.1149419"><ele>665.0</ele><time>2026-04-26T08:38:03.039Z</time></trkpt><trkpt lat="44.2199801" lon="8.1151074"><ele>665.0</ele><time>2026-04-26T08:38:04.097Z</time></trkpt><trkpt lat="44.2201318" lon="8.1153057"><ele>665.0</ele><time>2026-04-26T08:38:05.178Z</time></trkpt><trkpt lat="44.2202741" lon="8.1154845"><ele>665.0</ele><time>2026-04-26T08:38:06.109Z</time></trkpt><trkpt lat="44.2204182" lon="8.1156647"><ele>665.0</ele><time>2026-04-26T08:38:07.085Z</time></trkpt><trkpt lat="44.2205686" lon="8.1158897"><ele>665.0</ele><time>2026-04-26T08:38:08.158Z</time></trkpt><trkpt lat="44.2208118" lon="8.1163795"><ele>667.3333333333333</ele><time>2026-04-26T08:38:10.121Z</time></trkpt><trkpt lat="44.2209178" lon="8.1166646"><ele>669.6666666666666</ele><time>2026-04-26T08:38:11.117Z</time></trkpt><trkpt lat="44.221015" lon="8.116916"><ele>672.0</ele><time>2026-04-26T08:38:12.064Z</time></trkpt><trkpt lat="44.221137" lon="8.117225"><ele>674.5</ele><time>2026-04-26T08:38:13.265Z</time></trkpt><trkpt lat="44.2213702" lon="8.1176324"><ele>677.0</ele><time>2026-04-26T08:38:15.071Z</time></trkpt><trkpt lat="44.2215162" lon="8.117846"><ele>674.3333333333333</ele><time>2026-04-26T08:38:16.077Z</time></trkpt><trkpt lat="44.2216577" lon="8.1180396"><ele>671.6666666666666</ele><time>2026-04-26T08:38:17.022Z</time></trkpt><trkpt lat="44.2218296" lon="8.118225"><ele>669.0</ele><time>2026-04-26T08:38:18.084Z</time></trkpt><trkpt lat="44.2220348" lon="8.1183899"><ele>669.0</ele><time>2026-04-26T08:38:19.166Z</time></trkpt><trkpt lat="44.2222375" lon="8.1185231"><ele>669.0</ele><time>2026-04-26T08:38:20.128Z</time></trkpt><trkpt lat="44.2224693" lon="8.1186713"><ele>664.5</ele><time>2026-04-26T08:38:21.268Z</time></trkpt><trkpt lat="44.2228727" lon="8.1189334"><ele>660.0</ele><time>2026-04-26T08:38:23.231Z</time></trkpt><trkpt lat="44.2230544" lon="8.119059"><ele>660.0</ele><time>2026-04-26T08:38:24.145Z</time></trkpt><trkpt lat="44.2232619" lon="8.1191924"><ele>660.0</ele><time>2026-04-26T08:38:25.211Z</time></trkpt><trkpt lat="44.2236373" lon="8.1194359"><ele>660.0</ele><time>2026-04-26T08:38:27.191Z</time></trkpt><trkpt lat="44.2238235" lon="8.1195598"><ele>660.0</ele><time>2026-04-26T08:38:28.192Z</time></trkpt><trkpt lat="44.2241931" lon="8.1197982"><ele>659.5</ele><time>2026-04-26T08:38:30.276Z</time></trkpt><trkpt lat="44.2245623" lon="8.1200338"><ele>659.0</ele><time>2026-04-26T08:38:32.294Z</time></trkpt><trkpt lat="44.2248314" lon="8.1202373"><ele>657.5</ele><time>2026-04-26T08:38:34.249Z</time></trkpt><trkpt lat="44.2250933" lon="8.1203845"><ele>656.0</ele><time>2026-04-26T08:38:36.099Z</time></trkpt><trkpt lat="44.2252779" lon="8.1204314"><ele>656.0</ele><time>2026-04-26T08:38:37.309Z</time></trkpt><trkpt lat="44.2255993" lon="8.1203603"><ele>656.0</ele><time>2026-04-26T08:38:39.266Z</time></trkpt><trkpt lat="44.2258421" lon="8.1201319"><ele>656.0</ele><time>2026-04-26T08:38:41.099Z</time></trkpt><trkpt lat="44.2259603" lon="8.1199355"><ele>656.0</ele><time>2026-04-26T08:38:42.191Z</time></trkpt><trkpt lat="44.2261767" lon="8.1196055"><ele>656.5</ele><time>2026-04-26T08:38:44.008Z</time></trkpt><trkpt lat="44.2263568" lon="8.1194069"><ele>657.0</ele><time>2026-04-26T08:38:45.341Z</time></trkpt><trkpt lat="44.2265845" lon="8.1191857"><ele>657.0</ele><time>2026-04-26T08:38:47.185Z</time></trkpt><trkpt lat="44.2266972" lon="8.1190714"><ele>657.0</ele><time>2026-04-26T08:38:48.215Z</time></trkpt><trkpt lat="44.2268749" lon="8.1188994"><ele>657.0</ele><time>2026-04-26T08:38:49.982Z</time></trkpt><trkpt lat="44.2269679" lon="8.118807"><ele>656.0</ele><time>2026-04-26T08:38:50.941Z</time></trkpt><trkpt lat="44.227059" lon="8.1187158"><ele>655.0</ele><time>2026-04-26T08:38:51.896Z</time></trkpt><trkpt lat="44.2271843" lon="8.1185889"><ele>654.0</ele><time>2026-04-26T08:38:53.23Z</time></trkpt><trkpt lat="44.2273829" lon="8.1184029"><ele>654.0</ele><time>2026-04-26T08:38:55.097Z</time></trkpt><trkpt lat="44.2274819" lon="8.1183335"><ele>654.0</ele><time>2026-04-26T08:38:56.019Z</time></trkpt><trkpt lat="44.2277158" lon="8.1182125"><ele>654.0</ele><time>2026-04-26T08:38:57.895Z</time></trkpt><trkpt lat="44.2278588" lon="8.1181859"><ele>654.25</ele><time>2026-04-26T08:38:58.976Z</time></trkpt><trkpt lat="44.2279948" lon="8.1181839"><ele>654.5</ele><time>2026-04-26T08:38:59.958Z</time></trkpt><trkpt lat="44.228134" lon="8.1181859"><ele>654.75</ele><time>2026-04-26T08:39:00.879Z</time></trkpt><trkpt lat="44.2283021" lon="8.1181952"><ele>655.0</ele><time>2026-04-26T08:39:02.035Z</time></trkpt><trkpt lat="44.2284388" lon="8.1182028"><ele>655.0</ele><time>2026-04-26T08:39:02.974Z</time></trkpt><trkpt lat="44.2286069" lon="8.1182096"><ele>655.0</ele><time>2026-04-26T08:39:04.082Z</time></trkpt><trkpt lat="44.2289055" lon="8.1182216"><ele>654.3333333333334</ele><time>2026-04-26T08:39:06.039Z</time></trkpt><trkpt lat="44.2290856" lon="8.1182318"><ele>653.6666666666666</ele><time>2026-04-26T08:39:07.224Z</time></trkpt><trkpt lat="44.2292372" lon="8.1182459"><ele>653.0</ele><time>2026-04-26T08:39:08.216Z</time></trkpt><trkpt lat="44.2295085" lon="8.1182936"><ele>653.0</ele><time>2026-04-26T08:39:10.113Z</time></trkpt><trkpt lat="44.2296355" lon="8.1183246"><ele>653.0</ele><time>2026-04-26T08:39:11.072Z</time></trkpt><trkpt lat="44.2297726" lon="8.1183581"><ele>653.0</ele><time>2026-04-26T08:39:12.127Z</time></trkpt><trkpt lat="44.2299055" lon="8.1183773"><ele>653.0</ele><time>2026-04-26T08:39:13.101Z</time></trkpt><trkpt lat="44.2300486" lon="8.1183674"><ele>652.6666666666666</ele><time>2026-04-26T08:39:14.12Z</time></trkpt><trkpt lat="44.2301922" lon="8.1183355"><ele>652.3333333333334</ele><time>2026-04-26T08:39:15.191Z</time></trkpt><trkpt lat="44.2304394" lon="8.1182792"><ele>652.0</ele><time>2026-04-26T08:39:17.186Z</time></trkpt><trkpt lat="44.230651" lon="8.1182375"><ele>651.6666666666667</ele><time>2026-04-26T08:39:19.05Z</time></trkpt><trkpt lat="44.2307799" lon="8.1182101"><ele>651.3333333333334</ele><time>2026-04-26T08:39:20.242Z</time></trkpt><trkpt lat="44.2308831" lon="8.1181862"><ele>651.0</ele><time>2026-04-26T08:39:21.156Z</time></trkpt><trkpt lat="44.2311223" lon="8.11814"><ele>651.0</ele><time>2026-04-26T08:39:23.238Z</time></trkpt><trkpt lat="44.2313468" lon="8.1180964"><ele>651.0</ele><time>2026-04-26T08:39:25.167Z</time></trkpt><trkpt lat="44.2315794" lon="8.1180547"><ele>650.3333333333334</ele><time>2026-04-26T08:39:27.113Z</time></trkpt><trkpt lat="44.2317346" lon="8.1180224"><ele>649.6666666666667</ele><time>2026-04-26T08:39:28.345Z</time></trkpt><trkpt lat="44.2319453" lon="8.1179911"><ele>649.0</ele><time>2026-04-26T08:39:30.07Z</time></trkpt><trkpt lat="44.2321901" lon="8.1179506"><ele>648.75</ele><time>2026-04-26T08:39:31.966Z</time></trkpt><trkpt lat="44.2323216" lon="8.1179271"><ele>648.5</ele><time>2026-04-26T08:39:32.968Z</time></trkpt><trkpt lat="44.2324522" lon="8.1179055"><ele>648.25</ele><time>2026-04-26T08:39:33.974Z</time></trkpt><trkpt lat="44.2325858" lon="8.1178795"><ele>648.0</ele><time>2026-04-26T08:39:35.025Z</time></trkpt><trkpt lat="44.2327208" lon="8.1178516"><ele>648.0</ele><time>2026-04-26T08:39:36.096Z</time></trkpt><trkpt lat="44.2328436" lon="8.1178231"><ele>648.0</ele><time>2026-04-26T08:39:37.083Z</time></trkpt><trkpt lat="44.2329673" lon="8.1177927"><ele>648.0</ele><time>2026-04-26T08:39:38.068Z</time></trkpt><trkpt lat="44.2331043" lon="8.1177612"><ele>648.0</ele><time>2026-04-26T08:39:39.14Z</time></trkpt><trkpt lat="44.2332465" lon="8.117727"><ele>648.3333333333334</ele><time>2026-04-26T08:39:40.234Z</time></trkpt><trkpt lat="44.2335062" lon="8.1176661"><ele>648.6666666666667</ele><time>2026-04-26T08:39:42.258Z</time></trkpt><trkpt lat="44.2336338" lon="8.1176407"><ele>649.0</ele><time>2026-04-26T08:39:43.287Z</time></trkpt><trkpt lat="44.2338638" lon="8.1176088"><ele>648.6666666666667</ele><time>2026-04-26T08:39:45.134Z</time></trkpt><trkpt lat="44.2340811" lon="8.1175933"><ele>648.3333333333334</ele><time>2026-04-26T08:39:46.993Z</time></trkpt><trkpt lat="44.2341929" lon="8.117594"><ele>648.0</ele><time>2026-04-26T08:39:47.978Z</time></trkpt><trkpt lat="44.2343131" lon="8.1176071"><ele>648.0</ele><time>2026-04-26T08:39:49.045Z</time></trkpt><trkpt lat="44.2344406" lon="8.1176323"><ele>648.0</ele><time>2026-04-26T08:39:50.162Z</time></trkpt><trkpt lat="44.2346572" lon="8.1176939"><ele>648.0</ele><time>2026-04-26T08:39:52.06Z</time></trkpt><trkpt lat="44.2347819" lon="8.1177391"><ele>647.6666666666666</ele><time>2026-04-26T08:39:53.101Z</time></trkpt><trkpt lat="44.2349055" lon="8.117764"><ele>647.3333333333333</ele><time>2026-04-26T08:39:54.126Z</time></trkpt><trkpt lat="44.2351522" lon="8.1177147"><ele>647.0</ele><time>2026-04-26T08:39:56.218Z</time></trkpt><trkpt lat="44.2352612" lon="8.1176488"><ele>647.0</ele><time>2026-04-26T08:39:57.181Z</time></trkpt><trkpt lat="44.2353774" lon="8.1175574"><ele>647.0</ele><time>2026-04-26T08:39:58.18Z</time></trkpt><trkpt lat="44.2354732" lon="8.1174742"><ele>647.0</ele><time>2026-04-26T08:39:59.088Z</time></trkpt><trkpt lat="44.2355798" lon="8.1173856"><ele>647.0</ele><time>2026-04-26T08:40:00.09Z</time></trkpt><trkpt lat="44.2356722" lon="8.1173068"><ele>646.5</ele><time>2026-04-26T08:40:01.033Z</time></trkpt><trkpt lat="44.2357781" lon="8.1172145"><ele>646.0</ele><time>2026-04-26T08:40:02.205Z</time></trkpt><trkpt lat="44.2359393" lon="8.1170728"><ele>645.5</ele><time>2026-04-26T08:40:04.174Z</time></trkpt><trkpt lat="44.2360074" lon="8.117016"><ele>645.0</ele><time>2026-04-26T08:40:05.119Z</time></trkpt><trkpt lat="44.2360827" lon="8.1169545"><ele>645.0</ele><time>2026-04-26T08:40:06.156Z</time></trkpt><trkpt lat="44.2362066" lon="8.1168584"><ele>645.0</ele><time>2026-04-26T08:40:07.986Z</time></trkpt><trkpt lat="44.2362824" lon="8.1168006"><ele>645.0</ele><time>2026-04-26T08:40:09.091Z</time></trkpt><trkpt lat="44.2363556" lon="8.1167432"><ele>645.0</ele><time>2026-04-26T08:40:10.904Z</time></trkpt><trkpt lat="44.2364686" lon="8.1166642"><ele>645.0</ele><time>2026-04-26T08:40:14.854Z</time></trkpt><trkpt lat="44.2365462" lon="8.1166454"><ele>645.2</ele><time>2026-04-26T08:40:16.855Z</time></trkpt><trkpt lat="44.2366092" lon="8.1166615"><ele>645.4</ele><time>2026-04-26T08:40:17.988Z</time></trkpt><trkpt lat="44.2367413" lon="8.1166455"><ele>645.5999999999999</ele><time>2026-04-26T08:40:19.917Z</time></trkpt><trkpt lat="44.2368006" lon="8.1165735"><ele>645.8</ele><time>2026-04-26T08:40:20.884Z</time></trkpt><trkpt lat="44.2368621" lon="8.1164397"><ele>646.0</ele><time>2026-04-26T08:40:22.124Z</time></trkpt><trkpt lat="44.2369269" lon="8.1163048"><ele>645.4</ele><time>2026-04-26T08:40:23.99Z</time></trkpt><trkpt lat="44.2369792" lon="8.1162107"><ele>644.8</ele><time>2026-04-26T08:40:25.975Z</time></trkpt><trkpt lat="44.2370495" lon="8.1160146"><ele>644.1999999999999</ele><time>2026-04-26T08:40:29.014Z</time></trkpt><trkpt lat="44.2371277" lon="8.1159554"><ele>643.5999999999999</ele><time>2026-04-26T08:40:31.018Z</time></trkpt><trkpt lat="44.237189" lon="8.1160002"><ele>643.0</ele><time>2026-04-26T08:40:32.986Z</time></trkpt><trkpt lat="44.2372666" lon="8.116027"><ele>643.0</ele><time>2026-04-26T08:40:35.941Z</time></trkpt><trkpt lat="44.2373335" lon="8.1160052"><ele>643.0</ele><time>2026-04-26T08:40:40.03Z</time></trkpt><trkpt lat="44.2373114" lon="8.1160911"><ele>643.0</ele><time>2026-04-26T08:41:35.126Z</time></trkpt><trkpt lat="44.2373798" lon="8.1161217"><ele>643.0</ele><time>2026-04-26T08:41:50.097Z</time></trkpt><trkpt lat="44.2373284" lon="8.1160694"><ele>643.0</ele><time>2026-04-26T08:42:52.248Z</time></trkpt><trkpt lat="44.237263" lon="8.116065"><ele>643.0</ele><time>2026-04-26T08:45:31.062Z</time></trkpt><trkpt lat="44.2373339" lon="8.1160603"><ele>643.0</ele><time>2026-04-26T08:49:07.068Z</time></trkpt><trkpt lat="44.2372744" lon="8.1161541"><ele>643.0</ele><time>2026-04-26T08:54:03.175Z</time></trkpt><trkpt lat="44.2373431" lon="8.1161696"><ele>643.0</ele><time>2026-04-26T08:57:08.088Z</time></trkpt><trkpt lat="44.2374173" lon="8.1161636"><ele>643.0</ele><time>2026-04-26T09:01:00.084Z</time></trkpt><trkpt lat="44.2373469" lon="8.1161437"><ele>643.0</ele><time>2026-04-26T09:01:20.119Z</time></trkpt><trkpt lat="44.2372992" lon="8.1160772"><ele>643.0</ele><time>2026-04-26T09:04:42.627Z</time></trkpt><trkpt lat="44.2373403" lon="8.1160063"><ele>643.0</ele><time>2026-04-26T09:04:46.639Z</time></trkpt><trkpt lat="44.2373315" lon="8.1159176"><ele>643.0</ele><time>2026-04-26T09:07:24.961Z</time></trkpt><trkpt lat="44.2372741" lon="8.1159887"><ele>643.0</ele><time>2026-04-26T09:07:31.147Z</time></trkpt><trkpt lat="44.2372158" lon="8.1159327"><ele>643.0</ele><time>2026-04-26T09:07:34.107Z</time></trkpt><trkpt lat="44.2371441" lon="8.1158712"><ele>643.0</ele><time>2026-04-26T09:07:48.943Z</time></trkpt><trkpt lat="44.2370767" lon="8.1158955"><ele>643.0</ele><time>2026-04-26T09:07:50.072Z</time></trkpt><trkpt lat="44.2369344" lon="8.1159545"><ele>643.0</ele><time>2026-04-26T09:07:51.971Z</time></trkpt><trkpt lat="44.2368654" lon="8.1160297"><ele>643.0</ele><time>2026-04-26T09:07:53.005Z</time></trkpt><trkpt lat="44.2368234" lon="8.1161226"><ele>643.0</ele><time>2026-04-26T09:07:53.929Z</time></trkpt><trkpt lat="44.236781" lon="8.1162444"><ele>643.0</ele><time>2026-04-26T09:07:55.078Z</time></trkpt><trkpt lat="44.2367408" lon="8.1163256"><ele>643.0</ele><time>2026-04-26T09:07:56.008Z</time></trkpt><trkpt lat="44.2366986" lon="8.1164076"><ele>643.0</ele><time>2026-04-26T09:07:57.043Z</time></trkpt><trkpt lat="44.2366622" lon="8.1165618"><ele>643.0</ele><time>2026-04-26T09:07:59.029Z</time></trkpt><trkpt lat="44.2366714" lon="8.1166539"><ele>644.0</ele><time>2026-04-26T09:08:00.13Z</time></trkpt><trkpt lat="44.2366883" lon="8.1168532"><ele>645.0</ele><time>2026-04-26T09:08:02.202Z</time></trkpt><trkpt lat="44.2366228" lon="8.1170613"><ele>646.0</ele><time>2026-04-26T09:08:04.187Z</time></trkpt><trkpt lat="44.2365374" lon="8.1172805"><ele>646.5</ele><time>2026-04-26T09:08:06.077Z</time></trkpt><trkpt lat="44.2364886" lon="8.1174026"><ele>647.0</ele><time>2026-04-26T09:08:07.074Z</time></trkpt><trkpt lat="44.2364419" lon="8.1175322"><ele>647.5</ele><time>2026-04-26T09:08:08.094Z</time></trkpt><trkpt lat="44.2363961" lon="8.1176831"><ele>648.0</ele><time>2026-04-26T09:08:09.265Z</time></trkpt><trkpt lat="44.2363193" lon="8.1178592"><ele>648.0</ele><time>2026-04-26T09:08:11.216Z</time></trkpt><trkpt lat="44.2362597" lon="8.1180186"><ele>648.0</ele><time>2026-04-26T09:08:13.159Z</time></trkpt><trkpt lat="44.2362249" lon="8.1181032"><ele>648.0</ele><time>2026-04-26T09:08:14.204Z</time></trkpt><trkpt lat="44.2361721" lon="8.1182424"><ele>648.0</ele><time>2026-04-26T09:08:16.072Z</time></trkpt><trkpt lat="44.2361472" lon="8.1183728"><ele>648.0</ele><time>2026-04-26T09:08:17.178Z</time></trkpt><trkpt lat="44.2361242" lon="8.118624"><ele>649.0</ele><time>2026-04-26T09:08:19.209Z</time></trkpt><trkpt lat="44.2361181" lon="8.1189075"><ele>650.0</ele><time>2026-04-26T09:08:21.269Z</time></trkpt><trkpt lat="44.236105" lon="8.1192124"><ele>651.0</ele><time>2026-04-26T09:08:23.337Z</time></trkpt><trkpt lat="44.2361015" lon="8.1193361"><ele>651.0</ele><time>2026-04-26T09:08:24.044Z</time></trkpt><trkpt lat="44.2360971" lon="8.1195543"><ele>651.0</ele><time>2026-04-26T09:08:25.296Z</time></trkpt><trkpt lat="44.2360864" lon="8.1198799"><ele>651.0</ele><time>2026-04-26T09:08:27.094Z</time></trkpt><trkpt lat="44.2360809" lon="8.1200555"><ele>651.75</ele><time>2026-04-26T09:08:28.041Z</time></trkpt><trkpt lat="44.2360748" lon="8.12024"><ele>652.5</ele><time>2026-04-26T09:08:29.007Z</time></trkpt><trkpt lat="44.2360711" lon="8.1204466"><ele>653.25</ele><time>2026-04-26T09:08:30.058Z</time></trkpt><trkpt lat="44.2360704" lon="8.1206424"><ele>654.0</ele><time>2026-04-26T09:08:31.057Z</time></trkpt><trkpt lat="44.2360715" lon="8.1208496"><ele>655.75</ele><time>2026-04-26T09:08:32.117Z</time></trkpt><trkpt lat="44.2360714" lon="8.1210359"><ele>657.5</ele><time>2026-04-26T09:08:33.084Z</time></trkpt><trkpt lat="44.2360562" lon="8.1212409"><ele>659.25</ele><time>2026-04-26T09:08:34.129Z</time></trkpt><trkpt lat="44.2360247" lon="8.1214173"><ele>661.0</ele><time>2026-04-26T09:08:35.052Z</time></trkpt><trkpt lat="44.235976" lon="8.1216458"><ele>661.0</ele><time>2026-04-26T09:08:36.222Z</time></trkpt><trkpt lat="44.2358728" lon="8.1221162"><ele>661.0</ele><time>2026-04-26T09:08:38.246Z</time></trkpt><trkpt lat="44.235769" lon="8.1226078"><ele>661.0</ele><time>2026-04-26T09:08:40.122Z</time></trkpt><trkpt lat="44.2357097" lon="8.122882"><ele>661.0</ele><time>2026-04-26T09:08:41.147Z</time></trkpt><trkpt lat="44.2356587" lon="8.1231109"><ele>661.0</ele><time>2026-04-26T09:08:42.057Z</time></trkpt><trkpt lat="44.2356077" lon="8.123334"><ele>666.3333333333334</ele><time>2026-04-26T09:08:43.013Z</time></trkpt><trkpt lat="44.2355447" lon="8.1235948"><ele>671.6666666666666</ele><time>2026-04-26T09:08:44.216Z</time></trkpt><trkpt lat="44.2354949" lon="8.1238077"><ele>677.0</ele><time>2026-04-26T09:08:45.162Z</time></trkpt><trkpt lat="44.2354509" lon="8.124025"><ele>675.6666666666666</ele><time>2026-04-26T09:08:46.217Z</time></trkpt><trkpt lat="44.2354024" lon="8.1242224"><ele>674.3333333333334</ele><time>2026-04-26T09:08:47.282Z</time></trkpt><trkpt lat="44.2352573" lon="8.1245457"><ele>673.0</ele><time>2026-04-26T09:08:49.155Z</time></trkpt><trkpt lat="44.2351439" lon="8.1247033"><ele>673.0</ele><time>2026-04-26T09:08:50.154Z</time></trkpt><trkpt lat="44.2350312" lon="8.124842"><ele>673.0</ele><time>2026-04-26T09:08:51.093Z</time></trkpt><trkpt lat="44.2349207" lon="8.1249726"><ele>673.0</ele><time>2026-04-26T09:08:52.063Z</time></trkpt><trkpt lat="44.2347703" lon="8.1251533"><ele>673.75</ele><time>2026-04-26T09:08:53.444Z</time></trkpt><trkpt lat="44.2346253" lon="8.1253329"><ele>674.5</ele><time>2026-04-26T09:08:55.052Z</time></trkpt><trkpt lat="44.2345475" lon="8.1254727"><ele>675.25</ele><time>2026-04-26T09:08:56.161Z</time></trkpt><trkpt lat="44.2344964" lon="8.1256098"><ele>676.0</ele><time>2026-04-26T09:08:57.159Z</time></trkpt><trkpt lat="44.2344648" lon="8.125954"><ele>676.0</ele><time>2026-04-26T09:08:59.203Z</time></trkpt><trkpt lat="44.2345359" lon="8.1263543"><ele>676.0</ele><time>2026-04-26T09:09:01.221Z</time></trkpt><trkpt lat="44.2345923" lon="8.1267699"><ele>675.0</ele><time>2026-04-26T09:09:03.171Z</time></trkpt><trkpt lat="44.2346158" lon="8.126946"><ele>674.0</ele><time>2026-04-26T09:09:04.079Z</time></trkpt><trkpt lat="44.2346456" lon="8.1271648"><ele>673.0</ele><time>2026-04-26T09:09:05.187Z</time></trkpt><trkpt lat="44.2346719" lon="8.1273592"><ele>672.0</ele><time>2026-04-26T09:09:06.259Z</time></trkpt><trkpt lat="44.2347159" lon="8.1276696"><ele>672.0</ele><time>2026-04-26T09:09:08.017Z</time></trkpt><trkpt lat="44.2347516" lon="8.127908"><ele>672.0</ele><time>2026-04-26T09:09:09.316Z</time></trkpt><trkpt lat="44.2347977" lon="8.1282656"><ele>672.0</ele><time>2026-04-26T09:09:11.183Z</time></trkpt><trkpt lat="44.2348527" lon="8.1286372"><ele>671.3333333333334</ele><time>2026-04-26T09:09:13.026Z</time></trkpt><trkpt lat="44.2348894" lon="8.1288796"><ele>670.6666666666667</ele><time>2026-04-26T09:09:14.225Z</time></trkpt><trkpt lat="44.2349137" lon="8.1290679"><ele>670.0</ele><time>2026-04-26T09:09:15.179Z</time></trkpt><trkpt lat="44.2349453" lon="8.1292774"><ele>670.0</ele><time>2026-04-26T09:09:16.298Z</time></trkpt><trkpt lat="44.2349996" lon="8.1295975"><ele>670.0</ele><time>2026-04-26T09:09:18.198Z</time></trkpt><trkpt lat="44.2350287" lon="8.1297846"><ele>670.0</ele><time>2026-04-26T09:09:19.295Z</time></trkpt><trkpt lat="44.2350447" lon="8.1301015"><ele>670.3333333333334</ele><time>2026-04-26T09:09:21.277Z</time></trkpt><trkpt lat="44.2349806" lon="8.1304138"><ele>670.6666666666666</ele><time>2026-04-26T09:09:23.326Z</time></trkpt><trkpt lat="44.2348995" lon="8.1306877"><ele>671.0</ele><time>2026-04-26T09:09:25.016Z</time></trkpt><trkpt lat="44.2348572" lon="8.1308596"><ele>671.0</ele><time>2026-04-26T09:09:25.997Z</time></trkpt><trkpt lat="44.2348154" lon="8.1310328"><ele>671.0</ele><time>2026-04-26T09:09:27.034Z</time></trkpt><trkpt lat="44.2347759" lon="8.1312013"><ele>671.0</ele><time>2026-04-26T09:09:28.019Z</time></trkpt><trkpt lat="44.2347345" lon="8.1313748"><ele>671.0</ele><time>2026-04-26T09:09:28.99Z</time></trkpt><trkpt lat="44.2346873" lon="8.1315747"><ele>672.6666666666666</ele><time>2026-04-26T09:09:30.083Z</time></trkpt><trkpt lat="44.2346429" lon="8.131747"><ele>674.3333333333334</ele><time>2026-04-26T09:09:31.037Z</time></trkpt><trkpt lat="44.2345951" lon="8.1319396"><ele>676.0</ele><time>2026-04-26T09:09:32.162Z</time></trkpt><trkpt lat="44.2344928" lon="8.1322653"><ele>676.0</ele><time>2026-04-26T09:09:34.134Z</time></trkpt><trkpt lat="44.2344274" lon="8.1326419"><ele>676.0</ele><time>2026-04-26T09:09:36.152Z</time></trkpt><trkpt lat="44.2343984" lon="8.1328584"><ele>676.0</ele><time>2026-04-26T09:09:37.262Z</time></trkpt><trkpt lat="44.2343462" lon="8.1332415"><ele>676.3333333333334</ele><time>2026-04-26T09:09:39.222Z</time></trkpt><trkpt lat="44.2342919" lon="8.1335789"><ele>676.6666666666666</ele><time>2026-04-26T09:09:41.031Z</time></trkpt><trkpt lat="44.2342494" lon="8.1337684"><ele>677.0</ele><time>2026-04-26T09:09:42.107Z</time></trkpt><trkpt lat="44.2342067" lon="8.1339383"><ele>676.6666666666666</ele><time>2026-04-26T09:09:43.178Z</time></trkpt><trkpt lat="44.2341661" lon="8.1341056"><ele>676.3333333333334</ele><time>2026-04-26T09:09:44.267Z</time></trkpt><trkpt lat="44.2341168" lon="8.1344236"><ele>676.0</ele><time>2026-04-26T09:09:46.199Z</time></trkpt><trkpt lat="44.2341085" lon="8.1347075"><ele>676.0</ele><time>2026-04-26T09:09:48.116Z</time></trkpt><trkpt lat="44.2341" lon="8.1348679"><ele>676.0</ele><time>2026-04-26T09:09:49.105Z</time></trkpt><trkpt lat="44.234084" lon="8.1350844"><ele>676.0</ele><time>2026-04-26T09:09:50.297Z</time></trkpt><trkpt lat="44.2340704" lon="8.1352322"><ele>676.0</ele><time>2026-04-26T09:09:51.071Z</time></trkpt><trkpt lat="44.2340551" lon="8.1354019"><ele>677.5</ele><time>2026-04-26T09:09:51.922Z</time></trkpt><trkpt lat="44.2340293" lon="8.135644"><ele>679.0</ele><time>2026-04-26T09:09:53.148Z</time></trkpt><trkpt lat="44.2339915" lon="8.1361031"><ele>681.0</ele><time>2026-04-26T09:09:55.261Z</time></trkpt><trkpt lat="44.2339541" lon="8.1366337"><ele>683.0</ele><time>2026-04-26T09:09:57.261Z</time></trkpt><trkpt lat="44.2339231" lon="8.1371853"><ele>683.0</ele><time>2026-04-26T09:09:59.233Z</time></trkpt><trkpt lat="44.2338944" lon="8.1377638"><ele>683.0</ele><time>2026-04-26T09:10:01.264Z</time></trkpt><trkpt lat="44.2338656" lon="8.1383301"><ele>683.6666666666666</ele><time>2026-04-26T09:10:03.18Z</time></trkpt><trkpt lat="44.2338491" lon="8.1386028"><ele>684.3333333333334</ele><time>2026-04-26T09:10:04.107Z</time></trkpt><trkpt lat="44.2338328" lon="8.1388954"><ele>685.0</ele><time>2026-04-26T09:10:05.113Z</time></trkpt><trkpt lat="44.2338155" lon="8.1392119"><ele>685.3333333333334</ele><time>2026-04-26T09:10:06.198Z</time></trkpt><trkpt lat="44.2337973" lon="8.1394776"><ele>685.6666666666666</ele><time>2026-04-26T09:10:07.114Z</time></trkpt><trkpt lat="44.2337787" lon="8.1397701"><ele>686.0</ele><time>2026-04-26T09:10:08.108Z</time></trkpt><trkpt lat="44.2337593" lon="8.1400676"><ele>686.0</ele><time>2026-04-26T09:10:09.118Z</time></trkpt><trkpt lat="44.2337408" lon="8.1403333"><ele>686.0</ele><time>2026-04-26T09:10:10.027Z</time></trkpt><trkpt lat="44.2337115" lon="8.1406674"><ele>686.0</ele><time>2026-04-26T09:10:11.183Z</time></trkpt><trkpt lat="44.2336433" lon="8.1412392"><ele>688.5</ele><time>2026-04-26T09:10:13.252Z</time></trkpt><trkpt lat="44.2335615" lon="8.1417526"><ele>691.0</ele><time>2026-04-26T09:10:15.193Z</time></trkpt><trkpt lat="44.2334881" lon="8.1422904"><ele>692.5</ele><time>2026-04-26T09:10:17.288Z</time></trkpt><trkpt lat="44.2334888" lon="8.1428151"><ele>694.0</ele><time>2026-04-26T09:10:19.236Z</time></trkpt><trkpt lat="44.2334903" lon="8.1433148"><ele>695.0</ele><time>2026-04-26T09:10:21.043Z</time></trkpt><trkpt lat="44.2334967" lon="8.1436185"><ele>696.0</ele><time>2026-04-26T09:10:22.131Z</time></trkpt><trkpt lat="44.2335011" lon="8.1439004"><ele>697.0</ele><time>2026-04-26T09:10:23.132Z</time></trkpt><trkpt lat="44.2335023" lon="8.1441926"><ele>697.6666666666667</ele><time>2026-04-26T09:10:24.16Z</time></trkpt><trkpt lat="44.2335057" lon="8.14447"><ele>698.3333333333334</ele><time>2026-04-26T09:10:25.14Z</time></trkpt><trkpt lat="44.2335183" lon="8.1447499"><ele>699.0</ele><time>2026-04-26T09:10:26.16Z</time></trkpt><trkpt lat="44.2335309" lon="8.145023"><ele>701.0</ele><time>2026-04-26T09:10:27.209Z</time></trkpt><trkpt lat="44.2335442" lon="8.1454544"><ele>703.0</ele><time>2026-04-26T09:10:29.095Z</time></trkpt><trkpt lat="44.2335343" lon="8.1456966"><ele>704.0</ele><time>2026-04-26T09:10:30.169Z</time></trkpt><trkpt lat="44.2334864" lon="8.1459187"><ele>705.0</ele><time>2026-04-26T09:10:31.123Z</time></trkpt><trkpt lat="44.2333972" lon="8.1461599"><ele>706.0</ele><time>2026-04-26T09:10:32.171Z</time></trkpt><trkpt lat="44.2333105" lon="8.1463725"><ele>704.0</ele><time>2026-04-26T09:10:33.11Z</time></trkpt><trkpt lat="44.2332212" lon="8.1465905"><ele>702.0</ele><time>2026-04-26T09:10:34.071Z</time></trkpt><trkpt lat="44.2331197" lon="8.1468254"><ele>700.0</ele><time>2026-04-26T09:10:35.154Z</time></trkpt><trkpt lat="44.2330341" lon="8.1470671"><ele>701.0</ele><time>2026-04-26T09:10:36.248Z</time></trkpt><trkpt lat="44.2329259" lon="8.1475252"><ele>702.0</ele><time>2026-04-26T09:10:38.056Z</time></trkpt><trkpt lat="44.2328882" lon="8.1478324"><ele>703.0</ele><time>2026-04-26T09:10:39.255Z</time></trkpt><trkpt lat="44.2328273" lon="8.1483266"><ele>704.0</ele><time>2026-04-26T09:10:41.174Z</time></trkpt><trkpt lat="44.2328032" lon="8.1485631"><ele>704.0</ele><time>2026-04-26T09:10:42.097Z</time></trkpt><trkpt lat="44.2327817" lon="8.1488086"><ele>704.0</ele><time>2026-04-26T09:10:43.122Z</time></trkpt><trkpt lat="44.2327624" lon="8.1490438"><ele>704.0</ele><time>2026-04-26T09:10:44.149Z</time></trkpt><trkpt lat="44.2327661" lon="8.149265"><ele>705.0</ele><time>2026-04-26T09:10:45.12Z</time></trkpt><trkpt lat="44.2328183" lon="8.1495153"><ele>706.0</ele><time>2026-04-26T09:10:46.231Z</time></trkpt><trkpt lat="44.232904" lon="8.14969"><ele>707.0</ele><time>2026-04-26T09:10:47.15Z</time></trkpt><trkpt lat="44.2330115" lon="8.1498637"><ele>716.5</ele><time>2026-04-26T09:10:48.068Z</time></trkpt><trkpt lat="44.2331498" lon="8.1500799"><ele>726.0</ele><time>2026-04-26T09:10:49.196Z</time></trkpt><trkpt lat="44.233365" lon="8.1504536"><ele>720.0</ele><time>2026-04-26T09:10:50.974Z</time></trkpt><trkpt lat="44.2335" lon="8.1507264"><ele>714.0</ele><time>2026-04-26T09:10:52.22Z</time></trkpt><trkpt lat="44.2336128" lon="8.151106"><ele>714.0</ele><time>2026-04-26T09:10:53.964Z</time></trkpt><trkpt lat="44.2336677" lon="8.1513243"><ele>714.0</ele><time>2026-04-26T09:10:55.093Z</time></trkpt><trkpt lat="44.2337142" lon="8.1515022"><ele>714.0</ele><time>2026-04-26T09:10:56.117Z</time></trkpt><trkpt lat="44.2337554" lon="8.1516581"><ele>714.0</ele><time>2026-04-26T09:10:57.078Z</time></trkpt><trkpt lat="44.2338037" lon="8.1518242"><ele>714.0</ele><time>2026-04-26T09:10:58.197Z</time></trkpt><trkpt lat="44.2338747" lon="8.1520886"><ele>714.0</ele><time>2026-04-26T09:11:00.21Z</time></trkpt><trkpt lat="44.2339385" lon="8.1523284"><ele>714.0</ele><time>2026-04-26T09:11:02.295Z</time></trkpt><trkpt lat="44.2339863" lon="8.1525466"><ele>714.0</ele><time>2026-04-26T09:11:04.172Z</time></trkpt><trkpt lat="44.2340126" lon="8.1528206"><ele>714.0</ele><time>2026-04-26T09:11:06.231Z</time></trkpt><trkpt lat="44.2340007" lon="8.1531001"><ele>714.0</ele><time>2026-04-26T09:11:08.134Z</time></trkpt><trkpt lat="44.2339973" lon="8.1532624"><ele>714.25</ele><time>2026-04-26T09:11:09.218Z</time></trkpt><trkpt lat="44.2340032" lon="8.1534101"><ele>714.5</ele><time>2026-04-26T09:11:10.156Z</time></trkpt><trkpt lat="44.2340268" lon="8.1535603"><ele>714.75</ele><time>2026-04-26T09:11:11.212Z</time></trkpt><trkpt lat="44.2340699" lon="8.1537333"><ele>715.0</ele><time>2026-04-26T09:11:12.216Z</time></trkpt><trkpt lat="44.2342125" lon="8.1541172"><ele>716.0</ele><time>2026-04-26T09:11:14.113Z</time></trkpt><trkpt lat="44.2343565" lon="8.1545822"><ele>717.0</ele><time>2026-04-26T09:11:16.158Z</time></trkpt><trkpt lat="44.2344048" lon="8.154809"><ele>717.6666666666666</ele><time>2026-04-26T09:11:17.123Z</time></trkpt><trkpt lat="44.2344377" lon="8.1550356"><ele>718.3333333333333</ele><time>2026-04-26T09:11:18.094Z</time></trkpt><trkpt lat="44.234452" lon="8.1553191"><ele>719.0</ele><time>2026-04-26T09:11:19.232Z</time></trkpt><trkpt lat="44.2344037" lon="8.1557779"><ele>720.3333333333333</ele><time>2026-04-26T09:11:21.059Z</time></trkpt><trkpt lat="44.2343535" lon="8.1560439"><ele>721.6666666666666</ele><time>2026-04-26T09:11:22.142Z</time></trkpt><trkpt lat="44.2343036" lon="8.1562669"><ele>723.0</ele><time>2026-04-26T09:11:23.094Z</time></trkpt><trkpt lat="44.2342499" lon="8.1565153"><ele>725.5</ele><time>2026-04-26T09:11:24.121Z</time></trkpt><trkpt lat="44.23419" lon="8.1567764"><ele>728.0</ele><time>2026-04-26T09:11:25.182Z</time></trkpt><trkpt lat="44.2340905" lon="8.1572377"><ele>732.3333333333333</ele><time>2026-04-26T09:11:27.157Z</time></trkpt><trkpt lat="44.2340619" lon="8.1574707"><ele>736.6666666666666</ele><time>2026-04-26T09:11:28.201Z</time></trkpt><trkpt lat="44.2340564" lon="8.1577093"><ele>741.0</ele><time>2026-04-26T09:11:29.203Z</time></trkpt><trkpt lat="44.2340693" lon="8.157944"><ele>741.0</ele><time>2026-04-26T09:11:30.141Z</time></trkpt><trkpt lat="44.2340749" lon="8.1581693"><ele>741.0</ele><time>2026-04-26T09:11:31.045Z</time></trkpt><trkpt lat="44.2340664" lon="8.1584462"><ele>741.0</ele><time>2026-04-26T09:11:32.213Z</time></trkpt><trkpt lat="44.2340435" lon="8.158822"><ele>745.5</ele><time>2026-04-26T09:11:34.121Z</time></trkpt><trkpt lat="44.2340451" lon="8.1593131"><ele>750.0</ele><time>2026-04-26T09:11:36.117Z</time></trkpt><trkpt lat="44.2340773" lon="8.1595383"><ele>750.0</ele><time>2026-04-26T09:11:37.09Z</time></trkpt><trkpt lat="44.2341254" lon="8.1597344"><ele>750.0</ele><time>2026-04-26T09:11:38.051Z</time></trkpt><trkpt lat="44.2341872" lon="8.1599311"><ele>750.0</ele><time>2026-04-26T09:11:39.124Z</time></trkpt><trkpt lat="44.2342566" lon="8.1600957"><ele>750.0</ele><time>2026-04-26T09:11:40.057Z</time></trkpt><trkpt lat="44.2343672" lon="8.1602786"><ele>751.0</ele><time>2026-04-26T09:11:41.186Z</time></trkpt><trkpt lat="44.2344553" lon="8.1604842"><ele>752.0</ele><time>2026-04-26T09:11:42.19Z</time></trkpt><trkpt lat="44.2345036" lon="8.1606931"><ele>753.0</ele><time>2026-04-26T09:11:43.094Z</time></trkpt><trkpt lat="44.2345766" lon="8.1609509"><ele>753.0</ele><time>2026-04-26T09:11:44.137Z</time></trkpt><trkpt lat="44.2346092" lon="8.1611922"><ele>753.0</ele><time>2026-04-26T09:11:45.167Z</time></trkpt><trkpt lat="44.2345979" lon="8.1616349"><ele>758.3333333333333</ele><time>2026-04-26T09:11:47.074Z</time></trkpt><trkpt lat="44.2345461" lon="8.162056"><ele>763.6666666666666</ele><time>2026-04-26T09:11:49.046Z</time></trkpt><trkpt lat="44.2345539" lon="8.1622474"><ele>769.0</ele><time>2026-04-26T09:11:50.138Z</time></trkpt><trkpt lat="44.2345905" lon="8.1624123"><ele>769.0</ele><time>2026-04-26T09:11:51.085Z</time></trkpt><trkpt lat="44.2346864" lon="8.1625584"><ele>769.0</ele><time>2026-04-26T09:11:52.203Z</time></trkpt><trkpt lat="44.2349506" lon="8.1627549"><ele>769.0</ele><time>2026-04-26T09:11:54.059Z</time></trkpt><trkpt lat="44.2350966" lon="8.1628499"><ele>768.75</ele><time>2026-04-26T09:11:55.11Z</time></trkpt><trkpt lat="44.235197" lon="8.1629742"><ele>768.5</ele><time>2026-04-26T09:11:56.087Z</time></trkpt><trkpt lat="44.23528" lon="8.1631346"><ele>768.25</ele><time>2026-04-26T09:11:57.181Z</time></trkpt><trkpt lat="44.2352812" lon="8.1633232"><ele>768.0</ele><time>2026-04-26T09:11:58.163Z</time></trkpt><trkpt lat="44.2352363" lon="8.163519"><ele>767.3333333333334</ele><time>2026-04-26T09:11:59.193Z</time></trkpt><trkpt lat="44.2351419" lon="8.1637163"><ele>766.6666666666667</ele><time>2026-04-26T09:12:00.353Z</time></trkpt><trkpt lat="44.235004" lon="8.1639904"><ele>766.0</ele><time>2026-04-26T09:12:02.087Z</time></trkpt><trkpt lat="44.2349691" lon="8.1641622"><ele>766.0</ele><time>2026-04-26T09:12:03.107Z</time></trkpt><trkpt lat="44.2349655" lon="8.164329"><ele>766.0</ele><time>2026-04-26T09:12:04.056Z</time></trkpt><trkpt lat="44.2349776" lon="8.1645205"><ele>766.0</ele><time>2026-04-26T09:12:05.121Z</time></trkpt><trkpt lat="44.2351264" lon="8.1647889"><ele>767.5</ele><time>2026-04-26T09:12:07.154Z</time></trkpt><trkpt lat="44.2352956" lon="8.1649122"><ele>769.0</ele><time>2026-04-26T09:12:08.3Z</time></trkpt><trkpt lat="44.2355762" lon="8.1651312"><ele>770.75</ele><time>2026-04-26T09:12:10.118Z</time></trkpt><trkpt lat="44.2356809" lon="8.1653139"><ele>772.5</ele><time>2026-04-26T09:12:11.152Z</time></trkpt><trkpt lat="44.2357287" lon="8.1654636"><ele>774.25</ele><time>2026-04-26T09:12:12.054Z</time></trkpt><trkpt lat="44.2358137" lon="8.1656406"><ele>776.0</ele><time>2026-04-26T09:12:13.102Z</time></trkpt><trkpt lat="44.2359466" lon="8.1657967"><ele>776.0</ele><time>2026-04-26T09:12:14.297Z</time></trkpt><trkpt lat="44.2360686" lon="8.1658352"><ele>776.0</ele><time>2026-04-26T09:12:15.048Z</time></trkpt><trkpt lat="44.23625" lon="8.1658785"><ele>776.0</ele><time>2026-04-26T09:12:16.162Z</time></trkpt><trkpt lat="44.2364184" lon="8.165892"><ele>780.6666666666667</ele><time>2026-04-26T09:12:17.181Z</time></trkpt><trkpt lat="44.2365534" lon="8.1658786"><ele>785.3333333333333</ele><time>2026-04-26T09:12:18.102Z</time></trkpt><trkpt lat="44.2367219" lon="8.1658979"><ele>790.0</ele><time>2026-04-26T09:12:19.183Z</time></trkpt><trkpt lat="44.2368689" lon="8.1659799"><ele>790.0</ele><time>2026-04-26T09:12:20.112Z</time></trkpt><trkpt lat="44.2370135" lon="8.1660841"><ele>790.0</ele><time>2026-04-26T09:12:21.063Z</time></trkpt><trkpt lat="44.2371564" lon="8.1661724"><ele>790.0</ele><time>2026-04-26T09:12:22.021Z</time></trkpt><trkpt lat="44.2372785" lon="8.1662706"><ele>789.75</ele><time>2026-04-26T09:12:23.011Z</time></trkpt><trkpt lat="44.2373927" lon="8.1663953"><ele>789.5</ele><time>2026-04-26T09:12:24.086Z</time></trkpt><trkpt lat="44.2374759" lon="8.1665356"><ele>789.25</ele><time>2026-04-26T09:12:25.048Z</time></trkpt><trkpt lat="44.237536" lon="8.1667201"><ele>789.0</ele><time>2026-04-26T09:12:26.032Z</time></trkpt><trkpt lat="44.2375853" lon="8.1669077"><ele>789.0</ele><time>2026-04-26T09:12:26.968Z</time></trkpt><trkpt lat="44.2376728" lon="8.1671569"><ele>789.0</ele><time>2026-04-26T09:12:28.251Z</time></trkpt><trkpt lat="44.2378378" lon="8.1674686"><ele>787.0</ele><time>2026-04-26T09:12:30.039Z</time></trkpt><trkpt lat="44.237971" lon="8.1676426"><ele>785.0</ele><time>2026-04-26T09:12:31.256Z</time></trkpt><trkpt lat="44.2381579" lon="8.1678677"><ele>783.0</ele><time>2026-04-26T09:12:33.076Z</time></trkpt><trkpt lat="44.2382741" lon="8.167965"><ele>794.0</ele><time>2026-04-26T09:12:34.142Z</time></trkpt><trkpt lat="44.238421" lon="8.1680223"><ele>805.0</ele><time>2026-04-26T09:12:35.153Z</time></trkpt><trkpt lat="44.2387159" lon="8.1680763"><ele>811.0</ele><time>2026-04-26T09:12:37.185Z</time></trkpt><trkpt lat="44.2389681" lon="8.168023"><ele>817.0</ele><time>2026-04-26T09:12:38.969Z</time></trkpt><trkpt lat="44.2390879" lon="8.1679538"><ele>823.0</ele><time>2026-04-26T09:12:40.131Z</time></trkpt><trkpt lat="44.239177" lon="8.1678958"><ele>823.0</ele><time>2026-04-26T09:12:41.067Z</time></trkpt><trkpt lat="44.2392909" lon="8.1678543"><ele>823.0</ele><time>2026-04-26T09:12:42.229Z</time></trkpt><trkpt lat="44.2393777" lon="8.1679161"><ele>823.0</ele><time>2026-04-26T09:12:44.215Z</time></trkpt><trkpt lat="44.239254" lon="8.1682156"><ele>821.0</ele><time>2026-04-26T09:12:46.15Z</time></trkpt><trkpt lat="44.2391492" lon="8.1683396"><ele>819.0</ele><time>2026-04-26T09:12:47.093Z</time></trkpt><trkpt lat="44.2390026" lon="8.1684702"><ele>817.0</ele><time>2026-04-26T09:12:48.154Z</time></trkpt><trkpt lat="44.2388615" lon="8.1685886"><ele>813.25</ele><time>2026-04-26T09:12:49.22Z</time></trkpt><trkpt lat="44.2386844" lon="8.1687148"><ele>809.5</ele><time>2026-04-26T09:12:51.04Z</time></trkpt><trkpt lat="44.2386428" lon="8.1688063"><ele>805.75</ele><time>2026-04-26T09:12:52.08Z</time></trkpt><trkpt lat="44.2386607" lon="8.1689491"><ele>802.0</ele><time>2026-04-26T09:12:53.15Z</time></trkpt><trkpt lat="44.2388574" lon="8.1691404"><ele>812.5</ele><time>2026-04-26T09:12:55.098Z</time></trkpt><trkpt lat="44.2391227" lon="8.1693788"><ele>823.0</ele><time>2026-04-26T09:12:57.133Z</time></trkpt><trkpt lat="44.2392655" lon="8.1695189"><ele>823.0</ele><time>2026-04-26T09:12:58.11Z</time></trkpt><trkpt lat="44.2394278" lon="8.1696808"><ele>823.0</ele><time>2026-04-26T09:12:59.221Z</time></trkpt><trkpt lat="44.2397048" lon="8.1699907"><ele>832.0</ele><time>2026-04-26T09:13:01.093Z</time></trkpt><trkpt lat="44.2399091" lon="8.1703448"><ele>841.0</ele><time>2026-04-26T09:13:03.151Z</time></trkpt><trkpt lat="44.2400653" lon="8.1707794"><ele>841.0</ele><time>2026-04-26T09:13:05.196Z</time></trkpt><trkpt lat="44.2401154" lon="8.1709507"><ele>841.0</ele><time>2026-04-26T09:13:05.953Z</time></trkpt><trkpt lat="44.2402003" lon="8.1711867"><ele>841.0</ele><time>2026-04-26T09:13:07.086Z</time></trkpt><trkpt lat="44.2403053" lon="8.1713857"><ele>841.3333333333333</ele><time>2026-04-26T09:13:08.103Z</time></trkpt><trkpt lat="44.2404169" lon="8.1715295"><ele>841.6666666666667</ele><time>2026-04-26T09:13:09.072Z</time></trkpt><trkpt lat="44.2406126" lon="8.1717449"><ele>842.0</ele><time>2026-04-26T09:13:10.987Z</time></trkpt><trkpt lat="44.2407193" lon="8.1718458"><ele>842.0</ele><time>2026-04-26T09:13:12.27Z</time></trkpt><trkpt lat="44.2407676" lon="8.1720054"><ele>842.0</ele><time>2026-04-26T09:13:14.106Z</time></trkpt><trkpt lat="44.240651" lon="8.1721245"><ele>842.0</ele><time>2026-04-26T09:13:16.086Z</time></trkpt><trkpt lat="44.2404987" lon="8.1721392"><ele>842.0</ele><time>2026-04-26T09:13:17.029Z</time></trkpt><trkpt lat="44.2403452" lon="8.1721076"><ele>842.0</ele><time>2026-04-26T09:13:18.1Z</time></trkpt><trkpt lat="44.2401825" lon="8.1720714"><ele>842.0</ele><time>2026-04-26T09:13:19.094Z</time></trkpt><trkpt lat="44.2400125" lon="8.1720188"><ele>842.0</ele><time>2026-04-26T09:13:20.186Z</time></trkpt><trkpt lat="44.239729" lon="8.1718326"><ele>843.6666666666667</ele><time>2026-04-26T09:13:21.954Z</time></trkpt><trkpt lat="44.2395745" lon="8.1716791"><ele>845.3333333333333</ele><time>2026-04-26T09:13:23.061Z</time></trkpt><trkpt lat="44.2394225" lon="8.1715335"><ele>847.0</ele><time>2026-04-26T09:13:24.229Z</time></trkpt><trkpt lat="44.2392369" lon="8.1713957"><ele>847.0</ele><time>2026-04-26T09:13:26.038Z</time></trkpt><trkpt lat="44.2391535" lon="8.1713703"><ele>847.0</ele><time>2026-04-26T09:13:27.082Z</time></trkpt><trkpt lat="44.2390716" lon="8.171418"><ele>847.0</ele><time>2026-04-26T09:13:29.211Z</time></trkpt><trkpt lat="44.2390331" lon="8.1715455"><ele>847.0</ele><time>2026-04-26T09:13:30.17Z</time></trkpt><trkpt lat="44.2388457" lon="8.1721337"><ele>847.6666666666666</ele><time>2026-04-26T09:13:32.148Z</time></trkpt><trkpt lat="44.2387543" lon="8.1723529"><ele>848.3333333333333</ele><time>2026-04-26T09:13:33.087Z</time></trkpt><trkpt lat="44.2386447" lon="8.1725908"><ele>849.0</ele><time>2026-04-26T09:13:34.063Z</time></trkpt><trkpt lat="44.2385279" lon="8.1727877"><ele>849.0</ele><time>2026-04-26T09:13:35.155Z</time></trkpt><trkpt lat="44.2384403" lon="8.1729637"><ele>849.0</ele><time>2026-04-26T09:13:36.182Z</time></trkpt><trkpt lat="44.238404" lon="8.173251"><ele>849.0</ele><time>2026-04-26T09:13:38.044Z</time></trkpt><trkpt lat="44.2384196" lon="8.1733622"><ele>849.0</ele><time>2026-04-26T09:13:39.102Z</time></trkpt><trkpt lat="44.2384126" lon="8.1734786"><ele>856.0</ele><time>2026-04-26T09:13:40.194Z</time></trkpt><trkpt lat="44.2381571" lon="8.1733995"><ele>863.0</ele><time>2026-04-26T09:13:42.947Z</time></trkpt><trkpt lat="44.2379327" lon="8.1733107"><ele>863.0</ele><time>2026-04-26T09:13:44.082Z</time></trkpt><trkpt lat="44.2377805" lon="8.1732656"><ele>863.0</ele><time>2026-04-26T09:13:45.037Z</time></trkpt><trkpt lat="44.2376389" lon="8.1732479"><ele>863.0</ele><time>2026-04-26T09:13:46.017Z</time></trkpt><trkpt lat="44.2375062" lon="8.173253"><ele>863.0</ele><time>2026-04-26T09:13:47.096Z</time></trkpt><trkpt lat="44.237408" lon="8.1732844"><ele>863.0</ele><time>2026-04-26T09:13:48.117Z</time></trkpt><trkpt lat="44.2373107" lon="8.1733403"><ele>863.0</ele><time>2026-04-26T09:13:49.121Z</time></trkpt><trkpt lat="44.2372076" lon="8.1734149"><ele>863.0</ele><time>2026-04-26T09:13:49.989Z</time></trkpt><trkpt lat="44.2370395" lon="8.1735633"><ele>863.0</ele><time>2026-04-26T09:13:51.211Z</time></trkpt><trkpt lat="44.2368506" lon="8.1740902"><ele>861.3333333333334</ele><time>2026-04-26T09:13:53.236Z</time></trkpt><trkpt lat="44.2367373" lon="8.1744083"><ele>859.6666666666667</ele><time>2026-04-26T09:13:55.17Z</time></trkpt><trkpt lat="44.2367186" lon="8.1745139"><ele>858.0</ele><time>2026-04-26T09:13:56.175Z</time></trkpt><trkpt lat="44.2366972" lon="8.1747068"><ele>860.3333333333333</ele><time>2026-04-26T09:13:57.252Z</time></trkpt><trkpt lat="44.2367039" lon="8.1748684"><ele>862.6666666666666</ele><time>2026-04-26T09:13:58.19Z</time></trkpt><trkpt lat="44.2367824" lon="8.1750237"><ele>865.0</ele><time>2026-04-26T09:13:59.11Z</time></trkpt><trkpt lat="44.236966" lon="8.1752241"><ele>865.0</ele><time>2026-04-26T09:14:00.253Z</time></trkpt><trkpt lat="44.2372225" lon="8.1755186"><ele>865.0</ele><time>2026-04-26T09:14:02.059Z</time></trkpt><trkpt lat="44.2373827" lon="8.1757241"><ele>879.5</ele><time>2026-04-26T09:14:03.314Z</time></trkpt><trkpt lat="44.2374976" lon="8.1761181"><ele>894.0</ele><time>2026-04-26T09:14:05.019Z</time></trkpt><trkpt lat="44.2375397" lon="8.1766793"><ele>894.0</ele><time>2026-04-26T09:14:07.218Z</time></trkpt><trkpt lat="44.2374563" lon="8.1770263"><ele>894.0</ele><time>2026-04-26T09:14:09.026Z</time></trkpt><trkpt lat="44.2374133" lon="8.1771752"><ele>894.0</ele><time>2026-04-26T09:14:10.11Z</time></trkpt><trkpt lat="44.2374089" lon="8.1773068"><ele>894.0</ele><time>2026-04-26T09:14:11.041Z</time></trkpt><trkpt lat="44.2374826" lon="8.1776926"><ele>894.0</ele><time>2026-04-26T09:14:13.014Z</time></trkpt><trkpt lat="44.2375622" lon="8.1779471"><ele>892.6666666666667</ele><time>2026-04-26T09:14:14.047Z</time></trkpt><trkpt lat="44.2376328" lon="8.1782415"><ele>891.3333333333334</ele><time>2026-04-26T09:14:15.18Z</time></trkpt><trkpt lat="44.2377009" lon="8.1784824"><ele>890.0</ele><time>2026-04-26T09:14:16.09Z</time></trkpt><trkpt lat="44.2378098" lon="8.1790229"><ele>888.3333333333334</ele><time>2026-04-26T09:14:18.16Z</time></trkpt><trkpt lat="44.2377988" lon="8.179236"><ele>886.6666666666667</ele><time>2026-04-26T09:14:19.097Z</time></trkpt><trkpt lat="44.2377975" lon="8.1794863"><ele>885.0</ele><time>2026-04-26T09:14:20.415Z</time></trkpt><trkpt lat="44.2378352" lon="8.1797762"><ele>884.3333333333333</ele><time>2026-04-26T09:14:22.077Z</time></trkpt><trkpt lat="44.237883" lon="8.1799471"><ele>883.6666666666666</ele><time>2026-04-26T09:14:23.084Z</time></trkpt><trkpt lat="44.2379321" lon="8.1803031"><ele>883.0</ele><time>2026-04-26T09:14:25.201Z</time></trkpt><trkpt lat="44.2380057" lon="8.1806019"><ele>887.0</ele><time>2026-04-26T09:14:27.081Z</time></trkpt><trkpt lat="44.2380699" lon="8.180757"><ele>891.0</ele><time>2026-04-26T09:14:28.224Z</time></trkpt><trkpt lat="44.2382935" lon="8.1811545"><ele>906.0</ele><time>2026-04-26T09:14:30.222Z</time></trkpt><trkpt lat="44.2384686" lon="8.1815703"><ele>921.0</ele><time>2026-04-26T09:14:32.222Z</time></trkpt><trkpt lat="44.2386083" lon="8.1819326"><ele>921.0</ele><time>2026-04-26T09:14:34.081Z</time></trkpt><trkpt lat="44.2386461" lon="8.1820977"><ele>921.0</ele><time>2026-04-26T09:14:35.095Z</time></trkpt><trkpt lat="44.2386805" lon="8.1822346"><ele>921.0</ele><time>2026-04-26T09:14:36.212Z</time></trkpt><trkpt lat="44.2386563" lon="8.1823767"><ele>921.0</ele><time>2026-04-26T09:14:39.101Z</time></trkpt><trkpt lat="44.2385386" lon="8.1823008"><ele>921.0</ele><time>2026-04-26T09:14:40.109Z</time></trkpt><trkpt lat="44.2383696" lon="8.1821994"><ele>921.0</ele><time>2026-04-26T09:14:41.147Z</time></trkpt><trkpt lat="44.2381716" lon="8.1820979"><ele>921.0</ele><time>2026-04-26T09:14:42.141Z</time></trkpt><trkpt lat="44.2379441" lon="8.1819749"><ele>918.5</ele><time>2026-04-26T09:14:43.282Z</time></trkpt><trkpt lat="44.2376302" lon="8.1818199"><ele>916.0</ele><time>2026-04-26T09:14:45.133Z</time></trkpt><trkpt lat="44.2375236" lon="8.1817297"><ele>916.0</ele><time>2026-04-26T09:14:46.162Z</time></trkpt><trkpt lat="44.237372" lon="8.1816287"><ele>916.0</ele><time>2026-04-26T09:14:48.153Z</time></trkpt><trkpt lat="44.2372961" lon="8.1816102"><ele>916.0</ele><time>2026-04-26T09:14:49.13Z</time></trkpt><trkpt lat="44.2372111" lon="8.181632"><ele>916.0</ele><time>2026-04-26T09:14:50.135Z</time></trkpt><trkpt lat="44.2371013" lon="8.181751"><ele>919.0</ele><time>2026-04-26T09:14:51.234Z</time></trkpt><trkpt lat="44.2368853" lon="8.1822865"><ele>922.0</ele><time>2026-04-26T09:14:53.12Z</time></trkpt><trkpt lat="44.2367533" lon="8.1827935"><ele>922.0</ele><time>2026-04-26T09:14:55.011Z</time></trkpt><trkpt lat="44.2367083" lon="8.1830688"><ele>922.0</ele><time>2026-04-26T09:14:56.217Z</time></trkpt><trkpt lat="44.2367428" lon="8.1835291"><ele>932.0</ele><time>2026-04-26T09:14:58.13Z</time></trkpt><trkpt lat="44.2367906" lon="8.1841144"><ele>942.0</ele><time>2026-04-26T09:15:00.102Z</time></trkpt><trkpt lat="44.2368316" lon="8.1843727"><ele>942.0</ele><time>2026-04-26T09:15:01.114Z</time></trkpt><trkpt lat="44.236888" lon="8.184636"><ele>942.0</ele><time>2026-04-26T09:15:02.23Z</time></trkpt><trkpt lat="44.2369712" lon="8.1849597"><ele>942.0</ele><time>2026-04-26T09:15:04.158Z</time></trkpt><trkpt lat="44.2369942" lon="8.1851572"><ele>944.5</ele><time>2026-04-26T09:15:06Z</time></trkpt><trkpt lat="44.2369474" lon="8.1853032"><ele>947.0</ele><time>2026-04-26T09:15:08.123Z</time></trkpt><trkpt lat="44.2368573" lon="8.185299"><ele>949.5</ele><time>2026-04-26T09:15:09.118Z</time></trkpt><trkpt lat="44.2367011" lon="8.1852558"><ele>952.0</ele><time>2026-04-26T09:15:10.154Z</time></trkpt><trkpt lat="44.2364817" lon="8.1849942"><ele>956.3333333333333</ele><time>2026-04-26T09:15:12.152Z</time></trkpt><trkpt lat="44.2363624" lon="8.1848603"><ele>960.6666666666667</ele><time>2026-04-26T09:15:13.072Z</time></trkpt><trkpt lat="44.2362272" lon="8.1847262"><ele>965.0</ele><time>2026-04-26T09:15:14.104Z</time></trkpt><trkpt lat="44.2361005" lon="8.1846105"><ele>956.5</ele><time>2026-04-26T09:15:15.076Z</time></trkpt><trkpt lat="44.2359742" lon="8.1844898"><ele>948.0</ele><time>2026-04-26T09:15:16.083Z</time></trkpt><trkpt lat="44.2358547" lon="8.1844099"><ele>939.5</ele><time>2026-04-26T09:15:17.062Z</time></trkpt><trkpt lat="44.2357195" lon="8.1843644"><ele>931.0</ele><time>2026-04-26T09:15:18.195Z</time></trkpt><trkpt lat="44.2354972" lon="8.184414"><ele>927.6666666666666</ele><time>2026-04-26T09:15:20.137Z</time></trkpt><trkpt lat="44.2353802" lon="8.1844943"><ele>924.3333333333333</ele><time>2026-04-26T09:15:21.111Z</time></trkpt><trkpt lat="44.2352405" lon="8.1846161"><ele>921.0</ele><time>2026-04-26T09:15:22.139Z</time></trkpt><trkpt lat="44.2351097" lon="8.1847485"><ele>921.3333333333333</ele><time>2026-04-26T09:15:23.056Z</time></trkpt><trkpt lat="44.2349762" lon="8.1849109"><ele>921.6666666666666</ele><time>2026-04-26T09:15:24.073Z</time></trkpt><trkpt lat="44.2348755" lon="8.185075"><ele>922.0</ele><time>2026-04-26T09:15:25.147Z</time></trkpt><trkpt lat="44.2347413" lon="8.1854264"><ele>922.0</ele><time>2026-04-26T09:15:27.164Z</time></trkpt><trkpt lat="44.2347061" lon="8.1856303"><ele>922.0</ele><time>2026-04-26T09:15:28.1Z</time></trkpt><trkpt lat="44.2346702" lon="8.185869"><ele>922.0</ele><time>2026-04-26T09:15:29.098Z</time></trkpt><trkpt lat="44.2346263" lon="8.1861123"><ele>933.0</ele><time>2026-04-26T09:15:30.181Z</time></trkpt><trkpt lat="44.2344647" lon="8.1864908"><ele>944.0</ele><time>2026-04-26T09:15:32.035Z</time></trkpt><trkpt lat="44.2343468" lon="8.1867336"><ele>942.0</ele><time>2026-04-26T09:15:33.105Z</time></trkpt><trkpt lat="44.2342123" lon="8.1869028"><ele>940.0</ele><time>2026-04-26T09:15:34.091Z</time></trkpt><trkpt lat="44.2340488" lon="8.1870216"><ele>938.0</ele><time>2026-04-26T09:15:35.129Z</time></trkpt><trkpt lat="44.2339357" lon="8.187142"><ele>938.0</ele><time>2026-04-26T09:15:36.069Z</time></trkpt><trkpt lat="44.2338222" lon="8.1872824"><ele>938.0</ele><time>2026-04-26T09:15:37.115Z</time></trkpt><trkpt lat="44.2336828" lon="8.1876823"><ele>942.0</ele><time>2026-04-26T09:15:39.014Z</time></trkpt><trkpt lat="44.2336466" lon="8.1879117"><ele>946.0</ele><time>2026-04-26T09:15:40.146Z</time></trkpt><trkpt lat="44.233625" lon="8.1880713"><ele>950.0</ele><time>2026-04-26T09:15:41.121Z</time></trkpt><trkpt lat="44.2336372" lon="8.1882481"><ele>954.0</ele><time>2026-04-26T09:15:42.141Z</time></trkpt><trkpt lat="44.2336721" lon="8.1883956"><ele>954.6666666666667</ele><time>2026-04-26T09:15:43.078Z</time></trkpt><trkpt lat="44.2337423" lon="8.1885639"><ele>955.3333333333334</ele><time>2026-04-26T09:15:44.104Z</time></trkpt><trkpt lat="44.2338353" lon="8.1887376"><ele>956.0</ele><time>2026-04-26T09:15:45.191Z</time></trkpt><trkpt lat="44.2339368" lon="8.1890675"><ele>966.0</ele><time>2026-04-26T09:15:47.182Z</time></trkpt><trkpt lat="44.2340672" lon="8.1892637"><ele>976.0</ele><time>2026-04-26T09:15:49.267Z</time></trkpt><trkpt lat="44.2342054" lon="8.1893453"><ele>986.0</ele><time>2026-04-26T09:15:50.229Z</time></trkpt><trkpt lat="44.2344831" lon="8.1894579"><ele>986.0</ele><time>2026-04-26T09:15:52.102Z</time></trkpt><trkpt lat="44.2345597" lon="8.1895237"><ele>985.9999999999999</ele><time>2026-04-26T09:15:53.11Z</time></trkpt><trkpt lat="44.2346084" lon="8.1896141"><ele>985.9999999999999</ele><time>2026-04-26T09:15:54.09Z</time></trkpt><trkpt lat="44.2346283" lon="8.1897155"><ele>986.0</ele><time>2026-04-26T09:15:55.186Z</time></trkpt><trkpt lat="44.2345876" lon="8.1898156"><ele>986.0</ele><time>2026-04-26T09:15:56.112Z</time></trkpt><trkpt lat="44.2345014" lon="8.1899623"><ele>983.3333333333334</ele><time>2026-04-26T09:15:57.041Z</time></trkpt><trkpt lat="44.2343918" lon="8.1901522"><ele>980.6666666666667</ele><time>2026-04-26T09:15:58.125Z</time></trkpt><trkpt lat="44.2342736" lon="8.1903444"><ele>978.0</ele><time>2026-04-26T09:15:59.067Z</time></trkpt><trkpt lat="44.2341127" lon="8.1905216"><ele>978.0</ele><time>2026-04-26T09:16:00.162Z</time></trkpt><trkpt lat="44.2339718" lon="8.1906533"><ele>978.0</ele><time>2026-04-26T09:16:01.123Z</time></trkpt><trkpt lat="44.2338529" lon="8.1907841"><ele>978.0</ele><time>2026-04-26T09:16:02.061Z</time></trkpt><trkpt lat="44.233747" lon="8.1909223"><ele>978.0</ele><time>2026-04-26T09:16:03.13Z</time></trkpt><trkpt lat="44.2336824" lon="8.1910447"><ele>978.0</ele><time>2026-04-26T09:16:04.041Z</time></trkpt><trkpt lat="44.2336275" lon="8.1912025"><ele>978.0</ele><time>2026-04-26T09:16:05.108Z</time></trkpt><trkpt lat="44.2336075" lon="8.1913598"><ele>978.0</ele><time>2026-04-26T09:16:06.091Z</time></trkpt><trkpt lat="44.2336343" lon="8.1915424"><ele>978.0</ele><time>2026-04-26T09:16:07.082Z</time></trkpt><trkpt lat="44.2337246" lon="8.1917339"><ele>978.0</ele><time>2026-04-26T09:16:08.066Z</time></trkpt><trkpt lat="44.233854" lon="8.1919652"><ele>978.0</ele><time>2026-04-26T09:16:09.163Z</time></trkpt><trkpt lat="44.23397" lon="8.1921457"><ele>990.0</ele><time>2026-04-26T09:16:10.133Z</time></trkpt><trkpt lat="44.2341013" lon="8.1923828"><ele>1002.0</ele><time>2026-04-26T09:16:11.269Z</time></trkpt><trkpt lat="44.2342824" lon="8.1928365"><ele>1002.0</ele><time>2026-04-26T09:16:13.103Z</time></trkpt><trkpt lat="44.2343908" lon="8.1931158"><ele>1002.0</ele><time>2026-04-26T09:16:14.192Z</time></trkpt><trkpt lat="44.2344867" lon="8.1933714"><ele>1002.0</ele><time>2026-04-26T09:16:15.227Z</time></trkpt><trkpt lat="44.2346164" lon="8.1938022"><ele>997.5</ele><time>2026-04-26T09:16:17.143Z</time></trkpt><trkpt lat="44.2346576" lon="8.1940341"><ele>993.0</ele><time>2026-04-26T09:16:18.174Z</time></trkpt><trkpt lat="44.2346772" lon="8.1944369"><ele>993.0</ele><time>2026-04-26T09:16:20.143Z</time></trkpt><trkpt lat="44.2346777" lon="8.1946143"><ele>993.0</ele><time>2026-04-26T09:16:21.176Z</time></trkpt><trkpt lat="44.2346789" lon="8.194772"><ele>993.0</ele><time>2026-04-26T09:16:22.231Z</time></trkpt><trkpt lat="44.2346943" lon="8.194917"><ele>993.0</ele><time>2026-04-26T09:16:23.158Z</time></trkpt><trkpt lat="44.2347317" lon="8.1950445"><ele>993.0</ele><time>2026-04-26T09:16:24.108Z</time></trkpt><trkpt lat="44.2348019" lon="8.1951477"><ele>1003.0</ele><time>2026-04-26T09:16:25.047Z</time></trkpt><trkpt lat="44.2349108" lon="8.1952661"><ele>1013.0</ele><time>2026-04-26T09:16:26.21Z</time></trkpt><trkpt lat="44.2350255" lon="8.1953365"><ele>1023.0</ele><time>2026-04-26T09:16:27.238Z</time></trkpt><trkpt lat="44.2351987" lon="8.195485"><ele>1023.0</ele><time>2026-04-26T09:16:29.229Z</time></trkpt><trkpt lat="44.2352614" lon="8.1956129"><ele>1023.0</ele><time>2026-04-26T09:16:31.029Z</time></trkpt><trkpt lat="44.2352797" lon="8.1957081"><ele>1023.0</ele><time>2026-04-26T09:16:32.222Z</time></trkpt><trkpt lat="44.2352359" lon="8.1958012"><ele>1023.0</ele><time>2026-04-26T09:16:34.225Z</time></trkpt><trkpt lat="44.2350515" lon="8.1957663"><ele>1023.0</ele><time>2026-04-26T09:16:36.07Z</time></trkpt><trkpt lat="44.234879" lon="8.1957344"><ele>1016.0</ele><time>2026-04-26T09:16:37.25Z</time></trkpt><trkpt lat="44.2344941" lon="8.195645"><ele>1009.0</ele><time>2026-04-26T09:16:39.156Z</time></trkpt><trkpt lat="44.2343289" lon="8.1955608"><ele>1009.0</ele><time>2026-04-26T09:16:40.127Z</time></trkpt><trkpt lat="44.2341875" lon="8.1954565"><ele>1009.0</ele><time>2026-04-26T09:16:41.153Z</time></trkpt><trkpt lat="44.2340384" lon="8.1953477"><ele>1009.0</ele><time>2026-04-26T09:16:42.135Z</time></trkpt><trkpt lat="44.2338487" lon="8.1952859"><ele>1011.6666666666666</ele><time>2026-04-26T09:16:43.195Z</time></trkpt><trkpt lat="44.2336398" lon="8.1952528"><ele>1014.3333333333333</ele><time>2026-04-26T09:16:44.096Z</time></trkpt><trkpt lat="44.2334142" lon="8.1951947"><ele>1017.0</ele><time>2026-04-26T09:16:45.164Z</time></trkpt><trkpt lat="44.23324" lon="8.1951532"><ele>1014.0</ele><time>2026-04-26T09:16:46.113Z</time></trkpt><trkpt lat="44.2330959" lon="8.1951199"><ele>1011.0</ele><time>2026-04-26T09:16:47.179Z</time></trkpt><trkpt lat="44.2329092" lon="8.1951382"><ele>1008.0</ele><time>2026-04-26T09:16:49.049Z</time></trkpt><trkpt lat="44.2327729" lon="8.1952016"><ele>1008.0</ele><time>2026-04-26T09:16:50.038Z</time></trkpt><trkpt lat="44.2326493" lon="8.1953763"><ele>1008.0</ele><time>2026-04-26T09:16:51.189Z</time></trkpt><trkpt lat="44.2324105" lon="8.1957945"><ele>1012.3333333333333</ele><time>2026-04-26T09:16:53.133Z</time></trkpt><trkpt lat="44.2322724" lon="8.1959886"><ele>1016.6666666666666</ele><time>2026-04-26T09:16:54.073Z</time></trkpt><trkpt lat="44.2321031" lon="8.1961917"><ele>1021.0</ele><time>2026-04-26T09:16:55.174Z</time></trkpt><trkpt lat="44.2319687" lon="8.1963639"><ele>1024.0</ele><time>2026-04-26T09:16:56.127Z</time></trkpt><trkpt lat="44.2318541" lon="8.1965045"><ele>1027.0</ele><time>2026-04-26T09:16:57.032Z</time></trkpt><trkpt lat="44.2317506" lon="8.1966117"><ele>1030.0</ele><time>2026-04-26T09:16:58.159Z</time></trkpt><trkpt lat="44.2316511" lon="8.1966698"><ele>1033.0</ele><time>2026-04-26T09:16:59.124Z</time></trkpt><trkpt lat="44.2315412" lon="8.1966955"><ele>1032.6666666666665</ele><time>2026-04-26T09:17:00.073Z</time></trkpt><trkpt lat="44.2313818" lon="8.1967031"><ele>1032.3333333333333</ele><time>2026-04-26T09:17:01.179Z</time></trkpt><trkpt lat="44.2310969" lon="8.1966832"><ele>1032.0</ele><time>2026-04-26T09:17:03.17Z</time></trkpt><trkpt lat="44.2309992" lon="8.1966829"><ele>1032.0</ele><time>2026-04-26T09:17:04.101Z</time></trkpt><trkpt lat="44.2308034" lon="8.1966767"><ele>1032.0</ele><time>2026-04-26T09:17:06.222Z</time></trkpt><trkpt lat="44.2305888" lon="8.1966858"><ele>1032.0</ele><time>2026-04-26T09:17:08.209Z</time></trkpt><trkpt lat="44.230427" lon="8.1967544"><ele>1032.8</ele><time>2026-04-26T09:17:10.121Z</time></trkpt><trkpt lat="44.2303573" lon="8.1968272"><ele>1033.6</ele><time>2026-04-26T09:17:11.049Z</time></trkpt><trkpt lat="44.2302977" lon="8.196929"><ele>1034.3999999999999</ele><time>2026-04-26T09:17:12.013Z</time></trkpt><trkpt lat="44.2302473" lon="8.197064"><ele>1035.2</ele><time>2026-04-26T09:17:13.096Z</time></trkpt><trkpt lat="44.2302001" lon="8.1972468"><ele>1036.0</ele><time>2026-04-26T09:17:14.294Z</time></trkpt><trkpt lat="44.2302783" lon="8.1975761"><ele>1036.0</ele><time>2026-04-26T09:17:17.095Z</time></trkpt><trkpt lat="44.2303292" lon="8.1976645"><ele>1036.0</ele><time>2026-04-26T09:17:18.06Z</time></trkpt><trkpt lat="44.2303938" lon="8.1977338"><ele>1036.0</ele><time>2026-04-26T09:17:19.125Z</time></trkpt><trkpt lat="44.23045" lon="8.19778"><ele>1036.0</ele><time>2026-04-26T09:17:20.032Z</time></trkpt><trkpt lat="44.2305193" lon="8.1978434"><ele>1036.0</ele><time>2026-04-26T09:17:21.045Z</time></trkpt><trkpt lat="44.2305848" lon="8.1979013"><ele>1036.0</ele><time>2026-04-26T09:17:22.045Z</time></trkpt><trkpt lat="44.2306402" lon="8.1979596"><ele>1036.0</ele><time>2026-04-26T09:17:23.032Z</time></trkpt><trkpt lat="44.2307168" lon="8.1980408"><ele>1036.0</ele><time>2026-04-26T09:17:24.041Z</time></trkpt><trkpt lat="44.2307696" lon="8.1980978"><ele>1036.0</ele><time>2026-04-26T09:17:24.95Z</time></trkpt><trkpt lat="44.2308261" lon="8.1981795"><ele>1036.0</ele><time>2026-04-26T09:17:26.057Z</time></trkpt><trkpt lat="44.2309012" lon="8.1982885"><ele>1036.0</ele><time>2026-04-26T09:17:27.17Z</time></trkpt><trkpt lat="44.2310535" lon="8.1985408"><ele>1037.0</ele><time>2026-04-26T09:17:29.149Z</time></trkpt><trkpt lat="44.2312355" lon="8.1988152"><ele>1038.0</ele><time>2026-04-26T09:17:31.063Z</time></trkpt><trkpt lat="44.2313771" lon="8.1989992"><ele>1037.6666666666667</ele><time>2026-04-26T09:17:32.279Z</time></trkpt><trkpt lat="44.2315505" lon="8.1992596"><ele>1037.3333333333335</ele><time>2026-04-26T09:17:34.014Z</time></trkpt><trkpt lat="44.2316765" lon="8.1994394"><ele>1037.0</ele><time>2026-04-26T09:17:35.233Z</time></trkpt><trkpt lat="44.2318902" lon="8.1997424"><ele>1030.3333333333335</ele><time>2026-04-26T09:17:37.25Z</time></trkpt><trkpt lat="44.2320736" lon="8.2000614"><ele>1023.6666666666667</ele><time>2026-04-26T09:17:39.254Z</time></trkpt><trkpt lat="44.2321449" lon="8.2002256"><ele>1017.0</ele><time>2026-04-26T09:17:40.208Z</time></trkpt><trkpt lat="44.2322531" lon="8.2005801"><ele>1011.0</ele><time>2026-04-26T09:17:42.314Z</time></trkpt><trkpt lat="44.2322619" lon="8.2009792"><ele>1005.0</ele><time>2026-04-26T09:17:44.367Z</time></trkpt><trkpt lat="44.2321955" lon="8.2013459"><ele>1001.0</ele><time>2026-04-26T09:17:46.218Z</time></trkpt><trkpt lat="44.2322413" lon="8.2016721"><ele>997.0</ele><time>2026-04-26T09:17:48.257Z</time></trkpt><trkpt lat="44.2323129" lon="8.2018216"><ele>993.0</ele><time>2026-04-26T09:17:49.16Z</time></trkpt><trkpt lat="44.2325" lon="8.2021915"><ele>998.6666666666667</ele><time>2026-04-26T09:17:51.206Z</time></trkpt><trkpt lat="44.2325646" lon="8.2024134"><ele>1004.3333333333334</ele><time>2026-04-26T09:17:52.264Z</time></trkpt><trkpt lat="44.232615" lon="8.20262"><ele>1010.0</ele><time>2026-04-26T09:17:53.328Z</time></trkpt><trkpt lat="44.2326666" lon="8.2029362"><ele>1010.0</ele><time>2026-04-26T09:17:55.204Z</time></trkpt><trkpt lat="44.232652" lon="8.203108"><ele>1010.0</ele><time>2026-04-26T09:17:56.228Z</time></trkpt><trkpt lat="44.2325969" lon="8.2033108"><ele>1010.0</ele><time>2026-04-26T09:17:57.274Z</time></trkpt><trkpt lat="44.2325412" lon="8.2035692"><ele>1007.6666666666667</ele><time>2026-04-26T09:17:58.27Z</time></trkpt><trkpt lat="44.2325222" lon="8.2037766"><ele>1005.3333333333333</ele><time>2026-04-26T09:17:59.065Z</time></trkpt><trkpt lat="44.2325122" lon="8.2040754"><ele>1003.0</ele><time>2026-04-26T09:18:00.269Z</time></trkpt><trkpt lat="44.2324713" lon="8.2045742"><ele>1003.0</ele><time>2026-04-26T09:18:02.229Z</time></trkpt><trkpt lat="44.2323727" lon="8.205115"><ele>1003.0</ele><time>2026-04-26T09:18:04.301Z</time></trkpt><trkpt lat="44.2322779" lon="8.2055349"><ele>987.3333333333333</ele><time>2026-04-26T09:18:05.981Z</time></trkpt><trkpt lat="44.2322164" lon="8.2058178"><ele>971.6666666666667</ele><time>2026-04-26T09:18:07.177Z</time></trkpt><trkpt lat="44.2321727" lon="8.2060346"><ele>956.0</ele><time>2026-04-26T09:18:08.226Z</time></trkpt><trkpt lat="44.2321401" lon="8.2062124"><ele>956.0</ele><time>2026-04-26T09:18:09.147Z</time></trkpt><trkpt lat="44.2321287" lon="8.2063884"><ele>956.0</ele><time>2026-04-26T09:18:10.108Z</time></trkpt><trkpt lat="44.2321511" lon="8.2066197"><ele>956.0</ele><time>2026-04-26T09:18:11.267Z</time></trkpt><trkpt lat="44.2322414" lon="8.207045"><ele>957.3333333333334</ele><time>2026-04-26T09:18:13.238Z</time></trkpt><trkpt lat="44.232248" lon="8.2072314"><ele>958.6666666666667</ele><time>2026-04-26T09:18:14.267Z</time></trkpt><trkpt lat="44.2323011" lon="8.2075416"><ele>960.0</ele><time>2026-04-26T09:18:16.256Z</time></trkpt><trkpt lat="44.2323806" lon="8.2077267"><ele>965.3333333333333</ele><time>2026-04-26T09:18:17.329Z</time></trkpt><trkpt lat="44.2325918" lon="8.2078861"><ele>970.6666666666666</ele><time>2026-04-26T09:18:19.241Z</time></trkpt><trkpt lat="44.232704" lon="8.2080727"><ele>976.0</ele><time>2026-04-26T09:18:20.318Z</time></trkpt><trkpt lat="44.232748" lon="8.2084173"><ele>976.0</ele><time>2026-04-26T09:18:22.324Z</time></trkpt><trkpt lat="44.2327431" lon="8.2085906"><ele>976.0</ele><time>2026-04-26T09:18:23.143Z</time></trkpt><trkpt lat="44.2327184" lon="8.2087771"><ele>976.0</ele><time>2026-04-26T09:18:24.151Z</time></trkpt><trkpt lat="44.2326884" lon="8.2090081"><ele>976.0</ele><time>2026-04-26T09:18:25.305Z</time></trkpt><trkpt lat="44.2326366" lon="8.2092548"><ele>974.5</ele><time>2026-04-26T09:18:26.282Z</time></trkpt><trkpt lat="44.2325225" lon="8.209521"><ele>973.0</ele><time>2026-04-26T09:18:27.217Z</time></trkpt><trkpt lat="44.2324293" lon="8.2098268"><ele>973.0</ele><time>2026-04-26T09:18:28.145Z</time></trkpt><trkpt lat="44.2323444" lon="8.2101479"><ele>973.0</ele><time>2026-04-26T09:18:29.263Z</time></trkpt><trkpt lat="44.2322434" lon="8.2106151"><ele>959.6666666666666</ele><time>2026-04-26T09:18:31.204Z</time></trkpt><trkpt lat="44.2321783" lon="8.2108171"><ele>946.3333333333333</ele><time>2026-04-26T09:18:32.166Z</time></trkpt><trkpt lat="44.2320789" lon="8.2110414"><ele>933.0</ele><time>2026-04-26T09:18:33.237Z</time></trkpt><trkpt lat="44.2319694" lon="8.2112256"><ele>933.0</ele><time>2026-04-26T09:18:34.154Z</time></trkpt><trkpt lat="44.2318755" lon="8.2114264"><ele>933.0</ele><time>2026-04-26T09:18:35.129Z</time></trkpt><trkpt lat="44.2317915" lon="8.2116405"><ele>933.0</ele><time>2026-04-26T09:18:36.129Z</time></trkpt><trkpt lat="44.2317287" lon="8.21184"><ele>937.0</ele><time>2026-04-26T09:18:37.153Z</time></trkpt><trkpt lat="44.2316903" lon="8.212059"><ele>941.0</ele><time>2026-04-26T09:18:38.1Z</time></trkpt><trkpt lat="44.2316652" lon="8.2123594"><ele>945.0</ele><time>2026-04-26T09:18:39.276Z</time></trkpt><trkpt lat="44.2316397" lon="8.2128309"><ele>947.0</ele><time>2026-04-26T09:18:41.278Z</time></trkpt><trkpt lat="44.2315676" lon="8.2132546"><ele>949.0</ele><time>2026-04-26T09:18:43.286Z</time></trkpt><trkpt lat="44.2315331" lon="8.2134234"><ele>951.0</ele><time>2026-04-26T09:18:44.192Z</time></trkpt><trkpt lat="44.2314881" lon="8.2135967"><ele>946.75</ele><time>2026-04-26T09:18:45.219Z</time></trkpt><trkpt lat="44.2313974" lon="8.213862"><ele>942.5</ele><time>2026-04-26T09:18:47.18Z</time></trkpt><trkpt lat="44.2313264" lon="8.2139828"><ele>938.25</ele><time>2026-04-26T09:18:48.349Z</time></trkpt><trkpt lat="44.2312593" lon="8.2140813"><ele>934.0</ele><time>2026-04-26T09:18:50.133Z</time></trkpt><trkpt lat="44.2312762" lon="8.2141726"><ele>933.9999999999999</ele><time>2026-04-26T09:18:52.135Z</time></trkpt><trkpt lat="44.2313704" lon="8.2142543"><ele>934.0</ele><time>2026-04-26T09:18:54.268Z</time></trkpt><trkpt lat="44.2314472" lon="8.2143245"><ele>934.0</ele><time>2026-04-26T09:18:56.045Z</time></trkpt><trkpt lat="44.2315076" lon="8.2143896"><ele>934.0</ele><time>2026-04-26T09:18:57.95Z</time></trkpt><trkpt lat="44.2315637" lon="8.2144666"><ele>933.9999999999999</ele><time>2026-04-26T09:19:00.071Z</time></trkpt><trkpt lat="44.2316127" lon="8.2145257"><ele>934.0</ele><time>2026-04-26T09:19:01.934Z</time></trkpt><trkpt lat="44.2316696" lon="8.2145959"><ele>935.4000000000001</ele><time>2026-04-26T09:19:04.075Z</time></trkpt><trkpt lat="44.2317228" lon="8.2146642"><ele>936.8000000000001</ele><time>2026-04-26T09:19:07.054Z</time></trkpt><trkpt lat="44.2317891" lon="8.2147401"><ele>938.1999999999999</ele><time>2026-04-26T09:19:11.187Z</time></trkpt><trkpt lat="44.2319161" lon="8.2149097"><ele>939.5999999999999</ele><time>2026-04-26T09:19:13.146Z</time></trkpt><trkpt lat="44.2320014" lon="8.2150187"><ele>941.0</ele><time>2026-04-26T09:19:14.084Z</time></trkpt><trkpt lat="44.2322117" lon="8.2152608"><ele>943.6666666666667</ele><time>2026-04-26T09:19:16.126Z</time></trkpt><trkpt lat="44.2323181" lon="8.2153833"><ele>946.3333333333333</ele><time>2026-04-26T09:19:17.08Z</time></trkpt><trkpt lat="44.2324402" lon="8.2155283"><ele>949.0</ele><time>2026-04-26T09:19:18.077Z</time></trkpt><trkpt lat="44.2325637" lon="8.2156905"><ele>949.0</ele><time>2026-04-26T09:19:19.063Z</time></trkpt><trkpt lat="44.2326922" lon="8.215869"><ele>949.0</ele><time>2026-04-26T09:19:20.083Z</time></trkpt><trkpt lat="44.2328169" lon="8.216058"><ele>949.0</ele><time>2026-04-26T09:19:21.07Z</time></trkpt><trkpt lat="44.23295" lon="8.2162476"><ele>949.0</ele><time>2026-04-26T09:19:22.119Z</time></trkpt><trkpt lat="44.2330689" lon="8.2164208"><ele>949.0</ele><time>2026-04-26T09:19:23.077Z</time></trkpt><trkpt lat="44.2331837" lon="8.21659"><ele>949.0</ele><time>2026-04-26T09:19:24.022Z</time></trkpt><trkpt lat="44.233294" lon="8.2167526"><ele>951.3333333333333</ele><time>2026-04-26T09:19:24.941Z</time></trkpt><trkpt lat="44.2334238" lon="8.2169454"><ele>953.6666666666667</ele><time>2026-04-26T09:19:26.081Z</time></trkpt><trkpt lat="44.2335623" lon="8.2171092"><ele>956.0</ele><time>2026-04-26T09:19:27.204Z</time></trkpt><trkpt lat="44.233689" lon="8.2172391"><ele>958.3333333333334</ele><time>2026-04-26T09:19:28.127Z</time></trkpt><trkpt lat="44.2338731" lon="8.2173716"><ele>960.6666666666667</ele><time>2026-04-26T09:19:29.216Z</time></trkpt><trkpt lat="44.2340771" lon="8.2174815"><ele>963.0</ele><time>2026-04-26T09:19:30.249Z</time></trkpt><trkpt lat="44.2342669" lon="8.2175914"><ele>963.0</ele><time>2026-04-26T09:19:31.193Z</time></trkpt><trkpt lat="44.2346639" lon="8.2178144"><ele>963.0</ele><time>2026-04-26T09:19:33.241Z</time></trkpt><trkpt lat="44.234831" lon="8.21791"><ele>961.3333333333333</ele><time>2026-04-26T09:19:34.151Z</time></trkpt><trkpt lat="44.2350004" lon="8.2180133"><ele>959.6666666666666</ele><time>2026-04-26T09:19:35.122Z</time></trkpt><trkpt lat="44.2351938" lon="8.2181563"><ele>958.0</ele><time>2026-04-26T09:19:36.252Z</time></trkpt><trkpt lat="44.2354837" lon="8.2184606"><ele>960.5</ele><time>2026-04-26T09:19:38.107Z</time></trkpt><trkpt lat="44.2356584" lon="8.2186815"><ele>963.0</ele><time>2026-04-26T09:19:39.3Z</time></trkpt><trkpt lat="44.2359792" lon="8.2190146"><ele>963.0</ele><time>2026-04-26T09:19:41.359Z</time></trkpt><trkpt lat="44.236324" lon="8.219276"><ele>963.0</ele><time>2026-04-26T09:19:43.294Z</time></trkpt><trkpt lat="44.2364791" lon="8.2193904"><ele>971.0</ele><time>2026-04-26T09:19:44.201Z</time></trkpt><trkpt lat="44.236826" lon="8.2196276"><ele>979.0</ele><time>2026-04-26T09:19:46.107Z</time></trkpt><trkpt lat="44.2369941" lon="8.2197411"><ele>978.3333333333333</ele><time>2026-04-26T09:19:47.04Z</time></trkpt><trkpt lat="44.2371764" lon="8.2198675"><ele>977.6666666666667</ele><time>2026-04-26T09:19:48.112Z</time></trkpt><trkpt lat="44.237329" lon="8.219974"><ele>977.0</ele><time>2026-04-26T09:19:49.109Z</time></trkpt><trkpt lat="44.2374698" lon="8.2200761"><ele>977.0</ele><time>2026-04-26T09:19:50.142Z</time></trkpt><trkpt lat="44.2375875" lon="8.2201621"><ele>977.0</ele><time>2026-04-26T09:19:51.08Z</time></trkpt><trkpt lat="44.237705" lon="8.220244"><ele>977.0</ele><time>2026-04-26T09:19:52.056Z</time></trkpt><trkpt lat="44.2378081" lon="8.2203092"><ele>977.0</ele><time>2026-04-26T09:19:53.003Z</time></trkpt><trkpt lat="44.2379111" lon="8.2203715"><ele>977.0</ele><time>2026-04-26T09:19:54.151Z</time></trkpt><trkpt lat="44.2380538" lon="8.2204396"><ele>977.0</ele><time>2026-04-26T09:19:56.09Z</time></trkpt><trkpt lat="44.2381192" lon="8.2204508"><ele>977.0</ele><time>2026-04-26T09:19:57.14Z</time></trkpt><trkpt lat="44.238193" lon="8.2203405"><ele>977.0</ele><time>2026-04-26T09:19:59.137Z</time></trkpt><trkpt lat="44.2381787" lon="8.2202259"><ele>977.0</ele><time>2026-04-26T09:20:00.238Z</time></trkpt><trkpt lat="44.2381295" lon="8.220099"><ele>977.0</ele><time>2026-04-26T09:20:01.248Z</time></trkpt><trkpt lat="44.2380008" lon="8.2198195"><ele>977.0</ele><time>2026-04-26T09:20:03.13Z</time></trkpt><trkpt lat="44.2379188" lon="8.2196285"><ele>977.0</ele><time>2026-04-26T09:20:04.288Z</time></trkpt><trkpt lat="44.2378306" lon="8.2192414"><ele>980.0</ele><time>2026-04-26T09:20:06.21Z</time></trkpt><trkpt lat="44.237798" lon="8.2190171"><ele>983.0</ele><time>2026-04-26T09:20:07.163Z</time></trkpt><trkpt lat="44.2377416" lon="8.2185387"><ele>985.0</ele><time>2026-04-26T09:20:09.143Z</time></trkpt><trkpt lat="44.2377306" lon="8.2183038"><ele>987.0</ele><time>2026-04-26T09:20:10.134Z</time></trkpt><trkpt lat="44.2377403" lon="8.2180853"><ele>989.0</ele><time>2026-04-26T09:20:11.156Z</time></trkpt><trkpt lat="44.2378411" lon="8.2176584"><ele>987.5</ele><time>2026-04-26T09:20:13.319Z</time></trkpt><trkpt lat="44.2380925" lon="8.2173335"><ele>986.0</ele><time>2026-04-26T09:20:15.346Z</time></trkpt><trkpt lat="44.2382828" lon="8.2170374"><ele>986.0</ele><time>2026-04-26T09:20:17.21Z</time></trkpt><trkpt lat="44.2383719" lon="8.2166435"><ele>986.0</ele><time>2026-04-26T09:20:19.177Z</time></trkpt><trkpt lat="44.2383997" lon="8.2162927"><ele>988.75</ele><time>2026-04-26T09:20:21.137Z</time></trkpt><trkpt lat="44.2384525" lon="8.2161484"><ele>991.5</ele><time>2026-04-26T09:20:22.323Z</time></trkpt><trkpt lat="44.2386097" lon="8.2160962"><ele>994.25</ele><time>2026-04-26T09:20:24.261Z</time></trkpt><trkpt lat="44.2387214" lon="8.216158"><ele>997.0</ele><time>2026-04-26T09:20:25.188Z</time></trkpt><trkpt lat="44.2388394" lon="8.2162173"><ele>997.0</ele><time>2026-04-26T09:20:26.262Z</time></trkpt><trkpt lat="44.23907" lon="8.2162453"><ele>997.0</ele><time>2026-04-26T09:20:28.264Z</time></trkpt><trkpt lat="44.2392934" lon="8.2161113"><ele>997.0</ele><time>2026-04-26T09:20:29.455Z</time></trkpt><trkpt lat="44.2395916" lon="8.2160543"><ele>997.0</ele><time>2026-04-26T09:20:31.339Z</time></trkpt><trkpt lat="44.2397228" lon="8.2160727"><ele>997.0</ele><time>2026-04-26T09:20:32.293Z</time></trkpt><trkpt lat="44.2398488" lon="8.2160724"><ele>999.6666666666666</ele><time>2026-04-26T09:20:33.322Z</time></trkpt><trkpt lat="44.2400588" lon="8.2159379"><ele>1002.3333333333333</ele><time>2026-04-26T09:20:35.232Z</time></trkpt><trkpt lat="44.2401529" lon="8.2157579"><ele>1005.0</ele><time>2026-04-26T09:20:36.333Z</time></trkpt><trkpt lat="44.2402852" lon="8.2153023"><ele>1005.0</ele><time>2026-04-26T09:20:38.31Z</time></trkpt><trkpt lat="44.24036" lon="8.2150992"><ele>1005.0</ele><time>2026-04-26T09:20:39.212Z</time></trkpt><trkpt lat="44.2404496" lon="8.2149024"><ele>1005.0</ele><time>2026-04-26T09:20:40.178Z</time></trkpt><trkpt lat="44.240551" lon="8.2147156"><ele>994.0</ele><time>2026-04-26T09:20:41.184Z</time></trkpt><trkpt lat="44.2407808" lon="8.214356"><ele>983.0</ele><time>2026-04-26T09:20:43.188Z</time></trkpt><trkpt lat="44.2409128" lon="8.2142166"><ele>983.0</ele><time>2026-04-26T09:20:44.098Z</time></trkpt><trkpt lat="44.2410789" lon="8.2140401"><ele>983.0</ele><time>2026-04-26T09:20:45.261Z</time></trkpt><trkpt lat="44.2413015" lon="8.2137549"><ele>982.6666666666667</ele><time>2026-04-26T09:20:47.148Z</time></trkpt><trkpt lat="44.2414018" lon="8.2135684"><ele>982.3333333333333</ele><time>2026-04-26T09:20:48.233Z</time></trkpt><trkpt lat="44.2414773" lon="8.2134211"><ele>982.0</ele><time>2026-04-26T09:20:49.183Z</time></trkpt><trkpt lat="44.2416343" lon="8.213216"><ele>982.0</ele><time>2026-04-26T09:20:51.252Z</time></trkpt><trkpt lat="44.2417123" lon="8.2131928"><ele>982.0</ele><time>2026-04-26T09:20:52.202Z</time></trkpt><trkpt lat="44.241896" lon="8.2133451"><ele>982.0</ele><time>2026-04-26T09:20:54.126Z</time></trkpt><trkpt lat="44.2419987" lon="8.2135044"><ele>982.0</ele><time>2026-04-26T09:20:55.163Z</time></trkpt><trkpt lat="44.2421155" lon="8.2136748"><ele>982.0</ele><time>2026-04-26T09:20:56.206Z</time></trkpt><trkpt lat="44.2422283" lon="8.2138425"><ele>982.0</ele><time>2026-04-26T09:20:57.207Z</time></trkpt><trkpt lat="44.2423192" lon="8.2140241"><ele>982.0</ele><time>2026-04-26T09:20:58.183Z</time></trkpt><trkpt lat="44.2424536" lon="8.2144898"><ele>983.3333333333333</ele><time>2026-04-26T09:21:00.237Z</time></trkpt><trkpt lat="44.2425271" lon="8.2147094"><ele>984.6666666666667</ele><time>2026-04-26T09:21:01.226Z</time></trkpt><trkpt lat="44.2426068" lon="8.2148742"><ele>986.0</ele><time>2026-04-26T09:21:02.153Z</time></trkpt><trkpt lat="44.2426843" lon="8.2150566"><ele>983.5999999999999</ele><time>2026-04-26T09:21:03.195Z</time></trkpt><trkpt lat="44.2427608" lon="8.2151845"><ele>981.1999999999999</ele><time>2026-04-26T09:21:04.231Z</time></trkpt><trkpt lat="44.2428523" lon="8.2152676"><ele>978.8000000000001</ele><time>2026-04-26T09:21:05.172Z</time></trkpt><trkpt lat="44.2429599" lon="8.2152991"><ele>976.4000000000001</ele><time>2026-04-26T09:21:06.206Z</time></trkpt><trkpt lat="44.2430595" lon="8.2153067"><ele>974.0</ele><time>2026-04-26T09:21:07.179Z</time></trkpt><trkpt lat="44.2431874" lon="8.2152774"><ele>974.0</ele><time>2026-04-26T09:21:08.225Z</time></trkpt><trkpt lat="44.2434143" lon="8.2151699"><ele>974.0</ele><time>2026-04-26T09:21:09.286Z</time></trkpt><trkpt lat="44.2436669" lon="8.2150463"><ele>980.0</ele><time>2026-04-26T09:21:10.405Z</time></trkpt><trkpt lat="44.2440173" lon="8.2148317"><ele>986.0</ele><time>2026-04-26T09:21:12.271Z</time></trkpt><trkpt lat="44.2441789" lon="8.2147554"><ele>986.0</ele><time>2026-04-26T09:21:13.328Z</time></trkpt><trkpt lat="44.2443726" lon="8.2145513"><ele>986.0</ele><time>2026-04-26T09:21:15.232Z</time></trkpt><trkpt lat="44.2444424" lon="8.2143746"><ele>986.0</ele><time>2026-04-26T09:21:16.177Z</time></trkpt><trkpt lat="44.2444921" lon="8.2141942"><ele>986.0</ele><time>2026-04-26T09:21:17.282Z</time></trkpt><trkpt lat="44.2445268" lon="8.2140704"><ele>986.0</ele><time>2026-04-26T09:21:18.226Z</time></trkpt><trkpt lat="44.2445724" lon="8.2139863"><ele>986.0</ele><time>2026-04-26T09:21:19.185Z</time></trkpt><trkpt lat="44.2446507" lon="8.2139782"><ele>986.0</ele><time>2026-04-26T09:21:20.219Z</time></trkpt><trkpt lat="44.2449181" lon="8.2140787"><ele>982.5999999999999</ele><time>2026-04-26T09:21:22.116Z</time></trkpt><trkpt lat="44.2450311" lon="8.2141413"><ele>979.1999999999999</ele><time>2026-04-26T09:21:23.04Z</time></trkpt><trkpt lat="44.2451512" lon="8.2141776"><ele>975.8000000000001</ele><time>2026-04-26T09:21:24.069Z</time></trkpt><trkpt lat="44.2452664" lon="8.2141724"><ele>972.4000000000001</ele><time>2026-04-26T09:21:25.184Z</time></trkpt><trkpt lat="44.2453242" lon="8.2141353"><ele>969.0</ele><time>2026-04-26T09:21:26.111Z</time></trkpt><trkpt lat="44.2455753" lon="8.213884"><ele>976.3333333333333</ele><time>2026-04-26T09:21:28.184Z</time></trkpt><trkpt lat="44.2456427" lon="8.2136837"><ele>983.6666666666666</ele><time>2026-04-26T09:21:29.306Z</time></trkpt><trkpt lat="44.245727" lon="8.213556"><ele>991.0</ele><time>2026-04-26T09:21:30.237Z</time></trkpt><trkpt lat="44.245943" lon="8.2133513"><ele>991.0</ele><time>2026-04-26T09:21:32.197Z</time></trkpt><trkpt lat="44.2462747" lon="8.2133829"><ele>991.0</ele><time>2026-04-26T09:21:34.256Z</time></trkpt><trkpt lat="44.2465028" lon="8.2135514"><ele>982.3333333333333</ele><time>2026-04-26T09:21:36.173Z</time></trkpt><trkpt lat="44.2466435" lon="8.2135153"><ele>973.6666666666667</ele><time>2026-04-26T09:21:38.181Z</time></trkpt><trkpt lat="44.2467852" lon="8.2133724"><ele>965.0</ele><time>2026-04-26T09:21:39.224Z</time></trkpt><trkpt lat="44.2469637" lon="8.2130952"><ele>962.5</ele><time>2026-04-26T09:21:41.305Z</time></trkpt><trkpt lat="44.2468559" lon="8.2127394"><ele>960.0</ele><time>2026-04-26T09:21:44.011Z</time></trkpt><trkpt lat="44.2467131" lon="8.2124722"><ele>974.5</ele><time>2026-04-26T09:21:45.224Z</time></trkpt><trkpt lat="44.2464105" lon="8.2120271"><ele>989.0</ele><time>2026-04-26T09:21:47.337Z</time></trkpt><trkpt lat="44.2460197" lon="8.2114616"><ele>989.0</ele><time>2026-04-26T09:21:49.089Z</time></trkpt><trkpt lat="44.2458305" lon="8.2110978"><ele>989.0</ele><time>2026-04-26T09:21:50.136Z</time></trkpt><trkpt lat="44.2456852" lon="8.2107636"><ele>1009.0</ele><time>2026-04-26T09:21:51.194Z</time></trkpt><trkpt lat="44.2456276" lon="8.2104836"><ele>1029.0</ele><time>2026-04-26T09:21:52.131Z</time></trkpt><trkpt lat="44.2456056" lon="8.2102183"><ele>1049.0</ele><time>2026-04-26T09:21:53.138Z</time></trkpt><trkpt lat="44.2455824" lon="8.2099924"><ele>1052.0</ele><time>2026-04-26T09:21:54.06Z</time></trkpt><trkpt lat="44.24556" lon="8.2097936"><ele>1055.0</ele><time>2026-04-26T09:21:55.13Z</time></trkpt><trkpt lat="44.2455594" lon="8.2096357"><ele>1058.0</ele><time>2026-04-26T09:21:56.204Z</time></trkpt><trkpt lat="44.2456249" lon="8.2094052"><ele>1061.0</ele><time>2026-04-26T09:21:58.14Z</time></trkpt><trkpt lat="44.2457007" lon="8.2093728"><ele>1046.3333333333335</ele><time>2026-04-26T09:21:59.186Z</time></trkpt><trkpt lat="44.2457909" lon="8.209334"><ele>1031.6666666666667</ele><time>2026-04-26T09:22:00.147Z</time></trkpt><trkpt lat="44.2459255" lon="8.2093149"><ele>1017.0</ele><time>2026-04-26T09:22:01.119Z</time></trkpt><trkpt lat="44.24616" lon="8.2093251"><ele>1017.0</ele><time>2026-04-26T09:22:02.066Z</time></trkpt><trkpt lat="44.246371" lon="8.2093288"><ele>1017.0</ele><time>2026-04-26T09:22:03.082Z</time></trkpt><trkpt lat="44.2466569" lon="8.2093456"><ele>1013.5</ele><time>2026-04-26T09:22:04.239Z</time></trkpt><trkpt lat="44.2468922" lon="8.209321"><ele>1010.0</ele><time>2026-04-26T09:22:05.148Z</time></trkpt><trkpt lat="44.2471301" lon="8.2092711"><ele>1002.5</ele><time>2026-04-26T09:22:06.229Z</time></trkpt><trkpt lat="44.2473194" lon="8.2092081"><ele>995.0</ele><time>2026-04-26T09:22:07.248Z</time></trkpt><trkpt lat="44.2475616" lon="8.2090648"><ele>997.6</ele><time>2026-04-26T09:22:09.149Z</time></trkpt><trkpt lat="44.2476168" lon="8.2089729"><ele>1000.2</ele><time>2026-04-26T09:22:10.106Z</time></trkpt><trkpt lat="44.2476237" lon="8.2088841"><ele>1002.8</ele><time>2026-04-26T09:22:11.056Z</time></trkpt><trkpt lat="44.2475849" lon="8.2087933"><ele>1005.4</ele><time>2026-04-26T09:22:12.135Z</time></trkpt><trkpt lat="44.2475291" lon="8.2087281"><ele>1008.0</ele><time>2026-04-26T09:22:13.233Z</time></trkpt><trkpt lat="44.2473943" lon="8.2085774"><ele>1008.0</ele><time>2026-04-26T09:22:15.145Z</time></trkpt><trkpt lat="44.2473107" lon="8.2084472"><ele>1008.0</ele><time>2026-04-26T09:22:16.146Z</time></trkpt><trkpt lat="44.2472575" lon="8.2082601"><ele>1008.0</ele><time>2026-04-26T09:22:17.213Z</time></trkpt><trkpt lat="44.2473485" lon="8.2079392"><ele>1016.6666666666667</ele><time>2026-04-26T09:22:19.232Z</time></trkpt><trkpt lat="44.2474482" lon="8.2078401"><ele>1025.3333333333335</ele><time>2026-04-26T09:22:20.159Z</time></trkpt><trkpt lat="44.247586" lon="8.207774"><ele>1034.0</ele><time>2026-04-26T09:22:21.108Z</time></trkpt><trkpt lat="44.2477931" lon="8.2077071"><ele>1034.0</ele><time>2026-04-26T09:22:22.145Z</time></trkpt><trkpt lat="44.2480113" lon="8.2076386"><ele>1034.0</ele><time>2026-04-26T09:22:23.235Z</time></trkpt><trkpt lat="44.2482062" lon="8.2075885"><ele>1034.0</ele><time>2026-04-26T09:22:24.249Z</time></trkpt><trkpt lat="44.2483618" lon="8.2075867"><ele>1028.0</ele><time>2026-04-26T09:22:25.173Z</time></trkpt><trkpt lat="44.2485159" lon="8.2075986"><ele>1022.0</ele><time>2026-04-26T09:22:26.2Z</time></trkpt><trkpt lat="44.248748" lon="8.2075874"><ele>1016.0</ele><time>2026-04-26T09:22:28.322Z</time></trkpt><trkpt lat="44.2488167" lon="8.2075214"><ele>1016.0</ele><time>2026-04-26T09:22:29.244Z</time></trkpt><trkpt lat="44.2488812" lon="8.2073906"><ele>1016.0</ele><time>2026-04-26T09:22:30.264Z</time></trkpt><trkpt lat="44.2488987" lon="8.2069914"><ele>1016.0</ele><time>2026-04-26T09:22:32.213Z</time></trkpt><trkpt lat="44.2488833" lon="8.2067807"><ele>1018.3333333333334</ele><time>2026-04-26T09:22:33.121Z</time></trkpt><trkpt lat="44.2489039" lon="8.2065861"><ele>1020.6666666666667</ele><time>2026-04-26T09:22:34.148Z</time></trkpt><trkpt lat="44.2489511" lon="8.20642"><ele>1023.0</ele><time>2026-04-26T09:22:35.218Z</time></trkpt><trkpt lat="44.249176" lon="8.2061007"><ele>1023.0</ele><time>2026-04-26T09:22:37.155Z</time></trkpt><trkpt lat="44.2492997" lon="8.2059461"><ele>1023.0</ele><time>2026-04-26T09:22:38.124Z</time></trkpt><trkpt lat="44.2494235" lon="8.205784"><ele>1023.0</ele><time>2026-04-26T09:22:39.217Z</time></trkpt><trkpt lat="44.2496693" lon="8.2055862"><ele>1029.5</ele><time>2026-04-26T09:22:41.238Z</time></trkpt><trkpt lat="44.2499701" lon="8.2055977"><ele>1036.0</ele><time>2026-04-26T09:22:43.243Z</time></trkpt><trkpt lat="44.2501583" lon="8.2057019"><ele>1008.0</ele><time>2026-04-26T09:22:44.199Z</time></trkpt><trkpt lat="44.2505685" lon="8.2059702"><ele>1013.0</ele><time>2026-04-26T09:22:46.212Z</time></trkpt><trkpt lat="44.2507683" lon="8.2061171"><ele>1018.0</ele><time>2026-04-26T09:22:47.153Z</time></trkpt><trkpt lat="44.2509655" lon="8.2062622"><ele>1023.0</ele><time>2026-04-26T09:22:48.111Z</time></trkpt><trkpt lat="44.2511843" lon="8.2064506"><ele>1020.5</ele><time>2026-04-26T09:22:49.263Z</time></trkpt><trkpt lat="44.2514982" lon="8.2067773"><ele>1018.0</ele><time>2026-04-26T09:22:51.229Z</time></trkpt><trkpt lat="44.2516224" lon="8.2068759"><ele>1018.0</ele><time>2026-04-26T09:22:52.016Z</time></trkpt><trkpt lat="44.2517707" lon="8.2070266"><ele>1018.0</ele><time>2026-04-26T09:22:53.05Z</time></trkpt><trkpt lat="44.2518884" lon="8.2072154"><ele>1018.0</ele><time>2026-04-26T09:22:54.154Z</time></trkpt><trkpt lat="44.2519684" lon="8.2073574"><ele>1007.6666666666666</ele><time>2026-04-26T09:22:55.103Z</time></trkpt><trkpt lat="44.2520655" lon="8.2075188"><ele>997.3333333333333</ele><time>2026-04-26T09:22:56.271Z</time></trkpt><trkpt lat="44.2522076" lon="8.20771"><ele>987.0</ele><time>2026-04-26T09:22:58.386Z</time></trkpt><trkpt lat="44.252372" lon="8.2076518"><ele>987.0</ele><time>2026-04-26T09:23:00.207Z</time></trkpt><trkpt lat="44.2524873" lon="8.2075327"><ele>987.0</ele><time>2026-04-26T09:23:01.163Z</time></trkpt><trkpt lat="44.2526278" lon="8.2073483"><ele>987.0</ele><time>2026-04-26T09:23:02.205Z</time></trkpt><trkpt lat="44.2528586" lon="8.2069873"><ele>988.5</ele><time>2026-04-26T09:23:04.146Z</time></trkpt><trkpt lat="44.2529577" lon="8.2068379"><ele>990.0</ele><time>2026-04-26T09:23:05.127Z</time></trkpt><trkpt lat="44.2530486" lon="8.20673"><ele>991.5</ele><time>2026-04-26T09:23:06.175Z</time></trkpt><trkpt lat="44.2531542" lon="8.2066575"><ele>993.0</ele><time>2026-04-26T09:23:07.21Z</time></trkpt><trkpt lat="44.2532686" lon="8.2066781"><ele>993.0</ele><time>2026-04-26T09:23:08.211Z</time></trkpt><trkpt lat="44.2535035" lon="8.2068053"><ele>993.0</ele><time>2026-04-26T09:23:10.239Z</time></trkpt><trkpt lat="44.253724" lon="8.2067392"><ele>987.0</ele><time>2026-04-26T09:23:12.234Z</time></trkpt><trkpt lat="44.254015" lon="8.2065148"><ele>981.0</ele><time>2026-04-26T09:23:14.114Z</time></trkpt><trkpt lat="44.2541692" lon="8.2064646"><ele>981.0</ele><time>2026-04-26T09:23:15.206Z</time></trkpt><trkpt lat="44.2544091" lon="8.2065293"><ele>981.0</ele><time>2026-04-26T09:23:17.117Z</time></trkpt><trkpt lat="44.2545153" lon="8.2066546"><ele>981.0</ele><time>2026-04-26T09:23:18.212Z</time></trkpt><trkpt lat="44.2545649" lon="8.2068719"><ele>981.0</ele><time>2026-04-26T09:23:19.141Z</time></trkpt><trkpt lat="44.2546271" lon="8.2071001"><ele>981.0</ele><time>2026-04-26T09:23:20.239Z</time></trkpt><trkpt lat="44.2547816" lon="8.2073984"><ele>981.0</ele><time>2026-04-26T09:23:22.308Z</time></trkpt><trkpt lat="44.2550236" lon="8.2074887"><ele>977.6666666666667</ele><time>2026-04-26T09:23:24.046Z</time></trkpt><trkpt lat="44.2551963" lon="8.2075191"><ele>974.3333333333334</ele><time>2026-04-26T09:23:25.312Z</time></trkpt><trkpt lat="44.2553371" lon="8.2076785"><ele>971.0</ele><time>2026-04-26T09:23:27.237Z</time></trkpt><trkpt lat="44.255299" lon="8.2080412"><ele>968.5</ele><time>2026-04-26T09:23:29.278Z</time></trkpt><trkpt lat="44.2552761" lon="8.2083291"><ele>966.0</ele><time>2026-04-26T09:23:31.192Z</time></trkpt><trkpt lat="44.2553252" lon="8.2084421"><ele>963.5</ele><time>2026-04-26T09:23:32.265Z</time></trkpt><trkpt lat="44.2554238" lon="8.2085028"><ele>961.0</ele><time>2026-04-26T09:23:33.213Z</time></trkpt><trkpt lat="44.2557552" lon="8.2084427"><ele>961.0</ele><time>2026-04-26T09:23:35.266Z</time></trkpt><trkpt lat="44.2561757" lon="8.2081997"><ele>972.0</ele><time>2026-04-26T09:23:37.221Z</time></trkpt><trkpt lat="44.2563897" lon="8.2081007"><ele>983.0</ele><time>2026-04-26T09:23:38.164Z</time></trkpt><trkpt lat="44.2566169" lon="8.2080181"><ele>983.0</ele><time>2026-04-26T09:23:39.217Z</time></trkpt><trkpt lat="44.2568402" lon="8.2079176"><ele>983.0</ele><time>2026-04-26T09:23:40.368Z</time></trkpt><trkpt lat="44.2571168" lon="8.2077781"><ele>980.5</ele><time>2026-04-26T09:23:42.289Z</time></trkpt><trkpt lat="44.2573787" lon="8.2078782"><ele>978.0</ele><time>2026-04-26T09:23:44.208Z</time></trkpt><trkpt lat="44.2575175" lon="8.2080456"><ele>970.0</ele><time>2026-04-26T09:23:45.196Z</time></trkpt><trkpt lat="44.2576247" lon="8.2082874"><ele>962.0</ele><time>2026-04-26T09:23:46.2Z</time></trkpt><trkpt lat="44.2577093" lon="8.2085241"><ele>954.0</ele><time>2026-04-26T09:23:47.141Z</time></trkpt><trkpt lat="44.2577749" lon="8.2088077"><ele>943.0</ele><time>2026-04-26T09:23:48.207Z</time></trkpt><trkpt lat="44.2578037" lon="8.2093014"><ele>932.0</ele><time>2026-04-26T09:23:50.271Z</time></trkpt><trkpt lat="44.2576912" lon="8.2096832"><ele>933.5</ele><time>2026-04-26T09:23:52.199Z</time></trkpt><trkpt lat="44.2575122" lon="8.2100546"><ele>935.0</ele><time>2026-04-26T09:23:54.236Z</time></trkpt><trkpt lat="44.2574722" lon="8.2102741"><ele>935.0</ele><time>2026-04-26T09:23:55.165Z</time></trkpt><trkpt lat="44.2575305" lon="8.2105487"><ele>935.0</ele><time>2026-04-26T09:23:56.173Z</time></trkpt><trkpt lat="44.2576342" lon="8.2108546"><ele>935.0</ele><time>2026-04-26T09:23:57.204Z</time></trkpt><trkpt lat="44.2577235" lon="8.2110996"><ele>933.6666666666667</ele><time>2026-04-26T09:23:58.272Z</time></trkpt><trkpt lat="44.2578411" lon="8.2114846"><ele>932.3333333333333</ele><time>2026-04-26T09:24:00.143Z</time></trkpt><trkpt lat="44.2578485" lon="8.2116879"><ele>931.0</ele><time>2026-04-26T09:24:01.249Z</time></trkpt><trkpt lat="44.2578011" lon="8.2118659"><ele>928.6666666666666</ele><time>2026-04-26T09:24:02.277Z</time></trkpt><trkpt lat="44.257662" lon="8.2121932"><ele>926.3333333333333</ele><time>2026-04-26T09:24:04.193Z</time></trkpt><trkpt lat="44.2576491" lon="8.2123306"><ele>924.0</ele><time>2026-04-26T09:24:05.181Z</time></trkpt><trkpt lat="44.2576817" lon="8.2124847"><ele>923.0</ele><time>2026-04-26T09:24:06.156Z</time></trkpt><trkpt lat="44.2577716" lon="8.2126743"><ele>922.0</ele><time>2026-04-26T09:24:07.358Z</time></trkpt><trkpt lat="44.2581333" lon="8.2128612"><ele>926.5</ele><time>2026-04-26T09:24:09.227Z</time></trkpt><trkpt lat="44.2583497" lon="8.2129485"><ele>931.0</ele><time>2026-04-26T09:24:10.239Z</time></trkpt><trkpt lat="44.2585828" lon="8.2130105"><ele>931.0</ele><time>2026-04-26T09:24:11.256Z</time></trkpt><trkpt lat="44.2588201" lon="8.2130566"><ele>931.0</ele><time>2026-04-26T09:24:12.216Z</time></trkpt><trkpt lat="44.2590609" lon="8.2130721"><ele>934.0</ele><time>2026-04-26T09:24:13.222Z</time></trkpt><trkpt lat="44.2592926" lon="8.213107"><ele>937.0</ele><time>2026-04-26T09:24:14.232Z</time></trkpt><trkpt lat="44.259677" lon="8.2132883"><ele>930.3333333333333</ele><time>2026-04-26T09:24:16.118Z</time></trkpt><trkpt lat="44.2598432" lon="8.2133621"><ele>923.6666666666667</ele><time>2026-04-26T09:24:17.026Z</time></trkpt><trkpt lat="44.2600188" lon="8.2134306"><ele>917.0</ele><time>2026-04-26T09:24:18.123Z</time></trkpt><trkpt lat="44.2602965" lon="8.2134297"><ele>915.5</ele><time>2026-04-26T09:24:20.173Z</time></trkpt><trkpt lat="44.2606023" lon="8.2130815"><ele>914.0</ele><time>2026-04-26T09:24:22.2Z</time></trkpt><trkpt lat="44.2608684" lon="8.2128102"><ele>914.0</ele><time>2026-04-26T09:24:24.069Z</time></trkpt><trkpt lat="44.2610586" lon="8.2127109"><ele>914.0</ele><time>2026-04-26T09:24:25.14Z</time></trkpt><trkpt lat="44.261299" lon="8.212642"><ele>914.0</ele><time>2026-04-26T09:24:26.135Z</time></trkpt><trkpt lat="44.2615124" lon="8.2125861"><ele>908.5</ele><time>2026-04-26T09:24:27.12Z</time></trkpt><trkpt lat="44.2617409" lon="8.2125825"><ele>903.0</ele><time>2026-04-26T09:24:28.214Z</time></trkpt><trkpt lat="44.2622293" lon="8.2126969"><ele>900.0</ele><time>2026-04-26T09:24:30.255Z</time></trkpt><trkpt lat="44.2626102" lon="8.212878"><ele>897.0</ele><time>2026-04-26T09:24:32.157Z</time></trkpt><trkpt lat="44.2628701" lon="8.2130514"><ele>897.0</ele><time>2026-04-26T09:24:34.242Z</time></trkpt><trkpt lat="44.2629537" lon="8.2130999"><ele>897.0</ele><time>2026-04-26T09:24:35.214Z</time></trkpt><trkpt lat="44.2630363" lon="8.2128767"><ele>897.0</ele><time>2026-04-26T09:24:39.243Z</time></trkpt><trkpt lat="44.2630679" lon="8.2127174"><ele>897.0</ele><time>2026-04-26T09:24:40.21Z</time></trkpt><trkpt lat="44.2632254" lon="8.2124225"><ele>895.0</ele><time>2026-04-26T09:24:42.204Z</time></trkpt><trkpt lat="44.2634233" lon="8.2121744"><ele>893.0</ele><time>2026-04-26T09:24:44.163Z</time></trkpt><trkpt lat="44.2635593" lon="8.2121736"><ele>891.0</ele><time>2026-04-26T09:24:45.108Z</time></trkpt><trkpt lat="44.2638025" lon="8.2121992"><ele>887.3333333333333</ele><time>2026-04-26T09:24:46.197Z</time></trkpt><trkpt lat="44.264044" lon="8.212197"><ele>883.6666666666666</ele><time>2026-04-26T09:24:47.188Z</time></trkpt><trkpt lat="44.2642278" lon="8.212138"><ele>880.0</ele><time>2026-04-26T09:24:48.268Z</time></trkpt><trkpt lat="44.2643084" lon="8.212226"><ele>880.0</ele><time>2026-04-26T09:24:49.219Z</time></trkpt><trkpt lat="44.2644286" lon="8.2122576"><ele>880.0</ele><time>2026-04-26T09:24:50.23Z</time></trkpt><trkpt lat="44.2647519" lon="8.2122733"><ele>880.0</ele><time>2026-04-26T09:24:52.22Z</time></trkpt><trkpt lat="44.2650812" lon="8.2122933"><ele>875.0</ele><time>2026-04-26T09:24:54.282Z</time></trkpt><trkpt lat="44.265306" lon="8.2122782"><ele>870.0</ele><time>2026-04-26T09:24:56.175Z</time></trkpt><trkpt lat="44.2655209" lon="8.2120345"><ele>865.5</ele><time>2026-04-26T09:24:58.25Z</time></trkpt><trkpt lat="44.2656858" lon="8.2115704"><ele>861.0</ele><time>2026-04-26T09:25:00.249Z</time></trkpt><trkpt lat="44.2658631" lon="8.2112201"><ele>861.0</ele><time>2026-04-26T09:25:02.241Z</time></trkpt><trkpt lat="44.2660207" lon="8.211041"><ele>861.0</ele><time>2026-04-26T09:25:04.228Z</time></trkpt><trkpt lat="44.2661016" lon="8.2110649"><ele>861.0</ele><time>2026-04-26T09:25:05.185Z</time></trkpt><trkpt lat="44.2662059" lon="8.2111483"><ele>861.0</ele><time>2026-04-26T09:25:06.19Z</time></trkpt><trkpt lat="44.2662743" lon="8.2112865"><ele>854.0</ele><time>2026-04-26T09:25:07.159Z</time></trkpt><trkpt lat="44.2663488" lon="8.2114981"><ele>847.0</ele><time>2026-04-26T09:25:08.281Z</time></trkpt><trkpt lat="44.2665544" lon="8.211772"><ele>843.0</ele><time>2026-04-26T09:25:10.269Z</time></trkpt><trkpt lat="44.2669963" lon="8.2119969"><ele>846.0</ele><time>2026-04-26T09:25:12.39Z</time></trkpt><trkpt lat="44.2674058" lon="8.2122333"><ele>849.0</ele><time>2026-04-26T09:25:14.257Z</time></trkpt><trkpt lat="44.2676023" lon="8.2123567"><ele>843.0</ele><time>2026-04-26T09:25:15.281Z</time></trkpt><trkpt lat="44.267772" lon="8.2124655"><ele>837.0</ele><time>2026-04-26T09:25:16.186Z</time></trkpt><trkpt lat="44.2679583" lon="8.2125643"><ele>831.0</ele><time>2026-04-26T09:25:17.243Z</time></trkpt><trkpt lat="44.2681076" lon="8.2126162"><ele>829.6666666666667</ele><time>2026-04-26T09:25:18.206Z</time></trkpt><trkpt lat="44.2682462" lon="8.2126072"><ele>828.3333333333334</ele><time>2026-04-26T09:25:19.125Z</time></trkpt><trkpt lat="44.2684518" lon="8.2124862"><ele>827.0</ele><time>2026-04-26T09:25:20.329Z</time></trkpt><trkpt lat="44.2687542" lon="8.2122323"><ele>830.6666666666667</ele><time>2026-04-26T09:25:22.298Z</time></trkpt><trkpt lat="44.2689933" lon="8.212155"><ele>834.3333333333333</ele><time>2026-04-26T09:25:24.124Z</time></trkpt><trkpt lat="44.2691718" lon="8.2122342"><ele>838.0</ele><time>2026-04-26T09:25:25.377Z</time></trkpt><trkpt lat="44.2694515" lon="8.2123691"><ele>831.0</ele><time>2026-04-26T09:25:27.254Z</time></trkpt><trkpt lat="44.2696055" lon="8.2123579"><ele>824.0</ele><time>2026-04-26T09:25:28.165Z</time></trkpt><trkpt lat="44.2700644" lon="8.2121691"><ele>824.0</ele><time>2026-04-26T09:25:30.141Z</time></trkpt><trkpt lat="44.2703067" lon="8.2120774"><ele>824.0</ele><time>2026-04-26T09:25:31.195Z</time></trkpt><trkpt lat="44.2707179" lon="8.2118424"><ele>819.5</ele><time>2026-04-26T09:25:33.362Z</time></trkpt><trkpt lat="44.2708908" lon="8.2116529"><ele>815.0</ele><time>2026-04-26T09:25:35.214Z</time></trkpt><trkpt lat="44.2709762" lon="8.2115435"><ele>810.5</ele><time>2026-04-26T09:25:37.08Z</time></trkpt><trkpt lat="44.271041" lon="8.2114472"><ele>806.0</ele><time>2026-04-26T09:25:39.237Z</time></trkpt><trkpt lat="44.2710528" lon="8.2113363"><ele>805.5999999999999</ele><time>2026-04-26T09:25:42.136Z</time></trkpt><trkpt lat="44.2709939" lon="8.2112781"><ele>805.2</ele><time>2026-04-26T09:25:57.052Z</time></trkpt><trkpt lat="44.2709037" lon="8.2110786"><ele>804.8</ele><time>2026-04-26T09:26:32.937Z</time></trkpt><trkpt lat="44.2708525" lon="8.2109728"><ele>804.4000000000001</ele><time>2026-04-26T09:26:34.003Z</time></trkpt><trkpt lat="44.2708072" lon="8.2108531"><ele>804.0</ele><time>2026-04-26T09:26:35.028Z</time></trkpt><trkpt lat="44.2707692" lon="8.210741"><ele>802.4000000000001</ele><time>2026-04-26T09:26:35.953Z</time></trkpt><trkpt lat="44.2707186" lon="8.2106083"><ele>800.8</ele><time>2026-04-26T09:26:37.042Z</time></trkpt><trkpt lat="44.2706767" lon="8.2104839"><ele>799.2</ele><time>2026-04-26T09:26:38.158Z</time></trkpt><trkpt lat="44.270598" lon="8.2103153"><ele>797.5999999999999</ele><time>2026-04-26T09:26:40.186Z</time></trkpt><trkpt lat="44.2705328" lon="8.2102171"><ele>796.0</ele><time>2026-04-26T09:26:42.124Z</time></trkpt><trkpt lat="44.2704791" lon="8.2101642"><ele>798.9999999999999</ele><time>2026-04-26T09:27:01.112Z</time></trkpt><trkpt lat="44.2703973" lon="8.2101362"><ele>802.0</ele><time>2026-04-26T09:27:03.143Z</time></trkpt><trkpt lat="44.2703193" lon="8.2101166"><ele>805.0</ele><time>2026-04-26T09:27:04.219Z</time></trkpt><trkpt lat="44.2702479" lon="8.2101061"><ele>808.0</ele><time>2026-04-26T09:27:05.183Z</time></trkpt><trkpt lat="44.2701313" lon="8.2100234"><ele>810.9999999999999</ele><time>2026-04-26T09:27:07.185Z</time></trkpt><trkpt lat="44.2700953" lon="8.2099395"><ele>814.0</ele><time>2026-04-26T09:27:08.198Z</time></trkpt><trkpt lat="44.2700365" lon="8.2097459"><ele>814.0</ele><time>2026-04-26T09:27:09.997Z</time></trkpt><trkpt lat="44.2700046" lon="8.2096164"><ele>814.0</ele><time>2026-04-26T09:27:11.031Z</time></trkpt><trkpt lat="44.269974" lon="8.2094838"><ele>814.0</ele><time>2026-04-26T09:27:11.991Z</time></trkpt><trkpt lat="44.2699407" lon="8.2093339"><ele>814.0</ele><time>2026-04-26T09:27:13.023Z</time></trkpt><trkpt lat="44.2699121" lon="8.2092106"><ele>814.0</ele><time>2026-04-26T09:27:14.01Z</time></trkpt><trkpt lat="44.269882" lon="8.2091051"><ele>815.6666666666666</ele><time>2026-04-26T09:27:14.968Z</time></trkpt><trkpt lat="44.2698307" lon="8.2089439"><ele>817.3333333333333</ele><time>2026-04-26T09:27:16.108Z</time></trkpt><trkpt lat="44.2697925" lon="8.2087562"><ele>819.0</ele><time>2026-04-26T09:27:17.238Z</time></trkpt><trkpt lat="44.2698663" lon="8.2084688"><ele>819.0</ele><time>2026-04-26T09:27:19.191Z</time></trkpt><trkpt lat="44.2700457" lon="8.2081928"><ele>819.0</ele><time>2026-04-26T09:27:21.198Z</time></trkpt><trkpt lat="44.2701266" lon="8.2080177"><ele>819.0</ele><time>2026-04-26T09:27:22.221Z</time></trkpt><trkpt lat="44.2701892" lon="8.2075185"><ele>824.3333333333333</ele><time>2026-04-26T09:27:24.145Z</time></trkpt><trkpt lat="44.2702204" lon="8.2072628"><ele>829.6666666666666</ele><time>2026-04-26T09:27:25.085Z</time></trkpt><trkpt lat="44.2702713" lon="8.2069856"><ele>835.0</ele><time>2026-04-26T09:27:26.098Z</time></trkpt><trkpt lat="44.2703284" lon="8.2066876"><ele>837.5</ele><time>2026-04-26T09:27:27.15Z</time></trkpt><trkpt lat="44.2704358" lon="8.2061811"><ele>840.0</ele><time>2026-04-26T09:27:29.19Z</time></trkpt><trkpt lat="44.2704861" lon="8.2059429"><ele>840.0</ele><time>2026-04-26T09:27:30.185Z</time></trkpt><trkpt lat="44.2705356" lon="8.205707"><ele>840.0</ele><time>2026-04-26T09:27:31.254Z</time></trkpt><trkpt lat="44.2706061" lon="8.2052958"><ele>836.0</ele><time>2026-04-26T09:27:33.17Z</time></trkpt><trkpt lat="44.2706591" lon="8.2050986"><ele>832.0</ele><time>2026-04-26T09:27:34.104Z</time></trkpt><trkpt lat="44.2707544" lon="8.2049047"><ele>828.0</ele><time>2026-04-26T09:27:35.238Z</time></trkpt><trkpt lat="44.2709849" lon="8.2046793"><ele>828.0</ele><time>2026-04-26T09:27:37.084Z</time></trkpt><trkpt lat="44.2711288" lon="8.2046008"><ele>828.0</ele><time>2026-04-26T09:27:38.045Z</time></trkpt><trkpt lat="44.2713172" lon="8.2045392"><ele>828.0</ele><time>2026-04-26T09:27:39.187Z</time></trkpt><trkpt lat="44.2716312" lon="8.2044622"><ele>825.3333333333333</ele><time>2026-04-26T09:27:41.235Z</time></trkpt><trkpt lat="44.2718832" lon="8.2043729"><ele>822.6666666666666</ele><time>2026-04-26T09:27:43.266Z</time></trkpt><trkpt lat="44.2719916" lon="8.20426"><ele>820.0</ele><time>2026-04-26T09:27:44.395Z</time></trkpt><trkpt lat="44.2720881" lon="8.2039356"><ele>812.5</ele><time>2026-04-26T09:27:46.37Z</time></trkpt><trkpt lat="44.2723045" lon="8.2037024"><ele>805.0</ele><time>2026-04-26T09:27:48.355Z</time></trkpt><trkpt lat="44.2725737" lon="8.2035821"><ele>805.0</ele><time>2026-04-26T09:27:50.35Z</time></trkpt><trkpt lat="44.2727795" lon="8.2034608"><ele>805.0</ele><time>2026-04-26T09:27:52.32Z</time></trkpt><trkpt lat="44.2729334" lon="8.2033786"><ele>805.0</ele><time>2026-04-26T09:27:54.246Z</time></trkpt><trkpt lat="44.2730334" lon="8.2034272"><ele>805.0</ele><time>2026-04-26T09:27:56.286Z</time></trkpt><trkpt lat="44.273004" lon="8.2035899"><ele>805.0</ele><time>2026-04-26T09:27:58.19Z</time></trkpt><trkpt lat="44.272921" lon="8.2036603"><ele>805.0</ele><time>2026-04-26T09:27:59.172Z</time></trkpt><trkpt lat="44.2728063" lon="8.2037214"><ele>805.0</ele><time>2026-04-26T09:28:00.248Z</time></trkpt><trkpt lat="44.2726326" lon="8.2038335"><ele>805.0</ele><time>2026-04-26T09:28:02.286Z</time></trkpt><trkpt lat="44.2725858" lon="8.2038942"><ele>805.0</ele><time>2026-04-26T09:28:03.242Z</time></trkpt><trkpt lat="44.2725831" lon="8.204078"><ele>805.0</ele><time>2026-04-26T09:28:05.299Z</time></trkpt><trkpt lat="44.272691" lon="8.2040836"><ele>805.0</ele><time>2026-04-26T09:28:07.192Z</time></trkpt><trkpt lat="44.2728143" lon="8.2039969"><ele>805.0</ele><time>2026-04-26T09:28:08.109Z</time></trkpt><trkpt lat="44.2729675" lon="8.2039177"><ele>797.5</ele><time>2026-04-26T09:28:09.264Z</time></trkpt><trkpt lat="44.2731176" lon="8.2038531"><ele>790.0</ele><time>2026-04-26T09:28:10.281Z</time></trkpt><trkpt lat="44.2733569" lon="8.2036012"><ele>790.0</ele><time>2026-04-26T09:28:12.309Z</time></trkpt><trkpt lat="44.2736247" lon="8.2034381"><ele>790.0</ele><time>2026-04-26T09:28:14.292Z</time></trkpt><trkpt lat="44.2737716" lon="8.2033343"><ele>784.5</ele><time>2026-04-26T09:28:15.253Z</time></trkpt><trkpt lat="44.2740057" lon="8.2030347"><ele>779.0</ele><time>2026-04-26T09:28:17.262Z</time></trkpt><trkpt lat="44.2742689" lon="8.2027646"><ele>779.0</ele><time>2026-04-26T09:28:19.348Z</time></trkpt><trkpt lat="44.2745005" lon="8.2026187"><ele>779.0</ele><time>2026-04-26T09:28:21.067Z</time></trkpt><trkpt lat="44.2746495" lon="8.2025701"><ele>779.0</ele><time>2026-04-26T09:28:22.361Z</time></trkpt><trkpt lat="44.2748609" lon="8.2025531"><ele>773.0</ele><time>2026-04-26T09:28:24.299Z</time></trkpt><trkpt lat="44.2750766" lon="8.2026977"><ele>767.0</ele><time>2026-04-26T09:28:26.325Z</time></trkpt><trkpt lat="44.2752905" lon="8.2027195"><ele>767.0</ele><time>2026-04-26T09:28:28.215Z</time></trkpt><trkpt lat="44.2754176" lon="8.2026523"><ele>767.0</ele><time>2026-04-26T09:28:29.147Z</time></trkpt><trkpt lat="44.2755444" lon="8.2025347"><ele>767.0</ele><time>2026-04-26T09:28:30.13Z</time></trkpt><trkpt lat="44.2757034" lon="8.2023625"><ele>772.5</ele><time>2026-04-26T09:28:31.356Z</time></trkpt><trkpt lat="44.2759979" lon="8.2021545"><ele>778.0</ele><time>2026-04-26T09:28:33.264Z</time></trkpt><trkpt lat="44.2763474" lon="8.2019896"><ele>767.0</ele><time>2026-04-26T09:28:35.324Z</time></trkpt><trkpt lat="44.2766382" lon="8.2018899"><ele>756.0</ele><time>2026-04-26T09:28:37.333Z</time></trkpt><trkpt lat="44.2768277" lon="8.2016977"><ele>756.0</ele><time>2026-04-26T09:28:39.142Z</time></trkpt><trkpt lat="44.2769097" lon="8.2016333"><ele>756.0</ele><time>2026-04-26T09:28:40.3Z</time></trkpt><trkpt lat="44.2770242" lon="8.2017084"><ele>756.0</ele><time>2026-04-26T09:28:42.141Z</time></trkpt><trkpt lat="44.277035" lon="8.2018232"><ele>756.0</ele><time>2026-04-26T09:28:43.331Z</time></trkpt><trkpt lat="44.2769069" lon="8.2020406"><ele>756.0</ele><time>2026-04-26T09:28:45.308Z</time></trkpt><trkpt lat="44.276704" lon="8.2023292"><ele>756.0</ele><time>2026-04-26T09:28:47.454Z</time></trkpt><trkpt lat="44.2765376" lon="8.2025768"><ele>757.5</ele><time>2026-04-26T09:28:49.047Z</time></trkpt><trkpt lat="44.2764088" lon="8.2027746"><ele>759.0</ele><time>2026-04-26T09:28:50.251Z</time></trkpt><trkpt lat="44.2761961" lon="8.2031179"><ele>755.25</ele><time>2026-04-26T09:28:52.118Z</time></trkpt><trkpt lat="44.2760788" lon="8.2032744"><ele>751.5</ele><time>2026-04-26T09:28:53.148Z</time></trkpt><trkpt lat="44.2759769" lon="8.2033904"><ele>747.75</ele><time>2026-04-26T09:28:54.068Z</time></trkpt><trkpt lat="44.2758764" lon="8.2034961"><ele>744.0</ele><time>2026-04-26T09:28:55.126Z</time></trkpt><trkpt lat="44.2757755" lon="8.2036736"><ele>744.0</ele><time>2026-04-26T09:28:57.045Z</time></trkpt><trkpt lat="44.2757931" lon="8.2037689"><ele>744.0</ele><time>2026-04-26T09:28:58.076Z</time></trkpt><trkpt lat="44.2758625" lon="8.2038079"><ele>744.0</ele><time>2026-04-26T09:28:59.195Z</time></trkpt><trkpt lat="44.2759411" lon="8.2037866"><ele>744.0</ele><time>2026-04-26T09:29:00.123Z</time></trkpt><trkpt lat="44.2760598" lon="8.2036988"><ele>744.0</ele><time>2026-04-26T09:29:01.227Z</time></trkpt><trkpt lat="44.2763051" lon="8.2034818"><ele>743.0</ele><time>2026-04-26T09:29:03.084Z</time></trkpt><trkpt lat="44.2764625" lon="8.2033283"><ele>742.0</ele><time>2026-04-26T09:29:04.372Z</time></trkpt><trkpt lat="44.2766522" lon="8.2030775"><ele>742.0</ele><time>2026-04-26T09:29:06.274Z</time></trkpt><trkpt lat="44.276881" lon="8.2029224"><ele>742.0</ele><time>2026-04-26T09:29:08.245Z</time></trkpt><trkpt lat="44.2771325" lon="8.2028624"><ele>742.0</ele><time>2026-04-26T09:29:10.229Z</time></trkpt><trkpt lat="44.2772576" lon="8.2028226"><ele>742.0</ele><time>2026-04-26T09:29:11.275Z</time></trkpt><trkpt lat="44.2774789" lon="8.2026956"><ele>742.0</ele><time>2026-04-26T09:29:13.246Z</time></trkpt><trkpt lat="44.2776782" lon="8.2024651"><ele>737.5</ele><time>2026-04-26T09:29:15.232Z</time></trkpt><trkpt lat="44.2778014" lon="8.2020962"><ele>733.0</ele><time>2026-04-26T09:29:17.289Z</time></trkpt><trkpt lat="44.2778647" lon="8.2016593"><ele>734.5</ele><time>2026-04-26T09:29:19.328Z</time></trkpt><trkpt lat="44.2778953" lon="8.20146"><ele>736.0</ele><time>2026-04-26T09:29:20.266Z</time></trkpt><trkpt lat="44.277927" lon="8.2012685"><ele>737.5</ele><time>2026-04-26T09:29:21.218Z</time></trkpt><trkpt lat="44.277966" lon="8.201075"><ele>739.0</ele><time>2026-04-26T09:29:22.253Z</time></trkpt><trkpt lat="44.2781099" lon="8.2007469"><ele>729.0</ele><time>2026-04-26T09:29:24.401Z</time></trkpt><trkpt lat="44.278304" lon="8.2005526"><ele>719.0</ele><time>2026-04-26T09:29:26.248Z</time></trkpt><trkpt lat="44.2784981" lon="8.2002791"><ele>719.0</ele><time>2026-04-26T09:29:28.232Z</time></trkpt><trkpt lat="44.2785636" lon="8.2000722"><ele>719.0</ele><time>2026-04-26T09:29:29.234Z</time></trkpt><trkpt lat="44.2786599" lon="8.1996747"><ele>716.25</ele><time>2026-04-26T09:29:31.278Z</time></trkpt><trkpt lat="44.2786903" lon="8.1994601"><ele>713.5</ele><time>2026-04-26T09:29:32.268Z</time></trkpt><trkpt lat="44.2787095" lon="8.1992725"><ele>710.75</ele><time>2026-04-26T09:29:33.151Z</time></trkpt><trkpt lat="44.2787073" lon="8.1990788"><ele>708.0</ele><time>2026-04-26T09:29:34.174Z</time></trkpt><trkpt lat="44.2786429" lon="8.1987312"><ele>699.0</ele><time>2026-04-26T09:29:36.145Z</time></trkpt><trkpt lat="44.2785937" lon="8.1985604"><ele>690.0</ele><time>2026-04-26T09:29:37.372Z</time></trkpt><trkpt lat="44.2783997" lon="8.1984094"><ele>681.0</ele><time>2026-04-26T09:29:39.27Z</time></trkpt><trkpt lat="44.2782698" lon="8.198387"><ele>683.5</ele><time>2026-04-26T09:29:40.273Z</time></trkpt><trkpt lat="44.2779766" lon="8.1984159"><ele>686.0</ele><time>2026-04-26T09:29:42.222Z</time></trkpt><trkpt lat="44.2777107" lon="8.1984607"><ele>686.0</ele><time>2026-04-26T09:29:44.133Z</time></trkpt><trkpt lat="44.2775713" lon="8.198478"><ele>686.0</ele><time>2026-04-26T09:29:45.217Z</time></trkpt><trkpt lat="44.277328" lon="8.1983838"><ele>686.0</ele><time>2026-04-26T09:29:47.211Z</time></trkpt><trkpt lat="44.2771706" lon="8.1981666"><ele>682.3333333333333</ele><time>2026-04-26T09:29:49.027Z</time></trkpt><trkpt lat="44.2771184" lon="8.1979363"><ele>678.6666666666666</ele><time>2026-04-26T09:29:50.189Z</time></trkpt><trkpt lat="44.2770383" lon="8.1976737"><ele>675.0</ele><time>2026-04-26T09:29:52.167Z</time></trkpt><trkpt lat="44.2769865" lon="8.1975931"><ele>675.0</ele><time>2026-04-26T09:29:53.169Z</time></trkpt><trkpt lat="44.2769169" lon="8.1975145"><ele>675.0</ele><time>2026-04-26T09:29:54.255Z</time></trkpt><trkpt lat="44.2768514" lon="8.1975629"><ele>675.0</ele><time>2026-04-26T09:29:55.24Z</time></trkpt><trkpt lat="44.2767698" lon="8.1976103"><ele>675.0</ele><time>2026-04-26T09:29:56.157Z</time></trkpt><trkpt lat="44.2766831" lon="8.1976217"><ele>675.0</ele><time>2026-04-26T09:29:57.148Z</time></trkpt><trkpt lat="44.2766027" lon="8.1975872"><ele>675.0</ele><time>2026-04-26T09:29:58.284Z</time></trkpt><trkpt lat="44.2765199" lon="8.1974753"><ele>675.0</ele><time>2026-04-26T09:30:00.162Z</time></trkpt><trkpt lat="44.2764588" lon="8.1973671"><ele>675.0</ele><time>2026-04-26T09:30:02.189Z</time></trkpt><trkpt lat="44.2764056" lon="8.1972703"><ele>675.0</ele><time>2026-04-26T09:30:03.99Z</time></trkpt><trkpt lat="44.2763578" lon="8.1971721"><ele>675.0</ele><time>2026-04-26T09:30:06.241Z</time></trkpt><trkpt lat="44.2763575" lon="8.1970415"><ele>675.0</ele><time>2026-04-26T09:30:09.523Z</time></trkpt><trkpt lat="44.2764381" lon="8.1969014"><ele>677.25</ele><time>2026-04-26T09:31:19.075Z</time></trkpt><trkpt lat="44.2764987" lon="8.1968395"><ele>679.5</ele><time>2026-04-26T09:31:20.139Z</time></trkpt><trkpt lat="44.2767132" lon="8.1967783"><ele>681.75</ele><time>2026-04-26T09:31:22.16Z</time></trkpt><trkpt lat="44.2768428" lon="8.1968023"><ele>684.0</ele><time>2026-04-26T09:31:23.137Z</time></trkpt><trkpt lat="44.276995" lon="8.1968563"><ele>684.0</ele><time>2026-04-26T09:31:24.197Z</time></trkpt><trkpt lat="44.2771463" lon="8.1969137"><ele>684.0</ele><time>2026-04-26T09:31:25.215Z</time></trkpt><trkpt lat="44.2772992" lon="8.196975"><ele>684.0</ele><time>2026-04-26T09:31:26.17Z</time></trkpt><trkpt lat="44.2774502" lon="8.1970282"><ele>688.5</ele><time>2026-04-26T09:31:27.082Z</time></trkpt><trkpt lat="44.2776257" lon="8.197105"><ele>693.0</ele><time>2026-04-26T09:31:28.163Z</time></trkpt><trkpt lat="44.2778984" lon="8.1972503"><ele>681.5</ele><time>2026-04-26T09:31:30.157Z</time></trkpt><trkpt lat="44.2781529" lon="8.1973901"><ele>670.0</ele><time>2026-04-26T09:31:32.285Z</time></trkpt><trkpt lat="44.2783243" lon="8.1974631"><ele>670.0</ele><time>2026-04-26T09:31:34.083Z</time></trkpt><trkpt lat="44.2784323" lon="8.1974938"><ele>670.0</ele><time>2026-04-26T09:31:35.176Z</time></trkpt><trkpt lat="44.2785432" lon="8.1975128"><ele>670.0</ele><time>2026-04-26T09:31:36.133Z</time></trkpt><trkpt lat="44.2786545" lon="8.1975144"><ele>670.0</ele><time>2026-04-26T09:31:37.04Z</time></trkpt><trkpt lat="44.2788275" lon="8.1974986"><ele>668.6666666666667</ele><time>2026-04-26T09:31:38.268Z</time></trkpt><trkpt lat="44.2790701" lon="8.1974815"><ele>667.3333333333334</ele><time>2026-04-26T09:31:39.865Z</time></trkpt><trkpt lat="44.2792483" lon="8.1974781"><ele>666.0</ele><time>2026-04-26T09:31:40.986Z</time></trkpt><trkpt lat="44.2794019" lon="8.197486"><ele>666.0</ele><time>2026-04-26T09:31:41.954Z</time></trkpt><trkpt lat="44.2795794" lon="8.1975202"><ele>666.0</ele><time>2026-04-26T09:31:43.075Z</time></trkpt><trkpt lat="44.2797364" lon="8.1975642"><ele>666.0</ele><time>2026-04-26T09:31:44.069Z</time></trkpt><trkpt lat="44.2798749" lon="8.197617"><ele>666.75</ele><time>2026-04-26T09:31:45.036Z</time></trkpt><trkpt lat="44.2799891" lon="8.1976692"><ele>667.5</ele><time>2026-04-26T09:31:45.945Z</time></trkpt><trkpt lat="44.2801222" lon="8.1977622"><ele>668.25</ele><time>2026-04-26T09:31:47.017Z</time></trkpt><trkpt lat="44.2802446" lon="8.1979052"><ele>669.0</ele><time>2026-04-26T09:31:48.169Z</time></trkpt><trkpt lat="44.2803814" lon="8.1982349"><ele>667.0</ele><time>2026-04-26T09:31:50.115Z</time></trkpt><trkpt lat="44.2804139" lon="8.1984262"><ele>665.0</ele><time>2026-04-26T09:31:51.1Z</time></trkpt><trkpt lat="44.2804123" lon="8.1986158"><ele>663.0</ele><time>2026-04-26T09:31:52.031Z</time></trkpt><trkpt lat="44.2803933" lon="8.1988043"><ele>661.0</ele><time>2026-04-26T09:31:52.958Z</time></trkpt><trkpt lat="44.2803731" lon="8.1990113"><ele>661.0</ele><time>2026-04-26T09:31:54.053Z</time></trkpt><trkpt lat="44.2803568" lon="8.1991771"><ele>661.0</ele><time>2026-04-26T09:31:55.054Z</time></trkpt><trkpt lat="44.2803339" lon="8.1993254"><ele>661.0</ele><time>2026-04-26T09:31:56.029Z</time></trkpt><trkpt lat="44.2803113" lon="8.1995018"><ele>661.0</ele><time>2026-04-26T09:31:57.069Z</time></trkpt><trkpt lat="44.2802972" lon="8.1996858"><ele>660.25</ele><time>2026-04-26T09:31:58.03Z</time></trkpt><trkpt lat="44.2802904" lon="8.1998744"><ele>659.5</ele><time>2026-04-26T09:31:59.064Z</time></trkpt><trkpt lat="44.280298" lon="8.200027"><ele>658.75</ele><time>2026-04-26T09:32:00.118Z</time></trkpt><trkpt lat="44.2803425" lon="8.2001781"><ele>658.0</ele><time>2026-04-26T09:32:01.186Z</time></trkpt><trkpt lat="44.2804253" lon="8.200331"><ele>658.3333333333334</ele><time>2026-04-26T09:32:02.231Z</time></trkpt><trkpt lat="44.2806245" lon="8.2005706"><ele>658.6666666666666</ele><time>2026-04-26T09:32:04.087Z</time></trkpt><trkpt lat="44.2807605" lon="8.2007079"><ele>659.0</ele><time>2026-04-26T09:32:05.241Z</time></trkpt><trkpt lat="44.2809731" lon="8.2009099"><ele>659.0</ele><time>2026-04-26T09:32:07.049Z</time></trkpt><trkpt lat="44.2810926" lon="8.2010144"><ele>659.0</ele><time>2026-04-26T09:32:08.079Z</time></trkpt><trkpt lat="44.2812018" lon="8.2011087"><ele>659.0</ele><time>2026-04-26T09:32:09.053Z</time></trkpt><trkpt lat="44.2812915" lon="8.201201"><ele>659.0</ele><time>2026-04-26T09:32:09.982Z</time></trkpt><trkpt lat="44.281382" lon="8.2012982"><ele>658.75</ele><time>2026-04-26T09:32:11.012Z</time></trkpt><trkpt lat="44.2814666" lon="8.2013852"><ele>658.5</ele><time>2026-04-26T09:32:11.952Z</time></trkpt><trkpt lat="44.2815737" lon="8.2014919"><ele>658.25</ele><time>2026-04-26T09:32:13.134Z</time></trkpt><trkpt lat="44.2816676" lon="8.2015763"><ele>658.0</ele><time>2026-04-26T09:32:14.132Z</time></trkpt><trkpt lat="44.281877" lon="8.2017117"><ele>658.0</ele><time>2026-04-26T09:32:16.024Z</time></trkpt><trkpt lat="44.2820911" lon="8.2018283"><ele>658.0</ele><time>2026-04-26T09:32:17.805Z</time></trkpt><trkpt lat="44.2822354" lon="8.2019024"><ele>658.0</ele><time>2026-04-26T09:32:18.966Z</time></trkpt><trkpt lat="44.2824783" lon="8.2020156"><ele>658.75</ele><time>2026-04-26T09:32:20.955Z</time></trkpt><trkpt lat="44.2826181" lon="8.2020911"><ele>659.5</ele><time>2026-04-26T09:32:22.182Z</time></trkpt><trkpt lat="44.2827252" lon="8.202148"><ele>660.25</ele><time>2026-04-26T09:32:23.142Z</time></trkpt><trkpt lat="44.2828359" lon="8.202217"><ele>661.0</ele><time>2026-04-26T09:32:24.161Z</time></trkpt><trkpt lat="44.2829363" lon="8.2022926"><ele>658.6666666666667</ele><time>2026-04-26T09:32:25.088Z</time></trkpt><trkpt lat="44.2830607" lon="8.2023855"><ele>656.3333333333334</ele><time>2026-04-26T09:32:26.201Z</time></trkpt><trkpt lat="44.2832567" lon="8.2025471"><ele>654.0</ele><time>2026-04-26T09:32:28.13Z</time></trkpt><trkpt lat="44.2834412" lon="8.2026996"><ele>654.0</ele><time>2026-04-26T09:32:30.138Z</time></trkpt><trkpt lat="44.2835368" lon="8.2027711"><ele>654.0</ele><time>2026-04-26T09:32:31.118Z</time></trkpt><trkpt lat="44.2836373" lon="8.2028358"><ele>654.0</ele><time>2026-04-26T09:32:32.064Z</time></trkpt><trkpt lat="44.2837426" lon="8.2028827"><ele>654.0</ele><time>2026-04-26T09:32:32.999Z</time></trkpt><trkpt lat="44.2838668" lon="8.202928"><ele>654.5</ele><time>2026-04-26T09:32:34.081Z</time></trkpt><trkpt lat="44.2839775" lon="8.2029587"><ele>655.0</ele><time>2026-04-26T09:32:35.065Z</time></trkpt><trkpt lat="44.2840891" lon="8.2029751"><ele>655.5</ele><time>2026-04-26T09:32:36.061Z</time></trkpt><trkpt lat="44.2843034" lon="8.2029672"><ele>656.0</ele><time>2026-04-26T09:32:38.139Z</time></trkpt><trkpt lat="44.284395" lon="8.2029639"><ele>656.0</ele><time>2026-04-26T09:32:39.066Z</time></trkpt><trkpt lat="44.2846001" lon="8.2029875"><ele>656.0</ele><time>2026-04-26T09:32:41.152Z</time></trkpt><trkpt lat="44.2846956" lon="8.2030337"><ele>656.0</ele><time>2026-04-26T09:32:42.165Z</time></trkpt><trkpt lat="44.2848497" lon="8.2031808"><ele>653.4</ele><time>2026-04-26T09:32:44.271Z</time></trkpt><trkpt lat="44.2849321" lon="8.203366"><ele>650.8</ele><time>2026-04-26T09:32:45.945Z</time></trkpt><trkpt lat="44.2849904" lon="8.2035133"><ele>648.1999999999999</ele><time>2026-04-26T09:32:47.117Z</time></trkpt><trkpt lat="44.2850235" lon="8.2036256"><ele>645.5999999999999</ele><time>2026-04-26T09:32:48.06Z</time></trkpt><trkpt lat="44.2850505" lon="8.2037339"><ele>643.0</ele><time>2026-04-26T09:32:49.117Z</time></trkpt><trkpt lat="44.2850806" lon="8.2038531"><ele>643.0</ele><time>2026-04-26T09:32:51.042Z</time></trkpt><trkpt lat="44.2851071" lon="8.2039365"><ele>643.0</ele><time>2026-04-26T09:32:52.932Z</time></trkpt><trkpt lat="44.2850852" lon="8.2037612"><ele>643.0</ele><time>2026-04-26T09:33:14.951Z</time></trkpt><trkpt lat="44.2850439" lon="8.2036558"><ele>643.0</ele><time>2026-04-26T09:33:15.988Z</time></trkpt><trkpt lat="44.2850007" lon="8.2035397"><ele>643.0</ele><time>2026-04-26T09:33:17.11Z</time></trkpt><trkpt lat="44.2849248" lon="8.2033423"><ele>643.0</ele><time>2026-04-26T09:33:19.067Z</time></trkpt><trkpt lat="44.284877" lon="8.2032123"><ele>643.0</ele><time>2026-04-26T09:33:20.985Z</time></trkpt><trkpt lat="44.2849278" lon="8.2031371"><ele>643.0</ele><time>2026-04-26T09:33:23.118Z</time></trkpt><trkpt lat="44.2850589" lon="8.2030943"><ele>643.0</ele><time>2026-04-26T09:33:25.084Z</time></trkpt><trkpt lat="44.2851481" lon="8.2030504"><ele>643.0</ele><time>2026-04-26T09:33:26.221Z</time></trkpt><trkpt lat="44.2852305" lon="8.2030023"><ele>645.0</ele><time>2026-04-26T09:33:27.198Z</time></trkpt><trkpt lat="44.2854151" lon="8.202914"><ele>647.0</ele><time>2026-04-26T09:33:29.135Z</time></trkpt><trkpt lat="44.2855166" lon="8.2028639"><ele>649.0</ele><time>2026-04-26T09:33:30.188Z</time></trkpt><trkpt lat="44.2856116" lon="8.2028141"><ele>651.0</ele><time>2026-04-26T09:33:31.217Z</time></trkpt><trkpt lat="44.2857763" lon="8.2026946"><ele>651.0</ele><time>2026-04-26T09:33:33.04Z</time></trkpt><trkpt lat="44.2858667" lon="8.2026242"><ele>651.0</ele><time>2026-04-26T09:33:34.035Z</time></trkpt><trkpt lat="44.2859688" lon="8.2025544"><ele>651.0</ele><time>2026-04-26T09:33:35.102Z</time></trkpt><trkpt lat="44.286076" lon="8.2024774"><ele>651.0</ele><time>2026-04-26T09:33:36.27Z</time></trkpt><trkpt lat="44.2862322" lon="8.2023822"><ele>651.0</ele><time>2026-04-26T09:33:38.171Z</time></trkpt><trkpt lat="44.2863149" lon="8.2023354"><ele>651.0</ele><time>2026-04-26T09:33:39.17Z</time></trkpt><trkpt lat="44.2863841" lon="8.2022911"><ele>651.0</ele><time>2026-04-26T09:33:40.154Z</time></trkpt><trkpt lat="44.2864557" lon="8.2022443"><ele>651.0</ele><time>2026-04-26T09:33:41.273Z</time></trkpt><trkpt lat="44.2865566" lon="8.2021722"><ele>651.0</ele><time>2026-04-26T09:33:43.3Z</time></trkpt><trkpt lat="44.286624" lon="8.2020899"><ele>651.0</ele><time>2026-04-26T09:33:45.252Z</time></trkpt><trkpt lat="44.2867032" lon="8.2019863"><ele>652.5999999999999</ele><time>2026-04-26T09:33:47.065Z</time></trkpt><trkpt lat="44.2867546" lon="8.2019195"><ele>654.2</ele><time>2026-04-26T09:33:48.057Z</time></trkpt><trkpt lat="44.2868094" lon="8.201848"><ele>655.8</ele><time>2026-04-26T09:33:49.138Z</time></trkpt><trkpt lat="44.2868686" lon="8.201775"><ele>657.4000000000001</ele><time>2026-04-26T09:33:50.27Z</time></trkpt><trkpt lat="44.2869636" lon="8.2016758"><ele>659.0</ele><time>2026-04-26T09:33:52.272Z</time></trkpt><trkpt lat="44.2870745" lon="8.201547"><ele>661.0</ele><time>2026-04-26T09:33:54.989Z</time></trkpt><trkpt lat="44.2871644" lon="8.2014881"><ele>663.0</ele><time>2026-04-26T09:33:56.936Z</time></trkpt><trkpt lat="44.2872586" lon="8.2014816"><ele>665.0</ele><time>2026-04-26T09:33:58.909Z</time></trkpt><trkpt lat="44.2873684" lon="8.2014781"><ele>667.0</ele><time>2026-04-26T09:34:01.107Z</time></trkpt><trkpt lat="44.2874899" lon="8.201463"><ele>669.0</ele><time>2026-04-26T09:34:03.061Z</time></trkpt><trkpt lat="44.2875586" lon="8.2014471"><ele>669.0</ele><time>2026-04-26T09:34:04.057Z</time></trkpt><trkpt lat="44.2876348" lon="8.2014317"><ele>669.0</ele><time>2026-04-26T09:34:05.049Z</time></trkpt><trkpt lat="44.2877327" lon="8.2014156"><ele>669.0</ele><time>2026-04-26T09:34:06.166Z</time></trkpt><trkpt lat="44.2879505" lon="8.2013703"><ele>669.0</ele><time>2026-04-26T09:34:08.258Z</time></trkpt><trkpt lat="44.2881918" lon="8.2012863"><ele>668.0</ele><time>2026-04-26T09:34:10.272Z</time></trkpt><trkpt lat="44.2884128" lon="8.2012268"><ele>667.0</ele><time>2026-04-26T09:34:12.032Z</time></trkpt><trkpt lat="44.2885553" lon="8.2012309"><ele>666.0</ele><time>2026-04-26T09:34:13.281Z</time></trkpt><trkpt lat="44.288716" lon="8.2012622"><ele>666.0</ele><time>2026-04-26T09:34:15.295Z</time></trkpt><trkpt lat="44.2888245" lon="8.2012801"><ele>666.0</ele><time>2026-04-26T09:34:17.126Z</time></trkpt><trkpt lat="44.2889481" lon="8.2012637"><ele>666.0</ele><time>2026-04-26T09:34:19.168Z</time></trkpt><trkpt lat="44.2890883" lon="8.2011208"><ele>666.0</ele><time>2026-04-26T09:34:21.207Z</time></trkpt><trkpt lat="44.2892329" lon="8.2009826"><ele>667.75</ele><time>2026-04-26T09:34:23.175Z</time></trkpt><trkpt lat="44.2893016" lon="8.200917"><ele>669.5</ele><time>2026-04-26T09:34:24.133Z</time></trkpt><trkpt lat="44.2893692" lon="8.2008324"><ele>671.25</ele><time>2026-04-26T09:34:25.181Z</time></trkpt><trkpt lat="44.289487" lon="8.200625"><ele>673.0</ele><time>2026-04-26T09:34:27.217Z</time></trkpt><trkpt lat="44.2895528" lon="8.2005232"><ele>673.0</ele><time>2026-04-26T09:34:28.149Z</time></trkpt><trkpt lat="44.2896557" lon="8.2002975"><ele>673.0</ele><time>2026-04-26T09:34:30.026Z</time></trkpt><trkpt lat="44.2897153" lon="8.2001606"><ele>673.0</ele><time>2026-04-26T09:34:31.163Z</time></trkpt><trkpt lat="44.2897595" lon="8.2000028"><ele>673.0</ele><time>2026-04-26T09:34:32.224Z</time></trkpt><trkpt lat="44.2898084" lon="8.1997132"><ele>669.8</ele><time>2026-04-26T09:34:34.237Z</time></trkpt><trkpt lat="44.2898454" lon="8.1995928"><ele>666.5999999999999</ele><time>2026-04-26T09:34:35.15Z</time></trkpt><trkpt lat="44.289909" lon="8.1994884"><ele>663.4000000000001</ele><time>2026-04-26T09:34:36.326Z</time></trkpt><trkpt lat="44.2900344" lon="8.1993745"><ele>660.2</ele><time>2026-04-26T09:34:38.267Z</time></trkpt><trkpt lat="44.2900702" lon="8.1992883"><ele>657.0</ele><time>2026-04-26T09:34:39.274Z</time></trkpt><trkpt lat="44.290091" lon="8.1990946"><ele>658.2</ele><time>2026-04-26T09:34:41.185Z</time></trkpt><trkpt lat="44.2900917" lon="8.1989547"><ele>659.4000000000001</ele><time>2026-04-26T09:34:42.146Z</time></trkpt><trkpt lat="44.2900997" lon="8.1988034"><ele>660.5999999999999</ele><time>2026-04-26T09:34:43.102Z</time></trkpt><trkpt lat="44.2901102" lon="8.1986462"><ele>661.8</ele><time>2026-04-26T09:34:44.104Z</time></trkpt><trkpt lat="44.2901206" lon="8.1984804"><ele>663.0</ele><time>2026-04-26T09:34:45.26Z</time></trkpt><trkpt lat="44.2901436" lon="8.1981899"><ele>666.0</ele><time>2026-04-26T09:34:47.218Z</time></trkpt><trkpt lat="44.2901766" lon="8.1979868"><ele>669.0</ele><time>2026-04-26T09:34:49.218Z</time></trkpt><trkpt lat="44.2902567" lon="8.1978669"><ele>672.0</ele><time>2026-04-26T09:34:51.225Z</time></trkpt><trkpt lat="44.2903881" lon="8.1978758"><ele>675.0</ele><time>2026-04-26T09:34:53.204Z</time></trkpt><trkpt lat="44.2905338" lon="8.1980124"><ele>667.6666666666666</ele><time>2026-04-26T09:34:55.214Z</time></trkpt><trkpt lat="44.2906303" lon="8.1981992"><ele>660.3333333333333</ele><time>2026-04-26T09:34:57.204Z</time></trkpt><trkpt lat="44.2907474" lon="8.1983172"><ele>653.0</ele><time>2026-04-26T09:34:59.194Z</time></trkpt><trkpt lat="44.2909268" lon="8.1984209"><ele>653.0</ele><time>2026-04-26T09:35:01.173Z</time></trkpt><trkpt lat="44.2910206" lon="8.1984638"><ele>653.0</ele><time>2026-04-26T09:35:02.212Z</time></trkpt><trkpt lat="44.2911723" lon="8.1984511"><ele>653.0</ele><time>2026-04-26T09:35:05.257Z</time></trkpt><trkpt lat="44.2912273" lon="8.1983948"><ele>653.0</ele><time>2026-04-26T09:35:06.294Z</time></trkpt><trkpt lat="44.2913075" lon="8.1982357"><ele>653.8</ele><time>2026-04-26T09:35:08.063Z</time></trkpt><trkpt lat="44.2914435" lon="8.198305"><ele>654.5999999999999</ele><time>2026-04-26T09:35:11.208Z</time></trkpt><trkpt lat="44.2914921" lon="8.198385"><ele>655.4000000000001</ele><time>2026-04-26T09:35:12.188Z</time></trkpt><trkpt lat="44.291555" lon="8.1984272"><ele>656.2</ele><time>2026-04-26T09:35:13.193Z</time></trkpt><trkpt lat="44.2916424" lon="8.1984157"><ele>657.0</ele><time>2026-04-26T09:35:15.262Z</time></trkpt><trkpt lat="44.291733" lon="8.1982917"><ele>657.0</ele><time>2026-04-26T09:35:17.228Z</time></trkpt><trkpt lat="44.2918697" lon="8.1982803"><ele>657.0</ele><time>2026-04-26T09:35:19.218Z</time></trkpt><trkpt lat="44.2919653" lon="8.1983204"><ele>657.0</ele><time>2026-04-26T09:35:20.14Z</time></trkpt><trkpt lat="44.2920754" lon="8.1983523"><ele>657.0</ele><time>2026-04-26T09:35:21.209Z</time></trkpt><trkpt lat="44.2922917" lon="8.1984225"><ele>658.1666666666666</ele><time>2026-04-26T09:35:23.218Z</time></trkpt><trkpt lat="44.2923715" lon="8.1984597"><ele>659.3333333333334</ele><time>2026-04-26T09:35:24.156Z</time></trkpt><trkpt lat="44.2924366" lon="8.1984922"><ele>660.5</ele><time>2026-04-26T09:35:25.182Z</time></trkpt><trkpt lat="44.2925054" lon="8.198508"><ele>661.6666666666667</ele><time>2026-04-26T09:35:26.162Z</time></trkpt><trkpt lat="44.2925714" lon="8.1985056"><ele>662.8333333333334</ele><time>2026-04-26T09:35:27.133Z</time></trkpt><trkpt lat="44.2926737" lon="8.1984795"><ele>664.0</ele><time>2026-04-26T09:35:28.188Z</time></trkpt><trkpt lat="44.292782" lon="8.1984687"><ele>664.0</ele><time>2026-04-26T09:35:29.288Z</time></trkpt><trkpt lat="44.2929836" lon="8.1985095"><ele>664.0</ele><time>2026-04-26T09:35:31.313Z</time></trkpt><trkpt lat="44.2931341" lon="8.1985759"><ele>664.0</ele><time>2026-04-26T09:35:33.297Z</time></trkpt><trkpt lat="44.2933228" lon="8.1985773"><ele>665.75</ele><time>2026-04-26T09:35:35.288Z</time></trkpt><trkpt lat="44.2935211" lon="8.1985902"><ele>667.5</ele><time>2026-04-26T09:35:37.175Z</time></trkpt><trkpt lat="44.2936298" lon="8.1986167"><ele>669.25</ele><time>2026-04-26T09:35:38.373Z</time></trkpt><trkpt lat="44.2937382" lon="8.198615"><ele>671.0</ele><time>2026-04-26T09:35:40.146Z</time></trkpt><trkpt lat="44.2938314" lon="8.1984667"><ele>671.0</ele><time>2026-04-26T09:35:42.342Z</time></trkpt><trkpt lat="44.2938818" lon="8.1983067"><ele>671.0</ele><time>2026-04-26T09:35:44.246Z</time></trkpt><trkpt lat="44.2940023" lon="8.1983366"><ele>671.0</ele><time>2026-04-26T09:35:46.314Z</time></trkpt><trkpt lat="44.2941643" lon="8.1984285"><ele>671.0</ele><time>2026-04-26T09:35:48.253Z</time></trkpt><trkpt lat="44.2943482" lon="8.1984956"><ele>670.1999999999999</ele><time>2026-04-26T09:35:50.098Z</time></trkpt><trkpt lat="44.2944536" lon="8.198514"><ele>669.4</ele><time>2026-04-26T09:35:51.151Z</time></trkpt><trkpt lat="44.2945338" lon="8.1985333"><ele>668.6</ele><time>2026-04-26T09:35:52.065Z</time></trkpt><trkpt lat="44.2946061" lon="8.1985398"><ele>667.8</ele><time>2026-04-26T09:35:53.175Z</time></trkpt><trkpt lat="44.2947087" lon="8.1985494"><ele>667.0</ele><time>2026-04-26T09:35:56.12Z</time></trkpt><trkpt lat="44.294864" lon="8.198525"><ele>666.0</ele><time>2026-04-26T09:36:00.174Z</time></trkpt><trkpt lat="44.2949448" lon="8.1985167"><ele>665.0</ele><time>2026-04-26T09:36:01.18Z</time></trkpt><trkpt lat="44.2950073" lon="8.1985038"><ele>664.0</ele><time>2026-04-26T09:36:02.103Z</time></trkpt><trkpt lat="44.2950978" lon="8.1984871"><ele>663.0</ele><time>2026-04-26T09:36:03.235Z</time></trkpt><trkpt lat="44.2951734" lon="8.198461"><ele>662.0</ele><time>2026-04-26T09:36:04.173Z</time></trkpt><trkpt lat="44.2953344" lon="8.1984195"><ele>662.0</ele><time>2026-04-26T09:36:06.186Z</time></trkpt><trkpt lat="44.295417" lon="8.1984242"><ele>662.0</ele><time>2026-04-26T09:36:07.225Z</time></trkpt><trkpt lat="44.2954974" lon="8.1984377"><ele>662.0</ele><time>2026-04-26T09:36:08.262Z</time></trkpt><trkpt lat="44.2956491" lon="8.1984142"><ele>662.0</ele><time>2026-04-26T09:36:10.193Z</time></trkpt><trkpt lat="44.2958057" lon="8.1983522"><ele>661.0</ele><time>2026-04-26T09:36:12.157Z</time></trkpt><trkpt lat="44.2959024" lon="8.1983209"><ele>660.0</ele><time>2026-04-26T09:36:13.193Z</time></trkpt><trkpt lat="44.2959942" lon="8.1983001"><ele>659.0</ele><time>2026-04-26T09:36:14.356Z</time></trkpt><trkpt lat="44.296102" lon="8.198281"><ele>658.0</ele><time>2026-04-26T09:36:16.142Z</time></trkpt><trkpt lat="44.2962006" lon="8.1982364"><ele>657.0</ele><time>2026-04-26T09:36:17.225Z</time></trkpt><trkpt lat="44.29633" lon="8.198183"><ele>659.2</ele><time>2026-04-26T09:36:19.199Z</time></trkpt><trkpt lat="44.2963962" lon="8.1981552"><ele>661.4000000000001</ele><time>2026-04-26T09:36:20.121Z</time></trkpt><trkpt lat="44.2964974" lon="8.1980426"><ele>663.5999999999999</ele><time>2026-04-26T09:36:22.217Z</time></trkpt><trkpt lat="44.2965389" lon="8.1979173"><ele>665.8</ele><time>2026-04-26T09:36:23.332Z</time></trkpt><trkpt lat="44.2966269" lon="8.1977852"><ele>668.0</ele><time>2026-04-26T09:36:25.161Z</time></trkpt><trkpt lat="44.2967131" lon="8.1977483"><ele>668.0</ele><time>2026-04-26T09:36:26.211Z</time></trkpt><trkpt lat="44.2968134" lon="8.1977338"><ele>668.0</ele><time>2026-04-26T09:36:27.275Z</time></trkpt><trkpt lat="44.2969958" lon="8.197685"><ele>668.0</ele><time>2026-04-26T09:36:29.156Z</time></trkpt><trkpt lat="44.2970699" lon="8.1976489"><ele>668.0</ele><time>2026-04-26T09:36:30.118Z</time></trkpt><trkpt lat="44.2972018" lon="8.1975093"><ele>665.0</ele><time>2026-04-26T09:36:32.237Z</time></trkpt><trkpt lat="44.2972804" lon="8.1972129"><ele>662.0</ele><time>2026-04-26T09:36:34.28Z</time></trkpt><trkpt lat="44.2973223" lon="8.1969985"><ele>659.0</ele><time>2026-04-26T09:36:36.213Z</time></trkpt><trkpt lat="44.2973321" lon="8.1969113"><ele>656.0</ele><time>2026-04-26T09:36:37.12Z</time></trkpt><trkpt lat="44.2973146" lon="8.1967081"><ele>656.0</ele><time>2026-04-26T09:36:39.352Z</time></trkpt><trkpt lat="44.2972526" lon="8.1966069"><ele>656.0</ele><time>2026-04-26T09:36:41.186Z</time></trkpt><trkpt lat="44.2973076" lon="8.1965211"><ele>656.0</ele><time>2026-04-26T09:36:43.193Z</time></trkpt><trkpt lat="44.2974242" lon="8.1965451"><ele>656.0</ele><time>2026-04-26T09:36:45.115Z</time></trkpt><trkpt lat="44.2974959" lon="8.1965999"><ele>656.0</ele><time>2026-04-26T09:36:46.106Z</time></trkpt><trkpt lat="44.2975673" lon="8.1966411"><ele>656.0</ele><time>2026-04-26T09:36:47.063Z</time></trkpt><trkpt lat="44.2976427" lon="8.1966908"><ele>656.0</ele><time>2026-04-26T09:36:48.143Z</time></trkpt><trkpt lat="44.2976937" lon="8.196749"><ele>656.0</ele><time>2026-04-26T09:36:49.132Z</time></trkpt><trkpt lat="44.2977294" lon="8.1968309"><ele>656.0</ele><time>2026-04-26T09:36:50.246Z</time></trkpt><trkpt lat="44.2977355" lon="8.1969321"><ele>656.0</ele><time>2026-04-26T09:36:51.242Z</time></trkpt><trkpt lat="44.297744" lon="8.1971103"><ele>656.0</ele><time>2026-04-26T09:36:53.183Z</time></trkpt><trkpt lat="44.2977811" lon="8.197255"><ele>654.0</ele><time>2026-04-26T09:36:55.086Z</time></trkpt><trkpt lat="44.2978109" lon="8.1973407"><ele>652.0</ele><time>2026-04-26T09:36:56.137Z</time></trkpt><trkpt lat="44.2978428" lon="8.1974171"><ele>650.0</ele><time>2026-04-26T09:36:57.107Z</time></trkpt><trkpt lat="44.2979331" lon="8.1975293"><ele>648.0</ele><time>2026-04-26T09:36:59.158Z</time></trkpt><trkpt lat="44.2981537" lon="8.1975684"><ele>648.0</ele><time>2026-04-26T09:37:02.09Z</time></trkpt><trkpt lat="44.298268" lon="8.197602"><ele>648.0</ele><time>2026-04-26T09:37:03.151Z</time></trkpt><trkpt lat="44.2983542" lon="8.19765"><ele>648.0</ele><time>2026-04-26T09:37:04.076Z</time></trkpt><trkpt lat="44.2984469" lon="8.1977252"><ele>648.0</ele><time>2026-04-26T09:37:05.217Z</time></trkpt><trkpt lat="44.2985871" lon="8.1977909"><ele>648.0</ele><time>2026-04-26T09:37:07.282Z</time></trkpt><trkpt lat="44.2987256" lon="8.197782"><ele>648.0</ele><time>2026-04-26T09:37:09.276Z</time></trkpt><trkpt lat="44.2988438" lon="8.1978462"><ele>648.0</ele><time>2026-04-26T09:37:11.232Z</time></trkpt><trkpt lat="44.2989522" lon="8.1978871"><ele>648.0</ele><time>2026-04-26T09:37:13.391Z</time></trkpt><trkpt lat="44.2990223" lon="8.1978633"><ele>646.1999999999999</ele><time>2026-04-26T09:37:15.149Z</time></trkpt><trkpt lat="44.2991114" lon="8.197918"><ele>644.4</ele><time>2026-04-26T09:37:18.049Z</time></trkpt><trkpt lat="44.2991946" lon="8.1980458"><ele>642.5999999999999</ele><time>2026-04-26T09:37:20.263Z</time></trkpt><trkpt lat="44.2992544" lon="8.198142"><ele>640.8</ele><time>2026-04-26T09:37:22.278Z</time></trkpt><trkpt lat="44.2993084" lon="8.1982242"><ele>639.0</ele><time>2026-04-26T09:37:24.231Z</time></trkpt><trkpt lat="44.2993496" lon="8.1982957"><ele>637.5</ele><time>2026-04-26T09:37:27.061Z</time></trkpt><trkpt lat="44.2993924" lon="8.1983814"><ele>636.0</ele><time>2026-04-26T09:37:49.072Z</time></trkpt><trkpt lat="44.2994548" lon="8.1984781"><ele>634.5</ele><time>2026-04-26T09:40:49.069Z</time></trkpt><trkpt lat="44.2995137" lon="8.1985669"><ele>633.0</ele><time>2026-04-26T09:40:50.989Z</time></trkpt><trkpt lat="44.2995651" lon="8.1986417"><ele>631.5</ele><time>2026-04-26T09:40:52.056Z</time></trkpt><trkpt lat="44.2996168" lon="8.1987236"><ele>630.0</ele><time>2026-04-26T09:40:53.034Z</time></trkpt><trkpt lat="44.2996756" lon="8.1988161"><ele>630.0</ele><time>2026-04-26T09:40:54.078Z</time></trkpt><trkpt lat="44.2997321" lon="8.1989065"><ele>630.0</ele><time>2026-04-26T09:40:55.057Z</time></trkpt><trkpt lat="44.2997886" lon="8.1989963"><ele>630.0</ele><time>2026-04-26T09:40:56.079Z</time></trkpt><trkpt lat="44.2998375" lon="8.199072"><ele>630.0</ele><time>2026-04-26T09:40:57.04Z</time></trkpt><trkpt lat="44.2998863" lon="8.1991425"><ele>630.0</ele><time>2026-04-26T09:40:58.054Z</time></trkpt><trkpt lat="44.2999637" lon="8.19927"><ele>630.0</ele><time>2026-04-26T09:41:00.161Z</time></trkpt><trkpt lat="44.300004" lon="8.1993383"><ele>631.0</ele><time>2026-04-26T09:41:02.022Z</time></trkpt><trkpt lat="44.3000721" lon="8.1994159"><ele>632.0</ele><time>2026-04-26T09:41:05.007Z</time></trkpt><trkpt lat="44.3002557" lon="8.1993394"><ele>633.0</ele><time>2026-04-26T09:41:07.996Z</time></trkpt><trkpt lat="44.300344" lon="8.199283"><ele>634.0</ele><time>2026-04-26T09:41:08.979Z</time></trkpt><trkpt lat="44.3004472" lon="8.199226"><ele>634.0</ele><time>2026-04-26T09:41:09.983Z</time></trkpt><trkpt lat="44.3005616" lon="8.1991807"><ele>634.0</ele><time>2026-04-26T09:41:11.012Z</time></trkpt><trkpt lat="44.3006995" lon="8.1991766"><ele>634.0</ele><time>2026-04-26T09:41:12.182Z</time></trkpt><trkpt lat="44.3009429" lon="8.1992524"><ele>637.6666666666667</ele><time>2026-04-26T09:41:14.102Z</time></trkpt><trkpt lat="44.3012284" lon="8.1992484"><ele>641.3333333333334</ele><time>2026-04-26T09:41:16.13Z</time></trkpt><trkpt lat="44.3013587" lon="8.1991997"><ele>645.0</ele><time>2026-04-26T09:41:17.026Z</time></trkpt><trkpt lat="44.3015113" lon="8.1991192"><ele>650.0</ele><time>2026-04-26T09:41:18.075Z</time></trkpt><trkpt lat="44.301671" lon="8.1990198"><ele>655.0</ele><time>2026-04-26T09:41:19.209Z</time></trkpt><trkpt lat="44.3019117" lon="8.1987746"><ele>648.0</ele><time>2026-04-26T09:41:21.102Z</time></trkpt><trkpt lat="44.302012" lon="8.198619"><ele>641.0</ele><time>2026-04-26T09:41:22.059Z</time></trkpt><trkpt lat="44.3021091" lon="8.198418"><ele>634.0</ele><time>2026-04-26T09:41:23.149Z</time></trkpt><trkpt lat="44.302179" lon="8.1982347"><ele>636.3333333333334</ele><time>2026-04-26T09:41:24.08Z</time></trkpt><trkpt lat="44.3022644" lon="8.1980104"><ele>638.6666666666666</ele><time>2026-04-26T09:41:25.182Z</time></trkpt><trkpt lat="44.3023432" lon="8.1978333"><ele>641.0</ele><time>2026-04-26T09:41:26.084Z</time></trkpt><trkpt lat="44.3024472" lon="8.1976585"><ele>641.0</ele><time>2026-04-26T09:41:27.133Z</time></trkpt><trkpt lat="44.3025851" lon="8.197495"><ele>641.0</ele><time>2026-04-26T09:41:28.282Z</time></trkpt><trkpt lat="44.3028259" lon="8.1973308"><ele>641.0</ele><time>2026-04-26T09:41:29.935Z</time></trkpt><trkpt lat="44.3029924" lon="8.1972668"><ele>638.3333333333333</ele><time>2026-04-26T09:41:30.966Z</time></trkpt><trkpt lat="44.3031467" lon="8.1972167"><ele>635.6666666666666</ele><time>2026-04-26T09:41:31.889Z</time></trkpt><trkpt lat="44.3033433" lon="8.1971567"><ele>633.0</ele><time>2026-04-26T09:41:33.044Z</time></trkpt><trkpt lat="44.3035048" lon="8.1971073"><ele>633.0</ele><time>2026-04-26T09:41:34Z</time></trkpt><trkpt lat="44.3036774" lon="8.1970459"><ele>633.0</ele><time>2026-04-26T09:41:35.039Z</time></trkpt><trkpt lat="44.304003" lon="8.1968781"><ele>632.3333333333334</ele><time>2026-04-26T09:41:36.984Z</time></trkpt><trkpt lat="44.3041723" lon="8.1967456"><ele>631.6666666666667</ele><time>2026-04-26T09:41:38.038Z</time></trkpt><trkpt lat="44.3043218" lon="8.1965908"><ele>631.0</ele><time>2026-04-26T09:41:38.991Z</time></trkpt><trkpt lat="44.3044641" lon="8.1964175"><ele>631.0</ele><time>2026-04-26T09:41:39.961Z</time></trkpt><trkpt lat="44.3046162" lon="8.1962313"><ele>631.0</ele><time>2026-04-26T09:41:40.994Z</time></trkpt><trkpt lat="44.3047676" lon="8.1960616"><ele>631.0</ele><time>2026-04-26T09:41:41.99Z</time></trkpt><trkpt lat="44.3049293" lon="8.1959023"><ele>631.3333333333334</ele><time>2026-04-26T09:41:42.993Z</time></trkpt><trkpt lat="44.3051071" lon="8.1957462"><ele>631.6666666666666</ele><time>2026-04-26T09:41:44.04Z</time></trkpt><trkpt lat="44.3052762" lon="8.1956087"><ele>632.0</ele><time>2026-04-26T09:41:45.056Z</time></trkpt><trkpt lat="44.3054206" lon="8.1954981"><ele>638.5</ele><time>2026-04-26T09:41:45.976Z</time></trkpt><trkpt lat="44.3055855" lon="8.195378"><ele>645.0</ele><time>2026-04-26T09:41:47.092Z</time></trkpt><trkpt lat="44.3058285" lon="8.195215"><ele>645.0</ele><time>2026-04-26T09:41:48.995Z</time></trkpt><trkpt lat="44.3059502" lon="8.1951549"><ele>645.0</ele><time>2026-04-26T09:41:50.039Z</time></trkpt><trkpt lat="44.3060593" lon="8.1951439"><ele>645.0</ele><time>2026-04-26T09:41:50.944Z</time></trkpt><trkpt lat="44.306193" lon="8.1951702"><ele>645.0</ele><time>2026-04-26T09:41:52.014Z</time></trkpt><trkpt lat="44.3063213" lon="8.1952364"><ele>642.0</ele><time>2026-04-26T09:41:53.019Z</time></trkpt><trkpt lat="44.3065838" lon="8.1954595"><ele>639.0</ele><time>2026-04-26T09:41:54.986Z</time></trkpt><trkpt lat="44.3067389" lon="8.1955748"><ele>648.0</ele><time>2026-04-26T09:41:56.025Z</time></trkpt><trkpt lat="44.3068974" lon="8.1956777"><ele>657.0</ele><time>2026-04-26T09:41:57.034Z</time></trkpt><trkpt lat="44.3070444" lon="8.1957617"><ele>666.0</ele><time>2026-04-26T09:41:57.972Z</time></trkpt><trkpt lat="44.3071963" lon="8.1958523"><ele>658.0</ele><time>2026-04-26T09:41:58.984Z</time></trkpt><trkpt lat="44.3073177" lon="8.1959638"><ele>650.0</ele><time>2026-04-26T09:41:59.91Z</time></trkpt><trkpt lat="44.3074407" lon="8.1961281"><ele>642.0</ele><time>2026-04-26T09:42:00.945Z</time></trkpt><trkpt lat="44.3075656" lon="8.1963319"><ele>642.0</ele><time>2026-04-26T09:42:02.046Z</time></trkpt><trkpt lat="44.3076837" lon="8.1964982"><ele>642.0</ele><time>2026-04-26T09:42:03.009Z</time></trkpt><trkpt lat="44.3078226" lon="8.1966473"><ele>642.0</ele><time>2026-04-26T09:42:03.998Z</time></trkpt><trkpt lat="44.3079748" lon="8.1968126"><ele>640.0</ele><time>2026-04-26T09:42:05.062Z</time></trkpt><trkpt lat="44.3081142" lon="8.196967"><ele>638.0</ele><time>2026-04-26T09:42:06.01Z</time></trkpt><trkpt lat="44.3082954" lon="8.1971664"><ele>636.0</ele><time>2026-04-26T09:42:07.148Z</time></trkpt><trkpt lat="44.3086024" lon="8.1974961"><ele>635.5</ele><time>2026-04-26T09:42:08.993Z</time></trkpt><trkpt lat="44.3087709" lon="8.1976748"><ele>635.0</ele><time>2026-04-26T09:42:09.993Z</time></trkpt><trkpt lat="44.3089763" lon="8.1978957"><ele>647.5</ele><time>2026-04-26T09:42:11.205Z</time></trkpt><trkpt lat="44.3092523" lon="8.1982185"><ele>660.0</ele><time>2026-04-26T09:42:12.98Z</time></trkpt><trkpt lat="44.3094102" lon="8.1984125"><ele>660.0</ele><time>2026-04-26T09:42:14.16Z</time></trkpt><trkpt lat="44.3096245" lon="8.1986814"><ele>660.0</ele><time>2026-04-26T09:42:15.974Z</time></trkpt><trkpt lat="44.3097359" lon="8.1988018"><ele>660.0</ele><time>2026-04-26T09:42:16.959Z</time></trkpt><trkpt lat="44.3098631" lon="8.1989028"><ele>658.6666666666666</ele><time>2026-04-26T09:42:17.946Z</time></trkpt><trkpt lat="44.3099915" lon="8.1989835"><ele>657.3333333333333</ele><time>2026-04-26T09:42:18.948Z</time></trkpt><trkpt lat="44.3101267" lon="8.1990414"><ele>656.0</ele><time>2026-04-26T09:42:20.038Z</time></trkpt><trkpt lat="44.3103481" lon="8.1991185"><ele>656.0</ele><time>2026-04-26T09:42:21.959Z</time></trkpt><trkpt lat="44.3104572" lon="8.1991387"><ele>656.0</ele><time>2026-04-26T09:42:23.01Z</time></trkpt><trkpt lat="44.3105583" lon="8.1991847"><ele>656.0</ele><time>2026-04-26T09:42:24.047Z</time></trkpt><trkpt lat="44.3106414" lon="8.1992756"><ele>656.0</ele><time>2026-04-26T09:42:25.085Z</time></trkpt><trkpt lat="44.310697" lon="8.1993949"><ele>656.0</ele><time>2026-04-26T09:42:26.09Z</time></trkpt><trkpt lat="44.3107115" lon="8.1996748"><ele>661.0</ele><time>2026-04-26T09:42:28.008Z</time></trkpt><trkpt lat="44.310674" lon="8.1998387"><ele>666.0</ele><time>2026-04-26T09:42:29.038Z</time></trkpt><trkpt lat="44.3106249" lon="8.2000149"><ele>671.0</ele><time>2026-04-26T09:42:30.076Z</time></trkpt><trkpt lat="44.310584" lon="8.2001722"><ele>676.0</ele><time>2026-04-26T09:42:30.976Z</time></trkpt><trkpt lat="44.3104725" lon="8.200524"><ele>674.25</ele><time>2026-04-26T09:42:33.043Z</time></trkpt><trkpt lat="44.3104784" lon="8.2007212"><ele>672.5</ele><time>2026-04-26T09:42:36.114Z</time></trkpt><trkpt lat="44.3105623" lon="8.2007948"><ele>670.75</ele><time>2026-04-26T09:42:37.971Z</time></trkpt><trkpt lat="44.310604" lon="8.2008926"><ele>669.0</ele><time>2026-04-26T09:42:38.893Z</time></trkpt><trkpt lat="44.3106369" lon="8.2010664"><ele>659.25</ele><time>2026-04-26T09:42:40.087Z</time></trkpt><trkpt lat="44.3107036" lon="8.2010589"><ele>649.5</ele><time>2026-04-26T09:42:41.018Z</time></trkpt><trkpt lat="44.3108222" lon="8.2010875"><ele>639.75</ele><time>2026-04-26T09:42:41.966Z</time></trkpt><trkpt lat="44.3109944" lon="8.201128"><ele>630.0</ele><time>2026-04-26T09:42:43.031Z</time></trkpt><trkpt lat="44.3111412" lon="8.201195"><ele>630.0</ele><time>2026-04-26T09:42:44.128Z</time></trkpt><trkpt lat="44.3112471" lon="8.2012582"><ele>630.0</ele><time>2026-04-26T09:42:45.171Z</time></trkpt><trkpt lat="44.3113263" lon="8.2013334"><ele>630.0</ele><time>2026-04-26T09:42:46.095Z</time></trkpt><trkpt lat="44.3113701" lon="8.2014287"><ele>630.0</ele><time>2026-04-26T09:42:47.081Z</time></trkpt><trkpt lat="44.3113888" lon="8.2015611"><ele>630.0</ele><time>2026-04-26T09:42:48.151Z</time></trkpt><trkpt lat="44.3114065" lon="8.2017594"><ele>634.0</ele><time>2026-04-26T09:42:49.206Z</time></trkpt><trkpt lat="44.3113876" lon="8.2019457"><ele>638.0</ele><time>2026-04-26T09:42:50.109Z</time></trkpt><trkpt lat="44.3113294" lon="8.2021523"><ele>642.0</ele><time>2026-04-26T09:42:51.186Z</time></trkpt><trkpt lat="44.3112529" lon="8.2024493"><ele>642.0</ele><time>2026-04-26T09:42:52.32Z</time></trkpt><trkpt lat="44.3112027" lon="8.2028113"><ele>642.0</ele><time>2026-04-26T09:42:54.112Z</time></trkpt><trkpt lat="44.3111975" lon="8.2030096"><ele>642.0</ele><time>2026-04-26T09:42:55.101Z</time></trkpt><trkpt lat="44.3112024" lon="8.2032018"><ele>642.4000000000001</ele><time>2026-04-26T09:42:56.117Z</time></trkpt><trkpt lat="44.3112398" lon="8.2033458"><ele>642.8000000000001</ele><time>2026-04-26T09:42:57.063Z</time></trkpt><trkpt lat="44.311277" lon="8.203458"><ele>643.2</ele><time>2026-04-26T09:42:58.143Z</time></trkpt><trkpt lat="44.3113215" lon="8.2035425"><ele>643.6</ele><time>2026-04-26T09:42:59.118Z</time></trkpt><trkpt lat="44.3114" lon="8.203622"><ele>644.0</ele><time>2026-04-26T09:43:00.158Z</time></trkpt><trkpt lat="44.3115012" lon="8.2037428"><ele>630.6666666666666</ele><time>2026-04-26T09:43:01.09Z</time></trkpt><trkpt lat="44.3116007" lon="8.2039004"><ele>617.3333333333334</ele><time>2026-04-26T09:43:02.205Z</time></trkpt><trkpt lat="44.3116782" lon="8.2042057"><ele>604.0</ele><time>2026-04-26T09:43:04.264Z</time></trkpt><trkpt lat="44.311834" lon="8.2042542"><ele>604.0</ele><time>2026-04-26T09:43:06.343Z</time></trkpt><trkpt lat="44.3118955" lon="8.2040784"><ele>604.0</ele><time>2026-04-26T09:43:08.184Z</time></trkpt><trkpt lat="44.3117904" lon="8.2038078"><ele>604.0</ele><time>2026-04-26T09:43:10.149Z</time></trkpt><trkpt lat="44.3116866" lon="8.2036398"><ele>603.75</ele><time>2026-04-26T09:43:11.19Z</time></trkpt><trkpt lat="44.3115969" lon="8.2034821"><ele>603.5</ele><time>2026-04-26T09:43:12.188Z</time></trkpt><trkpt lat="44.3115333" lon="8.2033352"><ele>603.25</ele><time>2026-04-26T09:43:13.094Z</time></trkpt><trkpt lat="44.3114837" lon="8.2031394"><ele>603.0</ele><time>2026-04-26T09:43:14.165Z</time></trkpt><trkpt lat="44.3114953" lon="8.2027164"><ele>602.0</ele><time>2026-04-26T09:43:16.123Z</time></trkpt><trkpt lat="44.3115355" lon="8.2024831"><ele>601.0</ele><time>2026-04-26T09:43:17.133Z</time></trkpt><trkpt lat="44.3115969" lon="8.2022548"><ele>600.0</ele><time>2026-04-26T09:43:18.191Z</time></trkpt><trkpt lat="44.3117732" lon="8.2018308"><ele>600.0</ele><time>2026-04-26T09:43:20.05Z</time></trkpt><trkpt lat="44.3118563" lon="8.2015895"><ele>600.0</ele><time>2026-04-26T09:43:21.151Z</time></trkpt><trkpt lat="44.3119147" lon="8.2012794"><ele>600.0</ele><time>2026-04-26T09:43:22.986Z</time></trkpt><trkpt lat="44.3119257" lon="8.2011282"><ele>600.0</ele><time>2026-04-26T09:43:24.171Z</time></trkpt><trkpt lat="44.3119532" lon="8.2010403"><ele>600.0</ele><time>2026-04-26T09:43:25.134Z</time></trkpt><trkpt lat="44.3120099" lon="8.2009906"><ele>600.0</ele><time>2026-04-26T09:43:26.154Z</time></trkpt><trkpt lat="44.3120746" lon="8.2010199"><ele>600.0</ele><time>2026-04-26T09:43:27.204Z</time></trkpt><trkpt lat="44.3121113" lon="8.2011041"><ele>600.0</ele><time>2026-04-26T09:43:28.225Z</time></trkpt><trkpt lat="44.3121235" lon="8.2012331"><ele>600.0</ele><time>2026-04-26T09:43:29.159Z</time></trkpt><trkpt lat="44.3120687" lon="8.2016448"><ele>600.0</ele><time>2026-04-26T09:43:31.125Z</time></trkpt><trkpt lat="44.3120279" lon="8.2019071"><ele>600.0</ele><time>2026-04-26T09:43:32.22Z</time></trkpt><trkpt lat="44.3119936" lon="8.2021319"><ele>600.0</ele><time>2026-04-26T09:43:33.182Z</time></trkpt><trkpt lat="44.3119745" lon="8.2023427"><ele>599.6666666666666</ele><time>2026-04-26T09:43:34.167Z</time></trkpt><trkpt lat="44.3119691" lon="8.2027501"><ele>599.3333333333333</ele><time>2026-04-26T09:43:36.044Z</time></trkpt><trkpt lat="44.3119889" lon="8.2029596"><ele>599.0</ele><time>2026-04-26T09:43:37.04Z</time></trkpt><trkpt lat="44.3120423" lon="8.2031893"><ele>600.3333333333333</ele><time>2026-04-26T09:43:38.084Z</time></trkpt><trkpt lat="44.3120763" lon="8.2034365"><ele>601.6666666666666</ele><time>2026-04-26T09:43:39.104Z</time></trkpt><trkpt lat="44.3121953" lon="8.2036699"><ele>603.0</ele><time>2026-04-26T09:43:40.003Z</time></trkpt><trkpt lat="44.3123772" lon="8.2039327"><ele>587.5</ele><time>2026-04-26T09:43:41.082Z</time></trkpt><trkpt lat="44.312497" lon="8.2041582"><ele>572.0</ele><time>2026-04-26T09:43:42.158Z</time></trkpt><trkpt lat="44.3126674" lon="8.2044781"><ele>572.0</ele><time>2026-04-26T09:43:44.065Z</time></trkpt><trkpt lat="44.312775" lon="8.2046086"><ele>572.0</ele><time>2026-04-26T09:43:45.041Z</time></trkpt><trkpt lat="44.3128309" lon="8.2047671"><ele>572.0</ele><time>2026-04-26T09:43:46.271Z</time></trkpt><trkpt lat="44.3127672" lon="8.2049506"><ele>572.0</ele><time>2026-04-26T09:43:48.31Z</time></trkpt><trkpt lat="44.3125133" lon="8.2051002"><ele>582.0</ele><time>2026-04-26T09:43:50.198Z</time></trkpt><trkpt lat="44.3120754" lon="8.2053022"><ele>582.0</ele><time>2026-04-26T09:43:52.073Z</time></trkpt><trkpt lat="44.3118439" lon="8.205415"><ele>582.0</ele><time>2026-04-26T09:43:53.13Z</time></trkpt><trkpt lat="44.3116642" lon="8.2055209"><ele>582.0</ele><time>2026-04-26T09:43:54.04Z</time></trkpt><trkpt lat="44.3115148" lon="8.2056309"><ele>579.3333333333334</ele><time>2026-04-26T09:43:55Z</time></trkpt><trkpt lat="44.3113647" lon="8.2057938"><ele>576.6666666666667</ele><time>2026-04-26T09:43:56.131Z</time></trkpt><trkpt lat="44.3112694" lon="8.2059412"><ele>574.0</ele><time>2026-04-26T09:43:57.061Z</time></trkpt><trkpt lat="44.3111917" lon="8.2061377"><ele>574.0</ele><time>2026-04-26T09:43:58.101Z</time></trkpt><trkpt lat="44.3111634" lon="8.2063573"><ele>574.0</ele><time>2026-04-26T09:43:59.129Z</time></trkpt><trkpt lat="44.3111825" lon="8.2066094"><ele>574.0</ele><time>2026-04-26T09:44:00.129Z</time></trkpt><trkpt lat="44.3112313" lon="8.2069044"><ele>575.5</ele><time>2026-04-26T09:44:01.18Z</time></trkpt><trkpt lat="44.3112836" lon="8.2072049"><ele>577.0</ele><time>2026-04-26T09:44:02.188Z</time></trkpt><trkpt lat="44.3113399" lon="8.2075335"><ele>542.0</ele><time>2026-04-26T09:44:03.162Z</time></trkpt><trkpt lat="44.3114642" lon="8.2082153"><ele>542.0</ele><time>2026-04-26T09:44:05.133Z</time></trkpt><trkpt lat="44.311526" lon="8.2085852"><ele>542.0</ele><time>2026-04-26T09:44:06.191Z</time></trkpt><trkpt lat="44.3115829" lon="8.2089352"><ele>543.5</ele><time>2026-04-26T09:44:07.211Z</time></trkpt><trkpt lat="44.3116312" lon="8.20927"><ele>545.0</ele><time>2026-04-26T09:44:08.259Z</time></trkpt><trkpt lat="44.3117238" lon="8.2097906"><ele>547.3333333333333</ele><time>2026-04-26T09:44:10.08Z</time></trkpt><trkpt lat="44.3117703" lon="8.2100516"><ele>549.6666666666666</ele><time>2026-04-26T09:44:11.06Z</time></trkpt><trkpt lat="44.3118224" lon="8.2103086"><ele>552.0</ele><time>2026-04-26T09:44:12.067Z</time></trkpt><trkpt lat="44.3118852" lon="8.2105362"><ele>556.6666666666666</ele><time>2026-04-26T09:44:13.016Z</time></trkpt><trkpt lat="44.3119751" lon="8.2107602"><ele>561.3333333333333</ele><time>2026-04-26T09:44:14.044Z</time></trkpt><trkpt lat="44.3120768" lon="8.2109717"><ele>566.0</ele><time>2026-04-26T09:44:15.126Z</time></trkpt><trkpt lat="44.3122797" lon="8.2112495"><ele>557.0</ele><time>2026-04-26T09:44:17.041Z</time></trkpt><trkpt lat="44.312389" lon="8.2113278"><ele>548.0</ele><time>2026-04-26T09:44:17.944Z</time></trkpt><trkpt lat="44.3125203" lon="8.2113733"><ele>539.0</ele><time>2026-04-26T09:44:19.008Z</time></trkpt><trkpt lat="44.3126335" lon="8.2113722"><ele>530.0</ele><time>2026-04-26T09:44:19.991Z</time></trkpt><trkpt lat="44.3128641" lon="8.2111864"><ele>530.0</ele><time>2026-04-26T09:44:22.142Z</time></trkpt><trkpt lat="44.3129354" lon="8.2110049"><ele>530.0</ele><time>2026-04-26T09:44:23.188Z</time></trkpt><trkpt lat="44.3130453" lon="8.2106322"><ele>530.0</ele><time>2026-04-26T09:44:25.156Z</time></trkpt><trkpt lat="44.3131155" lon="8.2104739"><ele>529.5</ele><time>2026-04-26T09:44:26.229Z</time></trkpt><trkpt lat="44.313285" lon="8.2103484"><ele>529.0</ele><time>2026-04-26T09:44:28.13Z</time></trkpt><trkpt lat="44.3133746" lon="8.2103425"><ele>528.5</ele><time>2026-04-26T09:44:29.082Z</time></trkpt><trkpt lat="44.3134755" lon="8.2103986"><ele>528.0</ele><time>2026-04-26T09:44:30.198Z</time></trkpt><trkpt lat="44.3136198" lon="8.2106886"><ele>528.0</ele><time>2026-04-26T09:44:32.057Z</time></trkpt><trkpt lat="44.3137117" lon="8.2109316"><ele>528.0</ele><time>2026-04-26T09:44:33.135Z</time></trkpt><trkpt lat="44.3138074" lon="8.2111786"><ele>528.0</ele><time>2026-04-26T09:44:34.15Z</time></trkpt><trkpt lat="44.3139053" lon="8.2114243"><ele>525.5</ele><time>2026-04-26T09:44:35.157Z</time></trkpt><trkpt lat="44.3141093" lon="8.2119168"><ele>523.0</ele><time>2026-04-26T09:44:37.082Z</time></trkpt><trkpt lat="44.3142129" lon="8.2121768"><ele>523.0</ele><time>2026-04-26T09:44:38.057Z</time></trkpt><trkpt lat="44.3143166" lon="8.2124362"><ele>523.0</ele><time>2026-04-26T09:44:39.057Z</time></trkpt><trkpt lat="44.3144144" lon="8.2126797"><ele>523.0</ele><time>2026-04-26T09:44:40.045Z</time></trkpt><trkpt lat="44.3144976" lon="8.2128918"><ele>523.0</ele><time>2026-04-26T09:44:40.97Z</time></trkpt><trkpt lat="44.314567" lon="8.2131214"><ele>523.0</ele><time>2026-04-26T09:44:42.033Z</time></trkpt><trkpt lat="44.3146114" lon="8.2133557"><ele>523.0</ele><time>2026-04-26T09:44:43.028Z</time></trkpt><trkpt lat="44.314634" lon="8.2135958"><ele>527.6666666666667</ele><time>2026-04-26T09:44:43.985Z</time></trkpt><trkpt lat="44.3146451" lon="8.2138578"><ele>532.3333333333334</ele><time>2026-04-26T09:44:45.004Z</time></trkpt><trkpt lat="44.3146664" lon="8.21411"><ele>537.0</ele><time>2026-04-26T09:44:46.042Z</time></trkpt><trkpt lat="44.3147062" lon="8.2143528"><ele>530.6666666666666</ele><time>2026-04-26T09:44:47.036Z</time></trkpt><trkpt lat="44.3147847" lon="8.2146096"><ele>524.3333333333333</ele><time>2026-04-26T09:44:48.12Z</time></trkpt><trkpt lat="44.314863" lon="8.2148199"><ele>518.0</ele><time>2026-04-26T09:44:49.051Z</time></trkpt><trkpt lat="44.3149542" lon="8.2150198"><ele>518.0</ele><time>2026-04-26T09:44:50.055Z</time></trkpt><trkpt lat="44.315037" lon="8.2151811"><ele>518.0</ele><time>2026-04-26T09:44:50.971Z</time></trkpt><trkpt lat="44.3151732" lon="8.215342"><ele>518.0</ele><time>2026-04-26T09:44:52.049Z</time></trkpt><trkpt lat="44.3153631" lon="8.2154793"><ele>519.5</ele><time>2026-04-26T09:44:53.201Z</time></trkpt><trkpt lat="44.3156911" lon="8.2156573"><ele>521.0</ele><time>2026-04-26T09:44:55.055Z</time></trkpt><trkpt lat="44.3158663" lon="8.2157346"><ele>521.0</ele><time>2026-04-26T09:44:55.994Z</time></trkpt><trkpt lat="44.3160868" lon="8.2158052"><ele>521.0</ele><time>2026-04-26T09:44:57.109Z</time></trkpt><trkpt lat="44.3163006" lon="8.2158473"><ele>521.0</ele><time>2026-04-26T09:44:58.181Z</time></trkpt><trkpt lat="44.3167256" lon="8.2159465"><ele>516.5</ele><time>2026-04-26T09:45:00.261Z</time></trkpt><trkpt lat="44.3170967" lon="8.2161196"><ele>512.0</ele><time>2026-04-26T09:45:02.122Z</time></trkpt><trkpt lat="44.3173167" lon="8.2162278"><ele>512.0</ele><time>2026-04-26T09:45:03.238Z</time></trkpt><trkpt lat="44.3176781" lon="8.2163991"><ele>512.0</ele><time>2026-04-26T09:45:05.184Z</time></trkpt><trkpt lat="44.3178568" lon="8.2164669"><ele>512.0</ele><time>2026-04-26T09:45:06.157Z</time></trkpt><trkpt lat="44.3182485" lon="8.2165268"><ele>512.0</ele><time>2026-04-26T09:45:08.176Z</time></trkpt><trkpt lat="44.3186743" lon="8.2164647"><ele>509.66666666666663</ele><time>2026-04-26T09:45:10.193Z</time></trkpt><trkpt lat="44.3188766" lon="8.2164103"><ele>507.33333333333337</ele><time>2026-04-26T09:45:11.135Z</time></trkpt><trkpt lat="44.3190931" lon="8.2163511"><ele>505.0</ele><time>2026-04-26T09:45:12.132Z</time></trkpt><trkpt lat="44.3193155" lon="8.2162941"><ele>504.5</ele><time>2026-04-26T09:45:13.135Z</time></trkpt><trkpt lat="44.3195209" lon="8.216265"><ele>504.0</ele><time>2026-04-26T09:45:14.081Z</time></trkpt><trkpt lat="44.3197678" lon="8.2162597"><ele>506.0</ele><time>2026-04-26T09:45:15.168Z</time></trkpt><trkpt lat="44.3199803" lon="8.216273"><ele>508.0</ele><time>2026-04-26T09:45:16.119Z</time></trkpt><trkpt lat="44.3202084" lon="8.216287"><ele>510.0</ele><time>2026-04-26T09:45:17.152Z</time></trkpt><trkpt lat="44.3204334" lon="8.2162977"><ele>509.66666666666663</ele><time>2026-04-26T09:45:18.178Z</time></trkpt><trkpt lat="44.3206236" lon="8.2163044"><ele>509.3333333333333</ele><time>2026-04-26T09:45:19.119Z</time></trkpt><trkpt lat="44.3207958" lon="8.2163079"><ele>509.0</ele><time>2026-04-26T09:45:20.06Z</time></trkpt><trkpt lat="44.3209561" lon="8.2163141"><ele>509.0</ele><time>2026-04-26T09:45:21.155Z</time></trkpt><trkpt lat="44.3210954" lon="8.2163111"><ele>509.0</ele><time>2026-04-26T09:45:22.157Z</time></trkpt><trkpt lat="44.3212214" lon="8.2162776"><ele>509.0</ele><time>2026-04-26T09:45:23.131Z</time></trkpt><trkpt lat="44.3213495" lon="8.2161823"><ele>509.0</ele><time>2026-04-26T09:45:24.171Z</time></trkpt><trkpt lat="44.3214417" lon="8.2160528"><ele>508.66666666666663</ele><time>2026-04-26T09:45:25.035Z</time></trkpt><trkpt lat="44.3215244" lon="8.2158238"><ele>508.33333333333337</ele><time>2026-04-26T09:45:26.173Z</time></trkpt><trkpt lat="44.3215701" lon="8.2155786"><ele>508.0</ele><time>2026-04-26T09:45:27.158Z</time></trkpt><trkpt lat="44.3216014" lon="8.2153281"><ele>508.0</ele><time>2026-04-26T09:45:28.061Z</time></trkpt><trkpt lat="44.3216429" lon="8.2150291"><ele>508.0</ele><time>2026-04-26T09:45:29.081Z</time></trkpt><trkpt lat="44.3216905" lon="8.2146984"><ele>506.6666666666667</ele><time>2026-04-26T09:45:30.234Z</time></trkpt><trkpt lat="44.32173" lon="8.214426"><ele>505.33333333333337</ele><time>2026-04-26T09:45:31.177Z</time></trkpt><trkpt lat="44.3217837" lon="8.2140911"><ele>504.0</ele><time>2026-04-26T09:45:32.27Z</time></trkpt><trkpt lat="44.3218678" lon="8.2135111"><ele>503.66666666666663</ele><time>2026-04-26T09:45:34.153Z</time></trkpt><trkpt lat="44.3219026" lon="8.2132465"><ele>503.3333333333333</ele><time>2026-04-26T09:45:35.105Z</time></trkpt><trkpt lat="44.3219409" lon="8.2129726"><ele>503.0</ele><time>2026-04-26T09:45:36.098Z</time></trkpt><trkpt lat="44.322013" lon="8.2125191"><ele>505.66666666666663</ele><time>2026-04-26T09:45:37.982Z</time></trkpt><trkpt lat="44.3220534" lon="8.2123006"><ele>508.33333333333337</ele><time>2026-04-26T09:45:39.005Z</time></trkpt><trkpt lat="44.3221106" lon="8.2121135"><ele>511.0</ele><time>2026-04-26T09:45:39.961Z</time></trkpt><trkpt lat="44.3222064" lon="8.21193"><ele>506.0</ele><time>2026-04-26T09:45:41.045Z</time></trkpt><trkpt lat="44.3224606" lon="8.2117216"><ele>501.0</ele><time>2026-04-26T09:45:42.959Z</time></trkpt><trkpt lat="44.3225958" lon="8.2116923"><ele>496.0</ele><time>2026-04-26T09:45:43.89Z</time></trkpt><trkpt lat="44.3227599" lon="8.2117131"><ele>496.5</ele><time>2026-04-26T09:45:44.975Z</time></trkpt><trkpt lat="44.3230798" lon="8.211834"><ele>497.0</ele><time>2026-04-26T09:45:46.955Z</time></trkpt><trkpt lat="44.3232581" lon="8.211839"><ele>497.0</ele><time>2026-04-26T09:45:47.978Z</time></trkpt><trkpt lat="44.3234442" lon="8.2117852"><ele>497.0</ele><time>2026-04-26T09:45:49.055Z</time></trkpt><trkpt lat="44.3236231" lon="8.211688"><ele>497.0</ele><time>2026-04-26T09:45:50.125Z</time></trkpt><trkpt lat="44.3237756" lon="8.2115502"><ele>496.5</ele><time>2026-04-26T09:45:51.098Z</time></trkpt><trkpt lat="44.3239267" lon="8.211352"><ele>496.0</ele><time>2026-04-26T09:45:52.193Z</time></trkpt><trkpt lat="44.3241751" lon="8.2109456"><ele>496.0</ele><time>2026-04-26T09:45:54.132Z</time></trkpt><trkpt lat="44.3242991" lon="8.2107379"><ele>496.0</ele><time>2026-04-26T09:45:55.094Z</time></trkpt><trkpt lat="44.3244485" lon="8.2104919"><ele>496.0</ele><time>2026-04-26T09:45:56.23Z</time></trkpt><trkpt lat="44.3246943" lon="8.2100912"><ele>497.0</ele><time>2026-04-26T09:45:58.156Z</time></trkpt><trkpt lat="44.3248048" lon="8.2099175"><ele>498.0</ele><time>2026-04-26T09:45:59.076Z</time></trkpt><trkpt lat="44.3249339" lon="8.2097037"><ele>499.0</ele><time>2026-04-26T09:46:00.273Z</time></trkpt><trkpt lat="44.3250514" lon="8.2093751"><ele>502.5</ele><time>2026-04-26T09:46:02.182Z</time></trkpt><trkpt lat="44.3250036" lon="8.2089823"><ele>506.0</ele><time>2026-04-26T09:46:04.243Z</time></trkpt><trkpt lat="44.3248062" lon="8.2086752"><ele>501.5</ele><time>2026-04-26T09:46:06.079Z</time></trkpt><trkpt lat="44.324677" lon="8.2085109"><ele>497.0</ele><time>2026-04-26T09:46:07.089Z</time></trkpt><trkpt lat="44.3245957" lon="8.2083794"><ele>492.5</ele><time>2026-04-26T09:46:08.009Z</time></trkpt><trkpt lat="44.3245455" lon="8.2082075"><ele>488.0</ele><time>2026-04-26T09:46:09.169Z</time></trkpt><trkpt lat="44.3246162" lon="8.2079248"><ele>488.66666666666663</ele><time>2026-04-26T09:46:11.11Z</time></trkpt><trkpt lat="44.324729" lon="8.2077744"><ele>489.33333333333337</ele><time>2026-04-26T09:46:12.16Z</time></trkpt><trkpt lat="44.3248857" lon="8.2076433"><ele>490.0</ele><time>2026-04-26T09:46:13.16Z</time></trkpt><trkpt lat="44.3250313" lon="8.2075106"><ele>490.0</ele><time>2026-04-26T09:46:14.095Z</time></trkpt><trkpt lat="44.3252032" lon="8.2073384"><ele>490.0</ele><time>2026-04-26T09:46:15.189Z</time></trkpt><trkpt lat="44.3253856" lon="8.2071625"><ele>490.0</ele><time>2026-04-26T09:46:16.26Z</time></trkpt><trkpt lat="44.3256459" lon="8.206903"><ele>488.33333333333337</ele><time>2026-04-26T09:46:17.937Z</time></trkpt><trkpt lat="44.325791" lon="8.206756"><ele>486.66666666666663</ele><time>2026-04-26T09:46:18.942Z</time></trkpt><trkpt lat="44.3259544" lon="8.2066279"><ele>485.0</ele><time>2026-04-26T09:46:20.078Z</time></trkpt><trkpt lat="44.3260859" lon="8.2065912"><ele>485.0</ele><time>2026-04-26T09:46:20.981Z</time></trkpt><trkpt lat="44.3262481" lon="8.2065891"><ele>485.0</ele><time>2026-04-26T09:46:21.971Z</time></trkpt><trkpt lat="44.326421" lon="8.206591"><ele>485.0</ele><time>2026-04-26T09:46:22.952Z</time></trkpt><trkpt lat="44.3266215" lon="8.2065932"><ele>485.66666666666663</ele><time>2026-04-26T09:46:24.04Z</time></trkpt><trkpt lat="44.3267906" lon="8.2066003"><ele>486.33333333333337</ele><time>2026-04-26T09:46:25.022Z</time></trkpt><trkpt lat="44.3269634" lon="8.2066041"><ele>487.0</ele><time>2026-04-26T09:46:26.098Z</time></trkpt><trkpt lat="44.3272751" lon="8.2066415"><ele>484.5</ele><time>2026-04-26T09:46:28.122Z</time></trkpt><trkpt lat="44.3276137" lon="8.2067939"><ele>482.0</ele><time>2026-04-26T09:46:30.13Z</time></trkpt><trkpt lat="44.3277826" lon="8.2068919"><ele>482.0</ele><time>2026-04-26T09:46:31.275Z</time></trkpt><trkpt lat="44.3280134" lon="8.2070309"><ele>482.0</ele><time>2026-04-26T09:46:33.168Z</time></trkpt><trkpt lat="44.3281329" lon="8.207091"><ele>482.0</ele><time>2026-04-26T09:46:34.092Z</time></trkpt><trkpt lat="44.3282742" lon="8.2071537"><ele>479.0</ele><time>2026-04-26T09:46:35.058Z</time></trkpt><trkpt lat="44.3284403" lon="8.2071997"><ele>476.0</ele><time>2026-04-26T09:46:36.066Z</time></trkpt><trkpt lat="44.3286034" lon="8.2072299"><ele>473.0</ele><time>2026-04-26T09:46:37.084Z</time></trkpt><trkpt lat="44.3287537" lon="8.2072563"><ele>472.3333333333333</ele><time>2026-04-26T09:46:38.071Z</time></trkpt><trkpt lat="44.3289043" lon="8.2072817"><ele>471.66666666666663</ele><time>2026-04-26T09:46:39.123Z</time></trkpt><trkpt lat="44.3290335" lon="8.2073054"><ele>471.0</ele><time>2026-04-26T09:46:40.148Z</time></trkpt><trkpt lat="44.3292625" lon="8.2073403"><ele>471.0</ele><time>2026-04-26T09:46:42.037Z</time></trkpt><trkpt lat="44.329403" lon="8.2073413"><ele>471.0</ele><time>2026-04-26T09:46:43.211Z</time></trkpt><trkpt lat="44.329615" lon="8.2073054"><ele>471.0</ele><time>2026-04-26T09:46:45.032Z</time></trkpt><trkpt lat="44.3297222" lon="8.2072802"><ele>470.0</ele><time>2026-04-26T09:46:45.961Z</time></trkpt><trkpt lat="44.3298413" lon="8.2072547"><ele>469.0</ele><time>2026-04-26T09:46:46.965Z</time></trkpt><trkpt lat="44.3299545" lon="8.2072258"><ele>468.0</ele><time>2026-04-26T09:46:47.951Z</time></trkpt><trkpt lat="44.3300896" lon="8.2071872"><ele>467.0</ele><time>2026-04-26T09:46:49.176Z</time></trkpt><trkpt lat="44.3301982" lon="8.2071346"><ele>467.0</ele><time>2026-04-26T09:46:50.218Z</time></trkpt><trkpt lat="44.3303069" lon="8.2070471"><ele>467.0</ele><time>2026-04-26T09:46:51.27Z</time></trkpt><trkpt lat="44.3305058" lon="8.2068183"><ele>467.0</ele><time>2026-04-26T09:46:53.062Z</time></trkpt><trkpt lat="44.3306416" lon="8.2066311"><ele>467.66666666666663</ele><time>2026-04-26T09:46:54.16Z</time></trkpt><trkpt lat="44.3307491" lon="8.2064639"><ele>468.33333333333337</ele><time>2026-04-26T09:46:55.181Z</time></trkpt><trkpt lat="44.3308343" lon="8.2063201"><ele>469.0</ele><time>2026-04-26T09:46:56.179Z</time></trkpt><trkpt lat="44.3309684" lon="8.2060942"><ele>469.0</ele><time>2026-04-26T09:46:57.981Z</time></trkpt><trkpt lat="44.3310514" lon="8.2059943"><ele>469.0</ele><time>2026-04-26T09:46:59.029Z</time></trkpt><trkpt lat="44.3311348" lon="8.2059337"><ele>469.0</ele><time>2026-04-26T09:47:00.029Z</time></trkpt><trkpt lat="44.3312088" lon="8.2058951"><ele>469.0</ele><time>2026-04-26T09:47:01.031Z</time></trkpt><trkpt lat="44.3312729" lon="8.205853"><ele>469.0</ele><time>2026-04-26T09:47:02.017Z</time></trkpt><trkpt lat="44.331393" lon="8.2059021"><ele>469.1666666666667</ele><time>2026-04-26T09:47:02.957Z</time></trkpt><trkpt lat="44.3314824" lon="8.2058935"><ele>469.33333333333337</ele><time>2026-04-26T09:47:03.887Z</time></trkpt><trkpt lat="44.3315736" lon="8.2058592"><ele>469.5</ele><time>2026-04-26T09:47:04.968Z</time></trkpt><trkpt lat="44.3316458" lon="8.2058101"><ele>469.66666666666663</ele><time>2026-04-26T09:47:05.993Z</time></trkpt><trkpt lat="44.3317034" lon="8.2057505"><ele>469.8333333333333</ele><time>2026-04-26T09:47:07.127Z</time></trkpt><trkpt lat="44.3317837" lon="8.2056617"><ele>470.0</ele><time>2026-04-26T09:47:09.085Z</time></trkpt><trkpt lat="44.3318064" lon="8.2055498"><ele>469.0</ele><time>2026-04-26T09:47:12.045Z</time></trkpt><trkpt lat="44.3317746" lon="8.2054296"><ele>468.0</ele><time>2026-04-26T09:47:14.081Z</time></trkpt><trkpt lat="44.3317299" lon="8.2053673"><ele>467.0</ele><time>2026-04-26T09:47:15.137Z</time></trkpt><trkpt lat="44.3315253" lon="8.2051625"><ele>466.0</ele><time>2026-04-26T09:47:17.063Z</time></trkpt><trkpt lat="44.3312326" lon="8.205062"><ele>465.0</ele><time>2026-04-26T09:47:18.132Z</time></trkpt><trkpt lat="44.330654" lon="8.2048622"><ele>473.0</ele><time>2026-04-26T09:47:20.186Z</time></trkpt><trkpt lat="44.3302552" lon="8.2046764"><ele>481.0</ele><time>2026-04-26T09:47:22.008Z</time></trkpt><trkpt lat="44.3300422" lon="8.2045712"><ele>481.0</ele><time>2026-04-26T09:47:23.039Z</time></trkpt><trkpt lat="44.3298444" lon="8.2044773"><ele>481.0</ele><time>2026-04-26T09:47:24.03Z</time></trkpt><trkpt lat="44.3296538" lon="8.2043886"><ele>481.0</ele><time>2026-04-26T09:47:25.031Z</time></trkpt><trkpt lat="44.3294742" lon="8.2043061"><ele>481.5</ele><time>2026-04-26T09:47:26.056Z</time></trkpt><trkpt lat="44.3292614" lon="8.2042017"><ele>482.0</ele><time>2026-04-26T09:47:27.272Z</time></trkpt><trkpt lat="44.3289537" lon="8.2040069"><ele>481.3333333333333</ele><time>2026-04-26T09:47:29.003Z</time></trkpt><trkpt lat="44.3287802" lon="8.2038686"><ele>480.66666666666663</ele><time>2026-04-26T09:47:30.054Z</time></trkpt><trkpt lat="44.3286347" lon="8.2037338"><ele>480.0</ele><time>2026-04-26T09:47:30.985Z</time></trkpt><trkpt lat="44.3284863" lon="8.2035708"><ele>480.0</ele><time>2026-04-26T09:47:31.974Z</time></trkpt><trkpt lat="44.3283331" lon="8.203373"><ele>480.0</ele><time>2026-04-26T09:47:33.045Z</time></trkpt><trkpt lat="44.328195" lon="8.2031646"><ele>480.0</ele><time>2026-04-26T09:47:34.067Z</time></trkpt><trkpt lat="44.3279416" lon="8.2027118"><ele>477.66666666666663</ele><time>2026-04-26T09:47:36.053Z</time></trkpt><trkpt lat="44.3278212" lon="8.2024868"><ele>475.3333333333333</ele><time>2026-04-26T09:47:37.013Z</time></trkpt><trkpt lat="44.3276985" lon="8.2022598"><ele>473.0</ele><time>2026-04-26T09:47:38.004Z</time></trkpt><trkpt lat="44.3275711" lon="8.2020341"><ele>477.5</ele><time>2026-04-26T09:47:39.032Z</time></trkpt><trkpt lat="44.3273106" lon="8.2016549"><ele>482.0</ele><time>2026-04-26T09:47:40.88Z</time></trkpt><trkpt lat="44.3271442" lon="8.2014349"><ele>482.0</ele><time>2026-04-26T09:47:42.02Z</time></trkpt><trkpt lat="44.326998" lon="8.2012199"><ele>482.0</ele><time>2026-04-26T09:47:43.094Z</time></trkpt><trkpt lat="44.3267584" lon="8.200788"><ele>478.0</ele><time>2026-04-26T09:47:45.154Z</time></trkpt><trkpt lat="44.3265102" lon="8.2003081"><ele>474.0</ele><time>2026-04-26T09:47:47.374Z</time></trkpt><trkpt lat="44.3262916" lon="8.1999582"><ele>479.0</ele><time>2026-04-26T09:47:49.238Z</time></trkpt><trkpt lat="44.3261061" lon="8.1996317"><ele>484.0</ele><time>2026-04-26T09:47:51.099Z</time></trkpt><trkpt lat="44.3260311" lon="8.1994242"><ele>484.0</ele><time>2026-04-26T09:47:52.158Z</time></trkpt><trkpt lat="44.3259802" lon="8.1992302"><ele>484.0</ele><time>2026-04-26T09:47:53.058Z</time></trkpt><trkpt lat="44.3259201" lon="8.1989986"><ele>484.0</ele><time>2026-04-26T09:47:54.251Z</time></trkpt><trkpt lat="44.3257592" lon="8.1987049"><ele>484.0</ele><time>2026-04-26T09:47:56.217Z</time></trkpt><trkpt lat="44.3254702" lon="8.1985192"><ele>484.0</ele><time>2026-04-26T09:47:58.23Z</time></trkpt><trkpt lat="44.3251497" lon="8.1983654"><ele>484.0</ele><time>2026-04-26T09:48:00.286Z</time></trkpt><trkpt lat="44.324886" lon="8.1982045"><ele>484.0</ele><time>2026-04-26T09:48:02.309Z</time></trkpt><trkpt lat="44.3246254" lon="8.1978646"><ele>482.0</ele><time>2026-04-26T09:48:04.213Z</time></trkpt><trkpt lat="44.3243591" lon="8.1974668"><ele>480.0</ele><time>2026-04-26T09:48:05.969Z</time></trkpt><trkpt lat="44.3242003" lon="8.197235"><ele>480.5</ele><time>2026-04-26T09:48:06.975Z</time></trkpt><trkpt lat="44.3240168" lon="8.196969"><ele>481.0</ele><time>2026-04-26T09:48:08.107Z</time></trkpt><trkpt lat="44.3237109" lon="8.1965279"><ele>485.5</ele><time>2026-04-26T09:48:09.977Z</time></trkpt><trkpt lat="44.3235473" lon="8.1962688"><ele>490.0</ele><time>2026-04-26T09:48:11.007Z</time></trkpt><trkpt lat="44.3234048" lon="8.1960154"><ele>490.0</ele><time>2026-04-26T09:48:11.937Z</time></trkpt><trkpt lat="44.3232528" lon="8.1957303"><ele>490.0</ele><time>2026-04-26T09:48:12.967Z</time></trkpt><trkpt lat="44.3230945" lon="8.1954354"><ele>487.0</ele><time>2026-04-26T09:48:14.085Z</time></trkpt><trkpt lat="44.3228142" lon="8.1949257"><ele>494.5</ele><time>2026-04-26T09:48:16.052Z</time></trkpt><trkpt lat="44.3226653" lon="8.1946527"><ele>502.0</ele><time>2026-04-26T09:48:17.125Z</time></trkpt><trkpt lat="44.3225323" lon="8.1944227"><ele>502.0</ele><time>2026-04-26T09:48:18.044Z</time></trkpt><trkpt lat="44.3223592" lon="8.1941605"><ele>502.0</ele><time>2026-04-26T09:48:19.148Z</time></trkpt><trkpt lat="44.3222048" lon="8.1939679"><ele>501.0</ele><time>2026-04-26T09:48:20.069Z</time></trkpt><trkpt lat="44.3220202" lon="8.1937559"><ele>500.0</ele><time>2026-04-26T09:48:21.13Z</time></trkpt><trkpt lat="44.3218616" lon="8.1935839"><ele>499.0</ele><time>2026-04-26T09:48:22.053Z</time></trkpt><trkpt lat="44.3216646" lon="8.1934161"><ele>495.5</ele><time>2026-04-26T09:48:23.1Z</time></trkpt><trkpt lat="44.3213935" lon="8.1932574"><ele>492.0</ele><time>2026-04-26T09:48:24.408Z</time></trkpt><trkpt lat="44.3209929" lon="8.1931044"><ele>520.0</ele><time>2026-04-26T09:48:26.215Z</time></trkpt><trkpt lat="44.3205549" lon="8.1929571"><ele>520.0</ele><time>2026-04-26T09:48:28.15Z</time></trkpt><trkpt lat="44.3203522" lon="8.1928966"><ele>520.0</ele><time>2026-04-26T09:48:29.066Z</time></trkpt><trkpt lat="44.3201447" lon="8.1928503"><ele>520.0</ele><time>2026-04-26T09:48:30.018Z</time></trkpt><trkpt lat="44.3199099" lon="8.1928438"><ele>526.5</ele><time>2026-04-26T09:48:31.086Z</time></trkpt><trkpt lat="44.3196989" lon="8.1928584"><ele>533.0</ele><time>2026-04-26T09:48:32.044Z</time></trkpt><trkpt lat="44.3194226" lon="8.1929029"><ele>533.0</ele><time>2026-04-26T09:48:33.329Z</time></trkpt><trkpt lat="44.3190619" lon="8.1930439"><ele>533.0</ele><time>2026-04-26T09:48:35.086Z</time></trkpt><trkpt lat="44.3188903" lon="8.1931515"><ele>519.6666666666666</ele><time>2026-04-26T09:48:36.019Z</time></trkpt><trkpt lat="44.3187004" lon="8.1932736"><ele>506.33333333333337</ele><time>2026-04-26T09:48:37.126Z</time></trkpt><trkpt lat="44.3185342" lon="8.1933355"><ele>493.0</ele><time>2026-04-26T09:48:38.122Z</time></trkpt><trkpt lat="44.3183812" lon="8.1933358"><ele>493.0</ele><time>2026-04-26T09:48:39.1Z</time></trkpt><trkpt lat="44.3182379" lon="8.1932052"><ele>493.0</ele><time>2026-04-26T09:48:40.12Z</time></trkpt><trkpt lat="44.3180931" lon="8.1930707"><ele>493.0</ele><time>2026-04-26T09:48:41.156Z</time></trkpt><trkpt lat="44.3178749" lon="8.1928216"><ele>500.0</ele><time>2026-04-26T09:48:43.165Z</time></trkpt><trkpt lat="44.3177966" lon="8.1924317"><ele>507.0</ele><time>2026-04-26T09:48:45.023Z</time></trkpt><trkpt lat="44.3178353" lon="8.1921766"><ele>507.0</ele><time>2026-04-26T09:48:46.025Z</time></trkpt><trkpt lat="44.3178893" lon="8.1918711"><ele>507.0</ele><time>2026-04-26T09:48:47.244Z</time></trkpt><trkpt lat="44.3178577" lon="8.1913755"><ele>507.0</ele><time>2026-04-26T09:48:49.024Z</time></trkpt><trkpt lat="44.3177759" lon="8.1910684"><ele>507.0</ele><time>2026-04-26T09:48:50.078Z</time></trkpt><trkpt lat="44.3177107" lon="8.1908053"><ele>507.0</ele><time>2026-04-26T09:48:51.01Z</time></trkpt><trkpt lat="44.3176324" lon="8.1904936"><ele>512.0</ele><time>2026-04-26T09:48:52.146Z</time></trkpt><trkpt lat="44.3175336" lon="8.1902137"><ele>517.0</ele><time>2026-04-26T09:48:53.194Z</time></trkpt><trkpt lat="44.3172499" lon="8.1898359"><ele>513.3333333333334</ele><time>2026-04-26T09:48:55.007Z</time></trkpt><trkpt lat="44.3170926" lon="8.1896817"><ele>509.66666666666663</ele><time>2026-04-26T09:48:55.981Z</time></trkpt><trkpt lat="44.3169196" lon="8.1894828"><ele>506.0</ele><time>2026-04-26T09:48:57.181Z</time></trkpt><trkpt lat="44.3167107" lon="8.189034"><ele>509.5</ele><time>2026-04-26T09:48:59.183Z</time></trkpt><trkpt lat="44.3166024" lon="8.1885286"><ele>513.0</ele><time>2026-04-26T09:49:01.084Z</time></trkpt><trkpt lat="44.316578" lon="8.1883025"><ele>511.33333333333337</ele><time>2026-04-26T09:49:02.065Z</time></trkpt><trkpt lat="44.3165976" lon="8.1880943"><ele>509.6666666666667</ele><time>2026-04-26T09:49:03.09Z</time></trkpt><trkpt lat="44.3166661" lon="8.1879147"><ele>508.0</ele><time>2026-04-26T09:49:04.042Z</time></trkpt><trkpt lat="44.3168143" lon="8.1877376"><ele>508.0</ele><time>2026-04-26T09:49:05.084Z</time></trkpt><trkpt lat="44.3169607" lon="8.1875473"><ele>508.0</ele><time>2026-04-26T09:49:06.119Z</time></trkpt><trkpt lat="44.3171005" lon="8.1873525"><ele>508.0</ele><time>2026-04-26T09:49:07.047Z</time></trkpt><trkpt lat="44.3172473" lon="8.1871049"><ele>511.5</ele><time>2026-04-26T09:49:08.062Z</time></trkpt><trkpt lat="44.3173729" lon="8.1868151"><ele>515.0</ele><time>2026-04-26T09:49:09.109Z</time></trkpt><trkpt lat="44.3174641" lon="8.1865416"><ele>510.0</ele><time>2026-04-26T09:49:10.022Z</time></trkpt><trkpt lat="44.3175766" lon="8.1862328"><ele>505.0</ele><time>2026-04-26T09:49:11.021Z</time></trkpt><trkpt lat="44.317704" lon="8.1859285"><ele>502.5</ele><time>2026-04-26T09:49:12.035Z</time></trkpt><trkpt lat="44.3178355" lon="8.185643"><ele>500.0</ele><time>2026-04-26T09:49:13.009Z</time></trkpt><trkpt lat="44.3179787" lon="8.1853382"><ele>506.0</ele><time>2026-04-26T09:49:14.067Z</time></trkpt><trkpt lat="44.3181273" lon="8.1850309"><ele>512.0</ele><time>2026-04-26T09:49:15.177Z</time></trkpt><trkpt lat="44.3182427" lon="8.184798"><ele>512.0</ele><time>2026-04-26T09:49:16.08Z</time></trkpt><trkpt lat="44.3183639" lon="8.184554"><ele>512.0</ele><time>2026-04-26T09:49:17.088Z</time></trkpt><trkpt lat="44.3184788" lon="8.1842988"><ele>512.0</ele><time>2026-04-26T09:49:18.175Z</time></trkpt><trkpt lat="44.318574" lon="8.1837527"><ele>511.5</ele><time>2026-04-26T09:49:20.083Z</time></trkpt><trkpt lat="44.3186068" lon="8.1831819"><ele>511.0</ele><time>2026-04-26T09:49:22.022Z</time></trkpt><trkpt lat="44.3186345" lon="8.1829352"><ele>508.6666666666667</ele><time>2026-04-26T09:49:23.004Z</time></trkpt><trkpt lat="44.3186867" lon="8.1827086"><ele>506.33333333333337</ele><time>2026-04-26T09:49:24.012Z</time></trkpt><trkpt lat="44.318774" lon="8.1825178"><ele>504.0</ele><time>2026-04-26T09:49:25.041Z</time></trkpt><trkpt lat="44.3188993" lon="8.18235"><ele>505.33333333333337</ele><time>2026-04-26T09:49:26.045Z</time></trkpt><trkpt lat="44.3190616" lon="8.1822179"><ele>506.6666666666667</ele><time>2026-04-26T09:49:26.984Z</time></trkpt><trkpt lat="44.3192499" lon="8.1820466"><ele>508.0</ele><time>2026-04-26T09:49:28.032Z</time></trkpt><trkpt lat="44.3194247" lon="8.1818807"><ele>508.0</ele><time>2026-04-26T09:49:29.012Z</time></trkpt><trkpt lat="44.3196029" lon="8.1817144"><ele>508.0</ele><time>2026-04-26T09:49:30.003Z</time></trkpt><trkpt lat="44.3197777" lon="8.1815462"><ele>508.0</ele><time>2026-04-26T09:49:31.03Z</time></trkpt><trkpt lat="44.3199094" lon="8.1813691"><ele>509.33333333333337</ele><time>2026-04-26T09:49:31.954Z</time></trkpt><trkpt lat="44.3200304" lon="8.1811088"><ele>510.66666666666663</ele><time>2026-04-26T09:49:33.066Z</time></trkpt><trkpt lat="44.3201159" lon="8.1808334"><ele>512.0</ele><time>2026-04-26T09:49:34.091Z</time></trkpt><trkpt lat="44.3203211" lon="8.1802808"><ele>516.0</ele><time>2026-04-26T09:49:36.152Z</time></trkpt><trkpt lat="44.3205367" lon="8.179747"><ele>520.0</ele><time>2026-04-26T09:49:38.111Z</time></trkpt><trkpt lat="44.3207093" lon="8.1792222"><ele>517.5</ele><time>2026-04-26T09:49:40.126Z</time></trkpt><trkpt lat="44.3207931" lon="8.1787496"><ele>515.0</ele><time>2026-04-26T09:49:42.056Z</time></trkpt><trkpt lat="44.3207744" lon="8.1785019"><ele>515.0</ele><time>2026-04-26T09:49:43.082Z</time></trkpt><trkpt lat="44.3207284" lon="8.1782813"><ele>515.0</ele><time>2026-04-26T09:49:44.057Z</time></trkpt><trkpt lat="44.3206679" lon="8.1780953"><ele>515.0</ele><time>2026-04-26T09:49:45.005Z</time></trkpt><trkpt lat="44.3206007" lon="8.1779198"><ele>513.75</ele><time>2026-04-26T09:49:46.018Z</time></trkpt><trkpt lat="44.3205342" lon="8.1777406"><ele>512.5</ele><time>2026-04-26T09:49:47.041Z</time></trkpt><trkpt lat="44.3204721" lon="8.1775811"><ele>511.25</ele><time>2026-04-26T09:49:47.991Z</time></trkpt><trkpt lat="44.3204071" lon="8.1774265"><ele>510.0</ele><time>2026-04-26T09:49:49.048Z</time></trkpt><trkpt lat="44.3203544" lon="8.177306"><ele>510.0</ele><time>2026-04-26T09:49:50.03Z</time></trkpt><trkpt lat="44.3203096" lon="8.1771985"><ele>510.0</ele><time>2026-04-26T09:49:50.968Z</time></trkpt><trkpt lat="44.3202716" lon="8.177101"><ele>510.0</ele><time>2026-04-26T09:49:51.948Z</time></trkpt><trkpt lat="44.3202277" lon="8.1769868"><ele>510.0</ele><time>2026-04-26T09:49:53.18Z</time></trkpt><trkpt lat="44.3201898" lon="8.1768936"><ele>510.0</ele><time>2026-04-26T09:49:54.264Z</time></trkpt><trkpt lat="44.3201359" lon="8.1767468"><ele>510.0</ele><time>2026-04-26T09:49:56.085Z</time></trkpt><trkpt lat="44.3201029" lon="8.1766579"><ele>510.0</ele><time>2026-04-26T09:49:57.184Z</time></trkpt><trkpt lat="44.3200655" lon="8.1765541"><ele>510.0</ele><time>2026-04-26T09:49:58.384Z</time></trkpt><trkpt lat="44.3200106" lon="8.1763978"><ele>510.0</ele><time>2026-04-26T09:50:00.034Z</time></trkpt><trkpt lat="44.3199672" lon="8.176288"><ele>510.0</ele><time>2026-04-26T09:50:01.024Z</time></trkpt><trkpt lat="44.3199164" lon="8.1761586"><ele>510.6</ele><time>2026-04-26T09:50:02.08Z</time></trkpt><trkpt lat="44.3198738" lon="8.1760447"><ele>511.2</ele><time>2026-04-26T09:50:03.023Z</time></trkpt><trkpt lat="44.3198296" lon="8.1759322"><ele>511.79999999999995</ele><time>2026-04-26T09:50:04.048Z</time></trkpt><trkpt lat="44.3197861" lon="8.1758166"><ele>512.4</ele><time>2026-04-26T09:50:05.105Z</time></trkpt><trkpt lat="44.3197456" lon="8.1757068"><ele>513.0</ele><time>2026-04-26T09:50:06.046Z</time></trkpt><trkpt lat="44.3197036" lon="8.1755944"><ele>513.0</ele><time>2026-04-26T09:50:06.992Z</time></trkpt><trkpt lat="44.3196585" lon="8.1754591"><ele>513.0</ele><time>2026-04-26T09:50:08.122Z</time></trkpt><trkpt lat="44.3195556" lon="8.1752172"><ele>513.0</ele><time>2026-04-26T09:50:10.036Z</time></trkpt><trkpt lat="44.3195007" lon="8.1750838"><ele>513.0</ele><time>2026-04-26T09:50:11.09Z</time></trkpt><trkpt lat="44.3194416" lon="8.1749722"><ele>513.0</ele><time>2026-04-26T09:50:12.037Z</time></trkpt><trkpt lat="44.3193695" lon="8.1748709"><ele>513.0</ele><time>2026-04-26T09:50:12.961Z</time></trkpt><trkpt lat="44.3192642" lon="8.1747603"><ele>513.0</ele><time>2026-04-26T09:50:14.075Z</time></trkpt><trkpt lat="44.3190684" lon="8.1746186"><ele>515.1999999999999</ele><time>2026-04-26T09:50:16.091Z</time></trkpt><trkpt lat="44.318966" lon="8.1745712"><ele>517.4</ele><time>2026-04-26T09:50:17.086Z</time></trkpt><trkpt lat="44.3188679" lon="8.1745446"><ele>519.5999999999999</ele><time>2026-04-26T09:50:17.989Z</time></trkpt><trkpt lat="44.3187421" lon="8.1745284"><ele>521.8</ele><time>2026-04-26T09:50:19.111Z</time></trkpt><trkpt lat="44.3186392" lon="8.1745241"><ele>524.0</ele><time>2026-04-26T09:50:20.036Z</time></trkpt><trkpt lat="44.3184229" lon="8.1745204"><ele>524.0</ele><time>2026-04-26T09:50:22.062Z</time></trkpt><trkpt lat="44.3183127" lon="8.1745159"><ele>524.0</ele><time>2026-04-26T09:50:23.143Z</time></trkpt><trkpt lat="44.3182164" lon="8.1745101"><ele>524.0</ele><time>2026-04-26T09:50:24.045Z</time></trkpt><trkpt lat="44.3181073" lon="8.1745062"><ele>524.0</ele><time>2026-04-26T09:50:25.058Z</time></trkpt><trkpt lat="44.3179966" lon="8.1745031"><ele>524.0</ele><time>2026-04-26T09:50:26.088Z</time></trkpt><trkpt lat="44.3177676" lon="8.1744879"><ele>523.5</ele><time>2026-04-26T09:50:28.084Z</time></trkpt><trkpt lat="44.3176462" lon="8.1744699"><ele>523.0</ele><time>2026-04-26T09:50:29.061Z</time></trkpt><trkpt lat="44.3175183" lon="8.174429"><ele>522.5</ele><time>2026-04-26T09:50:30.047Z</time></trkpt><trkpt lat="44.317367" lon="8.1743527"><ele>522.0</ele><time>2026-04-26T09:50:31.122Z</time></trkpt><trkpt lat="44.3172356" lon="8.1742685"><ele>520.3333333333334</ele><time>2026-04-26T09:50:32.054Z</time></trkpt><trkpt lat="44.3170848" lon="8.1741738"><ele>518.6666666666667</ele><time>2026-04-26T09:50:33.067Z</time></trkpt><trkpt lat="44.3169196" lon="8.174068"><ele>517.0</ele><time>2026-04-26T09:50:34.139Z</time></trkpt><trkpt lat="44.316789" lon="8.1739806"><ele>520.3333333333334</ele><time>2026-04-26T09:50:35.04Z</time></trkpt><trkpt lat="44.3166521" lon="8.1738827"><ele>523.6666666666666</ele><time>2026-04-26T09:50:36.045Z</time></trkpt><trkpt lat="44.3165156" lon="8.1737676"><ele>527.0</ele><time>2026-04-26T09:50:37.11Z</time></trkpt><trkpt lat="44.3164079" lon="8.173602"><ele>520.0</ele><time>2026-04-26T09:50:38.201Z</time></trkpt><trkpt lat="44.3162914" lon="8.1732173"><ele>513.0</ele><time>2026-04-26T09:50:40.082Z</time></trkpt><trkpt lat="44.3162707" lon="8.1729926"><ele>513.0</ele><time>2026-04-26T09:50:41.026Z</time></trkpt><trkpt lat="44.316253" lon="8.1727454"><ele>513.0</ele><time>2026-04-26T09:50:42.077Z</time></trkpt><trkpt lat="44.3162378" lon="8.1725406"><ele>513.0</ele><time>2026-04-26T09:50:43.025Z</time></trkpt><trkpt lat="44.3162468" lon="8.1723114"><ele>512.6666666666666</ele><time>2026-04-26T09:50:44.044Z</time></trkpt><trkpt lat="44.316292" lon="8.1720838"><ele>512.3333333333333</ele><time>2026-04-26T09:50:45.059Z</time></trkpt><trkpt lat="44.3163598" lon="8.1718614"><ele>512.0</ele><time>2026-04-26T09:50:46.08Z</time></trkpt><trkpt lat="44.3163981" lon="8.171647"><ele>511.66666666666663</ele><time>2026-04-26T09:50:47.071Z</time></trkpt><trkpt lat="44.3163961" lon="8.1714155"><ele>511.33333333333337</ele><time>2026-04-26T09:50:48.039Z</time></trkpt><trkpt lat="44.3163609" lon="8.1711419"><ele>511.0</ele><time>2026-04-26T09:50:49.1Z</time></trkpt><trkpt lat="44.3163152" lon="8.1708996"><ele>511.0</ele><time>2026-04-26T09:50:50.071Z</time></trkpt><trkpt lat="44.316288" lon="8.1706688"><ele>511.0</ele><time>2026-04-26T09:50:51.002Z</time></trkpt><trkpt lat="44.3162897" lon="8.1704032"><ele>511.0</ele><time>2026-04-26T09:50:52.082Z</time></trkpt><trkpt lat="44.3163275" lon="8.170172"><ele>515.0</ele><time>2026-04-26T09:50:53.108Z</time></trkpt><trkpt lat="44.316407" lon="8.169969"><ele>519.0</ele><time>2026-04-26T09:50:54.103Z</time></trkpt><trkpt lat="44.3166219" lon="8.169573"><ele>519.0</ele><time>2026-04-26T09:50:56.096Z</time></trkpt><trkpt lat="44.3167203" lon="8.1693752"><ele>519.0</ele><time>2026-04-26T09:50:57.181Z</time></trkpt><trkpt lat="44.3168003" lon="8.1691807"><ele>519.0</ele><time>2026-04-26T09:50:58.305Z</time></trkpt><trkpt lat="44.3168918" lon="8.1688385"><ele>519.0</ele><time>2026-04-26T09:51:00.193Z</time></trkpt><trkpt lat="44.3169217" lon="8.1686761"><ele>519.0</ele><time>2026-04-26T09:51:01.093Z</time></trkpt><trkpt lat="44.3169558" lon="8.1684749"><ele>519.0</ele><time>2026-04-26T09:51:02.17Z</time></trkpt><trkpt lat="44.3169837" lon="8.168284"><ele>519.0</ele><time>2026-04-26T09:51:03.112Z</time></trkpt><trkpt lat="44.3170013" lon="8.1680845"><ele>519.0</ele><time>2026-04-26T09:51:04.163Z</time></trkpt><trkpt lat="44.3170158" lon="8.1677313"><ele>519.0</ele><time>2026-04-26T09:51:06.203Z</time></trkpt><trkpt lat="44.3170303" lon="8.167557"><ele>519.0</ele><time>2026-04-26T09:51:07.225Z</time></trkpt><trkpt lat="44.317057" lon="8.1673856"><ele>519.3333333333334</ele><time>2026-04-26T09:51:08.235Z</time></trkpt><trkpt lat="44.3171408" lon="8.1671055"><ele>519.6666666666667</ele><time>2026-04-26T09:51:10.036Z</time></trkpt><trkpt lat="44.3171972" lon="8.1669442"><ele>520.0</ele><time>2026-04-26T09:51:11.096Z</time></trkpt><trkpt lat="44.3172463" lon="8.1667887"><ele>520.75</ele><time>2026-04-26T09:51:12.065Z</time></trkpt><trkpt lat="44.3172945" lon="8.1666364"><ele>521.5</ele><time>2026-04-26T09:51:13.08Z</time></trkpt><trkpt lat="44.3173421" lon="8.1664795"><ele>522.25</ele><time>2026-04-26T09:51:14.076Z</time></trkpt><trkpt lat="44.3173743" lon="8.1663281"><ele>523.0</ele><time>2026-04-26T09:51:15.046Z</time></trkpt><trkpt lat="44.3173841" lon="8.1661614"><ele>523.0</ele><time>2026-04-26T09:51:16.106Z</time></trkpt><trkpt lat="44.3173684" lon="8.166013"><ele>523.0</ele><time>2026-04-26T09:51:17.069Z</time></trkpt><trkpt lat="44.3173321" lon="8.1658658"><ele>523.0</ele><time>2026-04-26T09:51:18.005Z</time></trkpt><trkpt lat="44.3172752" lon="8.1656978"><ele>523.0</ele><time>2026-04-26T09:51:19.08Z</time></trkpt><trkpt lat="44.3172232" lon="8.1655477"><ele>521.3333333333334</ele><time>2026-04-26T09:51:20.03Z</time></trkpt><trkpt lat="44.3171643" lon="8.1653727"><ele>519.6666666666666</ele><time>2026-04-26T09:51:21.162Z</time></trkpt><trkpt lat="44.3170682" lon="8.1650857"><ele>518.0</ele><time>2026-04-26T09:51:23.029Z</time></trkpt><trkpt lat="44.3170167" lon="8.1649304"><ele>518.75</ele><time>2026-04-26T09:51:24.142Z</time></trkpt><trkpt lat="44.3169278" lon="8.1646666"><ele>519.5</ele><time>2026-04-26T09:51:26.071Z</time></trkpt><trkpt lat="44.3168796" lon="8.1645272"><ele>520.25</ele><time>2026-04-26T09:51:27.097Z</time></trkpt><trkpt lat="44.3168353" lon="8.1643923"><ele>521.0</ele><time>2026-04-26T09:51:28.044Z</time></trkpt><trkpt lat="44.3167789" lon="8.1642271"><ele>521.6666666666666</ele><time>2026-04-26T09:51:29.151Z</time></trkpt><trkpt lat="44.3166908" lon="8.1639565"><ele>522.3333333333334</ele><time>2026-04-26T09:51:31.001Z</time></trkpt><trkpt lat="44.3166424" lon="8.1637916"><ele>523.0</ele><time>2026-04-26T09:51:32.11Z</time></trkpt><trkpt lat="44.3166009" lon="8.1636321"><ele>523.0</ele><time>2026-04-26T09:51:33.124Z</time></trkpt><trkpt lat="44.3165695" lon="8.1634865"><ele>523.0</ele><time>2026-04-26T09:51:34.043Z</time></trkpt><trkpt lat="44.3165384" lon="8.1633373"><ele>523.0</ele><time>2026-04-26T09:51:34.997Z</time></trkpt><trkpt lat="44.3165051" lon="8.1631793"><ele>523.0</ele><time>2026-04-26T09:51:36.025Z</time></trkpt><trkpt lat="44.3164711" lon="8.1630268"><ele>522.75</ele><time>2026-04-26T09:51:37.016Z</time></trkpt><trkpt lat="44.3164378" lon="8.1628717"><ele>522.5</ele><time>2026-04-26T09:51:38.043Z</time></trkpt><trkpt lat="44.316398" lon="8.1627207"><ele>522.25</ele><time>2026-04-26T09:51:39.089Z</time></trkpt><trkpt lat="44.3163506" lon="8.1625783"><ele>522.0</ele><time>2026-04-26T09:51:40.075Z</time></trkpt><trkpt lat="44.3162824" lon="8.1624261"><ele>522.75</ele><time>2026-04-26T09:51:41.254Z</time></trkpt><trkpt lat="44.316173" lon="8.1622198"><ele>523.5</ele><time>2026-04-26T09:51:43.031Z</time></trkpt><trkpt lat="44.3161055" lon="8.1621036"><ele>524.25</ele><time>2026-04-26T09:51:44.107Z</time></trkpt><trkpt lat="44.3160436" lon="8.1619989"><ele>525.0</ele><time>2026-04-26T09:51:45.062Z</time></trkpt><trkpt lat="44.3159724" lon="8.1618837"><ele>525.0</ele><time>2026-04-26T09:51:46.114Z</time></trkpt><trkpt lat="44.3158322" lon="8.1616575"><ele>525.0</ele><time>2026-04-26T09:51:48.02Z</time></trkpt><trkpt lat="44.3157497" lon="8.1615274"><ele>525.0</ele><time>2026-04-26T09:51:49.139Z</time></trkpt><trkpt lat="44.3156813" lon="8.161422"><ele>525.0</ele><time>2026-04-26T09:51:50.071Z</time></trkpt><trkpt lat="44.3156053" lon="8.1613104"><ele>524.25</ele><time>2026-04-26T09:51:51.055Z</time></trkpt><trkpt lat="44.3155178" lon="8.1611901"><ele>523.5</ele><time>2026-04-26T09:51:52.102Z</time></trkpt><trkpt lat="44.3154405" lon="8.1610866"><ele>522.75</ele><time>2026-04-26T09:51:53.007Z</time></trkpt><trkpt lat="44.3153465" lon="8.1609602"><ele>522.0</ele><time>2026-04-26T09:51:54.118Z</time></trkpt><trkpt lat="44.3152605" lon="8.1608472"><ele>522.0</ele><time>2026-04-26T09:51:55.13Z</time></trkpt><trkpt lat="44.3151738" lon="8.1607375"><ele>522.0</ele><time>2026-04-26T09:51:56.117Z</time></trkpt><trkpt lat="44.3150683" lon="8.1606036"><ele>522.0</ele><time>2026-04-26T09:51:57.282Z</time></trkpt><trkpt lat="44.3149765" lon="8.1604867"><ele>522.0</ele><time>2026-04-26T09:51:58.287Z</time></trkpt><trkpt lat="44.3148076" lon="8.1602696"><ele>521.25</ele><time>2026-04-26T09:52:00.109Z</time></trkpt><trkpt lat="44.3147078" lon="8.1601411"><ele>520.5</ele><time>2026-04-26T09:52:01.178Z</time></trkpt><trkpt lat="44.3146099" lon="8.1600124"><ele>519.75</ele><time>2026-04-26T09:52:02.239Z</time></trkpt><trkpt lat="44.3145148" lon="8.1598996"><ele>519.0</ele><time>2026-04-26T09:52:03.188Z</time></trkpt><trkpt lat="44.3144117" lon="8.1597776"><ele>526.0</ele><time>2026-04-26T09:52:04.178Z</time></trkpt><trkpt lat="44.3142966" lon="8.1596408"><ele>533.0</ele><time>2026-04-26T09:52:05.196Z</time></trkpt><trkpt lat="44.3140319" lon="8.1593479"><ele>534.0</ele><time>2026-04-26T09:52:07.2Z</time></trkpt><trkpt lat="44.3138668" lon="8.1591918"><ele>535.0</ele><time>2026-04-26T09:52:08.311Z</time></trkpt><trkpt lat="44.3137337" lon="8.159056"><ele>536.0</ele><time>2026-04-26T09:52:09.215Z</time></trkpt><trkpt lat="44.3135868" lon="8.1588948"><ele>536.0</ele><time>2026-04-26T09:52:10.219Z</time></trkpt><trkpt lat="44.313433" lon="8.1587088"><ele>536.0</ele><time>2026-04-26T09:52:11.282Z</time></trkpt><trkpt lat="44.3131617" lon="8.1583013"><ele>536.0</ele><time>2026-04-26T09:52:13.262Z</time></trkpt><trkpt lat="44.3128986" lon="8.1578303"><ele>536.0</ele><time>2026-04-26T09:52:15.342Z</time></trkpt><trkpt lat="44.3126274" lon="8.157437"><ele>537.6666666666666</ele><time>2026-04-26T09:52:17.262Z</time></trkpt><trkpt lat="44.3125088" lon="8.1573001"><ele>539.3333333333334</ele><time>2026-04-26T09:52:18.054Z</time></trkpt><trkpt lat="44.3123345" lon="8.1571609"><ele>541.0</ele><time>2026-04-26T09:52:19.104Z</time></trkpt><trkpt lat="44.3121314" lon="8.1570523"><ele>541.0</ele><time>2026-04-26T09:52:20.207Z</time></trkpt><trkpt lat="44.3119558" lon="8.1570006"><ele>541.0</ele><time>2026-04-26T09:52:21.15Z</time></trkpt><trkpt lat="44.3117752" lon="8.1569371"><ele>541.0</ele><time>2026-04-26T09:52:22.201Z</time></trkpt><trkpt lat="44.3116392" lon="8.1568526"><ele>541.0</ele><time>2026-04-26T09:52:23.144Z</time></trkpt><trkpt lat="44.3115106" lon="8.1566987"><ele>541.0</ele><time>2026-04-26T09:52:24.172Z</time></trkpt><trkpt lat="44.3114151" lon="8.156477"><ele>541.0</ele><time>2026-04-26T09:52:25.165Z</time></trkpt><trkpt lat="44.3113128" lon="8.156215"><ele>540.0</ele><time>2026-04-26T09:52:26.242Z</time></trkpt><trkpt lat="44.3110778" lon="8.1558611"><ele>539.0</ele><time>2026-04-26T09:52:28.016Z</time></trkpt><trkpt lat="44.3108857" lon="8.1556976"><ele>535.3333333333333</ele><time>2026-04-26T09:52:29.19Z</time></trkpt><trkpt lat="44.3107262" lon="8.1556024"><ele>531.6666666666666</ele><time>2026-04-26T09:52:30.094Z</time></trkpt><trkpt lat="44.3105201" lon="8.155494"><ele>528.0</ele><time>2026-04-26T09:52:31.267Z</time></trkpt><trkpt lat="44.3102336" lon="8.1553564"><ele>528.0</ele><time>2026-04-26T09:52:33.164Z</time></trkpt><trkpt lat="44.3101328" lon="8.1552666"><ele>528.0</ele><time>2026-04-26T09:52:34.221Z</time></trkpt><trkpt lat="44.3100277" lon="8.1549581"><ele>528.0</ele><time>2026-04-26T09:52:36.263Z</time></trkpt><trkpt lat="44.3100875" lon="8.1543986"><ele>528.3333333333334</ele><time>2026-04-26T09:52:38.171Z</time></trkpt><trkpt lat="44.3100952" lon="8.1541531"><ele>528.6666666666667</ele><time>2026-04-26T09:52:39.106Z</time></trkpt><trkpt lat="44.3101001" lon="8.1538559"><ele>529.0</ele><time>2026-04-26T09:52:40.234Z</time></trkpt><trkpt lat="44.3100901" lon="8.1533686"><ele>532.0</ele><time>2026-04-26T09:52:42.252Z</time></trkpt><trkpt lat="44.3100052" lon="8.1529367"><ele>535.0</ele><time>2026-04-26T09:52:44.113Z</time></trkpt><trkpt lat="44.3099418" lon="8.1526913"><ele>536.0</ele><time>2026-04-26T09:52:45.174Z</time></trkpt><trkpt lat="44.3098287" lon="8.152209"><ele>537.0</ele><time>2026-04-26T09:52:47.151Z</time></trkpt><trkpt lat="44.3097858" lon="8.1519759"><ele>537.0</ele><time>2026-04-26T09:52:48.078Z</time></trkpt><trkpt lat="44.3097427" lon="8.1517426"><ele>537.0</ele><time>2026-04-26T09:52:49.002Z</time></trkpt><trkpt lat="44.3097013" lon="8.1515032"><ele>537.0</ele><time>2026-04-26T09:52:49.96Z</time></trkpt><trkpt lat="44.3096539" lon="8.1512201"><ele>533.0</ele><time>2026-04-26T09:52:51.103Z</time></trkpt><trkpt lat="44.3095817" lon="8.150776"><ele>529.0</ele><time>2026-04-26T09:52:52.965Z</time></trkpt><trkpt lat="44.3095366" lon="8.1505172"><ele>529.0</ele><time>2026-04-26T09:52:54.172Z</time></trkpt><trkpt lat="44.3095194" lon="8.1503091"><ele>529.0</ele><time>2026-04-26T09:52:55.099Z</time></trkpt><trkpt lat="44.3095188" lon="8.1500538"><ele>529.0</ele><time>2026-04-26T09:52:56.16Z</time></trkpt><trkpt lat="44.3096436" lon="8.149612"><ele>535.0</ele><time>2026-04-26T09:52:58.131Z</time></trkpt><trkpt lat="44.3098909" lon="8.1491887"><ele>541.0</ele><time>2026-04-26T09:53:00.125Z</time></trkpt><trkpt lat="44.3099938" lon="8.1489853"><ele>541.3333333333334</ele><time>2026-04-26T09:53:01.093Z</time></trkpt><trkpt lat="44.3100863" lon="8.1487404"><ele>541.6666666666666</ele><time>2026-04-26T09:53:02.14Z</time></trkpt><trkpt lat="44.3101331" lon="8.1484937"><ele>542.0</ele><time>2026-04-26T09:53:03.06Z</time></trkpt><trkpt lat="44.3101344" lon="8.1480911"><ele>542.5</ele><time>2026-04-26T09:53:04.287Z</time></trkpt><trkpt lat="44.3101533" lon="8.1474665"><ele>543.0</ele><time>2026-04-26T09:53:06.196Z</time></trkpt><trkpt lat="44.3101508" lon="8.1471361"><ele>543.0</ele><time>2026-04-26T09:53:07.215Z</time></trkpt><trkpt lat="44.3101354" lon="8.1468469"><ele>543.0</ele><time>2026-04-26T09:53:08.148Z</time></trkpt><trkpt lat="44.3101064" lon="8.1465824"><ele>543.0</ele><time>2026-04-26T09:53:09.048Z</time></trkpt><trkpt lat="44.3100588" lon="8.1462644"><ele>543.0</ele><time>2026-04-26T09:53:10.2Z</time></trkpt><trkpt lat="44.309987" lon="8.1458135"><ele>543.0</ele><time>2026-04-26T09:53:11.961Z</time></trkpt><trkpt lat="44.3099994" lon="8.1455138"><ele>542.0</ele><time>2026-04-26T09:53:13.089Z</time></trkpt><trkpt lat="44.310058" lon="8.1452436"><ele>541.0</ele><time>2026-04-26T09:53:14.11Z</time></trkpt><trkpt lat="44.3101457" lon="8.1449916"><ele>540.0</ele><time>2026-04-26T09:53:15.121Z</time></trkpt><trkpt lat="44.3102556" lon="8.1447874"><ele>540.0</ele><time>2026-04-26T09:53:16.115Z</time></trkpt><trkpt lat="44.3103958" lon="8.1446029"><ele>540.0</ele><time>2026-04-26T09:53:17.066Z</time></trkpt><trkpt lat="44.3105786" lon="8.1443973"><ele>540.0</ele><time>2026-04-26T09:53:18.118Z</time></trkpt><trkpt lat="44.310748" lon="8.1441941"><ele>539.0</ele><time>2026-04-26T09:53:19.151Z</time></trkpt><trkpt lat="44.3110396" lon="8.1437109"><ele>539.0</ele><time>2026-04-26T09:53:21.229Z</time></trkpt><trkpt lat="44.3111398" lon="8.1434083"><ele>539.0</ele><time>2026-04-26T09:53:22.284Z</time></trkpt><trkpt lat="44.3112379" lon="8.1427653"><ele>542.5</ele><time>2026-04-26T09:53:24.156Z</time></trkpt><trkpt lat="44.3112806" lon="8.1423782"><ele>546.0</ele><time>2026-04-26T09:53:25.205Z</time></trkpt><trkpt lat="44.3113178" lon="8.1420362"><ele>546.0</ele><time>2026-04-26T09:53:26.167Z</time></trkpt><trkpt lat="44.3113538" lon="8.1417146"><ele>546.0</ele><time>2026-04-26T09:53:27.085Z</time></trkpt><trkpt lat="44.3113905" lon="8.141358"><ele>550.5</ele><time>2026-04-26T09:53:28.125Z</time></trkpt><trkpt lat="44.3114171" lon="8.1410143"><ele>555.0</ele><time>2026-04-26T09:53:29.118Z</time></trkpt><trkpt lat="44.3114314" lon="8.14065"><ele>556.5</ele><time>2026-04-26T09:53:30.115Z</time></trkpt><trkpt lat="44.3114321" lon="8.1402553"><ele>558.0</ele><time>2026-04-26T09:53:31.122Z</time></trkpt><trkpt lat="44.311422" lon="8.1398516"><ele>559.0</ele><time>2026-04-26T09:53:32.138Z</time></trkpt><trkpt lat="44.3114098" lon="8.1395069"><ele>560.0</ele><time>2026-04-26T09:53:33.039Z</time></trkpt><trkpt lat="44.3113944" lon="8.1391024"><ele>552.0</ele><time>2026-04-26T09:53:34.069Z</time></trkpt><trkpt lat="44.3113785" lon="8.1386833"><ele>544.0</ele><time>2026-04-26T09:53:35.162Z</time></trkpt><trkpt lat="44.3113674" lon="8.1383119"><ele>543.5</ele><time>2026-04-26T09:53:36.129Z</time></trkpt><trkpt lat="44.311355" lon="8.1379365"><ele>543.0</ele><time>2026-04-26T09:53:37.095Z</time></trkpt><trkpt lat="44.311345" lon="8.1375794"><ele>545.5</ele><time>2026-04-26T09:53:38.009Z</time></trkpt><trkpt lat="44.3113302" lon="8.1371052"><ele>548.0</ele><time>2026-04-26T09:53:39.204Z</time></trkpt><trkpt lat="44.3113034" lon="8.1363282"><ele>556.5</ele><time>2026-04-26T09:53:41.192Z</time></trkpt><trkpt lat="44.31129" lon="8.1359871"><ele>565.0</ele><time>2026-04-26T09:53:42.127Z</time></trkpt><trkpt lat="44.3112771" lon="8.135584"><ele>571.5</ele><time>2026-04-26T09:53:43.275Z</time></trkpt><trkpt lat="44.3112621" lon="8.1349574"><ele>578.0</ele><time>2026-04-26T09:53:45.069Z</time></trkpt><trkpt lat="44.3112472" lon="8.1343283"><ele>574.0</ele><time>2026-04-26T09:53:47.023Z</time></trkpt><trkpt lat="44.3112271" lon="8.1340151"><ele>570.0</ele><time>2026-04-26T09:53:48.094Z</time></trkpt><trkpt lat="44.3111853" lon="8.1337461"><ele>566.0</ele><time>2026-04-26T09:53:49.066Z</time></trkpt><trkpt lat="44.3110211" lon="8.1332261"><ele>569.0</ele><time>2026-04-26T09:53:51.051Z</time></trkpt><trkpt lat="44.3107448" lon="8.1327801"><ele>572.0</ele><time>2026-04-26T09:53:53.018Z</time></trkpt><trkpt lat="44.3105579" lon="8.1325576"><ele>562.5</ele><time>2026-04-26T09:53:54.053Z</time></trkpt><trkpt lat="44.3103685" lon="8.1323408"><ele>553.0</ele><time>2026-04-26T09:53:55.038Z</time></trkpt><trkpt lat="44.3101375" lon="8.1320904"><ele>553.0</ele><time>2026-04-26T09:53:56.181Z</time></trkpt><trkpt lat="44.3099384" lon="8.1318567"><ele>553.0</ele><time>2026-04-26T09:53:57.213Z</time></trkpt><trkpt lat="44.3095855" lon="8.131411"><ele>553.3333333333334</ele><time>2026-04-26T09:53:59.196Z</time></trkpt><trkpt lat="44.309434" lon="8.1311703"><ele>553.6666666666666</ele><time>2026-04-26T09:54:00.206Z</time></trkpt><trkpt lat="44.3093087" lon="8.1309328"><ele>554.0</ele><time>2026-04-26T09:54:01.132Z</time></trkpt><trkpt lat="44.3091869" lon="8.1306733"><ele>554.0</ele><time>2026-04-26T09:54:02.138Z</time></trkpt><trkpt lat="44.3090709" lon="8.130418"><ele>554.0</ele><time>2026-04-26T09:54:03.129Z</time></trkpt><trkpt lat="44.3089473" lon="8.13015"><ele>554.0</ele><time>2026-04-26T09:54:04.176Z</time></trkpt><trkpt lat="44.308832" lon="8.129887"><ele>563.0</ele><time>2026-04-26T09:54:05.169Z</time></trkpt><trkpt lat="44.3087118" lon="8.1296245"><ele>572.0</ele><time>2026-04-26T09:54:06.14Z</time></trkpt><trkpt lat="44.3085834" lon="8.1293389"><ele>565.5</ele><time>2026-04-26T09:54:07.158Z</time></trkpt><trkpt lat="44.3084604" lon="8.1290542"><ele>559.0</ele><time>2026-04-26T09:54:08.167Z</time></trkpt><trkpt lat="44.3083373" lon="8.1287639"><ele>559.0</ele><time>2026-04-26T09:54:09.206Z</time></trkpt><trkpt lat="44.3082254" lon="8.1284936"><ele>559.0</ele><time>2026-04-26T09:54:10.161Z</time></trkpt><trkpt lat="44.308111" lon="8.1282031"><ele>571.0</ele><time>2026-04-26T09:54:11.156Z</time></trkpt><trkpt lat="44.3080103" lon="8.1279136"><ele>583.0</ele><time>2026-04-26T09:54:12.125Z</time></trkpt><trkpt lat="44.3079231" lon="8.1275686"><ele>581.0</ele><time>2026-04-26T09:54:13.178Z</time></trkpt><trkpt lat="44.3078698" lon="8.1272649"><ele>579.0</ele><time>2026-04-26T09:54:14.088Z</time></trkpt><trkpt lat="44.3078251" lon="8.1269335"><ele>579.0</ele><time>2026-04-26T09:54:15.12Z</time></trkpt><trkpt lat="44.3077925" lon="8.1266123"><ele>579.0</ele><time>2026-04-26T09:54:16.114Z</time></trkpt><trkpt lat="44.3077653" lon="8.1262946"><ele>577.5</ele><time>2026-04-26T09:54:17.101Z</time></trkpt><trkpt lat="44.3077449" lon="8.1259804"><ele>576.0</ele><time>2026-04-26T09:54:18.09Z</time></trkpt><trkpt lat="44.3076947" lon="8.1253186"><ele>576.0</ele><time>2026-04-26T09:54:20.208Z</time></trkpt><trkpt lat="44.3076537" lon="8.1247715"><ele>576.0</ele><time>2026-04-26T09:54:22.018Z</time></trkpt><trkpt lat="44.3076329" lon="8.1244622"><ele>576.0</ele><time>2026-04-26T09:54:23.038Z</time></trkpt><trkpt lat="44.3076137" lon="8.124177"><ele>576.0</ele><time>2026-04-26T09:54:23.979Z</time></trkpt><trkpt lat="44.3075928" lon="8.1238633"><ele>576.0</ele><time>2026-04-26T09:54:25.06Z</time></trkpt><trkpt lat="44.3075775" lon="8.1236077"><ele>575.3333333333334</ele><time>2026-04-26T09:54:26.04Z</time></trkpt><trkpt lat="44.3075647" lon="8.1233816"><ele>574.6666666666667</ele><time>2026-04-26T09:54:26.966Z</time></trkpt><trkpt lat="44.3075537" lon="8.1231404"><ele>574.0</ele><time>2026-04-26T09:54:27.971Z</time></trkpt><trkpt lat="44.3075395" lon="8.1228848"><ele>572.0</ele><time>2026-04-26T09:54:29.002Z</time></trkpt><trkpt lat="44.3075233" lon="8.1226543"><ele>570.0</ele><time>2026-04-26T09:54:30.019Z</time></trkpt><trkpt lat="44.3074944" lon="8.1224376"><ele>568.0</ele><time>2026-04-26T09:54:31.044Z</time></trkpt><trkpt lat="44.3074404" lon="8.1222537"><ele>568.25</ele><time>2026-04-26T09:54:31.998Z</time></trkpt><trkpt lat="44.3073683" lon="8.1220826"><ele>568.5</ele><time>2026-04-26T09:54:33.005Z</time></trkpt><trkpt lat="44.3072927" lon="8.1219181"><ele>568.75</ele><time>2026-04-26T09:54:34.044Z</time></trkpt><trkpt lat="44.307216" lon="8.1217681"><ele>569.0</ele><time>2026-04-26T09:54:35.16Z</time></trkpt><trkpt lat="44.3071579" lon="8.1216569"><ele>566.8</ele><time>2026-04-26T09:54:36.095Z</time></trkpt><trkpt lat="44.3070967" lon="8.1215468"><ele>564.5999999999999</ele><time>2026-04-26T09:54:37.1Z</time></trkpt><trkpt lat="44.3070367" lon="8.1214643"><ele>562.4</ele><time>2026-04-26T09:54:38.031Z</time></trkpt><trkpt lat="44.3069525" lon="8.121397"><ele>560.1999999999999</ele><time>2026-04-26T09:54:39.178Z</time></trkpt><trkpt lat="44.3068653" lon="8.1213844"><ele>558.0</ele><time>2026-04-26T09:54:40.138Z</time></trkpt><trkpt lat="44.3067459" lon="8.1214192"><ele>558.0</ele><time>2026-04-26T09:54:41.248Z</time></trkpt><trkpt lat="44.3064792" lon="8.1214978"><ele>558.0</ele><time>2026-04-26T09:54:43.088Z</time></trkpt><trkpt lat="44.3062796" lon="8.121509"><ele>558.5</ele><time>2026-04-26T09:54:44.261Z</time></trkpt><trkpt lat="44.305954" lon="8.1214987"><ele>559.0</ele><time>2026-04-26T09:54:46.086Z</time></trkpt><trkpt lat="44.3057544" lon="8.1215134"><ele>559.5</ele><time>2026-04-26T09:54:47.188Z</time></trkpt><trkpt lat="44.3055699" lon="8.121542"><ele>560.0</ele><time>2026-04-26T09:54:48.219Z</time></trkpt><trkpt lat="44.3052893" lon="8.1215968"><ele>561.3333333333333</ele><time>2026-04-26T09:54:49.984Z</time></trkpt><trkpt lat="44.3051402" lon="8.121634"><ele>562.6666666666666</ele><time>2026-04-26T09:54:51.043Z</time></trkpt><trkpt lat="44.3048912" lon="8.1218098"><ele>564.0</ele><time>2026-04-26T09:54:53.106Z</time></trkpt><trkpt lat="44.3047958" lon="8.121955"><ele>563.0</ele><time>2026-04-26T09:54:54.074Z</time></trkpt><trkpt lat="44.3047277" lon="8.1221161"><ele>562.0</ele><time>2026-04-26T09:54:55.047Z</time></trkpt><trkpt lat="44.3046737" lon="8.1222947"><ele>561.0</ele><time>2026-04-26T09:54:55.978Z</time></trkpt><trkpt lat="44.3046188" lon="8.1224843"><ele>560.0</ele><time>2026-04-26T09:54:56.979Z</time></trkpt><trkpt lat="44.3045587" lon="8.122681"><ele>560.0</ele><time>2026-04-26T09:54:57.992Z</time></trkpt><trkpt lat="44.3044858" lon="8.1229026"><ele>560.0</ele><time>2026-04-26T09:54:59.13Z</time></trkpt><trkpt lat="44.3043132" lon="8.1232956"><ele>560.5</ele><time>2026-04-26T09:55:01.145Z</time></trkpt><trkpt lat="44.3040958" lon="8.1235856"><ele>561.0</ele><time>2026-04-26T09:55:03.156Z</time></trkpt><trkpt lat="44.3038274" lon="8.1237653"><ele>562.0</ele><time>2026-04-26T09:55:05.095Z</time></trkpt><trkpt lat="44.3035174" lon="8.12393"><ele>563.0</ele><time>2026-04-26T09:55:07.174Z</time></trkpt><trkpt lat="44.3033709" lon="8.124013"><ele>562.6666666666666</ele><time>2026-04-26T09:55:08.126Z</time></trkpt><trkpt lat="44.303223" lon="8.1240957"><ele>562.3333333333334</ele><time>2026-04-26T09:55:09.041Z</time></trkpt><trkpt lat="44.303029" lon="8.124204"><ele>562.0</ele><time>2026-04-26T09:55:10.156Z</time></trkpt><trkpt lat="44.3028398" lon="8.1243079"><ele>563.0</ele><time>2026-04-26T09:55:11.261Z</time></trkpt><trkpt lat="44.3025178" lon="8.1244866"><ele>564.0</ele><time>2026-04-26T09:55:13.073Z</time></trkpt><trkpt lat="44.3021973" lon="8.1246017"><ele>565.0</ele><time>2026-04-26T09:55:15.006Z</time></trkpt><trkpt lat="44.3020171" lon="8.1246263"><ele>566.0</ele><time>2026-04-26T09:55:16.017Z</time></trkpt><trkpt lat="44.3018157" lon="8.1246442"><ele>567.0</ele><time>2026-04-26T09:55:17.091Z</time></trkpt><trkpt lat="44.3014612" lon="8.1246679"><ele>569.0</ele><time>2026-04-26T09:55:18.991Z</time></trkpt><trkpt lat="44.3012893" lon="8.1246901"><ele>571.0</ele><time>2026-04-26T09:55:19.964Z</time></trkpt><trkpt lat="44.3011187" lon="8.1247122"><ele>573.0</ele><time>2026-04-26T09:55:20.998Z</time></trkpt><trkpt lat="44.3009457" lon="8.1246988"><ele>573.0</ele><time>2026-04-26T09:55:22.105Z</time></trkpt><trkpt lat="44.3007915" lon="8.1246566"><ele>573.0</ele><time>2026-04-26T09:55:23.121Z</time></trkpt><trkpt lat="44.3006077" lon="8.1245628"><ele>573.0</ele><time>2026-04-26T09:55:24.078Z</time></trkpt><trkpt lat="44.3004258" lon="8.1244219"><ele>572.3333333333334</ele><time>2026-04-26T09:55:25.144Z</time></trkpt><trkpt lat="44.3002616" lon="8.1242799"><ele>571.6666666666667</ele><time>2026-04-26T09:55:26.139Z</time></trkpt><trkpt lat="44.3001032" lon="8.1241372"><ele>571.0</ele><time>2026-04-26T09:55:27.129Z</time></trkpt><trkpt lat="44.2999483" lon="8.1239935"><ele>571.0</ele><time>2026-04-26T09:55:28.116Z</time></trkpt><trkpt lat="44.2998028" lon="8.1238356"><ele>571.0</ele><time>2026-04-26T09:55:29.078Z</time></trkpt><trkpt lat="44.2996548" lon="8.1236349"><ele>571.0</ele><time>2026-04-26T09:55:30.174Z</time></trkpt><trkpt lat="44.2994436" lon="8.1232478"><ele>573.6666666666667</ele><time>2026-04-26T09:55:31.931Z</time></trkpt><trkpt lat="44.2993298" lon="8.1230052"><ele>576.3333333333334</ele><time>2026-04-26T09:55:32.958Z</time></trkpt><trkpt lat="44.2992165" lon="8.1227493"><ele>579.0</ele><time>2026-04-26T09:55:34.042Z</time></trkpt><trkpt lat="44.2991212" lon="8.1225294"><ele>578.0</ele><time>2026-04-26T09:55:34.996Z</time></trkpt><trkpt lat="44.299024" lon="8.1223084"><ele>577.0</ele><time>2026-04-26T09:55:35.976Z</time></trkpt><trkpt lat="44.2989286" lon="8.1221008"><ele>576.0</ele><time>2026-04-26T09:55:36.948Z</time></trkpt><trkpt lat="44.2987927" lon="8.121891"><ele>574.0</ele><time>2026-04-26T09:55:38.078Z</time></trkpt><trkpt lat="44.298659" lon="8.121739"><ele>572.0</ele><time>2026-04-26T09:55:38.99Z</time></trkpt><trkpt lat="44.2984813" lon="8.1215825"><ele>570.0</ele><time>2026-04-26T09:55:40.055Z</time></trkpt><trkpt lat="44.2983109" lon="8.1214555"><ele>570.0</ele><time>2026-04-26T09:55:41.006Z</time></trkpt><trkpt lat="44.2981136" lon="8.1213288"><ele>570.0</ele><time>2026-04-26T09:55:42.095Z</time></trkpt><trkpt lat="44.2977666" lon="8.12112"><ele>572.0</ele><time>2026-04-26T09:55:44.134Z</time></trkpt><trkpt lat="44.2975959" lon="8.1210388"><ele>574.0</ele><time>2026-04-26T09:55:45.197Z</time></trkpt><trkpt lat="44.2974462" lon="8.1210172"><ele>576.0</ele><time>2026-04-26T09:55:46.123Z</time></trkpt><trkpt lat="44.297284" lon="8.1210545"><ele>574.3333333333334</ele><time>2026-04-26T09:55:47.102Z</time></trkpt><trkpt lat="44.2971396" lon="8.1211208"><ele>572.6666666666667</ele><time>2026-04-26T09:55:48.003Z</time></trkpt><trkpt lat="44.2969744" lon="8.1212175"><ele>571.0</ele><time>2026-04-26T09:55:49.081Z</time></trkpt><trkpt lat="44.2968344" lon="8.1213215"><ele>571.0</ele><time>2026-04-26T09:55:50.086Z</time></trkpt><trkpt lat="44.2967086" lon="8.1214254"><ele>571.0</ele><time>2026-04-26T09:55:51.111Z</time></trkpt><trkpt lat="44.2966045" lon="8.1215245"><ele>571.0</ele><time>2026-04-26T09:55:52.079Z</time></trkpt><trkpt lat="44.2964992" lon="8.1216349"><ele>571.0</ele><time>2026-04-26T09:55:53.084Z</time></trkpt><trkpt lat="44.2963814" lon="8.1217571"><ele>571.75</ele><time>2026-04-26T09:55:54.142Z</time></trkpt><trkpt lat="44.2962607" lon="8.1218883"><ele>572.5</ele><time>2026-04-26T09:55:55.191Z</time></trkpt><trkpt lat="44.2961461" lon="8.122005"><ele>573.25</ele><time>2026-04-26T09:55:56.151Z</time></trkpt><trkpt lat="44.2960246" lon="8.1221372"><ele>574.0</ele><time>2026-04-26T09:55:57.174Z</time></trkpt><trkpt lat="44.2959076" lon="8.1222695"><ele>574.0</ele><time>2026-04-26T09:55:58.169Z</time></trkpt><trkpt lat="44.2958063" lon="8.1223825"><ele>574.0</ele><time>2026-04-26T09:55:59.081Z</time></trkpt><trkpt lat="44.2956885" lon="8.1225132"><ele>574.0</ele><time>2026-04-26T09:56:00.173Z</time></trkpt><trkpt lat="44.2955043" lon="8.1227174"><ele>574.5</ele><time>2026-04-26T09:56:02.04Z</time></trkpt><trkpt lat="44.2954051" lon="8.1228232"><ele>575.0</ele><time>2026-04-26T09:56:03.108Z</time></trkpt><trkpt lat="44.2953182" lon="8.1229079"><ele>575.5</ele><time>2026-04-26T09:56:04.041Z</time></trkpt><trkpt lat="44.2952156" lon="8.1229956"><ele>576.0</ele><time>2026-04-26T09:56:05.171Z</time></trkpt><trkpt lat="44.2950175" lon="8.1230852"><ele>576.0</ele><time>2026-04-26T09:56:07.145Z</time></trkpt><trkpt lat="44.2948925" lon="8.1231189"><ele>576.0</ele><time>2026-04-26T09:56:08.222Z</time></trkpt><trkpt lat="44.2946732" lon="8.1231539"><ele>576.0</ele><time>2026-04-26T09:56:09.987Z</time></trkpt><trkpt lat="44.2945499" lon="8.1231699"><ele>576.0</ele><time>2026-04-26T09:56:11.017Z</time></trkpt><trkpt lat="44.294438" lon="8.1231856"><ele>576.0</ele><time>2026-04-26T09:56:11.944Z</time></trkpt><trkpt lat="44.2943101" lon="8.1232034"><ele>576.0</ele><time>2026-04-26T09:56:12.979Z</time></trkpt><trkpt lat="44.2941722" lon="8.1232211"><ele>576.0</ele><time>2026-04-26T09:56:14.099Z</time></trkpt><trkpt lat="44.2939271" lon="8.1232311"><ele>576.0</ele><time>2026-04-26T09:56:15.983Z</time></trkpt><trkpt lat="44.2937928" lon="8.1232206"><ele>576.0</ele><time>2026-04-26T09:56:16.993Z</time></trkpt><trkpt lat="44.2936634" lon="8.1232073"><ele>576.0</ele><time>2026-04-26T09:56:17.983Z</time></trkpt><trkpt lat="44.2935291" lon="8.1231921"><ele>576.0</ele><time>2026-04-26T09:56:19.002Z</time></trkpt><trkpt lat="44.2933953" lon="8.1231779"><ele>576.0</ele><time>2026-04-26T09:56:19.997Z</time></trkpt><trkpt lat="44.2932603" lon="8.1231613"><ele>576.0</ele><time>2026-04-26T09:56:21.018Z</time></trkpt><trkpt lat="44.2931228" lon="8.1231442"><ele>576.0</ele><time>2026-04-26T09:56:22.023Z</time></trkpt><trkpt lat="44.2929687" lon="8.123134"><ele>576.0</ele><time>2026-04-26T09:56:23.018Z</time></trkpt><trkpt lat="44.2928061" lon="8.1231154"><ele>595.5</ele><time>2026-04-26T09:56:23.989Z</time></trkpt><trkpt lat="44.2924726" lon="8.1230736"><ele>615.0</ele><time>2026-04-26T09:56:25.838Z</time></trkpt><trkpt lat="44.2922771" lon="8.1230464"><ele>620.0</ele><time>2026-04-26T09:56:26.832Z</time></trkpt><trkpt lat="44.29126" lon="8.1229361"><ele>620.0</ele><time>2026-04-26T09:56:31.929Z</time></trkpt><trkpt lat="44.2910612" lon="8.1229571"><ele>620.0</ele><time>2026-04-26T09:56:32.929Z</time></trkpt><trkpt lat="44.2908444" lon="8.1230075"><ele>620.0</ele><time>2026-04-26T09:56:34.073Z</time></trkpt><trkpt lat="44.2906459" lon="8.1230983"><ele>621.3333333333333</ele><time>2026-04-26T09:56:35.144Z</time></trkpt><trkpt lat="44.2904804" lon="8.1231924"><ele>622.6666666666666</ele><time>2026-04-26T09:56:36.053Z</time></trkpt><trkpt lat="44.2902846" lon="8.1233116"><ele>624.0</ele><time>2026-04-26T09:56:37.114Z</time></trkpt><trkpt lat="44.2899146" lon="8.1235457"><ele>621.0</ele><time>2026-04-26T09:56:39.113Z</time></trkpt><trkpt lat="44.2897442" lon="8.1236542"><ele>618.0</ele><time>2026-04-26T09:56:40.038Z</time></trkpt><trkpt lat="44.2895406" lon="8.1237834"><ele>615.0</ele><time>2026-04-26T09:56:41.154Z</time></trkpt><trkpt lat="44.2893696" lon="8.1238893"><ele>615.0</ele><time>2026-04-26T09:56:42.094Z</time></trkpt><trkpt lat="44.2891955" lon="8.1239868"><ele>615.0</ele><time>2026-04-26T09:56:43.054Z</time></trkpt><trkpt lat="44.2890072" lon="8.1240802"><ele>615.0</ele><time>2026-04-26T09:56:44.094Z</time></trkpt><trkpt lat="44.2888473" lon="8.1241511"><ele>611.3333333333334</ele><time>2026-04-26T09:56:45.081Z</time></trkpt><trkpt lat="44.2886812" lon="8.1242085"><ele>607.6666666666667</ele><time>2026-04-26T09:56:46.161Z</time></trkpt><trkpt lat="44.288507" lon="8.1242312"><ele>604.0</ele><time>2026-04-26T09:56:47.147Z</time></trkpt><trkpt lat="44.2883357" lon="8.124228"><ele>604.0</ele><time>2026-04-26T09:56:48.061Z</time></trkpt><trkpt lat="44.2881332" lon="8.1242618"><ele>604.0</ele><time>2026-04-26T09:56:49.125Z</time></trkpt><trkpt lat="44.2879572" lon="8.1243315"><ele>604.0</ele><time>2026-04-26T09:56:50.023Z</time></trkpt><trkpt lat="44.28773" lon="8.1244111"><ele>608.0</ele><time>2026-04-26T09:56:51.194Z</time></trkpt><trkpt lat="44.2873646" lon="8.1245291"><ele>612.0</ele><time>2026-04-26T09:56:53.067Z</time></trkpt><trkpt lat="44.2871794" lon="8.1245994"><ele>617.3333333333334</ele><time>2026-04-26T09:56:54.14Z</time></trkpt><trkpt lat="44.2870168" lon="8.1246706"><ele>622.6666666666667</ele><time>2026-04-26T09:56:55.1Z</time></trkpt><trkpt lat="44.2868456" lon="8.1247547"><ele>628.0</ele><time>2026-04-26T09:56:56.091Z</time></trkpt><trkpt lat="44.2866864" lon="8.1248417"><ele>626.0</ele><time>2026-04-26T09:56:57.005Z</time></trkpt><trkpt lat="44.286502" lon="8.1249631"><ele>624.0</ele><time>2026-04-26T09:56:58.117Z</time></trkpt><trkpt lat="44.2863328" lon="8.1250885"><ele>622.0</ele><time>2026-04-26T09:56:59.148Z</time></trkpt><trkpt lat="44.2859714" lon="8.1253285"><ele>634.5</ele><time>2026-04-26T09:57:01.168Z</time></trkpt><trkpt lat="44.2855702" lon="8.125498"><ele>647.0</ele><time>2026-04-26T09:57:03.108Z</time></trkpt><trkpt lat="44.2853404" lon="8.1255724"><ele>627.0</ele><time>2026-04-26T09:57:04.17Z</time></trkpt><trkpt lat="44.2849536" lon="8.1257581"><ele>607.0</ele><time>2026-04-26T09:57:06.112Z</time></trkpt><trkpt lat="44.2847925" lon="8.1258645"><ele>606.3333333333334</ele><time>2026-04-26T09:57:07.063Z</time></trkpt><trkpt lat="44.2846351" lon="8.1259838"><ele>605.6666666666666</ele><time>2026-04-26T09:57:08.098Z</time></trkpt><trkpt lat="44.284492" lon="8.12607"><ele>605.0</ele><time>2026-04-26T09:57:09.09Z</time></trkpt><trkpt lat="44.2843391" lon="8.1261178"><ele>605.0</ele><time>2026-04-26T09:57:10.205Z</time></trkpt><trkpt lat="44.2842179" lon="8.1260955"><ele>605.0</ele><time>2026-04-26T09:57:11.108Z</time></trkpt><trkpt lat="44.2839714" lon="8.1258565"><ele>605.0</ele><time>2026-04-26T09:57:13.165Z</time></trkpt><trkpt lat="44.2837839" lon="8.1255018"><ele>611.0</ele><time>2026-04-26T09:57:15.15Z</time></trkpt><trkpt lat="44.2835251" lon="8.1252229"><ele>617.0</ele><time>2026-04-26T09:57:17.071Z</time></trkpt><trkpt lat="44.283236" lon="8.1250635"><ele>616.25</ele><time>2026-04-26T09:57:19.023Z</time></trkpt><trkpt lat="44.2830875" lon="8.1249961"><ele>615.5</ele><time>2026-04-26T09:57:20.089Z</time></trkpt><trkpt lat="44.2829615" lon="8.1249471"><ele>614.75</ele><time>2026-04-26T09:57:21.037Z</time></trkpt><trkpt lat="44.2828142" lon="8.1249099"><ele>614.0</ele><time>2026-04-26T09:57:22.121Z</time></trkpt><trkpt lat="44.2826741" lon="8.1249119"><ele>614.0</ele><time>2026-04-26T09:57:23.097Z</time></trkpt><trkpt lat="44.2825135" lon="8.1249365"><ele>614.0</ele><time>2026-04-26T09:57:24.154Z</time></trkpt><trkpt lat="44.282364" lon="8.1249637"><ele>614.0</ele><time>2026-04-26T09:57:25.109Z</time></trkpt><trkpt lat="44.2821808" lon="8.1249882"><ele>616.5</ele><time>2026-04-26T09:57:26.199Z</time></trkpt><trkpt lat="44.2818532" lon="8.1250797"><ele>619.0</ele><time>2026-04-26T09:57:28.136Z</time></trkpt><trkpt lat="44.2815342" lon="8.1252363"><ele>625.6666666666667</ele><time>2026-04-26T09:57:30.141Z</time></trkpt><trkpt lat="44.2813725" lon="8.1253137"><ele>632.3333333333334</ele><time>2026-04-26T09:57:31.183Z</time></trkpt><trkpt lat="44.2812275" lon="8.1253907"><ele>639.0</ele><time>2026-04-26T09:57:32.094Z</time></trkpt><trkpt lat="44.2810579" lon="8.1254906"><ele>639.0</ele><time>2026-04-26T09:57:33.177Z</time></trkpt><trkpt lat="44.2809228" lon="8.1255902"><ele>639.0</ele><time>2026-04-26T09:57:34.082Z</time></trkpt><trkpt lat="44.2807585" lon="8.1257086"><ele>639.0</ele><time>2026-04-26T09:57:35.19Z</time></trkpt><trkpt lat="44.2804643" lon="8.1259132"><ele>632.5</ele><time>2026-04-26T09:57:37.176Z</time></trkpt><trkpt lat="44.2801308" lon="8.1261049"><ele>626.0</ele><time>2026-04-26T09:57:39.061Z</time></trkpt><trkpt lat="44.2797889" lon="8.1262695"><ele>626.0</ele><time>2026-04-26T09:57:41.058Z</time></trkpt><trkpt lat="44.2796229" lon="8.1263878"><ele>626.0</ele><time>2026-04-26T09:57:42.06Z</time></trkpt><trkpt lat="44.2794908" lon="8.1265647"><ele>626.0</ele><time>2026-04-26T09:57:43.174Z</time></trkpt><trkpt lat="44.2793822" lon="8.1267257"><ele>626.0</ele><time>2026-04-26T09:57:44.079Z</time></trkpt><trkpt lat="44.2792685" lon="8.1269169"><ele>626.0</ele><time>2026-04-26T09:57:45.077Z</time></trkpt><trkpt lat="44.279158" lon="8.1271107"><ele>626.0</ele><time>2026-04-26T09:57:46.112Z</time></trkpt><trkpt lat="44.2790469" lon="8.1272766"><ele>622.0</ele><time>2026-04-26T09:57:47.148Z</time></trkpt><trkpt lat="44.2789057" lon="8.1274171"><ele>618.0</ele><time>2026-04-26T09:57:48.32Z</time></trkpt><trkpt lat="44.2786731" lon="8.1275079"><ele>614.0</ele><time>2026-04-26T09:57:50.06Z</time></trkpt><trkpt lat="44.2785256" lon="8.1275257"><ele>614.0</ele><time>2026-04-26T09:57:51.067Z</time></trkpt><trkpt lat="44.2783831" lon="8.127525"><ele>614.0</ele><time>2026-04-26T09:57:51.985Z</time></trkpt><trkpt lat="44.2782085" lon="8.127524"><ele>614.0</ele><time>2026-04-26T09:57:53.076Z</time></trkpt><trkpt lat="44.2780269" lon="8.1275098"><ele>612.6666666666666</ele><time>2026-04-26T09:57:54.109Z</time></trkpt><trkpt lat="44.2778622" lon="8.1274914"><ele>611.3333333333334</ele><time>2026-04-26T09:57:55.09Z</time></trkpt><trkpt lat="44.2776912" lon="8.1274494"><ele>610.0</ele><time>2026-04-26T09:57:56.175Z</time></trkpt><trkpt lat="44.2773957" lon="8.1273271"><ele>614.0</ele><time>2026-04-26T09:57:58.038Z</time></trkpt><trkpt lat="44.2771887" lon="8.1272148"><ele>618.0</ele><time>2026-04-26T09:57:59.25Z</time></trkpt><trkpt lat="44.2768282" lon="8.1269842"><ele>618.0</ele><time>2026-04-26T09:58:01.06Z</time></trkpt><trkpt lat="44.2765953" lon="8.1267981"><ele>618.0</ele><time>2026-04-26T09:58:02.215Z</time></trkpt><trkpt lat="44.2761889" lon="8.1264869"><ele>617.5</ele><time>2026-04-26T09:58:04.09Z</time></trkpt><trkpt lat="44.2759883" lon="8.1263306"><ele>617.0</ele><time>2026-04-26T09:58:05.115Z</time></trkpt><trkpt lat="44.275793" lon="8.1261514"><ele>617.0</ele><time>2026-04-26T09:58:06.214Z</time></trkpt><trkpt lat="44.2756424" lon="8.1259859"><ele>617.0</ele><time>2026-04-26T09:58:07.13Z</time></trkpt><trkpt lat="44.2754876" lon="8.1257731"><ele>617.0</ele><time>2026-04-26T09:58:08.157Z</time></trkpt><trkpt lat="44.2753527" lon="8.12555"><ele>617.0</ele><time>2026-04-26T09:58:09.121Z</time></trkpt><trkpt lat="44.2752188" lon="8.1253196"><ele>617.0</ele><time>2026-04-26T09:58:10.147Z</time></trkpt><trkpt lat="44.2749604" lon="8.1248809"><ele>616.0</ele><time>2026-04-26T09:58:12.042Z</time></trkpt><trkpt lat="44.2748044" lon="8.1246186"><ele>615.0</ele><time>2026-04-26T09:58:13.148Z</time></trkpt><trkpt lat="44.2746628" lon="8.1244061"><ele>615.0</ele><time>2026-04-26T09:58:14.098Z</time></trkpt><trkpt lat="44.2745033" lon="8.1241849"><ele>615.0</ele><time>2026-04-26T09:58:15.157Z</time></trkpt><trkpt lat="44.2743242" lon="8.123971"><ele>614.0</ele><time>2026-04-26T09:58:16.268Z</time></trkpt><trkpt lat="44.2741656" lon="8.1237899"><ele>613.0</ele><time>2026-04-26T09:58:17.268Z</time></trkpt><trkpt lat="44.2738843" lon="8.1234798"><ele>613.0</ele><time>2026-04-26T09:58:19.186Z</time></trkpt><trkpt lat="44.2737114" lon="8.1233422"><ele>613.0</ele><time>2026-04-26T09:58:20.19Z</time></trkpt><trkpt lat="44.2735296" lon="8.1232105"><ele>613.0</ele><time>2026-04-26T09:58:21.186Z</time></trkpt><trkpt lat="44.2733443" lon="8.1230719"><ele>618.0</ele><time>2026-04-26T09:58:22.204Z</time></trkpt><trkpt lat="44.2729864" lon="8.1228104"><ele>623.0</ele><time>2026-04-26T09:58:24.219Z</time></trkpt><trkpt lat="44.2726357" lon="8.1225478"><ele>627.5</ele><time>2026-04-26T09:58:26.201Z</time></trkpt><trkpt lat="44.2722526" lon="8.1222685"><ele>632.0</ele><time>2026-04-26T09:58:28.191Z</time></trkpt><trkpt lat="44.2718712" lon="8.121987"><ele>632.0</ele><time>2026-04-26T09:58:30.155Z</time></trkpt><trkpt lat="44.2716834" lon="8.1218491"><ele>632.0</ele><time>2026-04-26T09:58:31.11Z</time></trkpt><trkpt lat="44.2714508" lon="8.1216796"><ele>630.5</ele><time>2026-04-26T09:58:32.252Z</time></trkpt><trkpt lat="44.2710618" lon="8.1214026"><ele>629.0</ele><time>2026-04-26T09:58:34.184Z</time></trkpt><trkpt lat="44.2708743" lon="8.1212617"><ele>623.5</ele><time>2026-04-26T09:58:35.223Z</time></trkpt><trkpt lat="44.2705848" lon="8.1209186"><ele>618.0</ele><time>2026-04-26T09:58:37.145Z</time></trkpt><trkpt lat="44.2704404" lon="8.120697"><ele>618.0</ele><time>2026-04-26T09:58:38.134Z</time></trkpt><trkpt lat="44.270157" lon="8.1202607"><ele>618.0</ele><time>2026-04-26T09:58:40.046Z</time></trkpt><trkpt lat="44.2700113" lon="8.1200329"><ele>614.0</ele><time>2026-04-26T09:58:41.015Z</time></trkpt><trkpt lat="44.2698351" lon="8.1197908"><ele>610.0</ele><time>2026-04-26T09:58:42.117Z</time></trkpt><trkpt lat="44.2696656" lon="8.1196095"><ele>610.0</ele><time>2026-04-26T09:58:43.062Z</time></trkpt><trkpt lat="44.2693096" lon="8.1193014"><ele>610.0</ele><time>2026-04-26T09:58:45.102Z</time></trkpt><trkpt lat="44.2691856" lon="8.1192005"><ele>610.0</ele><time>2026-04-26T09:58:46.117Z</time></trkpt><trkpt lat="44.2690738" lon="8.1191085"><ele>610.0</ele><time>2026-04-26T09:58:47.158Z</time></trkpt><trkpt lat="44.2689765" lon="8.1190231"><ele>610.0</ele><time>2026-04-26T09:58:48.127Z</time></trkpt><trkpt lat="44.2688631" lon="8.118924"><ele>610.0</ele><time>2026-04-26T09:58:49.127Z</time></trkpt><trkpt lat="44.2687354" lon="8.1188166"><ele>613.0</ele><time>2026-04-26T09:58:50.091Z</time></trkpt><trkpt lat="44.2686016" lon="8.1187056"><ele>616.0</ele><time>2026-04-26T09:58:51.09Z</time></trkpt><trkpt lat="44.2684559" lon="8.1185963"><ele>619.0</ele><time>2026-04-26T09:58:52.162Z</time></trkpt><trkpt lat="44.2683191" lon="8.1185082"><ele>619.0</ele><time>2026-04-26T09:58:53.099Z</time></trkpt><trkpt lat="44.2681578" lon="8.1184156"><ele>619.0</ele><time>2026-04-26T09:58:54.166Z</time></trkpt><trkpt lat="44.2678951" lon="8.1181889"><ele>618.3333333333334</ele><time>2026-04-26T09:58:55.98Z</time></trkpt><trkpt lat="44.2677781" lon="8.1180064"><ele>617.6666666666666</ele><time>2026-04-26T09:58:57.054Z</time></trkpt><trkpt lat="44.2676849" lon="8.1178085"><ele>617.0</ele><time>2026-04-26T09:58:58.06Z</time></trkpt><trkpt lat="44.267602" lon="8.1176144"><ele>617.0</ele><time>2026-04-26T09:58:59.009Z</time></trkpt><trkpt lat="44.267507" lon="8.1174142"><ele>617.0</ele><time>2026-04-26T09:59:00.046Z</time></trkpt><trkpt lat="44.2673955" lon="8.1172498"><ele>617.0</ele><time>2026-04-26T09:59:01.096Z</time></trkpt><trkpt lat="44.2671934" lon="8.1170497"><ele>617.8000000000001</ele><time>2026-04-26T09:59:02.896Z</time></trkpt><trkpt lat="44.2670918" lon="8.1169654"><ele>618.6</ele><time>2026-04-26T09:59:03.873Z</time></trkpt><trkpt lat="44.2670071" lon="8.1168918"><ele>619.4000000000001</ele><time>2026-04-26T09:59:04.833Z</time></trkpt><trkpt lat="44.2669305" lon="8.1168285"><ele>620.2</ele><time>2026-04-26T09:59:05.902Z</time></trkpt><trkpt lat="44.2668755" lon="8.1167841"><ele>621.0</ele><time>2026-04-26T09:59:06.916Z</time></trkpt><trkpt lat="44.2667958" lon="8.1167229"><ele>621.0</ele><time>2026-04-26T09:59:08.847Z</time></trkpt><trkpt lat="44.2667091" lon="8.1167049"><ele>621.0</ele><time>2026-04-26T09:59:12.029Z</time></trkpt><trkpt lat="44.2666098" lon="8.1168692"><ele>621.0</ele><time>2026-04-26T09:59:14.037Z</time></trkpt><trkpt lat="44.2665545" lon="8.1170094"><ele>621.0</ele><time>2026-04-26T09:59:15.028Z</time></trkpt><trkpt lat="44.2664935" lon="8.1171733"><ele>624.3333333333334</ele><time>2026-04-26T09:59:15.966Z</time></trkpt><trkpt lat="44.2664138" lon="8.1173927"><ele>627.6666666666667</ele><time>2026-04-26T09:59:17.14Z</time></trkpt><trkpt lat="44.2662793" lon="8.1176889"><ele>631.0</ele><time>2026-04-26T09:59:18.966Z</time></trkpt><trkpt lat="44.2661658" lon="8.1178061"><ele>631.0</ele><time>2026-04-26T09:59:20.057Z</time></trkpt><trkpt lat="44.2660244" lon="8.1178663"><ele>631.0</ele><time>2026-04-26T09:59:21.066Z</time></trkpt><trkpt lat="44.2658554" lon="8.1178895"><ele>631.0</ele><time>2026-04-26T09:59:22.132Z</time></trkpt><trkpt lat="44.2656684" lon="8.1179032"><ele>633.0</ele><time>2026-04-26T09:59:23.24Z</time></trkpt><trkpt lat="44.2653596" lon="8.117917"><ele>635.0</ele><time>2026-04-26T09:59:25.048Z</time></trkpt><trkpt lat="44.2651545" lon="8.117953"><ele>635.0</ele><time>2026-04-26T09:59:26.292Z</time></trkpt><trkpt lat="44.2648663" lon="8.1180444"><ele>635.0</ele><time>2026-04-26T09:59:28.245Z</time></trkpt><trkpt lat="44.2647351" lon="8.1181034"><ele>635.0</ele><time>2026-04-26T09:59:29.213Z</time></trkpt><trkpt lat="44.2646173" lon="8.1181528"><ele>636.8</ele><time>2026-04-26T09:59:30.174Z</time></trkpt><trkpt lat="44.2645098" lon="8.1182019"><ele>638.6</ele><time>2026-04-26T09:59:31.154Z</time></trkpt><trkpt lat="44.264407" lon="8.1182478"><ele>640.4000000000001</ele><time>2026-04-26T09:59:32.145Z</time></trkpt><trkpt lat="44.2642998" lon="8.1182949"><ele>642.2</ele><time>2026-04-26T09:59:33.215Z</time></trkpt><trkpt lat="44.2642001" lon="8.1183454"><ele>644.0</ele><time>2026-04-26T09:59:34.136Z</time></trkpt><trkpt lat="44.2640768" lon="8.1183982"><ele>641.0</ele><time>2026-04-26T09:59:35.278Z</time></trkpt><trkpt lat="44.2638801" lon="8.1184899"><ele>638.0</ele><time>2026-04-26T09:59:37.104Z</time></trkpt><trkpt lat="44.2637825" lon="8.1185421"><ele>635.0</ele><time>2026-04-26T09:59:38.085Z</time></trkpt><trkpt lat="44.2636652" lon="8.1185992"><ele>632.0</ele><time>2026-04-26T09:59:39.215Z</time></trkpt><trkpt lat="44.263451" lon="8.1187035"><ele>632.0</ele><time>2026-04-26T09:59:41.194Z</time></trkpt><trkpt lat="44.2633423" lon="8.1187547"><ele>632.0</ele><time>2026-04-26T09:59:42.274Z</time></trkpt><trkpt lat="44.2631456" lon="8.1188344"><ele>632.0</ele><time>2026-04-26T09:59:44.071Z</time></trkpt><trkpt lat="44.2630287" lon="8.118886"><ele>632.0</ele><time>2026-04-26T09:59:45.207Z</time></trkpt><trkpt lat="44.2629287" lon="8.1189306"><ele>635.0</ele><time>2026-04-26T09:59:46.142Z</time></trkpt><trkpt lat="44.2628076" lon="8.1189661"><ele>638.0</ele><time>2026-04-26T09:59:47.142Z</time></trkpt><trkpt lat="44.2626813" lon="8.1189782"><ele>641.0</ele><time>2026-04-26T09:59:48.173Z</time></trkpt><trkpt lat="44.2624386" lon="8.1190427"><ele>639.6666666666666</ele><time>2026-04-26T09:59:50.124Z</time></trkpt><trkpt lat="44.2623042" lon="8.1191044"><ele>638.3333333333334</ele><time>2026-04-26T09:59:51.266Z</time></trkpt><trkpt lat="44.2620614" lon="8.119234"><ele>637.0</ele><time>2026-04-26T09:59:53.34Z</time></trkpt><trkpt lat="44.2619256" lon="8.1192878"><ele>637.0</ele><time>2026-04-26T09:59:54.43Z</time></trkpt><trkpt lat="44.2616669" lon="8.1193173"><ele>637.0</ele><time>2026-04-26T09:59:56.197Z</time></trkpt><trkpt lat="44.2614587" lon="8.1193201"><ele>636.5</ele><time>2026-04-26T09:59:57.385Z</time></trkpt><trkpt lat="44.2611327" lon="8.1193608"><ele>636.0</ele><time>2026-04-26T09:59:59.211Z</time></trkpt><trkpt lat="44.2609507" lon="8.119409"><ele>641.5</ele><time>2026-04-26T10:00:00.167Z</time></trkpt><trkpt lat="44.2605665" lon="8.1196497"><ele>647.0</ele><time>2026-04-26T10:00:02.149Z</time></trkpt><trkpt lat="44.2603998" lon="8.1197842"><ele>639.0</ele><time>2026-04-26T10:00:03.086Z</time></trkpt><trkpt lat="44.2601894" lon="8.11995"><ele>631.0</ele><time>2026-04-26T10:00:04.352Z</time></trkpt><trkpt lat="44.2599195" lon="8.1201712"><ele>631.0</ele><time>2026-04-26T10:00:06.156Z</time></trkpt><trkpt lat="44.2597939" lon="8.1202726"><ele>631.0</ele><time>2026-04-26T10:00:07.068Z</time></trkpt><trkpt lat="44.259684" lon="8.1203469"><ele>631.0</ele><time>2026-04-26T10:00:07.899Z</time></trkpt><trkpt lat="44.2595339" lon="8.120402"><ele>631.0</ele><time>2026-04-26T10:00:09.018Z</time></trkpt><trkpt lat="44.2593886" lon="8.120391"><ele>631.0</ele><time>2026-04-26T10:00:10.034Z</time></trkpt><trkpt lat="44.2592377" lon="8.1203102"><ele>631.0</ele><time>2026-04-26T10:00:11.09Z</time></trkpt><trkpt lat="44.2591187" lon="8.1201853"><ele>631.0</ele><time>2026-04-26T10:00:12.092Z</time></trkpt><trkpt lat="44.2590212" lon="8.12008"><ele>631.0</ele><time>2026-04-26T10:00:13.102Z</time></trkpt><trkpt lat="44.2589225" lon="8.1200133"><ele>627.6666666666667</ele><time>2026-04-26T10:00:14.037Z</time></trkpt><trkpt lat="44.2587785" lon="8.1199813"><ele>624.3333333333334</ele><time>2026-04-26T10:00:15.129Z</time></trkpt><trkpt lat="44.2585927" lon="8.1200331"><ele>621.0</ele><time>2026-04-26T10:00:16.231Z</time></trkpt><trkpt lat="44.2584315" lon="8.1200907"><ele>621.0</ele><time>2026-04-26T10:00:17.134Z</time></trkpt><trkpt lat="44.2582565" lon="8.1201347"><ele>621.0</ele><time>2026-04-26T10:00:18.198Z</time></trkpt><trkpt lat="44.2581016" lon="8.1201322"><ele>621.0</ele><time>2026-04-26T10:00:19.218Z</time></trkpt><trkpt lat="44.2579716" lon="8.1200716"><ele>623.6666666666666</ele><time>2026-04-26T10:00:20.216Z</time></trkpt><trkpt lat="44.2578758" lon="8.1199341"><ele>626.3333333333333</ele><time>2026-04-26T10:00:21.136Z</time></trkpt><trkpt lat="44.2577824" lon="8.1196826"><ele>629.0</ele><time>2026-04-26T10:00:22.239Z</time></trkpt><trkpt lat="44.2576459" lon="8.1191955"><ele>630.0</ele><time>2026-04-26T10:00:24.049Z</time></trkpt><trkpt lat="44.2575371" lon="8.1189087"><ele>631.0</ele><time>2026-04-26T10:00:25.227Z</time></trkpt><trkpt lat="44.2574226" lon="8.1183957"><ele>628.5</ele><time>2026-04-26T10:00:27.239Z</time></trkpt><trkpt lat="44.2574021" lon="8.1181623"><ele>626.0</ele><time>2026-04-26T10:00:28.16Z</time></trkpt><trkpt lat="44.257318" lon="8.1177536"><ele>631.0</ele><time>2026-04-26T10:00:29.879Z</time></trkpt><trkpt lat="44.2572266" lon="8.1175014"><ele>636.0</ele><time>2026-04-26T10:00:30.983Z</time></trkpt><trkpt lat="44.2571018" lon="8.1172634"><ele>641.0</ele><time>2026-04-26T10:00:32.095Z</time></trkpt><trkpt lat="44.2569995" lon="8.1170696"><ele>641.0</ele><time>2026-04-26T10:00:32.999Z</time></trkpt><trkpt lat="44.2568768" lon="8.1168157"><ele>641.0</ele><time>2026-04-26T10:00:34.092Z</time></trkpt><trkpt lat="44.256786" lon="8.1166179"><ele>641.0</ele><time>2026-04-26T10:00:35.036Z</time></trkpt><trkpt lat="44.2567027" lon="8.116424"><ele>642.0</ele><time>2026-04-26T10:00:35.985Z</time></trkpt><trkpt lat="44.2566054" lon="8.1162053"><ele>643.0</ele><time>2026-04-26T10:00:37.08Z</time></trkpt><trkpt lat="44.2565167" lon="8.1160296"><ele>644.0</ele><time>2026-04-26T10:00:38.088Z</time></trkpt><trkpt lat="44.256418" lon="8.1158776"><ele>644.0</ele><time>2026-04-26T10:00:39.154Z</time></trkpt><trkpt lat="44.2563275" lon="8.1157701"><ele>644.0</ele><time>2026-04-26T10:00:40.133Z</time></trkpt><trkpt lat="44.2561933" lon="8.1156557"><ele>644.0</ele><time>2026-04-26T10:00:41.246Z</time></trkpt><trkpt lat="44.2559115" lon="8.1154321"><ele>636.0</ele><time>2026-04-26T10:00:43.196Z</time></trkpt><trkpt lat="44.255738" lon="8.1153431"><ele>628.0</ele><time>2026-04-26T10:00:44.168Z</time></trkpt><trkpt lat="44.2554013" lon="8.1152172"><ele>628.0</ele><time>2026-04-26T10:00:46.177Z</time></trkpt><trkpt lat="44.255118" lon="8.1152201"><ele>628.0</ele><time>2026-04-26T10:00:48.121Z</time></trkpt><trkpt lat="44.254972" lon="8.1153136"><ele>628.0</ele><time>2026-04-26T10:00:49.102Z</time></trkpt><trkpt lat="44.254812" lon="8.1154331"><ele>634.3333333333334</ele><time>2026-04-26T10:00:50.109Z</time></trkpt><trkpt lat="44.2546362" lon="8.115562"><ele>640.6666666666666</ele><time>2026-04-26T10:00:51.202Z</time></trkpt><trkpt lat="44.2545191" lon="8.1156457"><ele>647.0</ele><time>2026-04-26T10:00:51.97Z</time></trkpt><trkpt lat="44.2543582" lon="8.1158121"><ele>647.0</ele><time>2026-04-26T10:00:53.242Z</time></trkpt><trkpt lat="44.2542711" lon="8.1159731"><ele>647.0</ele><time>2026-04-26T10:00:54.176Z</time></trkpt><trkpt lat="44.2542157" lon="8.1161714"><ele>647.0</ele><time>2026-04-26T10:00:55.122Z</time></trkpt><trkpt lat="44.2541972" lon="8.1164196"><ele>644.0</ele><time>2026-04-26T10:00:56.181Z</time></trkpt><trkpt lat="44.2542664" lon="8.1168816"><ele>641.0</ele><time>2026-04-26T10:00:58.174Z</time></trkpt><trkpt lat="44.2543193" lon="8.1171103"><ele>641.0</ele><time>2026-04-26T10:00:59.166Z</time></trkpt><trkpt lat="44.2543702" lon="8.1173415"><ele>641.0</ele><time>2026-04-26T10:01:00.165Z</time></trkpt><trkpt lat="44.2544107" lon="8.117535"><ele>641.0</ele><time>2026-04-26T10:01:01.169Z</time></trkpt><trkpt lat="44.2544277" lon="8.1177009"><ele>641.0</ele><time>2026-04-26T10:01:02.196Z</time></trkpt><trkpt lat="44.2543974" lon="8.1178291"><ele>641.25</ele><time>2026-04-26T10:01:03.12Z</time></trkpt><trkpt lat="44.2543163" lon="8.1179234"><ele>641.5</ele><time>2026-04-26T10:01:04.127Z</time></trkpt><trkpt lat="44.2542308" lon="8.1179455"><ele>641.75</ele><time>2026-04-26T10:01:05.06Z</time></trkpt><trkpt lat="44.254081" lon="8.117976"><ele>642.0</ele><time>2026-04-26T10:01:06.316Z</time></trkpt><trkpt lat="44.2538179" lon="8.1178222"><ele>642.0</ele><time>2026-04-26T10:01:08.206Z</time></trkpt><trkpt lat="44.2534536" lon="8.1175111"><ele>642.0</ele><time>2026-04-26T10:01:10.215Z</time></trkpt><trkpt lat="44.2532835" lon="8.1174083"><ele>649.6666666666666</ele><time>2026-04-26T10:01:11.175Z</time></trkpt><trkpt lat="44.253105" lon="8.1172998"><ele>657.3333333333333</ele><time>2026-04-26T10:01:12.15Z</time></trkpt><trkpt lat="44.2529371" lon="8.1172098"><ele>665.0</ele><time>2026-04-26T10:01:13.115Z</time></trkpt><trkpt lat="44.2527677" lon="8.1171493"><ele>665.0</ele><time>2026-04-26T10:01:14.14Z</time></trkpt><trkpt lat="44.2525366" lon="8.1171955"><ele>665.0</ele><time>2026-04-26T10:01:15.103Z</time></trkpt><trkpt lat="44.2522924" lon="8.1171836"><ele>656.0</ele><time>2026-04-26T10:01:16.143Z</time></trkpt><trkpt lat="44.2520708" lon="8.1171597"><ele>647.0</ele><time>2026-04-26T10:01:17.1Z</time></trkpt><trkpt lat="44.2518119" lon="8.1170635"><ele>647.0</ele><time>2026-04-26T10:01:18.218Z</time></trkpt><trkpt lat="44.2516173" lon="8.1169327"><ele>647.0</ele><time>2026-04-26T10:01:19.141Z</time></trkpt><trkpt lat="44.2514344" lon="8.1167408"><ele>647.0</ele><time>2026-04-26T10:01:20.188Z</time></trkpt><trkpt lat="44.2512613" lon="8.1165353"><ele>648.6666666666666</ele><time>2026-04-26T10:01:21.21Z</time></trkpt><trkpt lat="44.2511108" lon="8.1163646"><ele>650.3333333333334</ele><time>2026-04-26T10:01:22.082Z</time></trkpt><trkpt lat="44.2509391" lon="8.1161829"><ele>652.0</ele><time>2026-04-26T10:01:23.054Z</time></trkpt><trkpt lat="44.2507369" lon="8.1159811"><ele>646.5</ele><time>2026-04-26T10:01:24.198Z</time></trkpt><trkpt lat="44.2505162" lon="8.1158059"><ele>641.0</ele><time>2026-04-26T10:01:25.423Z</time></trkpt><trkpt lat="44.2501348" lon="8.1156112"><ele>659.0</ele><time>2026-04-26T10:01:27.31Z</time></trkpt><trkpt lat="44.2496991" lon="8.1155705"><ele>677.0</ele><time>2026-04-26T10:01:29.196Z</time></trkpt><trkpt lat="44.2494229" lon="8.1155707"><ele>674.0</ele><time>2026-04-26T10:01:30.298Z</time></trkpt><trkpt lat="44.2489389" lon="8.1156424"><ele>674.0</ele><time>2026-04-26T10:01:32.171Z</time></trkpt><trkpt lat="44.2486983" lon="8.1156544"><ele>674.0</ele><time>2026-04-26T10:01:33.164Z</time></trkpt><trkpt lat="44.2484677" lon="8.1156357"><ele>674.0</ele><time>2026-04-26T10:01:34.175Z</time></trkpt><trkpt lat="44.2482676" lon="8.1155985"><ele>674.0</ele><time>2026-04-26T10:01:35.113Z</time></trkpt><trkpt lat="44.2480599" lon="8.1155188"><ele>674.0</ele><time>2026-04-26T10:01:36.237Z</time></trkpt><trkpt lat="44.2476911" lon="8.1152223"><ele>662.0</ele><time>2026-04-26T10:01:38.201Z</time></trkpt><trkpt lat="44.2474939" lon="8.1150381"><ele>650.0</ele><time>2026-04-26T10:01:39.312Z</time></trkpt><trkpt lat="44.2471651" lon="8.1147217"><ele>644.5</ele><time>2026-04-26T10:01:41.199Z</time></trkpt><trkpt lat="44.2469751" lon="8.1145492"><ele>639.0</ele><time>2026-04-26T10:01:42.258Z</time></trkpt><trkpt lat="44.2467783" lon="8.1143719"><ele>639.0</ele><time>2026-04-26T10:01:43.347Z</time></trkpt><trkpt lat="44.2464702" lon="8.114088"><ele>639.0</ele><time>2026-04-26T10:01:45.202Z</time></trkpt><trkpt lat="44.2462054" lon="8.1138449"><ele>637.5</ele><time>2026-04-26T10:01:47.026Z</time></trkpt><trkpt lat="44.2460392" lon="8.1136906"><ele>636.0</ele><time>2026-04-26T10:01:48.177Z</time></trkpt><trkpt lat="44.2457607" lon="8.113438"><ele>636.0</ele><time>2026-04-26T10:01:50.034Z</time></trkpt><trkpt lat="44.245604" lon="8.113316"><ele>636.0</ele><time>2026-04-26T10:01:51.096Z</time></trkpt><trkpt lat="44.2454664" lon="8.1132328"><ele>636.0</ele><time>2026-04-26T10:01:52.036Z</time></trkpt><trkpt lat="44.2453205" lon="8.113168"><ele>636.5</ele><time>2026-04-26T10:01:53.068Z</time></trkpt><trkpt lat="44.2451858" lon="8.113115"><ele>637.0</ele><time>2026-04-26T10:01:54.061Z</time></trkpt><trkpt lat="44.2450518" lon="8.1130699"><ele>637.5</ele><time>2026-04-26T10:01:55.017Z</time></trkpt><trkpt lat="44.244898" lon="8.113011"><ele>638.0</ele><time>2026-04-26T10:01:56.142Z</time></trkpt><trkpt lat="44.2446526" lon="8.1129305"><ele>638.5</ele><time>2026-04-26T10:01:58.03Z</time></trkpt><trkpt lat="44.2443924" lon="8.11284"><ele>639.0</ele><time>2026-04-26T10:02:00.082Z</time></trkpt><trkpt lat="44.2441414" lon="8.1127484"><ele>639.0</ele><time>2026-04-26T10:02:02.06Z</time></trkpt><trkpt lat="44.2440027" lon="8.1126973"><ele>639.0</ele><time>2026-04-26T10:02:03.191Z</time></trkpt><trkpt lat="44.2437787" lon="8.1126147"><ele>639.0</ele><time>2026-04-26T10:02:05.063Z</time></trkpt><trkpt lat="44.2436563" lon="8.1125676"><ele>639.6666666666666</ele><time>2026-04-26T10:02:06.055Z</time></trkpt><trkpt lat="44.2435198" lon="8.1125205"><ele>640.3333333333333</ele><time>2026-04-26T10:02:07.147Z</time></trkpt><trkpt lat="44.2434002" lon="8.1124866"><ele>641.0</ele><time>2026-04-26T10:02:08.094Z</time></trkpt><trkpt lat="44.2431595" lon="8.1124438"><ele>641.0</ele><time>2026-04-26T10:02:10.034Z</time></trkpt><trkpt lat="44.2430342" lon="8.1124405"><ele>641.0</ele><time>2026-04-26T10:02:10.994Z</time></trkpt><trkpt lat="44.2429374" lon="8.1124533"><ele>641.0</ele><time>2026-04-26T10:02:11.998Z</time></trkpt><trkpt lat="44.2428732" lon="8.1124666"><ele>641.0</ele><time>2026-04-26T10:02:13.051Z</time></trkpt><trkpt lat="44.242779" lon="8.1124739"><ele>641.0</ele><time>2026-04-26T10:02:14.96Z</time></trkpt><trkpt lat="44.2427059" lon="8.1124828"><ele>641.0</ele><time>2026-04-26T10:02:17.16Z</time></trkpt><trkpt lat="44.2426362" lon="8.1124995"><ele>641.0</ele><time>2026-04-26T10:02:26.052Z</time></trkpt><trkpt lat="44.2427354" lon="8.1125406"><ele>641.0</ele><time>2026-04-26T10:02:41.015Z</time></trkpt><trkpt lat="44.2428057" lon="8.1125175"><ele>641.0</ele><time>2026-04-26T10:02:41.997Z</time></trkpt><trkpt lat="44.2429007" lon="8.1124952"><ele>641.0</ele><time>2026-04-26T10:02:43.197Z</time></trkpt><trkpt lat="44.2429774" lon="8.1124862"><ele>641.0</ele><time>2026-04-26T10:02:44.236Z</time></trkpt><trkpt lat="44.2430743" lon="8.1124123"><ele>641.4</ele><time>2026-04-26T10:02:46.066Z</time></trkpt><trkpt lat="44.243092" lon="8.1123258"><ele>641.8</ele><time>2026-04-26T10:02:47.049Z</time></trkpt><trkpt lat="44.2430834" lon="8.1122259"><ele>642.1999999999999</ele><time>2026-04-26T10:02:48.094Z</time></trkpt><trkpt lat="44.2430464" lon="8.112115"><ele>642.5999999999999</ele><time>2026-04-26T10:02:49.191Z</time></trkpt><trkpt lat="44.2429655" lon="8.1119234"><ele>643.0</ele><time>2026-04-26T10:02:51.009Z</time></trkpt><trkpt lat="44.2429108" lon="8.1118282"><ele>643.0</ele><time>2026-04-26T10:02:51.974Z</time></trkpt><trkpt lat="44.2428474" lon="8.1117411"><ele>643.0</ele><time>2026-04-26T10:02:53.022Z</time></trkpt><trkpt lat="44.2427913" lon="8.1116748"><ele>643.0</ele><time>2026-04-26T10:02:54.041Z</time></trkpt><trkpt lat="44.2427407" lon="8.1116221"><ele>643.0</ele><time>2026-04-26T10:02:55.064Z</time></trkpt><trkpt lat="44.2426874" lon="8.1115414"><ele>643.0</ele><time>2026-04-26T10:02:56.94Z</time></trkpt><trkpt lat="44.2427261" lon="8.1114514"><ele>643.0</ele><time>2026-04-26T10:03:01.053Z</time></trkpt><trkpt lat="44.242803" lon="8.1114004"><ele>643.8333333333334</ele><time>2026-04-26T10:03:03.005Z</time></trkpt><trkpt lat="44.2428757" lon="8.1113521"><ele>644.6666666666667</ele><time>2026-04-26T10:03:07.083Z</time></trkpt><trkpt lat="44.2429714" lon="8.1112893"><ele>645.5</ele><time>2026-04-26T10:03:09.111Z</time></trkpt><trkpt lat="44.2430343" lon="8.1112432"><ele>646.3333333333334</ele><time>2026-04-26T10:03:10.055Z</time></trkpt><trkpt lat="44.2431101" lon="8.1111953"><ele>647.1666666666666</ele><time>2026-04-26T10:03:11.007Z</time></trkpt><trkpt lat="44.2432035" lon="8.111135"><ele>648.0</ele><time>2026-04-26T10:03:12.062Z</time></trkpt><trkpt lat="44.2432951" lon="8.111077"><ele>648.0</ele><time>2026-04-26T10:03:13.178Z</time></trkpt><trkpt lat="44.2433688" lon="8.1110281"><ele>648.0</ele><time>2026-04-26T10:03:14.199Z</time></trkpt><trkpt lat="44.2434778" lon="8.110886"><ele>648.0</ele><time>2026-04-26T10:03:16.177Z</time></trkpt><trkpt lat="44.2435352" lon="8.1106613"><ele>648.0</ele><time>2026-04-26T10:03:18.063Z</time></trkpt><trkpt lat="44.2435492" lon="8.1105212"><ele>650.0</ele><time>2026-04-26T10:03:19.055Z</time></trkpt><trkpt lat="44.2435676" lon="8.1103859"><ele>652.0</ele><time>2026-04-26T10:03:20.106Z</time></trkpt><trkpt lat="44.2435812" lon="8.1102768"><ele>654.0</ele><time>2026-04-26T10:03:21.098Z</time></trkpt><trkpt lat="44.2435914" lon="8.110189"><ele>656.0</ele><time>2026-04-26T10:03:22.091Z</time></trkpt><trkpt lat="44.2436148" lon="8.1100706"><ele>658.0</ele><time>2026-04-26T10:03:24.142Z</time></trkpt><trkpt lat="44.2436306" lon="8.1099759"><ele>660.0</ele><time>2026-04-26T10:03:28.27Z</time></trkpt><trkpt lat="44.2435974" lon="8.1098859"><ele>660.0</ele><time>2026-04-26T10:10:38.079Z</time></trkpt><trkpt lat="44.2436751" lon="8.1098818"><ele>660.0</ele><time>2026-04-26T10:24:36.268Z</time></trkpt><trkpt lat="44.2437621" lon="8.1099239"><ele>660.0</ele><time>2026-04-26T10:24:38.281Z</time></trkpt><trkpt lat="44.243824" lon="8.1099491"><ele>660.0</ele><time>2026-04-26T10:24:39.217Z</time></trkpt><trkpt lat="44.2439662" lon="8.1101082"><ele>660.0</ele><time>2026-04-26T10:24:41.291Z</time></trkpt><trkpt lat="44.2440996" lon="8.1102842"><ele>660.6666666666666</ele><time>2026-04-26T10:24:43.225Z</time></trkpt><trkpt lat="44.2441728" lon="8.1103431"><ele>661.3333333333334</ele><time>2026-04-26T10:24:45.225Z</time></trkpt><trkpt lat="44.244245" lon="8.1103954"><ele>662.0</ele><time>2026-04-26T10:24:47.172Z</time></trkpt><trkpt lat="44.2443001" lon="8.1104428"><ele>662.6666666666667</ele><time>2026-04-26T10:24:48.092Z</time></trkpt><trkpt lat="44.2443815" lon="8.1104724"><ele>663.3333333333334</ele><time>2026-04-26T10:24:49.342Z</time></trkpt><trkpt lat="44.2444956" lon="8.1104642"><ele>664.0</ele><time>2026-04-26T10:24:51.256Z</time></trkpt><trkpt lat="44.2446257" lon="8.110432"><ele>664.0</ele><time>2026-04-26T10:24:53.056Z</time></trkpt><trkpt lat="44.2447067" lon="8.1104219"><ele>664.0</ele><time>2026-04-26T10:24:54.149Z</time></trkpt><trkpt lat="44.2447736" lon="8.1104182"><ele>664.0</ele><time>2026-04-26T10:24:55.058Z</time></trkpt><trkpt lat="44.2448383" lon="8.1104126"><ele>664.0</ele><time>2026-04-26T10:24:55.988Z</time></trkpt><trkpt lat="44.2449258" lon="8.1103536"><ele>664.0</ele><time>2026-04-26T10:24:58.155Z</time></trkpt><trkpt lat="44.2447939" lon="8.1101513"><ele>664.0</ele><time>2026-04-26T10:25:02.14Z</time></trkpt><trkpt lat="44.2446869" lon="8.1100978"><ele>664.0</ele><time>2026-04-26T10:25:04.062Z</time></trkpt><trkpt lat="44.2446264" lon="8.1100639"><ele>664.0</ele><time>2026-04-26T10:25:05.068Z</time></trkpt><trkpt lat="44.2444669" lon="8.1099405"><ele>664.0</ele><time>2026-04-26T10:25:08.225Z</time></trkpt><trkpt lat="44.2444173" lon="8.109809"><ele>666.0</ele><time>2026-04-26T10:25:10.042Z</time></trkpt><trkpt lat="44.2443993" lon="8.1096621"><ele>668.0</ele><time>2026-04-26T10:25:11.893Z</time></trkpt><trkpt lat="44.2443917" lon="8.1095063"><ele>670.0</ele><time>2026-04-26T10:25:14.059Z</time></trkpt><trkpt lat="44.2444247" lon="8.1093915"><ele>672.0</ele><time>2026-04-26T10:25:16.044Z</time></trkpt><trkpt lat="44.2445235" lon="8.1094255"><ele>674.0</ele><time>2026-04-26T10:25:18.148Z</time></trkpt><trkpt lat="44.2446247" lon="8.1095269"><ele>674.0</ele><time>2026-04-26T10:25:20.083Z</time></trkpt><trkpt lat="44.2446904" lon="8.1095566"><ele>674.0</ele><time>2026-04-26T10:25:21.17Z</time></trkpt><trkpt lat="44.2448059" lon="8.109589"><ele>674.0</ele><time>2026-04-26T10:25:23.066Z</time></trkpt><trkpt lat="44.2448754" lon="8.1095952"><ele>674.0</ele><time>2026-04-26T10:25:24.108Z</time></trkpt><trkpt lat="44.2449439" lon="8.1095827"><ele>674.0</ele><time>2026-04-26T10:25:25.089Z</time></trkpt><trkpt lat="44.245017" lon="8.1095493"><ele>674.0</ele><time>2026-04-26T10:25:26.17Z</time></trkpt><trkpt lat="44.2450839" lon="8.1095141"><ele>677.0</ele><time>2026-04-26T10:25:27.136Z</time></trkpt><trkpt lat="44.2451599" lon="8.1094743"><ele>680.0</ele><time>2026-04-26T10:25:28.198Z</time></trkpt><trkpt lat="44.2452916" lon="8.1094079"><ele>683.0</ele><time>2026-04-26T10:25:30.028Z</time></trkpt><trkpt lat="44.2453547" lon="8.1093742"><ele>686.0</ele><time>2026-04-26T10:25:30.954Z</time></trkpt><trkpt lat="44.245442" lon="8.109341"><ele>689.0</ele><time>2026-04-26T10:25:32.25Z</time></trkpt><trkpt lat="44.245587" lon="8.109356"><ele>691.5</ele><time>2026-04-26T10:25:34.074Z</time></trkpt><trkpt lat="44.2456725" lon="8.1094001"><ele>694.0</ele><time>2026-04-26T10:25:35.105Z</time></trkpt><trkpt lat="44.2457591" lon="8.1094591"><ele>696.5</ele><time>2026-04-26T10:25:36.168Z</time></trkpt><trkpt lat="44.2458393" lon="8.1095181"><ele>699.0</ele><time>2026-04-26T10:25:37.168Z</time></trkpt><trkpt lat="44.2459942" lon="8.1096246"><ele>699.0</ele><time>2026-04-26T10:25:39.047Z</time></trkpt><trkpt lat="44.246081" lon="8.1096793"><ele>699.0</ele><time>2026-04-26T10:25:40.051Z</time></trkpt><trkpt lat="44.2461703" lon="8.1097382"><ele>699.0</ele><time>2026-04-26T10:25:41.168Z</time></trkpt><trkpt lat="44.2462486" lon="8.1097775"><ele>699.0</ele><time>2026-04-26T10:25:42.208Z</time></trkpt><trkpt lat="44.2463276" lon="8.1097916"><ele>699.0</ele><time>2026-04-26T10:25:43.177Z</time></trkpt><trkpt lat="44.2464667" lon="8.109694"><ele>699.0</ele><time>2026-04-26T10:25:46.088Z</time></trkpt><trkpt lat="44.2464159" lon="8.1095102"><ele>699.0</ele><time>2026-04-26T10:25:48.198Z</time></trkpt><trkpt lat="44.2463218" lon="8.1092883"><ele>699.0</ele><time>2026-04-26T10:25:50.144Z</time></trkpt><trkpt lat="44.2462669" lon="8.1091459"><ele>699.0</ele><time>2026-04-26T10:25:51.307Z</time></trkpt><trkpt lat="44.2462222" lon="8.1090325"><ele>704.75</ele><time>2026-04-26T10:25:52.213Z</time></trkpt><trkpt lat="44.2461562" lon="8.1089105"><ele>710.5</ele><time>2026-04-26T10:25:53.268Z</time></trkpt><trkpt lat="44.2460817" lon="8.1088141"><ele>716.25</ele><time>2026-04-26T10:25:54.202Z</time></trkpt><trkpt lat="44.2459736" lon="8.1087218"><ele>722.0</ele><time>2026-04-26T10:25:55.311Z</time></trkpt><trkpt lat="44.2458554" lon="8.1086554"><ele>722.0</ele><time>2026-04-26T10:25:56.438Z</time></trkpt><trkpt lat="44.2456858" lon="8.1085789"><ele>722.0</ele><time>2026-04-26T10:25:58.218Z</time></trkpt><trkpt lat="44.2455585" lon="8.1085234"><ele>722.0</ele><time>2026-04-26T10:26:00.014Z</time></trkpt><trkpt lat="44.2455822" lon="8.1083978"><ele>722.0</ele><time>2026-04-26T10:26:04.043Z</time></trkpt><trkpt lat="44.2456515" lon="8.1084032"><ele>722.0</ele><time>2026-04-26T10:26:05.088Z</time></trkpt><trkpt lat="44.2457438" lon="8.1084159"><ele>722.0</ele><time>2026-04-26T10:26:06.085Z</time></trkpt><trkpt lat="44.245855" lon="8.1084198"><ele>722.0</ele><time>2026-04-26T10:26:07.101Z</time></trkpt><trkpt lat="44.2459683" lon="8.1084085"><ele>722.0</ele><time>2026-04-26T10:26:08.081Z</time></trkpt><trkpt lat="44.2460914" lon="8.1083707"><ele>722.0</ele><time>2026-04-26T10:26:09.153Z</time></trkpt><trkpt lat="44.2462229" lon="8.1083197"><ele>722.0</ele><time>2026-04-26T10:26:10.248Z</time></trkpt><trkpt lat="44.246348" lon="8.1082961"><ele>722.0</ele><time>2026-04-26T10:26:11.241Z</time></trkpt><trkpt lat="44.2464668" lon="8.108284"><ele>722.0</ele><time>2026-04-26T10:26:12.164Z</time></trkpt><trkpt lat="44.2465679" lon="8.1082854"><ele>722.0</ele><time>2026-04-26T10:26:13.174Z</time></trkpt><trkpt lat="44.2466437" lon="8.1082837"><ele>722.0</ele><time>2026-04-26T10:26:14.161Z</time></trkpt><trkpt lat="44.2467112" lon="8.1082782"><ele>723.6</ele><time>2026-04-26T10:26:15.174Z</time></trkpt><trkpt lat="44.2467782" lon="8.108245"><ele>725.2</ele><time>2026-04-26T10:26:16.092Z</time></trkpt><trkpt lat="44.2468646" lon="8.1081746"><ele>726.8</ele><time>2026-04-26T10:26:17.304Z</time></trkpt><trkpt lat="44.2469166" lon="8.1081061"><ele>728.4</ele><time>2026-04-26T10:26:18.02Z</time></trkpt><trkpt lat="44.2470091" lon="8.1079664"><ele>730.0</ele><time>2026-04-26T10:26:19.248Z</time></trkpt><trkpt lat="44.2470991" lon="8.1078547"><ele>735.25</ele><time>2026-04-26T10:26:20.224Z</time></trkpt><trkpt lat="44.2472041" lon="8.1077553"><ele>740.5</ele><time>2026-04-26T10:26:21.228Z</time></trkpt><trkpt lat="44.2473098" lon="8.1076897"><ele>745.75</ele><time>2026-04-26T10:26:22.132Z</time></trkpt><trkpt lat="44.2474538" lon="8.1076337"><ele>751.0</ele><time>2026-04-26T10:26:23.254Z</time></trkpt><trkpt lat="44.2475811" lon="8.1076135"><ele>751.0</ele><time>2026-04-26T10:26:24.248Z</time></trkpt><trkpt lat="44.2478294" lon="8.10765"><ele>751.0</ele><time>2026-04-26T10:26:26.243Z</time></trkpt><trkpt lat="44.2480648" lon="8.1077183"><ele>754.6666666666667</ele><time>2026-04-26T10:26:28.137Z</time></trkpt><trkpt lat="44.2482025" lon="8.1077917"><ele>758.3333333333334</ele><time>2026-04-26T10:26:29.252Z</time></trkpt><trkpt lat="44.2484034" lon="8.1079424"><ele>762.0</ele><time>2026-04-26T10:26:31.048Z</time></trkpt><trkpt lat="44.2485143" lon="8.1080292"><ele>762.0</ele><time>2026-04-26T10:26:32.088Z</time></trkpt><trkpt lat="44.2486958" lon="8.1081406"><ele>762.0</ele><time>2026-04-26T10:26:34.033Z</time></trkpt><trkpt lat="44.2488019" lon="8.1081443"><ele>762.0</ele><time>2026-04-26T10:26:35.045Z</time></trkpt><trkpt lat="44.2489646" lon="8.1081293"><ele>767.5</ele><time>2026-04-26T10:26:36.27Z</time></trkpt><trkpt lat="44.2492195" lon="8.10813"><ele>773.0</ele><time>2026-04-26T10:26:38.202Z</time></trkpt><trkpt lat="44.2494548" lon="8.1080828"><ele>773.0</ele><time>2026-04-26T10:26:40.105Z</time></trkpt><trkpt lat="44.2495811" lon="8.1080452"><ele>773.0</ele><time>2026-04-26T10:26:41.149Z</time></trkpt><trkpt lat="44.2497001" lon="8.108007"><ele>773.0</ele><time>2026-04-26T10:26:42.151Z</time></trkpt><trkpt lat="44.2498009" lon="8.1079551"><ele>773.0</ele><time>2026-04-26T10:26:43.059Z</time></trkpt><trkpt lat="44.249922" lon="8.1078596"><ele>774.25</ele><time>2026-04-26T10:26:44.24Z</time></trkpt><trkpt lat="44.2500175" lon="8.1077693"><ele>775.5</ele><time>2026-04-26T10:26:45.15Z</time></trkpt><trkpt lat="44.2501303" lon="8.1076557"><ele>776.75</ele><time>2026-04-26T10:26:46.167Z</time></trkpt><trkpt lat="44.2502524" lon="8.1075428"><ele>778.0</ele><time>2026-04-26T10:26:47.164Z</time></trkpt><trkpt lat="44.2503844" lon="8.10742"><ele>781.0</ele><time>2026-04-26T10:26:48.271Z</time></trkpt><trkpt lat="44.2504841" lon="8.1073263"><ele>784.0</ele><time>2026-04-26T10:26:49.178Z</time></trkpt><trkpt lat="44.2505775" lon="8.1072449"><ele>787.0</ele><time>2026-04-26T10:26:50.121Z</time></trkpt><trkpt lat="44.2506959" lon="8.107163"><ele>790.0</ele><time>2026-04-26T10:26:51.2Z</time></trkpt><trkpt lat="44.2509276" lon="8.1071766"><ele>791.25</ele><time>2026-04-26T10:26:53.261Z</time></trkpt><trkpt lat="44.2510423" lon="8.1072105"><ele>792.5</ele><time>2026-04-26T10:26:54.183Z</time></trkpt><trkpt lat="44.2511817" lon="8.1072314"><ele>793.75</ele><time>2026-04-26T10:26:55.294Z</time></trkpt><trkpt lat="44.2513155" lon="8.1072473"><ele>795.0</ele><time>2026-04-26T10:26:56.291Z</time></trkpt><trkpt lat="44.2516261" lon="8.1072992"><ele>796.6666666666667</ele><time>2026-04-26T10:26:58.486Z</time></trkpt><trkpt lat="44.2518377" lon="8.1073624"><ele>798.3333333333334</ele><time>2026-04-26T10:27:00.232Z</time></trkpt><trkpt lat="44.2519586" lon="8.1073833"><ele>800.0</ele><time>2026-04-26T10:27:01.199Z</time></trkpt><trkpt lat="44.2521" lon="8.1073745"><ele>800.0</ele><time>2026-04-26T10:27:02.24Z</time></trkpt><trkpt lat="44.2522324" lon="8.1073339"><ele>800.0</ele><time>2026-04-26T10:27:03.211Z</time></trkpt><trkpt lat="44.252378" lon="8.1073073"><ele>800.0</ele><time>2026-04-26T10:27:04.296Z</time></trkpt><trkpt lat="44.2525108" lon="8.1073049"><ele>800.0</ele><time>2026-04-26T10:27:05.22Z</time></trkpt><trkpt lat="44.2526718" lon="8.1073222"><ele>802.0</ele><time>2026-04-26T10:27:06.342Z</time></trkpt><trkpt lat="44.252933" lon="8.1073568"><ele>804.0</ele><time>2026-04-26T10:27:08.302Z</time></trkpt><trkpt lat="44.25318" lon="8.107373"><ele>800.0</ele><time>2026-04-26T10:27:10.18Z</time></trkpt><trkpt lat="44.2532921" lon="8.1073779"><ele>796.0</ele><time>2026-04-26T10:27:11.298Z</time></trkpt><trkpt lat="44.2534411" lon="8.1072902"><ele>792.0</ele><time>2026-04-26T10:27:13.299Z</time></trkpt><trkpt lat="44.2534785" lon="8.1072156"><ele>788.0</ele><time>2026-04-26T10:27:14.218Z</time></trkpt><trkpt lat="44.2535196" lon="8.1069382"><ele>788.0</ele><time>2026-04-26T10:27:16.171Z</time></trkpt><trkpt lat="44.2535162" lon="8.1067385"><ele>788.0</ele><time>2026-04-26T10:27:17.213Z</time></trkpt><trkpt lat="44.253487" lon="8.1065202"><ele>788.0</ele><time>2026-04-26T10:27:18.309Z</time></trkpt><trkpt lat="44.2534099" lon="8.106181"><ele>787.3333333333334</ele><time>2026-04-26T10:27:20.141Z</time></trkpt><trkpt lat="44.2533985" lon="8.1059824"><ele>786.6666666666667</ele><time>2026-04-26T10:27:21.389Z</time></trkpt><trkpt lat="44.2534216" lon="8.105701"><ele>786.0</ele><time>2026-04-26T10:27:23.245Z</time></trkpt><trkpt lat="44.2534633" lon="8.1055095"><ele>784.0</ele><time>2026-04-26T10:27:24.171Z</time></trkpt><trkpt lat="44.2535241" lon="8.1053326"><ele>782.0</ele><time>2026-04-26T10:27:25.32Z</time></trkpt><trkpt lat="44.2535839" lon="8.1052167"><ele>780.0</ele><time>2026-04-26T10:27:26.321Z</time></trkpt><trkpt lat="44.2536407" lon="8.1051036"><ele>778.0</ele><time>2026-04-26T10:27:27.41Z</time></trkpt><trkpt lat="44.2536728" lon="8.1049625"><ele>776.0</ele><time>2026-04-26T10:27:29.329Z</time></trkpt><trkpt lat="44.2536156" lon="8.1048174"><ele>772.25</ele><time>2026-04-26T10:27:31.293Z</time></trkpt><trkpt lat="44.2535606" lon="8.1047254"><ele>768.5</ele><time>2026-04-26T10:27:32.308Z</time></trkpt><trkpt lat="44.2534881" lon="8.104627"><ele>764.75</ele><time>2026-04-26T10:27:33.254Z</time></trkpt><trkpt lat="44.2532636" lon="8.1044783"><ele>761.0</ele><time>2026-04-26T10:27:35.417Z</time></trkpt><trkpt lat="44.2531072" lon="8.1043815"><ele>760.6666666666666</ele><time>2026-04-26T10:27:37.418Z</time></trkpt><trkpt lat="44.25327" lon="8.1042839"><ele>760.3333333333334</ele><time>2026-04-26T10:27:40.113Z</time></trkpt><trkpt lat="44.253432" lon="8.1042131"><ele>760.0</ele><time>2026-04-26T10:27:41.284Z</time></trkpt><trkpt lat="44.2535607" lon="8.1041522"><ele>755.6666666666667</ele><time>2026-04-26T10:27:42.28Z</time></trkpt><trkpt lat="44.2538045" lon="8.1040579"><ele>751.3333333333334</ele><time>2026-04-26T10:27:44.338Z</time></trkpt><trkpt lat="44.2539284" lon="8.1039798"><ele>747.0</ele><time>2026-04-26T10:27:45.322Z</time></trkpt><trkpt lat="44.2540932" lon="8.1036649"><ele>747.0</ele><time>2026-04-26T10:27:47.304Z</time></trkpt><trkpt lat="44.2541595" lon="8.1035284"><ele>747.0</ele><time>2026-04-26T10:27:48.256Z</time></trkpt><trkpt lat="44.2542536" lon="8.1033789"><ele>747.0</ele><time>2026-04-26T10:27:49.513Z</time></trkpt><trkpt lat="44.2544066" lon="8.1032563"><ele>747.0</ele><time>2026-04-26T10:27:51.183Z</time></trkpt><trkpt lat="44.254495" lon="8.1031525"><ele>747.0</ele><time>2026-04-26T10:27:53.086Z</time></trkpt><trkpt lat="44.2544642" lon="8.1030409"><ele>747.0</ele><time>2026-04-26T10:27:55.119Z</time></trkpt><trkpt lat="44.254334" lon="8.1031267"><ele>747.0</ele><time>2026-04-26T10:27:57.149Z</time></trkpt><trkpt lat="44.2542471" lon="8.1031968"><ele>747.0</ele><time>2026-04-26T10:27:58.054Z</time></trkpt><trkpt lat="44.2541553" lon="8.1032705"><ele>747.0</ele><time>2026-04-26T10:27:59.086Z</time></trkpt><trkpt lat="44.2540914" lon="8.1033334"><ele>747.0</ele><time>2026-04-26T10:28:00.107Z</time></trkpt><trkpt lat="44.2540431" lon="8.1032542"><ele>747.0</ele><time>2026-04-26T10:28:02.995Z</time></trkpt><trkpt lat="44.2541011" lon="8.103172"><ele>747.0</ele><time>2026-04-26T10:28:04.036Z</time></trkpt><trkpt lat="44.2541971" lon="8.103069"><ele>747.0</ele><time>2026-04-26T10:28:05.045Z</time></trkpt><trkpt lat="44.2543408" lon="8.1028991"><ele>740.3333333333334</ele><time>2026-04-26T10:28:06.274Z</time></trkpt><trkpt lat="44.2545162" lon="8.1026473"><ele>733.6666666666667</ele><time>2026-04-26T10:28:08.065Z</time></trkpt><trkpt lat="44.2546083" lon="8.1025679"><ele>727.0</ele><time>2026-04-26T10:28:09.128Z</time></trkpt><trkpt lat="44.2547027" lon="8.1025513"><ele>727.6</ele><time>2026-04-26T10:28:10.044Z</time></trkpt><trkpt lat="44.2548122" lon="8.1025669"><ele>728.2</ele><time>2026-04-26T10:28:11.074Z</time></trkpt><trkpt lat="44.2548962" lon="8.1025751"><ele>728.8</ele><time>2026-04-26T10:28:12.107Z</time></trkpt><trkpt lat="44.2549734" lon="8.1025137"><ele>729.4</ele><time>2026-04-26T10:28:14.109Z</time></trkpt><trkpt lat="44.2549082" lon="8.1024013"><ele>730.0</ele><time>2026-04-26T10:28:16.04Z</time></trkpt><trkpt lat="44.2548118" lon="8.1023507"><ele>722.0</ele><time>2026-04-26T10:28:17.062Z</time></trkpt><trkpt lat="44.2546995" lon="8.1022996"><ele>714.0</ele><time>2026-04-26T10:28:18.007Z</time></trkpt><trkpt lat="44.2545595" lon="8.1022526"><ele>706.0</ele><time>2026-04-26T10:28:19.218Z</time></trkpt><trkpt lat="44.2543149" lon="8.102291"><ele>706.0</ele><time>2026-04-26T10:28:21.303Z</time></trkpt><trkpt lat="44.2542052" lon="8.1023366"><ele>706.0</ele><time>2026-04-26T10:28:22.319Z</time></trkpt><trkpt lat="44.2540638" lon="8.1023874"><ele>706.0</ele><time>2026-04-26T10:28:24.228Z</time></trkpt><trkpt lat="44.2540993" lon="8.1022515"><ele>706.0</ele><time>2026-04-26T10:28:27.264Z</time></trkpt><trkpt lat="44.2543048" lon="8.102076"><ele>706.0</ele><time>2026-04-26T10:28:29.241Z</time></trkpt><trkpt lat="44.2544213" lon="8.1019689"><ele>706.0</ele><time>2026-04-26T10:28:30.177Z</time></trkpt><trkpt lat="44.2545566" lon="8.1018732"><ele>706.0</ele><time>2026-04-26T10:28:31.225Z</time></trkpt><trkpt lat="44.2546749" lon="8.1018198"><ele>706.0</ele><time>2026-04-26T10:28:32.154Z</time></trkpt><trkpt lat="44.2547866" lon="8.1017918"><ele>706.0</ele><time>2026-04-26T10:28:33.191Z</time></trkpt><trkpt lat="44.2548513" lon="8.1017835"><ele>706.0</ele><time>2026-04-26T10:28:34.224Z</time></trkpt><trkpt lat="44.2548866" lon="8.1017013"><ele>706.0</ele><time>2026-04-26T10:28:36.088Z</time></trkpt><trkpt lat="44.254759" lon="8.1016233"><ele>706.0</ele><time>2026-04-26T10:28:37.957Z</time></trkpt><trkpt lat="44.2546365" lon="8.1015991"><ele>706.0</ele><time>2026-04-26T10:28:38.941Z</time></trkpt><trkpt lat="44.2544794" lon="8.1015685"><ele>707.75</ele><time>2026-04-26T10:28:40.029Z</time></trkpt><trkpt lat="44.2543428" lon="8.101547"><ele>709.5</ele><time>2026-04-26T10:28:40.953Z</time></trkpt><trkpt lat="44.2541777" lon="8.1015238"><ele>711.25</ele><time>2026-04-26T10:28:42.104Z</time></trkpt><trkpt lat="44.254037" lon="8.1015057"><ele>713.0</ele><time>2026-04-26T10:28:43.114Z</time></trkpt><trkpt lat="44.2539136" lon="8.1015135"><ele>713.0</ele><time>2026-04-26T10:28:44.127Z</time></trkpt><trkpt lat="44.2538022" lon="8.1015281"><ele>713.0</ele><time>2026-04-26T10:28:45.248Z</time></trkpt><trkpt lat="44.2537147" lon="8.1014638"><ele>713.0</ele><time>2026-04-26T10:28:47.101Z</time></trkpt><trkpt lat="44.2537267" lon="8.1013772"><ele>713.0</ele><time>2026-04-26T10:28:48.178Z</time></trkpt><trkpt lat="44.2537826" lon="8.1012858"><ele>713.0</ele><time>2026-04-26T10:28:49.2Z</time></trkpt><trkpt lat="44.2538921" lon="8.1012233"><ele>708.25</ele><time>2026-04-26T10:28:50.104Z</time></trkpt><trkpt lat="44.2540151" lon="8.1011609"><ele>703.5</ele><time>2026-04-26T10:28:51.014Z</time></trkpt><trkpt lat="44.2541871" lon="8.1010847"><ele>698.75</ele><time>2026-04-26T10:28:52.176Z</time></trkpt><trkpt lat="44.2543191" lon="8.1010311"><ele>694.0</ele><time>2026-04-26T10:28:53.11Z</time></trkpt><trkpt lat="44.2544387" lon="8.1009709"><ele>694.0</ele><time>2026-04-26T10:28:54.178Z</time></trkpt><trkpt lat="44.2545545" lon="8.1009001"><ele>694.0</ele><time>2026-04-26T10:28:55.256Z</time></trkpt><trkpt lat="44.2546075" lon="8.1008139"><ele>694.0</ele><time>2026-04-26T10:28:56.216Z</time></trkpt><trkpt lat="44.2546599" lon="8.1006826"><ele>694.0</ele><time>2026-04-26T10:28:57.314Z</time></trkpt><trkpt lat="44.2546685" lon="8.1005044"><ele>694.0</ele><time>2026-04-26T10:28:58.257Z</time></trkpt><trkpt lat="44.2546731" lon="8.1003328"><ele>693.3333333333334</ele><time>2026-04-26T10:28:59.244Z</time></trkpt><trkpt lat="44.2546634" lon="8.0999918"><ele>692.6666666666666</ele><time>2026-04-26T10:29:01.239Z</time></trkpt><trkpt lat="44.2546141" lon="8.0997682"><ele>692.0</ele><time>2026-04-26T10:29:02.276Z</time></trkpt><trkpt lat="44.2545257" lon="8.099336"><ele>690.6666666666666</ele><time>2026-04-26T10:29:04.359Z</time></trkpt><trkpt lat="44.2544686" lon="8.0991704"><ele>689.3333333333334</ele><time>2026-04-26T10:29:05.318Z</time></trkpt><trkpt lat="44.2544058" lon="8.0988784"><ele>688.0</ele><time>2026-04-26T10:29:07.113Z</time></trkpt><trkpt lat="44.2544137" lon="8.098701"><ele>687.5</ele><time>2026-04-26T10:29:08.123Z</time></trkpt><trkpt lat="44.2544357" lon="8.0985187"><ele>687.0</ele><time>2026-04-26T10:29:09.099Z</time></trkpt><trkpt lat="44.2544417" lon="8.0983433"><ele>686.5</ele><time>2026-04-26T10:29:10.089Z</time></trkpt><trkpt lat="44.2544336" lon="8.0981856"><ele>686.0</ele><time>2026-04-26T10:29:11.068Z</time></trkpt><trkpt lat="44.2544276" lon="8.0980521"><ele>685.8</ele><time>2026-04-26T10:29:12.072Z</time></trkpt><trkpt lat="44.2544481" lon="8.0979562"><ele>685.5999999999999</ele><time>2026-04-26T10:29:13.046Z</time></trkpt><trkpt lat="44.2544768" lon="8.0978202"><ele>685.4</ele><time>2026-04-26T10:29:15.078Z</time></trkpt><trkpt lat="44.2544299" lon="8.0976464"><ele>685.2</ele><time>2026-04-26T10:29:17.134Z</time></trkpt><trkpt lat="44.2543954" lon="8.097542"><ele>685.0</ele><time>2026-04-26T10:29:19.118Z</time></trkpt><trkpt lat="44.2543553" lon="8.0974251"><ele>685.6</ele><time>2026-04-26T10:29:22.021Z</time></trkpt><trkpt lat="44.2543293" lon="8.0973363"><ele>686.2</ele><time>2026-04-26T10:29:25.057Z</time></trkpt><trkpt lat="44.2542988" lon="8.0972316"><ele>686.8</ele><time>2026-04-26T10:29:31.999Z</time></trkpt><trkpt lat="44.2542549" lon="8.0970899"><ele>687.4</ele><time>2026-04-26T10:29:35.074Z</time></trkpt><trkpt lat="44.2542245" lon="8.0969788"><ele>688.0</ele><time>2026-04-26T10:29:36.184Z</time></trkpt><trkpt lat="44.2541587" lon="8.0967286"><ele>689.75</ele><time>2026-04-26T10:29:38.084Z</time></trkpt><trkpt lat="44.2541197" lon="8.0965773"><ele>691.5</ele><time>2026-04-26T10:29:39.083Z</time></trkpt><trkpt lat="44.2540796" lon="8.096394"><ele>693.25</ele><time>2026-04-26T10:29:40.136Z</time></trkpt><trkpt lat="44.2540416" lon="8.0962307"><ele>695.0</ele><time>2026-04-26T10:29:41.069Z</time></trkpt><trkpt lat="44.2539982" lon="8.0960325"><ele>695.0</ele><time>2026-04-26T10:29:42.103Z</time></trkpt><trkpt lat="44.2539551" lon="8.0958365"><ele>695.0</ele><time>2026-04-26T10:29:43.048Z</time></trkpt><trkpt lat="44.253904" lon="8.0956018"><ele>695.0</ele><time>2026-04-26T10:29:44.125Z</time></trkpt><trkpt lat="44.2538526" lon="8.0953659"><ele>695.5</ele><time>2026-04-26T10:29:45.11Z</time></trkpt><trkpt lat="44.2537938" lon="8.0950985"><ele>696.0</ele><time>2026-04-26T10:29:46.19Z</time></trkpt><trkpt lat="44.2536734" lon="8.0946301"><ele>696.0</ele><time>2026-04-26T10:29:48.08Z</time></trkpt><trkpt lat="44.2536041" lon="8.0943636"><ele>696.0</ele><time>2026-04-26T10:29:49.158Z</time></trkpt><trkpt lat="44.2535466" lon="8.0941288"><ele>696.0</ele><time>2026-04-26T10:29:50.096Z</time></trkpt><trkpt lat="44.2534912" lon="8.0938708"><ele>697.6666666666666</ele><time>2026-04-26T10:29:51.098Z</time></trkpt><trkpt lat="44.2534397" lon="8.0936014"><ele>699.3333333333333</ele><time>2026-04-26T10:29:52.128Z</time></trkpt><trkpt lat="44.2533931" lon="8.093362"><ele>701.0</ele><time>2026-04-26T10:29:53.099Z</time></trkpt><trkpt lat="44.2533482" lon="8.0931255"><ele>703.3333333333333</ele><time>2026-04-26T10:29:54.088Z</time></trkpt><trkpt lat="44.2532996" lon="8.092883"><ele>705.6666666666666</ele><time>2026-04-26T10:29:55.11Z</time></trkpt><trkpt lat="44.2532459" lon="8.0926515"><ele>708.0</ele><time>2026-04-26T10:29:56.153Z</time></trkpt><trkpt lat="44.2531919" lon="8.0924657"><ele>710.3333333333334</ele><time>2026-04-26T10:29:57.056Z</time></trkpt><trkpt lat="44.253112" lon="8.092245"><ele>712.6666666666667</ele><time>2026-04-26T10:29:58.152Z</time></trkpt><trkpt lat="44.2530433" lon="8.0920656"><ele>715.0</ele><time>2026-04-26T10:29:59.067Z</time></trkpt><trkpt lat="44.2529821" lon="8.0918682"><ele>715.0</ele><time>2026-04-26T10:30:00.106Z</time></trkpt><trkpt lat="44.2529557" lon="8.0916542"><ele>715.0</ele><time>2026-04-26T10:30:01.135Z</time></trkpt><trkpt lat="44.2529647" lon="8.0912198"><ele>716.6666666666667</ele><time>2026-04-26T10:30:03.059Z</time></trkpt><trkpt lat="44.2529745" lon="8.0909942"><ele>718.3333333333334</ele><time>2026-04-26T10:30:04.021Z</time></trkpt><trkpt lat="44.2529865" lon="8.0907589"><ele>720.0</ele><time>2026-04-26T10:30:04.998Z</time></trkpt><trkpt lat="44.252993" lon="8.0904831"><ele>721.5</ele><time>2026-04-26T10:30:06.088Z</time></trkpt><trkpt lat="44.2529861" lon="8.0902538"><ele>723.0</ele><time>2026-04-26T10:30:07.076Z</time></trkpt><trkpt lat="44.2529572" lon="8.0897818"><ele>723.0</ele><time>2026-04-26T10:30:09.133Z</time></trkpt><trkpt lat="44.252973" lon="8.0895856"><ele>723.0</ele><time>2026-04-26T10:30:10.051Z</time></trkpt><trkpt lat="44.2530032" lon="8.0894005"><ele>723.0</ele><time>2026-04-26T10:30:11.092Z</time></trkpt><trkpt lat="44.2530354" lon="8.089245"><ele>723.0</ele><time>2026-04-26T10:30:12.168Z</time></trkpt><trkpt lat="44.253061" lon="8.089106"><ele>723.5</ele><time>2026-04-26T10:30:13.385Z</time></trkpt><trkpt lat="44.2530757" lon="8.0889892"><ele>724.0</ele><time>2026-04-26T10:30:15.339Z</time></trkpt><trkpt lat="44.2530779" lon="8.0888681"><ele>724.5</ele><time>2026-04-26T10:30:18.123Z</time></trkpt><trkpt lat="44.2530618" lon="8.0885872"><ele>725.0</ele><time>2026-04-26T10:30:21.077Z</time></trkpt><trkpt lat="44.2530458" lon="8.0884482"><ele>725.0</ele><time>2026-04-26T10:30:22.044Z</time></trkpt><trkpt lat="44.253025" lon="8.0882852"><ele>725.0</ele><time>2026-04-26T10:30:23.079Z</time></trkpt><trkpt lat="44.2530119" lon="8.0881293"><ele>725.0</ele><time>2026-04-26T10:30:24.147Z</time></trkpt><trkpt lat="44.2530583" lon="8.0878717"><ele>725.0</ele><time>2026-04-26T10:30:26.188Z</time></trkpt><trkpt lat="44.2532017" lon="8.0876951"><ele>724.0</ele><time>2026-04-26T10:30:28.154Z</time></trkpt><trkpt lat="44.2532786" lon="8.0876012"><ele>723.0</ele><time>2026-04-26T10:30:29.147Z</time></trkpt><trkpt lat="44.2533391" lon="8.0874813"><ele>722.0</ele><time>2026-04-26T10:30:30.197Z</time></trkpt><trkpt lat="44.2533721" lon="8.0873428"><ele>721.0</ele><time>2026-04-26T10:30:31.209Z</time></trkpt><trkpt lat="44.2533979" lon="8.0871908"><ele>720.0</ele><time>2026-04-26T10:30:32.244Z</time></trkpt><trkpt lat="44.2534193" lon="8.0870362"><ele>720.0</ele><time>2026-04-26T10:30:33.242Z</time></trkpt><trkpt lat="44.2534463" lon="8.0868594"><ele>720.0</ele><time>2026-04-26T10:30:34.295Z</time></trkpt><trkpt lat="44.2535186" lon="8.0865723"><ele>720.0</ele><time>2026-04-26T10:30:36.112Z</time></trkpt><trkpt lat="44.2535704" lon="8.0862294"><ele>720.6666666666666</ele><time>2026-04-26T10:30:38.153Z</time></trkpt><trkpt lat="44.2535631" lon="8.0860578"><ele>721.3333333333333</ele><time>2026-04-26T10:30:39.069Z</time></trkpt><trkpt lat="44.2535344" lon="8.0858644"><ele>722.0</ele><time>2026-04-26T10:30:40.057Z</time></trkpt><trkpt lat="44.2534694" lon="8.0856033"><ele>722.3333333333333</ele><time>2026-04-26T10:30:41.389Z</time></trkpt><trkpt lat="44.2533629" lon="8.0853129"><ele>722.6666666666666</ele><time>2026-04-26T10:30:43.004Z</time></trkpt><trkpt lat="44.2533051" lon="8.0851309"><ele>723.0</ele><time>2026-04-26T10:30:44.064Z</time></trkpt><trkpt lat="44.2532651" lon="8.084944"><ele>723.5</ele><time>2026-04-26T10:30:45.097Z</time></trkpt><trkpt lat="44.2532545" lon="8.0847591"><ele>724.0</ele><time>2026-04-26T10:30:46.093Z</time></trkpt><trkpt lat="44.2532725" lon="8.0845755"><ele>724.5</ele><time>2026-04-26T10:30:47.064Z</time></trkpt><trkpt lat="44.2533005" lon="8.0843794"><ele>725.0</ele><time>2026-04-26T10:30:48.078Z</time></trkpt><trkpt lat="44.2533665" lon="8.0839701"><ele>727.6666666666666</ele><time>2026-04-26T10:30:50.066Z</time></trkpt><trkpt lat="44.2533945" lon="8.0837588"><ele>730.3333333333334</ele><time>2026-04-26T10:30:51.079Z</time></trkpt><trkpt lat="44.2534199" lon="8.0835488"><ele>733.0</ele><time>2026-04-26T10:30:52.082Z</time></trkpt><trkpt lat="44.2534621" lon="8.0831062"><ele>734.6666666666667</ele><time>2026-04-26T10:30:54.006Z</time></trkpt><trkpt lat="44.2534749" lon="8.0828511"><ele>736.3333333333334</ele><time>2026-04-26T10:30:55.101Z</time></trkpt><trkpt lat="44.2534814" lon="8.0825986"><ele>738.0</ele><time>2026-04-26T10:30:56.183Z</time></trkpt><trkpt lat="44.253476" lon="8.0821641"><ele>739.0</ele><time>2026-04-26T10:30:58.079Z</time></trkpt><trkpt lat="44.2534697" lon="8.0819206"><ele>740.0</ele><time>2026-04-26T10:30:59.151Z</time></trkpt><trkpt lat="44.2534682" lon="8.0816876"><ele>741.0</ele><time>2026-04-26T10:31:00.163Z</time></trkpt><trkpt lat="44.2534679" lon="8.0812361"><ele>743.0</ele><time>2026-04-26T10:31:02.182Z</time></trkpt><trkpt lat="44.2534596" lon="8.0808475"><ele>745.0</ele><time>2026-04-26T10:31:04.237Z</time></trkpt><trkpt lat="44.2534687" lon="8.0805255"><ele>746.0</ele><time>2026-04-26T10:31:06.225Z</time></trkpt><trkpt lat="44.2535034" lon="8.0803535"><ele>747.0</ele><time>2026-04-26T10:31:07.216Z</time></trkpt><trkpt lat="44.2535448" lon="8.0801728"><ele>748.0</ele><time>2026-04-26T10:31:08.184Z</time></trkpt><trkpt lat="44.2535856" lon="8.0800023"><ele>749.0</ele><time>2026-04-26T10:31:09.17Z</time></trkpt><trkpt lat="44.2536189" lon="8.0798444"><ele>749.25</ele><time>2026-04-26T10:31:10.109Z</time></trkpt><trkpt lat="44.2536444" lon="8.0796622"><ele>749.5</ele><time>2026-04-26T10:31:11.158Z</time></trkpt><trkpt lat="44.253658" lon="8.0794708"><ele>749.75</ele><time>2026-04-26T10:31:12.181Z</time></trkpt><trkpt lat="44.2536496" lon="8.0792911"><ele>750.0</ele><time>2026-04-26T10:31:13.105Z</time></trkpt><trkpt lat="44.2536357" lon="8.0790653"><ele>750.0</ele><time>2026-04-26T10:31:14.167Z</time></trkpt><trkpt lat="44.2536101" lon="8.0788224"><ele>750.0</ele><time>2026-04-26T10:31:15.268Z</time></trkpt><trkpt lat="44.2535227" lon="8.0783862"><ele>754.0</ele><time>2026-04-26T10:31:17.252Z</time></trkpt><trkpt lat="44.253422" lon="8.0779152"><ele>758.0</ele><time>2026-04-26T10:31:19.229Z</time></trkpt><trkpt lat="44.2533314" lon="8.0774567"><ele>758.6666666666666</ele><time>2026-04-26T10:31:21.169Z</time></trkpt><trkpt lat="44.2532811" lon="8.0772352"><ele>759.3333333333334</ele><time>2026-04-26T10:31:22.231Z</time></trkpt><trkpt lat="44.2532069" lon="8.0770541"><ele>760.0</ele><time>2026-04-26T10:31:23.148Z</time></trkpt><trkpt lat="44.2531051" lon="8.076866"><ele>760.0</ele><time>2026-04-26T10:31:24.098Z</time></trkpt><trkpt lat="44.2529659" lon="8.0766466"><ele>760.0</ele><time>2026-04-26T10:31:25.234Z</time></trkpt><trkpt lat="44.2528418" lon="8.0764766"><ele>760.0</ele><time>2026-04-26T10:31:26.169Z</time></trkpt><trkpt lat="44.2527016" lon="8.0762876"><ele>760.6666666666667</ele><time>2026-04-26T10:31:27.165Z</time></trkpt><trkpt lat="44.2525581" lon="8.0760925"><ele>761.3333333333334</ele><time>2026-04-26T10:31:28.242Z</time></trkpt><trkpt lat="44.2524373" lon="8.0759062"><ele>762.0</ele><time>2026-04-26T10:31:29.212Z</time></trkpt><trkpt lat="44.2523181" lon="8.0757003"><ele>765.0</ele><time>2026-04-26T10:31:30.213Z</time></trkpt><trkpt lat="44.2520829" lon="8.075324"><ele>768.0</ele><time>2026-04-26T10:31:32.174Z</time></trkpt><trkpt lat="44.2519656" lon="8.0751402"><ele>768.0</ele><time>2026-04-26T10:31:33.239Z</time></trkpt><trkpt lat="44.2518583" lon="8.0749609"><ele>768.0</ele><time>2026-04-26T10:31:34.17Z</time></trkpt><trkpt lat="44.2517285" lon="8.0747514"><ele>768.0</ele><time>2026-04-26T10:31:35.259Z</time></trkpt><trkpt lat="44.251463" lon="8.0744125"><ele>772.0</ele><time>2026-04-26T10:31:37.288Z</time></trkpt><trkpt lat="44.2511593" lon="8.0741229"><ele>776.0</ele><time>2026-04-26T10:31:39.288Z</time></trkpt><trkpt lat="44.250877" lon="8.0738304"><ele>783.5</ele><time>2026-04-26T10:31:41.282Z</time></trkpt><trkpt lat="44.250668" lon="8.0735214"><ele>791.0</ele><time>2026-04-26T10:31:43.285Z</time></trkpt><trkpt lat="44.2504131" lon="8.0731903"><ele>793.6666666666667</ele><time>2026-04-26T10:31:45.293Z</time></trkpt><trkpt lat="44.2502781" lon="8.0730658"><ele>796.3333333333333</ele><time>2026-04-26T10:31:46.218Z</time></trkpt><trkpt lat="44.2501382" lon="8.0729279"><ele>799.0</ele><time>2026-04-26T10:31:47.202Z</time></trkpt><trkpt lat="44.2500142" lon="8.0727927"><ele>799.0</ele><time>2026-04-26T10:31:48.189Z</time></trkpt><trkpt lat="44.2498829" lon="8.07268"><ele>799.0</ele><time>2026-04-26T10:31:49.227Z</time></trkpt><trkpt lat="44.2495929" lon="8.0725503"><ele>797.3333333333333</ele><time>2026-04-26T10:31:51.157Z</time></trkpt><trkpt lat="44.2494373" lon="8.0725206"><ele>795.6666666666667</ele><time>2026-04-26T10:31:52.11Z</time></trkpt><trkpt lat="44.2492522" lon="8.0725108"><ele>794.0</ele><time>2026-04-26T10:31:53.253Z</time></trkpt><trkpt lat="44.2490991" lon="8.0725349"><ele>801.0</ele><time>2026-04-26T10:31:54.205Z</time></trkpt><trkpt lat="44.2489178" lon="8.0725872"><ele>808.0</ele><time>2026-04-26T10:31:55.251Z</time></trkpt><trkpt lat="44.2485911" lon="8.0727199"><ele>808.0</ele><time>2026-04-26T10:31:57.179Z</time></trkpt><trkpt lat="44.2484131" lon="8.0727778"><ele>808.0</ele><time>2026-04-26T10:31:58.26Z</time></trkpt><trkpt lat="44.2481327" lon="8.0728281"><ele>807.25</ele><time>2026-04-26T10:32:00.192Z</time></trkpt><trkpt lat="44.2480077" lon="8.0728064"><ele>806.5</ele><time>2026-04-26T10:32:01.146Z</time></trkpt><trkpt lat="44.2478818" lon="8.0727461"><ele>805.75</ele><time>2026-04-26T10:32:02.147Z</time></trkpt><trkpt lat="44.2477544" lon="8.0726514"><ele>805.0</ele><time>2026-04-26T10:32:03.17Z</time></trkpt><trkpt lat="44.2476134" lon="8.0725688"><ele>805.0</ele><time>2026-04-26T10:32:04.241Z</time></trkpt><trkpt lat="44.2474756" lon="8.0725238"><ele>805.0</ele><time>2026-04-26T10:32:05.177Z</time></trkpt><trkpt lat="44.2473475" lon="8.0724916"><ele>805.0</ele><time>2026-04-26T10:32:06.137Z</time></trkpt><trkpt lat="44.2471357" lon="8.07237"><ele>805.5</ele><time>2026-04-26T10:32:08.13Z</time></trkpt><trkpt lat="44.2470594" lon="8.0722882"><ele>806.0</ele><time>2026-04-26T10:32:09.093Z</time></trkpt><trkpt lat="44.246989" lon="8.07216"><ele>806.5</ele><time>2026-04-26T10:32:10.136Z</time></trkpt><trkpt lat="44.2469403" lon="8.072005"><ele>807.0</ele><time>2026-04-26T10:32:11.129Z</time></trkpt><trkpt lat="44.2469024" lon="8.07182"><ele>811.3333333333333</ele><time>2026-04-26T10:32:12.244Z</time></trkpt><trkpt lat="44.2468611" lon="8.0715315"><ele>815.6666666666666</ele><time>2026-04-26T10:32:14.205Z</time></trkpt><trkpt lat="44.2468119" lon="8.0714053"><ele>820.0</ele><time>2026-04-26T10:32:15.183Z</time></trkpt><trkpt lat="44.2466367" lon="8.0711838"><ele>820.0</ele><time>2026-04-26T10:32:17.134Z</time></trkpt><trkpt lat="44.2465087" lon="8.0711333"><ele>820.0</ele><time>2026-04-26T10:32:18.175Z</time></trkpt><trkpt lat="44.2462401" lon="8.0711075"><ele>820.0</ele><time>2026-04-26T10:32:19.917Z</time></trkpt><trkpt lat="44.2460262" lon="8.0710698"><ele>821.6666666666666</ele><time>2026-04-26T10:32:21.218Z</time></trkpt><trkpt lat="44.2458613" lon="8.071018"><ele>823.3333333333333</ele><time>2026-04-26T10:32:22.21Z</time></trkpt><trkpt lat="44.2457011" lon="8.0709639"><ele>825.0</ele><time>2026-04-26T10:32:23.197Z</time></trkpt><trkpt lat="44.2455222" lon="8.0709094"><ele>825.0</ele><time>2026-04-26T10:32:24.269Z</time></trkpt><trkpt lat="44.2452049" lon="8.0708169"><ele>825.0</ele><time>2026-04-26T10:32:26.18Z</time></trkpt><trkpt lat="44.2450424" lon="8.0707801"><ele>835.0</ele><time>2026-04-26T10:32:27.152Z</time></trkpt><trkpt lat="44.2448714" lon="8.0707445"><ele>845.0</ele><time>2026-04-26T10:32:28.228Z</time></trkpt><trkpt lat="44.2445966" lon="8.0706101"><ele>845.0</ele><time>2026-04-26T10:32:30.083Z</time></trkpt><trkpt lat="44.2444276" lon="8.0705043"><ele>845.0</ele><time>2026-04-26T10:32:31.193Z</time></trkpt><trkpt lat="44.2442908" lon="8.0704131"><ele>845.0</ele><time>2026-04-26T10:32:32.133Z</time></trkpt><trkpt lat="44.2441318" lon="8.0703345"><ele>843.3333333333334</ele><time>2026-04-26T10:32:33.133Z</time></trkpt><trkpt lat="44.2439465" lon="8.0702753"><ele>841.6666666666667</ele><time>2026-04-26T10:32:34.191Z</time></trkpt><trkpt lat="44.2437784" lon="8.0702297"><ele>840.0</ele><time>2026-04-26T10:32:35.103Z</time></trkpt><trkpt lat="44.243596" lon="8.0701802"><ele>840.0</ele><time>2026-04-26T10:32:36.162Z</time></trkpt><trkpt lat="44.2434255" lon="8.0701349"><ele>840.0</ele><time>2026-04-26T10:32:37.165Z</time></trkpt><trkpt lat="44.2432363" lon="8.07009"><ele>840.0</ele><time>2026-04-26T10:32:38.327Z</time></trkpt><trkpt lat="44.2429691" lon="8.0700241"><ele>841.6666666666667</ele><time>2026-04-26T10:32:39.94Z</time></trkpt><trkpt lat="44.2427809" lon="8.0699719"><ele>843.3333333333334</ele><time>2026-04-26T10:32:41.047Z</time></trkpt><trkpt lat="44.2426198" lon="8.069925"><ele>845.0</ele><time>2026-04-26T10:32:41.992Z</time></trkpt><trkpt lat="44.242413" lon="8.0698557"><ele>853.0</ele><time>2026-04-26T10:32:43.233Z</time></trkpt><trkpt lat="44.2421561" lon="8.0697379"><ele>861.0</ele><time>2026-04-26T10:32:45.255Z</time></trkpt><trkpt lat="44.2419464" lon="8.0695881"><ele>861.0</ele><time>2026-04-26T10:32:47.24Z</time></trkpt><trkpt lat="44.241831" lon="8.069452"><ele>860.9999999999999</ele><time>2026-04-26T10:32:48.965Z</time></trkpt><trkpt lat="44.2417632" lon="8.0694023"><ele>860.9999999999999</ele><time>2026-04-26T10:32:50.082Z</time></trkpt><trkpt lat="44.241672" lon="8.0694806"><ele>861.0</ele><time>2026-04-26T10:32:52.097Z</time></trkpt><trkpt lat="44.241668" lon="8.0695962"><ele>861.0</ele><time>2026-04-26T10:32:53.139Z</time></trkpt><trkpt lat="44.2417001" lon="8.069705"><ele>861.0</ele><time>2026-04-26T10:32:54.162Z</time></trkpt><trkpt lat="44.2417668" lon="8.0698051"><ele>861.0</ele><time>2026-04-26T10:32:55.08Z</time></trkpt><trkpt lat="44.2418561" lon="8.0699104"><ele>861.0</ele><time>2026-04-26T10:32:56.013Z</time></trkpt><trkpt lat="44.2419782" lon="8.07009"><ele>861.0</ele><time>2026-04-26T10:32:57.119Z</time></trkpt><trkpt lat="44.2420662" lon="8.0702453"><ele>860.25</ele><time>2026-04-26T10:32:58.084Z</time></trkpt><trkpt lat="44.2421578" lon="8.0704126"><ele>859.5</ele><time>2026-04-26T10:32:59.367Z</time></trkpt><trkpt lat="44.2422749" lon="8.0705754"><ele>858.75</ele><time>2026-04-26T10:33:01.161Z</time></trkpt><trkpt lat="44.2423117" lon="8.0706747"><ele>858.0</ele><time>2026-04-26T10:33:02.206Z</time></trkpt><trkpt lat="44.2422446" lon="8.070789"><ele>858.0</ele><time>2026-04-26T10:33:04.206Z</time></trkpt><trkpt lat="44.2420183" lon="8.0705792"><ele>858.0</ele><time>2026-04-26T10:33:07.271Z</time></trkpt><trkpt lat="44.2417614" lon="8.0703181"><ele>858.0</ele><time>2026-04-26T10:33:09.29Z</time></trkpt><trkpt lat="44.2414801" lon="8.070049"><ele>858.0</ele><time>2026-04-26T10:33:11.165Z</time></trkpt><trkpt lat="44.2412234" lon="8.0697695"><ele>861.3333333333333</ele><time>2026-04-26T10:33:13.222Z</time></trkpt><trkpt lat="44.2410862" lon="8.069666"><ele>864.6666666666666</ele><time>2026-04-26T10:33:14.168Z</time></trkpt><trkpt lat="44.2409275" lon="8.0695811"><ele>868.0</ele><time>2026-04-26T10:33:15.18Z</time></trkpt><trkpt lat="44.2407552" lon="8.069515"><ele>878.0</ele><time>2026-04-26T10:33:16.295Z</time></trkpt><trkpt lat="44.240472" lon="8.0693441"><ele>888.0</ele><time>2026-04-26T10:33:18.202Z</time></trkpt><trkpt lat="44.2403396" lon="8.0692015"><ele>884.5</ele><time>2026-04-26T10:33:19.261Z</time></trkpt><trkpt lat="44.2401206" lon="8.0688607"><ele>881.0</ele><time>2026-04-26T10:33:21.226Z</time></trkpt><trkpt lat="44.2399399" lon="8.0685133"><ele>881.0</ele><time>2026-04-26T10:33:23.191Z</time></trkpt><trkpt lat="44.2398671" lon="8.0683767"><ele>881.0</ele><time>2026-04-26T10:33:24.305Z</time></trkpt><trkpt lat="44.2397637" lon="8.068238"><ele>881.0</ele><time>2026-04-26T10:33:26.262Z</time></trkpt><trkpt lat="44.2396994" lon="8.0682409"><ele>881.0</ele><time>2026-04-26T10:33:27.215Z</time></trkpt><trkpt lat="44.2396359" lon="8.0684397"><ele>883.3333333333334</ele><time>2026-04-26T10:33:29.139Z</time></trkpt><trkpt lat="44.2396552" lon="8.0685823"><ele>885.6666666666667</ele><time>2026-04-26T10:33:30.186Z</time></trkpt><trkpt lat="44.2397509" lon="8.068765"><ele>888.0</ele><time>2026-04-26T10:33:31.306Z</time></trkpt><trkpt lat="44.2399309" lon="8.0691311"><ele>888.0</ele><time>2026-04-26T10:33:33.252Z</time></trkpt><trkpt lat="44.2399972" lon="8.069277"><ele>888.0</ele><time>2026-04-26T10:33:34.178Z</time></trkpt><trkpt lat="44.2400753" lon="8.0694562"><ele>888.0</ele><time>2026-04-26T10:33:35.446Z</time></trkpt><trkpt lat="44.2401585" lon="8.0696302"><ele>888.0</ele><time>2026-04-26T10:33:37.331Z</time></trkpt><trkpt lat="44.2401313" lon="8.0697386"><ele>888.0</ele><time>2026-04-26T10:33:39.077Z</time></trkpt><trkpt lat="44.2400197" lon="8.0697775"><ele>888.0</ele><time>2026-04-26T10:33:41.213Z</time></trkpt><trkpt lat="44.2399302" lon="8.0696774"><ele>888.0</ele><time>2026-04-26T10:33:42.437Z</time></trkpt><trkpt lat="44.2397845" lon="8.0694015"><ele>896.6666666666667</ele><time>2026-04-26T10:33:44.132Z</time></trkpt><trkpt lat="44.2396804" lon="8.0691918"><ele>905.3333333333334</ele><time>2026-04-26T10:33:45.247Z</time></trkpt><trkpt lat="44.2395613" lon="8.0689891"><ele>914.0</ele><time>2026-04-26T10:33:46.19Z</time></trkpt><trkpt lat="44.2394438" lon="8.0687743"><ele>914.0</ele><time>2026-04-26T10:33:47.19Z</time></trkpt><trkpt lat="44.2392425" lon="8.0684074"><ele>914.0</ele><time>2026-04-26T10:33:49.206Z</time></trkpt><trkpt lat="44.2391269" lon="8.0682437"><ele>925.0</ele><time>2026-04-26T10:33:50.148Z</time></trkpt><trkpt lat="44.238813" lon="8.0679549"><ele>936.0</ele><time>2026-04-26T10:33:52.309Z</time></trkpt><trkpt lat="44.2386121" lon="8.0677034"><ele>936.0</ele><time>2026-04-26T10:33:54.101Z</time></trkpt><trkpt lat="44.238501" lon="8.0675062"><ele>936.0</ele><time>2026-04-26T10:33:55.281Z</time></trkpt><trkpt lat="44.2383047" lon="8.067178"><ele>939.0</ele><time>2026-04-26T10:33:57.164Z</time></trkpt><trkpt lat="44.2382016" lon="8.0669626"><ele>942.0</ele><time>2026-04-26T10:33:58.317Z</time></trkpt><trkpt lat="44.2380695" lon="8.0666027"><ele>942.0</ele><time>2026-04-26T10:34:00.321Z</time></trkpt><trkpt lat="44.2379066" lon="8.0663436"><ele>942.0</ele><time>2026-04-26T10:34:02.165Z</time></trkpt><trkpt lat="44.2377735" lon="8.0662468"><ele>942.0</ele><time>2026-04-26T10:34:03.198Z</time></trkpt><trkpt lat="44.2376606" lon="8.0661619"><ele>942.0</ele><time>2026-04-26T10:34:04.15Z</time></trkpt><trkpt lat="44.2375464" lon="8.0660358"><ele>942.0</ele><time>2026-04-26T10:34:05.193Z</time></trkpt><trkpt lat="44.2374489" lon="8.0658829"><ele>942.0</ele><time>2026-04-26T10:34:06.213Z</time></trkpt><trkpt lat="44.2373295" lon="8.0655295"><ele>945.6666666666667</ele><time>2026-04-26T10:34:08.185Z</time></trkpt><trkpt lat="44.2372663" lon="8.065393"><ele>949.3333333333334</ele><time>2026-04-26T10:34:09.177Z</time></trkpt><trkpt lat="44.2371834" lon="8.0652509"><ele>953.0</ele><time>2026-04-26T10:34:10.259Z</time></trkpt><trkpt lat="44.2369705" lon="8.0650345"><ele>953.0</ele><time>2026-04-26T10:34:12.206Z</time></trkpt><trkpt lat="44.2368444" lon="8.0649626"><ele>953.0</ele><time>2026-04-26T10:34:13.129Z</time></trkpt><trkpt lat="44.2366991" lon="8.0649084"><ele>953.0</ele><time>2026-04-26T10:34:14.182Z</time></trkpt><trkpt lat="44.2365792" lon="8.0648583"><ele>953.0</ele><time>2026-04-26T10:34:15.296Z</time></trkpt><trkpt lat="44.2363988" lon="8.0647673"><ele>953.0</ele><time>2026-04-26T10:34:17.353Z</time></trkpt><trkpt lat="44.236302" lon="8.0645477"><ele>953.0</ele><time>2026-04-26T10:34:19.316Z</time></trkpt><trkpt lat="44.2362137" lon="8.0642508"><ele>953.0</ele><time>2026-04-26T10:34:21.321Z</time></trkpt><trkpt lat="44.2359992" lon="8.0640136"><ele>953.0</ele><time>2026-04-26T10:34:23.31Z</time></trkpt><trkpt lat="44.2357443" lon="8.063804"><ele>953.0</ele><time>2026-04-26T10:34:25.139Z</time></trkpt><trkpt lat="44.2356136" lon="8.0636506"><ele>959.0</ele><time>2026-04-26T10:34:26.214Z</time></trkpt><trkpt lat="44.2354098" lon="8.0633322"><ele>965.0</ele><time>2026-04-26T10:34:28.081Z</time></trkpt><trkpt lat="44.2352844" lon="8.0631484"><ele>965.0</ele><time>2026-04-26T10:34:29.193Z</time></trkpt><trkpt lat="44.2351678" lon="8.0629961"><ele>965.0</ele><time>2026-04-26T10:34:30.201Z</time></trkpt><trkpt lat="44.2350462" lon="8.0628377"><ele>965.0</ele><time>2026-04-26T10:34:31.234Z</time></trkpt><trkpt lat="44.2349244" lon="8.0626563"><ele>972.0</ele><time>2026-04-26T10:34:32.321Z</time></trkpt><trkpt lat="44.2347425" lon="8.0623171"><ele>979.0</ele><time>2026-04-26T10:34:34.29Z</time></trkpt><trkpt lat="44.2345176" lon="8.0619947"><ele>979.0</ele><time>2026-04-26T10:34:36.362Z</time></trkpt><trkpt lat="44.2342245" lon="8.0617595"><ele>979.0</ele><time>2026-04-26T10:34:38.301Z</time></trkpt><trkpt lat="44.2339111" lon="8.0615583"><ele>982.0</ele><time>2026-04-26T10:34:40.149Z</time></trkpt><trkpt lat="44.2337599" lon="8.0614563"><ele>985.0</ele><time>2026-04-26T10:34:41.05Z</time></trkpt><trkpt lat="44.2335493" lon="8.0613347"><ele>988.0</ele><time>2026-04-26T10:34:42.308Z</time></trkpt><trkpt lat="44.2332542" lon="8.0611763"><ele>990.0</ele><time>2026-04-26T10:34:44.23Z</time></trkpt><trkpt lat="44.2331277" lon="8.0611175"><ele>992.0</ele><time>2026-04-26T10:34:45.188Z</time></trkpt><trkpt lat="44.2330069" lon="8.061043"><ele>994.0</ele><time>2026-04-26T10:34:46.19Z</time></trkpt><trkpt lat="44.2328855" lon="8.0609368"><ele>996.0</ele><time>2026-04-26T10:34:47.274Z</time></trkpt><trkpt lat="44.2328042" lon="8.060843"><ele>998.0</ele><time>2026-04-26T10:34:48.29Z</time></trkpt><trkpt lat="44.2327568" lon="8.0607675"><ele>999.9999999999999</ele><time>2026-04-26T10:34:49.193Z</time></trkpt><trkpt lat="44.2327294" lon="8.0606777"><ele>1001.9999999999999</ele><time>2026-04-26T10:34:50.238Z</time></trkpt><trkpt lat="44.2327337" lon="8.0605525"><ele>1004.0</ele><time>2026-04-26T10:34:51.308Z</time></trkpt><trkpt lat="44.2328789" lon="8.0603656"><ele>1006.0</ele><time>2026-04-26T10:34:53.301Z</time></trkpt><trkpt lat="44.2331238" lon="8.0602747"><ele>1004.3333333333333</ele><time>2026-04-26T10:34:55.222Z</time></trkpt><trkpt lat="44.2332616" lon="8.0602357"><ele>1002.6666666666667</ele><time>2026-04-26T10:34:56.185Z</time></trkpt><trkpt lat="44.2334247" lon="8.0601778"><ele>1001.0</ele><time>2026-04-26T10:34:57.244Z</time></trkpt><trkpt lat="44.2335829" lon="8.0601299"><ele>1001.0</ele><time>2026-04-26T10:34:58.213Z</time></trkpt><trkpt lat="44.233922" lon="8.0600207"><ele>1001.0</ele><time>2026-04-26T10:35:00.323Z</time></trkpt><trkpt lat="44.2341792" lon="8.059948"><ele>1002.1999999999999</ele><time>2026-04-26T10:35:02.14Z</time></trkpt><trkpt lat="44.2342913" lon="8.0599169"><ele>1003.3999999999999</ele><time>2026-04-26T10:35:03.176Z</time></trkpt><trkpt lat="44.234379" lon="8.05988"><ele>1004.6</ele><time>2026-04-26T10:35:04.193Z</time></trkpt><trkpt lat="44.2344351" lon="8.0598378"><ele>1005.8</ele><time>2026-04-26T10:35:05.166Z</time></trkpt><trkpt lat="44.2344654" lon="8.0597039"><ele>1007.0</ele><time>2026-04-26T10:35:07.437Z</time></trkpt><trkpt lat="44.2343836" lon="8.0595929"><ele>1007.0</ele><time>2026-04-26T10:35:09.106Z</time></trkpt><trkpt lat="44.2342886" lon="8.0595261"><ele>1007.0</ele><time>2026-04-26T10:35:10.229Z</time></trkpt><trkpt lat="44.2341743" lon="8.0594876"><ele>1007.0</ele><time>2026-04-26T10:35:11.314Z</time></trkpt><trkpt lat="44.2338869" lon="8.0594437"><ele>1011.0</ele><time>2026-04-26T10:35:13.342Z</time></trkpt><trkpt lat="44.2335798" lon="8.0593745"><ele>1015.0</ele><time>2026-04-26T10:35:15.252Z</time></trkpt><trkpt lat="44.2332137" lon="8.0592936"><ele>1020.5</ele><time>2026-04-26T10:35:17.347Z</time></trkpt><trkpt lat="44.233037" lon="8.0592653"><ele>1026.0</ele><time>2026-04-26T10:35:18.404Z</time></trkpt><trkpt lat="44.2327464" lon="8.0592041"><ele>1026.0</ele><time>2026-04-26T10:35:20.2Z</time></trkpt><trkpt lat="44.2325574" lon="8.0591655"><ele>1026.0</ele><time>2026-04-26T10:35:21.308Z</time></trkpt><trkpt lat="44.2324156" lon="8.0591426"><ele>1026.0</ele><time>2026-04-26T10:35:22.272Z</time></trkpt><trkpt lat="44.2323036" lon="8.0591162"><ele>1026.0</ele><time>2026-04-26T10:35:23.255Z</time></trkpt><trkpt lat="44.2321263" lon="8.0589808"><ele>1028.0</ele><time>2026-04-26T10:35:25.157Z</time></trkpt><trkpt lat="44.23204" lon="8.0588203"><ele>1030.0</ele><time>2026-04-26T10:35:26.413Z</time></trkpt><trkpt lat="44.2319793" lon="8.0584473"><ele>1032.0</ele><time>2026-04-26T10:35:28.363Z</time></trkpt><trkpt lat="44.2318589" lon="8.0581146"><ele>1034.5</ele><time>2026-04-26T10:35:30.31Z</time></trkpt><trkpt lat="44.23159" lon="8.0579049"><ele>1037.0</ele><time>2026-04-26T10:35:32.213Z</time></trkpt><trkpt lat="44.2314365" lon="8.0578155"><ele>1039.5</ele><time>2026-04-26T10:35:33.211Z</time></trkpt><trkpt lat="44.2312707" lon="8.0577088"><ele>1042.0</ele><time>2026-04-26T10:35:34.314Z</time></trkpt><trkpt lat="44.2309984" lon="8.0575448"><ele>1042.0</ele><time>2026-04-26T10:35:36.029Z</time></trkpt><trkpt lat="44.2308014" lon="8.0574536"><ele>1042.0</ele><time>2026-04-26T10:35:37.181Z</time></trkpt><trkpt lat="44.2303882" lon="8.0573506"><ele>1042.0</ele><time>2026-04-26T10:35:39.282Z</time></trkpt><trkpt lat="44.2300108" lon="8.0572657"><ele>1042.0</ele><time>2026-04-26T10:35:41.296Z</time></trkpt><trkpt lat="44.2297255" lon="8.0571817"><ele>1042.0</ele><time>2026-04-26T10:35:43.182Z</time></trkpt><trkpt lat="44.2294308" lon="8.0570915"><ele>1042.0</ele><time>2026-04-26T10:35:45.142Z</time></trkpt><trkpt lat="44.2292923" lon="8.0570493"><ele>1042.0</ele><time>2026-04-26T10:35:46.101Z</time></trkpt><trkpt lat="44.2291463" lon="8.0569934"><ele>1042.0</ele><time>2026-04-26T10:35:47.114Z</time></trkpt><trkpt lat="44.2290139" lon="8.0569392"><ele>1042.0</ele><time>2026-04-26T10:35:48.016Z</time></trkpt><trkpt lat="44.2288483" lon="8.0568979"><ele>1042.0</ele><time>2026-04-26T10:35:49.073Z</time></trkpt><trkpt lat="44.2286955" lon="8.0568898"><ele>1045.5</ele><time>2026-04-26T10:35:50.126Z</time></trkpt><trkpt lat="44.2285159" lon="8.0569165"><ele>1049.0</ele><time>2026-04-26T10:35:51.316Z</time></trkpt><trkpt lat="44.2282439" lon="8.0570145"><ele>1055.5</ele><time>2026-04-26T10:35:53.278Z</time></trkpt><trkpt lat="44.2279866" lon="8.057074"><ele>1062.0</ele><time>2026-04-26T10:35:55.298Z</time></trkpt><trkpt lat="44.2277226" lon="8.0569741"><ele>1062.0</ele><time>2026-04-26T10:35:57.257Z</time></trkpt><trkpt lat="44.2276119" lon="8.0568768"><ele>1062.0</ele><time>2026-04-26T10:35:58.188Z</time></trkpt><trkpt lat="44.2275261" lon="8.056751"><ele>1062.0</ele><time>2026-04-26T10:35:59.103Z</time></trkpt><trkpt lat="44.2274406" lon="8.0565985"><ele>1062.0</ele><time>2026-04-26T10:36:00.099Z</time></trkpt><trkpt lat="44.2273254" lon="8.0564357"><ele>1058.5</ele><time>2026-04-26T10:36:01.196Z</time></trkpt><trkpt lat="44.2270268" lon="8.0561532"><ele>1055.0</ele><time>2026-04-26T10:36:03.261Z</time></trkpt><trkpt lat="44.2267386" lon="8.0558923"><ele>1052.0</ele><time>2026-04-26T10:36:05.324Z</time></trkpt><trkpt lat="44.2264474" lon="8.0556142"><ele>1049.0</ele><time>2026-04-26T10:36:07.281Z</time></trkpt><trkpt lat="44.2261343" lon="8.0553242"><ele>1049.0</ele><time>2026-04-26T10:36:09.314Z</time></trkpt><trkpt lat="44.225817" lon="8.0550481"><ele>1049.0</ele><time>2026-04-26T10:36:11.337Z</time></trkpt><trkpt lat="44.2255037" lon="8.0547788"><ele>1043.5</ele><time>2026-04-26T10:36:13.326Z</time></trkpt><trkpt lat="44.2251945" lon="8.0545303"><ele>1038.0</ele><time>2026-04-26T10:36:15.378Z</time></trkpt><trkpt lat="44.2249024" lon="8.0543546"><ele>1039.0</ele><time>2026-04-26T10:36:17.274Z</time></trkpt><trkpt lat="44.2247112" lon="8.0542683"><ele>1040.0</ele><time>2026-04-26T10:36:18.396Z</time></trkpt><trkpt lat="44.2243932" lon="8.0541427"><ele>1033.3333333333335</ele><time>2026-04-26T10:36:20.176Z</time></trkpt><trkpt lat="44.2242133" lon="8.0540629"><ele>1026.6666666666667</ele><time>2026-04-26T10:36:21.22Z</time></trkpt><trkpt lat="44.2240419" lon="8.0539814"><ele>1020.0</ele><time>2026-04-26T10:36:22.241Z</time></trkpt><trkpt lat="44.2237314" lon="8.0538512"><ele>1020.0</ele><time>2026-04-26T10:36:24.185Z</time></trkpt><trkpt lat="44.2235697" lon="8.0537909"><ele>1020.0</ele><time>2026-04-26T10:36:25.312Z</time></trkpt><trkpt lat="44.2233596" lon="8.0536928"><ele>1020.0</ele><time>2026-04-26T10:36:27.214Z</time></trkpt><trkpt lat="44.223252" lon="8.0534658"><ele>1020.0</ele><time>2026-04-26T10:36:29.102Z</time></trkpt><trkpt lat="44.2232131" lon="8.0532898"><ele>1020.0</ele><time>2026-04-26T10:36:30.074Z</time></trkpt><trkpt lat="44.2231851" lon="8.0530981"><ele>1020.0</ele><time>2026-04-26T10:36:31.052Z</time></trkpt><trkpt lat="44.2231685" lon="8.0529008"><ele>1020.0</ele><time>2026-04-26T10:36:32.026Z</time></trkpt><trkpt lat="44.223154" lon="8.052723"><ele>1019.25</ele><time>2026-04-26T10:36:32.996Z</time></trkpt><trkpt lat="44.22313" lon="8.0525512"><ele>1018.5</ele><time>2026-04-26T10:36:34.072Z</time></trkpt><trkpt lat="44.2230902" lon="8.0524137"><ele>1017.75</ele><time>2026-04-26T10:36:35.108Z</time></trkpt><trkpt lat="44.2230233" lon="8.0523077"><ele>1017.0</ele><time>2026-04-26T10:36:36.043Z</time></trkpt><trkpt lat="44.2229258" lon="8.0522102"><ele>1012.0</ele><time>2026-04-26T10:36:36.968Z</time></trkpt><trkpt lat="44.2227974" lon="8.0520904"><ele>1007.0</ele><time>2026-04-26T10:36:37.988Z</time></trkpt><trkpt lat="44.2226779" lon="8.0519673"><ele>1002.0</ele><time>2026-04-26T10:36:39.062Z</time></trkpt><trkpt lat="44.222577" lon="8.0518795"><ele>997.0</ele><time>2026-04-26T10:36:40.05Z</time></trkpt><trkpt lat="44.2224777" lon="8.0518318"><ele>997.0</ele><time>2026-04-26T10:36:41.132Z</time></trkpt><trkpt lat="44.2223833" lon="8.0518425"><ele>997.0</ele><time>2026-04-26T10:36:42.075Z</time></trkpt><trkpt lat="44.222293" lon="8.0518844"><ele>997.0</ele><time>2026-04-26T10:36:42.985Z</time></trkpt><trkpt lat="44.2221857" lon="8.0519613"><ele>997.0</ele><time>2026-04-26T10:36:44.083Z</time></trkpt><trkpt lat="44.2220882" lon="8.0520287"><ele>997.0</ele><time>2026-04-26T10:36:45.122Z</time></trkpt><trkpt lat="44.2219988" lon="8.0520857"><ele>995.25</ele><time>2026-04-26T10:36:46.061Z</time></trkpt><trkpt lat="44.2218832" lon="8.0521497"><ele>993.5</ele><time>2026-04-26T10:36:47.149Z</time></trkpt><trkpt lat="44.2216986" lon="8.0522269"><ele>991.75</ele><time>2026-04-26T10:36:48.996Z</time></trkpt><trkpt lat="44.221587" lon="8.052233"><ele>990.0</ele><time>2026-04-26T10:36:50.114Z</time></trkpt><trkpt lat="44.2214045" lon="8.0521461"><ele>986.5</ele><time>2026-04-26T10:36:51.993Z</time></trkpt><trkpt lat="44.2212982" lon="8.0520811"><ele>983.0</ele><time>2026-04-26T10:36:53.282Z</time></trkpt><trkpt lat="44.2211209" lon="8.0520963"><ele>979.5</ele><time>2026-04-26T10:36:55.192Z</time></trkpt><trkpt lat="44.2210464" lon="8.0521404"><ele>976.0</ele><time>2026-04-26T10:36:56.216Z</time></trkpt><trkpt lat="44.2209338" lon="8.0522941"><ele>976.0</ele><time>2026-04-26T10:36:58.243Z</time></trkpt><trkpt lat="44.2208367" lon="8.0524068"><ele>976.0</ele><time>2026-04-26T10:37:00.134Z</time></trkpt><trkpt lat="44.2208288" lon="8.0520549"><ele>976.0</ele><time>2026-04-26T10:37:03.2Z</time></trkpt><trkpt lat="44.2208704" lon="8.0518773"><ele>976.0</ele><time>2026-04-26T10:37:04.189Z</time></trkpt><trkpt lat="44.2209347" lon="8.0516855"><ele>976.0</ele><time>2026-04-26T10:37:05.27Z</time></trkpt><trkpt lat="44.2209916" lon="8.0515292"><ele>976.0</ele><time>2026-04-26T10:37:06.272Z</time></trkpt><trkpt lat="44.221049" lon="8.051405"><ele>976.0</ele><time>2026-04-26T10:37:07.219Z</time></trkpt><trkpt lat="44.221123" lon="8.0512796"><ele>972.6666666666666</ele><time>2026-04-26T10:37:08.302Z</time></trkpt><trkpt lat="44.2212175" lon="8.0511615"><ele>969.3333333333333</ele><time>2026-04-26T10:37:09.309Z</time></trkpt><trkpt lat="44.2214643" lon="8.0510222"><ele>966.0</ele><time>2026-04-26T10:37:11.318Z</time></trkpt><trkpt lat="44.2217258" lon="8.0507782"><ele>964.25</ele><time>2026-04-26T10:37:13.147Z</time></trkpt><trkpt lat="44.2218058" lon="8.0506466"><ele>962.5</ele><time>2026-04-26T10:37:14.11Z</time></trkpt><trkpt lat="44.2218415" lon="8.0504721"><ele>960.75</ele><time>2026-04-26T10:37:15.035Z</time></trkpt><trkpt lat="44.2219119" lon="8.0503317"><ele>959.0</ele><time>2026-04-26T10:37:16.055Z</time></trkpt><trkpt lat="44.2219903" lon="8.050208"><ele>959.0</ele><time>2026-04-26T10:37:17.147Z</time></trkpt><trkpt lat="44.2221993" lon="8.0500291"><ele>959.0</ele><time>2026-04-26T10:37:19.125Z</time></trkpt><trkpt lat="44.2222844" lon="8.049945"><ele>959.0</ele><time>2026-04-26T10:37:20.203Z</time></trkpt><trkpt lat="44.2224294" lon="8.0497746"><ele>959.25</ele><time>2026-04-26T10:37:22.024Z</time></trkpt><trkpt lat="44.2225115" lon="8.049666"><ele>959.5</ele><time>2026-04-26T10:37:23.024Z</time></trkpt><trkpt lat="44.2225983" lon="8.0495536"><ele>959.75</ele><time>2026-04-26T10:37:24.089Z</time></trkpt><trkpt lat="44.2226972" lon="8.0494321"><ele>960.0</ele><time>2026-04-26T10:37:25.127Z</time></trkpt><trkpt lat="44.2227952" lon="8.0493102"><ele>960.0</ele><time>2026-04-26T10:37:26.032Z</time></trkpt><trkpt lat="44.2229063" lon="8.0491603"><ele>960.0</ele><time>2026-04-26T10:37:27.06Z</time></trkpt><trkpt lat="44.222971" lon="8.0489778"><ele>960.0</ele><time>2026-04-26T10:37:28.182Z</time></trkpt><trkpt lat="44.2230091" lon="8.0486121"><ele>957.25</ele><time>2026-04-26T10:37:30.13Z</time></trkpt><trkpt lat="44.2229982" lon="8.0484623"><ele>954.5</ele><time>2026-04-26T10:37:31.108Z</time></trkpt><trkpt lat="44.2229694" lon="8.0482588"><ele>951.75</ele><time>2026-04-26T10:37:32.091Z</time></trkpt><trkpt lat="44.2229701" lon="8.0480077"><ele>949.0</ele><time>2026-04-26T10:37:33.16Z</time></trkpt><trkpt lat="44.2229903" lon="8.0477722"><ele>950.3333333333333</ele><time>2026-04-26T10:37:34.186Z</time></trkpt><trkpt lat="44.2230714" lon="8.0473639"><ele>951.6666666666667</ele><time>2026-04-26T10:37:36.109Z</time></trkpt><trkpt lat="44.2231325" lon="8.0472044"><ele>953.0</ele><time>2026-04-26T10:37:37.078Z</time></trkpt><trkpt lat="44.2231986" lon="8.0470374"><ele>953.0</ele><time>2026-04-26T10:37:38.186Z</time></trkpt><trkpt lat="44.2232439" lon="8.0469155"><ele>953.0</ele><time>2026-04-26T10:37:39.098Z</time></trkpt><trkpt lat="44.2232826" lon="8.0467785"><ele>953.0</ele><time>2026-04-26T10:37:40.111Z</time></trkpt><trkpt lat="44.2233033" lon="8.0466744"><ele>953.0</ele><time>2026-04-26T10:37:41.036Z</time></trkpt><trkpt lat="44.2233261" lon="8.0465548"><ele>953.0</ele><time>2026-04-26T10:37:42.26Z</time></trkpt><trkpt lat="44.2233459" lon="8.046323"><ele>952.0</ele><time>2026-04-26T10:37:44.088Z</time></trkpt><trkpt lat="44.2233628" lon="8.0460901"><ele>951.0</ele><time>2026-04-26T10:37:45.148Z</time></trkpt><trkpt lat="44.2234136" lon="8.0459046"><ele>950.0</ele><time>2026-04-26T10:37:46.123Z</time></trkpt><trkpt lat="44.2235049" lon="8.0455253"><ele>947.3333333333334</ele><time>2026-04-26T10:37:48.036Z</time></trkpt><trkpt lat="44.2235156" lon="8.0453117"><ele>944.6666666666667</ele><time>2026-04-26T10:37:49.046Z</time></trkpt><trkpt lat="44.2234981" lon="8.0450756"><ele>942.0</ele><time>2026-04-26T10:37:50.07Z</time></trkpt><trkpt lat="44.223479" lon="8.0448476"><ele>941.0</ele><time>2026-04-26T10:37:51.043Z</time></trkpt><trkpt lat="44.2234606" lon="8.0445987"><ele>940.0</ele><time>2026-04-26T10:37:52.118Z</time></trkpt><trkpt lat="44.2234432" lon="8.0443834"><ele>939.0</ele><time>2026-04-26T10:37:53.117Z</time></trkpt><trkpt lat="44.2234308" lon="8.04419"><ele>938.0</ele><time>2026-04-26T10:37:54.081Z</time></trkpt><trkpt lat="44.2234319" lon="8.0439989"><ele>937.0</ele><time>2026-04-26T10:37:55.078Z</time></trkpt><trkpt lat="44.2234606" lon="8.0438245"><ele>936.0</ele><time>2026-04-26T10:37:56.17Z</time></trkpt><trkpt lat="44.2234994" lon="8.0437099"><ele>935.0</ele><time>2026-04-26T10:37:57.08Z</time></trkpt><trkpt lat="44.223553" lon="8.0435038"><ele>935.0</ele><time>2026-04-26T10:37:59.118Z</time></trkpt><trkpt lat="44.2234716" lon="8.0434064"><ele>935.0</ele><time>2026-04-26T10:38:01.204Z</time></trkpt><trkpt lat="44.2233544" lon="8.0435335"><ele>935.0</ele><time>2026-04-26T10:38:03.125Z</time></trkpt><trkpt lat="44.2232963" lon="8.0436539"><ele>935.0</ele><time>2026-04-26T10:38:04.078Z</time></trkpt><trkpt lat="44.2232209" lon="8.0437997"><ele>930.25</ele><time>2026-04-26T10:38:05.1Z</time></trkpt><trkpt lat="44.2231329" lon="8.0439405"><ele>925.5</ele><time>2026-04-26T10:38:06.046Z</time></trkpt><trkpt lat="44.2230242" lon="8.0440975"><ele>920.75</ele><time>2026-04-26T10:38:07.071Z</time></trkpt><trkpt lat="44.2229185" lon="8.0442628"><ele>916.0</ele><time>2026-04-26T10:38:08.075Z</time></trkpt><trkpt lat="44.2228009" lon="8.0444614"><ele>916.0</ele><time>2026-04-26T10:38:09.212Z</time></trkpt><trkpt lat="44.2226051" lon="8.0447907"><ele>916.0</ele><time>2026-04-26T10:38:11.069Z</time></trkpt><trkpt lat="44.2224704" lon="8.0449716"><ele>909.0</ele><time>2026-04-26T10:38:12.261Z</time></trkpt><trkpt lat="44.2222371" lon="8.0452513"><ele>902.0</ele><time>2026-04-26T10:38:14.25Z</time></trkpt><trkpt lat="44.222071" lon="8.0455651"><ele>902.0</ele><time>2026-04-26T10:38:16.255Z</time></trkpt><trkpt lat="44.2219801" lon="8.0457339"><ele>902.0</ele><time>2026-04-26T10:38:17.385Z</time></trkpt><trkpt lat="44.2217568" lon="8.0459114"><ele>902.0</ele><time>2026-04-26T10:38:19.319Z</time></trkpt><trkpt lat="44.2215601" lon="8.0460505"><ele>897.75</ele><time>2026-04-26T10:38:21.25Z</time></trkpt><trkpt lat="44.221372" lon="8.0461794"><ele>893.5</ele><time>2026-04-26T10:38:23.301Z</time></trkpt><trkpt lat="44.2212627" lon="8.0461229"><ele>889.25</ele><time>2026-04-26T10:38:25.208Z</time></trkpt><trkpt lat="44.2212055" lon="8.0459875"><ele>885.0</ele><time>2026-04-26T10:38:26.31Z</time></trkpt><trkpt lat="44.2211837" lon="8.0456461"><ele>883.25</ele><time>2026-04-26T10:38:28.322Z</time></trkpt><trkpt lat="44.2211997" lon="8.0455127"><ele>881.5</ele><time>2026-04-26T10:38:29.332Z</time></trkpt><trkpt lat="44.2211565" lon="8.0452738"><ele>879.75</ele><time>2026-04-26T10:38:31.29Z</time></trkpt><trkpt lat="44.2211278" lon="8.045163"><ele>878.0</ele><time>2026-04-26T10:38:32.19Z</time></trkpt><trkpt lat="44.2211036" lon="8.0450098"><ele>877.0</ele><time>2026-04-26T10:38:33.338Z</time></trkpt><trkpt lat="44.2210871" lon="8.0448574"><ele>876.0</ele><time>2026-04-26T10:38:34.308Z</time></trkpt><trkpt lat="44.2210659" lon="8.0447131"><ele>875.0</ele><time>2026-04-26T10:38:35.247Z</time></trkpt><trkpt lat="44.2210443" lon="8.0445668"><ele>874.0</ele><time>2026-04-26T10:38:36.287Z</time></trkpt><trkpt lat="44.2210252" lon="8.0444231"><ele>873.0</ele><time>2026-04-26T10:38:37.315Z</time></trkpt><trkpt lat="44.2210734" lon="8.0441583"><ele>869.5999999999999</ele><time>2026-04-26T10:38:39.363Z</time></trkpt><trkpt lat="44.2211553" lon="8.0439323"><ele>866.1999999999999</ele><time>2026-04-26T10:38:41.303Z</time></trkpt><trkpt lat="44.2211669" lon="8.0438302"><ele>862.8</ele><time>2026-04-26T10:38:42.219Z</time></trkpt><trkpt lat="44.2211709" lon="8.0437204"><ele>859.4</ele><time>2026-04-26T10:38:43.133Z</time></trkpt><trkpt lat="44.2211868" lon="8.0435852"><ele>856.0</ele><time>2026-04-26T10:38:44.344Z</time></trkpt><trkpt lat="44.2212172" lon="8.0434888"><ele>855.9999999999999</ele><time>2026-04-26T10:38:45.305Z</time></trkpt><trkpt lat="44.2212562" lon="8.043398"><ele>856.0</ele><time>2026-04-26T10:38:46.269Z</time></trkpt><trkpt lat="44.2213068" lon="8.0433208"><ele>856.0</ele><time>2026-04-26T10:38:47.223Z</time></trkpt><trkpt lat="44.2213435" lon="8.0432208"><ele>856.0</ele><time>2026-04-26T10:38:48.268Z</time></trkpt><trkpt lat="44.2213577" lon="8.0431168"><ele>855.9999999999999</ele><time>2026-04-26T10:38:49.285Z</time></trkpt><trkpt lat="44.2213523" lon="8.0430129"><ele>856.0</ele><time>2026-04-26T10:38:50.262Z</time></trkpt><trkpt lat="44.2213357" lon="8.0427104"><ele>857.0</ele><time>2026-04-26T10:38:52.342Z</time></trkpt><trkpt lat="44.2213134" lon="8.0424252"><ele>858.0</ele><time>2026-04-26T10:38:54.028Z</time></trkpt><trkpt lat="44.2212983" lon="8.0422559"><ele>859.0</ele><time>2026-04-26T10:38:55.057Z</time></trkpt><trkpt lat="44.2212789" lon="8.0420815"><ele>859.0</ele><time>2026-04-26T10:38:56.164Z</time></trkpt><trkpt lat="44.2212468" lon="8.0419618"><ele>859.0000000000001</ele><time>2026-04-26T10:38:57.07Z</time></trkpt><trkpt lat="44.2211995" lon="8.0418423"><ele>859.0000000000001</ele><time>2026-04-26T10:38:58.132Z</time></trkpt><trkpt lat="44.2211292" lon="8.0417235"><ele>859.0</ele><time>2026-04-26T10:38:59.093Z</time></trkpt><trkpt lat="44.2210344" lon="8.0416016"><ele>859.0</ele><time>2026-04-26T10:39:00.14Z</time></trkpt><trkpt lat="44.2209399" lon="8.0414827"><ele>859.0</ele><time>2026-04-26T10:39:01.078Z</time></trkpt><trkpt lat="44.2208222" lon="8.0413395"><ele>859.0</ele><time>2026-04-26T10:39:02.26Z</time></trkpt><trkpt lat="44.2206586" lon="8.0411269"><ele>859.0</ele><time>2026-04-26T10:39:04.232Z</time></trkpt><trkpt lat="44.220561" lon="8.0408805"><ele>853.25</ele><time>2026-04-26T10:39:06.283Z</time></trkpt><trkpt lat="44.2205554" lon="8.0407738"><ele>847.5</ele><time>2026-04-26T10:39:07.217Z</time></trkpt><trkpt lat="44.2205811" lon="8.0406548"><ele>841.75</ele><time>2026-04-26T10:39:08.269Z</time></trkpt><trkpt lat="44.2207176" lon="8.0404732"><ele>836.0</ele><time>2026-04-26T10:39:10.35Z</time></trkpt><trkpt lat="44.2209545" lon="8.0404577"><ele>836.0</ele><time>2026-04-26T10:39:12.105Z</time></trkpt><trkpt lat="44.2210851" lon="8.0404193"><ele>836.0</ele><time>2026-04-26T10:39:13.181Z</time></trkpt><trkpt lat="44.2212958" lon="8.0402185"><ele>836.0</ele><time>2026-04-26T10:39:15.187Z</time></trkpt><trkpt lat="44.2213968" lon="8.0400964"><ele>839.3333333333334</ele><time>2026-04-26T10:39:16.187Z</time></trkpt><trkpt lat="44.2216116" lon="8.0398755"><ele>842.6666666666667</ele><time>2026-04-26T10:39:18.102Z</time></trkpt><trkpt lat="44.2217101" lon="8.0397601"><ele>846.0</ele><time>2026-04-26T10:39:19.073Z</time></trkpt><trkpt lat="44.2218018" lon="8.0396281"><ele>846.0</ele><time>2026-04-26T10:39:20.133Z</time></trkpt><trkpt lat="44.2218668" lon="8.0394981"><ele>846.0</ele><time>2026-04-26T10:39:21.147Z</time></trkpt><trkpt lat="44.2219382" lon="8.0392478"><ele>846.0</ele><time>2026-04-26T10:39:23.113Z</time></trkpt><trkpt lat="44.2219429" lon="8.0391506"><ele>846.0</ele><time>2026-04-26T10:39:24.163Z</time></trkpt><trkpt lat="44.2219351" lon="8.0390617"><ele>846.0</ele><time>2026-04-26T10:39:25.073Z</time></trkpt><trkpt lat="44.2219191" lon="8.0389301"><ele>848.0</ele><time>2026-04-26T10:39:26.116Z</time></trkpt><trkpt lat="44.2218743" lon="8.038817"><ele>850.0</ele><time>2026-04-26T10:39:27.05Z</time></trkpt><trkpt lat="44.2217858" lon="8.0386919"><ele>852.0</ele><time>2026-04-26T10:39:28.1Z</time></trkpt><trkpt lat="44.2216093" lon="8.038564"><ele>854.0</ele><time>2026-04-26T10:39:29.113Z</time></trkpt><trkpt lat="44.2214323" lon="8.0383647"><ele>849.5</ele><time>2026-04-26T10:39:30.26Z</time></trkpt><trkpt lat="44.22106" lon="8.0380874"><ele>845.0</ele><time>2026-04-26T10:39:32.235Z</time></trkpt><trkpt lat="44.2209275" lon="8.0379498"><ele>845.0</ele><time>2026-04-26T10:39:33.28Z</time></trkpt><trkpt lat="44.2207159" lon="8.037717"><ele>845.0</ele><time>2026-04-26T10:39:35.201Z</time></trkpt><trkpt lat="44.2205746" lon="8.037616"><ele>845.0</ele><time>2026-04-26T10:39:36.233Z</time></trkpt><trkpt lat="44.2204488" lon="8.0375674"><ele>845.75</ele><time>2026-04-26T10:39:37.155Z</time></trkpt><trkpt lat="44.2203262" lon="8.0374897"><ele>846.5</ele><time>2026-04-26T10:39:38.231Z</time></trkpt><trkpt lat="44.2202197" lon="8.0373935"><ele>847.25</ele><time>2026-04-26T10:39:39.193Z</time></trkpt><trkpt lat="44.2201272" lon="8.0372956"><ele>848.0</ele><time>2026-04-26T10:39:40.124Z</time></trkpt><trkpt lat="44.2200044" lon="8.0372318"><ele>837.0</ele><time>2026-04-26T10:39:41.253Z</time></trkpt><trkpt lat="44.2197517" lon="8.0372418"><ele>826.0</ele><time>2026-04-26T10:39:43.173Z</time></trkpt><trkpt lat="44.2196158" lon="8.0372204"><ele>815.0</ele><time>2026-04-26T10:39:44.259Z</time></trkpt><trkpt lat="44.2194047" lon="8.0370402"><ele>815.0</ele><time>2026-04-26T10:39:46.23Z</time></trkpt><trkpt lat="44.2192902" lon="8.0366868"><ele>815.0</ele><time>2026-04-26T10:39:48.318Z</time></trkpt><trkpt lat="44.2192456" lon="8.0364953"><ele>815.0</ele><time>2026-04-26T10:39:49.297Z</time></trkpt><trkpt lat="44.2191551" lon="8.0363072"><ele>819.3333333333334</ele><time>2026-04-26T10:39:50.321Z</time></trkpt><trkpt lat="44.2190515" lon="8.0361375"><ele>823.6666666666667</ele><time>2026-04-26T10:39:51.315Z</time></trkpt><trkpt lat="44.2189498" lon="8.0359547"><ele>828.0</ele><time>2026-04-26T10:39:52.268Z</time></trkpt><trkpt lat="44.2187485" lon="8.0355961"><ele>819.3333333333333</ele><time>2026-04-26T10:39:54.226Z</time></trkpt><trkpt lat="44.2186346" lon="8.0354113"><ele>810.6666666666666</ele><time>2026-04-26T10:39:55.358Z</time></trkpt><trkpt lat="44.218524" lon="8.03514"><ele>802.0</ele><time>2026-04-26T10:39:57.305Z</time></trkpt><trkpt lat="44.2185113" lon="8.0349842"><ele>801.5</ele><time>2026-04-26T10:39:58.346Z</time></trkpt><trkpt lat="44.2185766" lon="8.0346234"><ele>801.0</ele><time>2026-04-26T10:40:00.337Z</time></trkpt><trkpt lat="44.2185316" lon="8.0342798"><ele>799.0</ele><time>2026-04-26T10:40:02.385Z</time></trkpt><trkpt lat="44.2184073" lon="8.0339258"><ele>797.0</ele><time>2026-04-26T10:40:04.257Z</time></trkpt><trkpt lat="44.2183819" lon="8.0337695"><ele>795.0</ele><time>2026-04-26T10:40:05.187Z</time></trkpt><trkpt lat="44.2183814" lon="8.0335745"><ele>792.0</ele><time>2026-04-26T10:40:06.285Z</time></trkpt><trkpt lat="44.2184801" lon="8.0331934"><ele>789.0</ele><time>2026-04-26T10:40:08.356Z</time></trkpt><trkpt lat="44.218553" lon="8.0330371"><ele>786.0</ele><time>2026-04-26T10:40:09.417Z</time></trkpt><trkpt lat="44.2186674" lon="8.0327835"><ele>786.5</ele><time>2026-04-26T10:40:11.308Z</time></trkpt><trkpt lat="44.2186505" lon="8.0323457"><ele>787.0</ele><time>2026-04-26T10:40:13.408Z</time></trkpt><trkpt lat="44.2186164" lon="8.0319098"><ele>788.0</ele><time>2026-04-26T10:40:15.319Z</time></trkpt><trkpt lat="44.2185786" lon="8.0315416"><ele>789.0</ele><time>2026-04-26T10:40:17.37Z</time></trkpt><trkpt lat="44.2184221" lon="8.0311765"><ele>789.0</ele><time>2026-04-26T10:40:19.443Z</time></trkpt><trkpt lat="44.2183207" lon="8.0309101"><ele>789.0</ele><time>2026-04-26T10:40:21.19Z</time></trkpt><trkpt lat="44.2182641" lon="8.0307907"><ele>789.0</ele><time>2026-04-26T10:40:22.174Z</time></trkpt><trkpt lat="44.2181753" lon="8.0306957"><ele>789.0</ele><time>2026-04-26T10:40:23.19Z</time></trkpt><trkpt lat="44.2180521" lon="8.0306411"><ele>784.75</ele><time>2026-04-26T10:40:24.183Z</time></trkpt><trkpt lat="44.2179137" lon="8.030562"><ele>780.5</ele><time>2026-04-26T10:40:25.241Z</time></trkpt><trkpt lat="44.2177989" lon="8.0304449"><ele>776.25</ele><time>2026-04-26T10:40:26.242Z</time></trkpt><trkpt lat="44.217704" lon="8.0303216"><ele>772.0</ele><time>2026-04-26T10:40:27.299Z</time></trkpt><trkpt lat="44.2176337" lon="8.0302008"><ele>772.0</ele><time>2026-04-26T10:40:28.249Z</time></trkpt><trkpt lat="44.2175848" lon="8.0300555"><ele>772.0</ele><time>2026-04-26T10:40:29.197Z</time></trkpt><trkpt lat="44.2175545" lon="8.0298546"><ele>772.0</ele><time>2026-04-26T10:40:30.283Z</time></trkpt><trkpt lat="44.217595" lon="8.0294821"><ele>772.0</ele><time>2026-04-26T10:40:32.249Z</time></trkpt><trkpt lat="44.2176225" lon="8.02927"><ele>772.0</ele><time>2026-04-26T10:40:33.421Z</time></trkpt><trkpt lat="44.2175609" lon="8.0289986"><ele>772.0</ele><time>2026-04-26T10:40:35.302Z</time></trkpt><trkpt lat="44.2174831" lon="8.0288555"><ele>772.0</ele><time>2026-04-26T10:40:36.238Z</time></trkpt><trkpt lat="44.2173983" lon="8.0286856"><ele>772.0</ele><time>2026-04-26T10:40:37.241Z</time></trkpt><trkpt lat="44.2173222" lon="8.028478"><ele>772.0</ele><time>2026-04-26T10:40:38.294Z</time></trkpt><trkpt lat="44.2171921" lon="8.0280741"><ele>764.6666666666666</ele><time>2026-04-26T10:40:40.161Z</time></trkpt><trkpt lat="44.2171163" lon="8.0278547"><ele>757.3333333333333</ele><time>2026-04-26T10:40:41.264Z</time></trkpt><trkpt lat="44.2170546" lon="8.0276722"><ele>750.0</ele><time>2026-04-26T10:40:42.26Z</time></trkpt><trkpt lat="44.2169739" lon="8.0273019"><ele>750.0</ele><time>2026-04-26T10:40:44.335Z</time></trkpt><trkpt lat="44.2169692" lon="8.0269671"><ele>750.0</ele><time>2026-04-26T10:40:46.133Z</time></trkpt><trkpt lat="44.2169374" lon="8.0268142"><ele>750.0</ele><time>2026-04-26T10:40:47.057Z</time></trkpt><trkpt lat="44.2168701" lon="8.0266543"><ele>751.0</ele><time>2026-04-26T10:40:48.19Z</time></trkpt><trkpt lat="44.2167834" lon="8.0265351"><ele>752.0</ele><time>2026-04-26T10:40:49.142Z</time></trkpt><trkpt lat="44.2166786" lon="8.0264328"><ele>753.0</ele><time>2026-04-26T10:40:50.101Z</time></trkpt><trkpt lat="44.2165569" lon="8.0263306"><ele>754.0</ele><time>2026-04-26T10:40:51.097Z</time></trkpt><trkpt lat="44.2164148" lon="8.0262197"><ele>748.0</ele><time>2026-04-26T10:40:52.161Z</time></trkpt><trkpt lat="44.216181" lon="8.0260338"><ele>742.0</ele><time>2026-04-26T10:40:54.05Z</time></trkpt><trkpt lat="44.2160603" lon="8.0259319"><ele>736.0</ele><time>2026-04-26T10:40:55.164Z</time></trkpt><trkpt lat="44.215917" lon="8.0257295"><ele>735.0</ele><time>2026-04-26T10:40:57.18Z</time></trkpt><trkpt lat="44.2158785" lon="8.0253774"><ele>734.0</ele><time>2026-04-26T10:40:59.077Z</time></trkpt><trkpt lat="44.2158622" lon="8.0251438"><ele>733.0</ele><time>2026-04-26T10:41:00.141Z</time></trkpt><trkpt lat="44.215845" lon="8.0249062"><ele>731.0</ele><time>2026-04-26T10:41:01.11Z</time></trkpt><trkpt lat="44.2158165" lon="8.024619"><ele>729.0</ele><time>2026-04-26T10:41:02.208Z</time></trkpt><trkpt lat="44.2158046" lon="8.0243817"><ele>727.0</ele><time>2026-04-26T10:41:03.174Z</time></trkpt><trkpt lat="44.2157879" lon="8.023883"><ele>723.0</ele><time>2026-04-26T10:41:05.234Z</time></trkpt><trkpt lat="44.2158057" lon="8.0236439"><ele>719.0</ele><time>2026-04-26T10:41:06.288Z</time></trkpt><trkpt lat="44.215861" lon="8.0232416"><ele>714.6666666666666</ele><time>2026-04-26T10:41:08.139Z</time></trkpt><trkpt lat="44.2159044" lon="8.0230169"><ele>710.3333333333334</ele><time>2026-04-26T10:41:09.275Z</time></trkpt><trkpt lat="44.2160071" lon="8.0227399"><ele>706.0</ele><time>2026-04-26T10:41:11.113Z</time></trkpt><trkpt lat="44.216064" lon="8.0226224"><ele>702.5999999999999</ele><time>2026-04-26T10:41:12.136Z</time></trkpt><trkpt lat="44.2161413" lon="8.0224383"><ele>699.2</ele><time>2026-04-26T10:41:14.271Z</time></trkpt><trkpt lat="44.2160849" lon="8.022324"><ele>695.8</ele><time>2026-04-26T10:41:16.132Z</time></trkpt><trkpt lat="44.2160138" lon="8.0223007"><ele>692.4000000000001</ele><time>2026-04-26T10:41:17.21Z</time></trkpt><trkpt lat="44.215938" lon="8.0223545"><ele>689.0</ele><time>2026-04-26T10:41:18.119Z</time></trkpt><trkpt lat="44.2158494" lon="8.0224606"><ele>685.3333333333333</ele><time>2026-04-26T10:41:19.138Z</time></trkpt><trkpt lat="44.2157495" lon="8.022598"><ele>681.6666666666666</ele><time>2026-04-26T10:41:20.205Z</time></trkpt><trkpt lat="44.2156449" lon="8.0227565"><ele>678.0</ele><time>2026-04-26T10:41:21.243Z</time></trkpt><trkpt lat="44.2154371" lon="8.0230864"><ele>678.0</ele><time>2026-04-26T10:41:23.129Z</time></trkpt><trkpt lat="44.2153238" lon="8.0232592"><ele>678.0</ele><time>2026-04-26T10:41:24.141Z</time></trkpt><trkpt lat="44.2152065" lon="8.0234324"><ele>678.0</ele><time>2026-04-26T10:41:25.186Z</time></trkpt><trkpt lat="44.2150873" lon="8.0236036"><ele>673.0</ele><time>2026-04-26T10:41:26.276Z</time></trkpt><trkpt lat="44.2148818" lon="8.0238435"><ele>668.0</ele><time>2026-04-26T10:41:27.975Z</time></trkpt><trkpt lat="44.2146881" lon="8.0239622"><ele>668.0</ele><time>2026-04-26T10:41:29.244Z</time></trkpt><trkpt lat="44.2145131" lon="8.0240414"><ele>668.0</ele><time>2026-04-26T10:41:30.271Z</time></trkpt><trkpt lat="44.2143486" lon="8.0241111"><ele>668.0</ele><time>2026-04-26T10:41:31.275Z</time></trkpt><trkpt lat="44.2140348" lon="8.0242554"><ele>666.6666666666666</ele><time>2026-04-26T10:41:33.242Z</time></trkpt><trkpt lat="44.2138973" lon="8.0243268"><ele>665.3333333333334</ele><time>2026-04-26T10:41:34.154Z</time></trkpt><trkpt lat="44.2137424" lon="8.0244399"><ele>664.0</ele><time>2026-04-26T10:41:35.214Z</time></trkpt><trkpt lat="44.2135918" lon="8.024585"><ele>664.0</ele><time>2026-04-26T10:41:36.224Z</time></trkpt><trkpt lat="44.2134222" lon="8.0247637"><ele>664.0</ele><time>2026-04-26T10:41:37.379Z</time></trkpt><trkpt lat="44.2131745" lon="8.0250364"><ele>660.6666666666667</ele><time>2026-04-26T10:41:39.373Z</time></trkpt><trkpt lat="44.2129883" lon="8.0252256"><ele>657.3333333333334</ele><time>2026-04-26T10:41:41.351Z</time></trkpt><trkpt lat="44.2129141" lon="8.0254539"><ele>654.0</ele><time>2026-04-26T10:41:43.376Z</time></trkpt><trkpt lat="44.2129675" lon="8.0258321"><ele>653.0</ele><time>2026-04-26T10:41:45.352Z</time></trkpt><trkpt lat="44.2130051" lon="8.0259904"><ele>652.0</ele><time>2026-04-26T10:41:46.309Z</time></trkpt><trkpt lat="44.2130623" lon="8.0261363"><ele>651.0</ele><time>2026-04-26T10:41:47.229Z</time></trkpt><trkpt lat="44.2131528" lon="8.0262786"><ele>650.0</ele><time>2026-04-26T10:41:48.257Z</time></trkpt><trkpt lat="44.2132251" lon="8.0264116"><ele>646.6666666666666</ele><time>2026-04-26T10:41:49.24Z</time></trkpt><trkpt lat="44.2132725" lon="8.0265799"><ele>643.3333333333334</ele><time>2026-04-26T10:41:50.465Z</time></trkpt><trkpt lat="44.2132086" lon="8.0268145"><ele>640.0</ele><time>2026-04-26T10:41:52.257Z</time></trkpt><trkpt lat="44.2130068" lon="8.0270858"><ele>640.0</ele><time>2026-04-26T10:41:54.109Z</time></trkpt><trkpt lat="44.2128936" lon="8.0272391"><ele>640.0</ele><time>2026-04-26T10:41:55.101Z</time></trkpt><trkpt lat="44.2127885" lon="8.0273953"><ele>640.0</ele><time>2026-04-26T10:41:56.114Z</time></trkpt><trkpt lat="44.2127139" lon="8.0275259"><ele>640.0</ele><time>2026-04-26T10:41:57.121Z</time></trkpt><trkpt lat="44.2126749" lon="8.0276333"><ele>640.75</ele><time>2026-04-26T10:41:58.075Z</time></trkpt><trkpt lat="44.2126747" lon="8.0277481"><ele>641.5</ele><time>2026-04-26T10:41:59.138Z</time></trkpt><trkpt lat="44.2128295" lon="8.0279601"><ele>642.25</ele><time>2026-04-26T10:42:01.115Z</time></trkpt><trkpt lat="44.2129425" lon="8.0280805"><ele>643.0</ele><time>2026-04-26T10:42:02.02Z</time></trkpt><trkpt lat="44.2130547" lon="8.0282351"><ele>648.6666666666667</ele><time>2026-04-26T10:42:03.041Z</time></trkpt><trkpt lat="44.2131559" lon="8.0284204"><ele>654.3333333333334</ele><time>2026-04-26T10:42:04.067Z</time></trkpt><trkpt lat="44.2132687" lon="8.0286695"><ele>660.0</ele><time>2026-04-26T10:42:05.227Z</time></trkpt><trkpt lat="44.2133847" lon="8.0291258"><ele>656.3333333333334</ele><time>2026-04-26T10:42:07.106Z</time></trkpt><trkpt lat="44.2134443" lon="8.0293499"><ele>652.6666666666667</ele><time>2026-04-26T10:42:08.105Z</time></trkpt><trkpt lat="44.2135026" lon="8.0295481"><ele>649.0</ele><time>2026-04-26T10:42:09.069Z</time></trkpt><trkpt lat="44.2135607" lon="8.0297395"><ele>649.0</ele><time>2026-04-26T10:42:10.086Z</time></trkpt><trkpt lat="44.2136207" lon="8.0299253"><ele>649.0</ele><time>2026-04-26T10:42:11.145Z</time></trkpt><trkpt lat="44.2136565" lon="8.0300911"><ele>649.0</ele><time>2026-04-26T10:42:12.072Z</time></trkpt><trkpt lat="44.2136611" lon="8.030281"><ele>649.0</ele><time>2026-04-26T10:42:13.06Z</time></trkpt><trkpt lat="44.2136352" lon="8.0304995"><ele>646.6666666666667</ele><time>2026-04-26T10:42:14.068Z</time></trkpt><trkpt lat="44.2136076" lon="8.0307215"><ele>644.3333333333334</ele><time>2026-04-26T10:42:15.105Z</time></trkpt><trkpt lat="44.2136021" lon="8.0309301"><ele>642.0</ele><time>2026-04-26T10:42:16.112Z</time></trkpt><trkpt lat="44.2136075" lon="8.0311252"><ele>641.0</ele><time>2026-04-26T10:42:17.113Z</time></trkpt><trkpt lat="44.2136055" lon="8.0313093"><ele>640.0</ele><time>2026-04-26T10:42:18.065Z</time></trkpt><trkpt lat="44.2135778" lon="8.031474"><ele>639.0</ele><time>2026-04-26T10:42:19.053Z</time></trkpt><trkpt lat="44.2135166" lon="8.0316041"><ele>638.0</ele><time>2026-04-26T10:42:20.104Z</time></trkpt><trkpt lat="44.213443" lon="8.0316816"><ele>638.0</ele><time>2026-04-26T10:42:21.047Z</time></trkpt><trkpt lat="44.2133491" lon="8.0317275"><ele>638.0</ele><time>2026-04-26T10:42:22.176Z</time></trkpt><trkpt lat="44.2131941" lon="8.0316486"><ele>638.0</ele><time>2026-04-26T10:42:24.072Z</time></trkpt><trkpt lat="44.2131122" lon="8.0315229"><ele>638.0</ele><time>2026-04-26T10:42:25.05Z</time></trkpt><trkpt lat="44.2130298" lon="8.0313578"><ele>633.5</ele><time>2026-04-26T10:42:26.048Z</time></trkpt><trkpt lat="44.2128897" lon="8.0309034"><ele>629.0</ele><time>2026-04-26T10:42:28.115Z</time></trkpt><trkpt lat="44.2128194" lon="8.0306474"><ele>628.0</ele><time>2026-04-26T10:42:29.14Z</time></trkpt><trkpt lat="44.2127273" lon="8.0303803"><ele>627.0</ele><time>2026-04-26T10:42:30.208Z</time></trkpt><trkpt lat="44.2126534" lon="8.0301401"><ele>626.0</ele><time>2026-04-26T10:42:31.14Z</time></trkpt><trkpt lat="44.2125803" lon="8.0298934"><ele>626.0</ele><time>2026-04-26T10:42:32.138Z</time></trkpt><trkpt lat="44.2125174" lon="8.0296698"><ele>626.0</ele><time>2026-04-26T10:42:33.061Z</time></trkpt><trkpt lat="44.2124416" lon="8.0294469"><ele>626.0</ele><time>2026-04-26T10:42:34.089Z</time></trkpt><trkpt lat="44.2123449" lon="8.0292547"><ele>619.5</ele><time>2026-04-26T10:42:35.099Z</time></trkpt><trkpt lat="44.2120786" lon="8.0289131"><ele>613.0</ele><time>2026-04-26T10:42:37.171Z</time></trkpt><trkpt lat="44.2119197" lon="8.028797"><ele>613.0</ele><time>2026-04-26T10:42:38.19Z</time></trkpt><trkpt lat="44.211791" lon="8.0286752"><ele>613.0</ele><time>2026-04-26T10:42:39.166Z</time></trkpt><trkpt lat="44.2116726" lon="8.0285291"><ele>613.0</ele><time>2026-04-26T10:42:40.208Z</time></trkpt><trkpt lat="44.2115869" lon="8.0283623"><ele>615.5</ele><time>2026-04-26T10:42:41.125Z</time></trkpt><trkpt lat="44.211404" lon="8.0279008"><ele>618.0</ele><time>2026-04-26T10:42:43.126Z</time></trkpt><trkpt lat="44.2113074" lon="8.0276569"><ele>614.0</ele><time>2026-04-26T10:42:44.097Z</time></trkpt><trkpt lat="44.2112129" lon="8.0274168"><ele>610.0</ele><time>2026-04-26T10:42:45.059Z</time></trkpt><trkpt lat="44.2111136" lon="8.0271686"><ele>606.0</ele><time>2026-04-26T10:42:46.081Z</time></trkpt><trkpt lat="44.211024" lon="8.0269376"><ele>606.0</ele><time>2026-04-26T10:42:47.065Z</time></trkpt><trkpt lat="44.2109418" lon="8.0267131"><ele>606.0</ele><time>2026-04-26T10:42:48.08Z</time></trkpt><trkpt lat="44.2108765" lon="8.0264836"><ele>606.0</ele><time>2026-04-26T10:42:49.14Z</time></trkpt><trkpt lat="44.2108469" lon="8.0262697"><ele>603.3333333333334</ele><time>2026-04-26T10:42:50.12Z</time></trkpt><trkpt lat="44.2108455" lon="8.0260459"><ele>600.6666666666667</ele><time>2026-04-26T10:42:51.117Z</time></trkpt><trkpt lat="44.2108682" lon="8.0258187"><ele>598.0</ele><time>2026-04-26T10:42:52.077Z</time></trkpt><trkpt lat="44.2108982" lon="8.0255571"><ele>596.5</ele><time>2026-04-26T10:42:53.119Z</time></trkpt><trkpt lat="44.2109249" lon="8.025277"><ele>595.0</ele><time>2026-04-26T10:42:54.188Z</time></trkpt><trkpt lat="44.2109769" lon="8.0247528"><ele>593.0</ele><time>2026-04-26T10:42:56.177Z</time></trkpt><trkpt lat="44.2110133" lon="8.0242821"><ele>591.0</ele><time>2026-04-26T10:42:58.095Z</time></trkpt><trkpt lat="44.2110074" lon="8.0240104"><ele>589.3333333333334</ele><time>2026-04-26T10:42:59.356Z</time></trkpt><trkpt lat="44.2109366" lon="8.0237188"><ele>587.6666666666667</ele><time>2026-04-26T10:43:01.064Z</time></trkpt><trkpt lat="44.2108702" lon="8.0235677"><ele>586.0</ele><time>2026-04-26T10:43:02.142Z</time></trkpt><trkpt lat="44.2108053" lon="8.0234384"><ele>585.5</ele><time>2026-04-26T10:43:03.096Z</time></trkpt><trkpt lat="44.2107336" lon="8.0233024"><ele>585.0</ele><time>2026-04-26T10:43:04.158Z</time></trkpt><trkpt lat="44.2106744" lon="8.0231899"><ele>584.5</ele><time>2026-04-26T10:43:05.112Z</time></trkpt><trkpt lat="44.2105925" lon="8.0230148"><ele>584.0</ele><time>2026-04-26T10:43:07.039Z</time></trkpt><trkpt lat="44.2105371" lon="8.022867"><ele>584.0</ele><time>2026-04-26T10:43:09.044Z</time></trkpt><trkpt lat="44.2104916" lon="8.0226007"><ele>584.0</ele><time>2026-04-26T10:43:12.141Z</time></trkpt><trkpt lat="44.2105288" lon="8.0223862"><ele>584.0</ele><time>2026-04-26T10:43:14.12Z</time></trkpt><trkpt lat="44.2105484" lon="8.0222754"><ele>584.0</ele><time>2026-04-26T10:43:15.118Z</time></trkpt><trkpt lat="44.2105643" lon="8.0221469"><ele>583.5</ele><time>2026-04-26T10:43:16.279Z</time></trkpt><trkpt lat="44.210594" lon="8.0219405"><ele>583.0</ele><time>2026-04-26T10:43:18.022Z</time></trkpt><trkpt lat="44.2106148" lon="8.0217932"><ele>582.5</ele><time>2026-04-26T10:43:19.122Z</time></trkpt><trkpt lat="44.2106357" lon="8.021655"><ele>582.0</ele><time>2026-04-26T10:43:20.064Z</time></trkpt><trkpt lat="44.2106585" lon="8.0215036"><ele>581.0</ele><time>2026-04-26T10:43:21.07Z</time></trkpt><trkpt lat="44.2106806" lon="8.0213479"><ele>580.0</ele><time>2026-04-26T10:43:22.095Z</time></trkpt><trkpt lat="44.2106948" lon="8.0211966"><ele>579.0</ele><time>2026-04-26T10:43:23.126Z</time></trkpt><trkpt lat="44.2106863" lon="8.0210479"><ele>578.0</ele><time>2026-04-26T10:43:24.193Z</time></trkpt><trkpt lat="44.2105548" lon="8.0208364"><ele>577.25</ele><time>2026-04-26T10:43:26.171Z</time></trkpt><trkpt lat="44.210461" lon="8.020774"><ele>576.5</ele><time>2026-04-26T10:43:27.072Z</time></trkpt><trkpt lat="44.2103463" lon="8.0207071"><ele>575.75</ele><time>2026-04-26T10:43:28.09Z</time></trkpt><trkpt lat="44.2102263" lon="8.0206402"><ele>575.0</ele><time>2026-04-26T10:43:29.156Z</time></trkpt><trkpt lat="44.2100179" lon="8.020501"><ele>575.0</ele><time>2026-04-26T10:43:31.12Z</time></trkpt><trkpt lat="44.2099395" lon="8.0204126"><ele>575.0</ele><time>2026-04-26T10:43:32.061Z</time></trkpt><trkpt lat="44.2098852" lon="8.0202994"><ele>575.0</ele><time>2026-04-26T10:43:32.965Z</time></trkpt><trkpt lat="44.2098347" lon="8.0201173"><ele>575.0</ele><time>2026-04-26T10:43:34.143Z</time></trkpt><trkpt lat="44.2098046" lon="8.0199606"><ele>575.0</ele><time>2026-04-26T10:43:35.085Z</time></trkpt><trkpt lat="44.2097784" lon="8.0197876"><ele>575.0</ele><time>2026-04-26T10:43:36.106Z</time></trkpt><trkpt lat="44.2097619" lon="8.0196376"><ele>575.0</ele><time>2026-04-26T10:43:37.048Z</time></trkpt><trkpt lat="44.2097414" lon="8.0194864"><ele>575.0</ele><time>2026-04-26T10:43:38.15Z</time></trkpt><trkpt lat="44.2097274" lon="8.0193732"><ele>575.0</ele><time>2026-04-26T10:43:39.129Z</time></trkpt><trkpt lat="44.2097096" lon="8.0191947"><ele>575.0</ele><time>2026-04-26T10:43:41.19Z</time></trkpt><trkpt lat="44.2097159" lon="8.0190513"><ele>575.0</ele><time>2026-04-26T10:43:44.082Z</time></trkpt><trkpt lat="44.2097488" lon="8.0189725"><ele>575.0</ele><time>2026-04-26T10:43:46.13Z</time></trkpt><trkpt lat="44.2098655" lon="8.0189465"><ele>575.0</ele><time>2026-04-26T10:43:50.026Z</time></trkpt><trkpt lat="44.2099485" lon="8.0189053"><ele>575.0</ele><time>2026-04-26T10:43:52.154Z</time></trkpt><trkpt lat="44.2100482" lon="8.0188555"><ele>575.0</ele><time>2026-04-26T10:43:54.265Z</time></trkpt><trkpt lat="44.209973" lon="8.0188495"><ele>575.0</ele><time>2026-04-26T10:44:43.971Z</time></trkpt><trkpt lat="44.2099066" lon="8.0188764"><ele>575.0</ele><time>2026-04-26T10:44:44.978Z</time></trkpt><trkpt lat="44.2098299" lon="8.0189062"><ele>575.0</ele><time>2026-04-26T10:44:46.016Z</time></trkpt><trkpt lat="44.2097641" lon="8.0189376"><ele>575.0</ele><time>2026-04-26T10:44:46.982Z</time></trkpt><trkpt lat="44.209681" lon="8.0189785"><ele>575.0</ele><time>2026-04-26T10:44:49.036Z</time></trkpt><trkpt lat="44.2095689" lon="8.0190371"><ele>575.0</ele><time>2026-04-26T10:44:53.97Z</time></trkpt><trkpt lat="44.2094836" lon="8.0190913"><ele>575.0</ele><time>2026-04-26T10:44:55.095Z</time></trkpt><trkpt lat="44.2094095" lon="8.0191289"><ele>575.0</ele><time>2026-04-26T10:44:56.149Z</time></trkpt><trkpt lat="44.2093373" lon="8.0191616"><ele>575.0</ele><time>2026-04-26T10:44:57.082Z</time></trkpt><trkpt lat="44.2092542" lon="8.0192048"><ele>575.0</ele><time>2026-04-26T10:44:58.095Z</time></trkpt><trkpt lat="44.2091801" lon="8.0192452"><ele>575.0</ele><time>2026-04-26T10:44:59.016Z</time></trkpt><trkpt lat="44.2090955" lon="8.0192891"><ele>575.0</ele><time>2026-04-26T10:45:00.07Z</time></trkpt><trkpt lat="44.2090109" lon="8.019333"><ele>575.0</ele><time>2026-04-26T10:45:01.132Z</time></trkpt><trkpt lat="44.2089373" lon="8.0193689"><ele>575.0</ele><time>2026-04-26T10:45:02.046Z</time></trkpt><trkpt lat="44.2088417" lon="8.0194151"><ele>575.0</ele><time>2026-04-26T10:45:03.139Z</time></trkpt><trkpt lat="44.2087555" lon="8.0194585"><ele>575.0</ele><time>2026-04-26T10:45:04.085Z</time></trkpt><trkpt lat="44.2086586" lon="8.0195067"><ele>575.0</ele><time>2026-04-26T10:45:05.132Z</time></trkpt><trkpt lat="44.2084491" lon="8.0196163"><ele>575.0</ele><time>2026-04-26T10:45:07.275Z</time></trkpt><trkpt lat="44.2083525" lon="8.0196684"><ele>575.0</ele><time>2026-04-26T10:45:08.28Z</time></trkpt><trkpt lat="44.2081704" lon="8.0197476"><ele>575.25</ele><time>2026-04-26T10:45:10.016Z</time></trkpt><trkpt lat="44.2080576" lon="8.0198077"><ele>575.5</ele><time>2026-04-26T10:45:11.086Z</time></trkpt><trkpt lat="44.2079512" lon="8.0198655"><ele>575.75</ele><time>2026-04-26T10:45:12.05Z</time></trkpt><trkpt lat="44.2078301" lon="8.0199293"><ele>576.0</ele><time>2026-04-26T10:45:13.193Z</time></trkpt><trkpt lat="44.2077374" lon="8.0199775"><ele>576.5</ele><time>2026-04-26T10:45:14.054Z</time></trkpt><trkpt lat="44.2076326" lon="8.0200335"><ele>577.0</ele><time>2026-04-26T10:45:15.059Z</time></trkpt><trkpt lat="44.2075263" lon="8.0200915"><ele>577.5</ele><time>2026-04-26T10:45:16.078Z</time></trkpt><trkpt lat="44.2074016" lon="8.0201543"><ele>578.0</ele><time>2026-04-26T10:45:17.24Z</time></trkpt><trkpt lat="44.207205" lon="8.0202539"><ele>578.25</ele><time>2026-04-26T10:45:19.14Z</time></trkpt><trkpt lat="44.2071019" lon="8.0203084"><ele>578.5</ele><time>2026-04-26T10:45:20.144Z</time></trkpt><trkpt lat="44.2069819" lon="8.0203657"><ele>578.75</ele><time>2026-04-26T10:45:21.318Z</time></trkpt><trkpt lat="44.2067926" lon="8.0204627"><ele>579.0</ele><time>2026-04-26T10:45:23.232Z</time></trkpt><trkpt lat="44.2066125" lon="8.0205437"><ele>579.0</ele><time>2026-04-26T10:45:25.053Z</time></trkpt><trkpt lat="44.2065011" lon="8.0206017"><ele>579.0</ele><time>2026-04-26T10:45:26.188Z</time></trkpt><trkpt lat="44.2063933" lon="8.0206574"><ele>579.0</ele><time>2026-04-26T10:45:27.317Z</time></trkpt><trkpt lat="44.2063016" lon="8.0207012"><ele>579.0</ele><time>2026-04-26T10:45:28.284Z</time></trkpt><trkpt lat="44.2062165" lon="8.0207452"><ele>579.0</ele><time>2026-04-26T10:45:29.218Z</time></trkpt><trkpt lat="44.2061214" lon="8.0207931"><ele>579.6</ele><time>2026-04-26T10:45:30.292Z</time></trkpt><trkpt lat="44.2059626" lon="8.0208576"><ele>580.2</ele><time>2026-04-26T10:45:32.329Z</time></trkpt><trkpt lat="44.2058955" lon="8.0208582"><ele>580.8000000000001</ele><time>2026-04-26T10:45:33.272Z</time></trkpt><trkpt lat="44.205829" lon="8.0208244"><ele>581.4</ele><time>2026-04-26T10:45:34.293Z</time></trkpt><trkpt lat="44.2057622" lon="8.0206605"><ele>582.0</ele><time>2026-04-26T10:45:36.026Z</time></trkpt><trkpt lat="44.2057394" lon="8.0204968"><ele>582.0</ele><time>2026-04-26T10:45:37.263Z</time></trkpt><trkpt lat="44.2057126" lon="8.0202394"><ele>582.0</ele><time>2026-04-26T10:45:39.083Z</time></trkpt><trkpt lat="44.2057016" lon="8.020089"><ele>582.0</ele><time>2026-04-26T10:45:40.127Z</time></trkpt><trkpt lat="44.2056932" lon="8.0199582"><ele>582.0</ele><time>2026-04-26T10:45:41.046Z</time></trkpt><trkpt lat="44.2056854" lon="8.0198213"><ele>581.6666666666666</ele><time>2026-04-26T10:45:42.028Z</time></trkpt><trkpt lat="44.2056772" lon="8.0196953"><ele>581.3333333333334</ele><time>2026-04-26T10:45:43.046Z</time></trkpt><trkpt lat="44.2056742" lon="8.0195813"><ele>581.0</ele><time>2026-04-26T10:45:44.07Z</time></trkpt><trkpt lat="44.2056938" lon="8.019479"><ele>580.6666666666667</ele><time>2026-04-26T10:45:45.139Z</time></trkpt><trkpt lat="44.2057314" lon="8.0194007"><ele>580.3333333333334</ele><time>2026-04-26T10:45:46.054Z</time></trkpt><trkpt lat="44.2057817" lon="8.0193325"><ele>580.0</ele><time>2026-04-26T10:45:46.965Z</time></trkpt><trkpt lat="44.2058611" lon="8.0192566"><ele>580.0</ele><time>2026-04-26T10:45:48.218Z</time></trkpt><trkpt lat="44.2059751" lon="8.0191588"><ele>580.0</ele><time>2026-04-26T10:45:50.145Z</time></trkpt><trkpt lat="44.2060389" lon="8.0190298"><ele>580.0</ele><time>2026-04-26T10:45:52.146Z</time></trkpt><trkpt lat="44.2060941" lon="8.0188827"><ele>580.0</ele><time>2026-04-26T10:45:54.174Z</time></trkpt><trkpt lat="44.2062049" lon="8.0188008"><ele>580.0</ele><time>2026-04-26T10:45:56.046Z</time></trkpt><trkpt lat="44.2062925" lon="8.0187662"><ele>580.0</ele><time>2026-04-26T10:45:57.109Z</time></trkpt><trkpt lat="44.2063836" lon="8.018738"><ele>580.0</ele><time>2026-04-26T10:45:58.062Z</time></trkpt><trkpt lat="44.2065009" lon="8.0187014"><ele>580.0</ele><time>2026-04-26T10:45:59.156Z</time></trkpt><trkpt lat="44.20662" lon="8.018664"><ele>580.0</ele><time>2026-04-26T10:46:00.156Z</time></trkpt><trkpt lat="44.2067385" lon="8.0186287"><ele>580.0</ele><time>2026-04-26T10:46:01.145Z</time></trkpt><trkpt lat="44.2068574" lon="8.0185832"><ele>580.0</ele><time>2026-04-26T10:46:02.114Z</time></trkpt><trkpt lat="44.2069838" lon="8.0185261"><ele>580.0</ele><time>2026-04-26T10:46:03.126Z</time></trkpt><trkpt lat="44.2071232" lon="8.0184565"><ele>580.0</ele><time>2026-04-26T10:46:04.198Z</time></trkpt><trkpt lat="44.2072561" lon="8.0183839"><ele>578.3333333333334</ele><time>2026-04-26T10:46:05.169Z</time></trkpt><trkpt lat="44.2073916" lon="8.0183028"><ele>576.6666666666666</ele><time>2026-04-26T10:46:06.22Z</time></trkpt><trkpt lat="44.2076063" lon="8.018158"><ele>575.0</ele><time>2026-04-26T10:46:08.155Z</time></trkpt><trkpt lat="44.2076883" lon="8.0180713"><ele>575.0</ele><time>2026-04-26T10:46:09.067Z</time></trkpt><trkpt lat="44.2077689" lon="8.0179339"><ele>575.0</ele><time>2026-04-26T10:46:10.176Z</time></trkpt><trkpt lat="44.2078122" lon="8.0177746"><ele>575.0</ele><time>2026-04-26T10:46:11.177Z</time></trkpt><trkpt lat="44.2078354" lon="8.0176072"><ele>575.0</ele><time>2026-04-26T10:46:12.143Z</time></trkpt><trkpt lat="44.207838" lon="8.0174137"><ele>575.0</ele><time>2026-04-26T10:46:13.161Z</time></trkpt><trkpt lat="44.2078353" lon="8.0172194"><ele>575.0</ele><time>2026-04-26T10:46:14.121Z</time></trkpt><trkpt lat="44.2078277" lon="8.0170167"><ele>575.0</ele><time>2026-04-26T10:46:15.221Z</time></trkpt><trkpt lat="44.2077957" lon="8.0167881"><ele>576.3333333333333</ele><time>2026-04-26T10:46:17.023Z</time></trkpt><trkpt lat="44.2077863" lon="8.0164415"><ele>577.6666666666666</ele><time>2026-04-26T10:46:18.695Z</time></trkpt><trkpt lat="44.2077824" lon="8.0162842"><ele>579.0</ele><time>2026-04-26T10:46:19.695Z</time></trkpt><trkpt lat="44.2077727" lon="8.0161277"><ele>579.0</ele><time>2026-04-26T10:46:20.695Z</time></trkpt><trkpt lat="44.2077705" lon="8.0159503"><ele>579.0</ele><time>2026-04-26T10:46:22.051Z</time></trkpt><trkpt lat="44.2077667" lon="8.0157648"><ele>579.0</ele><time>2026-04-26T10:46:23.221Z</time></trkpt><trkpt lat="44.2077566" lon="8.0154656"><ele>579.0</ele><time>2026-04-26T10:46:25.085Z</time></trkpt><trkpt lat="44.2077503" lon="8.0153441"><ele>579.0</ele><time>2026-04-26T10:46:26.077Z</time></trkpt><trkpt lat="44.207745" lon="8.0152227"><ele>579.0</ele><time>2026-04-26T10:46:27.187Z</time></trkpt><trkpt lat="44.2077404" lon="8.0151242"><ele>579.0</ele><time>2026-04-26T10:46:28.207Z</time></trkpt><trkpt lat="44.2077368" lon="8.0149774"><ele>579.0</ele><time>2026-04-26T10:46:30.179Z</time></trkpt><trkpt lat="44.2077317" lon="8.0148842"><ele>579.0</ele><time>2026-04-26T10:46:33.105Z</time></trkpt><trkpt lat="44.2077167" lon="8.0147958"><ele>579.0</ele><time>2026-04-26T10:47:08.049Z</time></trkpt><trkpt lat="44.2074838" lon="8.0147644"><ele>579.0</ele><time>2026-04-26T10:47:11.182Z</time></trkpt><trkpt lat="44.2073817" lon="8.0147561"><ele>579.0</ele><time>2026-04-26T10:47:12.134Z</time></trkpt><trkpt lat="44.2072715" lon="8.0147526"><ele>579.0</ele><time>2026-04-26T10:47:13.034Z</time></trkpt><trkpt lat="44.2071384" lon="8.0147431"><ele>579.0</ele><time>2026-04-26T10:47:14.149Z</time></trkpt><trkpt lat="44.2070199" lon="8.0147331"><ele>579.0</ele><time>2026-04-26T10:47:15.102Z</time></trkpt><trkpt lat="44.2068849" lon="8.014725"><ele>579.0</ele><time>2026-04-26T10:47:16.132Z</time></trkpt><trkpt lat="44.2067584" lon="8.0147147"><ele>579.0</ele><time>2026-04-26T10:47:17.041Z</time></trkpt><trkpt lat="44.2065686" lon="8.014701"><ele>580.3333333333334</ele><time>2026-04-26T10:47:18.271Z</time></trkpt><trkpt lat="44.2062842" lon="8.0146831"><ele>581.6666666666667</ele><time>2026-04-26T10:47:20.098Z</time></trkpt><trkpt lat="44.2061304" lon="8.0146735"><ele>583.0</ele><time>2026-04-26T10:47:21.064Z</time></trkpt><trkpt lat="44.2059623" lon="8.014663"><ele>583.0</ele><time>2026-04-26T10:47:22.161Z</time></trkpt><trkpt lat="44.2056963" lon="8.0146453"><ele>583.0</ele><time>2026-04-26T10:47:23.995Z</time></trkpt><trkpt lat="44.2055363" lon="8.0146348"><ele>583.0</ele><time>2026-04-26T10:47:25.163Z</time></trkpt><trkpt lat="44.2052845" lon="8.0146094"><ele>583.75</ele><time>2026-04-26T10:47:27.162Z</time></trkpt><trkpt lat="44.2051633" lon="8.0146108"><ele>584.5</ele><time>2026-04-26T10:47:28.143Z</time></trkpt><trkpt lat="44.2050422" lon="8.0145944"><ele>585.25</ele><time>2026-04-26T10:47:29.204Z</time></trkpt><trkpt lat="44.2049361" lon="8.0145701"><ele>586.0</ele><time>2026-04-26T10:47:30.18Z</time></trkpt><trkpt lat="44.2048238" lon="8.0145323"><ele>586.0</ele><time>2026-04-26T10:47:31.258Z</time></trkpt><trkpt lat="44.2047301" lon="8.0144947"><ele>586.0</ele><time>2026-04-26T10:47:32.184Z</time></trkpt><trkpt lat="44.2046323" lon="8.0144447"><ele>586.0</ele><time>2026-04-26T10:47:33.167Z</time></trkpt><trkpt lat="44.2045236" lon="8.0144062"><ele>586.0</ele><time>2026-04-26T10:47:34.278Z</time></trkpt><trkpt lat="44.2044398" lon="8.0143659"><ele>586.0</ele><time>2026-04-26T10:47:35.193Z</time></trkpt><trkpt lat="44.2043538" lon="8.0143262"><ele>586.0</ele><time>2026-04-26T10:47:36.156Z</time></trkpt><trkpt lat="44.2042485" lon="8.0142774"><ele>586.0</ele><time>2026-04-26T10:47:37.212Z</time></trkpt><trkpt lat="44.2041385" lon="8.0142293"><ele>586.0</ele><time>2026-04-26T10:47:38.239Z</time></trkpt><trkpt lat="44.2039289" lon="8.0141452"><ele>586.0</ele><time>2026-04-26T10:47:40.228Z</time></trkpt><trkpt lat="44.2037331" lon="8.0140765"><ele>585.6666666666667</ele><time>2026-04-26T10:47:42.336Z</time></trkpt><trkpt lat="44.2035247" lon="8.0140008"><ele>585.3333333333334</ele><time>2026-04-26T10:47:44.358Z</time></trkpt><trkpt lat="44.2033178" lon="8.0139295"><ele>585.0</ele><time>2026-04-26T10:47:46.145Z</time></trkpt><trkpt lat="44.2031995" lon="8.0138853"><ele>585.0</ele><time>2026-04-26T10:47:47.057Z</time></trkpt><trkpt lat="44.2030367" lon="8.0138235"><ele>585.0</ele><time>2026-04-26T10:47:48.222Z</time></trkpt><trkpt lat="44.2029007" lon="8.0137666"><ele>585.0</ele><time>2026-04-26T10:47:49.201Z</time></trkpt><trkpt lat="44.2027678" lon="8.0137137"><ele>585.0</ele><time>2026-04-26T10:47:50.159Z</time></trkpt><trkpt lat="44.2026176" lon="8.0136511"><ele>585.0</ele><time>2026-04-26T10:47:51.253Z</time></trkpt><trkpt lat="44.2023348" lon="8.0135302"><ele>585.0</ele><time>2026-04-26T10:47:53.253Z</time></trkpt><trkpt lat="44.2020836" lon="8.0134305"><ele>585.0</ele><time>2026-04-26T10:47:55.14Z</time></trkpt><trkpt lat="44.2019631" lon="8.0133793"><ele>585.0</ele><time>2026-04-26T10:47:56.182Z</time></trkpt><trkpt lat="44.2018447" lon="8.0133322"><ele>585.0</ele><time>2026-04-26T10:47:57.215Z</time></trkpt><trkpt lat="44.2017275" lon="8.013281"><ele>585.0</ele><time>2026-04-26T10:47:58.257Z</time></trkpt><trkpt lat="44.2016157" lon="8.0132349"><ele>585.0</ele><time>2026-04-26T10:47:59.285Z</time></trkpt><trkpt lat="44.2013783" lon="8.0131432"><ele>585.0</ele><time>2026-04-26T10:48:01.314Z</time></trkpt><trkpt lat="44.2011497" lon="8.0130514"><ele>585.0</ele><time>2026-04-26T10:48:03.186Z</time></trkpt><trkpt lat="44.201031" lon="8.0130048"><ele>585.0</ele><time>2026-04-26T10:48:04.204Z</time></trkpt><trkpt lat="44.2009038" lon="8.012953"><ele>585.0</ele><time>2026-04-26T10:48:05.227Z</time></trkpt><trkpt lat="44.2007654" lon="8.0128966"><ele>585.0</ele><time>2026-04-26T10:48:06.271Z</time></trkpt><trkpt lat="44.200487" lon="8.0127919"><ele>585.0</ele><time>2026-04-26T10:48:08.187Z</time></trkpt><trkpt lat="44.2001184" lon="8.0126513"><ele>585.0</ele><time>2026-04-26T10:48:10.243Z</time></trkpt><trkpt lat="44.1999296" lon="8.0125665"><ele>590.5</ele><time>2026-04-26T10:48:11.242Z</time></trkpt><trkpt lat="44.1995556" lon="8.0124088"><ele>596.0</ele><time>2026-04-26T10:48:13.215Z</time></trkpt><trkpt lat="44.1993625" lon="8.0123278"><ele>596.0</ele><time>2026-04-26T10:48:14.245Z</time></trkpt><trkpt lat="44.1991903" lon="8.0122569"><ele>596.0</ele><time>2026-04-26T10:48:15.149Z</time></trkpt><trkpt lat="44.1989952" lon="8.012178"><ele>596.0</ele><time>2026-04-26T10:48:16.178Z</time></trkpt><trkpt lat="44.1987797" lon="8.0120904"><ele>596.0</ele><time>2026-04-26T10:48:17.318Z</time></trkpt><trkpt lat="44.1984212" lon="8.0119431"><ele>596.0</ele><time>2026-04-26T10:48:19.16Z</time></trkpt><trkpt lat="44.1982157" lon="8.0118554"><ele>594.6666666666666</ele><time>2026-04-26T10:48:20.189Z</time></trkpt><trkpt lat="44.198017" lon="8.011774"><ele>593.3333333333334</ele><time>2026-04-26T10:48:21.17Z</time></trkpt><trkpt lat="44.1977951" lon="8.011689"><ele>592.0</ele><time>2026-04-26T10:48:22.246Z</time></trkpt><trkpt lat="44.1975881" lon="8.0116168"><ele>606.0</ele><time>2026-04-26T10:48:23.249Z</time></trkpt><trkpt lat="44.1972176" lon="8.0115236"><ele>620.0</ele><time>2026-04-26T10:48:25.02Z</time></trkpt><trkpt lat="44.1969689" lon="8.0114758"><ele>620.0</ele><time>2026-04-26T10:48:26.192Z</time></trkpt><trkpt lat="44.1967593" lon="8.0114315"><ele>620.0</ele><time>2026-04-26T10:48:27.172Z</time></trkpt><trkpt lat="44.1965648" lon="8.0113876"><ele>620.0</ele><time>2026-04-26T10:48:28.089Z</time></trkpt><trkpt lat="44.1963558" lon="8.011332"><ele>617.6666666666666</ele><time>2026-04-26T10:48:29.086Z</time></trkpt><trkpt lat="44.1961313" lon="8.0112676"><ele>615.3333333333334</ele><time>2026-04-26T10:48:30.142Z</time></trkpt><trkpt lat="44.1959204" lon="8.011202"><ele>613.0</ele><time>2026-04-26T10:48:31.129Z</time></trkpt><trkpt lat="44.1956971" lon="8.0111264"><ele>608.3333333333334</ele><time>2026-04-26T10:48:32.185Z</time></trkpt><trkpt lat="44.1954964" lon="8.0110549"><ele>603.6666666666666</ele><time>2026-04-26T10:48:33.152Z</time></trkpt><trkpt lat="44.1953326" lon="8.0109989"><ele>599.0</ele><time>2026-04-26T10:48:34.101Z</time></trkpt><trkpt lat="44.195059" lon="8.0108913"><ele>599.0</ele><time>2026-04-26T10:48:36.109Z</time></trkpt><trkpt lat="44.1949609" lon="8.0108448"><ele>599.0</ele><time>2026-04-26T10:48:37.024Z</time></trkpt><trkpt lat="44.1948733" lon="8.0107925"><ele>599.0</ele><time>2026-04-26T10:48:38.073Z</time></trkpt><trkpt lat="44.1948119" lon="8.0107586"><ele>599.0</ele><time>2026-04-26T10:48:39.038Z</time></trkpt><trkpt lat="44.1947411" lon="8.0107249"><ele>599.0</ele><time>2026-04-26T10:48:41.023Z</time></trkpt><trkpt lat="44.1946564" lon="8.0107054"><ele>599.0</ele><time>2026-04-26T10:49:19.946Z</time></trkpt><trkpt lat="44.1945561" lon="8.0106679"><ele>604.25</ele><time>2026-04-26T10:49:21.118Z</time></trkpt><trkpt lat="44.1944422" lon="8.0106196"><ele>609.5</ele><time>2026-04-26T10:49:22.128Z</time></trkpt><trkpt lat="44.1943169" lon="8.0105667"><ele>614.75</ele><time>2026-04-26T10:49:23.061Z</time></trkpt><trkpt lat="44.1941663" lon="8.0105028"><ele>620.0</ele><time>2026-04-26T10:49:24.059Z</time></trkpt><trkpt lat="44.1940065" lon="8.010435"><ele>615.3333333333333</ele><time>2026-04-26T10:49:25.002Z</time></trkpt><trkpt lat="44.1938266" lon="8.0103596"><ele>610.6666666666666</ele><time>2026-04-26T10:49:26.013Z</time></trkpt><trkpt lat="44.1936128" lon="8.010271"><ele>606.0</ele><time>2026-04-26T10:49:27.111Z</time></trkpt><trkpt lat="44.193406" lon="8.0101829"><ele>606.0</ele><time>2026-04-26T10:49:28.079Z</time></trkpt><trkpt lat="44.1931866" lon="8.0100884"><ele>606.0</ele><time>2026-04-26T10:49:29.025Z</time></trkpt><trkpt lat="44.1929365" lon="8.0099805"><ele>605.0</ele><time>2026-04-26T10:49:30.051Z</time></trkpt><trkpt lat="44.1926627" lon="8.0098653"><ele>604.0</ele><time>2026-04-26T10:49:31.126Z</time></trkpt><trkpt lat="44.1921612" lon="8.0096547"><ele>604.0</ele><time>2026-04-26T10:49:33.085Z</time></trkpt><trkpt lat="44.191942" lon="8.0095579"><ele>604.0</ele><time>2026-04-26T10:49:33.996Z</time></trkpt><trkpt lat="44.19166" lon="8.009412"><ele>607.0</ele><time>2026-04-26T10:49:35.185Z</time></trkpt><trkpt lat="44.1912776" lon="8.0091397"><ele>610.0</ele><time>2026-04-26T10:49:36.875Z</time></trkpt><trkpt lat="44.1910462" lon="8.008922"><ele>610.0</ele><time>2026-04-26T10:49:37.977Z</time></trkpt><trkpt lat="44.1908515" lon="8.008697"><ele>610.0</ele><time>2026-04-26T10:49:38.974Z</time></trkpt><trkpt lat="44.1906465" lon="8.008394"><ele>603.5</ele><time>2026-04-26T10:49:40.169Z</time></trkpt><trkpt lat="44.1905163" lon="8.0081405"><ele>597.0</ele><time>2026-04-26T10:49:41.099Z</time></trkpt><trkpt lat="44.1904165" lon="8.0078435"><ele>597.0</ele><time>2026-04-26T10:49:42.109Z</time></trkpt><trkpt lat="44.1903365" lon="8.0075302"><ele>597.0</ele><time>2026-04-26T10:49:43.089Z</time></trkpt><trkpt lat="44.1902629" lon="8.0071595"><ele>599.0</ele><time>2026-04-26T10:49:44.16Z</time></trkpt><trkpt lat="44.1901969" lon="8.0068183"><ele>601.0</ele><time>2026-04-26T10:49:45.125Z</time></trkpt><trkpt lat="44.1901261" lon="8.0064962"><ele>604.5</ele><time>2026-04-26T10:49:46.038Z</time></trkpt><trkpt lat="44.1900426" lon="8.0061164"><ele>608.0</ele><time>2026-04-26T10:49:47.119Z</time></trkpt><trkpt lat="44.1899593" lon="8.0057519"><ele>612.5</ele><time>2026-04-26T10:49:48.171Z</time></trkpt><trkpt lat="44.1898777" lon="8.0054167"><ele>617.0</ele><time>2026-04-26T10:49:49.132Z</time></trkpt><trkpt lat="44.1897685" lon="8.0050461"><ele>604.0</ele><time>2026-04-26T10:49:50.163Z</time></trkpt><trkpt lat="44.1895484" lon="8.0043877"><ele>608.0</ele><time>2026-04-26T10:49:52.086Z</time></trkpt><trkpt lat="44.1894421" lon="8.0040374"><ele>612.0</ele><time>2026-04-26T10:49:53.152Z</time></trkpt><trkpt lat="44.1893569" lon="8.0037332"><ele>612.0</ele><time>2026-04-26T10:49:54.095Z</time></trkpt><trkpt lat="44.189285" lon="8.0034032"><ele>612.0</ele><time>2026-04-26T10:49:55.116Z</time></trkpt><trkpt lat="44.1892345" lon="8.0030524"><ele>612.0</ele><time>2026-04-26T10:49:56.175Z</time></trkpt><trkpt lat="44.1891979" lon="8.0027289"><ele>612.0</ele><time>2026-04-26T10:49:57.12Z</time></trkpt><trkpt lat="44.1891675" lon="8.0023954"><ele>613.0</ele><time>2026-04-26T10:49:58.11Z</time></trkpt><trkpt lat="44.1891282" lon="8.0020793"><ele>614.0</ele><time>2026-04-26T10:49:59.063Z</time></trkpt><trkpt lat="44.1890773" lon="8.0017389"><ele>614.5</ele><time>2026-04-26T10:50:00.103Z</time></trkpt><trkpt lat="44.1890251" lon="8.0014492"><ele>615.0</ele><time>2026-04-26T10:50:01.006Z</time></trkpt><trkpt lat="44.1889644" lon="8.0011108"><ele>611.3333333333334</ele><time>2026-04-26T10:50:02.112Z</time></trkpt><trkpt lat="44.1889121" lon="8.0008299"><ele>607.6666666666667</ele><time>2026-04-26T10:50:03.027Z</time></trkpt><trkpt lat="44.1888364" lon="8.0005127"><ele>604.0</ele><time>2026-04-26T10:50:04.079Z</time></trkpt><trkpt lat="44.1887365" lon="8.0002356"><ele>604.0</ele><time>2026-04-26T10:50:05.066Z</time></trkpt><trkpt lat="44.188596" lon="7.9999489"><ele>604.0</ele><time>2026-04-26T10:50:06.128Z</time></trkpt><trkpt lat="44.1882844" lon="7.9994181"><ele>604.5</ele><time>2026-04-26T10:50:08.211Z</time></trkpt><trkpt lat="44.1880225" lon="7.9989821"><ele>605.0</ele><time>2026-04-26T10:50:10.124Z</time></trkpt><trkpt lat="44.1879054" lon="7.9987656"><ele>605.0</ele><time>2026-04-26T10:50:11.077Z</time></trkpt><trkpt lat="44.187789" lon="7.9984821"><ele>605.0</ele><time>2026-04-26T10:50:12.234Z</time></trkpt><trkpt lat="44.1876493" lon="7.9980149"><ele>606.0</ele><time>2026-04-26T10:50:14.12Z</time></trkpt><trkpt lat="44.1875737" lon="7.9977357"><ele>607.0</ele><time>2026-04-26T10:50:15.215Z</time></trkpt><trkpt lat="44.1874426" lon="7.9972478"><ele>607.0</ele><time>2026-04-26T10:50:17.108Z</time></trkpt><trkpt lat="44.1873747" lon="7.996988"><ele>607.0</ele><time>2026-04-26T10:50:18.075Z</time></trkpt><trkpt lat="44.1872971" lon="7.9966913"><ele>607.0</ele><time>2026-04-26T10:50:19.141Z</time></trkpt><trkpt lat="44.1872312" lon="7.9964385"><ele>608.5</ele><time>2026-04-26T10:50:20.113Z</time></trkpt><trkpt lat="44.1871615" lon="7.9961655"><ele>610.0</ele><time>2026-04-26T10:50:21.281Z</time></trkpt><trkpt lat="44.1870618" lon="7.9957868"><ele>610.6666666666667</ele><time>2026-04-26T10:50:23.126Z</time></trkpt><trkpt lat="44.1870057" lon="7.9956019"><ele>611.3333333333334</ele><time>2026-04-26T10:50:24.184Z</time></trkpt><trkpt lat="44.1868607" lon="7.9952858"><ele>612.0</ele><time>2026-04-26T10:50:26.166Z</time></trkpt><trkpt lat="44.1867695" lon="7.9951452"><ele>612.5</ele><time>2026-04-26T10:50:27.095Z</time></trkpt><trkpt lat="44.1866439" lon="7.9949724"><ele>613.0</ele><time>2026-04-26T10:50:28.269Z</time></trkpt><trkpt lat="44.1864361" lon="7.9946919"><ele>613.0</ele><time>2026-04-26T10:50:30.129Z</time></trkpt><trkpt lat="44.1863071" lon="7.99452"><ele>613.0</ele><time>2026-04-26T10:50:31.199Z</time></trkpt><trkpt lat="44.1860738" lon="7.9942177"><ele>613.0</ele><time>2026-04-26T10:50:33.109Z</time></trkpt><trkpt lat="44.1859485" lon="7.9940652"><ele>613.0</ele><time>2026-04-26T10:50:34.15Z</time></trkpt><trkpt lat="44.1858257" lon="7.9939236"><ele>613.0</ele><time>2026-04-26T10:50:35.119Z</time></trkpt><trkpt lat="44.1855507" lon="7.9936312"><ele>613.0</ele><time>2026-04-26T10:50:37.126Z</time></trkpt><trkpt lat="44.1854002" lon="7.9934926"><ele>613.0</ele><time>2026-04-26T10:50:38.09Z</time></trkpt><trkpt lat="44.1852381" lon="7.9933581"><ele>613.0</ele><time>2026-04-26T10:50:39.102Z</time></trkpt><trkpt lat="44.1850799" lon="7.9932235"><ele>614.0</ele><time>2026-04-26T10:50:40.143Z</time></trkpt><trkpt lat="44.1849337" lon="7.9930731"><ele>615.0</ele><time>2026-04-26T10:50:41.203Z</time></trkpt><trkpt lat="44.1847053" lon="7.9927327"><ele>614.3333333333334</ele><time>2026-04-26T10:50:43.105Z</time></trkpt><trkpt lat="44.1846015" lon="7.9925105"><ele>613.6666666666667</ele><time>2026-04-26T10:50:44.136Z</time></trkpt><trkpt lat="44.1845041" lon="7.99227"><ele>613.0</ele><time>2026-04-26T10:50:45.122Z</time></trkpt><trkpt lat="44.184398" lon="7.9920068"><ele>613.0</ele><time>2026-04-26T10:50:46.155Z</time></trkpt><trkpt lat="44.1842826" lon="7.9917346"><ele>613.0</ele><time>2026-04-26T10:50:47.15Z</time></trkpt><trkpt lat="44.1841501" lon="7.9914211"><ele>612.6666666666667</ele><time>2026-04-26T10:50:48.199Z</time></trkpt><trkpt lat="44.1840466" lon="7.9911478"><ele>612.3333333333334</ele><time>2026-04-26T10:50:49.142Z</time></trkpt><trkpt lat="44.1839577" lon="7.9908791"><ele>612.0</ele><time>2026-04-26T10:50:50.106Z</time></trkpt><trkpt lat="44.1838669" lon="7.990587"><ele>612.0</ele><time>2026-04-26T10:50:51.197Z</time></trkpt><trkpt lat="44.1837455" lon="7.9900988"><ele>612.0</ele><time>2026-04-26T10:50:53.048Z</time></trkpt><trkpt lat="44.1837002" lon="7.9898196"><ele>612.3333333333334</ele><time>2026-04-26T10:50:54.112Z</time></trkpt><trkpt lat="44.1836758" lon="7.9895345"><ele>612.6666666666667</ele><time>2026-04-26T10:50:55.173Z</time></trkpt><trkpt lat="44.1836708" lon="7.9892819"><ele>613.0</ele><time>2026-04-26T10:50:56.112Z</time></trkpt><trkpt lat="44.1836672" lon="7.9890287"><ele>613.6666666666667</ele><time>2026-04-26T10:50:57.045Z</time></trkpt><trkpt lat="44.1836571" lon="7.9887245"><ele>614.3333333333334</ele><time>2026-04-26T10:50:58.153Z</time></trkpt><trkpt lat="44.1836426" lon="7.988454"><ele>615.0</ele><time>2026-04-26T10:50:59.132Z</time></trkpt><trkpt lat="44.1836219" lon="7.9881907"><ele>615.0</ele><time>2026-04-26T10:51:00.066Z</time></trkpt><trkpt lat="44.183586" lon="7.9878935"><ele>615.0</ele><time>2026-04-26T10:51:01.111Z</time></trkpt><trkpt lat="44.183539" lon="7.987622"><ele>615.0</ele><time>2026-04-26T10:51:02.049Z</time></trkpt><trkpt lat="44.1834724" lon="7.9873119"><ele>619.0</ele><time>2026-04-26T10:51:03.109Z</time></trkpt><trkpt lat="44.1834001" lon="7.9870158"><ele>623.0</ele><time>2026-04-26T10:51:04.131Z</time></trkpt><trkpt lat="44.183239" lon="7.98649"><ele>622.3333333333333</ele><time>2026-04-26T10:51:05.998Z</time></trkpt><trkpt lat="44.1831346" lon="7.9862037"><ele>621.6666666666666</ele><time>2026-04-26T10:51:07.065Z</time></trkpt><trkpt lat="44.1830278" lon="7.9859419"><ele>621.0</ele><time>2026-04-26T10:51:08.044Z</time></trkpt><trkpt lat="44.1828824" lon="7.9856331"><ele>621.0</ele><time>2026-04-26T10:51:09.228Z</time></trkpt><trkpt lat="44.1827806" lon="7.9854442"><ele>621.0</ele><time>2026-04-26T10:51:09.997Z</time></trkpt><trkpt lat="44.1826299" lon="7.9851856"><ele>621.0</ele><time>2026-04-26T10:51:11.099Z</time></trkpt><trkpt lat="44.1824724" lon="7.9849353"><ele>619.0</ele><time>2026-04-26T10:51:12.203Z</time></trkpt><trkpt lat="44.1821906" lon="7.9844993"><ele>617.0</ele><time>2026-04-26T10:51:14.109Z</time></trkpt><trkpt lat="44.1820405" lon="7.9842639"><ele>621.0</ele><time>2026-04-26T10:51:15.117Z</time></trkpt><trkpt lat="44.1818918" lon="7.9840287"><ele>625.0</ele><time>2026-04-26T10:51:16.103Z</time></trkpt><trkpt lat="44.1817431" lon="7.9837937"><ele>625.0</ele><time>2026-04-26T10:51:17.061Z</time></trkpt><trkpt lat="44.1815857" lon="7.9835456"><ele>625.0</ele><time>2026-04-26T10:51:18.047Z</time></trkpt><trkpt lat="44.1814108" lon="7.983289"><ele>623.0</ele><time>2026-04-26T10:51:19.063Z</time></trkpt><trkpt lat="44.181237" lon="7.9830244"><ele>621.0</ele><time>2026-04-26T10:51:20.081Z</time></trkpt><trkpt lat="44.1810559" lon="7.982783"><ele>621.0</ele><time>2026-04-26T10:51:21.076Z</time></trkpt><trkpt lat="44.1808549" lon="7.982548"><ele>621.0</ele><time>2026-04-26T10:51:22.117Z</time></trkpt><trkpt lat="44.1804366" lon="7.9821708"><ele>622.5</ele><time>2026-04-26T10:51:24.062Z</time></trkpt><trkpt lat="44.1801991" lon="7.9820062"><ele>624.0</ele><time>2026-04-26T10:51:25.079Z</time></trkpt><trkpt lat="44.179954" lon="7.981869"><ele>623.5</ele><time>2026-04-26T10:51:26.074Z</time></trkpt><trkpt lat="44.1796993" lon="7.9817505"><ele>623.0</ele><time>2026-04-26T10:51:27.095Z</time></trkpt><trkpt lat="44.1794585" lon="7.981648"><ele>625.5</ele><time>2026-04-26T10:51:28.051Z</time></trkpt><trkpt lat="44.1792042" lon="7.9815481"><ele>628.0</ele><time>2026-04-26T10:51:29.045Z</time></trkpt><trkpt lat="44.1789606" lon="7.9814503"><ele>628.0</ele><time>2026-04-26T10:51:30.02Z</time></trkpt><trkpt lat="44.1786948" lon="7.981349"><ele>628.0</ele><time>2026-04-26T10:51:31.106Z</time></trkpt><trkpt lat="44.1784477" lon="7.9812582"><ele>628.0</ele><time>2026-04-26T10:51:32.099Z</time></trkpt><trkpt lat="44.1782127" lon="7.9811684"><ele>628.0</ele><time>2026-04-26T10:51:33.054Z</time></trkpt><trkpt lat="44.1779847" lon="7.9810802"><ele>627.0</ele><time>2026-04-26T10:51:34.007Z</time></trkpt><trkpt lat="44.1777342" lon="7.9809857"><ele>626.0</ele><time>2026-04-26T10:51:35.129Z</time></trkpt><trkpt lat="44.1775208" lon="7.9809222"><ele>627.0</ele><time>2026-04-26T10:51:36.108Z</time></trkpt><trkpt lat="44.1773071" lon="7.9808819"><ele>628.0</ele><time>2026-04-26T10:51:37.048Z</time></trkpt><trkpt lat="44.177072" lon="7.9808607"><ele>628.0</ele><time>2026-04-26T10:51:38.045Z</time></trkpt><trkpt lat="44.1768326" lon="7.9808626"><ele>628.0</ele><time>2026-04-26T10:51:39.083Z</time></trkpt><trkpt lat="44.1766158" lon="7.9808708"><ele>627.3333333333334</ele><time>2026-04-26T10:51:40.128Z</time></trkpt><trkpt lat="44.176435" lon="7.980856"><ele>626.6666666666666</ele><time>2026-04-26T10:51:41.085Z</time></trkpt><trkpt lat="44.1762672" lon="7.980804"><ele>626.0</ele><time>2026-04-26T10:51:42.006Z</time></trkpt><trkpt lat="44.1760681" lon="7.9806732"><ele>627.5</ele><time>2026-04-26T10:51:43.125Z</time></trkpt><trkpt lat="44.1757455" lon="7.980237"><ele>629.0</ele><time>2026-04-26T10:51:45.218Z</time></trkpt><trkpt lat="44.1754879" lon="7.979699"><ele>629.0</ele><time>2026-04-26T10:51:47.2Z</time></trkpt><trkpt lat="44.1751828" lon="7.979194"><ele>629.0</ele><time>2026-04-26T10:51:49.118Z</time></trkpt><trkpt lat="44.1750012" lon="7.978946"><ele>629.0</ele><time>2026-04-26T10:51:50.128Z</time></trkpt><trkpt lat="44.1748266" lon="7.9787393"><ele>629.0</ele><time>2026-04-26T10:51:51.038Z</time></trkpt><trkpt lat="44.1746127" lon="7.9785185"><ele>629.0</ele><time>2026-04-26T10:51:52.081Z</time></trkpt><trkpt lat="44.174377" lon="7.9782953"><ele>630.0</ele><time>2026-04-26T10:51:53.16Z</time></trkpt><trkpt lat="44.1741518" lon="7.9780995"><ele>631.0</ele><time>2026-04-26T10:51:54.15Z</time></trkpt><trkpt lat="44.1736921" lon="7.9777192"><ele>630.0</ele><time>2026-04-26T10:51:56.123Z</time></trkpt><trkpt lat="44.1734419" lon="7.9775178"><ele>629.0</ele><time>2026-04-26T10:51:57.201Z</time></trkpt><trkpt lat="44.1730063" lon="7.9771906"><ele>629.0</ele><time>2026-04-26T10:51:59.074Z</time></trkpt><trkpt lat="44.1727758" lon="7.9770507"><ele>629.0</ele><time>2026-04-26T10:52:00.021Z</time></trkpt><trkpt lat="44.172517" lon="7.9769216"><ele>629.0</ele><time>2026-04-26T10:52:01.048Z</time></trkpt><trkpt lat="44.1722581" lon="7.9768179"><ele>629.0</ele><time>2026-04-26T10:52:02.036Z</time></trkpt><trkpt lat="44.1719649" lon="7.9767278"><ele>633.0</ele><time>2026-04-26T10:52:03.138Z</time></trkpt><trkpt lat="44.1716829" lon="7.9766611"><ele>637.0</ele><time>2026-04-26T10:52:04.201Z</time></trkpt><trkpt lat="44.1711934" lon="7.9765514"><ele>637.0</ele><time>2026-04-26T10:52:06.066Z</time></trkpt><trkpt lat="44.1709567" lon="7.9764857"><ele>637.0</ele><time>2026-04-26T10:52:07.019Z</time></trkpt><trkpt lat="44.170708" lon="7.9763701"><ele>636.0</ele><time>2026-04-26T10:52:08.073Z</time></trkpt><trkpt lat="44.1704724" lon="7.9762247"><ele>635.0</ele><time>2026-04-26T10:52:09.087Z</time></trkpt><trkpt lat="44.1700284" lon="7.9759229"><ele>636.0</ele><time>2026-04-26T10:52:11.071Z</time></trkpt><trkpt lat="44.169798" lon="7.9757026"><ele>637.0</ele><time>2026-04-26T10:52:12.065Z</time></trkpt><trkpt lat="44.1695536" lon="7.9754945"><ele>637.0</ele><time>2026-04-26T10:52:13.105Z</time></trkpt><trkpt lat="44.1693107" lon="7.9752855"><ele>637.0</ele><time>2026-04-26T10:52:14.144Z</time></trkpt><trkpt lat="44.1688757" lon="7.9749027"><ele>640.0</ele><time>2026-04-26T10:52:16.044Z</time></trkpt><trkpt lat="44.1686326" lon="7.974694"><ele>643.0</ele><time>2026-04-26T10:52:17.127Z</time></trkpt><trkpt lat="44.1684248" lon="7.9745157"><ele>643.0</ele><time>2026-04-26T10:52:18.046Z</time></trkpt><trkpt lat="44.1681976" lon="7.9743221"><ele>643.0</ele><time>2026-04-26T10:52:19.096Z</time></trkpt><trkpt lat="44.1680036" lon="7.9741479"><ele>643.0</ele><time>2026-04-26T10:52:20.059Z</time></trkpt><trkpt lat="44.1678292" lon="7.9739661"><ele>643.0</ele><time>2026-04-26T10:52:21.009Z</time></trkpt><trkpt lat="44.1676657" lon="7.973768"><ele>643.0</ele><time>2026-04-26T10:52:22.023Z</time></trkpt><trkpt lat="44.1675057" lon="7.9735206"><ele>644.6666666666667</ele><time>2026-04-26T10:52:23.123Z</time></trkpt><trkpt lat="44.1673944" lon="7.9732989"><ele>646.3333333333334</ele><time>2026-04-26T10:52:24.073Z</time></trkpt><trkpt lat="44.1672265" lon="7.9730551"><ele>648.0</ele><time>2026-04-26T10:52:25.244Z</time></trkpt><trkpt lat="44.166888" lon="7.97275"><ele>648.0</ele><time>2026-04-26T10:52:27.165Z</time></trkpt><trkpt lat="44.1667036" lon="7.9726262"><ele>648.0</ele><time>2026-04-26T10:52:28.062Z</time></trkpt><trkpt lat="44.166501" lon="7.9725112"><ele>648.0</ele><time>2026-04-26T10:52:29.09Z</time></trkpt><trkpt lat="44.1662544" lon="7.9724451"><ele>648.5</ele><time>2026-04-26T10:52:30.12Z</time></trkpt><trkpt lat="44.165817" lon="7.9723335"><ele>649.0</ele><time>2026-04-26T10:52:32.066Z</time></trkpt><trkpt lat="44.1655851" lon="7.9722705"><ele>649.0</ele><time>2026-04-26T10:52:33.12Z</time></trkpt><trkpt lat="44.1653904" lon="7.9722209"><ele>649.0</ele><time>2026-04-26T10:52:34.07Z</time></trkpt><trkpt lat="44.1651961" lon="7.9721657"><ele>649.0</ele><time>2026-04-26T10:52:35.051Z</time></trkpt><trkpt lat="44.1649836" lon="7.9721034"><ele>648.3333333333334</ele><time>2026-04-26T10:52:36.116Z</time></trkpt><trkpt lat="44.1648014" lon="7.9720493"><ele>647.6666666666666</ele><time>2026-04-26T10:52:37.049Z</time></trkpt><trkpt lat="44.164611" lon="7.9719952"><ele>647.0</ele><time>2026-04-26T10:52:38.08Z</time></trkpt><trkpt lat="44.1644338" lon="7.9719353"><ele>647.0</ele><time>2026-04-26T10:52:39.054Z</time></trkpt><trkpt lat="44.1642328" lon="7.9718425"><ele>647.0</ele><time>2026-04-26T10:52:40.181Z</time></trkpt><trkpt lat="44.1639208" lon="7.9716264"><ele>648.0</ele><time>2026-04-26T10:52:42.027Z</time></trkpt><trkpt lat="44.1637449" lon="7.9714734"><ele>649.0</ele><time>2026-04-26T10:52:43.078Z</time></trkpt><trkpt lat="44.1635884" lon="7.9713329"><ele>650.0</ele><time>2026-04-26T10:52:44.011Z</time></trkpt><trkpt lat="44.1634347" lon="7.9711997"><ele>650.0</ele><time>2026-04-26T10:52:44.955Z</time></trkpt><trkpt lat="44.163247" lon="7.9710387"><ele>650.0</ele><time>2026-04-26T10:52:46.145Z</time></trkpt><trkpt lat="44.1631066" lon="7.9709186"><ele>650.0</ele><time>2026-04-26T10:52:47.068Z</time></trkpt><trkpt lat="44.162965" lon="7.9707866"><ele>650.3333333333333</ele><time>2026-04-26T10:52:48.041Z</time></trkpt><trkpt lat="44.1628214" lon="7.9706299"><ele>650.6666666666666</ele><time>2026-04-26T10:52:49.064Z</time></trkpt><trkpt lat="44.1626958" lon="7.9704793"><ele>651.0</ele><time>2026-04-26T10:52:50.005Z</time></trkpt><trkpt lat="44.1625713" lon="7.9702919"><ele>651.0</ele><time>2026-04-26T10:52:51.064Z</time></trkpt><trkpt lat="44.1624787" lon="7.9700946"><ele>651.0</ele><time>2026-04-26T10:52:52.002Z</time></trkpt><trkpt lat="44.1623932" lon="7.9698462"><ele>651.0</ele><time>2026-04-26T10:52:53.032Z</time></trkpt><trkpt lat="44.1623147" lon="7.9695922"><ele>650.6666666666666</ele><time>2026-04-26T10:52:54.012Z</time></trkpt><trkpt lat="44.1622274" lon="7.9693354"><ele>650.3333333333333</ele><time>2026-04-26T10:52:55.003Z</time></trkpt><trkpt lat="44.1621438" lon="7.9690961"><ele>650.0</ele><time>2026-04-26T10:52:55.948Z</time></trkpt><trkpt lat="44.1620462" lon="7.9688064"><ele>651.6666666666666</ele><time>2026-04-26T10:52:57.141Z</time></trkpt><trkpt lat="44.1619735" lon="7.9685588"><ele>653.3333333333334</ele><time>2026-04-26T10:52:58.161Z</time></trkpt><trkpt lat="44.1619192" lon="7.9682675"><ele>655.0</ele><time>2026-04-26T10:52:59.312Z</time></trkpt><trkpt lat="44.1618979" lon="7.9679798"><ele>660.0</ele><time>2026-04-26T10:53:00.378Z</time></trkpt><trkpt lat="44.1618449" lon="7.9674536"><ele>665.0</ele><time>2026-04-26T10:53:02.266Z</time></trkpt><trkpt lat="44.1618038" lon="7.9671578"><ele>665.0</ele><time>2026-04-26T10:53:03.314Z</time></trkpt><trkpt lat="44.1617582" lon="7.9668861"><ele>665.0</ele><time>2026-04-26T10:53:04.306Z</time></trkpt><trkpt lat="44.1616314" lon="7.9664186"><ele>667.3333333333333</ele><time>2026-04-26T10:53:06.251Z</time></trkpt><trkpt lat="44.1615492" lon="7.9662553"><ele>669.6666666666666</ele><time>2026-04-26T10:53:07.053Z</time></trkpt><trkpt lat="44.1614174" lon="7.9660767"><ele>672.0</ele><time>2026-04-26T10:53:08.033Z</time></trkpt><trkpt lat="44.1612837" lon="7.9658966"><ele>665.6666666666666</ele><time>2026-04-26T10:53:09.023Z</time></trkpt><trkpt lat="44.1611555" lon="7.9656648"><ele>659.3333333333333</ele><time>2026-04-26T10:53:10.102Z</time></trkpt><trkpt lat="44.1610675" lon="7.9653986"><ele>653.0</ele><time>2026-04-26T10:53:11.133Z</time></trkpt><trkpt lat="44.1609929" lon="7.9651248"><ele>654.6666666666666</ele><time>2026-04-26T10:53:12.082Z</time></trkpt><trkpt lat="44.1609113" lon="7.9648332"><ele>656.3333333333334</ele><time>2026-04-26T10:53:13.096Z</time></trkpt><trkpt lat="44.1608211" lon="7.9645808"><ele>658.0</ele><time>2026-04-26T10:53:14.053Z</time></trkpt><trkpt lat="44.1607188" lon="7.9643299"><ele>663.0</ele><time>2026-04-26T10:53:15.058Z</time></trkpt><trkpt lat="44.1606201" lon="7.9640362"><ele>668.0</ele><time>2026-04-26T10:53:16.152Z</time></trkpt><trkpt lat="44.1605433" lon="7.9637385"><ele>668.0</ele><time>2026-04-26T10:53:17.185Z</time></trkpt><trkpt lat="44.160465" lon="7.9634212"><ele>668.0</ele><time>2026-04-26T10:53:18.278Z</time></trkpt><trkpt lat="44.1603739" lon="7.9628975"><ele>666.5</ele><time>2026-04-26T10:53:20.084Z</time></trkpt><trkpt lat="44.1603442" lon="7.962609"><ele>665.0</ele><time>2026-04-26T10:53:21.099Z</time></trkpt><trkpt lat="44.1603425" lon="7.9620301"><ele>665.0</ele><time>2026-04-26T10:53:22.995Z</time></trkpt><trkpt lat="44.1603694" lon="7.9617224"><ele>665.0</ele><time>2026-04-26T10:53:23.989Z</time></trkpt><trkpt lat="44.160409" lon="7.9613721"><ele>664.0</ele><time>2026-04-26T10:53:25.119Z</time></trkpt><trkpt lat="44.1604581" lon="7.9607952"><ele>663.0</ele><time>2026-04-26T10:53:26.957Z</time></trkpt><trkpt lat="44.1604767" lon="7.9604698"><ele>663.0</ele><time>2026-04-26T10:53:28.009Z</time></trkpt><trkpt lat="44.1604819" lon="7.9601433"><ele>663.0</ele><time>2026-04-26T10:53:29.121Z</time></trkpt><trkpt lat="44.1603947" lon="7.9595672"><ele>663.0</ele><time>2026-04-26T10:53:31.075Z</time></trkpt><trkpt lat="44.1603123" lon="7.9592648"><ele>663.0</ele><time>2026-04-26T10:53:32.095Z</time></trkpt><trkpt lat="44.1602266" lon="7.9589738"><ele>663.0</ele><time>2026-04-26T10:53:33.09Z</time></trkpt><trkpt lat="44.1601347" lon="7.9586932"><ele>663.0</ele><time>2026-04-26T10:53:34.054Z</time></trkpt><trkpt lat="44.1600154" lon="7.9584066"><ele>662.5</ele><time>2026-04-26T10:53:35.107Z</time></trkpt><trkpt lat="44.1598719" lon="7.9581415"><ele>662.0</ele><time>2026-04-26T10:53:36.169Z</time></trkpt><trkpt lat="44.1595743" lon="7.957701"><ele>662.6666666666666</ele><time>2026-04-26T10:53:38.08Z</time></trkpt><trkpt lat="44.1594285" lon="7.9574989"><ele>663.3333333333334</ele><time>2026-04-26T10:53:38.998Z</time></trkpt><trkpt lat="44.1592597" lon="7.9572662"><ele>664.0</ele><time>2026-04-26T10:53:40.078Z</time></trkpt><trkpt lat="44.1591188" lon="7.957076"><ele>664.3333333333334</ele><time>2026-04-26T10:53:41.02Z</time></trkpt><trkpt lat="44.1589772" lon="7.9568827"><ele>664.6666666666666</ele><time>2026-04-26T10:53:42.021Z</time></trkpt><trkpt lat="44.1588261" lon="7.9566754"><ele>665.0</ele><time>2026-04-26T10:53:43.145Z</time></trkpt><trkpt lat="44.1587038" lon="7.9565043"><ele>665.0</ele><time>2026-04-26T10:53:44.09Z</time></trkpt><trkpt lat="44.1584867" lon="7.9560983"><ele>665.0</ele><time>2026-04-26T10:53:46.02Z</time></trkpt><trkpt lat="44.1583999" lon="7.9558326"><ele>668.0</ele><time>2026-04-26T10:53:47.062Z</time></trkpt><trkpt lat="44.1583323" lon="7.9555117"><ele>671.0</ele><time>2026-04-26T10:53:48.208Z</time></trkpt><trkpt lat="44.1583018" lon="7.9549009"><ele>672.0</ele><time>2026-04-26T10:53:50.216Z</time></trkpt><trkpt lat="44.1583075" lon="7.9542823"><ele>673.0</ele><time>2026-04-26T10:53:52.221Z</time></trkpt><trkpt lat="44.1582989" lon="7.9537547"><ele>673.0</ele><time>2026-04-26T10:53:54.051Z</time></trkpt><trkpt lat="44.1582935" lon="7.9534862"><ele>673.0</ele><time>2026-04-26T10:53:55.051Z</time></trkpt><trkpt lat="44.1582879" lon="7.953219"><ele>673.0</ele><time>2026-04-26T10:53:56.085Z</time></trkpt><trkpt lat="44.1582808" lon="7.9529378"><ele>676.0</ele><time>2026-04-26T10:53:57.16Z</time></trkpt><trkpt lat="44.1582688" lon="7.9524144"><ele>679.0</ele><time>2026-04-26T10:53:59.09Z</time></trkpt><trkpt lat="44.1582646" lon="7.9521224"><ele>680.5</ele><time>2026-04-26T10:54:00.15Z</time></trkpt><trkpt lat="44.1582604" lon="7.9515833"><ele>682.0</ele><time>2026-04-26T10:54:02.166Z</time></trkpt><trkpt lat="44.1582755" lon="7.9510621"><ele>684.3333333333334</ele><time>2026-04-26T10:54:04.129Z</time></trkpt><trkpt lat="44.1582967" lon="7.9507988"><ele>686.6666666666666</ele><time>2026-04-26T10:54:05.099Z</time></trkpt><trkpt lat="44.1583135" lon="7.9505332"><ele>689.0</ele><time>2026-04-26T10:54:06.053Z</time></trkpt><trkpt lat="44.1583262" lon="7.9502664"><ele>687.3333333333333</ele><time>2026-04-26T10:54:07.002Z</time></trkpt><trkpt lat="44.1583433" lon="7.9499425"><ele>685.6666666666666</ele><time>2026-04-26T10:54:08.129Z</time></trkpt><trkpt lat="44.1583585" lon="7.9496534"><ele>684.0</ele><time>2026-04-26T10:54:09.11Z</time></trkpt><trkpt lat="44.1583728" lon="7.9493757"><ele>683.6666666666666</ele><time>2026-04-26T10:54:10.066Z</time></trkpt><trkpt lat="44.1583871" lon="7.9490689"><ele>683.3333333333333</ele><time>2026-04-26T10:54:11.113Z</time></trkpt><trkpt lat="44.1583983" lon="7.9487912"><ele>683.0</ele><time>2026-04-26T10:54:12.051Z</time></trkpt><trkpt lat="44.158413" lon="7.9484836"><ele>681.0</ele><time>2026-04-26T10:54:13.092Z</time></trkpt><trkpt lat="44.1584259" lon="7.9481878"><ele>679.0</ele><time>2026-04-26T10:54:14.1Z</time></trkpt><trkpt lat="44.1584333" lon="7.9479044"><ele>677.0</ele><time>2026-04-26T10:54:15.066Z</time></trkpt><trkpt lat="44.1584353" lon="7.9476188"><ele>677.6666666666666</ele><time>2026-04-26T10:54:16.048Z</time></trkpt><trkpt lat="44.158433" lon="7.94734"><ele>678.3333333333334</ele><time>2026-04-26T10:54:16.984Z</time></trkpt><trkpt lat="44.1584236" lon="7.947005"><ele>679.0</ele><time>2026-04-26T10:54:18.104Z</time></trkpt><trkpt lat="44.1584119" lon="7.9467301"><ele>679.3333333333334</ele><time>2026-04-26T10:54:19.045Z</time></trkpt><trkpt lat="44.158396" lon="7.9464416"><ele>679.6666666666666</ele><time>2026-04-26T10:54:20.078Z</time></trkpt><trkpt lat="44.1583796" lon="7.9461745"><ele>680.0</ele><time>2026-04-26T10:54:21.083Z</time></trkpt><trkpt lat="44.1583642" lon="7.9458846"><ele>679.3333333333333</ele><time>2026-04-26T10:54:22.22Z</time></trkpt><trkpt lat="44.1583513" lon="7.9454479"><ele>678.6666666666666</ele><time>2026-04-26T10:54:24.182Z</time></trkpt><trkpt lat="44.1583366" lon="7.9452725"><ele>678.0</ele><time>2026-04-26T10:54:25.085Z</time></trkpt><trkpt lat="44.1582909" lon="7.9450976"><ele>677.0</ele><time>2026-04-26T10:54:26.04Z</time></trkpt><trkpt lat="44.1581953" lon="7.944912"><ele>676.0</ele><time>2026-04-26T10:54:27.104Z</time></trkpt><trkpt lat="44.1580972" lon="7.9447419"><ele>675.0</ele><time>2026-04-26T10:54:28.049Z</time></trkpt><trkpt lat="44.1580074" lon="7.9445362"><ele>675.0</ele><time>2026-04-26T10:54:29.024Z</time></trkpt><trkpt lat="44.1579469" lon="7.9442807"><ele>675.0</ele><time>2026-04-26T10:54:30.066Z</time></trkpt><trkpt lat="44.1579241" lon="7.9440026"><ele>675.0</ele><time>2026-04-26T10:54:31.074Z</time></trkpt><trkpt lat="44.1578989" lon="7.9437008"><ele>674.0</ele><time>2026-04-26T10:54:32.12Z</time></trkpt><trkpt lat="44.1578632" lon="7.9433872"><ele>673.0</ele><time>2026-04-26T10:54:33.197Z</time></trkpt><trkpt lat="44.157791" lon="7.9428229"><ele>674.0</ele><time>2026-04-26T10:54:35.073Z</time></trkpt><trkpt lat="44.1576987" lon="7.9421832"><ele>674.0</ele><time>2026-04-26T10:54:37.004Z</time></trkpt><trkpt lat="44.1576491" lon="7.9418381"><ele>674.0</ele><time>2026-04-26T10:54:38.017Z</time></trkpt><trkpt lat="44.157598" lon="7.9414834"><ele>676.0</ele><time>2026-04-26T10:54:39.052Z</time></trkpt><trkpt lat="44.1575439" lon="7.9411155"><ele>678.0</ele><time>2026-04-26T10:54:40.114Z</time></trkpt><trkpt lat="44.1574448" lon="7.9404511"><ele>678.5</ele><time>2026-04-26T10:54:42.09Z</time></trkpt><trkpt lat="44.1573982" lon="7.9401047"><ele>679.0</ele><time>2026-04-26T10:54:43.105Z</time></trkpt><trkpt lat="44.1573647" lon="7.9397967"><ele>682.0</ele><time>2026-04-26T10:54:44.022Z</time></trkpt><trkpt lat="44.1573254" lon="7.9394552"><ele>685.0</ele><time>2026-04-26T10:54:45.055Z</time></trkpt><trkpt lat="44.1572926" lon="7.9391621"><ele>685.0</ele><time>2026-04-26T10:54:46.008Z</time></trkpt><trkpt lat="44.1572548" lon="7.938876"><ele>685.0</ele><time>2026-04-26T10:54:46.974Z</time></trkpt><trkpt lat="44.1572124" lon="7.9385254"><ele>685.0</ele><time>2026-04-26T10:54:48.118Z</time></trkpt><trkpt lat="44.1571773" lon="7.9382337"><ele>685.0</ele><time>2026-04-26T10:54:49.061Z</time></trkpt><trkpt lat="44.1571391" lon="7.937886"><ele>685.0</ele><time>2026-04-26T10:54:50.184Z</time></trkpt><trkpt lat="44.1571121" lon="7.937581"><ele>685.0</ele><time>2026-04-26T10:54:51.146Z</time></trkpt><trkpt lat="44.1570678" lon="7.9369212"><ele>686.0</ele><time>2026-04-26T10:54:53.163Z</time></trkpt><trkpt lat="44.1570314" lon="7.9363079"><ele>687.0</ele><time>2026-04-26T10:54:55.063Z</time></trkpt><trkpt lat="44.1570105" lon="7.9359982"><ele>686.5</ele><time>2026-04-26T10:54:56.04Z</time></trkpt><trkpt lat="44.1569805" lon="7.935664"><ele>686.0</ele><time>2026-04-26T10:54:57.09Z</time></trkpt><trkpt lat="44.1569415" lon="7.9353676"><ele>685.5</ele><time>2026-04-26T10:54:58.033Z</time></trkpt><trkpt lat="44.1568909" lon="7.9350451"><ele>685.0</ele><time>2026-04-26T10:54:59.08Z</time></trkpt><trkpt lat="44.1568364" lon="7.9347073"><ele>685.0</ele><time>2026-04-26T10:55:00.186Z</time></trkpt><trkpt lat="44.1567932" lon="7.9344373"><ele>685.0</ele><time>2026-04-26T10:55:01.08Z</time></trkpt><trkpt lat="44.1567422" lon="7.9341306"><ele>685.0</ele><time>2026-04-26T10:55:02.104Z</time></trkpt><trkpt lat="44.1566912" lon="7.9338289"><ele>685.6666666666667</ele><time>2026-04-26T10:55:03.101Z</time></trkpt><trkpt lat="44.1566399" lon="7.9335214"><ele>686.3333333333334</ele><time>2026-04-26T10:55:04.106Z</time></trkpt><trkpt lat="44.1565918" lon="7.9332388"><ele>687.0</ele><time>2026-04-26T10:55:05.04Z</time></trkpt><trkpt lat="44.1565364" lon="7.9329086"><ele>687.0</ele><time>2026-04-26T10:55:06.14Z</time></trkpt><trkpt lat="44.1564861" lon="7.932599"><ele>687.0</ele><time>2026-04-26T10:55:07.174Z</time></trkpt><trkpt lat="44.1563854" lon="7.9320121"><ele>687.0</ele><time>2026-04-26T10:55:09.164Z</time></trkpt><trkpt lat="44.1563047" lon="7.9315013"><ele>687.0</ele><time>2026-04-26T10:55:11.098Z</time></trkpt><trkpt lat="44.1562306" lon="7.9310251"><ele>688.0</ele><time>2026-04-26T10:55:13.074Z</time></trkpt><trkpt lat="44.1561516" lon="7.930553"><ele>689.0</ele><time>2026-04-26T10:55:14.98Z</time></trkpt><trkpt lat="44.1561074" lon="7.9302884"><ele>689.3333333333333</ele><time>2026-04-26T10:55:16.04Z</time></trkpt><trkpt lat="44.1560703" lon="7.930057"><ele>689.6666666666666</ele><time>2026-04-26T10:55:16.969Z</time></trkpt><trkpt lat="44.1560252" lon="7.929774"><ele>690.0</ele><time>2026-04-26T10:55:18.062Z</time></trkpt><trkpt lat="44.1559833" lon="7.9295102"><ele>690.0</ele><time>2026-04-26T10:55:19.061Z</time></trkpt><trkpt lat="44.1559324" lon="7.9292113"><ele>690.0</ele><time>2026-04-26T10:55:20.182Z</time></trkpt><trkpt lat="44.1558918" lon="7.9289669"><ele>690.0</ele><time>2026-04-26T10:55:21.087Z</time></trkpt><trkpt lat="44.155841" lon="7.9286599"><ele>692.5</ele><time>2026-04-26T10:55:22.221Z</time></trkpt><trkpt lat="44.1557546" lon="7.9281283"><ele>695.0</ele><time>2026-04-26T10:55:24.119Z</time></trkpt><trkpt lat="44.1556566" lon="7.9275345"><ele>695.0</ele><time>2026-04-26T10:55:26.067Z</time></trkpt><trkpt lat="44.155601" lon="7.9271985"><ele>695.0</ele><time>2026-04-26T10:55:27.18Z</time></trkpt><trkpt lat="44.1555064" lon="7.9266217"><ele>695.5</ele><time>2026-04-26T10:55:29.071Z</time></trkpt><trkpt lat="44.1554566" lon="7.9263143"><ele>696.0</ele><time>2026-04-26T10:55:30.071Z</time></trkpt><trkpt lat="44.1554037" lon="7.9259889"><ele>695.0</ele><time>2026-04-26T10:55:31.135Z</time></trkpt><trkpt lat="44.1553589" lon="7.92571"><ele>694.0</ele><time>2026-04-26T10:55:32.051Z</time></trkpt><trkpt lat="44.1553013" lon="7.9253516"><ele>695.0</ele><time>2026-04-26T10:55:33.235Z</time></trkpt><trkpt lat="44.1552111" lon="7.9247991"><ele>696.0</ele><time>2026-04-26T10:55:35.057Z</time></trkpt><trkpt lat="44.155163" lon="7.9245042"><ele>696.3333333333334</ele><time>2026-04-26T10:55:36.088Z</time></trkpt><trkpt lat="44.1551142" lon="7.9242049"><ele>696.6666666666667</ele><time>2026-04-26T10:55:37.188Z</time></trkpt><trkpt lat="44.155082" lon="7.9240004"><ele>697.0</ele><time>2026-04-26T10:55:37.943Z</time></trkpt><trkpt lat="44.1550381" lon="7.9237224"><ele>697.0</ele><time>2026-04-26T10:55:39.004Z</time></trkpt><trkpt lat="44.1549913" lon="7.9234155"><ele>697.0</ele><time>2026-04-26T10:55:40.177Z</time></trkpt><trkpt lat="44.1549083" lon="7.9229147"><ele>696.5</ele><time>2026-04-26T10:55:42.128Z</time></trkpt><trkpt lat="44.1548649" lon="7.9226493"><ele>696.0</ele><time>2026-04-26T10:55:43.157Z</time></trkpt><trkpt lat="44.1547863" lon="7.9221518"><ele>697.5</ele><time>2026-04-26T10:55:45.129Z</time></trkpt><trkpt lat="44.1547116" lon="7.9216684"><ele>699.0</ele><time>2026-04-26T10:55:47.044Z</time></trkpt><trkpt lat="44.1546763" lon="7.9213934"><ele>698.5</ele><time>2026-04-26T10:55:48.071Z</time></trkpt><trkpt lat="44.1546384" lon="7.9208609"><ele>698.0</ele><time>2026-04-26T10:55:50.015Z</time></trkpt><trkpt lat="44.1546334" lon="7.9206044"><ele>698.0</ele><time>2026-04-26T10:55:50.947Z</time></trkpt><trkpt lat="44.1546338" lon="7.9203178"><ele>698.0</ele><time>2026-04-26T10:55:51.997Z</time></trkpt><trkpt lat="44.1546402" lon="7.9200514"><ele>698.0</ele><time>2026-04-26T10:55:52.995Z</time></trkpt><trkpt lat="44.1546593" lon="7.9197453"><ele>700.5</ele><time>2026-04-26T10:55:54.145Z</time></trkpt><trkpt lat="44.1547092" lon="7.9192559"><ele>703.0</ele><time>2026-04-26T10:55:55.995Z</time></trkpt><trkpt lat="44.1547443" lon="7.9189868"><ele>703.6666666666667</ele><time>2026-04-26T10:55:57.037Z</time></trkpt><trkpt lat="44.1547788" lon="7.91874"><ele>704.3333333333334</ele><time>2026-04-26T10:55:57.983Z</time></trkpt><trkpt lat="44.1548166" lon="7.9184479"><ele>705.0</ele><time>2026-04-26T10:55:59.084Z</time></trkpt><trkpt lat="44.1548499" lon="7.9181873"><ele>707.3333333333334</ele><time>2026-04-26T10:56:00.061Z</time></trkpt><trkpt lat="44.1548823" lon="7.9179373"><ele>709.6666666666667</ele><time>2026-04-26T10:56:01Z</time></trkpt><trkpt lat="44.1549161" lon="7.9176696"><ele>712.0</ele><time>2026-04-26T10:56:02.016Z</time></trkpt><trkpt lat="44.1549488" lon="7.9174159"><ele>712.3333333333334</ele><time>2026-04-26T10:56:03.051Z</time></trkpt><trkpt lat="44.1549784" lon="7.9172066"><ele>712.6666666666666</ele><time>2026-04-26T10:56:03.992Z</time></trkpt><trkpt lat="44.1550114" lon="7.9170214"><ele>713.0</ele><time>2026-04-26T10:56:04.897Z</time></trkpt><trkpt lat="44.1550779" lon="7.9168157"><ele>714.0</ele><time>2026-04-26T10:56:06.066Z</time></trkpt><trkpt lat="44.1551189" lon="7.91664"><ele>715.0</ele><time>2026-04-26T10:56:07.029Z</time></trkpt><trkpt lat="44.1551221" lon="7.9164463"><ele>716.0</ele><time>2026-04-26T10:56:07.967Z</time></trkpt><trkpt lat="44.1550834" lon="7.9162119"><ele>717.0</ele><time>2026-04-26T10:56:08.992Z</time></trkpt><trkpt lat="44.1550271" lon="7.9159676"><ele>717.6666666666666</ele><time>2026-04-26T10:56:10.027Z</time></trkpt><trkpt lat="44.1549614" lon="7.9157164"><ele>718.3333333333333</ele><time>2026-04-26T10:56:11.06Z</time></trkpt><trkpt lat="44.1548948" lon="7.9154676"><ele>719.0</ele><time>2026-04-26T10:56:12.058Z</time></trkpt><trkpt lat="44.1547525" lon="7.9149427"><ele>716.0</ele><time>2026-04-26T10:56:14.137Z</time></trkpt><trkpt lat="44.1546181" lon="7.9144333"><ele>713.0</ele><time>2026-04-26T10:56:16.055Z</time></trkpt><trkpt lat="44.1544679" lon="7.9139155"><ele>713.0</ele><time>2026-04-26T10:56:17.958Z</time></trkpt><trkpt lat="44.1543557" lon="7.9136144"><ele>713.0</ele><time>2026-04-26T10:56:19.131Z</time></trkpt><trkpt lat="44.1541379" lon="7.9131348"><ele>712.3333333333333</ele><time>2026-04-26T10:56:21.106Z</time></trkpt><trkpt lat="44.1540231" lon="7.9129212"><ele>711.6666666666666</ele><time>2026-04-26T10:56:22.054Z</time></trkpt><trkpt lat="44.1538793" lon="7.9127036"><ele>711.0</ele><time>2026-04-26T10:56:23.137Z</time></trkpt><trkpt lat="44.153726" lon="7.9125232"><ele>713.6666666666666</ele><time>2026-04-26T10:56:24.189Z</time></trkpt><trkpt lat="44.1535841" lon="7.9123862"><ele>716.3333333333333</ele><time>2026-04-26T10:56:25.124Z</time></trkpt><trkpt lat="44.1534164" lon="7.9122641"><ele>719.0</ele><time>2026-04-26T10:56:26.142Z</time></trkpt><trkpt lat="44.1532033" lon="7.9121642"><ele>719.0</ele><time>2026-04-26T10:56:27.35Z</time></trkpt><trkpt lat="44.1528342" lon="7.9121339"><ele>719.0</ele><time>2026-04-26T10:56:29.203Z</time></trkpt><trkpt lat="44.1524581" lon="7.9121685"><ele>718.6666666666666</ele><time>2026-04-26T10:56:30.989Z</time></trkpt><trkpt lat="44.1522581" lon="7.9121869"><ele>718.3333333333334</ele><time>2026-04-26T10:56:31.959Z</time></trkpt><trkpt lat="44.1520396" lon="7.9121977"><ele>718.0</ele><time>2026-04-26T10:56:33.103Z</time></trkpt><trkpt lat="44.1516962" lon="7.9121917"><ele>721.6666666666667</ele><time>2026-04-26T10:56:35.095Z</time></trkpt><trkpt lat="44.1515403" lon="7.9121956"><ele>725.3333333333334</ele><time>2026-04-26T10:56:36.014Z</time></trkpt><trkpt lat="44.1513835" lon="7.9122166"><ele>729.0</ele><time>2026-04-26T10:56:37.009Z</time></trkpt><trkpt lat="44.1512364" lon="7.9122693"><ele>729.0</ele><time>2026-04-26T10:56:38.056Z</time></trkpt><trkpt lat="44.151106" lon="7.9123701"><ele>729.0</ele><time>2026-04-26T10:56:39.073Z</time></trkpt><trkpt lat="44.1509928" lon="7.9124975"><ele>729.0</ele><time>2026-04-26T10:56:40.055Z</time></trkpt><trkpt lat="44.1507713" lon="7.9127734"><ele>730.0</ele><time>2026-04-26T10:56:41.987Z</time></trkpt><trkpt lat="44.1506555" lon="7.9129348"><ele>731.0</ele><time>2026-04-26T10:56:43.128Z</time></trkpt><trkpt lat="44.1505621" lon="7.913074"><ele>732.0</ele><time>2026-04-26T10:56:44.107Z</time></trkpt><trkpt lat="44.1504627" lon="7.9132406"><ele>728.6666666666666</ele><time>2026-04-26T10:56:45.191Z</time></trkpt><trkpt lat="44.1503427" lon="7.9135011"><ele>725.3333333333333</ele><time>2026-04-26T10:56:46.894Z</time></trkpt><trkpt lat="44.1502645" lon="7.9136695"><ele>722.0</ele><time>2026-04-26T10:56:48.04Z</time></trkpt><trkpt lat="44.1501618" lon="7.9138099"><ele>722.0</ele><time>2026-04-26T10:56:49.107Z</time></trkpt><trkpt lat="44.1500512" lon="7.9139132"><ele>722.0</ele><time>2026-04-26T10:56:50.029Z</time></trkpt><trkpt lat="44.1499121" lon="7.9140198"><ele>722.0</ele><time>2026-04-26T10:56:51.061Z</time></trkpt><trkpt lat="44.1497782" lon="7.9141058"><ele>722.0</ele><time>2026-04-26T10:56:52.001Z</time></trkpt><trkpt lat="44.1496208" lon="7.9141806"><ele>721.0</ele><time>2026-04-26T10:56:53.046Z</time></trkpt><trkpt lat="44.1494583" lon="7.9142309"><ele>720.0</ele><time>2026-04-26T10:56:54.084Z</time></trkpt><trkpt lat="44.1492975" lon="7.914274"><ele>719.0</ele><time>2026-04-26T10:56:55.085Z</time></trkpt><trkpt lat="44.1491403" lon="7.914317"><ele>719.6666666666666</ele><time>2026-04-26T10:56:56.083Z</time></trkpt><trkpt lat="44.1489764" lon="7.914368"><ele>720.3333333333334</ele><time>2026-04-26T10:56:57.14Z</time></trkpt><trkpt lat="44.1488284" lon="7.914407"><ele>721.0</ele><time>2026-04-26T10:56:58.067Z</time></trkpt><trkpt lat="44.1486582" lon="7.9144404"><ele>721.0</ele><time>2026-04-26T10:56:59.112Z</time></trkpt><trkpt lat="44.1484989" lon="7.9144585"><ele>721.0</ele><time>2026-04-26T10:57:00.088Z</time></trkpt><trkpt lat="44.148324" lon="7.9144701"><ele>721.0</ele><time>2026-04-26T10:57:01.161Z</time></trkpt><trkpt lat="44.1481889" lon="7.9144768"><ele>721.5</ele><time>2026-04-26T10:57:02.047Z</time></trkpt><trkpt lat="44.1480398" lon="7.9144764"><ele>722.0</ele><time>2026-04-26T10:57:03.11Z</time></trkpt><trkpt lat="44.1479021" lon="7.9144593"><ele>722.5</ele><time>2026-04-26T10:57:04.225Z</time></trkpt><trkpt lat="44.1477913" lon="7.9144012"><ele>723.0</ele><time>2026-04-26T10:57:05.225Z</time></trkpt><trkpt lat="44.1477081" lon="7.9143021"><ele>724.0</ele><time>2026-04-26T10:57:06.16Z</time></trkpt><trkpt lat="44.1476472" lon="7.9141595"><ele>725.0</ele><time>2026-04-26T10:57:07.281Z</time></trkpt><trkpt lat="44.147636" lon="7.9138408"><ele>726.0</ele><time>2026-04-26T10:57:09.302Z</time></trkpt><trkpt lat="44.1477308" lon="7.9134618"><ele>728.0</ele><time>2026-04-26T10:57:11.292Z</time></trkpt><trkpt lat="44.1478615" lon="7.9131184"><ele>730.0</ele><time>2026-04-26T10:57:13.198Z</time></trkpt><trkpt lat="44.1479246" lon="7.9129228"><ele>732.0</ele><time>2026-04-26T10:57:14.27Z</time></trkpt><trkpt lat="44.1479637" lon="7.9127376"><ele>732.0</ele><time>2026-04-26T10:57:15.219Z</time></trkpt><trkpt lat="44.147989" lon="7.9125218"><ele>732.0</ele><time>2026-04-26T10:57:16.309Z</time></trkpt><trkpt lat="44.1480183" lon="7.9121291"><ele>732.0</ele><time>2026-04-26T10:57:18.39Z</time></trkpt><trkpt lat="44.1480497" lon="7.9117999"><ele>733.0</ele><time>2026-04-26T10:57:20.309Z</time></trkpt><trkpt lat="44.1480938" lon="7.9114746"><ele>734.0</ele><time>2026-04-26T10:57:22.347Z</time></trkpt><trkpt lat="44.1481579" lon="7.9112197"><ele>735.0</ele><time>2026-04-26T10:57:24.247Z</time></trkpt><trkpt lat="44.1481897" lon="7.911115"><ele>735.2</ele><time>2026-04-26T10:57:25.211Z</time></trkpt><trkpt lat="44.1482256" lon="7.9110043"><ele>735.4</ele><time>2026-04-26T10:57:26.273Z</time></trkpt><trkpt lat="44.1482666" lon="7.9108617"><ele>735.5999999999999</ele><time>2026-04-26T10:57:28.078Z</time></trkpt><trkpt lat="44.1483031" lon="7.9106867"><ele>735.8</ele><time>2026-04-26T10:57:31.271Z</time></trkpt><trkpt lat="44.1483115" lon="7.9105672"><ele>736.0</ele><time>2026-04-26T10:57:35.08Z</time></trkpt><trkpt lat="44.1482003" lon="7.9103337"><ele>736.0</ele><time>2026-04-26T10:57:56.19Z</time></trkpt><trkpt lat="44.1481304" lon="7.910224"><ele>736.0</ele><time>2026-04-26T10:57:57.232Z</time></trkpt><trkpt lat="44.1480028" lon="7.9100185"><ele>736.0</ele><time>2026-04-26T10:57:59.041Z</time></trkpt><trkpt lat="44.1479137" lon="7.9098947"><ele>736.0</ele><time>2026-04-26T10:58:00.172Z</time></trkpt><trkpt lat="44.1478168" lon="7.9098296"><ele>736.25</ele><time>2026-04-26T10:58:01.134Z</time></trkpt><trkpt lat="44.1477141" lon="7.9097871"><ele>736.5</ele><time>2026-04-26T10:58:02.076Z</time></trkpt><trkpt lat="44.1475741" lon="7.9097686"><ele>736.75</ele><time>2026-04-26T10:58:03.108Z</time></trkpt><trkpt lat="44.1474329" lon="7.9097733"><ele>737.0</ele><time>2026-04-26T10:58:04.042Z</time></trkpt><trkpt lat="44.1472755" lon="7.9097852"><ele>737.0</ele><time>2026-04-26T10:58:05.072Z</time></trkpt><trkpt lat="44.1471157" lon="7.9097794"><ele>737.0</ele><time>2026-04-26T10:58:06.116Z</time></trkpt><trkpt lat="44.146971" lon="7.9097589"><ele>737.0</ele><time>2026-04-26T10:58:07.048Z</time></trkpt><trkpt lat="44.1468105" lon="7.9097105"><ele>737.0</ele><time>2026-04-26T10:58:08.114Z</time></trkpt><trkpt lat="44.1466761" lon="7.9096417"><ele>737.0</ele><time>2026-04-26T10:58:09.05Z</time></trkpt><trkpt lat="44.1465385" lon="7.9095361"><ele>737.0</ele><time>2026-04-26T10:58:10.055Z</time></trkpt><trkpt lat="44.1464096" lon="7.9094026"><ele>735.6666666666666</ele><time>2026-04-26T10:58:11.078Z</time></trkpt><trkpt lat="44.1462878" lon="7.9092415"><ele>734.3333333333334</ele><time>2026-04-26T10:58:12.142Z</time></trkpt><trkpt lat="44.1461664" lon="7.9090726"><ele>733.0</ele><time>2026-04-26T10:58:13.239Z</time></trkpt><trkpt lat="44.1460478" lon="7.9088841"><ele>733.0</ele><time>2026-04-26T10:58:14.319Z</time></trkpt><trkpt lat="44.1458386" lon="7.9084792"><ele>733.0</ele><time>2026-04-26T10:58:16.309Z</time></trkpt><trkpt lat="44.145639" lon="7.9080355"><ele>734.0</ele><time>2026-04-26T10:58:18.287Z</time></trkpt><trkpt lat="44.1454518" lon="7.907616"><ele>735.0</ele><time>2026-04-26T10:58:20.22Z</time></trkpt><trkpt lat="44.1453607" lon="7.9074148"><ele>735.0</ele><time>2026-04-26T10:58:21.233Z</time></trkpt><trkpt lat="44.1452814" lon="7.90724"><ele>735.0</ele><time>2026-04-26T10:58:22.161Z</time></trkpt><trkpt lat="44.1451999" lon="7.907063"><ele>735.0</ele><time>2026-04-26T10:58:23.137Z</time></trkpt><trkpt lat="44.1451119" lon="7.9068686"><ele>734.5</ele><time>2026-04-26T10:58:24.277Z</time></trkpt><trkpt lat="44.1450459" lon="7.9067221"><ele>734.0</ele><time>2026-04-26T10:58:25.209Z</time></trkpt><trkpt lat="44.1449662" lon="7.9065532"><ele>733.5</ele><time>2026-04-26T10:58:26.233Z</time></trkpt><trkpt lat="44.1448888" lon="7.9063884"><ele>733.0</ele><time>2026-04-26T10:58:27.197Z</time></trkpt><trkpt lat="44.1448176" lon="7.9062387"><ele>733.0</ele><time>2026-04-26T10:58:28.122Z</time></trkpt><trkpt lat="44.1447279" lon="7.9060573"><ele>733.0</ele><time>2026-04-26T10:58:29.336Z</time></trkpt><trkpt lat="44.1446424" lon="7.9059149"><ele>733.0</ele><time>2026-04-26T10:58:30.327Z</time></trkpt><trkpt lat="44.1444203" lon="7.9056675"><ele>737.5</ele><time>2026-04-26T10:58:32.347Z</time></trkpt><trkpt lat="44.1441992" lon="7.9054279"><ele>742.0</ele><time>2026-04-26T10:58:34.218Z</time></trkpt><trkpt lat="44.144063" lon="7.9052825"><ele>741.6666666666667</ele><time>2026-04-26T10:58:35.38Z</time></trkpt><trkpt lat="44.1439502" lon="7.9051639"><ele>741.3333333333334</ele><time>2026-04-26T10:58:36.371Z</time></trkpt><trkpt lat="44.1437309" lon="7.9049201"><ele>741.0</ele><time>2026-04-26T10:58:38.347Z</time></trkpt><trkpt lat="44.14352" lon="7.9046826"><ele>741.0</ele><time>2026-04-26T10:58:40.31Z</time></trkpt><trkpt lat="44.1433041" lon="7.9044423"><ele>741.0</ele><time>2026-04-26T10:58:42.308Z</time></trkpt><trkpt lat="44.1432012" lon="7.904328"><ele>741.0</ele><time>2026-04-26T10:58:43.28Z</time></trkpt><trkpt lat="44.1430057" lon="7.904115"><ele>741.6666666666666</ele><time>2026-04-26T10:58:45.185Z</time></trkpt><trkpt lat="44.1428851" lon="7.9039907"><ele>742.3333333333333</ele><time>2026-04-26T10:58:46.242Z</time></trkpt><trkpt lat="44.1426927" lon="7.9037723"><ele>743.0</ele><time>2026-04-26T10:58:48.048Z</time></trkpt><trkpt lat="44.1425712" lon="7.9036273"><ele>743.5</ele><time>2026-04-26T10:58:49.241Z</time></trkpt><trkpt lat="44.1423664" lon="7.903392"><ele>744.0</ele><time>2026-04-26T10:58:51.277Z</time></trkpt><trkpt lat="44.1421798" lon="7.9031798"><ele>744.0</ele><time>2026-04-26T10:58:53.121Z</time></trkpt><trkpt lat="44.1420788" lon="7.9030692"><ele>744.0</ele><time>2026-04-26T10:58:54.125Z</time></trkpt><trkpt lat="44.141969" lon="7.9029441"><ele>744.0</ele><time>2026-04-26T10:58:55.213Z</time></trkpt><trkpt lat="44.1418708" lon="7.9028324"><ele>744.0</ele><time>2026-04-26T10:58:56.143Z</time></trkpt><trkpt lat="44.1417698" lon="7.9027199"><ele>744.0</ele><time>2026-04-26T10:58:57.115Z</time></trkpt><trkpt lat="44.1416613" lon="7.9026028"><ele>744.0</ele><time>2026-04-26T10:58:58.178Z</time></trkpt><trkpt lat="44.1415584" lon="7.9024834"><ele>744.0</ele><time>2026-04-26T10:58:59.294Z</time></trkpt><trkpt lat="44.1414675" lon="7.9023835"><ele>744.0</ele><time>2026-04-26T10:59:00.387Z</time></trkpt><trkpt lat="44.1413796" lon="7.9022694"><ele>743.75</ele><time>2026-04-26T10:59:02.228Z</time></trkpt><trkpt lat="44.141447" lon="7.9021315"><ele>743.5</ele><time>2026-04-26T10:59:06.247Z</time></trkpt><trkpt lat="44.1415082" lon="7.9020393"><ele>743.25</ele><time>2026-04-26T10:59:09.144Z</time></trkpt><trkpt lat="44.1416516" lon="7.901915"><ele>743.0</ele><time>2026-04-26T11:00:13.086Z</time></trkpt><trkpt lat="44.141759" lon="7.9018299"><ele>748.3333333333333</ele><time>2026-04-26T11:00:14.339Z</time></trkpt><trkpt lat="44.1419501" lon="7.9016572"><ele>753.6666666666666</ele><time>2026-04-26T11:00:16.153Z</time></trkpt><trkpt lat="44.1420566" lon="7.9015516"><ele>759.0</ele><time>2026-04-26T11:00:17.177Z</time></trkpt><trkpt lat="44.14224" lon="7.9013667"><ele>759.0</ele><time>2026-04-26T11:00:19.146Z</time></trkpt><trkpt lat="44.1423308" lon="7.9012735"><ele>759.0</ele><time>2026-04-26T11:00:20.108Z</time></trkpt><trkpt lat="44.1424057" lon="7.9011797"><ele>759.0</ele><time>2026-04-26T11:00:21.019Z</time></trkpt><trkpt lat="44.1424764" lon="7.9010576"><ele>759.0</ele><time>2026-04-26T11:00:22.136Z</time></trkpt><trkpt lat="44.1425349" lon="7.9009257"><ele>759.0</ele><time>2026-04-26T11:00:23.201Z</time></trkpt><trkpt lat="44.1426358" lon="7.9006734"><ele>760.25</ele><time>2026-04-26T11:00:25.097Z</time></trkpt><trkpt lat="44.1426974" lon="7.9005207"><ele>761.5</ele><time>2026-04-26T11:00:26.061Z</time></trkpt><trkpt lat="44.1427657" lon="7.900349"><ele>762.75</ele><time>2026-04-26T11:00:27.048Z</time></trkpt><trkpt lat="44.1428346" lon="7.9001689"><ele>764.0</ele><time>2026-04-26T11:00:28.042Z</time></trkpt><trkpt lat="44.1428976" lon="7.8999829"><ele>765.0</ele><time>2026-04-26T11:00:29.016Z</time></trkpt><trkpt lat="44.1429727" lon="7.8997409"><ele>766.0</ele><time>2026-04-26T11:00:30.214Z</time></trkpt><trkpt lat="44.1430257" lon="7.8995525"><ele>767.0</ele><time>2026-04-26T11:00:31.129Z</time></trkpt><trkpt lat="44.1430761" lon="7.8993209"><ele>771.5</ele><time>2026-04-26T11:00:32.163Z</time></trkpt><trkpt lat="44.1431066" lon="7.8990827"><ele>776.0</ele><time>2026-04-26T11:00:33.201Z</time></trkpt><trkpt lat="44.1431649" lon="7.8986903"><ele>776.0</ele><time>2026-04-26T11:00:35.039Z</time></trkpt><trkpt lat="44.14319" lon="7.8985015"><ele>776.0</ele><time>2026-04-26T11:00:36.047Z</time></trkpt><trkpt lat="44.1431979" lon="7.8983121"><ele>776.0</ele><time>2026-04-26T11:00:37.174Z</time></trkpt><trkpt lat="44.1431833" lon="7.8981562"><ele>776.0</ele><time>2026-04-26T11:00:38.158Z</time></trkpt><trkpt lat="44.1430815" lon="7.8978684"><ele>778.75</ele><time>2026-04-26T11:00:40.053Z</time></trkpt><trkpt lat="44.1430019" lon="7.8977429"><ele>781.5</ele><time>2026-04-26T11:00:41.056Z</time></trkpt><trkpt lat="44.1428953" lon="7.8976445"><ele>784.25</ele><time>2026-04-26T11:00:42.162Z</time></trkpt><trkpt lat="44.142773" lon="7.8976061"><ele>787.0</ele><time>2026-04-26T11:00:43.246Z</time></trkpt><trkpt lat="44.1425406" lon="7.8976895"><ele>792.6666666666666</ele><time>2026-04-26T11:00:45.17Z</time></trkpt><trkpt lat="44.142285" lon="7.8978904"><ele>798.3333333333333</ele><time>2026-04-26T11:00:47.154Z</time></trkpt><trkpt lat="44.1421577" lon="7.8979904"><ele>804.0</ele><time>2026-04-26T11:00:48.063Z</time></trkpt><trkpt lat="44.1420164" lon="7.8980983"><ele>804.0</ele><time>2026-04-26T11:00:49.038Z</time></trkpt><trkpt lat="44.1418716" lon="7.8982235"><ele>804.0</ele><time>2026-04-26T11:00:50.078Z</time></trkpt><trkpt lat="44.1417534" lon="7.8983568"><ele>804.0</ele><time>2026-04-26T11:00:51.058Z</time></trkpt><trkpt lat="44.1416511" lon="7.8985102"><ele>800.6666666666667</ele><time>2026-04-26T11:00:52.142Z</time></trkpt><trkpt lat="44.141409" lon="7.8987035"><ele>797.3333333333334</ele><time>2026-04-26T11:00:54.379Z</time></trkpt><trkpt lat="44.1412808" lon="7.898734"><ele>794.0</ele><time>2026-04-26T11:00:55.304Z</time></trkpt><trkpt lat="44.1411439" lon="7.8987482"><ele>794.0</ele><time>2026-04-26T11:00:56.226Z</time></trkpt><trkpt lat="44.1408752" lon="7.8987844"><ele>794.0</ele><time>2026-04-26T11:00:58.205Z</time></trkpt><trkpt lat="44.1407645" lon="7.8987668"><ele>794.0</ele><time>2026-04-26T11:00:59.326Z</time></trkpt><trkpt lat="44.1405961" lon="7.8985971"><ele>792.25</ele><time>2026-04-26T11:01:01.321Z</time></trkpt><trkpt lat="44.140492" lon="7.8984512"><ele>790.5</ele><time>2026-04-26T11:01:02.493Z</time></trkpt><trkpt lat="44.1404223" lon="7.8983943"><ele>788.75</ele><time>2026-04-26T11:01:03.117Z</time></trkpt><trkpt lat="44.1402851" lon="7.8983342"><ele>787.0</ele><time>2026-04-26T11:01:04.237Z</time></trkpt><trkpt lat="44.140153" lon="7.8983221"><ele>793.6666666666666</ele><time>2026-04-26T11:01:05.239Z</time></trkpt><trkpt lat="44.1400179" lon="7.8983118"><ele>800.3333333333333</ele><time>2026-04-26T11:01:06.32Z</time></trkpt><trkpt lat="44.1397905" lon="7.8982126"><ele>807.0</ele><time>2026-04-26T11:01:08.35Z</time></trkpt><trkpt lat="44.13966" lon="7.8981454"><ele>807.0</ele><time>2026-04-26T11:01:09.383Z</time></trkpt><trkpt lat="44.1394305" lon="7.8980576"><ele>807.0</ele><time>2026-04-26T11:01:11.397Z</time></trkpt><trkpt lat="44.1392943" lon="7.897939"><ele>807.0</ele><time>2026-04-26T11:01:13.155Z</time></trkpt><trkpt lat="44.1392432" lon="7.897786"><ele>807.0</ele><time>2026-04-26T11:01:14.319Z</time></trkpt><trkpt lat="44.1392254" lon="7.8976297"><ele>807.0</ele><time>2026-04-26T11:01:15.3Z</time></trkpt><trkpt lat="44.1391009" lon="7.8973097"><ele>807.0</ele><time>2026-04-26T11:01:17.349Z</time></trkpt><trkpt lat="44.1389797" lon="7.8971571"><ele>810.5</ele><time>2026-04-26T11:01:19.239Z</time></trkpt><trkpt lat="44.1389659" lon="7.8970644"><ele>814.0</ele><time>2026-04-26T11:01:20.405Z</time></trkpt><trkpt lat="44.1390698" lon="7.8969574"><ele>817.5</ele><time>2026-04-26T11:01:22.372Z</time></trkpt><trkpt lat="44.1392435" lon="7.8970682"><ele>821.0</ele><time>2026-04-26T11:01:24.373Z</time></trkpt><trkpt lat="44.1393546" lon="7.8971667"><ele>821.0</ele><time>2026-04-26T11:01:25.456Z</time></trkpt><trkpt lat="44.1394574" lon="7.8972532"><ele>821.0</ele><time>2026-04-26T11:01:26.41Z</time></trkpt><trkpt lat="44.1397113" lon="7.8973399"><ele>821.0</ele><time>2026-04-26T11:01:28.526Z</time></trkpt><trkpt lat="44.1399365" lon="7.8972263"><ele>824.3333333333334</ele><time>2026-04-26T11:01:30.237Z</time></trkpt><trkpt lat="44.1401488" lon="7.8970966"><ele>827.6666666666667</ele><time>2026-04-26T11:01:32.108Z</time></trkpt><trkpt lat="44.1402762" lon="7.8970992"><ele>831.0</ele><time>2026-04-26T11:01:33.164Z</time></trkpt><trkpt lat="44.1405122" lon="7.8972318"><ele>831.0</ele><time>2026-04-26T11:01:35.073Z</time></trkpt><trkpt lat="44.1406726" lon="7.897255"><ele>831.0</ele><time>2026-04-26T11:01:36.177Z</time></trkpt><trkpt lat="44.1408068" lon="7.8972496"><ele>831.0</ele><time>2026-04-26T11:01:37.135Z</time></trkpt><trkpt lat="44.1409454" lon="7.8972099"><ele>831.0</ele><time>2026-04-26T11:01:38.324Z</time></trkpt><trkpt lat="44.1410433" lon="7.8971461"><ele>834.6666666666667</ele><time>2026-04-26T11:01:39.255Z</time></trkpt><trkpt lat="44.1411389" lon="7.897038"><ele>838.3333333333334</ele><time>2026-04-26T11:01:40.278Z</time></trkpt><trkpt lat="44.1412462" lon="7.8968986"><ele>842.0</ele><time>2026-04-26T11:01:41.45Z</time></trkpt><trkpt lat="44.1414377" lon="7.8966534"><ele>844.5</ele><time>2026-04-26T11:01:43.241Z</time></trkpt><trkpt lat="44.141543" lon="7.8965123"><ele>847.0</ele><time>2026-04-26T11:01:44.199Z</time></trkpt><trkpt lat="44.1416368" lon="7.8963618"><ele>849.5</ele><time>2026-04-26T11:01:45.173Z</time></trkpt><trkpt lat="44.1417227" lon="7.8962085"><ele>852.0</ele><time>2026-04-26T11:01:46.317Z</time></trkpt><trkpt lat="44.1417916" lon="7.8960135"><ele>852.0</ele><time>2026-04-26T11:01:48.331Z</time></trkpt><trkpt lat="44.1417734" lon="7.8959213"><ele>852.0</ele><time>2026-04-26T11:01:49.507Z</time></trkpt><trkpt lat="44.141721" lon="7.8958673"><ele>852.0</ele><time>2026-04-26T11:01:50.416Z</time></trkpt><trkpt lat="44.1416289" lon="7.8958641"><ele>852.0</ele><time>2026-04-26T11:01:52.519Z</time></trkpt><trkpt lat="44.1414586" lon="7.8960926"><ele>856.3333333333333</ele><time>2026-04-26T11:01:54.34Z</time></trkpt><trkpt lat="44.1412887" lon="7.8963163"><ele>860.6666666666666</ele><time>2026-04-26T11:01:56.308Z</time></trkpt><trkpt lat="44.1411712" lon="7.896384"><ele>865.0</ele><time>2026-04-26T11:01:57.354Z</time></trkpt><trkpt lat="44.1409577" lon="7.8963616"><ele>865.0</ele><time>2026-04-26T11:01:59.437Z</time></trkpt><trkpt lat="44.1408083" lon="7.89619"><ele>865.0</ele><time>2026-04-26T11:02:01.331Z</time></trkpt><trkpt lat="44.1407497" lon="7.8960582"><ele>865.0</ele><time>2026-04-26T11:02:02.242Z</time></trkpt><trkpt lat="44.1406936" lon="7.8958901"><ele>865.0</ele><time>2026-04-26T11:02:03.305Z</time></trkpt><trkpt lat="44.1406417" lon="7.8957322"><ele>868.75</ele><time>2026-04-26T11:02:04.242Z</time></trkpt><trkpt lat="44.1405955" lon="7.8955936"><ele>872.5</ele><time>2026-04-26T11:02:05.142Z</time></trkpt><trkpt lat="44.140545" lon="7.895452"><ele>876.25</ele><time>2026-04-26T11:02:06.225Z</time></trkpt><trkpt lat="44.1404669" lon="7.8952954"><ele>880.0</ele><time>2026-04-26T11:02:07.47Z</time></trkpt><trkpt lat="44.1403114" lon="7.8951881"><ele>880.0</ele><time>2026-04-26T11:02:09.144Z</time></trkpt><trkpt lat="44.1402016" lon="7.8951584"><ele>880.0</ele><time>2026-04-26T11:02:10.145Z</time></trkpt><trkpt lat="44.1401236" lon="7.8951136"><ele>880.0</ele><time>2026-04-26T11:02:11.175Z</time></trkpt><trkpt lat="44.1400464" lon="7.8949981"><ele>880.0</ele><time>2026-04-26T11:02:13.141Z</time></trkpt><trkpt lat="44.1400154" lon="7.8949063"><ele>880.0</ele><time>2026-04-26T11:02:14.229Z</time></trkpt><trkpt lat="44.1401075" lon="7.8948259"><ele>883.6666666666666</ele><time>2026-04-26T11:02:15.962Z</time></trkpt><trkpt lat="44.1402409" lon="7.894718"><ele>887.3333333333333</ele><time>2026-04-26T11:02:18.013Z</time></trkpt><trkpt lat="44.1404748" lon="7.8946321"><ele>891.0</ele><time>2026-04-26T11:02:19.914Z</time></trkpt><trkpt lat="44.1406252" lon="7.8946189"><ele>892.3333333333333</ele><time>2026-04-26T11:02:20.925Z</time></trkpt><trkpt lat="44.1407789" lon="7.8945982"><ele>893.6666666666666</ele><time>2026-04-26T11:02:21.924Z</time></trkpt><trkpt lat="44.1409558" lon="7.8945537"><ele>895.0</ele><time>2026-04-26T11:02:23.045Z</time></trkpt><trkpt lat="44.1411207" lon="7.8944893"><ele>895.0</ele><time>2026-04-26T11:02:24.049Z</time></trkpt><trkpt lat="44.1412589" lon="7.8944064"><ele>895.0</ele><time>2026-04-26T11:02:25.105Z</time></trkpt><trkpt lat="44.1413695" lon="7.8943216"><ele>895.0</ele><time>2026-04-26T11:02:26.096Z</time></trkpt><trkpt lat="44.1414595" lon="7.8942129"><ele>895.0</ele><time>2026-04-26T11:02:27.052Z</time></trkpt><trkpt lat="44.1415466" lon="7.894119"><ele>899.6666666666666</ele><time>2026-04-26T11:02:28.062Z</time></trkpt><trkpt lat="44.1417397" lon="7.8938977"><ele>904.3333333333333</ele><time>2026-04-26T11:02:30.156Z</time></trkpt><trkpt lat="44.1417931" lon="7.8937854"><ele>909.0</ele><time>2026-04-26T11:02:31.214Z</time></trkpt><trkpt lat="44.1418654" lon="7.8936565"><ele>909.0</ele><time>2026-04-26T11:02:32.153Z</time></trkpt><trkpt lat="44.1419336" lon="7.8934743"><ele>909.0</ele><time>2026-04-26T11:02:33.12Z</time></trkpt><trkpt lat="44.1419623" lon="7.8932856"><ele>909.0</ele><time>2026-04-26T11:02:34.269Z</time></trkpt><trkpt lat="44.1418444" lon="7.8928865"><ele>913.0</ele><time>2026-04-26T11:02:36.146Z</time></trkpt><trkpt lat="44.1417817" lon="7.8926307"><ele>917.0</ele><time>2026-04-26T11:02:37.223Z</time></trkpt><trkpt lat="44.1417299" lon="7.8924124"><ele>921.0</ele><time>2026-04-26T11:02:38.423Z</time></trkpt><trkpt lat="44.1416426" lon="7.8922025"><ele>921.6666666666667</ele><time>2026-04-26T11:02:40.106Z</time></trkpt><trkpt lat="44.1415917" lon="7.8921452"><ele>922.3333333333334</ele><time>2026-04-26T11:02:41.114Z</time></trkpt><trkpt lat="44.1414205" lon="7.8921503"><ele>923.0</ele><time>2026-04-26T11:02:43.357Z</time></trkpt><trkpt lat="44.1411888" lon="7.8921015"><ele>924.0</ele><time>2026-04-26T11:02:45.36Z</time></trkpt><trkpt lat="44.1411488" lon="7.8922952"><ele>925.0</ele><time>2026-04-26T11:02:47.341Z</time></trkpt><trkpt lat="44.1411492" lon="7.89252"><ele>926.0</ele><time>2026-04-26T11:02:48.351Z</time></trkpt><trkpt lat="44.1410592" lon="7.8926933"><ele>930.0</ele><time>2026-04-26T11:02:50.326Z</time></trkpt><trkpt lat="44.1409458" lon="7.8925769"><ele>934.0</ele><time>2026-04-26T11:02:52.221Z</time></trkpt><trkpt lat="44.1408874" lon="7.8924259"><ele>938.0</ele><time>2026-04-26T11:02:53.299Z</time></trkpt><trkpt lat="44.1407868" lon="7.8921934"><ele>941.5</ele><time>2026-04-26T11:02:55.222Z</time></trkpt><trkpt lat="44.1406845" lon="7.891953"><ele>945.0</ele><time>2026-04-26T11:02:56.441Z</time></trkpt><trkpt lat="44.1405869" lon="7.891629"><ele>949.75</ele><time>2026-04-26T11:02:58.073Z</time></trkpt><trkpt lat="44.140544" lon="7.8914363"><ele>954.5</ele><time>2026-04-26T11:02:59.184Z</time></trkpt><trkpt lat="44.1405113" lon="7.891291"><ele>959.25</ele><time>2026-04-26T11:03:00.25Z</time></trkpt><trkpt lat="44.1404183" lon="7.8911299"><ele>964.0</ele><time>2026-04-26T11:03:02.125Z</time></trkpt><trkpt lat="44.1403309" lon="7.8911173"><ele>964.0</ele><time>2026-04-26T11:03:03.14Z</time></trkpt><trkpt lat="44.1402495" lon="7.8911761"><ele>964.0</ele><time>2026-04-26T11:03:04.097Z</time></trkpt><trkpt lat="44.1401664" lon="7.8912985"><ele>964.0</ele><time>2026-04-26T11:03:05.105Z</time></trkpt><trkpt lat="44.1400759" lon="7.8914605"><ele>964.0</ele><time>2026-04-26T11:03:06.115Z</time></trkpt><trkpt lat="44.1399655" lon="7.8916316"><ele>965.3333333333333</ele><time>2026-04-26T11:03:07.109Z</time></trkpt><trkpt lat="44.1398252" lon="7.8917794"><ele>966.6666666666667</ele><time>2026-04-26T11:03:08.085Z</time></trkpt><trkpt lat="44.1396521" lon="7.8919423"><ele>968.0</ele><time>2026-04-26T11:03:09.154Z</time></trkpt><trkpt lat="44.1393745" lon="7.8922451"><ele>968.0</ele><time>2026-04-26T11:03:11.167Z</time></trkpt><trkpt lat="44.1392628" lon="7.8923735"><ele>968.0</ele><time>2026-04-26T11:03:12.338Z</time></trkpt><trkpt lat="44.1390761" lon="7.8924227"><ele>968.0</ele><time>2026-04-26T11:03:14.115Z</time></trkpt><trkpt lat="44.1389192" lon="7.892395"><ele>968.3333333333334</ele><time>2026-04-26T11:03:15.23Z</time></trkpt><trkpt lat="44.1387752" lon="7.8923528"><ele>968.6666666666667</ele><time>2026-04-26T11:03:16.131Z</time></trkpt><trkpt lat="44.138618" lon="7.8922726"><ele>969.0</ele><time>2026-04-26T11:03:17.204Z</time></trkpt><trkpt lat="44.1384832" lon="7.8921451"><ele>969.0</ele><time>2026-04-26T11:03:18.273Z</time></trkpt><trkpt lat="44.1382842" lon="7.8918259"><ele>969.0</ele><time>2026-04-26T11:03:20.174Z</time></trkpt><trkpt lat="44.1381784" lon="7.8916481"><ele>975.3333333333333</ele><time>2026-04-26T11:03:21.177Z</time></trkpt><trkpt lat="44.1380761" lon="7.8915001"><ele>981.6666666666666</ele><time>2026-04-26T11:03:22.168Z</time></trkpt><trkpt lat="44.1379439" lon="7.8913607"><ele>988.0</ele><time>2026-04-26T11:03:23.316Z</time></trkpt><trkpt lat="44.1376652" lon="7.8912117"><ele>988.5</ele><time>2026-04-26T11:03:25.294Z</time></trkpt><trkpt lat="44.137351" lon="7.8912351"><ele>989.0</ele><time>2026-04-26T11:03:27.355Z</time></trkpt><trkpt lat="44.1371034" lon="7.8912983"><ele>989.0</ele><time>2026-04-26T11:03:29.313Z</time></trkpt><trkpt lat="44.1369222" lon="7.891168"><ele>989.0</ele><time>2026-04-26T11:03:31.341Z</time></trkpt><trkpt lat="44.1367186" lon="7.8908481"><ele>995.6666666666667</ele><time>2026-04-26T11:03:33.402Z</time></trkpt><trkpt lat="44.1364201" lon="7.8907491"><ele>1002.3333333333333</ele><time>2026-04-26T11:03:35.388Z</time></trkpt><trkpt lat="44.1363239" lon="7.8906661"><ele>1009.0</ele><time>2026-04-26T11:03:36.075Z</time></trkpt><trkpt lat="44.1361623" lon="7.8905304"><ele>1009.0</ele><time>2026-04-26T11:03:37.199Z</time></trkpt><trkpt lat="44.1360242" lon="7.8904795"><ele>1009.0</ele><time>2026-04-26T11:03:38.228Z</time></trkpt><trkpt lat="44.1358864" lon="7.8904775"><ele>1009.0</ele><time>2026-04-26T11:03:39.222Z</time></trkpt><trkpt lat="44.1356584" lon="7.8905527"><ele>1009.0</ele><time>2026-04-26T11:03:41.333Z</time></trkpt><trkpt lat="44.1355383" lon="7.8904453"><ele>1009.0</ele><time>2026-04-26T11:03:43.382Z</time></trkpt><trkpt lat="44.1355967" lon="7.8903166"><ele>1009.0</ele><time>2026-04-26T11:03:45.332Z</time></trkpt><trkpt lat="44.1357594" lon="7.8901696"><ele>1009.0</ele><time>2026-04-26T11:03:47.548Z</time></trkpt><trkpt lat="44.1359375" lon="7.8899472"><ele>1017.3333333333333</ele><time>2026-04-26T11:03:49.349Z</time></trkpt><trkpt lat="44.1361479" lon="7.8898519"><ele>1025.6666666666667</ele><time>2026-04-26T11:03:51.173Z</time></trkpt><trkpt lat="44.1362958" lon="7.8898606"><ele>1034.0</ele><time>2026-04-26T11:03:52.255Z</time></trkpt><trkpt lat="44.1366425" lon="7.8899933"><ele>1027.3333333333335</ele><time>2026-04-26T11:03:54.394Z</time></trkpt><trkpt lat="44.136899" lon="7.8901849"><ele>1020.6666666666667</ele><time>2026-04-26T11:03:56.184Z</time></trkpt><trkpt lat="44.1370235" lon="7.8902981"><ele>1014.0</ele><time>2026-04-26T11:03:57.305Z</time></trkpt><trkpt lat="44.1371953" lon="7.8903488"><ele>1014.0</ele><time>2026-04-26T11:03:59.16Z</time></trkpt><trkpt lat="44.1373209" lon="7.890284"><ele>1014.0</ele><time>2026-04-26T11:04:00.291Z</time></trkpt><trkpt lat="44.1374305" lon="7.8902283"><ele>1014.0</ele><time>2026-04-26T11:04:01.222Z</time></trkpt><trkpt lat="44.1375463" lon="7.8902132"><ele>1014.0</ele><time>2026-04-26T11:04:02.339Z</time></trkpt><trkpt lat="44.1377298" lon="7.8901836"><ele>1021.0</ele><time>2026-04-26T11:04:04.291Z</time></trkpt><trkpt lat="44.137885" lon="7.8900553"><ele>1028.0</ele><time>2026-04-26T11:04:06.261Z</time></trkpt><trkpt lat="44.137959" lon="7.8899541"><ele>1035.0</ele><time>2026-04-26T11:04:07.222Z</time></trkpt><trkpt lat="44.1380274" lon="7.8898447"><ele>1042.0</ele><time>2026-04-26T11:04:08.183Z</time></trkpt><trkpt lat="44.1380864" lon="7.8897429"><ele>1042.0</ele><time>2026-04-26T11:04:09.098Z</time></trkpt><trkpt lat="44.1381427" lon="7.8896363"><ele>1042.0</ele><time>2026-04-26T11:04:10.059Z</time></trkpt><trkpt lat="44.1381728" lon="7.8895289"><ele>1042.0</ele><time>2026-04-26T11:04:11.181Z</time></trkpt><trkpt lat="44.1381211" lon="7.8894073"><ele>1042.0</ele><time>2026-04-26T11:04:13.063Z</time></trkpt><trkpt lat="44.1380227" lon="7.889387"><ele>1042.0</ele><time>2026-04-26T11:04:14.179Z</time></trkpt><trkpt lat="44.1377925" lon="7.8894215"><ele>1042.0</ele><time>2026-04-26T11:04:16.023Z</time></trkpt><trkpt lat="44.1376427" lon="7.8894209"><ele>1042.0</ele><time>2026-04-26T11:04:17.038Z</time></trkpt><trkpt lat="44.1374786" lon="7.8894288"><ele>1042.0</ele><time>2026-04-26T11:04:18.07Z</time></trkpt><trkpt lat="44.1373184" lon="7.8894465"><ele>1041.3333333333333</ele><time>2026-04-26T11:04:19.039Z</time></trkpt><trkpt lat="44.1371553" lon="7.8894646"><ele>1040.6666666666667</ele><time>2026-04-26T11:04:20.059Z</time></trkpt><trkpt lat="44.137003" lon="7.8894562"><ele>1040.0</ele><time>2026-04-26T11:04:21.077Z</time></trkpt><trkpt lat="44.1368377" lon="7.8894086"><ele>1040.0</ele><time>2026-04-26T11:04:22.182Z</time></trkpt><trkpt lat="44.1366924" lon="7.8893285"><ele>1040.0</ele><time>2026-04-26T11:04:23.114Z</time></trkpt><trkpt lat="44.1365167" lon="7.8892289"><ele>1040.0</ele><time>2026-04-26T11:04:24.206Z</time></trkpt><trkpt lat="44.1363697" lon="7.8891434"><ele>1047.3333333333335</ele><time>2026-04-26T11:04:25.136Z</time></trkpt><trkpt lat="44.1362126" lon="7.8890441"><ele>1054.6666666666667</ele><time>2026-04-26T11:04:26.184Z</time></trkpt><trkpt lat="44.1360634" lon="7.888924"><ele>1062.0</ele><time>2026-04-26T11:04:27.243Z</time></trkpt><trkpt lat="44.1359323" lon="7.8887937"><ele>1062.0</ele><time>2026-04-26T11:04:28.195Z</time></trkpt><trkpt lat="44.1358021" lon="7.8886495"><ele>1062.0</ele><time>2026-04-26T11:04:29.14Z</time></trkpt><trkpt lat="44.1356624" lon="7.8884688"><ele>1062.0</ele><time>2026-04-26T11:04:30.224Z</time></trkpt><trkpt lat="44.1355456" lon="7.888289"><ele>1068.5</ele><time>2026-04-26T11:04:31.279Z</time></trkpt><trkpt lat="44.1353442" lon="7.8880448"><ele>1075.0</ele><time>2026-04-26T11:04:33.169Z</time></trkpt><trkpt lat="44.1350747" lon="7.8879267"><ele>1075.0</ele><time>2026-04-26T11:04:35.102Z</time></trkpt><trkpt lat="44.1349105" lon="7.8879033"><ele>1075.0</ele><time>2026-04-26T11:04:36.086Z</time></trkpt><trkpt lat="44.1346991" lon="7.8878948"><ele>1075.0</ele><time>2026-04-26T11:04:37.381Z</time></trkpt><trkpt lat="44.1344808" lon="7.8878086"><ele>1077.25</ele><time>2026-04-26T11:04:39.191Z</time></trkpt><trkpt lat="44.1343945" lon="7.8877374"><ele>1079.5</ele><time>2026-04-26T11:04:40.193Z</time></trkpt><trkpt lat="44.1343499" lon="7.8876569"><ele>1081.75</ele><time>2026-04-26T11:04:41.291Z</time></trkpt><trkpt lat="44.1343754" lon="7.8874911"><ele>1084.0</ele><time>2026-04-26T11:04:43.255Z</time></trkpt><trkpt lat="44.1345626" lon="7.8873884"><ele>1084.0</ele><time>2026-04-26T11:04:45.194Z</time></trkpt><trkpt lat="44.1347084" lon="7.8873511"><ele>1084.0</ele><time>2026-04-26T11:04:46.456Z</time></trkpt><trkpt lat="44.1349557" lon="7.8873358"><ele>1084.0</ele><time>2026-04-26T11:04:48.238Z</time></trkpt><trkpt lat="44.1350838" lon="7.8873907"><ele>1086.2</ele><time>2026-04-26T11:04:49.257Z</time></trkpt><trkpt lat="44.1351841" lon="7.8874604"><ele>1088.4</ele><time>2026-04-26T11:04:50.253Z</time></trkpt><trkpt lat="44.1352578" lon="7.8875179"><ele>1090.6</ele><time>2026-04-26T11:04:51.199Z</time></trkpt><trkpt lat="44.1353181" lon="7.8875438"><ele>1092.8</ele><time>2026-04-26T11:04:52.142Z</time></trkpt><trkpt lat="44.1353883" lon="7.8875186"><ele>1095.0</ele><time>2026-04-26T11:04:53.311Z</time></trkpt><trkpt lat="44.1354196" lon="7.8873468"><ele>1095.0</ele><time>2026-04-26T11:04:55.301Z</time></trkpt><trkpt lat="44.135364" lon="7.887261"><ele>1095.0</ele><time>2026-04-26T11:04:56.36Z</time></trkpt><trkpt lat="44.1351907" lon="7.8871095"><ele>1095.0</ele><time>2026-04-26T11:04:58.14Z</time></trkpt><trkpt lat="44.1351107" lon="7.8869941"><ele>1095.0</ele><time>2026-04-26T11:04:59.116Z</time></trkpt><trkpt lat="44.1350333" lon="7.8868499"><ele>1100.0</ele><time>2026-04-26T11:05:00.127Z</time></trkpt><trkpt lat="44.1349435" lon="7.8867163"><ele>1105.0</ele><time>2026-04-26T11:05:01.24Z</time></trkpt><trkpt lat="44.1348599" lon="7.8866288"><ele>1110.0</ele><time>2026-04-26T11:05:02.285Z</time></trkpt><trkpt lat="44.1346634" lon="7.8865779"><ele>1115.0</ele><time>2026-04-26T11:05:04.118Z</time></trkpt><trkpt lat="44.1345394" lon="7.8865965"><ele>1115.0</ele><time>2026-04-26T11:05:05.02Z</time></trkpt><trkpt lat="44.134373" lon="7.8866047"><ele>1115.0</ele><time>2026-04-26T11:05:06.14Z</time></trkpt><trkpt lat="44.1340766" lon="7.8866081"><ele>1115.6666666666667</ele><time>2026-04-26T11:05:08.025Z</time></trkpt><trkpt lat="44.1338938" lon="7.8865969"><ele>1116.3333333333333</ele><time>2026-04-26T11:05:09.161Z</time></trkpt><trkpt lat="44.1337372" lon="7.8865698"><ele>1117.0</ele><time>2026-04-26T11:05:10.109Z</time></trkpt><trkpt lat="44.1335687" lon="7.8865307"><ele>1117.0</ele><time>2026-04-26T11:05:11.188Z</time></trkpt><trkpt lat="44.1334285" lon="7.8864863"><ele>1117.0</ele><time>2026-04-26T11:05:12.153Z</time></trkpt><trkpt lat="44.1332868" lon="7.8864598"><ele>1117.0</ele><time>2026-04-26T11:05:13.189Z</time></trkpt><trkpt lat="44.1331177" lon="7.8864665"><ele>1125.0</ele><time>2026-04-26T11:05:14.353Z</time></trkpt><trkpt lat="44.1327982" lon="7.8864933"><ele>1133.0</ele><time>2026-04-26T11:05:16.308Z</time></trkpt><trkpt lat="44.1325229" lon="7.8865775"><ele>1133.0</ele><time>2026-04-26T11:05:18.149Z</time></trkpt><trkpt lat="44.1323905" lon="7.8866296"><ele>1133.0</ele><time>2026-04-26T11:05:19.166Z</time></trkpt><trkpt lat="44.1322605" lon="7.8866484"><ele>1133.0</ele><time>2026-04-26T11:05:20.115Z</time></trkpt><trkpt lat="44.132124" lon="7.8866403"><ele>1133.0</ele><time>2026-04-26T11:05:21.141Z</time></trkpt><trkpt lat="44.1320007" lon="7.8866535"><ele>1126.0</ele><time>2026-04-26T11:05:22.147Z</time></trkpt><trkpt lat="44.1318707" lon="7.8866999"><ele>1119.0</ele><time>2026-04-26T11:05:23.323Z</time></trkpt><trkpt lat="44.1316281" lon="7.8869813"><ele>1136.5</ele><time>2026-04-26T11:05:25.278Z</time></trkpt><trkpt lat="44.1314885" lon="7.8871249"><ele>1154.0</ele><time>2026-04-26T11:05:26.247Z</time></trkpt><trkpt lat="44.1311893" lon="7.8873653"><ele>1135.0</ele><time>2026-04-26T11:05:28.354Z</time></trkpt><trkpt lat="44.1309412" lon="7.8875944"><ele>1116.0</ele><time>2026-04-26T11:05:30.191Z</time></trkpt><trkpt lat="44.1307827" lon="7.887717"><ele>1118.75</ele><time>2026-04-26T11:05:31.277Z</time></trkpt><trkpt lat="44.130575" lon="7.8878757"><ele>1121.5</ele><time>2026-04-26T11:05:33.18Z</time></trkpt><trkpt lat="44.1304977" lon="7.8879393"><ele>1124.25</ele><time>2026-04-26T11:05:34.11Z</time></trkpt><trkpt lat="44.1304297" lon="7.8879696"><ele>1127.0</ele><time>2026-04-26T11:05:35.124Z</time></trkpt><trkpt lat="44.1302188" lon="7.8877019"><ele>1137.0</ele><time>2026-04-26T11:05:38.102Z</time></trkpt><trkpt lat="44.1301155" lon="7.8875587"><ele>1147.0</ele><time>2026-04-26T11:05:39.302Z</time></trkpt><trkpt lat="44.1299311" lon="7.887417"><ele>1157.0</ele><time>2026-04-26T11:05:41.181Z</time></trkpt><trkpt lat="44.1297841" lon="7.8874041"><ele>1157.0</ele><time>2026-04-26T11:05:42.193Z</time></trkpt><trkpt lat="44.1296906" lon="7.887431"><ele>1157.0</ele><time>2026-04-26T11:05:43.133Z</time></trkpt><trkpt lat="44.1296009" lon="7.8874143"><ele>1157.0</ele><time>2026-04-26T11:05:44.155Z</time></trkpt><trkpt lat="44.1294835" lon="7.8873552"><ele>1157.0</ele><time>2026-04-26T11:05:45.343Z</time></trkpt><trkpt lat="44.1291865" lon="7.8871496"><ele>1157.0</ele><time>2026-04-26T11:05:48.124Z</time></trkpt><trkpt lat="44.1290638" lon="7.8871225"><ele>1157.0</ele><time>2026-04-26T11:05:49.283Z</time></trkpt><trkpt lat="44.1289615" lon="7.8869331"><ele>1157.0</ele><time>2026-04-26T11:05:51.126Z</time></trkpt><trkpt lat="44.1289146" lon="7.8868119"><ele>1157.0</ele><time>2026-04-26T11:05:52.157Z</time></trkpt><trkpt lat="44.1288478" lon="7.8867116"><ele>1163.6666666666667</ele><time>2026-04-26T11:05:53.165Z</time></trkpt><trkpt lat="44.1287178" lon="7.886676"><ele>1170.3333333333333</ele><time>2026-04-26T11:05:54.168Z</time></trkpt><trkpt lat="44.1284639" lon="7.8867153"><ele>1177.0</ele><time>2026-04-26T11:05:56.196Z</time></trkpt><trkpt lat="44.128381" lon="7.8867165"><ele>1177.0</ele><time>2026-04-26T11:05:57.184Z</time></trkpt><trkpt lat="44.1283063" lon="7.8866615"><ele>1177.0</ele><time>2026-04-26T11:05:58.314Z</time></trkpt><trkpt lat="44.1282465" lon="7.8863883"><ele>1177.0</ele><time>2026-04-26T11:06:00.181Z</time></trkpt><trkpt lat="44.1281924" lon="7.8861868"><ele>1177.0</ele><time>2026-04-26T11:06:01.247Z</time></trkpt><trkpt lat="44.1280617" lon="7.8858655"><ele>1170.0</ele><time>2026-04-26T11:06:03.253Z</time></trkpt><trkpt lat="44.127828" lon="7.8856312"><ele>1163.0</ele><time>2026-04-26T11:06:05.283Z</time></trkpt><trkpt lat="44.1276075" lon="7.8855504"><ele>1163.0</ele><time>2026-04-26T11:06:07.248Z</time></trkpt><trkpt lat="44.127504" lon="7.8853466"><ele>1163.0</ele><time>2026-04-26T11:06:09.239Z</time></trkpt><trkpt lat="44.1274366" lon="7.8849593"><ele>1145.0</ele><time>2026-04-26T11:06:11.135Z</time></trkpt><trkpt lat="44.1273848" lon="7.8847335"><ele>1127.0</ele><time>2026-04-26T11:06:12.113Z</time></trkpt><trkpt lat="44.1273577" lon="7.8845129"><ele>1109.0</ele><time>2026-04-26T11:06:13.066Z</time></trkpt><trkpt lat="44.1273597" lon="7.8842642"><ele>1143.0</ele><time>2026-04-26T11:06:14.179Z</time></trkpt><trkpt lat="44.1274305" lon="7.883887"><ele>1177.0</ele><time>2026-04-26T11:06:16.02Z</time></trkpt><trkpt lat="44.12751" lon="7.8836891"><ele>1211.0</ele><time>2026-04-26T11:06:17.084Z</time></trkpt><trkpt lat="44.1276159" lon="7.8835109"><ele>1208.3333333333335</ele><time>2026-04-26T11:06:18.128Z</time></trkpt><trkpt lat="44.1277208" lon="7.883341"><ele>1205.6666666666667</ele><time>2026-04-26T11:06:19.084Z</time></trkpt><trkpt lat="44.1278159" lon="7.8831478"><ele>1203.0</ele><time>2026-04-26T11:06:20.037Z</time></trkpt><trkpt lat="44.1278918" lon="7.882957"><ele>1203.0</ele><time>2026-04-26T11:06:21.028Z</time></trkpt><trkpt lat="44.1279525" lon="7.8827879"><ele>1203.0</ele><time>2026-04-26T11:06:22.069Z</time></trkpt><trkpt lat="44.1279961" lon="7.8826459"><ele>1203.0</ele><time>2026-04-26T11:06:23.101Z</time></trkpt><trkpt lat="44.1280396" lon="7.8825403"><ele>1203.0</ele><time>2026-04-26T11:06:24.105Z</time></trkpt><trkpt lat="44.1280915" lon="7.8824802"><ele>1203.0</ele><time>2026-04-26T11:06:25.09Z</time></trkpt><trkpt lat="44.1281845" lon="7.8825519"><ele>1203.0</ele><time>2026-04-26T11:06:26.98Z</time></trkpt><trkpt lat="44.1281932" lon="7.8826768"><ele>1203.0</ele><time>2026-04-26T11:06:28.098Z</time></trkpt><trkpt lat="44.1281713" lon="7.8828334"><ele>1203.0</ele><time>2026-04-26T11:06:29.085Z</time></trkpt><trkpt lat="44.1281491" lon="7.8830129"><ele>1203.0</ele><time>2026-04-26T11:06:29.996Z</time></trkpt><trkpt lat="44.1281281" lon="7.8832309"><ele>1205.0</ele><time>2026-04-26T11:06:31.054Z</time></trkpt><trkpt lat="44.1281028" lon="7.8834442"><ele>1207.0</ele><time>2026-04-26T11:06:32.063Z</time></trkpt><trkpt lat="44.1280791" lon="7.8836269"><ele>1209.0</ele><time>2026-04-26T11:06:33.057Z</time></trkpt><trkpt lat="44.1280583" lon="7.8837621"><ele>1211.0</ele><time>2026-04-26T11:06:34.038Z</time></trkpt><trkpt lat="44.1280562" lon="7.8838621"><ele>1211.0</ele><time>2026-04-26T11:06:35.185Z</time></trkpt><trkpt lat="44.1281456" lon="7.8838977"><ele>1211.0</ele><time>2026-04-26T11:06:37.182Z</time></trkpt><trkpt lat="44.1282035" lon="7.8838313"><ele>1211.0</ele><time>2026-04-26T11:06:38.145Z</time></trkpt><trkpt lat="44.1282596" lon="7.883684"><ele>1211.0</ele><time>2026-04-26T11:06:39.231Z</time></trkpt><trkpt lat="44.1283765" lon="7.8833516"><ele>1221.6666666666667</ele><time>2026-04-26T11:06:41.187Z</time></trkpt><trkpt lat="44.1284471" lon="7.8831532"><ele>1232.3333333333333</ele><time>2026-04-26T11:06:42.22Z</time></trkpt><trkpt lat="44.1285098" lon="7.8829849"><ele>1243.0</ele><time>2026-04-26T11:06:43.124Z</time></trkpt><trkpt lat="44.1285877" lon="7.8827908"><ele>1243.0</ele><time>2026-04-26T11:06:44.147Z</time></trkpt><trkpt lat="44.1286959" lon="7.8826065"><ele>1243.0</ele><time>2026-04-26T11:06:45.19Z</time></trkpt><trkpt lat="44.1288265" lon="7.8824349"><ele>1243.0</ele><time>2026-04-26T11:06:46.284Z</time></trkpt><trkpt lat="44.1290221" lon="7.8820697"><ele>1256.0</ele><time>2026-04-26T11:06:48.364Z</time></trkpt><trkpt lat="44.1291118" lon="7.8817041"><ele>1269.0</ele><time>2026-04-26T11:06:50.014Z</time></trkpt><trkpt lat="44.1291471" lon="7.8814228"><ele>1269.0</ele><time>2026-04-26T11:06:51.103Z</time></trkpt><trkpt lat="44.1291833" lon="7.881173"><ele>1269.0</ele><time>2026-04-26T11:06:52.072Z</time></trkpt><trkpt lat="44.1292356" lon="7.8809255"><ele>1269.0</ele><time>2026-04-26T11:06:53.122Z</time></trkpt><trkpt lat="44.1292927" lon="7.8807019"><ele>1267.6666666666667</ele><time>2026-04-26T11:06:54.218Z</time></trkpt><trkpt lat="44.1292918" lon="7.8803934"><ele>1266.3333333333335</ele><time>2026-04-26T11:06:56.087Z</time></trkpt><trkpt lat="44.1292252" lon="7.8801776"><ele>1265.0</ele><time>2026-04-26T11:06:57.274Z</time></trkpt><trkpt lat="44.1291626" lon="7.879835"><ele>1270.0</ele><time>2026-04-26T11:06:59.071Z</time></trkpt><trkpt lat="44.129181" lon="7.8795541"><ele>1275.0</ele><time>2026-04-26T11:07:00.317Z</time></trkpt><trkpt lat="44.1292683" lon="7.8791372"><ele>1276.6666666666667</ele><time>2026-04-26T11:07:02.282Z</time></trkpt><trkpt lat="44.1292654" lon="7.8789388"><ele>1278.3333333333335</ele><time>2026-04-26T11:07:03.22Z</time></trkpt><trkpt lat="44.1292345" lon="7.8787221"><ele>1280.0</ele><time>2026-04-26T11:07:04.27Z</time></trkpt><trkpt lat="44.1291314" lon="7.8783504"><ele>1276.25</ele><time>2026-04-26T11:07:06.077Z</time></trkpt><trkpt lat="44.1290988" lon="7.8781349"><ele>1272.5</ele><time>2026-04-26T11:07:07.111Z</time></trkpt><trkpt lat="44.1290611" lon="7.8779357"><ele>1268.75</ele><time>2026-04-26T11:07:08.109Z</time></trkpt><trkpt lat="44.1289983" lon="7.8777627"><ele>1265.0</ele><time>2026-04-26T11:07:09.03Z</time></trkpt><trkpt lat="44.1289295" lon="7.877547"><ele>1265.0</ele><time>2026-04-26T11:07:10.175Z</time></trkpt><trkpt lat="44.1288849" lon="7.8771281"><ele>1265.0</ele><time>2026-04-26T11:07:12.035Z</time></trkpt><trkpt lat="44.1289053" lon="7.8768815"><ele>1265.0</ele><time>2026-04-26T11:07:13.111Z</time></trkpt><trkpt lat="44.128955" lon="7.8766722"><ele>1265.0</ele><time>2026-04-26T11:07:14.066Z</time></trkpt><trkpt lat="44.1290322" lon="7.8764675"><ele>1265.0</ele><time>2026-04-26T11:07:15.029Z</time></trkpt><trkpt lat="44.1291178" lon="7.8762406"><ele>1279.3333333333335</ele><time>2026-04-26T11:07:16.094Z</time></trkpt><trkpt lat="44.1291859" lon="7.8760296"><ele>1293.6666666666667</ele><time>2026-04-26T11:07:17.159Z</time></trkpt><trkpt lat="44.1292527" lon="7.875653"><ele>1308.0</ele><time>2026-04-26T11:07:19.139Z</time></trkpt><trkpt lat="44.129251" lon="7.8754861"><ele>1308.0</ele><time>2026-04-26T11:07:20.113Z</time></trkpt><trkpt lat="44.1292202" lon="7.8753257"><ele>1308.0</ele><time>2026-04-26T11:07:21.098Z</time></trkpt><trkpt lat="44.129196" lon="7.8751692"><ele>1308.0</ele><time>2026-04-26T11:07:22.006Z</time></trkpt><trkpt lat="44.1291768" lon="7.8749623"><ele>1308.0</ele><time>2026-04-26T11:07:23.149Z</time></trkpt><trkpt lat="44.1292116" lon="7.8745761"><ele>1310.0</ele><time>2026-04-26T11:07:25.046Z</time></trkpt><trkpt lat="44.129207" lon="7.8743299"><ele>1312.0</ele><time>2026-04-26T11:07:26.193Z</time></trkpt><trkpt lat="44.1291928" lon="7.8741262"><ele>1314.0</ele><time>2026-04-26T11:07:27.155Z</time></trkpt><trkpt lat="44.1291937" lon="7.873938"><ele>1315.25</ele><time>2026-04-26T11:07:28.157Z</time></trkpt><trkpt lat="44.1292061" lon="7.873774"><ele>1316.5</ele><time>2026-04-26T11:07:29.145Z</time></trkpt><trkpt lat="44.1291541" lon="7.873489"><ele>1317.75</ele><time>2026-04-26T11:07:31.127Z</time></trkpt><trkpt lat="44.1290818" lon="7.8733717"><ele>1319.0</ele><time>2026-04-26T11:07:32.049Z</time></trkpt><trkpt lat="44.1289614" lon="7.8732216"><ele>1319.0</ele><time>2026-04-26T11:07:33.178Z</time></trkpt><trkpt lat="44.1287176" lon="7.8729879"><ele>1319.0</ele><time>2026-04-26T11:07:35.141Z</time></trkpt><trkpt lat="44.128598" lon="7.8728706"><ele>1319.0</ele><time>2026-04-26T11:07:36.196Z</time></trkpt><trkpt lat="44.128512" lon="7.8727265"><ele>1322.0</ele><time>2026-04-26T11:07:37.233Z</time></trkpt><trkpt lat="44.1284577" lon="7.8723907"><ele>1325.0</ele><time>2026-04-26T11:07:39.173Z</time></trkpt><trkpt lat="44.128449" lon="7.8722241"><ele>1328.0</ele><time>2026-04-26T11:07:40.082Z</time></trkpt><trkpt lat="44.1284741" lon="7.8720219"><ele>1328.0</ele><time>2026-04-26T11:07:41.313Z</time></trkpt><trkpt lat="44.1285685" lon="7.8718207"><ele>1328.0</ele><time>2026-04-26T11:07:43.208Z</time></trkpt><trkpt lat="44.1285936" lon="7.8717326"><ele>1328.0</ele><time>2026-04-26T11:07:44.257Z</time></trkpt><trkpt lat="44.1287407" lon="7.8716278"><ele>1328.0</ele><time>2026-04-26T11:07:46.079Z</time></trkpt><trkpt lat="44.1288778" lon="7.871608"><ele>1326.0</ele><time>2026-04-26T11:07:47.101Z</time></trkpt><trkpt lat="44.1289489" lon="7.8715605"><ele>1324.0</ele><time>2026-04-26T11:07:47.853Z</time></trkpt><trkpt lat="44.1290661" lon="7.8714448"><ele>1322.0</ele><time>2026-04-26T11:07:49.152Z</time></trkpt><trkpt lat="44.1292071" lon="7.871263"><ele>1320.0</ele><time>2026-04-26T11:07:51.017Z</time></trkpt><trkpt lat="44.1292721" lon="7.8711422"><ele>1319.3333333333333</ele><time>2026-04-26T11:07:52.014Z</time></trkpt><trkpt lat="44.1293312" lon="7.8710199"><ele>1318.6666666666665</ele><time>2026-04-26T11:07:53.039Z</time></trkpt><trkpt lat="44.1294148" lon="7.8708551"><ele>1318.0</ele><time>2026-04-26T11:07:54.189Z</time></trkpt><trkpt lat="44.129457" lon="7.8705223"><ele>1318.0</ele><time>2026-04-26T11:07:56.103Z</time></trkpt><trkpt lat="44.1295026" lon="7.8703849"><ele>1318.0</ele><time>2026-04-26T11:07:57.122Z</time></trkpt><trkpt lat="44.1296088" lon="7.8701884"><ele>1318.0</ele><time>2026-04-26T11:07:59.021Z</time></trkpt><trkpt lat="44.1297366" lon="7.8700931"><ele>1318.0</ele><time>2026-04-26T11:08:00.047Z</time></trkpt><trkpt lat="44.1298479" lon="7.8699708"><ele>1322.8000000000002</ele><time>2026-04-26T11:08:01.07Z</time></trkpt><trkpt lat="44.129948" lon="7.8698594"><ele>1327.6</ele><time>2026-04-26T11:08:02.097Z</time></trkpt><trkpt lat="44.1300235" lon="7.8697551"><ele>1332.4</ele><time>2026-04-26T11:08:03.039Z</time></trkpt><trkpt lat="44.1300812" lon="7.8696367"><ele>1337.1999999999998</ele><time>2026-04-26T11:08:03.978Z</time></trkpt><trkpt lat="44.1301138" lon="7.8695118"><ele>1342.0</ele><time>2026-04-26T11:08:04.971Z</time></trkpt><trkpt lat="44.1301366" lon="7.8693939"><ele>1342.0</ele><time>2026-04-26T11:08:06.042Z</time></trkpt><trkpt lat="44.1301306" lon="7.8693024"><ele>1342.0</ele><time>2026-04-26T11:08:07.002Z</time></trkpt><trkpt lat="44.1301031" lon="7.8691799"><ele>1342.0</ele><time>2026-04-26T11:08:08.034Z</time></trkpt><trkpt lat="44.1299592" lon="7.8690519"><ele>1342.0</ele><time>2026-04-26T11:08:08.974Z</time></trkpt><trkpt lat="44.1297976" lon="7.868955"><ele>1328.3333333333333</ele><time>2026-04-26T11:08:10.019Z</time></trkpt><trkpt lat="44.1296466" lon="7.8688455"><ele>1314.6666666666667</ele><time>2026-04-26T11:08:11.055Z</time></trkpt><trkpt lat="44.1294755" lon="7.8687148"><ele>1301.0</ele><time>2026-04-26T11:08:12.28Z</time></trkpt><trkpt lat="44.1292686" lon="7.8685248"><ele>1295.5</ele><time>2026-04-26T11:08:14.138Z</time></trkpt><trkpt lat="44.1291815" lon="7.868399"><ele>1290.0</ele><time>2026-04-26T11:08:15.236Z</time></trkpt><trkpt lat="44.1291244" lon="7.8682648"><ele>1284.5</ele><time>2026-04-26T11:08:16.166Z</time></trkpt><trkpt lat="44.1290876" lon="7.8681151"><ele>1279.0</ele><time>2026-04-26T11:08:17.066Z</time></trkpt><trkpt lat="44.1290537" lon="7.8679109"><ele>1286.5</ele><time>2026-04-26T11:08:18.183Z</time></trkpt><trkpt lat="44.1290209" lon="7.8675234"><ele>1294.0</ele><time>2026-04-26T11:08:20.229Z</time></trkpt><trkpt lat="44.1289648" lon="7.8671725"><ele>1294.0</ele><time>2026-04-26T11:08:22.064Z</time></trkpt><trkpt lat="44.1289212" lon="7.8669943"><ele>1294.0</ele><time>2026-04-26T11:08:23.09Z</time></trkpt><trkpt lat="44.1288926" lon="7.8668308"><ele>1294.0</ele><time>2026-04-26T11:08:24.161Z</time></trkpt><trkpt lat="44.1288881" lon="7.8665147"><ele>1297.25</ele><time>2026-04-26T11:08:26.095Z</time></trkpt><trkpt lat="44.1288692" lon="7.8663314"><ele>1300.5</ele><time>2026-04-26T11:08:27.088Z</time></trkpt><trkpt lat="44.1288214" lon="7.8661645"><ele>1303.75</ele><time>2026-04-26T11:08:28.003Z</time></trkpt><trkpt lat="44.1287599" lon="7.8659775"><ele>1307.0</ele><time>2026-04-26T11:08:29.068Z</time></trkpt><trkpt lat="44.128723" lon="7.8658241"><ele>1313.1999999999998</ele><time>2026-04-26T11:08:30.05Z</time></trkpt><trkpt lat="44.1286776" lon="7.8657057"><ele>1319.4</ele><time>2026-04-26T11:08:31.057Z</time></trkpt><trkpt lat="44.1286071" lon="7.8656294"><ele>1325.6</ele><time>2026-04-26T11:08:32.104Z</time></trkpt><trkpt lat="44.1285182" lon="7.8655994"><ele>1331.8000000000002</ele><time>2026-04-26T11:08:33.064Z</time></trkpt><trkpt lat="44.1284048" lon="7.8655784"><ele>1338.0</ele><time>2026-04-26T11:08:34.067Z</time></trkpt><trkpt lat="44.1282854" lon="7.865535"><ele>1336.0</ele><time>2026-04-26T11:08:35.052Z</time></trkpt><trkpt lat="44.128187" lon="7.8654458"><ele>1334.0</ele><time>2026-04-26T11:08:36.044Z</time></trkpt><trkpt lat="44.1281194" lon="7.8653066"><ele>1332.0</ele><time>2026-04-26T11:08:37.079Z</time></trkpt><trkpt lat="44.128075" lon="7.8651708"><ele>1330.0</ele><time>2026-04-26T11:08:37.98Z</time></trkpt><trkpt lat="44.1280315" lon="7.8650004"><ele>1330.0</ele><time>2026-04-26T11:08:39.028Z</time></trkpt><trkpt lat="44.1280007" lon="7.8648123"><ele>1330.0</ele><time>2026-04-26T11:08:40.081Z</time></trkpt><trkpt lat="44.1279707" lon="7.8646014"><ele>1330.0</ele><time>2026-04-26T11:08:41.175Z</time></trkpt><trkpt lat="44.1279443" lon="7.8644269"><ele>1330.0</ele><time>2026-04-26T11:08:42.078Z</time></trkpt><trkpt lat="44.1279128" lon="7.8642444"><ele>1330.75</ele><time>2026-04-26T11:08:43.09Z</time></trkpt><trkpt lat="44.127886" lon="7.8640904"><ele>1331.5</ele><time>2026-04-26T11:08:44.022Z</time></trkpt><trkpt lat="44.1278461" lon="7.8639168"><ele>1332.25</ele><time>2026-04-26T11:08:45.171Z</time></trkpt><trkpt lat="44.1278058" lon="7.8637771"><ele>1333.0</ele><time>2026-04-26T11:08:46.197Z</time></trkpt><trkpt lat="44.1277072" lon="7.8635568"><ele>1333.0</ele><time>2026-04-26T11:08:48.375Z</time></trkpt><trkpt lat="44.12766" lon="7.8634543"><ele>1333.0</ele><time>2026-04-26T11:08:50.001Z</time></trkpt><trkpt lat="44.1276023" lon="7.8633122"><ele>1333.0</ele><time>2026-04-26T11:08:53.004Z</time></trkpt><trkpt lat="44.127555" lon="7.8631906"><ele>1333.0</ele><time>2026-04-26T11:08:55.064Z</time></trkpt><trkpt lat="44.1275155" lon="7.8630512"><ele>1333.0</ele><time>2026-04-26T11:08:57.024Z</time></trkpt><trkpt lat="44.1275154" lon="7.8629518"><ele>1333.2</ele><time>2026-04-26T11:08:58.05Z</time></trkpt><trkpt lat="44.1275218" lon="7.862837"><ele>1333.4</ele><time>2026-04-26T11:08:59.041Z</time></trkpt><trkpt lat="44.1275268" lon="7.8626872"><ele>1333.6000000000001</ele><time>2026-04-26T11:09:00.261Z</time></trkpt><trkpt lat="44.12752" lon="7.8624743"><ele>1333.8000000000002</ele><time>2026-04-26T11:09:02.157Z</time></trkpt><trkpt lat="44.1275164" lon="7.8623854"><ele>1334.0</ele><time>2026-04-26T11:09:03.126Z</time></trkpt><trkpt lat="44.1276004" lon="7.8622066"><ele>1334.0</ele><time>2026-04-26T11:09:06.036Z</time></trkpt><trkpt lat="44.127659" lon="7.862116"><ele>1334.0</ele><time>2026-04-26T11:09:07.286Z</time></trkpt><trkpt lat="44.1277214" lon="7.8619633"><ele>1334.0</ele><time>2026-04-26T11:09:09.106Z</time></trkpt><trkpt lat="44.1277439" lon="7.8618803"><ele>1334.0</ele><time>2026-04-26T11:09:10.148Z</time></trkpt><trkpt lat="44.127771" lon="7.8617376"><ele>1334.0</ele><time>2026-04-26T11:09:12.115Z</time></trkpt><trkpt lat="44.1277931" lon="7.8616244"><ele>1332.4</ele><time>2026-04-26T11:09:14.217Z</time></trkpt><trkpt lat="44.1278217" lon="7.8614843"><ele>1330.8000000000002</ele><time>2026-04-26T11:09:16.079Z</time></trkpt><trkpt lat="44.1278373" lon="7.861389"><ele>1329.1999999999998</ele><time>2026-04-26T11:09:17.086Z</time></trkpt><trkpt lat="44.1278518" lon="7.8612933"><ele>1327.6</ele><time>2026-04-26T11:09:18.08Z</time></trkpt><trkpt lat="44.1278653" lon="7.8611149"><ele>1326.0</ele><time>2026-04-26T11:09:21.016Z</time></trkpt><trkpt lat="44.1278584" lon="7.8610059"><ele>1324.8</ele><time>2026-04-26T11:09:23.096Z</time></trkpt><trkpt lat="44.1278307" lon="7.8608651"><ele>1323.6</ele><time>2026-04-26T11:09:25.001Z</time></trkpt><trkpt lat="44.1277527" lon="7.8607271"><ele>1322.4</ele><time>2026-04-26T11:09:26.978Z</time></trkpt><trkpt lat="44.1277033" lon="7.8606701"><ele>1321.2</ele><time>2026-04-26T11:09:28.008Z</time></trkpt><trkpt lat="44.1276345" lon="7.8605892"><ele>1320.0</ele><time>2026-04-26T11:09:30.15Z</time></trkpt><trkpt lat="44.1276031" lon="7.8604714"><ele>1320.0000000000002</ele><time>2026-04-26T11:09:32.033Z</time></trkpt><trkpt lat="44.127596" lon="7.8603592"><ele>1320.0</ele><time>2026-04-26T11:09:33.144Z</time></trkpt><trkpt lat="44.1276004" lon="7.8602614"><ele>1320.0</ele><time>2026-04-26T11:09:34.095Z</time></trkpt><trkpt lat="44.1276101" lon="7.8601471"><ele>1320.0</ele><time>2026-04-26T11:09:35.182Z</time></trkpt><trkpt lat="44.1276174" lon="7.8600582"><ele>1320.0</ele><time>2026-04-26T11:09:36.135Z</time></trkpt><trkpt lat="44.1276196" lon="7.8599604"><ele>1320.0000000000002</ele><time>2026-04-26T11:09:37.35Z</time></trkpt><trkpt lat="44.1275887" lon="7.8598575"><ele>1320.0</ele><time>2026-04-26T11:09:39.074Z</time></trkpt><trkpt lat="44.1275021" lon="7.8598786"><ele>1320.0</ele><time>2026-04-26T11:09:41.304Z</time></trkpt><trkpt lat="44.1274859" lon="7.8600409"><ele>1320.0</ele><time>2026-04-26T11:09:43.244Z</time></trkpt><trkpt lat="44.1274516" lon="7.8602675"><ele>1320.0</ele><time>2026-04-26T11:09:45.149Z</time></trkpt><trkpt lat="44.1274301" lon="7.8603787"><ele>1320.0</ele><time>2026-04-26T11:09:46.199Z</time></trkpt><trkpt lat="44.1274077" lon="7.8605001"><ele>1304.6666666666667</ele><time>2026-04-26T11:09:47.299Z</time></trkpt><trkpt lat="44.1273662" lon="7.8607339"><ele>1289.3333333333335</ele><time>2026-04-26T11:09:49.204Z</time></trkpt><trkpt lat="44.127342" lon="7.8608848"><ele>1274.0</ele><time>2026-04-26T11:09:50.376Z</time></trkpt><trkpt lat="44.127307" lon="7.8611339"><ele>1274.0</ele><time>2026-04-26T11:09:52.263Z</time></trkpt><trkpt lat="44.1272552" lon="7.8613856"><ele>1274.0</ele><time>2026-04-26T11:09:54.199Z</time></trkpt><trkpt lat="44.1272234" lon="7.8615188"><ele>1274.0</ele><time>2026-04-26T11:09:55.182Z</time></trkpt><trkpt lat="44.1271855" lon="7.8616671"><ele>1274.0</ele><time>2026-04-26T11:09:56.277Z</time></trkpt><trkpt lat="44.1271572" lon="7.861808"><ele>1277.3333333333335</ele><time>2026-04-26T11:09:57.313Z</time></trkpt><trkpt lat="44.1270889" lon="7.8620963"><ele>1280.6666666666667</ele><time>2026-04-26T11:09:59.223Z</time></trkpt><trkpt lat="44.127053" lon="7.8622474"><ele>1284.0</ele><time>2026-04-26T11:10:00.161Z</time></trkpt><trkpt lat="44.1270155" lon="7.8624083"><ele>1284.0</ele><time>2026-04-26T11:10:01.261Z</time></trkpt><trkpt lat="44.1269737" lon="7.8625564"><ele>1284.0</ele><time>2026-04-26T11:10:02.177Z</time></trkpt><trkpt lat="44.126923" lon="7.8627339"><ele>1284.0</ele><time>2026-04-26T11:10:03.319Z</time></trkpt><trkpt lat="44.1268383" lon="7.8630378"><ele>1285.75</ele><time>2026-04-26T11:10:05.278Z</time></trkpt><trkpt lat="44.1267662" lon="7.8633187"><ele>1287.5</ele><time>2026-04-26T11:10:07.088Z</time></trkpt><trkpt lat="44.1267103" lon="7.8634913"><ele>1289.25</ele><time>2026-04-26T11:10:08.224Z</time></trkpt><trkpt lat="44.1266644" lon="7.8636125"><ele>1291.0</ele><time>2026-04-26T11:10:09.173Z</time></trkpt><trkpt lat="44.1266302" lon="7.8637365"><ele>1291.0</ele><time>2026-04-26T11:10:10.182Z</time></trkpt><trkpt lat="44.1266035" lon="7.8638818"><ele>1291.0</ele><time>2026-04-26T11:10:11.176Z</time></trkpt><trkpt lat="44.1265774" lon="7.8640475"><ele>1291.0</ele><time>2026-04-26T11:10:12.174Z</time></trkpt><trkpt lat="44.1265542" lon="7.8642292"><ele>1291.0</ele><time>2026-04-26T11:10:13.142Z</time></trkpt><trkpt lat="44.1265246" lon="7.8644219"><ele>1278.5</ele><time>2026-04-26T11:10:14.317Z</time></trkpt><trkpt lat="44.1265059" lon="7.8645598"><ele>1266.0</ele><time>2026-04-26T11:10:15.217Z</time></trkpt><trkpt lat="44.1264878" lon="7.8647276"><ele>1253.5</ele><time>2026-04-26T11:10:16.201Z</time></trkpt><trkpt lat="44.1264731" lon="7.8648826"><ele>1241.0</ele><time>2026-04-26T11:10:17.122Z</time></trkpt><trkpt lat="44.1264556" lon="7.8650597"><ele>1239.3333333333335</ele><time>2026-04-26T11:10:18.259Z</time></trkpt><trkpt lat="44.1264278" lon="7.8653714"><ele>1237.6666666666667</ele><time>2026-04-26T11:10:20.249Z</time></trkpt><trkpt lat="44.1264058" lon="7.8656119"><ele>1236.0</ele><time>2026-04-26T11:10:22.366Z</time></trkpt><trkpt lat="44.1264291" lon="7.8657901"><ele>1236.0</ele><time>2026-04-26T11:10:24.295Z</time></trkpt><trkpt lat="44.1264096" lon="7.8658924"><ele>1236.0</ele><time>2026-04-26T11:10:26.189Z</time></trkpt><trkpt lat="44.1263197" lon="7.8658392"><ele>1236.0</ele><time>2026-04-26T11:10:28.207Z</time></trkpt><trkpt lat="44.1262608" lon="7.8657354"><ele>1236.0</ele><time>2026-04-26T11:10:29.183Z</time></trkpt><trkpt lat="44.1261847" lon="7.8655771"><ele>1236.0</ele><time>2026-04-26T11:10:30.192Z</time></trkpt><trkpt lat="44.1261468" lon="7.8653655"><ele>1237.6666666666667</ele><time>2026-04-26T11:10:31.22Z</time></trkpt><trkpt lat="44.1261369" lon="7.8649716"><ele>1239.3333333333335</ele><time>2026-04-26T11:10:33.137Z</time></trkpt><trkpt lat="44.1261016" lon="7.8647654"><ele>1241.0</ele><time>2026-04-26T11:10:34.246Z</time></trkpt><trkpt lat="44.1260563" lon="7.8645967"><ele>1241.0</ele><time>2026-04-26T11:10:35.209Z</time></trkpt><trkpt lat="44.1260093" lon="7.8644242"><ele>1241.0</ele><time>2026-04-26T11:10:36.245Z</time></trkpt><trkpt lat="44.1259668" lon="7.8641101"><ele>1241.0</ele><time>2026-04-26T11:10:38.182Z</time></trkpt><trkpt lat="44.1259639" lon="7.8639462"><ele>1240.5</ele><time>2026-04-26T11:10:39.205Z</time></trkpt><trkpt lat="44.1259745" lon="7.8637783"><ele>1240.0</ele><time>2026-04-26T11:10:40.17Z</time></trkpt><trkpt lat="44.1259776" lon="7.8636025"><ele>1239.5</ele><time>2026-04-26T11:10:41.171Z</time></trkpt><trkpt lat="44.1259797" lon="7.8634127"><ele>1239.0</ele><time>2026-04-26T11:10:42.215Z</time></trkpt><trkpt lat="44.1259821" lon="7.8632656"><ele>1239.0</ele><time>2026-04-26T11:10:43.12Z</time></trkpt><trkpt lat="44.1259885" lon="7.8630731"><ele>1239.0</ele><time>2026-04-26T11:10:44.306Z</time></trkpt><trkpt lat="44.1260297" lon="7.8627578"><ele>1239.0</ele><time>2026-04-26T11:10:46.349Z</time></trkpt><trkpt lat="44.1260667" lon="7.862459"><ele>1237.0</ele><time>2026-04-26T11:10:48.198Z</time></trkpt><trkpt lat="44.1260649" lon="7.8623104"><ele>1235.0</ele><time>2026-04-26T11:10:49.106Z</time></trkpt><trkpt lat="44.1260632" lon="7.8621351"><ele>1233.0</ele><time>2026-04-26T11:10:50.198Z</time></trkpt><trkpt lat="44.1260643" lon="7.8619965"><ele>1231.0</ele><time>2026-04-26T11:10:51.136Z</time></trkpt><trkpt lat="44.1260599" lon="7.8618533"><ele>1229.0</ele><time>2026-04-26T11:10:52.158Z</time></trkpt><trkpt lat="44.1260604" lon="7.8616329"><ele>1229.0</ele><time>2026-04-26T11:10:54.206Z</time></trkpt><trkpt lat="44.1260873" lon="7.8614721"><ele>1229.0</ele><time>2026-04-26T11:10:56.286Z</time></trkpt><trkpt lat="44.1260091" lon="7.8614533"><ele>1229.0</ele><time>2026-04-26T11:10:59.194Z</time></trkpt><trkpt lat="44.1259691" lon="7.8616"><ele>1229.0</ele><time>2026-04-26T11:11:01.133Z</time></trkpt><trkpt lat="44.1259481" lon="7.8617466"><ele>1229.0</ele><time>2026-04-26T11:11:02.221Z</time></trkpt><trkpt lat="44.1259139" lon="7.8618861"><ele>1229.0</ele><time>2026-04-26T11:11:03.138Z</time></trkpt><trkpt lat="44.1258723" lon="7.8620355"><ele>1229.0</ele><time>2026-04-26T11:11:04.164Z</time></trkpt><trkpt lat="44.1258429" lon="7.8622264"><ele>1229.0</ele><time>2026-04-26T11:11:05.445Z</time></trkpt><trkpt lat="44.1257904" lon="7.8625092"><ele>1218.75</ele><time>2026-04-26T11:11:07.193Z</time></trkpt><trkpt lat="44.1257248" lon="7.8626495"><ele>1208.5</ele><time>2026-04-26T11:11:08.118Z</time></trkpt><trkpt lat="44.1256486" lon="7.8628202"><ele>1198.25</ele><time>2026-04-26T11:11:09.184Z</time></trkpt><trkpt lat="44.1256122" lon="7.8629696"><ele>1188.0</ele><time>2026-04-26T11:11:10.16Z</time></trkpt><trkpt lat="44.1255555" lon="7.8631462"><ele>1188.0</ele><time>2026-04-26T11:11:11.182Z</time></trkpt><trkpt lat="44.1255044" lon="7.86332"><ele>1188.0</ele><time>2026-04-26T11:11:12.289Z</time></trkpt><trkpt lat="44.1254195" lon="7.8635991"><ele>1188.0</ele><time>2026-04-26T11:11:14.188Z</time></trkpt><trkpt lat="44.125376" lon="7.8637211"><ele>1190.6</ele><time>2026-04-26T11:11:15.15Z</time></trkpt><trkpt lat="44.1253238" lon="7.8638473"><ele>1193.1999999999998</ele><time>2026-04-26T11:11:16.125Z</time></trkpt><trkpt lat="44.1252645" lon="7.8639846"><ele>1195.8</ele><time>2026-04-26T11:11:17.189Z</time></trkpt><trkpt lat="44.1252249" lon="7.8641148"><ele>1198.3999999999999</ele><time>2026-04-26T11:11:18.179Z</time></trkpt><trkpt lat="44.1252044" lon="7.8642425"><ele>1201.0</ele><time>2026-04-26T11:11:19.246Z</time></trkpt><trkpt lat="44.1252113" lon="7.8645113"><ele>1201.5</ele><time>2026-04-26T11:11:21.172Z</time></trkpt><trkpt lat="44.1252196" lon="7.8646599"><ele>1202.0</ele><time>2026-04-26T11:11:22.296Z</time></trkpt><trkpt lat="44.1252369" lon="7.8648707"><ele>1202.5</ele><time>2026-04-26T11:11:24.101Z</time></trkpt><trkpt lat="44.125241" lon="7.8649864"><ele>1203.0</ele><time>2026-04-26T11:11:25.308Z</time></trkpt><trkpt lat="44.1251721" lon="7.8652067"><ele>1202.2</ele><time>2026-04-26T11:11:27.208Z</time></trkpt><trkpt lat="44.1251069" lon="7.8654377"><ele>1201.4</ele><time>2026-04-26T11:11:29.089Z</time></trkpt><trkpt lat="44.1250981" lon="7.865548"><ele>1200.6000000000001</ele><time>2026-04-26T11:11:30.068Z</time></trkpt><trkpt lat="44.1251039" lon="7.8656574"><ele>1199.8</ele><time>2026-04-26T11:11:30.981Z</time></trkpt><trkpt lat="44.1251169" lon="7.8658"><ele>1199.0</ele><time>2026-04-26T11:11:32.062Z</time></trkpt><trkpt lat="44.1251353" lon="7.8659238"><ele>1195.4</ele><time>2026-04-26T11:11:33.07Z</time></trkpt><trkpt lat="44.125151" lon="7.8660436"><ele>1191.8000000000002</ele><time>2026-04-26T11:11:34.028Z</time></trkpt><trkpt lat="44.1251695" lon="7.8661843"><ele>1188.1999999999998</ele><time>2026-04-26T11:11:35.127Z</time></trkpt><trkpt lat="44.1252045" lon="7.8663133"><ele>1184.6</ele><time>2026-04-26T11:11:36.1Z</time></trkpt><trkpt lat="44.1252472" lon="7.8664574"><ele>1181.0</ele><time>2026-04-26T11:11:37.156Z</time></trkpt><trkpt lat="44.125281" lon="7.8665773"><ele>1181.0</ele><time>2026-04-26T11:11:38.157Z</time></trkpt><trkpt lat="44.1253226" lon="7.8666899"><ele>1181.0</ele><time>2026-04-26T11:11:39.137Z</time></trkpt><trkpt lat="44.1253672" lon="7.8667909"><ele>1181.0</ele><time>2026-04-26T11:11:40.091Z</time></trkpt><trkpt lat="44.1254244" lon="7.8668916"><ele>1181.0</ele><time>2026-04-26T11:11:41.089Z</time></trkpt><trkpt lat="44.1254861" lon="7.8669722"><ele>1181.0</ele><time>2026-04-26T11:11:42.059Z</time></trkpt><trkpt lat="44.1255583" lon="7.8670626"><ele>1181.8333333333335</ele><time>2026-04-26T11:11:43.172Z</time></trkpt><trkpt lat="44.1256184" lon="7.867125"><ele>1182.6666666666667</ele><time>2026-04-26T11:11:44.143Z</time></trkpt><trkpt lat="44.1256759" lon="7.8671855"><ele>1183.5</ele><time>2026-04-26T11:11:45.185Z</time></trkpt><trkpt lat="44.1257594" lon="7.8672506"><ele>1184.3333333333333</ele><time>2026-04-26T11:11:47.126Z</time></trkpt><trkpt lat="44.1257509" lon="7.8673594"><ele>1185.1666666666665</ele><time>2026-04-26T11:11:50.175Z</time></trkpt><trkpt lat="44.1256328" lon="7.8673322"><ele>1186.0</ele><time>2026-04-26T11:11:52.176Z</time></trkpt><trkpt lat="44.1255492" lon="7.8672911"><ele>1179.2</ele><time>2026-04-26T11:11:53.146Z</time></trkpt><trkpt lat="44.1254586" lon="7.8672461"><ele>1172.3999999999999</ele><time>2026-04-26T11:11:54.085Z</time></trkpt><trkpt lat="44.1253623" lon="7.8671952"><ele>1165.6</ele><time>2026-04-26T11:11:55.194Z</time></trkpt><trkpt lat="44.1252907" lon="7.8671427"><ele>1158.8</ele><time>2026-04-26T11:11:56.164Z</time></trkpt><trkpt lat="44.1252223" lon="7.8670537"><ele>1152.0</ele><time>2026-04-26T11:11:57.217Z</time></trkpt><trkpt lat="44.1250464" lon="7.8668096"><ele>1148.6666666666667</ele><time>2026-04-26T11:11:59.308Z</time></trkpt><trkpt lat="44.1248716" lon="7.8666284"><ele>1145.3333333333335</ele><time>2026-04-26T11:12:01.159Z</time></trkpt><trkpt lat="44.1247541" lon="7.8665152"><ele>1142.0</ele><time>2026-04-26T11:12:02.29Z</time></trkpt><trkpt lat="44.1245768" lon="7.8663107"><ele>1142.0</ele><time>2026-04-26T11:12:04.165Z</time></trkpt><trkpt lat="44.1244969" lon="7.8661752"><ele>1142.0</ele><time>2026-04-26T11:12:05.135Z</time></trkpt><trkpt lat="44.1244045" lon="7.8660259"><ele>1142.0</ele><time>2026-04-26T11:12:06.25Z</time></trkpt><trkpt lat="44.1242074" lon="7.8657787"><ele>1146.2</ele><time>2026-04-26T11:12:08.276Z</time></trkpt><trkpt lat="44.1241169" lon="7.8656851"><ele>1150.4</ele><time>2026-04-26T11:12:09.227Z</time></trkpt><trkpt lat="44.124035" lon="7.8655963"><ele>1154.6</ele><time>2026-04-26T11:12:10.193Z</time></trkpt><trkpt lat="44.1239647" lon="7.8655182"><ele>1158.8</ele><time>2026-04-26T11:12:11.205Z</time></trkpt><trkpt lat="44.1239" lon="7.8654533"><ele>1163.0</ele><time>2026-04-26T11:12:12.149Z</time></trkpt><trkpt lat="44.1238159" lon="7.8654243"><ele>1152.25</ele><time>2026-04-26T11:12:13.238Z</time></trkpt><trkpt lat="44.1237237" lon="7.8653394"><ele>1141.5</ele><time>2026-04-26T11:12:15.362Z</time></trkpt><trkpt lat="44.123709" lon="7.8651471"><ele>1130.75</ele><time>2026-04-26T11:12:17.168Z</time></trkpt><trkpt lat="44.1237149" lon="7.8650003"><ele>1120.0</ele><time>2026-04-26T11:12:18.182Z</time></trkpt><trkpt lat="44.1237185" lon="7.864844"><ele>1119.0</ele><time>2026-04-26T11:12:19.264Z</time></trkpt><trkpt lat="44.1237374" lon="7.864678"><ele>1118.0</ele><time>2026-04-26T11:12:21.178Z</time></trkpt><trkpt lat="44.123694" lon="7.8645768"><ele>1117.0</ele><time>2026-04-26T11:12:24.105Z</time></trkpt><trkpt lat="44.1236441" lon="7.8646722"><ele>1116.0</ele><time>2026-04-26T11:12:26.042Z</time></trkpt><trkpt lat="44.1236086" lon="7.8648259"><ele>1115.0</ele><time>2026-04-26T11:12:27.025Z</time></trkpt><trkpt lat="44.1235541" lon="7.86499"><ele>1116.25</ele><time>2026-04-26T11:12:28.069Z</time></trkpt><trkpt lat="44.1235004" lon="7.8651586"><ele>1117.5</ele><time>2026-04-26T11:12:29.074Z</time></trkpt><trkpt lat="44.1234556" lon="7.8652975"><ele>1118.75</ele><time>2026-04-26T11:12:30.011Z</time></trkpt><trkpt lat="44.1234076" lon="7.8654657"><ele>1120.0</ele><time>2026-04-26T11:12:31.111Z</time></trkpt><trkpt lat="44.1233742" lon="7.8656231"><ele>1120.0</ele><time>2026-04-26T11:12:32.095Z</time></trkpt><trkpt lat="44.1233447" lon="7.8657718"><ele>1120.0</ele><time>2026-04-26T11:12:33.081Z</time></trkpt><trkpt lat="44.1233171" lon="7.8659224"><ele>1120.0</ele><time>2026-04-26T11:12:34.143Z</time></trkpt><trkpt lat="44.1232932" lon="7.8660212"><ele>1120.0</ele><time>2026-04-26T11:12:35.223Z</time></trkpt><trkpt lat="44.1232379" lon="7.8661271"><ele>1120.0</ele><time>2026-04-26T11:12:37.204Z</time></trkpt><trkpt lat="44.1232187" lon="7.8659119"><ele>1120.0</ele><time>2026-04-26T11:12:40.189Z</time></trkpt><trkpt lat="44.1232471" lon="7.8657864"><ele>1120.0</ele><time>2026-04-26T11:12:41.164Z</time></trkpt><trkpt lat="44.1232558" lon="7.8656122"><ele>1120.0</ele><time>2026-04-26T11:12:42.25Z</time></trkpt><trkpt lat="44.12327" lon="7.8652744"><ele>1118.3333333333333</ele><time>2026-04-26T11:12:44.11Z</time></trkpt><trkpt lat="44.123284" lon="7.8650882"><ele>1116.6666666666667</ele><time>2026-04-26T11:12:45.16Z</time></trkpt><trkpt lat="44.1233081" lon="7.8648976"><ele>1115.0</ele><time>2026-04-26T11:12:46.299Z</time></trkpt><trkpt lat="44.1233432" lon="7.8645538"><ele>1112.5</ele><time>2026-04-26T11:12:48.272Z</time></trkpt><trkpt lat="44.1233454" lon="7.8642336"><ele>1110.0</ele><time>2026-04-26T11:12:50.144Z</time></trkpt><trkpt lat="44.1233012" lon="7.8639166"><ele>1110.0</ele><time>2026-04-26T11:12:52.149Z</time></trkpt><trkpt lat="44.1232541" lon="7.8637523"><ele>1110.0</ele><time>2026-04-26T11:12:53.29Z</time></trkpt><trkpt lat="44.1231765" lon="7.8634184"><ele>1110.0</ele><time>2026-04-26T11:12:55.181Z</time></trkpt><trkpt lat="44.1231495" lon="7.8632601"><ele>1101.0</ele><time>2026-04-26T11:12:56.168Z</time></trkpt><trkpt lat="44.123143" lon="7.863131"><ele>1092.0</ele><time>2026-04-26T11:12:57.109Z</time></trkpt><trkpt lat="44.1231379" lon="7.8629992"><ele>1083.0</ele><time>2026-04-26T11:12:58.09Z</time></trkpt><trkpt lat="44.1231433" lon="7.8628722"><ele>1074.0</ele><time>2026-04-26T11:12:59.35Z</time></trkpt><trkpt lat="44.1231657" lon="7.8627872"><ele>1065.0</ele><time>2026-04-26T11:13:00.301Z</time></trkpt><trkpt lat="44.1232156" lon="7.8626049"><ele>1065.0</ele><time>2026-04-26T11:13:02.234Z</time></trkpt><trkpt lat="44.1231612" lon="7.862419"><ele>1065.0</ele><time>2026-04-26T11:13:04.178Z</time></trkpt><trkpt lat="44.1231011" lon="7.8622823"><ele>1065.0</ele><time>2026-04-26T11:13:05.435Z</time></trkpt><trkpt lat="44.1230719" lon="7.8620882"><ele>1065.0</ele><time>2026-04-26T11:13:07.357Z</time></trkpt><trkpt lat="44.123061" lon="7.861861"><ele>1065.0</ele><time>2026-04-26T11:13:09.244Z</time></trkpt><trkpt lat="44.1230589" lon="7.8617708"><ele>1065.0</ele><time>2026-04-26T11:13:10.175Z</time></trkpt><trkpt lat="44.1230633" lon="7.8616101"><ele>1065.0</ele><time>2026-04-26T11:13:12.427Z</time></trkpt><trkpt lat="44.122958" lon="7.8616034"><ele>1065.0</ele><time>2026-04-26T11:13:14.207Z</time></trkpt><trkpt lat="44.1228864" lon="7.8617271"><ele>1065.0</ele><time>2026-04-26T11:13:16.132Z</time></trkpt><trkpt lat="44.1228749" lon="7.8618321"><ele>1065.0</ele><time>2026-04-26T11:13:17.209Z</time></trkpt><trkpt lat="44.1228821" lon="7.8619839"><ele>1065.0</ele><time>2026-04-26T11:13:18.264Z</time></trkpt><trkpt lat="44.122899" lon="7.8621368"><ele>1065.0</ele><time>2026-04-26T11:13:19.238Z</time></trkpt><trkpt lat="44.122907" lon="7.862335"><ele>1065.0</ele><time>2026-04-26T11:13:20.408Z</time></trkpt><trkpt lat="44.1229101" lon="7.8626027"><ele>1063.2</ele><time>2026-04-26T11:13:22.211Z</time></trkpt><trkpt lat="44.122889" lon="7.8627546"><ele>1061.4</ele><time>2026-04-26T11:13:23.181Z</time></trkpt><trkpt lat="44.1228544" lon="7.8629093"><ele>1059.6</ele><time>2026-04-26T11:13:24.17Z</time></trkpt><trkpt lat="44.122825" lon="7.8630462"><ele>1057.8</ele><time>2026-04-26T11:13:25.102Z</time></trkpt><trkpt lat="44.122814" lon="7.8631933"><ele>1056.0</ele><time>2026-04-26T11:13:26.158Z</time></trkpt><trkpt lat="44.1228406" lon="7.8633654"><ele>1054.5</ele><time>2026-04-26T11:13:27.161Z</time></trkpt><trkpt lat="44.122853" lon="7.863537"><ele>1053.0</ele><time>2026-04-26T11:13:28.15Z</time></trkpt><trkpt lat="44.12286" lon="7.863708"><ele>1051.5</ele><time>2026-04-26T11:13:29.19Z</time></trkpt><trkpt lat="44.1228563" lon="7.8638896"><ele>1050.0</ele><time>2026-04-26T11:13:30.199Z</time></trkpt><trkpt lat="44.1228454" lon="7.8640783"><ele>1051.6666666666667</ele><time>2026-04-26T11:13:31.341Z</time></trkpt><trkpt lat="44.1227886" lon="7.8643414"><ele>1053.3333333333335</ele><time>2026-04-26T11:13:33.084Z</time></trkpt><trkpt lat="44.1227271" lon="7.8645181"><ele>1055.0</ele><time>2026-04-26T11:13:34.278Z</time></trkpt><trkpt lat="44.1226484" lon="7.8648034"><ele>1055.0</ele><time>2026-04-26T11:13:36.128Z</time></trkpt><trkpt lat="44.1226233" lon="7.8649494"><ele>1055.0</ele><time>2026-04-26T11:13:37.104Z</time></trkpt><trkpt lat="44.1225942" lon="7.8651603"><ele>1055.0</ele><time>2026-04-26T11:13:38.426Z</time></trkpt><trkpt lat="44.1225156" lon="7.8654263"><ele>1040.0</ele><time>2026-04-26T11:13:40.249Z</time></trkpt><trkpt lat="44.1223927" lon="7.865727"><ele>1025.0</ele><time>2026-04-26T11:13:42.186Z</time></trkpt><trkpt lat="44.1223316" lon="7.8659071"><ele>1010.0</ele><time>2026-04-26T11:13:43.297Z</time></trkpt><trkpt lat="44.1222261" lon="7.8661322"><ele>1010.0</ele><time>2026-04-26T11:13:45.197Z</time></trkpt><trkpt lat="44.1221799" lon="7.8662671"><ele>1010.0</ele><time>2026-04-26T11:13:46.281Z</time></trkpt><trkpt lat="44.1221253" lon="7.8665415"><ele>1010.0</ele><time>2026-04-26T11:13:48.163Z</time></trkpt><trkpt lat="44.1220939" lon="7.8666922"><ele>1010.0</ele><time>2026-04-26T11:13:49.17Z</time></trkpt><trkpt lat="44.1220624" lon="7.866826"><ele>1012.3333333333334</ele><time>2026-04-26T11:13:50.259Z</time></trkpt><trkpt lat="44.1220332" lon="7.8669234"><ele>1014.6666666666667</ele><time>2026-04-26T11:13:51.215Z</time></trkpt><trkpt lat="44.1220131" lon="7.8670118"><ele>1017.0</ele><time>2026-04-26T11:13:52.213Z</time></trkpt><trkpt lat="44.121992" lon="7.8672053"><ele>1019.3333333333333</ele><time>2026-04-26T11:13:55.181Z</time></trkpt><trkpt lat="44.1219485" lon="7.8671118"><ele>1021.6666666666666</ele><time>2026-04-26T11:13:58.178Z</time></trkpt><trkpt lat="44.1219763" lon="7.8670228"><ele>1024.0</ele><time>2026-04-26T11:13:59.145Z</time></trkpt><trkpt lat="44.1220015" lon="7.8668835"><ele>1021.2</ele><time>2026-04-26T11:14:00.429Z</time></trkpt><trkpt lat="44.1220333" lon="7.8667336"><ele>1018.4000000000001</ele><time>2026-04-26T11:14:02.245Z</time></trkpt><trkpt lat="44.1220517" lon="7.8666194"><ele>1015.6</ele><time>2026-04-26T11:14:04.26Z</time></trkpt><trkpt lat="44.1220751" lon="7.8665141"><ele>1012.8</ele><time>2026-04-26T11:14:19.195Z</time></trkpt><trkpt lat="44.1220959" lon="7.8663087"><ele>1010.0</ele><time>2026-04-26T11:14:22.133Z</time></trkpt><trkpt lat="44.122137" lon="7.8660703"><ele>1007.0</ele><time>2026-04-26T11:14:24.08Z</time></trkpt><trkpt lat="44.1221723" lon="7.8659199"><ele>1004.0</ele><time>2026-04-26T11:14:25.114Z</time></trkpt><trkpt lat="44.1222082" lon="7.8657883"><ele>1001.0</ele><time>2026-04-26T11:14:26.038Z</time></trkpt><trkpt lat="44.1222385" lon="7.8656368"><ele>998.0</ele><time>2026-04-26T11:14:27Z</time></trkpt><trkpt lat="44.1222651" lon="7.8654488"><ele>998.0</ele><time>2026-04-26T11:14:28.145Z</time></trkpt><trkpt lat="44.1222896" lon="7.8652897"><ele>998.0</ele><time>2026-04-26T11:14:29.141Z</time></trkpt><trkpt lat="44.1223028" lon="7.8651067"><ele>998.0</ele><time>2026-04-26T11:14:30.195Z</time></trkpt><trkpt lat="44.1222838" lon="7.8647536"><ele>995.3333333333334</ele><time>2026-04-26T11:14:32.3Z</time></trkpt><trkpt lat="44.1222636" lon="7.8644791"><ele>992.6666666666667</ele><time>2026-04-26T11:14:34.144Z</time></trkpt><trkpt lat="44.1222683" lon="7.8643214"><ele>990.0</ele><time>2026-04-26T11:14:35.242Z</time></trkpt><trkpt lat="44.1222737" lon="7.8640156"><ele>990.0</ele><time>2026-04-26T11:14:37.248Z</time></trkpt><trkpt lat="44.1222654" lon="7.863885"><ele>990.0</ele><time>2026-04-26T11:14:38.19Z</time></trkpt><trkpt lat="44.1222384" lon="7.8636553"><ele>990.0</ele><time>2026-04-26T11:14:40.081Z</time></trkpt><trkpt lat="44.1222273" lon="7.8635561"><ele>990.0</ele><time>2026-04-26T11:14:41.325Z</time></trkpt><trkpt lat="44.1221387" lon="7.8635587"><ele>990.0</ele><time>2026-04-26T11:14:45.195Z</time></trkpt><trkpt lat="44.1221421" lon="7.8637641"><ele>990.0</ele><time>2026-04-26T11:14:47.067Z</time></trkpt><trkpt lat="44.1221609" lon="7.8639266"><ele>990.0</ele><time>2026-04-26T11:14:48.134Z</time></trkpt><trkpt lat="44.1221574" lon="7.8641057"><ele>990.0</ele><time>2026-04-26T11:14:49.21Z</time></trkpt><trkpt lat="44.1221383" lon="7.8643134"><ele>990.0</ele><time>2026-04-26T11:14:50.409Z</time></trkpt><trkpt lat="44.1220918" lon="7.8645946"><ele>989.5</ele><time>2026-04-26T11:14:52.111Z</time></trkpt><trkpt lat="44.1220625" lon="7.8647873"><ele>989.0</ele><time>2026-04-26T11:14:53.236Z</time></trkpt><trkpt lat="44.1220391" lon="7.8649332"><ele>988.5</ele><time>2026-04-26T11:14:54.162Z</time></trkpt><trkpt lat="44.1219982" lon="7.8651244"><ele>988.0</ele><time>2026-04-26T11:14:55.269Z</time></trkpt><trkpt lat="44.1219497" lon="7.865285"><ele>991.3333333333333</ele><time>2026-04-26T11:14:56.226Z</time></trkpt><trkpt lat="44.1218914" lon="7.8654525"><ele>994.6666666666667</ele><time>2026-04-26T11:14:57.227Z</time></trkpt><trkpt lat="44.1217747" lon="7.8658146"><ele>998.0</ele><time>2026-04-26T11:14:59.329Z</time></trkpt><trkpt lat="44.1217074" lon="7.8661439"><ele>1002.0</ele><time>2026-04-26T11:15:01.159Z</time></trkpt><trkpt lat="44.121653" lon="7.8663399"><ele>1006.0</ele><time>2026-04-26T11:15:02.299Z</time></trkpt><trkpt lat="44.1215498" lon="7.8666705"><ele>1010.0</ele><time>2026-04-26T11:15:04.325Z</time></trkpt><trkpt lat="44.1214887" lon="7.8668334"><ele>998.5</ele><time>2026-04-26T11:15:05.34Z</time></trkpt><trkpt lat="44.1214375" lon="7.8669608"><ele>987.0</ele><time>2026-04-26T11:15:06.193Z</time></trkpt><trkpt lat="44.1213761" lon="7.8671139"><ele>975.5</ele><time>2026-04-26T11:15:07.269Z</time></trkpt><trkpt lat="44.1212785" lon="7.8673808"><ele>964.0</ele><time>2026-04-26T11:15:09.327Z</time></trkpt><trkpt lat="44.1212397" lon="7.867603"><ele>962.0</ele><time>2026-04-26T11:15:11.19Z</time></trkpt><trkpt lat="44.1212389" lon="7.867748"><ele>960.0</ele><time>2026-04-26T11:15:12.447Z</time></trkpt><trkpt lat="44.1212996" lon="7.8680358"><ele>958.0</ele><time>2026-04-26T11:15:14.23Z</time></trkpt><trkpt lat="44.1213409" lon="7.8682517"><ele>954.0</ele><time>2026-04-26T11:15:15.382Z</time></trkpt><trkpt lat="44.1213907" lon="7.8685978"><ele>950.0</ele><time>2026-04-26T11:15:17.174Z</time></trkpt><trkpt lat="44.1214149" lon="7.8688099"><ele>946.0</ele><time>2026-04-26T11:15:18.424Z</time></trkpt><trkpt lat="44.1214515" lon="7.8690503"><ele>946.0</ele><time>2026-04-26T11:15:20.174Z</time></trkpt><trkpt lat="44.1214917" lon="7.8691621"><ele>945.9999999999999</ele><time>2026-04-26T11:15:21.243Z</time></trkpt><trkpt lat="44.1215488" lon="7.8692529"><ele>945.9999999999999</ele><time>2026-04-26T11:15:22.285Z</time></trkpt><trkpt lat="44.1216336" lon="7.8693588"><ele>946.0</ele><time>2026-04-26T11:15:23.234Z</time></trkpt><trkpt lat="44.1217453" lon="7.8695073"><ele>946.0</ele><time>2026-04-26T11:15:24.396Z</time></trkpt><trkpt lat="44.1218726" lon="7.8697147"><ele>948.9999999999999</ele><time>2026-04-26T11:15:26.232Z</time></trkpt><trkpt lat="44.1219296" lon="7.8697991"><ele>952.0</ele><time>2026-04-26T11:15:27.137Z</time></trkpt><trkpt lat="44.1219856" lon="7.869878"><ele>955.0</ele><time>2026-04-26T11:15:28.157Z</time></trkpt><trkpt lat="44.1220495" lon="7.8699124"><ele>958.0</ele><time>2026-04-26T11:15:29.226Z</time></trkpt><trkpt lat="44.1221666" lon="7.8698427"><ele>960.9999999999999</ele><time>2026-04-26T11:15:31.283Z</time></trkpt><trkpt lat="44.1222466" lon="7.8697863"><ele>964.0</ele><time>2026-04-26T11:15:32.203Z</time></trkpt><trkpt lat="44.1223378" lon="7.8697502"><ele>966.75</ele><time>2026-04-26T11:15:33.219Z</time></trkpt><trkpt lat="44.1224684" lon="7.8697297"><ele>969.5</ele><time>2026-04-26T11:15:34.346Z</time></trkpt><trkpt lat="44.122637" lon="7.8697314"><ele>972.25</ele><time>2026-04-26T11:15:36.169Z</time></trkpt><trkpt lat="44.1227278" lon="7.8697403"><ele>975.0</ele><time>2026-04-26T11:15:37.123Z</time></trkpt><trkpt lat="44.1228031" lon="7.8697574"><ele>975.0</ele><time>2026-04-26T11:15:38.05Z</time></trkpt><trkpt lat="44.1228973" lon="7.8697641"><ele>975.0</ele><time>2026-04-26T11:15:39.169Z</time></trkpt><trkpt lat="44.1229628" lon="7.8697497"><ele>975.0</ele><time>2026-04-26T11:15:40.094Z</time></trkpt><trkpt lat="44.1230618" lon="7.8697429"><ele>975.0</ele><time>2026-04-26T11:15:42.101Z</time></trkpt><trkpt lat="44.1231107" lon="7.8698629"><ele>975.0</ele><time>2026-04-26T11:15:44.163Z</time></trkpt><trkpt lat="44.1230891" lon="7.8699614"><ele>975.0</ele><time>2026-04-26T11:15:45.139Z</time></trkpt><trkpt lat="44.1230726" lon="7.8700635"><ele>973.8</ele><time>2026-04-26T11:15:46.075Z</time></trkpt><trkpt lat="44.1230898" lon="7.8701847"><ele>972.6</ele><time>2026-04-26T11:15:47.218Z</time></trkpt><trkpt lat="44.1231931" lon="7.8703904"><ele>971.4000000000001</ele><time>2026-04-26T11:15:49.365Z</time></trkpt><trkpt lat="44.123272" lon="7.8704399"><ele>970.2</ele><time>2026-04-26T11:15:51.161Z</time></trkpt><trkpt lat="44.1233491" lon="7.8704269"><ele>969.0</ele><time>2026-04-26T11:15:52.144Z</time></trkpt><trkpt lat="44.1234227" lon="7.8704064"><ele>969.0</ele><time>2026-04-26T11:15:53.162Z</time></trkpt><trkpt lat="44.123511" lon="7.870552"><ele>969.0000000000001</ele><time>2026-04-26T11:15:57.125Z</time></trkpt><trkpt lat="44.1234778" lon="7.8706363"><ele>969.0000000000001</ele><time>2026-04-26T11:15:58.158Z</time></trkpt><trkpt lat="44.1234352" lon="7.870719"><ele>969.0</ele><time>2026-04-26T11:15:59.131Z</time></trkpt><trkpt lat="44.1233713" lon="7.8708132"><ele>969.0</ele><time>2026-04-26T11:16:00.252Z</time></trkpt><trkpt lat="44.1232448" lon="7.8709759"><ele>964.1666666666666</ele><time>2026-04-26T11:16:02.106Z</time></trkpt><trkpt lat="44.1231605" lon="7.8710192"><ele>959.3333333333333</ele><time>2026-04-26T11:16:03.13Z</time></trkpt><trkpt lat="44.1230795" lon="7.8710748"><ele>954.5</ele><time>2026-04-26T11:16:04.153Z</time></trkpt><trkpt lat="44.1230238" lon="7.8711677"><ele>949.6666666666666</ele><time>2026-04-26T11:16:05.149Z</time></trkpt><trkpt lat="44.1229823" lon="7.8712622"><ele>944.8333333333333</ele><time>2026-04-26T11:16:06.062Z</time></trkpt><trkpt lat="44.122934" lon="7.8713724"><ele>940.0</ele><time>2026-04-26T11:16:07.153Z</time></trkpt><trkpt lat="44.1228738" lon="7.8714783"><ele>940.0</ele><time>2026-04-26T11:16:08.326Z</time></trkpt><trkpt lat="44.1228128" lon="7.8716038"><ele>940.0</ele><time>2026-04-26T11:16:10.221Z</time></trkpt><trkpt lat="44.1227437" lon="7.8717221"><ele>940.0</ele><time>2026-04-26T11:16:12.258Z</time></trkpt><trkpt lat="44.1226828" lon="7.8719053"><ele>940.0</ele><time>2026-04-26T11:16:14.301Z</time></trkpt><trkpt lat="44.1225784" lon="7.8721318"><ele>938.6</ele><time>2026-04-26T11:16:16.284Z</time></trkpt><trkpt lat="44.1225354" lon="7.8722323"><ele>937.2</ele><time>2026-04-26T11:16:17.201Z</time></trkpt><trkpt lat="44.1224952" lon="7.8723255"><ele>935.8</ele><time>2026-04-26T11:16:18.29Z</time></trkpt><trkpt lat="44.122438" lon="7.8724716"><ele>934.4</ele><time>2026-04-26T11:16:20.213Z</time></trkpt><trkpt lat="44.1224016" lon="7.8725676"><ele>933.0</ele><time>2026-04-26T11:16:21.22Z</time></trkpt><trkpt lat="44.1223479" lon="7.8726913"><ele>933.0</ele><time>2026-04-26T11:16:22.307Z</time></trkpt><trkpt lat="44.1222923" lon="7.8727966"><ele>933.0</ele><time>2026-04-26T11:16:23.212Z</time></trkpt><trkpt lat="44.1222154" lon="7.8729177"><ele>933.0</ele><time>2026-04-26T11:16:24.303Z</time></trkpt><trkpt lat="44.1220606" lon="7.8731025"><ele>933.0</ele><time>2026-04-26T11:16:26.237Z</time></trkpt><trkpt lat="44.1219568" lon="7.8731779"><ele>933.0</ele><time>2026-04-26T11:16:27.294Z</time></trkpt><trkpt lat="44.1218579" lon="7.8732504"><ele>933.0</ele><time>2026-04-26T11:16:28.315Z</time></trkpt><trkpt lat="44.1217715" lon="7.8733143"><ele>933.0</ele><time>2026-04-26T11:16:29.307Z</time></trkpt><trkpt lat="44.1216977" lon="7.8733682"><ele>933.0</ele><time>2026-04-26T11:16:30.211Z</time></trkpt><trkpt lat="44.1216333" lon="7.8734229"><ele>933.0</ele><time>2026-04-26T11:16:31.187Z</time></trkpt><trkpt lat="44.1215904" lon="7.8734894"><ele>933.0</ele><time>2026-04-26T11:16:32.249Z</time></trkpt><trkpt lat="44.1215321" lon="7.8736012"><ele>933.0</ele><time>2026-04-26T11:16:34.278Z</time></trkpt><trkpt lat="44.121456" lon="7.8736066"><ele>933.0</ele><time>2026-04-26T11:16:36.296Z</time></trkpt><trkpt lat="44.1214768" lon="7.8734152"><ele>933.0</ele><time>2026-04-26T11:16:38.304Z</time></trkpt><trkpt lat="44.1215456" lon="7.8731617"><ele>933.0</ele><time>2026-04-26T11:16:40.209Z</time></trkpt><trkpt lat="44.1215778" lon="7.8730067"><ele>933.0</ele><time>2026-04-26T11:16:41.167Z</time></trkpt><trkpt lat="44.1216028" lon="7.8728676"><ele>933.0</ele><time>2026-04-26T11:16:42.173Z</time></trkpt><trkpt lat="44.1216323" lon="7.8727058"><ele>933.0</ele><time>2026-04-26T11:16:43.263Z</time></trkpt><trkpt lat="44.1216991" lon="7.8724095"><ele>933.0</ele><time>2026-04-26T11:16:45.377Z</time></trkpt><trkpt lat="44.121727" lon="7.8721305"><ele>929.75</ele><time>2026-04-26T11:16:47.323Z</time></trkpt><trkpt lat="44.1217349" lon="7.8719845"><ele>926.5</ele><time>2026-04-26T11:16:48.365Z</time></trkpt><trkpt lat="44.1217522" lon="7.8717439"><ele>923.25</ele><time>2026-04-26T11:16:50.176Z</time></trkpt><trkpt lat="44.1217671" lon="7.8716144"><ele>920.0</ele><time>2026-04-26T11:16:51.308Z</time></trkpt><trkpt lat="44.1217711" lon="7.8714012"><ele>918.6</ele><time>2026-04-26T11:16:53.401Z</time></trkpt><trkpt lat="44.1218375" lon="7.8712704"><ele>917.2</ele><time>2026-04-26T11:16:55.21Z</time></trkpt><trkpt lat="44.1218013" lon="7.8711813"><ele>915.8</ele><time>2026-04-26T11:16:57.32Z</time></trkpt><trkpt lat="44.1216706" lon="7.8711555"><ele>914.4</ele><time>2026-04-26T11:16:59.172Z</time></trkpt><trkpt lat="44.1215527" lon="7.871181"><ele>913.0</ele><time>2026-04-26T11:17:00.269Z</time></trkpt><trkpt lat="44.1214103" lon="7.8712396"><ele>906.75</ele><time>2026-04-26T11:17:02.308Z</time></trkpt><trkpt lat="44.1212742" lon="7.8711646"><ele>900.5</ele><time>2026-04-26T11:17:04.106Z</time></trkpt><trkpt lat="44.121185" lon="7.8711013"><ele>894.25</ele><time>2026-04-26T11:17:05.174Z</time></trkpt><trkpt lat="44.1210927" lon="7.8710413"><ele>888.0</ele><time>2026-04-26T11:17:06.126Z</time></trkpt><trkpt lat="44.1209871" lon="7.870974"><ele>892.3333333333333</ele><time>2026-04-26T11:17:07.297Z</time></trkpt><trkpt lat="44.120821" lon="7.8708162"><ele>896.6666666666666</ele><time>2026-04-26T11:17:09.233Z</time></trkpt><trkpt lat="44.1206526" lon="7.8706466"><ele>901.0</ele><time>2026-04-26T11:17:11.257Z</time></trkpt><trkpt lat="44.1205757" lon="7.8705633"><ele>895.75</ele><time>2026-04-26T11:17:12.17Z</time></trkpt><trkpt lat="44.1204936" lon="7.8704526"><ele>890.5</ele><time>2026-04-26T11:17:13.248Z</time></trkpt><trkpt lat="44.1204179" lon="7.8703446"><ele>885.25</ele><time>2026-04-26T11:17:14.305Z</time></trkpt><trkpt lat="44.1202801" lon="7.8701396"><ele>880.0</ele><time>2026-04-26T11:17:16.416Z</time></trkpt><trkpt lat="44.1201732" lon="7.8699667"><ele>880.0</ele><time>2026-04-26T11:17:18.064Z</time></trkpt><trkpt lat="44.1201054" lon="7.869845"><ele>880.0</ele><time>2026-04-26T11:17:19.291Z</time></trkpt><trkpt lat="44.1200244" lon="7.8695924"><ele>880.0</ele><time>2026-04-26T11:17:21.118Z</time></trkpt><trkpt lat="44.1199593" lon="7.869403"><ele>872.3333333333333</ele><time>2026-04-26T11:17:22.349Z</time></trkpt><trkpt lat="44.1198437" lon="7.8691375"><ele>864.6666666666667</ele><time>2026-04-26T11:17:24.337Z</time></trkpt><trkpt lat="44.1197715" lon="7.8689046"><ele>857.0</ele><time>2026-04-26T11:17:26.293Z</time></trkpt><trkpt lat="44.1197516" lon="7.8687966"><ele>857.0</ele><time>2026-04-26T11:17:27.237Z</time></trkpt><trkpt lat="44.1196961" lon="7.8686787"><ele>857.0</ele><time>2026-04-26T11:17:29.221Z</time></trkpt><trkpt lat="44.1195821" lon="7.8687733"><ele>857.0</ele><time>2026-04-26T11:17:32.347Z</time></trkpt><trkpt lat="44.119648" lon="7.8689907"><ele>857.0</ele><time>2026-04-26T11:17:34.423Z</time></trkpt><trkpt lat="44.1197264" lon="7.8692595"><ele>855.75</ele><time>2026-04-26T11:17:36.276Z</time></trkpt><trkpt lat="44.1197624" lon="7.8694135"><ele>854.5</ele><time>2026-04-26T11:17:37.206Z</time></trkpt><trkpt lat="44.1197984" lon="7.8695936"><ele>853.25</ele><time>2026-04-26T11:17:38.263Z</time></trkpt><trkpt lat="44.119828" lon="7.8697623"><ele>852.0</ele><time>2026-04-26T11:17:39.376Z</time></trkpt><trkpt lat="44.1198551" lon="7.8699046"><ele>848.0</ele><time>2026-04-26T11:17:40.284Z</time></trkpt><trkpt lat="44.1198794" lon="7.8702654"><ele>844.0</ele><time>2026-04-26T11:17:42.451Z</time></trkpt><trkpt lat="44.1199054" lon="7.8705746"><ele>852.0</ele><time>2026-04-26T11:17:44.33Z</time></trkpt><trkpt lat="44.119935" lon="7.8709122"><ele>860.0</ele><time>2026-04-26T11:17:46.388Z</time></trkpt><trkpt lat="44.1199908" lon="7.8710992"><ele>868.0</ele><time>2026-04-26T11:17:48.332Z</time></trkpt><trkpt lat="44.1200984" lon="7.87122"><ele>867.9999999999999</ele><time>2026-04-26T11:17:50.05Z</time></trkpt><trkpt lat="44.1201653" lon="7.8712799"><ele>868.0</ele><time>2026-04-26T11:17:51.019Z</time></trkpt><trkpt lat="44.1202248" lon="7.8713275"><ele>868.0</ele><time>2026-04-26T11:17:52.069Z</time></trkpt><trkpt lat="44.1202705" lon="7.8714351"><ele>868.0</ele><time>2026-04-26T11:17:54.023Z</time></trkpt><trkpt lat="44.1202246" lon="7.8715092"><ele>867.9999999999999</ele><time>2026-04-26T11:17:55.102Z</time></trkpt><trkpt lat="44.1201511" lon="7.8715462"><ele>868.0</ele><time>2026-04-26T11:17:56.145Z</time></trkpt><trkpt lat="44.1200602" lon="7.8715563"><ele>868.0</ele><time>2026-04-26T11:17:57.128Z</time></trkpt><trkpt lat="44.1199607" lon="7.8715672"><ele>868.0</ele><time>2026-04-26T11:17:58.09Z</time></trkpt><trkpt lat="44.1198352" lon="7.8715862"><ele>868.0</ele><time>2026-04-26T11:17:59.222Z</time></trkpt><trkpt lat="44.1197228" lon="7.8716274"><ele>868.0</ele><time>2026-04-26T11:18:00.341Z</time></trkpt><trkpt lat="44.1196369" lon="7.8716701"><ele>868.0</ele><time>2026-04-26T11:18:01.268Z</time></trkpt><trkpt lat="44.1194822" lon="7.8717543"><ele>865.0</ele><time>2026-04-26T11:18:03.107Z</time></trkpt><trkpt lat="44.119372" lon="7.8718076"><ele>862.0</ele><time>2026-04-26T11:18:04.329Z</time></trkpt><trkpt lat="44.1192385" lon="7.8719115"><ele>859.0</ele><time>2026-04-26T11:18:06.259Z</time></trkpt><trkpt lat="44.1191436" lon="7.8719997"><ele>856.0</ele><time>2026-04-26T11:18:08.22Z</time></trkpt><trkpt lat="44.1191049" lon="7.8718886"><ele>853.25</ele><time>2026-04-26T11:18:10.219Z</time></trkpt><trkpt lat="44.1192262" lon="7.8717028"><ele>850.5</ele><time>2026-04-26T11:18:12.37Z</time></trkpt><trkpt lat="44.1193152" lon="7.8715116"><ele>847.75</ele><time>2026-04-26T11:18:14.048Z</time></trkpt><trkpt lat="44.1193526" lon="7.8714064"><ele>845.0</ele><time>2026-04-26T11:18:15.071Z</time></trkpt><trkpt lat="44.119445" lon="7.8713013"><ele>845.0000000000001</ele><time>2026-04-26T11:18:17.158Z</time></trkpt><trkpt lat="44.1195212" lon="7.8712998"><ele>845.0</ele><time>2026-04-26T11:18:18.304Z</time></trkpt><trkpt lat="44.1196094" lon="7.8712271"><ele>845.0</ele><time>2026-04-26T11:18:20.087Z</time></trkpt><trkpt lat="44.1196129" lon="7.8711355"><ele>845.0</ele><time>2026-04-26T11:18:21.203Z</time></trkpt><trkpt lat="44.1195732" lon="7.8710569"><ele>845.0000000000001</ele><time>2026-04-26T11:18:22.153Z</time></trkpt><trkpt lat="44.1195097" lon="7.8709886"><ele>845.0</ele><time>2026-04-26T11:18:23.156Z</time></trkpt><trkpt lat="44.1193529" lon="7.8709237"><ele>845.0</ele><time>2026-04-26T11:18:25.05Z</time></trkpt><trkpt lat="44.1192694" lon="7.8709221"><ele>845.0</ele><time>2026-04-26T11:18:26.072Z</time></trkpt><trkpt lat="44.1191795" lon="7.8709415"><ele>845.0</ele><time>2026-04-26T11:18:27.116Z</time></trkpt><trkpt lat="44.1190937" lon="7.8709594"><ele>845.0</ele><time>2026-04-26T11:18:28.127Z</time></trkpt><trkpt lat="44.1189923" lon="7.8709562"><ele>845.0</ele><time>2026-04-26T11:18:29.401Z</time></trkpt><trkpt lat="44.1188561" lon="7.8709038"><ele>839.5</ele><time>2026-04-26T11:18:31.171Z</time></trkpt><trkpt lat="44.118806" lon="7.8708486"><ele>834.0</ele><time>2026-04-26T11:18:32.22Z</time></trkpt><trkpt lat="44.1187689" lon="7.8706785"><ele>828.5</ele><time>2026-04-26T11:18:34.206Z</time></trkpt><trkpt lat="44.1187522" lon="7.8705427"><ele>823.0</ele><time>2026-04-26T11:18:35.258Z</time></trkpt><trkpt lat="44.1186933" lon="7.8702365"><ele>823.75</ele><time>2026-04-26T11:18:37.24Z</time></trkpt><trkpt lat="44.1186463" lon="7.8701067"><ele>824.5</ele><time>2026-04-26T11:18:38.163Z</time></trkpt><trkpt lat="44.1185689" lon="7.8699585"><ele>825.25</ele><time>2026-04-26T11:18:39.346Z</time></trkpt><trkpt lat="44.1184579" lon="7.8697324"><ele>826.0</ele><time>2026-04-26T11:18:41.212Z</time></trkpt><trkpt lat="44.1183851" lon="7.8695057"><ele>826.0</ele><time>2026-04-26T11:18:43.051Z</time></trkpt><trkpt lat="44.1183625" lon="7.869385"><ele>826.0</ele><time>2026-04-26T11:18:44.078Z</time></trkpt><trkpt lat="44.1183475" lon="7.8692479"><ele>826.0</ele><time>2026-04-26T11:18:45.091Z</time></trkpt><trkpt lat="44.1183716" lon="7.8691033"><ele>826.0</ele><time>2026-04-26T11:18:46.061Z</time></trkpt><trkpt lat="44.1183853" lon="7.8689295"><ele>826.0</ele><time>2026-04-26T11:18:47.08Z</time></trkpt><trkpt lat="44.1183984" lon="7.8687575"><ele>826.4</ele><time>2026-04-26T11:18:48.111Z</time></trkpt><trkpt lat="44.1184131" lon="7.8686053"><ele>826.8</ele><time>2026-04-26T11:18:49.101Z</time></trkpt><trkpt lat="44.1184237" lon="7.8684799"><ele>827.1999999999999</ele><time>2026-04-26T11:18:50.012Z</time></trkpt><trkpt lat="44.1184273" lon="7.8683201"><ele>827.5999999999999</ele><time>2026-04-26T11:18:51.071Z</time></trkpt><trkpt lat="44.1184208" lon="7.8681477"><ele>828.0</ele><time>2026-04-26T11:18:52.083Z</time></trkpt><trkpt lat="44.1184123" lon="7.8678598"><ele>827.3333333333334</ele><time>2026-04-26T11:18:54.154Z</time></trkpt><trkpt lat="44.1184105" lon="7.8677591"><ele>826.6666666666667</ele><time>2026-04-26T11:18:55.077Z</time></trkpt><trkpt lat="44.1184098" lon="7.8676698"><ele>826.0</ele><time>2026-04-26T11:18:56.218Z</time></trkpt><trkpt lat="44.118411" lon="7.8675348"><ele>825.3333333333334</ele><time>2026-04-26T11:18:58.201Z</time></trkpt><trkpt lat="44.1183853" lon="7.8674328"><ele>824.6666666666667</ele><time>2026-04-26T11:19:00.343Z</time></trkpt><trkpt lat="44.118307" lon="7.867409"><ele>824.0</ele><time>2026-04-26T11:19:03.146Z</time></trkpt><trkpt lat="44.118241" lon="7.8673714"><ele>823.5000000000001</ele><time>2026-04-26T11:19:06.218Z</time></trkpt><trkpt lat="44.1181947" lon="7.8674992"><ele>823.0</ele><time>2026-04-26T11:20:06.042Z</time></trkpt><trkpt lat="44.1181692" lon="7.8676016"><ele>822.5</ele><time>2026-04-26T11:20:07.1Z</time></trkpt><trkpt lat="44.1181451" lon="7.8677029"><ele>822.0</ele><time>2026-04-26T11:20:08.178Z</time></trkpt><trkpt lat="44.1180988" lon="7.8678275"><ele>821.5000000000001</ele><time>2026-04-26T11:20:10.009Z</time></trkpt><trkpt lat="44.1180087" lon="7.8678198"><ele>821.0</ele><time>2026-04-26T11:20:12.039Z</time></trkpt><trkpt lat="44.1179314" lon="7.8677535"><ele>821.0</ele><time>2026-04-26T11:20:12.997Z</time></trkpt><trkpt lat="44.117849" lon="7.8676771"><ele>821.0</ele><time>2026-04-26T11:20:13.931Z</time></trkpt><trkpt lat="44.1177368" lon="7.8675716"><ele>821.0</ele><time>2026-04-26T11:20:15.089Z</time></trkpt><trkpt lat="44.1176402" lon="7.867497"><ele>821.0</ele><time>2026-04-26T11:20:15.99Z</time></trkpt><trkpt lat="44.1175116" lon="7.8674577"><ele>825.0</ele><time>2026-04-26T11:20:17.06Z</time></trkpt><trkpt lat="44.1173763" lon="7.8674787"><ele>829.0</ele><time>2026-04-26T11:20:18.077Z</time></trkpt><trkpt lat="44.1172275" lon="7.8675175"><ele>833.0</ele><time>2026-04-26T11:20:19.113Z</time></trkpt><trkpt lat="44.1169034" lon="7.8675528"><ele>833.0</ele><time>2026-04-26T11:20:21.042Z</time></trkpt><trkpt lat="44.1167071" lon="7.8675482"><ele>833.0</ele><time>2026-04-26T11:20:22.145Z</time></trkpt><trkpt lat="44.1163485" lon="7.8675142"><ele>835.6666666666667</ele><time>2026-04-26T11:20:24.046Z</time></trkpt><trkpt lat="44.1161446" lon="7.8675191"><ele>838.3333333333333</ele><time>2026-04-26T11:20:25.097Z</time></trkpt><trkpt lat="44.1159192" lon="7.867564"><ele>841.0</ele><time>2026-04-26T11:20:26.217Z</time></trkpt><trkpt lat="44.1157259" lon="7.8676048"><ele>839.0</ele><time>2026-04-26T11:20:27.163Z</time></trkpt><trkpt lat="44.115541" lon="7.8676416"><ele>837.0</ele><time>2026-04-26T11:20:28.1Z</time></trkpt><trkpt lat="44.1153449" lon="7.8676917"><ele>835.0</ele><time>2026-04-26T11:20:29.101Z</time></trkpt><trkpt lat="44.1151333" lon="7.8677728"><ele>837.5</ele><time>2026-04-26T11:20:30.195Z</time></trkpt><trkpt lat="44.1147805" lon="7.8679895"><ele>840.0</ele><time>2026-04-26T11:20:32.123Z</time></trkpt><trkpt lat="44.1146139" lon="7.8681156"><ele>840.0</ele><time>2026-04-26T11:20:33.07Z</time></trkpt><trkpt lat="44.1144565" lon="7.8682455"><ele>840.0</ele><time>2026-04-26T11:20:34.053Z</time></trkpt><trkpt lat="44.1142813" lon="7.8683561"><ele>840.0</ele><time>2026-04-26T11:20:35.177Z</time></trkpt><trkpt lat="44.1141149" lon="7.8683944"><ele>842.6666666666667</ele><time>2026-04-26T11:20:36.159Z</time></trkpt><trkpt lat="44.1139277" lon="7.8683878"><ele>845.3333333333334</ele><time>2026-04-26T11:20:37.141Z</time></trkpt><trkpt lat="44.1137295" lon="7.8683969"><ele>848.0</ele><time>2026-04-26T11:20:38.141Z</time></trkpt><trkpt lat="44.1135203" lon="7.8684621"><ele>848.0</ele><time>2026-04-26T11:20:39.193Z</time></trkpt><trkpt lat="44.1133323" lon="7.8685586"><ele>848.0</ele><time>2026-04-26T11:20:40.124Z</time></trkpt><trkpt lat="44.1131398" lon="7.8687143"><ele>848.0</ele><time>2026-04-26T11:20:41.207Z</time></trkpt><trkpt lat="44.1129519" lon="7.8688666"><ele>852.0</ele><time>2026-04-26T11:20:42.303Z</time></trkpt><trkpt lat="44.1126224" lon="7.8690425"><ele>856.0</ele><time>2026-04-26T11:20:44.142Z</time></trkpt><trkpt lat="44.1124132" lon="7.8690852"><ele>858.0</ele><time>2026-04-26T11:20:45.209Z</time></trkpt><trkpt lat="44.1120684" lon="7.8691598"><ele>860.0</ele><time>2026-04-26T11:20:47.039Z</time></trkpt><trkpt lat="44.1118446" lon="7.8691637"><ele>860.0</ele><time>2026-04-26T11:20:48.131Z</time></trkpt><trkpt lat="44.1116434" lon="7.8691091"><ele>860.0</ele><time>2026-04-26T11:20:49.1Z</time></trkpt><trkpt lat="44.1114703" lon="7.8690545"><ele>860.0</ele><time>2026-04-26T11:20:50.004Z</time></trkpt><trkpt lat="44.1112069" lon="7.8689939"><ele>863.0</ele><time>2026-04-26T11:20:51.34Z</time></trkpt><trkpt lat="44.110822" lon="7.86907"><ele>866.0</ele><time>2026-04-26T11:20:53.171Z</time></trkpt><trkpt lat="44.1106278" lon="7.8691523"><ele>866.6666666666667</ele><time>2026-04-26T11:20:54.125Z</time></trkpt><trkpt lat="44.1104164" lon="7.8692454"><ele>867.3333333333333</ele><time>2026-04-26T11:20:55.154Z</time></trkpt><trkpt lat="44.1102429" lon="7.8693112"><ele>868.0</ele><time>2026-04-26T11:20:56.057Z</time></trkpt><trkpt lat="44.1100492" lon="7.8693542"><ele>868.3333333333333</ele><time>2026-04-26T11:20:57.103Z</time></trkpt><trkpt lat="44.1098705" lon="7.8693434"><ele>868.6666666666667</ele><time>2026-04-26T11:20:58.066Z</time></trkpt><trkpt lat="44.1096768" lon="7.8693195"><ele>869.0</ele><time>2026-04-26T11:20:59.179Z</time></trkpt><trkpt lat="44.1095038" lon="7.8693442"><ele>869.0</ele><time>2026-04-26T11:21:00.249Z</time></trkpt><trkpt lat="44.1093627" lon="7.8694294"><ele>869.0</ele><time>2026-04-26T11:21:01.161Z</time></trkpt><trkpt lat="44.1092443" lon="7.8695635"><ele>869.0</ele><time>2026-04-26T11:21:02.131Z</time></trkpt><trkpt lat="44.1091422" lon="7.8697253"><ele>868.0</ele><time>2026-04-26T11:21:03.146Z</time></trkpt><trkpt lat="44.1090541" lon="7.8698847"><ele>867.0</ele><time>2026-04-26T11:21:04.238Z</time></trkpt><trkpt lat="44.1089382" lon="7.8701105"><ele>866.0</ele><time>2026-04-26T11:21:06.306Z</time></trkpt><trkpt lat="44.1088807" lon="7.8702113"><ele>865.0</ele><time>2026-04-26T11:21:08.123Z</time></trkpt><trkpt lat="44.1088512" lon="7.8702905"><ele>865.0</ele><time>2026-04-26T11:21:14.145Z</time></trkpt><trkpt lat="44.1088044" lon="7.8703592"><ele>865.0</ele><time>2026-04-26T11:23:08.021Z</time></trkpt><trkpt lat="44.1087463" lon="7.8704315"><ele>865.0</ele><time>2026-04-26T11:23:09.019Z</time></trkpt><trkpt lat="44.1086686" lon="7.8705252"><ele>865.0</ele><time>2026-04-26T11:23:10.054Z</time></trkpt><trkpt lat="44.108577" lon="7.8706189"><ele>865.0</ele><time>2026-04-26T11:23:11.058Z</time></trkpt><trkpt lat="44.1084572" lon="7.8707229"><ele>865.0</ele><time>2026-04-26T11:23:12.137Z</time></trkpt><trkpt lat="44.1083392" lon="7.8708084"><ele>865.0</ele><time>2026-04-26T11:23:13.086Z</time></trkpt><trkpt lat="44.1081984" lon="7.8708839"><ele>865.0</ele><time>2026-04-26T11:23:14.088Z</time></trkpt><trkpt lat="44.1080305" lon="7.8709412"><ele>866.0</ele><time>2026-04-26T11:23:15.157Z</time></trkpt><trkpt lat="44.1078692" lon="7.8709632"><ele>867.0</ele><time>2026-04-26T11:23:16.129Z</time></trkpt><trkpt lat="44.1077085" lon="7.8709772"><ele>868.0</ele><time>2026-04-26T11:23:17.105Z</time></trkpt><trkpt lat="44.1075519" lon="7.8710107"><ele>869.0</ele><time>2026-04-26T11:23:18.058Z</time></trkpt><trkpt lat="44.1073868" lon="7.8710831"><ele>870.0</ele><time>2026-04-26T11:23:19.098Z</time></trkpt><trkpt lat="44.1072394" lon="7.8711751"><ele>871.0</ele><time>2026-04-26T11:23:20.083Z</time></trkpt><trkpt lat="44.1070689" lon="7.871246"><ele>871.0</ele><time>2026-04-26T11:23:21.175Z</time></trkpt><trkpt lat="44.1069067" lon="7.8712606"><ele>871.0</ele><time>2026-04-26T11:23:22.114Z</time></trkpt><trkpt lat="44.1067214" lon="7.8712276"><ele>871.0</ele><time>2026-04-26T11:23:23.114Z</time></trkpt><trkpt lat="44.1063643" lon="7.8710959"><ele>870.6666666666666</ele><time>2026-04-26T11:23:24.968Z</time></trkpt><trkpt lat="44.1061628" lon="7.8710216"><ele>870.3333333333333</ele><time>2026-04-26T11:23:25.994Z</time></trkpt><trkpt lat="44.1059427" lon="7.8709687"><ele>870.0</ele><time>2026-04-26T11:23:27.079Z</time></trkpt><trkpt lat="44.1057466" lon="7.8709397"><ele>874.3333333333333</ele><time>2026-04-26T11:23:28.005Z</time></trkpt><trkpt lat="44.1055278" lon="7.8709241"><ele>878.6666666666666</ele><time>2026-04-26T11:23:29.006Z</time></trkpt><trkpt lat="44.1053196" lon="7.8709175"><ele>883.0</ele><time>2026-04-26T11:23:29.941Z</time></trkpt><trkpt lat="44.1050853" lon="7.8709141"><ele>881.5</ele><time>2026-04-26T11:23:30.977Z</time></trkpt><trkpt lat="44.1048492" lon="7.8709069"><ele>880.0</ele><time>2026-04-26T11:23:32.024Z</time></trkpt><trkpt lat="44.1046307" lon="7.8708947"><ele>880.0</ele><time>2026-04-26T11:23:32.982Z</time></trkpt><trkpt lat="44.104369" lon="7.8708523"><ele>880.0</ele><time>2026-04-26T11:23:34.131Z</time></trkpt><trkpt lat="44.104161" lon="7.8707944"><ele>881.5</ele><time>2026-04-26T11:23:35.017Z</time></trkpt><trkpt lat="44.1039258" lon="7.8707155"><ele>883.0</ele><time>2026-04-26T11:23:36.023Z</time></trkpt><trkpt lat="44.1036913" lon="7.8706329"><ele>883.0</ele><time>2026-04-26T11:23:37.018Z</time></trkpt><trkpt lat="44.1034546" lon="7.8705511"><ele>883.0</ele><time>2026-04-26T11:23:38.044Z</time></trkpt><trkpt lat="44.1032172" lon="7.8704789"><ele>884.0</ele><time>2026-04-26T11:23:39.092Z</time></trkpt><trkpt lat="44.1029981" lon="7.8704334"><ele>885.0</ele><time>2026-04-26T11:23:40.09Z</time></trkpt><trkpt lat="44.102721" lon="7.8704391"><ele>888.0</ele><time>2026-04-26T11:23:41.327Z</time></trkpt><trkpt lat="44.1022894" lon="7.8705607"><ele>891.0</ele><time>2026-04-26T11:23:43.134Z</time></trkpt><trkpt lat="44.1017918" lon="7.8707081"><ele>892.0</ele><time>2026-04-26T11:23:45.145Z</time></trkpt><trkpt lat="44.1015643" lon="7.870775"><ele>893.0</ele><time>2026-04-26T11:23:46.073Z</time></trkpt><trkpt lat="44.1012926" lon="7.8708492"><ele>893.0</ele><time>2026-04-26T11:23:47.168Z</time></trkpt><trkpt lat="44.1010277" lon="7.8709197"><ele>893.0</ele><time>2026-04-26T11:23:48.22Z</time></trkpt><trkpt lat="44.1005553" lon="7.8710267"><ele>891.5</ele><time>2026-04-26T11:23:50.12Z</time></trkpt><trkpt lat="44.1003222" lon="7.8710753"><ele>890.0</ele><time>2026-04-26T11:23:51.118Z</time></trkpt><trkpt lat="44.0999013" lon="7.871166"><ele>890.0</ele><time>2026-04-26T11:23:53.134Z</time></trkpt><trkpt lat="44.0996862" lon="7.8711661"><ele>890.0</ele><time>2026-04-26T11:23:54.22Z</time></trkpt><trkpt lat="44.0993487" lon="7.8710733"><ele>890.0</ele><time>2026-04-26T11:23:56.046Z</time></trkpt><trkpt lat="44.0991411" lon="7.8710189"><ele>890.0</ele><time>2026-04-26T11:23:57.176Z</time></trkpt><trkpt lat="44.098957" lon="7.8710168"><ele>890.0</ele><time>2026-04-26T11:23:58.158Z</time></trkpt><trkpt lat="44.0987532" lon="7.871062"><ele>891.0</ele><time>2026-04-26T11:23:59.174Z</time></trkpt><trkpt lat="44.0985292" lon="7.8711502"><ele>892.0</ele><time>2026-04-26T11:24:00.122Z</time></trkpt><trkpt lat="44.0983077" lon="7.8712353"><ele>893.5</ele><time>2026-04-26T11:24:01.08Z</time></trkpt><trkpt lat="44.098072" lon="7.8713202"><ele>895.0</ele><time>2026-04-26T11:24:02.108Z</time></trkpt><trkpt lat="44.0978702" lon="7.871394"><ele>895.0</ele><time>2026-04-26T11:24:03.012Z</time></trkpt><trkpt lat="44.0976086" lon="7.8714872"><ele>895.0</ele><time>2026-04-26T11:24:04.211Z</time></trkpt><trkpt lat="44.0974032" lon="7.8715609"><ele>897.5</ele><time>2026-04-26T11:24:05.133Z</time></trkpt><trkpt lat="44.0971732" lon="7.8716372"><ele>900.0</ele><time>2026-04-26T11:24:06.189Z</time></trkpt><trkpt lat="44.0967631" lon="7.8717574"><ele>900.5</ele><time>2026-04-26T11:24:08.161Z</time></trkpt><trkpt lat="44.0965736" lon="7.8718103"><ele>901.0</ele><time>2026-04-26T11:24:09.111Z</time></trkpt><trkpt lat="44.0961427" lon="7.8719403"><ele>903.0</ele><time>2026-04-26T11:24:11.237Z</time></trkpt><trkpt lat="44.0957453" lon="7.8720632"><ele>905.0</ele><time>2026-04-26T11:24:13.092Z</time></trkpt><trkpt lat="44.0955399" lon="7.8721244"><ele>905.0</ele><time>2026-04-26T11:24:14.017Z</time></trkpt><trkpt lat="44.0952996" lon="7.8721942"><ele>905.0</ele><time>2026-04-26T11:24:15.076Z</time></trkpt><trkpt lat="44.0950546" lon="7.8722657"><ele>907.0</ele><time>2026-04-26T11:24:16.161Z</time></trkpt><trkpt lat="44.0948283" lon="7.8723342"><ele>909.0</ele><time>2026-04-26T11:24:17.143Z</time></trkpt><trkpt lat="44.0945824" lon="7.8724067"><ele>909.0</ele><time>2026-04-26T11:24:18.2Z</time></trkpt><trkpt lat="44.0943494" lon="7.8724765"><ele>909.0</ele><time>2026-04-26T11:24:19.207Z</time></trkpt><trkpt lat="44.0940928" lon="7.8725502"><ele>906.5</ele><time>2026-04-26T11:24:20.35Z</time></trkpt><trkpt lat="44.0936854" lon="7.8726964"><ele>904.0</ele><time>2026-04-26T11:24:22.244Z</time></trkpt><trkpt lat="44.0932931" lon="7.872948"><ele>906.0</ele><time>2026-04-26T11:24:24.101Z</time></trkpt><trkpt lat="44.093074" lon="7.8730892"><ele>908.0</ele><time>2026-04-26T11:24:25.243Z</time></trkpt><trkpt lat="44.0928813" lon="7.8731486"><ele>910.0</ele><time>2026-04-26T11:24:26.22Z</time></trkpt><trkpt lat="44.0926558" lon="7.8731584"><ele>913.0</ele><time>2026-04-26T11:24:27.312Z</time></trkpt><trkpt lat="44.0922793" lon="7.873056"><ele>916.0</ele><time>2026-04-26T11:24:29.224Z</time></trkpt><trkpt lat="44.0920925" lon="7.8730759"><ele>916.0</ele><time>2026-04-26T11:24:30.162Z</time></trkpt><trkpt lat="44.0918691" lon="7.8731532"><ele>916.0</ele><time>2026-04-26T11:24:31.314Z</time></trkpt><trkpt lat="44.0917189" lon="7.8732568"><ele>916.0</ele><time>2026-04-26T11:24:32.128Z</time></trkpt><trkpt lat="44.0915121" lon="7.87339"><ele>915.0</ele><time>2026-04-26T11:24:33.259Z</time></trkpt><trkpt lat="44.0913057" lon="7.8734464"><ele>914.0</ele><time>2026-04-26T11:24:34.236Z</time></trkpt><trkpt lat="44.0910651" lon="7.8734774"><ele>916.0</ele><time>2026-04-26T11:24:35.296Z</time></trkpt><trkpt lat="44.0906133" lon="7.8735382"><ele>916.0</ele><time>2026-04-26T11:24:37.199Z</time></trkpt><trkpt lat="44.0901418" lon="7.8736035"><ele>917.0</ele><time>2026-04-26T11:24:39.088Z</time></trkpt><trkpt lat="44.0896767" lon="7.8736661"><ele>917.0</ele><time>2026-04-26T11:24:41.041Z</time></trkpt><trkpt lat="44.0894652" lon="7.8736916"><ele>917.0</ele><time>2026-04-26T11:24:42.01Z</time></trkpt><trkpt lat="44.0892468" lon="7.8736855"><ele>917.0</ele><time>2026-04-26T11:24:43.022Z</time></trkpt><trkpt lat="44.0890431" lon="7.8736143"><ele>919.5</ele><time>2026-04-26T11:24:44Z</time></trkpt><trkpt lat="44.0887721" lon="7.8734466"><ele>922.0</ele><time>2026-04-26T11:24:45.327Z</time></trkpt><trkpt lat="44.0884068" lon="7.8732037"><ele>925.5</ele><time>2026-04-26T11:24:47.172Z</time></trkpt><trkpt lat="44.0882106" lon="7.8731249"><ele>929.0</ele><time>2026-04-26T11:24:48.116Z</time></trkpt><trkpt lat="44.0877342" lon="7.8730616"><ele>929.0</ele><time>2026-04-26T11:24:50.157Z</time></trkpt><trkpt lat="44.0874966" lon="7.8730217"><ele>929.0</ele><time>2026-04-26T11:24:51.168Z</time></trkpt><trkpt lat="44.0872743" lon="7.8729475"><ele>929.5</ele><time>2026-04-26T11:24:52.153Z</time></trkpt><trkpt lat="44.0870219" lon="7.8728645"><ele>930.0</ele><time>2026-04-26T11:24:53.268Z</time></trkpt><trkpt lat="44.0865342" lon="7.8728051"><ele>931.0</ele><time>2026-04-26T11:24:55.298Z</time></trkpt><trkpt lat="44.0860702" lon="7.8728637"><ele>931.0</ele><time>2026-04-26T11:24:57.203Z</time></trkpt><trkpt lat="44.0858064" lon="7.8728856"><ele>931.0</ele><time>2026-04-26T11:24:58.272Z</time></trkpt><trkpt lat="44.0853437" lon="7.8727913"><ele>936.0</ele><time>2026-04-26T11:25:00.287Z</time></trkpt><trkpt lat="44.0849241" lon="7.8727869"><ele>941.0</ele><time>2026-04-26T11:25:02.09Z</time></trkpt><trkpt lat="44.0847107" lon="7.8727596"><ele>941.0</ele><time>2026-04-26T11:25:03.103Z</time></trkpt><trkpt lat="44.0845126" lon="7.8727212"><ele>941.0</ele><time>2026-04-26T11:25:04.03Z</time></trkpt><trkpt lat="44.084277" lon="7.8726577"><ele>941.0</ele><time>2026-04-26T11:25:05.137Z</time></trkpt><trkpt lat="44.0840426" lon="7.8726265"><ele>938.5</ele><time>2026-04-26T11:25:06.194Z</time></trkpt><trkpt lat="44.0836204" lon="7.8726599"><ele>936.0</ele><time>2026-04-26T11:25:08.036Z</time></trkpt><trkpt lat="44.0833571" lon="7.8727343"><ele>935.5</ele><time>2026-04-26T11:25:09.179Z</time></trkpt><trkpt lat="44.083139" lon="7.8727858"><ele>935.0</ele><time>2026-04-26T11:25:10.148Z</time></trkpt><trkpt lat="44.0829012" lon="7.8728091"><ele>935.0</ele><time>2026-04-26T11:25:11.225Z</time></trkpt><trkpt lat="44.0824918" lon="7.8727295"><ele>935.0</ele><time>2026-04-26T11:25:13.091Z</time></trkpt><trkpt lat="44.0822629" lon="7.8726206"><ele>931.0</ele><time>2026-04-26T11:25:14.189Z</time></trkpt><trkpt lat="44.0818562" lon="7.8724337"><ele>927.0</ele><time>2026-04-26T11:25:16.108Z</time></trkpt><trkpt lat="44.0816367" lon="7.8723409"><ele>923.0</ele><time>2026-04-26T11:25:17.147Z</time></trkpt><trkpt lat="44.0814167" lon="7.8722488"><ele>919.0</ele><time>2026-04-26T11:25:18.204Z</time></trkpt><trkpt lat="44.0811874" lon="7.8721458"><ele>919.0</ele><time>2026-04-26T11:25:19.351Z</time></trkpt><trkpt lat="44.080792" lon="7.8719778"><ele>919.0</ele><time>2026-04-26T11:25:21.336Z</time></trkpt><trkpt lat="44.0804392" lon="7.8718365"><ele>912.0</ele><time>2026-04-26T11:25:23.356Z</time></trkpt><trkpt lat="44.0801919" lon="7.8716538"><ele>905.0</ele><time>2026-04-26T11:25:25.206Z</time></trkpt><trkpt lat="44.0800926" lon="7.8714635"><ele>898.0</ele><time>2026-04-26T11:25:26.29Z</time></trkpt><trkpt lat="44.08004" lon="7.8713049"><ele>898.0</ele><time>2026-04-26T11:25:27.001Z</time></trkpt><trkpt lat="44.0799783" lon="7.8710127"><ele>898.0</ele><time>2026-04-26T11:25:28.3Z</time></trkpt><trkpt lat="44.0799661" lon="7.8706073"><ele>883.6666666666666</ele><time>2026-04-26T11:25:30.013Z</time></trkpt><trkpt lat="44.0799264" lon="7.8703648"><ele>869.3333333333333</ele><time>2026-04-26T11:25:31.121Z</time></trkpt><trkpt lat="44.0798562" lon="7.8701779"><ele>855.0</ele><time>2026-04-26T11:25:32.066Z</time></trkpt><trkpt lat="44.0797618" lon="7.8700021"><ele>855.0</ele><time>2026-04-26T11:25:33.096Z</time></trkpt><trkpt lat="44.0796626" lon="7.8698267"><ele>855.0</ele><time>2026-04-26T11:25:34.238Z</time></trkpt><trkpt lat="44.0796135" lon="7.8695536"><ele>855.0</ele><time>2026-04-26T11:25:36.073Z</time></trkpt><trkpt lat="44.0796748" lon="7.8693744"><ele>857.0</ele><time>2026-04-26T11:25:37.239Z</time></trkpt><trkpt lat="44.0797763" lon="7.8692312"><ele>859.0</ele><time>2026-04-26T11:25:38.23Z</time></trkpt><trkpt lat="44.0800434" lon="7.8689181"><ele>863.6666666666666</ele><time>2026-04-26T11:25:40.102Z</time></trkpt><trkpt lat="44.0801694" lon="7.8687607"><ele>868.3333333333333</ele><time>2026-04-26T11:25:41.189Z</time></trkpt><trkpt lat="44.0802875" lon="7.8684322"><ele>873.0</ele><time>2026-04-26T11:25:43.129Z</time></trkpt><trkpt lat="44.080307" lon="7.8681986"><ele>873.0</ele><time>2026-04-26T11:25:44.203Z</time></trkpt><trkpt lat="44.0804161" lon="7.8678024"><ele>873.0</ele><time>2026-04-26T11:25:46.204Z</time></trkpt><trkpt lat="44.0804939" lon="7.8676463"><ele>873.0</ele><time>2026-04-26T11:25:47.105Z</time></trkpt><trkpt lat="44.0805869" lon="7.8674621"><ele>873.6666666666667</ele><time>2026-04-26T11:25:48.21Z</time></trkpt><trkpt lat="44.0806674" lon="7.8672758"><ele>874.3333333333334</ele><time>2026-04-26T11:25:49.161Z</time></trkpt><trkpt lat="44.0807484" lon="7.8670755"><ele>875.0</ele><time>2026-04-26T11:25:50.156Z</time></trkpt><trkpt lat="44.0808239" lon="7.8666534"><ele>875.0</ele><time>2026-04-26T11:25:52.115Z</time></trkpt><trkpt lat="44.0808116" lon="7.8664307"><ele>875.0</ele><time>2026-04-26T11:25:53.086Z</time></trkpt><trkpt lat="44.0808082" lon="7.8661783"><ele>875.0</ele><time>2026-04-26T11:25:54.142Z</time></trkpt><trkpt lat="44.0808283" lon="7.8659284"><ele>872.3333333333334</ele><time>2026-04-26T11:25:55.178Z</time></trkpt><trkpt lat="44.0808524" lon="7.8657023"><ele>869.6666666666667</ele><time>2026-04-26T11:25:56.124Z</time></trkpt><trkpt lat="44.0808676" lon="7.8654505"><ele>867.0</ele><time>2026-04-26T11:25:57.304Z</time></trkpt><trkpt lat="44.0807875" lon="7.8651394"><ele>861.75</ele><time>2026-04-26T11:25:59.049Z</time></trkpt><trkpt lat="44.080662" lon="7.8650111"><ele>856.5</ele><time>2026-04-26T11:26:00.127Z</time></trkpt><trkpt lat="44.0805104" lon="7.8649476"><ele>851.25</ele><time>2026-04-26T11:26:01.186Z</time></trkpt><trkpt lat="44.0803768" lon="7.8649204"><ele>846.0</ele><time>2026-04-26T11:26:02.089Z</time></trkpt><trkpt lat="44.0802519" lon="7.8648639"><ele>846.0</ele><time>2026-04-26T11:26:03.073Z</time></trkpt><trkpt lat="44.0801682" lon="7.8647744"><ele>846.0</ele><time>2026-04-26T11:26:04.091Z</time></trkpt><trkpt lat="44.0801417" lon="7.8646324"><ele>846.0</ele><time>2026-04-26T11:26:05.188Z</time></trkpt><trkpt lat="44.0801669" lon="7.864462"><ele>846.0</ele><time>2026-04-26T11:26:06.177Z</time></trkpt><trkpt lat="44.0802058" lon="7.864287"><ele>845.3333333333333</ele><time>2026-04-26T11:26:07.087Z</time></trkpt><trkpt lat="44.0802571" lon="7.8640843"><ele>844.6666666666666</ele><time>2026-04-26T11:26:08.109Z</time></trkpt><trkpt lat="44.0803355" lon="7.8638878"><ele>844.0</ele><time>2026-04-26T11:26:09.095Z</time></trkpt><trkpt lat="44.0804458" lon="7.8636854"><ele>844.0</ele><time>2026-04-26T11:26:10.077Z</time></trkpt><trkpt lat="44.0805523" lon="7.8634994"><ele>844.0</ele><time>2026-04-26T11:26:11.006Z</time></trkpt><trkpt lat="44.0806822" lon="7.8632622"><ele>844.0</ele><time>2026-04-26T11:26:12.238Z</time></trkpt><trkpt lat="44.0807722" lon="7.8628944"><ele>839.0</ele><time>2026-04-26T11:26:14.1Z</time></trkpt><trkpt lat="44.0807573" lon="7.862667"><ele>834.0</ele><time>2026-04-26T11:26:15.078Z</time></trkpt><trkpt lat="44.0806988" lon="7.8624015"><ele>829.0</ele><time>2026-04-26T11:26:16.152Z</time></trkpt><trkpt lat="44.0806237" lon="7.8621309"><ele>825.0</ele><time>2026-04-26T11:26:17.177Z</time></trkpt><trkpt lat="44.0805565" lon="7.8618841"><ele>821.0</ele><time>2026-04-26T11:26:18.051Z</time></trkpt><trkpt lat="44.0804695" lon="7.8615614"><ele>817.0</ele><time>2026-04-26T11:26:19.143Z</time></trkpt><trkpt lat="44.0803216" lon="7.8609601"><ele>816.0</ele><time>2026-04-26T11:26:21.144Z</time></trkpt><trkpt lat="44.0802631" lon="7.8606487"><ele>815.0</ele><time>2026-04-26T11:26:22.246Z</time></trkpt><trkpt lat="44.0801955" lon="7.8601131"><ele>815.0</ele><time>2026-04-26T11:26:24.332Z</time></trkpt><trkpt lat="44.0801831" lon="7.8596989"><ele>815.0</ele><time>2026-04-26T11:26:26.194Z</time></trkpt><trkpt lat="44.0802253" lon="7.8595007"><ele>815.0</ele><time>2026-04-26T11:26:27.164Z</time></trkpt><trkpt lat="44.0803098" lon="7.8593235"><ele>809.5</ele><time>2026-04-26T11:26:28.151Z</time></trkpt><trkpt lat="44.080622" lon="7.8590927"><ele>804.0</ele><time>2026-04-26T11:26:30.146Z</time></trkpt><trkpt lat="44.0809112" lon="7.8589321"><ele>811.0</ele><time>2026-04-26T11:26:32.103Z</time></trkpt><trkpt lat="44.0809963" lon="7.8588569"><ele>818.0</ele><time>2026-04-26T11:26:33.023Z</time></trkpt><trkpt lat="44.0810401" lon="7.8587349"><ele>825.0</ele><time>2026-04-26T11:26:34.107Z</time></trkpt><trkpt lat="44.080954" lon="7.8585409"><ele>832.0</ele><time>2026-04-26T11:26:36.02Z</time></trkpt><trkpt lat="44.0808405" lon="7.8584608"><ele>818.5</ele><time>2026-04-26T11:26:37.038Z</time></trkpt><trkpt lat="44.0807166" lon="7.8583677"><ele>805.0</ele><time>2026-04-26T11:26:38.075Z</time></trkpt><trkpt lat="44.0806213" lon="7.8582423"><ele>791.5</ele><time>2026-04-26T11:26:39.133Z</time></trkpt><trkpt lat="44.080573" lon="7.8580745"><ele>778.0</ele><time>2026-04-26T11:26:40.121Z</time></trkpt><trkpt lat="44.0805564" lon="7.857893"><ele>778.0</ele><time>2026-04-26T11:26:41.074Z</time></trkpt><trkpt lat="44.080563" lon="7.8577115"><ele>778.0</ele><time>2026-04-26T11:26:42.101Z</time></trkpt><trkpt lat="44.0806055" lon="7.8575342"><ele>778.0</ele><time>2026-04-26T11:26:43.255Z</time></trkpt><trkpt lat="44.0805504" lon="7.8572474"><ele>777.6666666666666</ele><time>2026-04-26T11:26:45.335Z</time></trkpt><trkpt lat="44.080331" lon="7.857057"><ele>777.3333333333333</ele><time>2026-04-26T11:26:47.2Z</time></trkpt><trkpt lat="44.0802299" lon="7.856953"><ele>777.0</ele><time>2026-04-26T11:26:48.13Z</time></trkpt><trkpt lat="44.0801461" lon="7.8567931"><ele>780.75</ele><time>2026-04-26T11:26:49.217Z</time></trkpt><trkpt lat="44.0801044" lon="7.8565867"><ele>784.5</ele><time>2026-04-26T11:26:50.292Z</time></trkpt><trkpt lat="44.0801139" lon="7.856416"><ele>788.25</ele><time>2026-04-26T11:26:51.213Z</time></trkpt><trkpt lat="44.0801597" lon="7.8562616"><ele>792.0</ele><time>2026-04-26T11:26:52.237Z</time></trkpt><trkpt lat="44.0803734" lon="7.8560279"><ele>787.5</ele><time>2026-04-26T11:26:54.239Z</time></trkpt><trkpt lat="44.0806032" lon="7.8556703"><ele>783.0</ele><time>2026-04-26T11:26:56.307Z</time></trkpt><trkpt lat="44.0806978" lon="7.8553089"><ele>783.0</ele><time>2026-04-26T11:26:58.201Z</time></trkpt><trkpt lat="44.0807127" lon="7.8550585"><ele>783.0</ele><time>2026-04-26T11:27:00.141Z</time></trkpt><trkpt lat="44.0806469" lon="7.8549955"><ele>783.0</ele><time>2026-04-26T11:27:01.118Z</time></trkpt><trkpt lat="44.0805516" lon="7.8549999"><ele>783.0</ele><time>2026-04-26T11:27:02.147Z</time></trkpt><trkpt lat="44.0804744" lon="7.8550737"><ele>783.0</ele><time>2026-04-26T11:27:03.057Z</time></trkpt><trkpt lat="44.0804405" lon="7.855224"><ele>783.0</ele><time>2026-04-26T11:27:04.095Z</time></trkpt><trkpt lat="44.080429" lon="7.8554031"><ele>783.0</ele><time>2026-04-26T11:27:05.048Z</time></trkpt><trkpt lat="44.0804037" lon="7.8555969"><ele>783.0</ele><time>2026-04-26T11:27:06.046Z</time></trkpt><trkpt lat="44.0803294" lon="7.8557976"><ele>783.0</ele><time>2026-04-26T11:27:07.186Z</time></trkpt><trkpt lat="44.0802235" lon="7.8559324"><ele>786.0</ele><time>2026-04-26T11:27:08.106Z</time></trkpt><trkpt lat="44.0800734" lon="7.8560515"><ele>789.0</ele><time>2026-04-26T11:27:09.156Z</time></trkpt><trkpt lat="44.0799244" lon="7.856133"><ele>792.0</ele><time>2026-04-26T11:27:10.123Z</time></trkpt><trkpt lat="44.0797605" lon="7.8562285"><ele>780.6666666666666</ele><time>2026-04-26T11:27:11.308Z</time></trkpt><trkpt lat="44.0796093" lon="7.8564912"><ele>769.3333333333333</ele><time>2026-04-26T11:27:13.178Z</time></trkpt><trkpt lat="44.0795953" lon="7.8567271"><ele>758.0</ele><time>2026-04-26T11:27:14.306Z</time></trkpt><trkpt lat="44.0796418" lon="7.8569581"><ele>764.3333333333333</ele><time>2026-04-26T11:27:15.356Z</time></trkpt><trkpt lat="44.0798415" lon="7.8572594"><ele>770.6666666666666</ele><time>2026-04-26T11:27:17.206Z</time></trkpt><trkpt lat="44.0799492" lon="7.857368"><ele>777.0</ele><time>2026-04-26T11:27:18.177Z</time></trkpt><trkpt lat="44.0800447" lon="7.8575281"><ele>777.5</ele><time>2026-04-26T11:27:19.33Z</time></trkpt><trkpt lat="44.080036" lon="7.8579439"><ele>778.0</ele><time>2026-04-26T11:27:21.441Z</time></trkpt><trkpt lat="44.0799271" lon="7.858317"><ele>773.6666666666666</ele><time>2026-04-26T11:27:23.378Z</time></trkpt><trkpt lat="44.0798213" lon="7.858431"><ele>769.3333333333333</ele><time>2026-04-26T11:27:24.464Z</time></trkpt><trkpt lat="44.079559" lon="7.858455"><ele>765.0</ele><time>2026-04-26T11:27:26.392Z</time></trkpt><trkpt lat="44.079273" lon="7.8586118"><ele>746.0</ele><time>2026-04-26T11:27:28.276Z</time></trkpt><trkpt lat="44.0790805" lon="7.8589609"><ele>727.0</ele><time>2026-04-26T11:27:30.299Z</time></trkpt><trkpt lat="44.079032" lon="7.8591678"><ele>732.5</ele><time>2026-04-26T11:27:31.246Z</time></trkpt><trkpt lat="44.0790226" lon="7.8594509"><ele>738.0</ele><time>2026-04-26T11:27:32.382Z</time></trkpt><trkpt lat="44.0790348" lon="7.8599391"><ele>743.5</ele><time>2026-04-26T11:27:34.442Z</time></trkpt><trkpt lat="44.078846" lon="7.8603116"><ele>749.0</ele><time>2026-04-26T11:27:36.437Z</time></trkpt><trkpt lat="44.0786358" lon="7.8606368"><ele>749.0</ele><time>2026-04-26T11:27:38.233Z</time></trkpt><trkpt lat="44.0785199" lon="7.8608035"><ele>749.0</ele><time>2026-04-26T11:27:39.257Z</time></trkpt><trkpt lat="44.0782473" lon="7.861061"><ele>747.6666666666666</ele><time>2026-04-26T11:27:41.445Z</time></trkpt><trkpt lat="44.0780919" lon="7.8613303"><ele>746.3333333333334</ele><time>2026-04-26T11:27:43.367Z</time></trkpt><trkpt lat="44.0780373" lon="7.8615067"><ele>745.0</ele><time>2026-04-26T11:27:44.314Z</time></trkpt><trkpt lat="44.0779175" lon="7.8618142"><ele>745.0</ele><time>2026-04-26T11:27:46.318Z</time></trkpt><trkpt lat="44.0777655" lon="7.8619239"><ele>745.0</ele><time>2026-04-26T11:27:48.259Z</time></trkpt><trkpt lat="44.0776763" lon="7.8618851"><ele>745.0</ele><time>2026-04-26T11:27:49.212Z</time></trkpt><trkpt lat="44.0775704" lon="7.8617787"><ele>745.0</ele><time>2026-04-26T11:27:50.289Z</time></trkpt><trkpt lat="44.0774602" lon="7.861702"><ele>735.6666666666667</ele><time>2026-04-26T11:27:51.191Z</time></trkpt><trkpt lat="44.0773147" lon="7.8616496"><ele>726.3333333333334</ele><time>2026-04-26T11:27:52.268Z</time></trkpt><trkpt lat="44.0771423" lon="7.8616384"><ele>717.0</ele><time>2026-04-26T11:27:53.441Z</time></trkpt><trkpt lat="44.0769045" lon="7.8617384"><ele>712.0</ele><time>2026-04-26T11:27:55.219Z</time></trkpt><trkpt lat="44.0767653" lon="7.8618748"><ele>707.0</ele><time>2026-04-26T11:27:56.409Z</time></trkpt><trkpt lat="44.0765814" lon="7.8622117"><ele>707.0</ele><time>2026-04-26T11:27:58.361Z</time></trkpt><trkpt lat="44.0764601" lon="7.8625148"><ele>707.0</ele><time>2026-04-26T11:28:00.269Z</time></trkpt><trkpt lat="44.0764477" lon="7.8627154"><ele>707.0</ele><time>2026-04-26T11:28:01.177Z</time></trkpt><trkpt lat="44.0764127" lon="7.8628973"><ele>710.6666666666666</ele><time>2026-04-26T11:28:02.257Z</time></trkpt><trkpt lat="44.0763345" lon="7.8630374"><ele>714.3333333333334</ele><time>2026-04-26T11:28:03.267Z</time></trkpt><trkpt lat="44.076098" lon="7.863279"><ele>718.0</ele><time>2026-04-26T11:28:05.129Z</time></trkpt><trkpt lat="44.0759584" lon="7.8634209"><ele>718.0</ele><time>2026-04-26T11:28:06.351Z</time></trkpt><trkpt lat="44.0758146" lon="7.863785"><ele>718.0</ele><time>2026-04-26T11:28:08.425Z</time></trkpt><trkpt lat="44.0757418" lon="7.8641812"><ele>714.6666666666667</ele><time>2026-04-26T11:28:10.291Z</time></trkpt><trkpt lat="44.0757292" lon="7.86454"><ele>711.3333333333334</ele><time>2026-04-26T11:28:12.361Z</time></trkpt><trkpt lat="44.0758015" lon="7.8646975"><ele>708.0</ele><time>2026-04-26T11:28:13.277Z</time></trkpt><trkpt lat="44.0759121" lon="7.8648984"><ele>705.0</ele><time>2026-04-26T11:28:14.386Z</time></trkpt><trkpt lat="44.0760005" lon="7.8653652"><ele>702.0</ele><time>2026-04-26T11:28:16.568Z</time></trkpt><trkpt lat="44.0759633" lon="7.8658169"><ele>699.5</ele><time>2026-04-26T11:28:18.377Z</time></trkpt><trkpt lat="44.0759588" lon="7.8660231"><ele>697.0</ele><time>2026-04-26T11:28:19.289Z</time></trkpt><trkpt lat="44.0759705" lon="7.8662105"><ele>694.5</ele><time>2026-04-26T11:28:20.208Z</time></trkpt><trkpt lat="44.0759959" lon="7.866416"><ele>692.0</ele><time>2026-04-26T11:28:21.342Z</time></trkpt><trkpt lat="44.0760363" lon="7.8666657"><ele>692.6</ele><time>2026-04-26T11:28:23.135Z</time></trkpt><trkpt lat="44.0760585" lon="7.866779"><ele>693.2</ele><time>2026-04-26T11:28:24.085Z</time></trkpt><trkpt lat="44.0761098" lon="7.8669884"><ele>693.8</ele><time>2026-04-26T11:28:26.024Z</time></trkpt><trkpt lat="44.0761401" lon="7.8670872"><ele>694.4</ele><time>2026-04-26T11:28:27.184Z</time></trkpt><trkpt lat="44.0761752" lon="7.8671999"><ele>695.0</ele><time>2026-04-26T11:28:29.174Z</time></trkpt><trkpt lat="44.0762483" lon="7.8673832"><ele>695.0</ele><time>2026-04-26T11:28:50.117Z</time></trkpt><trkpt lat="44.0763088" lon="7.8674906"><ele>695.0</ele><time>2026-04-26T11:28:51.316Z</time></trkpt><trkpt lat="44.0763807" lon="7.8676678"><ele>695.0</ele><time>2026-04-26T11:28:53.228Z</time></trkpt><trkpt lat="44.0763829" lon="7.8677704"><ele>695.0</ele><time>2026-04-26T11:28:54.22Z</time></trkpt><trkpt lat="44.0762593" lon="7.8679129"><ele>706.6666666666666</ele><time>2026-04-26T11:28:56.143Z</time></trkpt><trkpt lat="44.0761508" lon="7.8679158"><ele>718.3333333333334</ele><time>2026-04-26T11:28:57.298Z</time></trkpt><trkpt lat="44.0759422" lon="7.8678278"><ele>730.0</ele><time>2026-04-26T11:28:59.162Z</time></trkpt><trkpt lat="44.0758046" lon="7.8677572"><ele>732.5</ele><time>2026-04-26T11:29:00.282Z</time></trkpt><trkpt lat="44.0755177" lon="7.8676887"><ele>735.0</ele><time>2026-04-26T11:29:02.126Z</time></trkpt><trkpt lat="44.075316" lon="7.8676416"><ele>735.0</ele><time>2026-04-26T11:29:03.279Z</time></trkpt><trkpt lat="44.075154" lon="7.8676138"><ele>735.0</ele><time>2026-04-26T11:29:04.279Z</time></trkpt><trkpt lat="44.0750154" lon="7.8675887"><ele>735.0</ele><time>2026-04-26T11:29:05.185Z</time></trkpt><trkpt lat="44.0748683" lon="7.867542"><ele>724.5</ele><time>2026-04-26T11:29:06.166Z</time></trkpt><trkpt lat="44.0747403" lon="7.867474"><ele>714.0</ele><time>2026-04-26T11:29:07.112Z</time></trkpt><trkpt lat="44.0746029" lon="7.867385"><ele>703.5</ele><time>2026-04-26T11:29:08.24Z</time></trkpt><trkpt lat="44.0744836" lon="7.8673142"><ele>693.0</ele><time>2026-04-26T11:29:09.22Z</time></trkpt><trkpt lat="44.074368" lon="7.8672658"><ele>693.0</ele><time>2026-04-26T11:29:10.162Z</time></trkpt><trkpt lat="44.0742077" lon="7.8672504"><ele>693.0</ele><time>2026-04-26T11:29:11.314Z</time></trkpt><trkpt lat="44.0738872" lon="7.8672612"><ele>691.6666666666666</ele><time>2026-04-26T11:29:13.369Z</time></trkpt><trkpt lat="44.0736315" lon="7.8672831"><ele>690.3333333333333</ele><time>2026-04-26T11:29:15.02Z</time></trkpt><trkpt lat="44.0734427" lon="7.8672657"><ele>689.0</ele><time>2026-04-26T11:29:16.345Z</time></trkpt><trkpt lat="44.0731742" lon="7.8671589"><ele>689.0</ele><time>2026-04-26T11:29:18.268Z</time></trkpt><trkpt lat="44.073035" lon="7.8671668"><ele>689.0</ele><time>2026-04-26T11:29:19.195Z</time></trkpt><trkpt lat="44.0728913" lon="7.867206"><ele>689.0</ele><time>2026-04-26T11:29:20.331Z</time></trkpt><trkpt lat="44.0726648" lon="7.8672296"><ele>689.0</ele><time>2026-04-26T11:29:22.136Z</time></trkpt><trkpt lat="44.072551" lon="7.8671584"><ele>689.0</ele><time>2026-04-26T11:29:23.138Z</time></trkpt><trkpt lat="44.0724222" lon="7.8670702"><ele>689.0</ele><time>2026-04-26T11:29:24.227Z</time></trkpt><trkpt lat="44.0722688" lon="7.8670291"><ele>689.0</ele><time>2026-04-26T11:29:25.332Z</time></trkpt><trkpt lat="44.072003" lon="7.8670859"><ele>689.3333333333333</ele><time>2026-04-26T11:29:27.193Z</time></trkpt><trkpt lat="44.0718569" lon="7.8670523"><ele>689.6666666666666</ele><time>2026-04-26T11:29:28.274Z</time></trkpt><trkpt lat="44.0716279" lon="7.8668901"><ele>690.0</ele><time>2026-04-26T11:29:30.277Z</time></trkpt><trkpt lat="44.0715186" lon="7.8667979"><ele>680.0</ele><time>2026-04-26T11:29:31.202Z</time></trkpt><trkpt lat="44.0714003" lon="7.866742"><ele>670.0</ele><time>2026-04-26T11:29:32.155Z</time></trkpt><trkpt lat="44.0712642" lon="7.8667372"><ele>660.0</ele><time>2026-04-26T11:29:33.224Z</time></trkpt><trkpt lat="44.0711343" lon="7.8667248"><ele>650.0</ele><time>2026-04-26T11:29:34.243Z</time></trkpt><trkpt lat="44.070923" lon="7.8665522"><ele>650.0</ele><time>2026-04-26T11:29:36.181Z</time></trkpt><trkpt lat="44.0708317" lon="7.8664384"><ele>650.0</ele><time>2026-04-26T11:29:37.252Z</time></trkpt><trkpt lat="44.0706739" lon="7.8663038"><ele>650.0</ele><time>2026-04-26T11:29:39.112Z</time></trkpt><trkpt lat="44.0705513" lon="7.8663102"><ele>650.0</ele><time>2026-04-26T11:29:40.325Z</time></trkpt><trkpt lat="44.0704031" lon="7.8664972"><ele>645.3333333333333</ele><time>2026-04-26T11:29:42.176Z</time></trkpt><trkpt lat="44.0703456" lon="7.8666836"><ele>640.6666666666666</ele><time>2026-04-26T11:29:43.267Z</time></trkpt><trkpt lat="44.07029" lon="7.866872"><ele>636.0</ele><time>2026-04-26T11:29:44.21Z</time></trkpt><trkpt lat="44.0701903" lon="7.8671343"><ele>636.0</ele><time>2026-04-26T11:29:45.552Z</time></trkpt><trkpt lat="44.0699981" lon="7.8674802"><ele>636.0</ele><time>2026-04-26T11:29:47.362Z</time></trkpt><trkpt lat="44.0698861" lon="7.8676533"><ele>626.5</ele><time>2026-04-26T11:29:48.409Z</time></trkpt><trkpt lat="44.069662" lon="7.8678819"><ele>617.0</ele><time>2026-04-26T11:29:50.354Z</time></trkpt><trkpt lat="44.0694826" lon="7.8681464"><ele>615.0</ele><time>2026-04-26T11:29:52.337Z</time></trkpt><trkpt lat="44.0694362" lon="7.8684854"><ele>613.0</ele><time>2026-04-26T11:29:54.233Z</time></trkpt><trkpt lat="44.0694582" lon="7.8686969"><ele>611.0</ele><time>2026-04-26T11:29:55.523Z</time></trkpt><trkpt lat="44.0696252" lon="7.8689507"><ele>611.0</ele><time>2026-04-26T11:29:57.442Z</time></trkpt><trkpt lat="44.0698794" lon="7.8692409"><ele>611.0</ele><time>2026-04-26T11:29:59.593Z</time></trkpt><trkpt lat="44.0699863" lon="7.8695488"><ele>614.3333333333333</ele><time>2026-04-26T11:30:01.167Z</time></trkpt><trkpt lat="44.0699867" lon="7.8698444"><ele>617.6666666666666</ele><time>2026-04-26T11:30:02.259Z</time></trkpt><trkpt lat="44.069999" lon="7.8701213"><ele>621.0</ele><time>2026-04-26T11:30:03.289Z</time></trkpt><trkpt lat="44.070019" lon="7.8703886"><ele>621.0</ele><time>2026-04-26T11:30:04.335Z</time></trkpt><trkpt lat="44.070056" lon="7.8708581"><ele>621.0</ele><time>2026-04-26T11:30:06.334Z</time></trkpt><trkpt lat="44.0700739" lon="7.871073"><ele>619.0</ele><time>2026-04-26T11:30:07.257Z</time></trkpt><trkpt lat="44.0700802" lon="7.8713295"><ele>617.0</ele><time>2026-04-26T11:30:08.335Z</time></trkpt><trkpt lat="44.0700804" lon="7.8715429"><ele>615.0</ele><time>2026-04-26T11:30:09.275Z</time></trkpt><trkpt lat="44.0700965" lon="7.8717631"><ele>613.6666666666666</ele><time>2026-04-26T11:30:10.289Z</time></trkpt><trkpt lat="44.070118" lon="7.871959"><ele>612.3333333333333</ele><time>2026-04-26T11:30:11.198Z</time></trkpt><trkpt lat="44.0701833" lon="7.8721745"><ele>611.0</ele><time>2026-04-26T11:30:12.305Z</time></trkpt><trkpt lat="44.0703016" lon="7.8724859"><ele>614.2</ele><time>2026-04-26T11:30:14.151Z</time></trkpt><trkpt lat="44.070329" lon="7.8726273"><ele>617.4000000000001</ele><time>2026-04-26T11:30:15.06Z</time></trkpt><trkpt lat="44.0703376" lon="7.8727548"><ele>620.6</ele><time>2026-04-26T11:30:16.008Z</time></trkpt><trkpt lat="44.0703404" lon="7.8729017"><ele>623.8000000000001</ele><time>2026-04-26T11:30:17.143Z</time></trkpt><trkpt lat="44.0702912" lon="7.8729964"><ele>627.0</ele><time>2026-04-26T11:30:19.059Z</time></trkpt><trkpt lat="44.0701428" lon="7.8730501"><ele>627.0</ele><time>2026-04-26T11:30:22.206Z</time></trkpt><trkpt lat="44.0700484" lon="7.8730597"><ele>627.0</ele><time>2026-04-26T11:30:23.118Z</time></trkpt><trkpt lat="44.0698703" lon="7.8730277"><ele>627.0</ele><time>2026-04-26T11:30:24.273Z</time></trkpt><trkpt lat="44.0694" lon="7.8729887"><ele>609.0</ele><time>2026-04-26T11:30:26.138Z</time></trkpt><trkpt lat="44.0689284" lon="7.8729628"><ele>609.0</ele><time>2026-04-26T11:30:27.263Z</time></trkpt><trkpt lat="44.068808" lon="7.8730477"><ele>609.0</ele><time>2026-04-26T11:30:28.239Z</time></trkpt><trkpt lat="44.0687458" lon="7.8731113"><ele>609.0</ele><time>2026-04-26T11:30:29.237Z</time></trkpt><trkpt lat="44.0686665" lon="7.873138"><ele>609.0</ele><time>2026-04-26T11:30:30.155Z</time></trkpt><trkpt lat="44.0685158" lon="7.8731503"><ele>609.0</ele><time>2026-04-26T11:30:31.217Z</time></trkpt><trkpt lat="44.068283" lon="7.873058"><ele>603.0</ele><time>2026-04-26T11:30:32.324Z</time></trkpt><trkpt lat="44.0679326" lon="7.87298"><ele>597.0</ele><time>2026-04-26T11:30:34.362Z</time></trkpt><trkpt lat="44.0675826" lon="7.8730489"><ele>586.5</ele><time>2026-04-26T11:30:36.388Z</time></trkpt><trkpt lat="44.06725" lon="7.8731132"><ele>576.0</ele><time>2026-04-26T11:30:38.361Z</time></trkpt><trkpt lat="44.0670077" lon="7.8729855"><ele>576.0</ele><time>2026-04-26T11:30:40.323Z</time></trkpt><trkpt lat="44.0667753" lon="7.8731237"><ele>576.0</ele><time>2026-04-26T11:30:42.138Z</time></trkpt><trkpt lat="44.0666336" lon="7.873315"><ele>580.5</ele><time>2026-04-26T11:30:43.221Z</time></trkpt><trkpt lat="44.0664663" lon="7.8734693"><ele>585.0</ele><time>2026-04-26T11:30:44.321Z</time></trkpt><trkpt lat="44.0660643" lon="7.8736136"><ele>585.0</ele><time>2026-04-26T11:30:46.212Z</time></trkpt><trkpt lat="44.0658741" lon="7.8736981"><ele>585.0</ele><time>2026-04-26T11:30:47.229Z</time></trkpt><trkpt lat="44.0656887" lon="7.8737877"><ele>585.0</ele><time>2026-04-26T11:30:48.26Z</time></trkpt><trkpt lat="44.0655425" lon="7.8738598"><ele>570.0</ele><time>2026-04-26T11:30:49.219Z</time></trkpt><trkpt lat="44.0654164" lon="7.8739488"><ele>555.0</ele><time>2026-04-26T11:30:50.283Z</time></trkpt><trkpt lat="44.0653306" lon="7.8740859"><ele>540.0</ele><time>2026-04-26T11:30:51.385Z</time></trkpt><trkpt lat="44.0652405" lon="7.8745021"><ele>540.0</ele><time>2026-04-26T11:30:53.39Z</time></trkpt><trkpt lat="44.0653645" lon="7.8749525"><ele>540.0</ele><time>2026-04-26T11:30:55.305Z</time></trkpt><trkpt lat="44.0654666" lon="7.8751608"><ele>542.5</ele><time>2026-04-26T11:30:56.216Z</time></trkpt><trkpt lat="44.0655158" lon="7.8753855"><ele>545.0</ele><time>2026-04-26T11:30:57.283Z</time></trkpt><trkpt lat="44.0654441" lon="7.875764"><ele>545.0</ele><time>2026-04-26T11:30:59.303Z</time></trkpt><trkpt lat="44.0653125" lon="7.8759233"><ele>545.0</ele><time>2026-04-26T11:31:00.261Z</time></trkpt><trkpt lat="44.0649743" lon="7.8762473"><ele>540.5</ele><time>2026-04-26T11:31:02.163Z</time></trkpt><trkpt lat="44.0647788" lon="7.8764485"><ele>536.0</ele><time>2026-04-26T11:31:03.178Z</time></trkpt><trkpt lat="44.0643813" lon="7.8768511"><ele>539.0</ele><time>2026-04-26T11:31:05.18Z</time></trkpt><trkpt lat="44.0639926" lon="7.8771912"><ele>539.0</ele><time>2026-04-26T11:31:07.082Z</time></trkpt><trkpt lat="44.0638105" lon="7.8773569"><ele>539.0</ele><time>2026-04-26T11:31:08.038Z</time></trkpt><trkpt lat="44.0636333" lon="7.8775085"><ele>539.0</ele><time>2026-04-26T11:31:09.018Z</time></trkpt><trkpt lat="44.0634504" lon="7.8776246"><ele>550.6666666666666</ele><time>2026-04-26T11:31:10.071Z</time></trkpt><trkpt lat="44.0632812" lon="7.8776693"><ele>562.3333333333334</ele><time>2026-04-26T11:31:11.012Z</time></trkpt><trkpt lat="44.063098" lon="7.8776412"><ele>574.0</ele><time>2026-04-26T11:31:12.029Z</time></trkpt><trkpt lat="44.0629221" lon="7.877604"><ele>574.0</ele><time>2026-04-26T11:31:13.012Z</time></trkpt><trkpt lat="44.0627387" lon="7.8776098"><ele>574.0</ele><time>2026-04-26T11:31:14.073Z</time></trkpt><trkpt lat="44.0625441" lon="7.8776964"><ele>574.0</ele><time>2026-04-26T11:31:15.143Z</time></trkpt><trkpt lat="44.0623223" lon="7.8777845"><ele>567.0</ele><time>2026-04-26T11:31:16.208Z</time></trkpt><trkpt lat="44.0621159" lon="7.8778393"><ele>560.0</ele><time>2026-04-26T11:31:17.114Z</time></trkpt><trkpt lat="44.0618882" lon="7.8778751"><ele>553.0</ele><time>2026-04-26T11:31:18.22Z</time></trkpt><trkpt lat="44.0614714" lon="7.8778799"><ele>545.0</ele><time>2026-04-26T11:31:20.204Z</time></trkpt><trkpt lat="44.061278" lon="7.8778615"><ele>537.0</ele><time>2026-04-26T11:31:21.147Z</time></trkpt><trkpt lat="44.0610833" lon="7.8778358"><ele>529.0</ele><time>2026-04-26T11:31:22.188Z</time></trkpt><trkpt lat="44.0609271" lon="7.877824"><ele>529.0</ele><time>2026-04-26T11:31:23.13Z</time></trkpt><trkpt lat="44.0607829" lon="7.8778472"><ele>529.0</ele><time>2026-04-26T11:31:24.166Z</time></trkpt><trkpt lat="44.0605284" lon="7.8780945"><ele>520.25</ele><time>2026-04-26T11:31:26.267Z</time></trkpt><trkpt lat="44.0603989" lon="7.8782436"><ele>511.5</ele><time>2026-04-26T11:31:27.235Z</time></trkpt><trkpt lat="44.0602957" lon="7.8783945"><ele>502.75</ele><time>2026-04-26T11:31:28.267Z</time></trkpt><trkpt lat="44.0602371" lon="7.8785552"><ele>494.0</ele><time>2026-04-26T11:31:29.192Z</time></trkpt><trkpt lat="44.0602215" lon="7.8788136"><ele>492.0</ele><time>2026-04-26T11:31:30.408Z</time></trkpt><trkpt lat="44.0603009" lon="7.8791809"><ele>490.0</ele><time>2026-04-26T11:31:32.327Z</time></trkpt><trkpt lat="44.0603828" lon="7.8793318"><ele>488.0</ele><time>2026-04-26T11:31:33.237Z</time></trkpt><trkpt lat="44.0604716" lon="7.8795173"><ele>481.3333333333333</ele><time>2026-04-26T11:31:34.342Z</time></trkpt><trkpt lat="44.0605426" lon="7.8796944"><ele>474.66666666666663</ele><time>2026-04-26T11:31:35.317Z</time></trkpt><trkpt lat="44.060624" lon="7.8798991"><ele>468.0</ele><time>2026-04-26T11:31:36.378Z</time></trkpt><trkpt lat="44.0607287" lon="7.8803305"><ele>473.33333333333337</ele><time>2026-04-26T11:31:38.442Z</time></trkpt><trkpt lat="44.0607879" lon="7.8806777"><ele>478.6666666666667</ele><time>2026-04-26T11:31:40.063Z</time></trkpt><trkpt lat="44.0608311" lon="7.8809207"><ele>484.0</ele><time>2026-04-26T11:31:41.159Z</time></trkpt><trkpt lat="44.0609189" lon="7.8813762"><ele>484.0</ele><time>2026-04-26T11:31:43.184Z</time></trkpt><trkpt lat="44.0609738" lon="7.8816094"><ele>484.0</ele><time>2026-04-26T11:31:44.164Z</time></trkpt><trkpt lat="44.0610896" lon="7.882054"><ele>484.75</ele><time>2026-04-26T11:31:46.126Z</time></trkpt><trkpt lat="44.0611388" lon="7.8822337"><ele>485.5</ele><time>2026-04-26T11:31:47.045Z</time></trkpt><trkpt lat="44.0611853" lon="7.8824147"><ele>486.25</ele><time>2026-04-26T11:31:48.116Z</time></trkpt><trkpt lat="44.0611975" lon="7.8825589"><ele>487.0</ele><time>2026-04-26T11:31:49.102Z</time></trkpt><trkpt lat="44.061164" lon="7.8826874"><ele>491.75</ele><time>2026-04-26T11:31:50.109Z</time></trkpt><trkpt lat="44.0610957" lon="7.8827919"><ele>496.5</ele><time>2026-04-26T11:31:51.094Z</time></trkpt><trkpt lat="44.0610022" lon="7.8828613"><ele>501.25</ele><time>2026-04-26T11:31:52.008Z</time></trkpt><trkpt lat="44.0608704" lon="7.8828709"><ele>506.0</ele><time>2026-04-26T11:31:53.074Z</time></trkpt><trkpt lat="44.0607284" lon="7.8828021"><ele>507.66666666666663</ele><time>2026-04-26T11:31:54.096Z</time></trkpt><trkpt lat="44.0605824" lon="7.8826983"><ele>509.33333333333337</ele><time>2026-04-26T11:31:55.065Z</time></trkpt><trkpt lat="44.060425" lon="7.8825713"><ele>511.0</ele><time>2026-04-26T11:31:56.075Z</time></trkpt><trkpt lat="44.06026" lon="7.8824489"><ele>503.33333333333337</ele><time>2026-04-26T11:31:57.088Z</time></trkpt><trkpt lat="44.0600992" lon="7.8823369"><ele>495.66666666666663</ele><time>2026-04-26T11:31:58.104Z</time></trkpt><trkpt lat="44.0599297" lon="7.8822486"><ele>488.0</ele><time>2026-04-26T11:31:59.201Z</time></trkpt><trkpt lat="44.0597868" lon="7.882217"><ele>481.5</ele><time>2026-04-26T11:32:00.177Z</time></trkpt><trkpt lat="44.0596158" lon="7.882248"><ele>475.0</ele><time>2026-04-26T11:32:01.331Z</time></trkpt><trkpt lat="44.059275" lon="7.8823485"><ele>473.33333333333337</ele><time>2026-04-26T11:32:03.18Z</time></trkpt><trkpt lat="44.0590679" lon="7.8823559"><ele>471.66666666666663</ele><time>2026-04-26T11:32:04.197Z</time></trkpt><trkpt lat="44.0588634" lon="7.8823058"><ele>470.0</ele><time>2026-04-26T11:32:05.212Z</time></trkpt><trkpt lat="44.0586507" lon="7.8822081"><ele>470.0</ele><time>2026-04-26T11:32:06.283Z</time></trkpt><trkpt lat="44.0583511" lon="7.8819832"><ele>470.0</ele><time>2026-04-26T11:32:08.198Z</time></trkpt><trkpt lat="44.058235" lon="7.8819024"><ele>458.0</ele><time>2026-04-26T11:32:09.155Z</time></trkpt><trkpt lat="44.0580986" lon="7.8818911"><ele>446.0</ele><time>2026-04-26T11:32:10.264Z</time></trkpt><trkpt lat="44.057966" lon="7.8819383"><ele>434.0</ele><time>2026-04-26T11:32:11.3Z</time></trkpt><trkpt lat="44.05775" lon="7.8822554"><ele>434.0</ele><time>2026-04-26T11:32:13.332Z</time></trkpt><trkpt lat="44.0576798" lon="7.8824109"><ele>434.0</ele><time>2026-04-26T11:32:14.289Z</time></trkpt><trkpt lat="44.0576308" lon="7.8826213"><ele>434.0</ele><time>2026-04-26T11:32:15.503Z</time></trkpt><trkpt lat="44.0577219" lon="7.8829039"><ele>435.5</ele><time>2026-04-26T11:32:17.086Z</time></trkpt><trkpt lat="44.0578399" lon="7.8831107"><ele>437.0</ele><time>2026-04-26T11:32:18.34Z</time></trkpt><trkpt lat="44.0578991" lon="7.883523"><ele>437.0</ele><time>2026-04-26T11:32:20.316Z</time></trkpt><trkpt lat="44.0578174" lon="7.8838441"><ele>437.0</ele><time>2026-04-26T11:32:22.033Z</time></trkpt><trkpt lat="44.0576927" lon="7.8839946"><ele>437.0</ele><time>2026-04-26T11:32:23.278Z</time></trkpt><trkpt lat="44.0575592" lon="7.8840887"><ele>437.0</ele><time>2026-04-26T11:32:24.302Z</time></trkpt><trkpt lat="44.0574706" lon="7.884176"><ele>437.0</ele><time>2026-04-26T11:32:25.282Z</time></trkpt><trkpt lat="44.0574261" lon="7.8843129"><ele>437.0</ele><time>2026-04-26T11:32:26.284Z</time></trkpt><trkpt lat="44.0574549" lon="7.8845078"><ele>437.0</ele><time>2026-04-26T11:32:27.388Z</time></trkpt><trkpt lat="44.0576068" lon="7.8849655"><ele>440.5</ele><time>2026-04-26T11:32:29.441Z</time></trkpt><trkpt lat="44.0577483" lon="7.8852693"><ele>444.0</ele><time>2026-04-26T11:32:31.358Z</time></trkpt><trkpt lat="44.0577663" lon="7.8855767"><ele>444.0</ele><time>2026-04-26T11:32:33.387Z</time></trkpt><trkpt lat="44.0576276" lon="7.8857578"><ele>444.0</ele><time>2026-04-26T11:32:35.126Z</time></trkpt><trkpt lat="44.0574325" lon="7.8858044"><ele>444.0</ele><time>2026-04-26T11:32:36.189Z</time></trkpt><trkpt lat="44.0572349" lon="7.8858281"><ele>430.0</ele><time>2026-04-26T11:32:37.363Z</time></trkpt><trkpt lat="44.0568736" lon="7.8857736"><ele>416.0</ele><time>2026-04-26T11:32:39.31Z</time></trkpt><trkpt lat="44.0565577" lon="7.8859227"><ele>413.66666666666663</ele><time>2026-04-26T11:32:41.383Z</time></trkpt><trkpt lat="44.0564669" lon="7.8860496"><ele>411.33333333333337</ele><time>2026-04-26T11:32:42.071Z</time></trkpt><trkpt lat="44.0563589" lon="7.8863626"><ele>409.0</ele><time>2026-04-26T11:32:43.261Z</time></trkpt><trkpt lat="44.0561946" lon="7.8867966"><ele>409.0</ele><time>2026-04-26T11:32:45.352Z</time></trkpt><trkpt lat="44.0562287" lon="7.887035"><ele>409.0</ele><time>2026-04-26T11:32:46.259Z</time></trkpt><trkpt lat="44.0562757" lon="7.8872992"><ele>409.0</ele><time>2026-04-26T11:32:47.203Z</time></trkpt><trkpt lat="44.0562348" lon="7.8875658"><ele>416.0</ele><time>2026-04-26T11:32:48.266Z</time></trkpt><trkpt lat="44.0559487" lon="7.8878149"><ele>423.0</ele><time>2026-04-26T11:32:50.124Z</time></trkpt><trkpt lat="44.0557958" lon="7.8879635"><ele>418.66666666666663</ele><time>2026-04-26T11:32:51.195Z</time></trkpt><trkpt lat="44.0556616" lon="7.8881222"><ele>414.3333333333333</ele><time>2026-04-26T11:32:52.156Z</time></trkpt><trkpt lat="44.0555128" lon="7.8882917"><ele>410.0</ele><time>2026-04-26T11:32:53.188Z</time></trkpt><trkpt lat="44.0553561" lon="7.888467"><ele>410.0</ele><time>2026-04-26T11:32:54.3Z</time></trkpt><trkpt lat="44.0552391" lon="7.8886146"><ele>410.0</ele><time>2026-04-26T11:32:55.252Z</time></trkpt><trkpt lat="44.0551035" lon="7.8887696"><ele>410.0</ele><time>2026-04-26T11:32:56.312Z</time></trkpt><trkpt lat="44.0549775" lon="7.8889097"><ele>406.0</ele><time>2026-04-26T11:32:57.321Z</time></trkpt><trkpt lat="44.0546826" lon="7.8891565"><ele>402.0</ele><time>2026-04-26T11:32:59.358Z</time></trkpt><trkpt lat="44.0544337" lon="7.8894014"><ele>402.0</ele><time>2026-04-26T11:33:01.195Z</time></trkpt><trkpt lat="44.0543014" lon="7.889582"><ele>402.0</ele><time>2026-04-26T11:33:02.343Z</time></trkpt><trkpt lat="44.0542088" lon="7.8898118"><ele>402.0</ele><time>2026-04-26T11:33:03.422Z</time></trkpt><trkpt lat="44.0540912" lon="7.8902428"><ele>397.0</ele><time>2026-04-26T11:33:05.217Z</time></trkpt><trkpt lat="44.0539934" lon="7.890437"><ele>392.0</ele><time>2026-04-26T11:33:06.178Z</time></trkpt><trkpt lat="44.0538781" lon="7.8906119"><ele>387.0</ele><time>2026-04-26T11:33:07.15Z</time></trkpt><trkpt lat="44.0537169" lon="7.8908144"><ele>388.5</ele><time>2026-04-26T11:33:08.302Z</time></trkpt><trkpt lat="44.0534828" lon="7.8911154"><ele>390.0</ele><time>2026-04-26T11:33:10.142Z</time></trkpt><trkpt lat="44.0533259" lon="7.8913181"><ele>383.3333333333333</ele><time>2026-04-26T11:33:11.442Z</time></trkpt><trkpt lat="44.0532187" lon="7.8914642"><ele>376.66666666666663</ele><time>2026-04-26T11:33:12.436Z</time></trkpt><trkpt lat="44.0531042" lon="7.8917283"><ele>370.0</ele><time>2026-04-26T11:33:14.069Z</time></trkpt><trkpt lat="44.0530556" lon="7.8919054"><ele>369.0</ele><time>2026-04-26T11:33:15.176Z</time></trkpt><trkpt lat="44.0530418" lon="7.8920972"><ele>368.0</ele><time>2026-04-26T11:33:16.401Z</time></trkpt><trkpt lat="44.053131" lon="7.8924311"><ele>367.0</ele><time>2026-04-26T11:33:18.46Z</time></trkpt><trkpt lat="44.0532712" lon="7.8926642"><ele>361.3333333333333</ele><time>2026-04-26T11:33:20.306Z</time></trkpt><trkpt lat="44.0532336" lon="7.8929194"><ele>355.6666666666667</ele><time>2026-04-26T11:33:22.34Z</time></trkpt><trkpt lat="44.0530844" lon="7.8930203"><ele>350.0</ele><time>2026-04-26T11:33:23.384Z</time></trkpt><trkpt lat="44.0529158" lon="7.8932663"><ele>346.33333333333337</ele><time>2026-04-26T11:33:25.173Z</time></trkpt><trkpt lat="44.0528494" lon="7.8934374"><ele>342.6666666666667</ele><time>2026-04-26T11:33:26.134Z</time></trkpt><trkpt lat="44.0528021" lon="7.8936373"><ele>339.0</ele><time>2026-04-26T11:33:27.242Z</time></trkpt><trkpt lat="44.0529211" lon="7.8940813"><ele>335.6666666666667</ele><time>2026-04-26T11:33:29.235Z</time></trkpt><trkpt lat="44.0531532" lon="7.8942702"><ele>332.33333333333337</ele><time>2026-04-26T11:33:30.095Z</time></trkpt><trkpt lat="44.0532258" lon="7.8944474"><ele>329.0</ele><time>2026-04-26T11:33:31.025Z</time></trkpt><trkpt lat="44.0532931" lon="7.8946309"><ele>339.6666666666667</ele><time>2026-04-26T11:33:32.07Z</time></trkpt><trkpt lat="44.0533474" lon="7.8947973"><ele>350.3333333333333</ele><time>2026-04-26T11:33:33.046Z</time></trkpt><trkpt lat="44.0534037" lon="7.8950192"><ele>361.0</ele><time>2026-04-26T11:33:34.187Z</time></trkpt><trkpt lat="44.0533448" lon="7.8952632"><ele>351.66666666666663</ele><time>2026-04-26T11:33:36.008Z</time></trkpt><trkpt lat="44.0532751" lon="7.8954348"><ele>342.3333333333333</ele><time>2026-04-26T11:33:37.149Z</time></trkpt><trkpt lat="44.052998" lon="7.8955429"><ele>333.0</ele><time>2026-04-26T11:33:39.096Z</time></trkpt><trkpt lat="44.0529013" lon="7.8956459"><ele>333.0</ele><time>2026-04-26T11:33:40.058Z</time></trkpt><trkpt lat="44.0528086" lon="7.8958427"><ele>333.0</ele><time>2026-04-26T11:33:41.133Z</time></trkpt><trkpt lat="44.052725" lon="7.8961023"><ele>333.0</ele><time>2026-04-26T11:33:42.257Z</time></trkpt><trkpt lat="44.0527224" lon="7.8966032"><ele>339.0</ele><time>2026-04-26T11:33:44.037Z</time></trkpt><trkpt lat="44.0526804" lon="7.8969397"><ele>345.0</ele><time>2026-04-26T11:33:45.332Z</time></trkpt><trkpt lat="44.0525313" lon="7.8973855"><ele>331.5</ele><time>2026-04-26T11:33:47.103Z</time></trkpt><trkpt lat="44.0524133" lon="7.8976577"><ele>318.0</ele><time>2026-04-26T11:33:48.146Z</time></trkpt><trkpt lat="44.052285" lon="7.8979264"><ele>320.5</ele><time>2026-04-26T11:33:49.181Z</time></trkpt><trkpt lat="44.0520455" lon="7.8984267"><ele>323.0</ele><time>2026-04-26T11:33:51.167Z</time></trkpt><trkpt lat="44.0518271" lon="7.8989151"><ele>323.0</ele><time>2026-04-26T11:33:53.132Z</time></trkpt><trkpt lat="44.0517553" lon="7.8991991"><ele>323.0</ele><time>2026-04-26T11:33:54.134Z</time></trkpt><trkpt lat="44.0517009" lon="7.8995505"><ele>292.0</ele><time>2026-04-26T11:33:55.276Z</time></trkpt><trkpt lat="44.0515959" lon="7.900212"><ele>292.0</ele><time>2026-04-26T11:33:57.376Z</time></trkpt><trkpt lat="44.0514288" lon="7.9008123"><ele>298.5</ele><time>2026-04-26T11:33:59.368Z</time></trkpt><trkpt lat="44.0512349" lon="7.9013169"><ele>305.0</ele><time>2026-04-26T11:34:01.127Z</time></trkpt><trkpt lat="44.0511061" lon="7.9016052"><ele>310.0</ele><time>2026-04-26T11:34:02.233Z</time></trkpt><trkpt lat="44.0509749" lon="7.9018756"><ele>315.0</ele><time>2026-04-26T11:34:03.356Z</time></trkpt><trkpt lat="44.0507755" lon="7.9023242"><ele>304.6666666666667</ele><time>2026-04-26T11:34:05.281Z</time></trkpt><trkpt lat="44.0506983" lon="7.9025231"><ele>294.33333333333337</ele><time>2026-04-26T11:34:06.197Z</time></trkpt><trkpt lat="44.0506168" lon="7.9027249"><ele>284.0</ele><time>2026-04-26T11:34:07.243Z</time></trkpt><trkpt lat="44.0504322" lon="7.9030677"><ele>284.0</ele><time>2026-04-26T11:34:09.171Z</time></trkpt><trkpt lat="44.0501848" lon="7.9033876"><ele>284.0</ele><time>2026-04-26T11:34:11.025Z</time></trkpt><trkpt lat="44.050043" lon="7.9035738"><ele>280.0</ele><time>2026-04-26T11:34:12.059Z</time></trkpt><trkpt lat="44.0499151" lon="7.90375"><ele>276.0</ele><time>2026-04-26T11:34:12.964Z</time></trkpt><trkpt lat="44.0497496" lon="7.9039652"><ele>272.0</ele><time>2026-04-26T11:34:14.059Z</time></trkpt><trkpt lat="44.0495636" lon="7.9041389"><ele>269.5</ele><time>2026-04-26T11:34:15.076Z</time></trkpt><trkpt lat="44.049353" lon="7.9042925"><ele>267.0</ele><time>2026-04-26T11:34:16.152Z</time></trkpt><trkpt lat="44.0491274" lon="7.9044219"><ele>300.0</ele><time>2026-04-26T11:34:17.176Z</time></trkpt><trkpt lat="44.0486644" lon="7.9046765"><ele>300.0</ele><time>2026-04-26T11:34:19.097Z</time></trkpt><trkpt lat="44.0484062" lon="7.9048251"><ele>300.0</ele><time>2026-04-26T11:34:20.142Z</time></trkpt><trkpt lat="44.0479391" lon="7.9050975"><ele>318.0</ele><time>2026-04-26T11:34:22.006Z</time></trkpt><trkpt lat="44.0476848" lon="7.9052501"><ele>336.0</ele><time>2026-04-26T11:34:23.021Z</time></trkpt><trkpt lat="44.0474559" lon="7.9054025"><ele>361.5</ele><time>2026-04-26T11:34:23.957Z</time></trkpt><trkpt lat="44.0472107" lon="7.9056018"><ele>387.0</ele><time>2026-04-26T11:34:25.007Z</time></trkpt><trkpt lat="44.0470742" lon="7.9057778"><ele>246.0</ele><time>2026-04-26T11:34:30.961Z</time></trkpt><trkpt lat="44.0387083" lon="7.923538"><ele>246.0</ele><time>2026-04-26T11:35:20.724Z</time></trkpt><trkpt lat="44.0386114" lon="7.9236902"><ele>246.0</ele><time>2026-04-26T11:35:21.724Z</time></trkpt><trkpt lat="44.0385072" lon="7.92385"><ele>246.0</ele><time>2026-04-26T11:35:22.724Z</time></trkpt><trkpt lat="44.0383964" lon="7.9240344"><ele>248.0</ele><time>2026-04-26T11:35:23.724Z</time></trkpt><trkpt lat="44.0382991" lon="7.9242523"><ele>250.0</ele><time>2026-04-26T11:35:24.724Z</time></trkpt><trkpt lat="44.0381813" lon="7.9245613"><ele>252.0</ele><time>2026-04-26T11:35:26.167Z</time></trkpt><trkpt lat="44.0379297" lon="7.9251464"><ele>246.0</ele><time>2026-04-26T11:35:28.127Z</time></trkpt><trkpt lat="44.0377786" lon="7.925493"><ele>240.0</ele><time>2026-04-26T11:35:29.305Z</time></trkpt><trkpt lat="44.0375401" lon="7.926077"><ele>237.0</ele><time>2026-04-26T11:35:31.285Z</time></trkpt><trkpt lat="44.0373189" lon="7.9265972"><ele>234.0</ele><time>2026-04-26T11:35:33.083Z</time></trkpt><trkpt lat="44.0371976" lon="7.9268846"><ele>230.0</ele><time>2026-04-26T11:35:34.133Z</time></trkpt><trkpt lat="44.0370869" lon="7.9271461"><ele>226.0</ele><time>2026-04-26T11:35:35.085Z</time></trkpt><trkpt lat="44.0369594" lon="7.9274404"><ele>226.0</ele><time>2026-04-26T11:35:36.165Z</time></trkpt><trkpt lat="44.0368457" lon="7.9276979"><ele>226.0</ele><time>2026-04-26T11:35:37.133Z</time></trkpt><trkpt lat="44.036731" lon="7.9279529"><ele>226.0</ele><time>2026-04-26T11:35:38.126Z</time></trkpt><trkpt lat="44.0366162" lon="7.9282152"><ele>248.0</ele><time>2026-04-26T11:35:39.161Z</time></trkpt><trkpt lat="44.0364263" lon="7.928683"><ele>270.0</ele><time>2026-04-26T11:35:41.22Z</time></trkpt><trkpt lat="44.0363809" lon="7.9289021"><ele>285.5</ele><time>2026-04-26T11:35:42.182Z</time></trkpt><trkpt lat="44.0363646" lon="7.9293745"><ele>301.0</ele><time>2026-04-26T11:35:44.048Z</time></trkpt><trkpt lat="44.0364422" lon="7.9297948"><ele>301.0</ele><time>2026-04-26T11:35:45.724Z</time></trkpt><trkpt lat="44.0365246" lon="7.9300072"><ele>301.0</ele><time>2026-04-26T11:35:46.724Z</time></trkpt><trkpt lat="44.0366324" lon="7.9302005"><ele>301.0</ele><time>2026-04-26T11:35:47.724Z</time></trkpt><trkpt lat="44.0367618" lon="7.9304063"><ele>304.0</ele><time>2026-04-26T11:35:48.724Z</time></trkpt><trkpt lat="44.0369024" lon="7.9306393"><ele>307.0</ele><time>2026-04-26T11:35:49.724Z</time></trkpt><trkpt lat="44.0369878" lon="7.9309385"><ele>307.0</ele><time>2026-04-26T11:35:51.073Z</time></trkpt><trkpt lat="44.0371013" lon="7.9312523"><ele>307.0</ele><time>2026-04-26T11:35:52.164Z</time></trkpt><trkpt lat="44.037272" lon="7.9315638"><ele>293.0</ele><time>2026-04-26T11:35:53.193Z</time></trkpt><trkpt lat="44.0374784" lon="7.9320681"><ele>279.0</ele><time>2026-04-26T11:35:55.106Z</time></trkpt><trkpt lat="44.0375921" lon="7.9323895"><ele>278.5</ele><time>2026-04-26T11:35:56.257Z</time></trkpt><trkpt lat="44.0376845" lon="7.9326656"><ele>278.0</ele><time>2026-04-26T11:35:57.255Z</time></trkpt><trkpt lat="44.0376481" lon="7.9330675"><ele>278.0</ele><time>2026-04-26T11:35:59.096Z</time></trkpt><trkpt lat="44.0376189" lon="7.9333413"><ele>278.0</ele><time>2026-04-26T11:36:00.161Z</time></trkpt><trkpt lat="44.0375457" lon="7.933575"><ele>278.0</ele><time>2026-04-26T11:36:01.142Z</time></trkpt><trkpt lat="44.0375116" lon="7.9337793"><ele>275.0</ele><time>2026-04-26T11:36:02.042Z</time></trkpt><trkpt lat="44.0374715" lon="7.9340346"><ele>272.0</ele><time>2026-04-26T11:36:03.144Z</time></trkpt><trkpt lat="44.0374463" lon="7.9341568"><ele>269.0</ele><time>2026-04-26T11:36:04.165Z</time></trkpt><trkpt lat="44.0373792" lon="7.9343518"><ele>266.0</ele><time>2026-04-26T11:36:05.114Z</time></trkpt><trkpt lat="44.0373197" lon="7.9346167"><ele>281.0</ele><time>2026-04-26T11:36:06.121Z</time></trkpt><trkpt lat="44.0371288" lon="7.9349772"><ele>296.0</ele><time>2026-04-26T11:36:07.093Z</time></trkpt><trkpt lat="44.0365612" lon="7.9356558"><ele>302.5</ele><time>2026-04-26T11:36:07.998Z</time></trkpt><trkpt lat="44.0364446" lon="7.9360226"><ele>309.0</ele><time>2026-04-26T11:36:09.113Z</time></trkpt><trkpt lat="44.0363439" lon="7.9363752"><ele>308.5</ele><time>2026-04-26T11:36:10.133Z</time></trkpt><trkpt lat="44.0362456" lon="7.9367262"><ele>308.0</ele><time>2026-04-26T11:36:11.13Z</time></trkpt><trkpt lat="44.0361026" lon="7.9372622"><ele>308.0</ele><time>2026-04-26T11:36:12.724Z</time></trkpt><trkpt lat="44.0360254" lon="7.937544"><ele>308.0</ele><time>2026-04-26T11:36:13.724Z</time></trkpt><trkpt lat="44.0359572" lon="7.937811"><ele>308.0</ele><time>2026-04-26T11:36:14.724Z</time></trkpt><trkpt lat="44.0358856" lon="7.938063"><ele>316.33333333333337</ele><time>2026-04-26T11:36:15.724Z</time></trkpt><trkpt lat="44.0357842" lon="7.9383247"><ele>324.6666666666667</ele><time>2026-04-26T11:36:17.053Z</time></trkpt><trkpt lat="44.0356671" lon="7.9385424"><ele>333.0</ele><time>2026-04-26T11:36:18.018Z</time></trkpt><trkpt lat="44.0355411" lon="7.9387596"><ele>333.0</ele><time>2026-04-26T11:36:19.113Z</time></trkpt><trkpt lat="44.0354052" lon="7.9389428"><ele>333.0</ele><time>2026-04-26T11:36:20.161Z</time></trkpt><trkpt lat="44.0352872" lon="7.9390795"><ele>333.0</ele><time>2026-04-26T11:36:21.084Z</time></trkpt><trkpt lat="44.0351443" lon="7.939214"><ele>334.5</ele><time>2026-04-26T11:36:22.1Z</time></trkpt><trkpt lat="44.0350017" lon="7.9393219"><ele>336.0</ele><time>2026-04-26T11:36:23.116Z</time></trkpt><trkpt lat="44.0347097" lon="7.9394649"><ele>336.0</ele><time>2026-04-26T11:36:25.095Z</time></trkpt><trkpt lat="44.0344128" lon="7.9395251"><ele>336.0</ele><time>2026-04-26T11:36:26.922Z</time></trkpt><trkpt lat="44.0330767" lon="7.939524"><ele>323.5</ele><time>2026-04-26T11:36:33.029Z</time></trkpt><trkpt lat="44.0328509" lon="7.93955"><ele>311.0</ele><time>2026-04-26T11:36:34.116Z</time></trkpt><trkpt lat="44.0325573" lon="7.9395847"><ele>316.0</ele><time>2026-04-26T11:36:35.302Z</time></trkpt><trkpt lat="44.0322964" lon="7.939616"><ele>321.0</ele><time>2026-04-26T11:36:36.313Z</time></trkpt><trkpt lat="44.0320784" lon="7.9396145"><ele>321.0</ele><time>2026-04-26T11:36:37.173Z</time></trkpt><trkpt lat="44.0318265" lon="7.9396193"><ele>321.0</ele><time>2026-04-26T11:36:38.155Z</time></trkpt><trkpt lat="44.031526" lon="7.9395923"><ele>327.0</ele><time>2026-04-26T11:36:39.322Z</time></trkpt><trkpt lat="44.031006" lon="7.9395911"><ele>322.5</ele><time>2026-04-26T11:36:41.363Z</time></trkpt><trkpt lat="44.0305784" lon="7.9395876"><ele>318.0</ele><time>2026-04-26T11:36:43.023Z</time></trkpt><trkpt lat="44.0302999" lon="7.93956"><ele>318.0</ele><time>2026-04-26T11:36:44.089Z</time></trkpt><trkpt lat="44.0300764" lon="7.9395706"><ele>318.0</ele><time>2026-04-26T11:36:45.028Z</time></trkpt><trkpt lat="44.0298156" lon="7.9395896"><ele>320.0</ele><time>2026-04-26T11:36:46.122Z</time></trkpt><trkpt lat="44.0295734" lon="7.9396151"><ele>322.0</ele><time>2026-04-26T11:36:47.129Z</time></trkpt><trkpt lat="44.0292985" lon="7.9396575"><ele>333.5</ele><time>2026-04-26T11:36:48.288Z</time></trkpt><trkpt lat="44.0288837" lon="7.9397489"><ele>345.0</ele><time>2026-04-26T11:36:50.003Z</time></trkpt><trkpt lat="44.0286162" lon="7.9398281"><ele>345.0</ele><time>2026-04-26T11:36:51.096Z</time></trkpt><trkpt lat="44.0283856" lon="7.9399092"><ele>345.0</ele><time>2026-04-26T11:36:52.038Z</time></trkpt><trkpt lat="44.0281161" lon="7.9400174"><ele>331.0</ele><time>2026-04-26T11:36:53.131Z</time></trkpt><trkpt lat="44.0278614" lon="7.9401314"><ele>317.0</ele><time>2026-04-26T11:36:54.203Z</time></trkpt><trkpt lat="44.0274519" lon="7.9403655"><ele>317.0</ele><time>2026-04-26T11:36:56.186Z</time></trkpt><trkpt lat="44.0272636" lon="7.9404716"><ele>317.0</ele><time>2026-04-26T11:36:57.137Z</time></trkpt><trkpt lat="44.0270693" lon="7.9406041"><ele>317.0</ele><time>2026-04-26T11:36:58.219Z</time></trkpt><trkpt lat="44.026741" lon="7.9408502"><ele>315.33333333333337</ele><time>2026-04-26T11:37:00.045Z</time></trkpt><trkpt lat="44.0265553" lon="7.9410029"><ele>313.6666666666667</ele><time>2026-04-26T11:37:01.04Z</time></trkpt><trkpt lat="44.0263797" lon="7.9411591"><ele>312.0</ele><time>2026-04-26T11:37:02.047Z</time></trkpt><trkpt lat="44.0262241" lon="7.9413066"><ele>312.0</ele><time>2026-04-26T11:37:03.018Z</time></trkpt><trkpt lat="44.026058" lon="7.9414742"><ele>312.0</ele><time>2026-04-26T11:37:04.128Z</time></trkpt><trkpt lat="44.0259188" lon="7.9416255"><ele>312.0</ele><time>2026-04-26T11:37:05.144Z</time></trkpt><trkpt lat="44.0257968" lon="7.9417699"><ele>307.25</ele><time>2026-04-26T11:37:06.136Z</time></trkpt><trkpt lat="44.0256862" lon="7.9419125"><ele>302.5</ele><time>2026-04-26T11:37:07.117Z</time></trkpt><trkpt lat="44.0255773" lon="7.9420617"><ele>297.75</ele><time>2026-04-26T11:37:08.158Z</time></trkpt><trkpt lat="44.025484" lon="7.9421903"><ele>293.0</ele><time>2026-04-26T11:37:09.169Z</time></trkpt><trkpt lat="44.0254057" lon="7.9422931"><ele>293.0</ele><time>2026-04-26T11:37:10.072Z</time></trkpt><trkpt lat="44.0253254" lon="7.9424041"><ele>293.0</ele><time>2026-04-26T11:37:10.99Z</time></trkpt><trkpt lat="44.025211" lon="7.9425797"><ele>293.0</ele><time>2026-04-26T11:37:12.132Z</time></trkpt><trkpt lat="44.0250943" lon="7.9427699"><ele>292.75</ele><time>2026-04-26T11:37:13.272Z</time></trkpt><trkpt lat="44.0250111" lon="7.942897"><ele>292.5</ele><time>2026-04-26T11:37:14.229Z</time></trkpt><trkpt lat="44.0249421" lon="7.9429984"><ele>292.25</ele><time>2026-04-26T11:37:15.171Z</time></trkpt><trkpt lat="44.0248543" lon="7.9431322"><ele>292.0</ele><time>2026-04-26T11:37:16.152Z</time></trkpt><trkpt lat="44.024745" lon="7.9433322"><ele>292.0</ele><time>2026-04-26T11:37:17.258Z</time></trkpt><trkpt lat="44.0245392" lon="7.9437282"><ele>292.0</ele><time>2026-04-26T11:37:19.114Z</time></trkpt><trkpt lat="44.0244104" lon="7.9439954"><ele>292.0</ele><time>2026-04-26T11:37:20.182Z</time></trkpt><trkpt lat="44.0243021" lon="7.9442077"><ele>292.0</ele><time>2026-04-26T11:37:21.091Z</time></trkpt><trkpt lat="44.0241747" lon="7.9444715"><ele>292.0</ele><time>2026-04-26T11:37:22.157Z</time></trkpt><trkpt lat="44.0239442" lon="7.9449983"><ele>300.5</ele><time>2026-04-26T11:37:24.097Z</time></trkpt><trkpt lat="44.0238267" lon="7.945259"><ele>309.0</ele><time>2026-04-26T11:37:25.062Z</time></trkpt><trkpt lat="44.0237033" lon="7.9455305"><ele>309.0</ele><time>2026-04-26T11:37:26.128Z</time></trkpt><trkpt lat="44.0235957" lon="7.9457605"><ele>309.0</ele><time>2026-04-26T11:37:27.038Z</time></trkpt><trkpt lat="44.0234728" lon="7.9460362"><ele>309.0</ele><time>2026-04-26T11:37:28.136Z</time></trkpt><trkpt lat="44.0233619" lon="7.9462953"><ele>316.5</ele><time>2026-04-26T11:37:29.127Z</time></trkpt><trkpt lat="44.023263" lon="7.946539"><ele>324.0</ele><time>2026-04-26T11:37:30.027Z</time></trkpt><trkpt lat="44.0231291" lon="7.9468433"><ele>324.0</ele><time>2026-04-26T11:37:31.16Z</time></trkpt><trkpt lat="44.0230171" lon="7.9470962"><ele>324.0</ele><time>2026-04-26T11:37:32.136Z</time></trkpt><trkpt lat="44.0229141" lon="7.9473349"><ele>324.0</ele><time>2026-04-26T11:37:33.05Z</time></trkpt><trkpt lat="44.0227884" lon="7.9476195"><ele>325.6666666666667</ele><time>2026-04-26T11:37:34.131Z</time></trkpt><trkpt lat="44.0226805" lon="7.9478609"><ele>327.33333333333337</ele><time>2026-04-26T11:37:35.065Z</time></trkpt><trkpt lat="44.0225653" lon="7.94811"><ele>329.0</ele><time>2026-04-26T11:37:36.033Z</time></trkpt><trkpt lat="44.0224334" lon="7.9483976"><ele>329.0</ele><time>2026-04-26T11:37:37.15Z</time></trkpt><trkpt lat="44.0223239" lon="7.9486463"><ele>329.0</ele><time>2026-04-26T11:37:38.097Z</time></trkpt><trkpt lat="44.0222053" lon="7.948916"><ele>329.0</ele><time>2026-04-26T11:37:39.077Z</time></trkpt><trkpt lat="44.0220623" lon="7.9492413"><ele>330.0</ele><time>2026-04-26T11:37:40.197Z</time></trkpt><trkpt lat="44.0219496" lon="7.9494963"><ele>331.0</ele><time>2026-04-26T11:37:41.052Z</time></trkpt><trkpt lat="44.0218224" lon="7.9498054"><ele>334.0</ele><time>2026-04-26T11:37:42.104Z</time></trkpt><trkpt lat="44.0217076" lon="7.9500752"><ele>337.0</ele><time>2026-04-26T11:37:43.071Z</time></trkpt><trkpt lat="44.0215929" lon="7.9503385"><ele>340.0</ele><time>2026-04-26T11:37:44.095Z</time></trkpt><trkpt lat="44.0214686" lon="7.9506197"><ele>360.0</ele><time>2026-04-26T11:37:45.171Z</time></trkpt><trkpt lat="44.0212332" lon="7.9511571"><ele>360.0</ele><time>2026-04-26T11:37:47.181Z</time></trkpt><trkpt lat="44.0210128" lon="7.9516622"><ele>360.0</ele><time>2026-04-26T11:37:49.101Z</time></trkpt><trkpt lat="44.0209036" lon="7.951904"><ele>350.0</ele><time>2026-04-26T11:37:50.052Z</time></trkpt><trkpt lat="44.0207984" lon="7.9521264"><ele>340.0</ele><time>2026-04-26T11:37:50.955Z</time></trkpt><trkpt lat="44.0206967" lon="7.9523715"><ele>330.0</ele><time>2026-04-26T11:37:51.925Z</time></trkpt><trkpt lat="44.009038" lon="7.9681112"><ele>330.0</ele><time>2026-04-26T11:39:04.729Z</time></trkpt><trkpt lat="44.0088264" lon="7.9683045"><ele>330.0</ele><time>2026-04-26T11:39:05.729Z</time></trkpt><trkpt lat="44.0086079" lon="7.968464"><ele>337.0</ele><time>2026-04-26T11:39:06.729Z</time></trkpt><trkpt lat="44.0083815" lon="7.9686415"><ele>344.0</ele><time>2026-04-26T11:39:07.729Z</time></trkpt><trkpt lat="44.0081122" lon="7.9688387"><ele>380.0</ele><time>2026-04-26T11:39:09.138Z</time></trkpt><trkpt lat="44.0076178" lon="7.9692161"><ele>371.0</ele><time>2026-04-26T11:39:11.065Z</time></trkpt><trkpt lat="44.0073859" lon="7.9693939"><ele>362.0</ele><time>2026-04-26T11:39:12.089Z</time></trkpt><trkpt lat="44.0071715" lon="7.9695366"><ele>362.0</ele><time>2026-04-26T11:39:13.079Z</time></trkpt><trkpt lat="44.0067711" lon="7.9698129"><ele>362.0</ele><time>2026-04-26T11:39:15.005Z</time></trkpt><trkpt lat="44.0065771" lon="7.9699724"><ele>377.5</ele><time>2026-04-26T11:39:15.981Z</time></trkpt><trkpt lat="44.0063802" lon="7.9701006"><ele>393.0</ele><time>2026-04-26T11:39:16.926Z</time></trkpt><trkpt lat="44.0026013" lon="7.9729165"><ele>336.5</ele><time>2026-04-26T11:39:34.729Z</time></trkpt><trkpt lat="44.0023918" lon="7.9730679"><ele>280.0</ele><time>2026-04-26T11:39:35.728Z</time></trkpt><trkpt lat="44.0021874" lon="7.9732372"><ele>287.5</ele><time>2026-04-26T11:39:36.729Z</time></trkpt><trkpt lat="44.0019458" lon="7.9734265"><ele>295.0</ele><time>2026-04-26T11:39:38.215Z</time></trkpt><trkpt lat="44.0016913" lon="7.9736226"><ele>318.0</ele><time>2026-04-26T11:39:39.393Z</time></trkpt><trkpt lat="44.0012475" lon="7.9739573"><ele>338.0</ele><time>2026-04-26T11:39:41.326Z</time></trkpt><trkpt lat="44.0008478" lon="7.9742674"><ele>344.5</ele><time>2026-04-26T11:39:43.21Z</time></trkpt><trkpt lat="44.0006465" lon="7.9744152"><ele>351.0</ele><time>2026-04-26T11:39:44.182Z</time></trkpt><trkpt lat="44.0003054" lon="7.9746708"><ele>351.0</ele><time>2026-04-26T11:39:45.959Z</time></trkpt><trkpt lat="44.0001271" lon="7.9748066"><ele>351.0</ele><time>2026-04-26T11:39:46.903Z</time></trkpt><trkpt lat="43.9999525" lon="7.9749428"><ele>351.0</ele><time>2026-04-26T11:39:47.839Z</time></trkpt><trkpt lat="43.9956048" lon="7.9749834"><ele>331.0</ele><time>2026-04-26T11:40:09.094Z</time></trkpt><trkpt lat="43.9954123" lon="7.9748282"><ele>311.0</ele><time>2026-04-26T11:40:10.174Z</time></trkpt><trkpt lat="43.9952184" lon="7.9746467"><ele>311.0</ele><time>2026-04-26T11:40:11.246Z</time></trkpt><trkpt lat="43.9950307" lon="7.9744669"><ele>311.0</ele><time>2026-04-26T11:40:12.242Z</time></trkpt><trkpt lat="43.994623" lon="7.9740635"><ele>312.0</ele><time>2026-04-26T11:40:14.289Z</time></trkpt><trkpt lat="43.9944287" lon="7.9738731"><ele>313.0</ele><time>2026-04-26T11:40:15.215Z</time></trkpt><trkpt lat="43.9941979" lon="7.9736579"><ele>310.5</ele><time>2026-04-26T11:40:16.276Z</time></trkpt><trkpt lat="43.9939861" lon="7.9734715"><ele>308.0</ele><time>2026-04-26T11:40:17.251Z</time></trkpt><trkpt lat="43.9937901" lon="7.9732975"><ele>308.0</ele><time>2026-04-26T11:40:18.206Z</time></trkpt><trkpt lat="43.9935828" lon="7.9731069"><ele>308.0</ele><time>2026-04-26T11:40:19.263Z</time></trkpt><trkpt lat="43.9934155" lon="7.972958"><ele>308.0</ele><time>2026-04-26T11:40:20.177Z</time></trkpt><trkpt lat="43.993258" lon="7.972804"><ele>311.0</ele><time>2026-04-26T11:40:21.095Z</time></trkpt><trkpt lat="43.993089" lon="7.9726422"><ele>314.0</ele><time>2026-04-26T11:40:22.106Z</time></trkpt><trkpt lat="43.9929227" lon="7.9724823"><ele>317.0</ele><time>2026-04-26T11:40:23.134Z</time></trkpt><trkpt lat="43.9927616" lon="7.972315"><ele>311.0</ele><time>2026-04-26T11:40:24.215Z</time></trkpt><trkpt lat="43.9924947" lon="7.9719512"><ele>305.0</ele><time>2026-04-26T11:40:26.192Z</time></trkpt><trkpt lat="43.9923756" lon="7.9717498"><ele>299.5</ele><time>2026-04-26T11:40:27.191Z</time></trkpt><trkpt lat="43.9921548" lon="7.9714018"><ele>294.0</ele><time>2026-04-26T11:40:29.115Z</time></trkpt><trkpt lat="43.9920278" lon="7.9712434"><ele>294.0</ele><time>2026-04-26T11:40:30.136Z</time></trkpt><trkpt lat="43.9919011" lon="7.9711111"><ele>294.0</ele><time>2026-04-26T11:40:31.055Z</time></trkpt><trkpt lat="43.9917201" lon="7.9709694"><ele>294.0</ele><time>2026-04-26T11:40:32.221Z</time></trkpt><trkpt lat="43.9913773" lon="7.9707986"><ele>292.6666666666667</ele><time>2026-04-26T11:40:34.152Z</time></trkpt><trkpt lat="43.9911935" lon="7.9707474"><ele>291.33333333333337</ele><time>2026-04-26T11:40:35.139Z</time></trkpt><trkpt lat="43.9909788" lon="7.9707252"><ele>290.0</ele><time>2026-04-26T11:40:36.273Z</time></trkpt><trkpt lat="43.9905721" lon="7.9707764"><ele>290.0</ele><time>2026-04-26T11:40:38.163Z</time></trkpt><trkpt lat="43.9903419" lon="7.9708366"><ele>290.0</ele><time>2026-04-26T11:40:39.111Z</time></trkpt><trkpt lat="43.9900927" lon="7.9709003"><ele>293.5</ele><time>2026-04-26T11:40:40.108Z</time></trkpt><trkpt lat="43.9898283" lon="7.970957"><ele>297.0</ele><time>2026-04-26T11:40:41.197Z</time></trkpt><trkpt lat="43.9896174" lon="7.9710004"><ele>297.0</ele><time>2026-04-26T11:40:42.132Z</time></trkpt><trkpt lat="43.9894098" lon="7.9710244"><ele>297.0</ele><time>2026-04-26T11:40:43.098Z</time></trkpt><trkpt lat="43.9891938" lon="7.9710252"><ele>297.0</ele><time>2026-04-26T11:40:44.129Z</time></trkpt><trkpt lat="43.9889965" lon="7.9709971"><ele>296.5</ele><time>2026-04-26T11:40:45.091Z</time></trkpt><trkpt lat="43.9887797" lon="7.9709353"><ele>296.0</ele><time>2026-04-26T11:40:46.138Z</time></trkpt><trkpt lat="43.9885348" lon="7.9708194"><ele>287.5</ele><time>2026-04-26T11:40:47.23Z</time></trkpt><trkpt lat="43.9883129" lon="7.9706817"><ele>279.0</ele><time>2026-04-26T11:40:48.191Z</time></trkpt><trkpt lat="43.9878513" lon="7.970375"><ele>279.0</ele><time>2026-04-26T11:40:50.095Z</time></trkpt><trkpt lat="43.9876187" lon="7.9702291"><ele>279.0</ele><time>2026-04-26T11:40:51.095Z</time></trkpt><trkpt lat="43.9873936" lon="7.9701149"><ele>282.0</ele><time>2026-04-26T11:40:52.082Z</time></trkpt><trkpt lat="43.9871055" lon="7.9700561"><ele>285.0</ele><time>2026-04-26T11:40:53.19Z</time></trkpt><trkpt lat="43.986831" lon="7.9700411"><ele>286.5</ele><time>2026-04-26T11:40:54.177Z</time></trkpt><trkpt lat="43.9865283" lon="7.9700817"><ele>288.0</ele><time>2026-04-26T11:40:55.182Z</time></trkpt><trkpt lat="43.9859285" lon="7.9701734"><ele>284.0</ele><time>2026-04-26T11:40:57.144Z</time></trkpt><trkpt lat="43.9856015" lon="7.9702213"><ele>280.0</ele><time>2026-04-26T11:40:58.26Z</time></trkpt><trkpt lat="43.9853231" lon="7.9702704"><ele>280.0</ele><time>2026-04-26T11:40:59.256Z</time></trkpt><trkpt lat="43.9850776" lon="7.9703467"><ele>280.0</ele><time>2026-04-26T11:41:00.195Z</time></trkpt><trkpt lat="43.9848118" lon="7.9704702"><ele>269.0</ele><time>2026-04-26T11:41:01.252Z</time></trkpt><trkpt lat="43.9845914" lon="7.9706083"><ele>258.0</ele><time>2026-04-26T11:41:02.191Z</time></trkpt><trkpt lat="43.98435" lon="7.9708114"><ele>252.5</ele><time>2026-04-26T11:41:03.303Z</time></trkpt><trkpt lat="43.9841782" lon="7.9710468"><ele>247.0</ele><time>2026-04-26T11:41:04.285Z</time></trkpt><trkpt lat="43.9840179" lon="7.9713335"><ele>247.0</ele><time>2026-04-26T11:41:05.303Z</time></trkpt><trkpt lat="43.9838789" lon="7.9716251"><ele>247.0</ele><time>2026-04-26T11:41:06.236Z</time></trkpt><trkpt lat="43.9837362" lon="7.9718836"><ele>249.5</ele><time>2026-04-26T11:41:07.173Z</time></trkpt><trkpt lat="43.9835621" lon="7.9721632"><ele>252.0</ele><time>2026-04-26T11:41:08.286Z</time></trkpt><trkpt lat="43.9833643" lon="7.9723959"><ele>243.0</ele><time>2026-04-26T11:41:09.324Z</time></trkpt><trkpt lat="43.98295" lon="7.9727097"><ele>238.0</ele><time>2026-04-26T11:41:11.246Z</time></trkpt><trkpt lat="43.9824447" lon="7.9728385"><ele>238.0</ele><time>2026-04-26T11:41:13.331Z</time></trkpt><trkpt lat="43.9819434" lon="7.9727829"><ele>238.0</ele><time>2026-04-26T11:41:15.322Z</time></trkpt><trkpt lat="43.9817208" lon="7.9726844"><ele>238.0</ele><time>2026-04-26T11:41:16.258Z</time></trkpt><trkpt lat="43.9814522" lon="7.9725307"><ele>222.0</ele><time>2026-04-26T11:41:17.288Z</time></trkpt><trkpt lat="43.9808892" lon="7.9721761"><ele>227.0</ele><time>2026-04-26T11:41:19.336Z</time></trkpt><trkpt lat="43.9803505" lon="7.9718575"><ele>227.0</ele><time>2026-04-26T11:41:21.246Z</time></trkpt><trkpt lat="43.9800811" lon="7.9716972"><ele>227.0</ele><time>2026-04-26T11:41:22.228Z</time></trkpt><trkpt lat="43.9795363" lon="7.9713895"><ele>227.5</ele><time>2026-04-26T11:41:24.261Z</time></trkpt><trkpt lat="43.9792984" lon="7.97124"><ele>228.0</ele><time>2026-04-26T11:41:25.199Z</time></trkpt><trkpt lat="43.9788409" lon="7.970991"><ele>228.0</ele><time>2026-04-26T11:41:27.146Z</time></trkpt><trkpt lat="43.978584" lon="7.9709092"><ele>228.0</ele><time>2026-04-26T11:41:28.176Z</time></trkpt><trkpt lat="43.9783724" lon="7.9708579"><ele>229.5</ele><time>2026-04-26T11:41:29.1Z</time></trkpt><trkpt lat="43.9781238" lon="7.9708451"><ele>231.0</ele><time>2026-04-26T11:41:30.087Z</time></trkpt><trkpt lat="43.9779101" lon="7.9709256"><ele>231.0</ele><time>2026-04-26T11:41:31.002Z</time></trkpt><trkpt lat="43.9776497" lon="7.9710858"><ele>231.0</ele><time>2026-04-26T11:41:32.07Z</time></trkpt><trkpt lat="43.9774013" lon="7.9713394"><ele>236.0</ele><time>2026-04-26T11:41:33.101Z</time></trkpt><trkpt lat="43.9771834" lon="7.9715717"><ele>241.0</ele><time>2026-04-26T11:41:34.036Z</time></trkpt><trkpt lat="43.9769481" lon="7.9718104"><ele>241.0</ele><time>2026-04-26T11:41:35.105Z</time></trkpt><trkpt lat="43.9767682" lon="7.9719773"><ele>241.0</ele><time>2026-04-26T11:41:36.019Z</time></trkpt><trkpt lat="43.9765666" lon="7.9721665"><ele>234.5</ele><time>2026-04-26T11:41:37.075Z</time></trkpt><trkpt lat="43.9763859" lon="7.9723444"><ele>228.0</ele><time>2026-04-26T11:41:38.036Z</time></trkpt><trkpt lat="43.9761981" lon="7.9725558"><ele>228.0</ele><time>2026-04-26T11:41:39.122Z</time></trkpt><trkpt lat="43.9760474" lon="7.9727773"><ele>228.0</ele><time>2026-04-26T11:41:40.126Z</time></trkpt><trkpt lat="43.9759108" lon="7.9730379"><ele>210.5</ele><time>2026-04-26T11:41:41.094Z</time></trkpt><trkpt lat="43.9757484" lon="7.9733479"><ele>193.0</ele><time>2026-04-26T11:41:42.302Z</time></trkpt><trkpt lat="43.9754891" lon="7.9739295"><ele>204.0</ele><time>2026-04-26T11:41:44.446Z</time></trkpt><trkpt lat="43.9753572" lon="7.9745073"><ele>215.0</ele><time>2026-04-26T11:41:46.302Z</time></trkpt><trkpt lat="43.9753157" lon="7.9748365"><ele>226.5</ele><time>2026-04-26T11:41:47.24Z</time></trkpt><trkpt lat="43.9752969" lon="7.9751983"><ele>238.0</ele><time>2026-04-26T11:41:48.254Z</time></trkpt><trkpt lat="43.9753094" lon="7.9759011"><ele>260.0</ele><time>2026-04-26T11:41:50.236Z</time></trkpt><trkpt lat="43.9753451" lon="7.9765623"><ele>270.0</ele><time>2026-04-26T11:41:51.992Z</time></trkpt><trkpt lat="43.975363" lon="7.9769237"><ele>280.0</ele><time>2026-04-26T11:41:52.959Z</time></trkpt><trkpt lat="43.9741788" lon="7.9812471"><ele>242.5</ele><time>2026-04-26T11:42:06.729Z</time></trkpt><trkpt lat="43.9739849" lon="7.9815215"><ele>205.0</ele><time>2026-04-26T11:42:07.729Z</time></trkpt><trkpt lat="43.9737986" lon="7.9817875"><ele>205.0</ele><time>2026-04-26T11:42:08.729Z</time></trkpt><trkpt lat="43.9735811" lon="7.9820518"><ele>205.0</ele><time>2026-04-26T11:42:10.053Z</time></trkpt><trkpt lat="43.9731904" lon="7.9824603"><ele>139.0</ele><time>2026-04-26T11:42:11.885Z</time></trkpt><trkpt lat="43.962541" lon="7.9908501"><ele>146.0</ele><time>2026-04-26T11:43:01.729Z</time></trkpt><trkpt lat="43.962296" lon="7.9908746"><ele>153.0</ele><time>2026-04-26T11:43:02.729Z</time></trkpt><trkpt lat="43.9620513" lon="7.990899"><ele>153.0</ele><time>2026-04-26T11:43:03.729Z</time></trkpt><trkpt lat="43.9618053" lon="7.9909205"><ele>153.0</ele><time>2026-04-26T11:43:04.729Z</time></trkpt><trkpt lat="43.9615333" lon="7.990971"><ele>148.5</ele><time>2026-04-26T11:43:06.194Z</time></trkpt><trkpt lat="43.9612717" lon="7.9910458"><ele>144.0</ele><time>2026-04-26T11:43:07.212Z</time></trkpt><trkpt lat="43.9610383" lon="7.9911307"><ele>134.0</ele><time>2026-04-26T11:43:08.129Z</time></trkpt><trkpt lat="43.9608064" lon="7.9912606"><ele>124.0</ele><time>2026-04-26T11:43:09.141Z</time></trkpt><trkpt lat="43.9605293" lon="7.991432"><ele>142.0</ele><time>2026-04-26T11:43:10.31Z</time></trkpt><trkpt lat="43.9601356" lon="7.9917804"><ele>131.0</ele><time>2026-04-26T11:43:12.18Z</time></trkpt><trkpt lat="43.9599548" lon="7.9919717"><ele>120.0</ele><time>2026-04-26T11:43:13.109Z</time></trkpt><trkpt lat="43.9597364" lon="7.9922098"><ele>120.0</ele><time>2026-04-26T11:43:14.227Z</time></trkpt><trkpt lat="43.9595601" lon="7.9924028"><ele>120.0</ele><time>2026-04-26T11:43:15.147Z</time></trkpt><trkpt lat="43.9593456" lon="7.9926352"><ele>122.5</ele><time>2026-04-26T11:43:16.277Z</time></trkpt><trkpt lat="43.9591646" lon="7.9928292"><ele>125.0</ele><time>2026-04-26T11:43:17.202Z</time></trkpt><trkpt lat="43.9587607" lon="7.9932589"><ele>119.5</ele><time>2026-04-26T11:43:19.246Z</time></trkpt><trkpt lat="43.958671" lon="7.993355"><ele>114.0</ele><time>2026-04-26T11:43:20.852Z</time></trkpt><trkpt lat="43.9581875" lon="7.9939458"><ele>121.0</ele><time>2026-04-26T11:43:22.426Z</time></trkpt><trkpt lat="43.9579265" lon="7.9945027"><ele>129.0</ele><time>2026-04-26T11:43:24.422Z</time></trkpt><trkpt lat="43.9578081" lon="7.9951511"><ele>129.0</ele><time>2026-04-26T11:43:26.437Z</time></trkpt><trkpt lat="43.9576908" lon="7.9957286"><ele>129.0</ele><time>2026-04-26T11:43:28.258Z</time></trkpt><trkpt lat="43.9576281" lon="7.9960183"><ele>126.5</ele><time>2026-04-26T11:43:29.16Z</time></trkpt><trkpt lat="43.95754" lon="7.9963888"><ele>124.0</ele><time>2026-04-26T11:43:30.293Z</time></trkpt><trkpt lat="43.9573789" lon="7.9970161"><ele>169.0</ele><time>2026-04-26T11:43:32.275Z</time></trkpt><trkpt lat="43.9571458" lon="7.9975706"><ele>169.0</ele><time>2026-04-26T11:43:34.244Z</time></trkpt><trkpt lat="43.9568543" lon="7.9980721"><ele>97.0</ele><time>2026-04-26T11:43:36.16Z</time></trkpt><trkpt lat="43.9514599" lon="8.0017602"><ele>97.0</ele><time>2026-04-26T11:44:05.729Z</time></trkpt><trkpt lat="43.9512282" lon="8.0017099"><ele>97.0</ele><time>2026-04-26T11:44:06.729Z</time></trkpt><trkpt lat="43.9509927" lon="8.0016452"><ele>92.5</ele><time>2026-04-26T11:44:07.729Z</time></trkpt><trkpt lat="43.9507641" lon="8.0015636"><ele>88.0</ele><time>2026-04-26T11:44:08.729Z</time></trkpt><trkpt lat="43.9505115" lon="8.0015063"><ele>88.0</ele><time>2026-04-26T11:44:09.729Z</time></trkpt><trkpt lat="43.950215" lon="8.0014415"><ele>88.0</ele><time>2026-04-26T11:44:11.301Z</time></trkpt><trkpt lat="43.9499101" lon="8.0013817"><ele>90.0</ele><time>2026-04-26T11:44:12.374Z</time></trkpt><trkpt lat="43.9496302" lon="8.0013225"><ele>92.0</ele><time>2026-04-26T11:44:13.333Z</time></trkpt><trkpt lat="43.949165" lon="8.0012117"><ele>98.0</ele><time>2026-04-26T11:44:15.152Z</time></trkpt><trkpt lat="43.9489189" lon="8.0011522"><ele>104.0</ele><time>2026-04-26T11:44:16.172Z</time></trkpt><trkpt lat="43.9486808" lon="8.0011002"><ele>104.0</ele><time>2026-04-26T11:44:17.172Z</time></trkpt><trkpt lat="43.9484398" lon="8.0010407"><ele>104.0</ele><time>2026-04-26T11:44:18.174Z</time></trkpt><trkpt lat="43.948213" lon="8.0009851"><ele>101.0</ele><time>2026-04-26T11:44:19.121Z</time></trkpt><trkpt lat="43.9479671" lon="8.0009233"><ele>98.0</ele><time>2026-04-26T11:44:20.132Z</time></trkpt><trkpt lat="43.9477183" lon="8.0008473"><ele>103.0</ele><time>2026-04-26T11:44:21.16Z</time></trkpt><trkpt lat="43.9474908" lon="8.0007642"><ele>108.0</ele><time>2026-04-26T11:44:22.105Z</time></trkpt><trkpt lat="43.9472669" lon="8.000673"><ele>108.0</ele><time>2026-04-26T11:44:23.039Z</time></trkpt><trkpt lat="43.946988" lon="8.0005422"><ele>108.0</ele><time>2026-04-26T11:44:24.207Z</time></trkpt><trkpt lat="43.9467452" lon="8.0004296"><ele>107.5</ele><time>2026-04-26T11:44:25.197Z</time></trkpt><trkpt lat="43.946514" lon="8.0003297"><ele>107.0</ele><time>2026-04-26T11:44:26.142Z</time></trkpt><trkpt lat="43.9460576" lon="8.0001664"><ele>116.5</ele><time>2026-04-26T11:44:28.008Z</time></trkpt><trkpt lat="43.9458121" lon="8.0001034"><ele>126.0</ele><time>2026-04-26T11:44:28.997Z</time></trkpt><trkpt lat="43.9455718" lon="8.000061"><ele>86.0</ele><time>2026-04-26T11:44:29.954Z</time></trkpt><trkpt lat="43.9406729" lon="8.0029249"><ele>86.0</ele><time>2026-04-26T11:44:51.729Z</time></trkpt><trkpt lat="43.9405955" lon="8.0033042"><ele>86.0</ele><time>2026-04-26T11:44:52.73Z</time></trkpt><trkpt lat="43.94049" lon="8.0035464"><ele>84.0</ele><time>2026-04-26T11:44:53.729Z</time></trkpt><trkpt lat="43.9404559" lon="8.0039829"><ele>82.0</ele><time>2026-04-26T11:44:56.725Z</time></trkpt><trkpt lat="43.9347685" lon="8.0138848"><ele>68.0</ele><time>2026-04-26T11:45:30.73Z</time></trkpt><trkpt lat="43.9346179" lon="8.0142088"><ele>54.0</ele><time>2026-04-26T11:45:31.73Z</time></trkpt><trkpt lat="43.9344624" lon="8.0144898"><ele>54.0</ele><time>2026-04-26T11:45:32.73Z</time></trkpt><trkpt lat="43.9343069" lon="8.0147664"><ele>54.0</ele><time>2026-04-26T11:45:33.73Z</time></trkpt><trkpt lat="43.9341212" lon="8.0151158"><ele>54.0</ele><time>2026-04-26T11:45:35.314Z</time></trkpt><trkpt lat="43.9339516" lon="8.0154231"><ele>54.0</ele><time>2026-04-26T11:45:36.26Z</time></trkpt><trkpt lat="43.9336006" lon="8.0160272"><ele>53.5</ele><time>2026-04-26T11:45:38.345Z</time></trkpt><trkpt lat="43.9333266" lon="8.0164964"><ele>53.0</ele><time>2026-04-26T11:45:40.247Z</time></trkpt><trkpt lat="43.9331933" lon="8.0167304"><ele>53.0</ele><time>2026-04-26T11:45:41.241Z</time></trkpt><trkpt lat="43.9329746" lon="8.0171798"><ele>53.0</ele><time>2026-04-26T11:45:43.028Z</time></trkpt><trkpt lat="43.9328483" lon="8.0175291"><ele>56.0</ele><time>2026-04-26T11:45:44.236Z</time></trkpt><trkpt lat="43.9327672" lon="8.0178045"><ele>59.0</ele><time>2026-04-26T11:45:45.149Z</time></trkpt><trkpt lat="43.9327005" lon="8.0181049"><ele>62.0</ele><time>2026-04-26T11:45:46.137Z</time></trkpt><trkpt lat="43.9326582" lon="8.0183931"><ele>66.0</ele><time>2026-04-26T11:45:47.062Z</time></trkpt><trkpt lat="43.9326299" lon="8.0187418"><ele>70.0</ele><time>2026-04-26T11:45:48.153Z</time></trkpt><trkpt lat="43.9326014" lon="8.0193659"><ele>64.0</ele><time>2026-04-26T11:45:50.229Z</time></trkpt><trkpt lat="43.9325292" lon="8.0198745"><ele>58.0</ele><time>2026-04-26T11:45:52.181Z</time></trkpt><trkpt lat="43.9323868" lon="8.0202949"><ele>58.0</ele><time>2026-04-26T11:45:54.116Z</time></trkpt><trkpt lat="43.9322922" lon="8.0204802"><ele>58.0</ele><time>2026-04-26T11:45:55.124Z</time></trkpt><trkpt lat="43.9321959" lon="8.0206405"><ele>58.0</ele><time>2026-04-26T11:45:56.119Z</time></trkpt><trkpt lat="43.9321044" lon="8.0207911"><ele>57.0</ele><time>2026-04-26T11:45:57.054Z</time></trkpt><trkpt lat="43.9320025" lon="8.020943"><ele>56.0</ele><time>2026-04-26T11:45:58.093Z</time></trkpt><trkpt lat="43.9318064" lon="8.0211646"><ele>55.0</ele><time>2026-04-26T11:46:00.068Z</time></trkpt><trkpt lat="43.9315997" lon="8.0213158"><ele>55.0</ele><time>2026-04-26T11:46:02.157Z</time></trkpt><trkpt lat="43.9314127" lon="8.021388"><ele>55.0</ele><time>2026-04-26T11:46:04.075Z</time></trkpt><trkpt lat="43.9312985" lon="8.0213968"><ele>55.0</ele><time>2026-04-26T11:46:05.266Z</time></trkpt><trkpt lat="43.9311579" lon="8.0213898"><ele>55.0</ele><time>2026-04-26T11:46:06.642Z</time></trkpt><trkpt lat="43.9309777" lon="8.0213719"><ele>54.75</ele><time>2026-04-26T11:46:08.202Z</time></trkpt><trkpt lat="43.9308427" lon="8.0213468"><ele>54.5</ele><time>2026-04-26T11:46:09.235Z</time></trkpt><trkpt lat="43.9307082" lon="8.0213135"><ele>54.25</ele><time>2026-04-26T11:46:10.166Z</time></trkpt><trkpt lat="43.9305463" lon="8.0212471"><ele>54.0</ele><time>2026-04-26T11:46:11.237Z</time></trkpt><trkpt lat="43.9303891" lon="8.0211721"><ele>54.0</ele><time>2026-04-26T11:46:12.194Z</time></trkpt><trkpt lat="43.930207" lon="8.0210883"><ele>54.0</ele><time>2026-04-26T11:46:13.287Z</time></trkpt><trkpt lat="43.9298789" lon="8.0209533"><ele>53.33333333333333</ele><time>2026-04-26T11:46:15.261Z</time></trkpt><trkpt lat="43.9297229" lon="8.0208879"><ele>52.666666666666664</ele><time>2026-04-26T11:46:16.217Z</time></trkpt><trkpt lat="43.9295586" lon="8.020814"><ele>52.0</ele><time>2026-04-26T11:46:17.321Z</time></trkpt><trkpt lat="43.929293" lon="8.0206921"><ele>50.666666666666664</ele><time>2026-04-26T11:46:19.339Z</time></trkpt><trkpt lat="43.9290887" lon="8.0205998"><ele>49.33333333333333</ele><time>2026-04-26T11:46:21.099Z</time></trkpt><trkpt lat="43.9289616" lon="8.0205336"><ele>48.0</ele><time>2026-04-26T11:46:22.216Z</time></trkpt><trkpt lat="43.9287461" lon="8.0203946"><ele>48.0</ele><time>2026-04-26T11:46:24.134Z</time></trkpt><trkpt lat="43.9286302" lon="8.0202969"><ele>48.0</ele><time>2026-04-26T11:46:25.177Z</time></trkpt><trkpt lat="43.9285227" lon="8.0201915"><ele>48.0</ele><time>2026-04-26T11:46:26.166Z</time></trkpt><trkpt lat="43.9284258" lon="8.0200899"><ele>48.0</ele><time>2026-04-26T11:46:27.078Z</time></trkpt><trkpt lat="43.9283078" lon="8.0199669"><ele>47.0</ele><time>2026-04-26T11:46:28.138Z</time></trkpt><trkpt lat="43.9281955" lon="8.0198567"><ele>46.0</ele><time>2026-04-26T11:46:29.144Z</time></trkpt><trkpt lat="43.9279704" lon="8.0196736"><ele>45.0</ele><time>2026-04-26T11:46:31.052Z</time></trkpt><trkpt lat="43.9278231" lon="8.0195955"><ele>45.0</ele><time>2026-04-26T11:46:32.202Z</time></trkpt><trkpt lat="43.9275629" lon="8.019532"><ele>45.0</ele><time>2026-04-26T11:46:34.149Z</time></trkpt><trkpt lat="43.9273134" lon="8.0195498"><ele>45.666666666666664</ele><time>2026-04-26T11:46:35.965Z</time></trkpt><trkpt lat="43.9271465" lon="8.0196039"><ele>46.33333333333333</ele><time>2026-04-26T11:46:37.197Z</time></trkpt><trkpt lat="43.9270242" lon="8.0196697"><ele>47.0</ele><time>2026-04-26T11:46:38.138Z</time></trkpt><trkpt lat="43.9268922" lon="8.0197689"><ele>47.666666666666664</ele><time>2026-04-26T11:46:39.239Z</time></trkpt><trkpt lat="43.9266968" lon="8.0199975"><ele>48.33333333333333</ele><time>2026-04-26T11:46:41.112Z</time></trkpt><trkpt lat="43.9265939" lon="8.020168"><ele>49.0</ele><time>2026-04-26T11:46:42.247Z</time></trkpt><trkpt lat="43.9265144" lon="8.0203143"><ele>49.0</ele><time>2026-04-26T11:46:43.188Z</time></trkpt><trkpt lat="43.9264406" lon="8.0204623"><ele>49.0</ele><time>2026-04-26T11:46:44.132Z</time></trkpt><trkpt lat="43.9263549" lon="8.0206277"><ele>49.0</ele><time>2026-04-26T11:46:45.217Z</time></trkpt><trkpt lat="43.9262601" lon="8.0208091"><ele>49.0</ele><time>2026-04-26T11:46:46.307Z</time></trkpt><trkpt lat="43.9261594" lon="8.0209854"><ele>47.5</ele><time>2026-04-26T11:46:47.265Z</time></trkpt><trkpt lat="43.9260157" lon="8.021194"><ele>46.0</ele><time>2026-04-26T11:46:48.33Z</time></trkpt><trkpt lat="43.9256732" lon="8.0216441"><ele>48.0</ele><time>2026-04-26T11:46:50.36Z</time></trkpt><trkpt lat="43.9253611" lon="8.0220202"><ele>50.0</ele><time>2026-04-26T11:46:52.285Z</time></trkpt><trkpt lat="43.925124" lon="8.0223115"><ele>49.0</ele><time>2026-04-26T11:46:54.358Z</time></trkpt><trkpt lat="43.9249556" lon="8.0225361"><ele>48.0</ele><time>2026-04-26T11:46:56.19Z</time></trkpt><trkpt lat="43.9248296" lon="8.0227057"><ele>47.0</ele><time>2026-04-26T11:46:57.319Z</time></trkpt><trkpt lat="43.9245127" lon="8.0230824"><ele>47.0</ele><time>2026-04-26T11:46:59.418Z</time></trkpt><trkpt lat="43.9243509" lon="8.0232426"><ele>47.0</ele><time>2026-04-26T11:47:00.303Z</time></trkpt><trkpt lat="43.9242008" lon="8.0233877"><ele>47.0</ele><time>2026-04-26T11:47:01.077Z</time></trkpt><trkpt lat="43.9239882" lon="8.0235986"><ele>45.0</ele><time>2026-04-26T11:47:02.182Z</time></trkpt><trkpt lat="43.9238014" lon="8.0238298"><ele>43.0</ele><time>2026-04-26T11:47:03.199Z</time></trkpt><trkpt lat="43.9234807" lon="8.0242424"><ele>43.333333333333336</ele><time>2026-04-26T11:47:05.072Z</time></trkpt><trkpt lat="43.9233253" lon="8.0244425"><ele>43.666666666666664</ele><time>2026-04-26T11:47:06.084Z</time></trkpt><trkpt lat="43.9231573" lon="8.0246498"><ele>44.0</ele><time>2026-04-26T11:47:07.226Z</time></trkpt><trkpt lat="43.9230088" lon="8.0247922"><ele>44.0</ele><time>2026-04-26T11:47:08.153Z</time></trkpt><trkpt lat="43.9227838" lon="8.0249126"><ele>44.0</ele><time>2026-04-26T11:47:09.367Z</time></trkpt><trkpt lat="43.9226006" lon="8.0249616"><ele>44.0</ele><time>2026-04-26T11:47:10.322Z</time></trkpt><trkpt lat="43.9222383" lon="8.0249944"><ele>44.33333333333333</ele><time>2026-04-26T11:47:12.263Z</time></trkpt><trkpt lat="43.9220634" lon="8.0250078"><ele>44.666666666666664</ele><time>2026-04-26T11:47:13.329Z</time></trkpt><trkpt lat="43.9217939" lon="8.0250465"><ele>45.0</ele><time>2026-04-26T11:47:15.263Z</time></trkpt><trkpt lat="43.9216144" lon="8.0250681"><ele>45.0</ele><time>2026-04-26T11:47:17.257Z</time></trkpt><trkpt lat="43.9215099" lon="8.0250321"><ele>45.0</ele><time>2026-04-26T11:47:19.192Z</time></trkpt><trkpt lat="43.9213745" lon="8.0249852"><ele>45.0</ele><time>2026-04-26T11:47:22.103Z</time></trkpt><trkpt lat="43.9212654" lon="8.0250024"><ele>45.0</ele><time>2026-04-26T11:47:26.175Z</time></trkpt><trkpt lat="43.9211865" lon="8.0249928"><ele>45.0</ele><time>2026-04-26T11:52:31.133Z</time></trkpt><trkpt lat="43.9211217" lon="8.0250756"><ele>45.0</ele><time>2026-04-26T11:52:33.289Z</time></trkpt><trkpt lat="43.9209702" lon="8.0251531"><ele>45.0</ele><time>2026-04-26T11:52:35.382Z</time></trkpt><trkpt lat="43.9207424" lon="8.0251643"><ele>45.0</ele><time>2026-04-26T11:52:37.36Z</time></trkpt><trkpt lat="43.9204899" lon="8.0251839"><ele>45.0</ele><time>2026-04-26T11:52:39.255Z</time></trkpt><trkpt lat="43.9201616" lon="8.0252316"><ele>45.0</ele><time>2026-04-26T11:52:41.311Z</time></trkpt><trkpt lat="43.9199868" lon="8.0252583"><ele>44.5</ele><time>2026-04-26T11:52:42.277Z</time></trkpt><trkpt lat="43.9196264" lon="8.0253203"><ele>44.0</ele><time>2026-04-26T11:52:44.102Z</time></trkpt><trkpt lat="43.9194215" lon="8.0253645"><ele>40.5</ele><time>2026-04-26T11:52:45.094Z</time></trkpt><trkpt lat="43.9192007" lon="8.0254176"><ele>37.0</ele><time>2026-04-26T11:52:46.165Z</time></trkpt><trkpt lat="43.9188189" lon="8.0255151"><ele>37.0</ele><time>2026-04-26T11:52:47.953Z</time></trkpt><trkpt lat="43.9186145" lon="8.0255787"><ele>37.0</ele><time>2026-04-26T11:52:48.922Z</time></trkpt><trkpt lat="43.918392" lon="8.0256615"><ele>37.0</ele><time>2026-04-26T11:52:49.998Z</time></trkpt><trkpt lat="43.9182018" lon="8.0257523"><ele>38.0</ele><time>2026-04-26T11:52:50.959Z</time></trkpt><trkpt lat="43.9180138" lon="8.025854"><ele>39.0</ele><time>2026-04-26T11:52:51.975Z</time></trkpt><trkpt lat="43.917839" lon="8.0259426"><ele>40.0</ele><time>2026-04-26T11:52:52.93Z</time></trkpt><trkpt lat="43.9176361" lon="8.0260147"><ele>39.66666666666667</ele><time>2026-04-26T11:52:54.008Z</time></trkpt><trkpt lat="43.9174466" lon="8.0260482"><ele>39.333333333333336</ele><time>2026-04-26T11:52:54.967Z</time></trkpt><trkpt lat="43.9172031" lon="8.0260422"><ele>39.0</ele><time>2026-04-26T11:52:56.156Z</time></trkpt><trkpt lat="43.9168336" lon="8.0259389"><ele>39.0</ele><time>2026-04-26T11:52:57.991Z</time></trkpt><trkpt lat="43.9165941" lon="8.0258318"><ele>39.0</ele><time>2026-04-26T11:52:59.278Z</time></trkpt><trkpt lat="43.9162935" lon="8.0257499"><ele>38.0</ele><time>2026-04-26T11:53:01.07Z</time></trkpt><trkpt lat="43.9161496" lon="8.0257551"><ele>37.0</ele><time>2026-04-26T11:53:02.034Z</time></trkpt><trkpt lat="43.9160123" lon="8.0258082"><ele>36.0</ele><time>2026-04-26T11:53:03.076Z</time></trkpt><trkpt lat="43.915891" lon="8.0259268"><ele>35.0</ele><time>2026-04-26T11:53:04.084Z</time></trkpt><trkpt lat="43.9157391" lon="8.0260823"><ele>35.0</ele><time>2026-04-26T11:53:05.155Z</time></trkpt><trkpt lat="43.9155602" lon="8.0262064"><ele>35.0</ele><time>2026-04-26T11:53:06.187Z</time></trkpt><trkpt lat="43.9153405" lon="8.0263098"><ele>35.0</ele><time>2026-04-26T11:53:07.287Z</time></trkpt><trkpt lat="43.9149756" lon="8.0265215"><ele>37.666666666666664</ele><time>2026-04-26T11:53:09.242Z</time></trkpt><trkpt lat="43.9147874" lon="8.0266805"><ele>40.333333333333336</ele><time>2026-04-26T11:53:10.269Z</time></trkpt><trkpt lat="43.9146034" lon="8.026838"><ele>43.0</ele><time>2026-04-26T11:53:11.367Z</time></trkpt><trkpt lat="43.9144954" lon="8.0269359"><ele>43.0</ele><time>2026-04-26T11:53:12.113Z</time></trkpt><trkpt lat="43.9143266" lon="8.0270784"><ele>43.0</ele><time>2026-04-26T11:53:13.349Z</time></trkpt><trkpt lat="43.9141159" lon="8.0271842"><ele>43.0</ele><time>2026-04-26T11:53:15.213Z</time></trkpt><trkpt lat="43.9140015" lon="8.0271414"><ele>41.5</ele><time>2026-04-26T11:53:16.301Z</time></trkpt><trkpt lat="43.9139113" lon="8.0270466"><ele>40.0</ele><time>2026-04-26T11:53:17.31Z</time></trkpt><trkpt lat="43.9138246" lon="8.0269147"><ele>38.5</ele><time>2026-04-26T11:53:18.346Z</time></trkpt><trkpt lat="43.913701" lon="8.0268153"><ele>37.0</ele><time>2026-04-26T11:53:19.389Z</time></trkpt><trkpt lat="43.9133689" lon="8.0267592"><ele>36.0</ele><time>2026-04-26T11:53:21.239Z</time></trkpt><trkpt lat="43.913164" lon="8.0267771"><ele>35.0</ele><time>2026-04-26T11:53:22.395Z</time></trkpt><trkpt lat="43.9128114" lon="8.0269376"><ele>35.0</ele><time>2026-04-26T11:53:24.217Z</time></trkpt><trkpt lat="43.9125936" lon="8.0270333"><ele>35.0</ele><time>2026-04-26T11:53:25.259Z</time></trkpt><trkpt lat="43.9124069" lon="8.0270955"><ele>35.0</ele><time>2026-04-26T11:53:26.232Z</time></trkpt><trkpt lat="43.9122246" lon="8.0271661"><ele>33.666666666666664</ele><time>2026-04-26T11:53:27.308Z</time></trkpt><trkpt lat="43.9120538" lon="8.0272513"><ele>32.333333333333336</ele><time>2026-04-26T11:53:28.276Z</time></trkpt><trkpt lat="43.9118968" lon="8.0273517"><ele>31.0</ele><time>2026-04-26T11:53:29.335Z</time></trkpt><trkpt lat="43.9115913" lon="8.0276576"><ele>34.0</ele><time>2026-04-26T11:53:31.332Z</time></trkpt><trkpt lat="43.9114297" lon="8.0277625"><ele>37.0</ele><time>2026-04-26T11:53:32.288Z</time></trkpt><trkpt lat="43.9112199" lon="8.0278158"><ele>40.0</ele><time>2026-04-26T11:53:33.363Z</time></trkpt><trkpt lat="43.9109778" lon="8.0277638"><ele>37.5</ele><time>2026-04-26T11:53:34.295Z</time></trkpt><trkpt lat="43.9107634" lon="8.0277691"><ele>35.0</ele><time>2026-04-26T11:53:35.297Z</time></trkpt><trkpt lat="43.9103306" lon="8.0276449"><ele>35.0</ele><time>2026-04-26T11:53:37.372Z</time></trkpt><trkpt lat="43.9101424" lon="8.0275656"><ele>35.0</ele><time>2026-04-26T11:53:38.315Z</time></trkpt><trkpt lat="43.909853" lon="8.0274084"><ele>31.666666666666664</ele><time>2026-04-26T11:53:40.116Z</time></trkpt><trkpt lat="43.9097423" lon="8.0272618"><ele>28.333333333333336</ele><time>2026-04-26T11:53:41.128Z</time></trkpt><trkpt lat="43.9096468" lon="8.0270954"><ele>25.0</ele><time>2026-04-26T11:53:42.099Z</time></trkpt><trkpt lat="43.9095346" lon="8.0269683"><ele>25.0</ele><time>2026-04-26T11:53:43.087Z</time></trkpt><trkpt lat="43.9093691" lon="8.026888"><ele>25.0</ele><time>2026-04-26T11:53:44.126Z</time></trkpt><trkpt lat="43.9091786" lon="8.026862"><ele>25.0</ele><time>2026-04-26T11:53:45.13Z</time></trkpt><trkpt lat="43.9089828" lon="8.0268535"><ele>28.333333333333336</ele><time>2026-04-26T11:53:46.124Z</time></trkpt><trkpt lat="43.9087575" lon="8.0268251"><ele>31.666666666666664</ele><time>2026-04-26T11:53:47.197Z</time></trkpt><trkpt lat="43.9085383" lon="8.0267737"><ele>35.0</ele><time>2026-04-26T11:53:48.216Z</time></trkpt><trkpt lat="43.9083286" lon="8.0267136"><ele>28.0</ele><time>2026-04-26T11:53:49.179Z</time></trkpt><trkpt lat="43.9080888" lon="8.0266369"><ele>21.0</ele><time>2026-04-26T11:53:50.28Z</time></trkpt><trkpt lat="43.9076801" lon="8.0265782"><ele>20.5</ele><time>2026-04-26T11:53:52.226Z</time></trkpt><trkpt lat="43.9074564" lon="8.0266274"><ele>20.0</ele><time>2026-04-26T11:53:53.196Z</time></trkpt><trkpt lat="43.9070141" lon="8.0267997"><ele>22.333333333333336</ele><time>2026-04-26T11:53:55.215Z</time></trkpt><trkpt lat="43.9068625" lon="8.0268853"><ele>24.666666666666668</ele><time>2026-04-26T11:53:56.043Z</time></trkpt><trkpt lat="43.9066952" lon="8.0269739"><ele>27.0</ele><time>2026-04-26T11:53:56.995Z</time></trkpt><trkpt lat="43.9065118" lon="8.0270583"><ele>27.0</ele><time>2026-04-26T11:53:58.129Z</time></trkpt><trkpt lat="43.9063725" lon="8.0270963"><ele>27.0</ele><time>2026-04-26T11:53:59.049Z</time></trkpt><trkpt lat="43.906221" lon="8.0270964"><ele>27.0</ele><time>2026-04-26T11:54:00.084Z</time></trkpt><trkpt lat="43.9060941" lon="8.0270679"><ele>27.0</ele><time>2026-04-26T11:54:01.059Z</time></trkpt><trkpt lat="43.905971" lon="8.0270447"><ele>26.333333333333336</ele><time>2026-04-26T11:54:02.085Z</time></trkpt><trkpt lat="43.9058281" lon="8.0270421"><ele>25.666666666666668</ele><time>2026-04-26T11:54:03.342Z</time></trkpt><trkpt lat="43.9055584" lon="8.0271323"><ele>25.0</ele><time>2026-04-26T11:54:05.155Z</time></trkpt><trkpt lat="43.9054062" lon="8.0271828"><ele>25.0</ele><time>2026-04-26T11:54:06.15Z</time></trkpt><trkpt lat="43.9052853" lon="8.0272138"><ele>25.0</ele><time>2026-04-26T11:54:07.06Z</time></trkpt><trkpt lat="43.9051365" lon="8.027244"><ele>25.0</ele><time>2026-04-26T11:54:08.133Z</time></trkpt><trkpt lat="43.9048252" lon="8.0272729"><ele>24.0</ele><time>2026-04-26T11:54:10.103Z</time></trkpt><trkpt lat="43.9046473" lon="8.027274"><ele>23.0</ele><time>2026-04-26T11:54:11.132Z</time></trkpt><trkpt lat="43.904455" lon="8.0272441"><ele>22.0</ele><time>2026-04-26T11:54:12.224Z</time></trkpt><trkpt lat="43.9042607" lon="8.0272005"><ele>20.0</ele><time>2026-04-26T11:54:13.298Z</time></trkpt><trkpt lat="43.9038883" lon="8.0271971"><ele>18.0</ele><time>2026-04-26T11:54:15.304Z</time></trkpt><trkpt lat="43.9035604" lon="8.0272328"><ele>17.666666666666668</ele><time>2026-04-26T11:54:17.257Z</time></trkpt><trkpt lat="43.9034014" lon="8.0272615"><ele>17.333333333333336</ele><time>2026-04-26T11:54:18.386Z</time></trkpt><trkpt lat="43.9032142" lon="8.0274041"><ele>17.0</ele><time>2026-04-26T11:54:20.005Z</time></trkpt><trkpt lat="43.9031117" lon="8.0275867"><ele>23.666666666666668</ele><time>2026-04-26T11:54:21.245Z</time></trkpt><trkpt lat="43.9030471" lon="8.0277618"><ele>30.333333333333336</ele><time>2026-04-26T11:54:22.167Z</time></trkpt><trkpt lat="43.9029754" lon="8.0279956"><ele>37.0</ele><time>2026-04-26T11:54:23.256Z</time></trkpt><trkpt lat="43.9029026" lon="8.0282544"><ele>45.0</ele><time>2026-04-26T11:54:24.364Z</time></trkpt><trkpt lat="43.9027928" lon="8.0287012"><ele>53.0</ele><time>2026-04-26T11:54:26.282Z</time></trkpt><trkpt lat="43.9027318" lon="8.0292008"><ele>56.5</ele><time>2026-04-26T11:54:28.305Z</time></trkpt><trkpt lat="43.9026995" lon="8.029499"><ele>60.0</ele><time>2026-04-26T11:54:29.466Z</time></trkpt><trkpt lat="43.9026475" lon="8.0299537"><ele>57.5</ele><time>2026-04-26T11:54:31.287Z</time></trkpt><trkpt lat="43.9026188" lon="8.0301993"><ele>55.0</ele><time>2026-04-26T11:54:32.357Z</time></trkpt><trkpt lat="43.9025889" lon="8.0306076"><ele>55.0</ele><time>2026-04-26T11:54:34.315Z</time></trkpt><trkpt lat="43.9025866" lon="8.0308002"><ele>55.0</ele><time>2026-04-26T11:54:35.29Z</time></trkpt><trkpt lat="43.9025729" lon="8.03097"><ele>55.0</ele><time>2026-04-26T11:54:36.213Z</time></trkpt><trkpt lat="43.9025582" lon="8.0311867"><ele>55.0</ele><time>2026-04-26T11:54:37.356Z</time></trkpt><trkpt lat="43.9024975" lon="8.0315377"><ele>45.666666666666664</ele><time>2026-04-26T11:54:39.405Z</time></trkpt><trkpt lat="43.902347" lon="8.0317691"><ele>36.33333333333333</ele><time>2026-04-26T11:54:41.304Z</time></trkpt><trkpt lat="43.9022567" lon="8.0318633"><ele>27.0</ele><time>2026-04-26T11:54:42.233Z</time></trkpt><trkpt lat="43.9021404" lon="8.0319762"><ele>27.0</ele><time>2026-04-26T11:54:43.176Z</time></trkpt><trkpt lat="43.9020288" lon="8.0320775"><ele>27.0</ele><time>2026-04-26T11:54:44.18Z</time></trkpt><trkpt lat="43.9019302" lon="8.0321671"><ele>27.0</ele><time>2026-04-26T11:54:45.163Z</time></trkpt><trkpt lat="43.9018433" lon="8.0322533"><ele>27.0</ele><time>2026-04-26T11:54:46.088Z</time></trkpt><trkpt lat="43.9017378" lon="8.0323672"><ele>26.5</ele><time>2026-04-26T11:54:47.228Z</time></trkpt><trkpt lat="43.9016693" lon="8.0324789"><ele>26.0</ele><time>2026-04-26T11:54:48.145Z</time></trkpt><trkpt lat="43.9016003" lon="8.0326162"><ele>25.5</ele><time>2026-04-26T11:54:49.153Z</time></trkpt><trkpt lat="43.9015486" lon="8.0327483"><ele>25.0</ele><time>2026-04-26T11:54:50.07Z</time></trkpt><trkpt lat="43.9014915" lon="8.0329025"><ele>25.0</ele><time>2026-04-26T11:54:51.216Z</time></trkpt><trkpt lat="43.9014365" lon="8.0330507"><ele>25.0</ele><time>2026-04-26T11:54:52.297Z</time></trkpt><trkpt lat="43.901303" lon="8.0333133"><ele>25.0</ele><time>2026-04-26T11:54:54.39Z</time></trkpt><trkpt lat="43.9011468" lon="8.0335022"><ele>24.4</ele><time>2026-04-26T11:54:56.18Z</time></trkpt><trkpt lat="43.9010546" lon="8.0336111"><ele>23.8</ele><time>2026-04-26T11:54:57.25Z</time></trkpt><trkpt lat="43.9009683" lon="8.033709"><ele>23.200000000000003</ele><time>2026-04-26T11:54:58.268Z</time></trkpt><trkpt lat="43.9008883" lon="8.0338135"><ele>22.6</ele><time>2026-04-26T11:54:59.246Z</time></trkpt><trkpt lat="43.9008123" lon="8.0338953"><ele>22.0</ele><time>2026-04-26T11:55:00.055Z</time></trkpt><trkpt lat="43.9007022" lon="8.0340173"><ele>22.0</ele><time>2026-04-26T11:55:01.198Z</time></trkpt><trkpt lat="43.900597" lon="8.0341348"><ele>22.0</ele><time>2026-04-26T11:55:02.278Z</time></trkpt><trkpt lat="43.9004925" lon="8.0342049"><ele>22.0</ele><time>2026-04-26T11:55:03.267Z</time></trkpt><trkpt lat="43.9004107" lon="8.0343245"><ele>22.0</ele><time>2026-04-26T11:55:04.324Z</time></trkpt><trkpt lat="43.9002382" lon="8.034547"><ele>20.5</ele><time>2026-04-26T11:55:06.337Z</time></trkpt><trkpt lat="43.90016" lon="8.0346392"><ele>19.0</ele><time>2026-04-26T11:55:07.252Z</time></trkpt><trkpt lat="43.9000593" lon="8.0347501"><ele>17.5</ele><time>2026-04-26T11:55:08.355Z</time></trkpt><trkpt lat="43.8999762" lon="8.0348437"><ele>16.0</ele><time>2026-04-26T11:55:09.327Z</time></trkpt><trkpt lat="43.8998874" lon="8.0349431"><ele>18.333333333333332</ele><time>2026-04-26T11:55:10.366Z</time></trkpt><trkpt lat="43.8997107" lon="8.0351408"><ele>20.666666666666668</ele><time>2026-04-26T11:55:12.413Z</time></trkpt><trkpt lat="43.8996323" lon="8.0352372"><ele>23.0</ele><time>2026-04-26T11:55:13.362Z</time></trkpt><trkpt lat="43.8994485" lon="8.0354165"><ele>23.0</ele><time>2026-04-26T11:55:15.181Z</time></trkpt><trkpt lat="43.8993071" lon="8.0355283"><ele>23.0</ele><time>2026-04-26T11:55:16.279Z</time></trkpt><trkpt lat="43.8991506" lon="8.0356531"><ele>23.0</ele><time>2026-04-26T11:55:17.441Z</time></trkpt><trkpt lat="43.8988875" lon="8.0358683"><ele>22.333333333333336</ele><time>2026-04-26T11:55:19.384Z</time></trkpt><trkpt lat="43.8986935" lon="8.036052"><ele>21.666666666666668</ele><time>2026-04-26T11:55:21.185Z</time></trkpt><trkpt lat="43.8985995" lon="8.0361694"><ele>21.0</ele><time>2026-04-26T11:55:22.359Z</time></trkpt><trkpt lat="43.898386" lon="8.0363718"><ele>19.333333333333332</ele><time>2026-04-26T11:55:24.481Z</time></trkpt><trkpt lat="43.8981585" lon="8.0365002"><ele>17.666666666666664</ele><time>2026-04-26T11:55:26.365Z</time></trkpt><trkpt lat="43.898032" lon="8.0365271"><ele>16.0</ele><time>2026-04-26T11:55:27.38Z</time></trkpt><trkpt lat="43.8977698" lon="8.0365754"><ele>16.5</ele><time>2026-04-26T11:55:29.238Z</time></trkpt><trkpt lat="43.89747" lon="8.0366781"><ele>17.0</ele><time>2026-04-26T11:55:31.152Z</time></trkpt><trkpt lat="43.8972755" lon="8.0367489"><ele>17.0</ele><time>2026-04-26T11:55:32.302Z</time></trkpt><trkpt lat="43.8969277" lon="8.0368783"><ele>17.0</ele><time>2026-04-26T11:55:34.278Z</time></trkpt><trkpt lat="43.8965449" lon="8.0370175"><ele>16.0</ele><time>2026-04-26T11:55:36.345Z</time></trkpt><trkpt lat="43.8962374" lon="8.0371303"><ele>15.0</ele><time>2026-04-26T11:55:38.115Z</time></trkpt><trkpt lat="43.8960556" lon="8.0371889"><ele>13.5</ele><time>2026-04-26T11:55:39.138Z</time></trkpt><trkpt lat="43.8956738" lon="8.0373292"><ele>12.0</ele><time>2026-04-26T11:55:41.264Z</time></trkpt><trkpt lat="43.8953178" lon="8.037451"><ele>12.5</ele><time>2026-04-26T11:55:43.21Z</time></trkpt><trkpt lat="43.8950842" lon="8.0375265"><ele>13.0</ele><time>2026-04-26T11:55:44.481Z</time></trkpt><trkpt lat="43.8947386" lon="8.0376591"><ele>13.0</ele><time>2026-04-26T11:55:46.413Z</time></trkpt><trkpt lat="43.8943711" lon="8.0377944"><ele>13.0</ele><time>2026-04-26T11:55:48.399Z</time></trkpt><trkpt lat="43.8940422" lon="8.037911"><ele>13.0</ele><time>2026-04-26T11:55:50.224Z</time></trkpt><trkpt lat="43.8938489" lon="8.0379795"><ele>13.0</ele><time>2026-04-26T11:55:51.357Z</time></trkpt><trkpt lat="43.8936969" lon="8.0380329"><ele>13.0</ele><time>2026-04-26T11:55:52.335Z</time></trkpt><trkpt lat="43.8935559" lon="8.0380825"><ele>11.5</ele><time>2026-04-26T11:55:53.318Z</time></trkpt><trkpt lat="43.8932712" lon="8.0381804"><ele>10.0</ele><time>2026-04-26T11:55:55.426Z</time></trkpt><trkpt lat="43.8930428" lon="8.0382542"><ele>10.75</ele><time>2026-04-26T11:55:57.32Z</time></trkpt><trkpt lat="43.8928622" lon="8.0383309"><ele>11.5</ele><time>2026-04-26T11:55:59.335Z</time></trkpt><trkpt lat="43.8927776" lon="8.0384769"><ele>12.25</ele><time>2026-04-26T11:56:01.126Z</time></trkpt><trkpt lat="43.892757" lon="8.0386086"><ele>13.0</ele><time>2026-04-26T11:56:02.131Z</time></trkpt><trkpt lat="43.8927506" lon="8.0387842"><ele>13.0</ele><time>2026-04-26T11:56:03.331Z</time></trkpt><trkpt lat="43.8927341" lon="8.0390707"><ele>13.0</ele><time>2026-04-26T11:56:05.155Z</time></trkpt><trkpt lat="43.8927171" lon="8.0392481"><ele>13.0</ele><time>2026-04-26T11:56:06.26Z</time></trkpt><trkpt lat="43.8927008" lon="8.0393778"><ele>13.0</ele><time>2026-04-26T11:56:07.168Z</time></trkpt><trkpt lat="43.8926772" lon="8.0395495"><ele>13.75</ele><time>2026-04-26T11:56:08.405Z</time></trkpt><trkpt lat="43.8926348" lon="8.0398054"><ele>14.5</ele><time>2026-04-26T11:56:10.356Z</time></trkpt><trkpt lat="43.8926006" lon="8.0400263"><ele>15.25</ele><time>2026-04-26T11:56:12.053Z</time></trkpt><trkpt lat="43.892573" lon="8.0401424"><ele>16.0</ele><time>2026-04-26T11:56:13.13Z</time></trkpt><trkpt lat="43.8925236" lon="8.0402547"><ele>16.0</ele><time>2026-04-26T11:56:14.376Z</time></trkpt><trkpt lat="43.892429" lon="8.0403465"><ele>16.0</ele><time>2026-04-26T11:56:16.169Z</time></trkpt><trkpt lat="43.8923097" lon="8.0403694"><ele>16.0</ele><time>2026-04-26T11:56:18.242Z</time></trkpt><trkpt lat="43.8922104" lon="8.0404558"><ele>16.0</ele><time>2026-04-26T11:56:20.253Z</time></trkpt><trkpt lat="43.8921909" lon="8.0406919"><ele>17.0</ele><time>2026-04-26T11:56:23.112Z</time></trkpt><trkpt lat="43.8921875" lon="8.0408207"><ele>18.0</ele><time>2026-04-26T11:56:24.34Z</time></trkpt><trkpt lat="43.892152" lon="8.0410138"><ele>19.0</ele><time>2026-04-26T11:56:26.158Z</time></trkpt><trkpt lat="43.8921106" lon="8.041132"><ele>20.0</ele><time>2026-04-26T11:56:27.241Z</time></trkpt><trkpt lat="43.891998" lon="8.041312"><ele>20.0</ele><time>2026-04-26T11:56:29.226Z</time></trkpt><trkpt lat="43.8919274" lon="8.0413985"><ele>20.0</ele><time>2026-04-26T11:56:30.151Z</time></trkpt><trkpt lat="43.8918479" lon="8.0414871"><ele>20.0</ele><time>2026-04-26T11:56:31.065Z</time></trkpt><trkpt lat="43.8917622" lon="8.0415959"><ele>20.0</ele><time>2026-04-26T11:56:32.237Z</time></trkpt><trkpt lat="43.8916163" lon="8.0417843"><ele>20.25</ele><time>2026-04-26T11:56:34.094Z</time></trkpt><trkpt lat="43.8915268" lon="8.0418928"><ele>20.5</ele><time>2026-04-26T11:56:35.198Z</time></trkpt><trkpt lat="43.8914359" lon="8.0419972"><ele>20.75</ele><time>2026-04-26T11:56:36.252Z</time></trkpt><trkpt lat="43.891345" lon="8.0420918"><ele>21.0</ele><time>2026-04-26T11:56:37.293Z</time></trkpt><trkpt lat="43.8912488" lon="8.0421726"><ele>21.0</ele><time>2026-04-26T11:56:38.288Z</time></trkpt><trkpt lat="43.8910409" lon="8.0422712"><ele>21.0</ele><time>2026-04-26T11:56:40.248Z</time></trkpt><trkpt lat="43.8909269" lon="8.0422987"><ele>21.0</ele><time>2026-04-26T11:56:41.239Z</time></trkpt><trkpt lat="43.8908156" lon="8.0423185"><ele>21.0</ele><time>2026-04-26T11:56:42.214Z</time></trkpt><trkpt lat="43.8906961" lon="8.0423564"><ele>21.75</ele><time>2026-04-26T11:56:43.238Z</time></trkpt><trkpt lat="43.8905785" lon="8.0423768"><ele>22.5</ele><time>2026-04-26T11:56:44.382Z</time></trkpt><trkpt lat="43.8904825" lon="8.0423966"><ele>23.25</ele><time>2026-04-26T11:56:45.314Z</time></trkpt><trkpt lat="43.8903793" lon="8.0424354"><ele>24.0</ele><time>2026-04-26T11:56:46.331Z</time></trkpt><trkpt lat="43.8901626" lon="8.0424974"><ele>23.666666666666668</ele><time>2026-04-26T11:56:48.408Z</time></trkpt><trkpt lat="43.8899726" lon="8.0425847"><ele>23.333333333333336</ele><time>2026-04-26T11:56:50.384Z</time></trkpt><trkpt lat="43.8898341" lon="8.0426627"><ele>23.0</ele><time>2026-04-26T11:56:52.29Z</time></trkpt><trkpt lat="43.8896816" lon="8.0428677"><ele>23.0</ele><time>2026-04-26T11:56:53.737Z</time></trkpt><trkpt lat="43.8896179" lon="8.0429954"><ele>23.0</ele><time>2026-04-26T11:56:54.737Z</time></trkpt><trkpt lat="43.8895893" lon="8.0431286"><ele>23.0</ele><time>2026-04-26T11:56:55.737Z</time></trkpt><trkpt lat="43.8895634" lon="8.0432843"><ele>23.0</ele><time>2026-04-26T11:56:57.409Z</time></trkpt><trkpt lat="43.8895456" lon="8.0433936"><ele>23.0</ele><time>2026-04-26T11:56:58.363Z</time></trkpt><trkpt lat="43.8895955" lon="8.0435463"><ele>23.599999999999998</ele><time>2026-04-26T11:57:00.306Z</time></trkpt><trkpt lat="43.8896729" lon="8.0435521"><ele>24.2</ele><time>2026-04-26T11:57:01.295Z</time></trkpt><trkpt lat="43.8897617" lon="8.0435242"><ele>24.8</ele><time>2026-04-26T11:57:02.25Z</time></trkpt><trkpt lat="43.889866" lon="8.0434817"><ele>25.4</ele><time>2026-04-26T11:57:03.181Z</time></trkpt><trkpt lat="43.8899956" lon="8.0434247"><ele>26.0</ele><time>2026-04-26T11:57:04.384Z</time></trkpt><trkpt lat="43.8902382" lon="8.0433246"><ele>25.0</ele><time>2026-04-26T11:57:06.351Z</time></trkpt><trkpt lat="43.8905302" lon="8.0431976"><ele>24.0</ele><time>2026-04-26T11:57:08.391Z</time></trkpt><trkpt lat="43.8908548" lon="8.0431303"><ele>26.666666666666664</ele><time>2026-04-26T11:57:10.367Z</time></trkpt><trkpt lat="43.8911447" lon="8.0430745"><ele>29.333333333333332</ele><time>2026-04-26T11:57:12.167Z</time></trkpt><trkpt lat="43.8912791" lon="8.0430509"><ele>32.0</ele><time>2026-04-26T11:57:13.162Z</time></trkpt><trkpt lat="43.8914794" lon="8.0429762"><ele>31.999999999999996</ele><time>2026-04-26T11:57:15.067Z</time></trkpt><trkpt lat="43.891543" lon="8.0429368"><ele>32.0</ele><time>2026-04-26T11:57:16.096Z</time></trkpt><trkpt lat="43.8916172" lon="8.0429836"><ele>32.0</ele><time>2026-04-26T11:57:18.115Z</time></trkpt><trkpt lat="43.8915555" lon="8.043079"><ele>32.0</ele><time>2026-04-26T11:57:20.09Z</time></trkpt><trkpt lat="43.8914929" lon="8.0431324"><ele>31.999999999999996</ele><time>2026-04-26T11:57:21.125Z</time></trkpt><trkpt lat="43.8914107" lon="8.0431979"><ele>32.0</ele><time>2026-04-26T11:57:22.201Z</time></trkpt><trkpt lat="43.8913276" lon="8.0432834"><ele>35.666666666666664</ele><time>2026-04-26T11:57:23.205Z</time></trkpt><trkpt lat="43.8912371" lon="8.0433811"><ele>39.333333333333336</ele><time>2026-04-26T11:57:24.203Z</time></trkpt><trkpt lat="43.8911288" lon="8.0434764"><ele>43.0</ele><time>2026-04-26T11:57:25.241Z</time></trkpt><trkpt lat="43.8909265" lon="8.0436739"><ele>43.75</ele><time>2026-04-26T11:57:27.106Z</time></trkpt><trkpt lat="43.8907971" lon="8.0438322"><ele>44.5</ele><time>2026-04-26T11:57:28.37Z</time></trkpt><trkpt lat="43.8907078" lon="8.0439478"><ele>45.25</ele><time>2026-04-26T11:57:29.294Z</time></trkpt><trkpt lat="43.8906143" lon="8.0440627"><ele>46.0</ele><time>2026-04-26T11:57:30.289Z</time></trkpt><trkpt lat="43.8905373" lon="8.0441731"><ele>46.0</ele><time>2026-04-26T11:57:31.244Z</time></trkpt><trkpt lat="43.8904638" lon="8.0442872"><ele>46.0</ele><time>2026-04-26T11:57:32.304Z</time></trkpt><trkpt lat="43.8904006" lon="8.0445108"><ele>46.0</ele><time>2026-04-26T11:57:34.349Z</time></trkpt><trkpt lat="43.8903717" lon="8.0446618"><ele>46.0</ele><time>2026-04-26T11:57:35.423Z</time></trkpt><trkpt lat="43.8903669" lon="8.0447791"><ele>46.0</ele><time>2026-04-26T11:57:36.377Z</time></trkpt><trkpt lat="43.8903831" lon="8.0449433"><ele>46.0</ele><time>2026-04-26T11:57:38.256Z</time></trkpt><trkpt lat="43.8904419" lon="8.0449981"><ele>46.0</ele><time>2026-04-26T11:57:39.225Z</time></trkpt><trkpt lat="43.8905514" lon="8.0450217"><ele>46.0</ele><time>2026-04-26T11:57:40.265Z</time></trkpt><trkpt lat="43.8906668" lon="8.0450548"><ele>46.0</ele><time>2026-04-26T11:57:41.32Z</time></trkpt><trkpt lat="43.8909748" lon="8.0451015"><ele>49.5</ele><time>2026-04-26T11:57:43.567Z</time></trkpt><trkpt lat="43.8912435" lon="8.0450936"><ele>53.0</ele><time>2026-04-26T11:57:45.457Z</time></trkpt><trkpt lat="43.8915139" lon="8.0451107"><ele>56.0</ele><time>2026-04-26T11:57:47.391Z</time></trkpt><trkpt lat="43.8917948" lon="8.0451369"><ele>59.0</ele><time>2026-04-26T11:57:49.43Z</time></trkpt><trkpt lat="43.8919273" lon="8.0451784"><ele>62.0</ele><time>2026-04-26T11:57:50.453Z</time></trkpt><trkpt lat="43.8921308" lon="8.0452734"><ele>62.0</ele><time>2026-04-26T11:57:52.431Z</time></trkpt><trkpt lat="43.8922237" lon="8.0453769"><ele>62.0</ele><time>2026-04-26T11:57:53.511Z</time></trkpt><trkpt lat="43.8923458" lon="8.0456724"><ele>62.0</ele><time>2026-04-26T11:57:55.501Z</time></trkpt><trkpt lat="43.8924157" lon="8.0459783"><ele>62.333333333333336</ele><time>2026-04-26T11:57:57.384Z</time></trkpt><trkpt lat="43.8925422" lon="8.0462333"><ele>62.66666666666667</ele><time>2026-04-26T11:57:59.413Z</time></trkpt><trkpt lat="43.8926572" lon="8.046371"><ele>63.0</ele><time>2026-04-26T11:58:01.143Z</time></trkpt><trkpt lat="43.892812" lon="8.0463377"><ele>63.0</ele><time>2026-04-26T11:58:04.209Z</time></trkpt><trkpt lat="43.8928295" lon="8.0462527"><ele>63.0</ele><time>2026-04-26T11:58:05.215Z</time></trkpt><trkpt lat="43.8928758" lon="8.0461646"><ele>63.0</ele><time>2026-04-26T11:58:06.141Z</time></trkpt><trkpt lat="43.8929274" lon="8.0461116"><ele>63.0</ele><time>2026-04-26T11:58:07.147Z</time></trkpt><trkpt lat="43.8929949" lon="8.0460791"><ele>63.0</ele><time>2026-04-26T11:58:08.215Z</time></trkpt><trkpt lat="43.8931592" lon="8.0461301"><ele>63.0</ele><time>2026-04-26T11:58:10.226Z</time></trkpt><trkpt lat="43.8932684" lon="8.0460796"><ele>63.0</ele><time>2026-04-26T11:58:12.306Z</time></trkpt><trkpt lat="43.8932993" lon="8.0459693"><ele>63.0</ele><time>2026-04-26T11:58:14.305Z</time></trkpt></trkseg></trk></gpx>